<?xml version="1.0"?>
<gpx
 version="1.1"
 creator="Satmap Active 20"
 xmlns:xsi="http://www.w3.org/2001/XMLSchema-instance"
 xmlns="http://www.topografix.com/GPX/1/1"
 xmlns:satmap="http://www.satmap.com/updates/xmlschemas/GpxExtensions/v2/GpxExtensions_v2.xsd"
 xsi:schemaLocation="http://www.topografix.com/GPX/1/1 http://www.topografix.com/GPX/1/1/gpx.xsd">
<metadata>
<time>2022-03-04T13:49:59Z</time>
<extensions>
<satmap:platform>43</satmap:platform>
<satmap:software version="3.13.037">SM15.exe</satmap:software>
<satmap:username>pieter metz</satmap:username>
<satmap:network_ids>
<satmap:network_id type="wifi">00-23-A7-CA-E3-5C</satmap:network_id>
<satmap:network_id type="bluetooth">80-BB-EB-78-4F-29</satmap:network_id>
</satmap:network_ids>
<satmap:snap_type>simple</satmap:snap_type>
</extensions>
</metadata>
<trk>
<name>2022-03-04_1350</name>
<desc>Track 1</desc>
<number>1</number>
<trkseg>
<trkpt lat="52.031441" lon="05.785297"><ele>11.5</ele><time>2022-03-04T13:49:59Z</time><name>PT1</name></trkpt>
<trkpt lat="52.031450" lon="05.785290"><ele>11</ele><time>2022-03-04T13:51:07Z</time><name>PT2</name></trkpt>
<trkpt lat="52.031455" lon="05.785279"><ele>11.1</ele><time>2022-03-04T13:51:07Z</time><name>PT3</name></trkpt>
<trkpt lat="52.031468" lon="05.785263"><ele>10.9</ele><time>2022-03-04T13:51:08Z</time><name>PT4</name></trkpt>
<trkpt lat="52.031487" lon="05.785252"><ele>10.9</ele><time>2022-03-04T13:51:10Z</time><name>PT5</name></trkpt>
<trkpt lat="52.031505" lon="05.785246"><ele>10.8</ele><time>2022-03-04T13:51:10Z</time><name>PT6</name></trkpt>
<trkpt lat="52.031520" lon="05.785249"><ele>10.8</ele><time>2022-03-04T13:51:11Z</time><name>PT7</name></trkpt>
<trkpt lat="52.031531" lon="05.785247"><ele>10.9</ele><time>2022-03-04T13:51:13Z</time><name>PT8</name></trkpt>
<trkpt lat="52.031543" lon="05.785243"><ele>11</ele><time>2022-03-04T13:51:13Z</time><name>PT9</name></trkpt>
<trkpt lat="52.031553" lon="05.785238"><ele>11.3</ele><time>2022-03-04T13:51:14Z</time><name>PT10</name></trkpt>
<trkpt lat="52.031567" lon="05.785241"><ele>11.3</ele><time>2022-03-04T13:51:16Z</time><name>PT11</name></trkpt>
<trkpt lat="52.031579" lon="05.785239"><ele>11.3</ele><time>2022-03-04T13:51:16Z</time><name>PT12</name></trkpt>
<trkpt lat="52.031593" lon="05.785240"><ele>11.3</ele><time>2022-03-04T13:51:17Z</time><name>PT13</name></trkpt>
<trkpt lat="52.031606" lon="05.785238"><ele>11.3</ele><time>2022-03-04T13:51:19Z</time><name>PT14</name></trkpt>
<trkpt lat="52.031622" lon="05.785238"><ele>11.2</ele><time>2022-03-04T13:51:19Z</time><name>PT15</name></trkpt>
<trkpt lat="52.031635" lon="05.785237"><ele>11.1</ele><time>2022-03-04T13:51:20Z</time><name>PT16</name></trkpt>
<trkpt lat="52.031645" lon="05.785232"><ele>11.3</ele><time>2022-03-04T13:51:22Z</time><name>PT17</name></trkpt>
<trkpt lat="52.031657" lon="05.785224"><ele>11.3</ele><time>2022-03-04T13:51:22Z</time><name>PT18</name></trkpt>
<trkpt lat="52.031668" lon="05.785219"><ele>11.5</ele><time>2022-03-04T13:51:23Z</time><name>PT19</name></trkpt>
<trkpt lat="52.031675" lon="05.785216"><ele>11.7</ele><time>2022-03-04T13:51:25Z</time><name>PT20</name></trkpt>
<trkpt lat="52.031685" lon="05.785212"><ele>11.5</ele><time>2022-03-04T13:51:25Z</time><name>PT21</name></trkpt>
<trkpt lat="52.031697" lon="05.785209"><ele>11.5</ele><time>2022-03-04T13:51:26Z</time><name>PT22</name></trkpt>
<trkpt lat="52.031711" lon="05.785204"><ele>11.4</ele><time>2022-03-04T13:51:28Z</time><name>PT23</name></trkpt>
<trkpt lat="52.031722" lon="05.785200"><ele>11.3</ele><time>2022-03-04T13:51:28Z</time><name>PT24</name></trkpt>
<trkpt lat="52.031732" lon="05.785196"><ele>11.7</ele><time>2022-03-04T13:51:29Z</time><name>PT25</name></trkpt>
<trkpt lat="52.031742" lon="05.785194"><ele>11.9</ele><time>2022-03-04T13:51:31Z</time><name>PT26</name></trkpt>
<trkpt lat="52.031754" lon="05.785193"><ele>12.2</ele><time>2022-03-04T13:51:31Z</time><name>PT27</name></trkpt>
<trkpt lat="52.031769" lon="05.785193"><ele>12.2</ele><time>2022-03-04T13:51:32Z</time><name>PT28</name></trkpt>
<trkpt lat="52.031785" lon="05.785191"><ele>11.9</ele><time>2022-03-04T13:51:34Z</time><name>PT29</name></trkpt>
<trkpt lat="52.031793" lon="05.785194"><ele>11.8</ele><time>2022-03-04T13:51:34Z</time><name>PT30</name></trkpt>
<trkpt lat="52.031800" lon="05.785195"><ele>11.6</ele><time>2022-03-04T13:51:35Z</time><name>PT31</name></trkpt>
<trkpt lat="52.031809" lon="05.785193"><ele>11.6</ele><time>2022-03-04T13:51:37Z</time><name>PT32</name></trkpt>
<trkpt lat="52.031817" lon="05.785193"><ele>11.6</ele><time>2022-03-04T13:51:37Z</time><name>PT33</name></trkpt>
<trkpt lat="52.031823" lon="05.785194"><ele>11.8</ele><time>2022-03-04T13:51:38Z</time><name>PT34</name></trkpt>
<trkpt lat="52.031827" lon="05.785193"><ele>11.9</ele><time>2022-03-04T13:51:40Z</time><name>PT35</name></trkpt>
<trkpt lat="52.031829" lon="05.785191"><ele>12</ele><time>2022-03-04T13:51:40Z</time><name>PT36</name></trkpt>
<trkpt lat="52.031836" lon="05.785190"><ele>12</ele><time>2022-03-04T13:51:41Z</time><name>PT37</name></trkpt>
<trkpt lat="52.031849" lon="05.785188"><ele>12.1</ele><time>2022-03-04T13:51:43Z</time><name>PT38</name></trkpt>
<trkpt lat="52.031855" lon="05.785186"><ele>12.1</ele><time>2022-03-04T13:51:43Z</time><name>PT39</name></trkpt>
<trkpt lat="52.031861" lon="05.785181"><ele>12.1</ele><time>2022-03-04T13:51:44Z</time><name>PT40</name></trkpt>
<trkpt lat="52.031872" lon="05.785183"><ele>12.1</ele><time>2022-03-04T13:51:46Z</time><name>PT41</name></trkpt>
<trkpt lat="52.031887" lon="05.785179"><ele>12</ele><time>2022-03-04T13:51:46Z</time><name>PT42</name></trkpt>
<trkpt lat="52.031897" lon="05.785177"><ele>11.9</ele><time>2022-03-04T13:51:47Z</time><name>PT43</name></trkpt>
<trkpt lat="52.031913" lon="05.785176"><ele>12</ele><time>2022-03-04T13:51:49Z</time><name>PT44</name></trkpt>
<trkpt lat="52.031929" lon="05.785180"><ele>11.8</ele><time>2022-03-04T13:51:49Z</time><name>PT45</name></trkpt>
<trkpt lat="52.031940" lon="05.785180"><ele>11.8</ele><time>2022-03-04T13:51:50Z</time><name>PT46</name></trkpt>
<trkpt lat="52.031951" lon="05.785181"><ele>11.8</ele><time>2022-03-04T13:51:52Z</time><name>PT47</name></trkpt>
<trkpt lat="52.031969" lon="05.785176"><ele>11.8</ele><time>2022-03-04T13:51:52Z</time><name>PT48</name></trkpt>
<trkpt lat="52.031986" lon="05.785175"><ele>11.9</ele><time>2022-03-04T13:51:53Z</time><name>PT49</name></trkpt>
<trkpt lat="52.032002" lon="05.785180"><ele>11.9</ele><time>2022-03-04T13:51:55Z</time><name>PT50</name></trkpt>
<trkpt lat="52.032017" lon="05.785183"><ele>11.8</ele><time>2022-03-04T13:51:55Z</time><name>PT51</name></trkpt>
<trkpt lat="52.032024" lon="05.785182"><ele>11.8</ele><time>2022-03-04T13:51:56Z</time><name>PT52</name></trkpt>
<trkpt lat="52.032041" lon="05.785182"><ele>11.8</ele><time>2022-03-04T13:51:58Z</time><name>PT53</name></trkpt>
<trkpt lat="52.032050" lon="05.785183"><ele>11.9</ele><time>2022-03-04T13:51:58Z</time><name>PT54</name></trkpt>
<trkpt lat="52.032056" lon="05.785181"><ele>12</ele><time>2022-03-04T13:51:59Z</time><name>PT55</name></trkpt>
<trkpt lat="52.032061" lon="05.785182"><ele>12.2</ele><time>2022-03-04T13:52:01Z</time><name>PT56</name></trkpt>
<trkpt lat="52.032068" lon="05.785180"><ele>12.1</ele><time>2022-03-04T13:52:01Z</time><name>PT57</name></trkpt>
<trkpt lat="52.032076" lon="05.785179"><ele>11.8</ele><time>2022-03-04T13:52:02Z</time><name>PT58</name></trkpt>
<trkpt lat="52.032093" lon="05.785171"><ele>12.1</ele><time>2022-03-04T13:52:04Z</time><name>PT59</name></trkpt>
<trkpt lat="52.032109" lon="05.785161"><ele>11.9</ele><time>2022-03-04T13:52:04Z</time><name>PT60</name></trkpt>
<trkpt lat="52.032123" lon="05.785155"><ele>12.1</ele><time>2022-03-04T13:52:05Z</time><name>PT61</name></trkpt>
<trkpt lat="52.032138" lon="05.785150"><ele>12.4</ele><time>2022-03-04T13:52:07Z</time><name>PT62</name></trkpt>
<trkpt lat="52.032155" lon="05.785145"><ele>12.5</ele><time>2022-03-04T13:52:07Z</time><name>PT63</name></trkpt>
<trkpt lat="52.032174" lon="05.785139"><ele>12.5</ele><time>2022-03-04T13:52:08Z</time><name>PT64</name></trkpt>
<trkpt lat="52.032190" lon="05.785130"><ele>12.4</ele><time>2022-03-04T13:52:10Z</time><name>PT65</name></trkpt>
<trkpt lat="52.032212" lon="05.785121"><ele>12.3</ele><time>2022-03-04T13:52:10Z</time><name>PT66</name></trkpt>
<trkpt lat="52.032232" lon="05.785115"><ele>12.3</ele><time>2022-03-04T13:52:11Z</time><name>PT67</name></trkpt>
<trkpt lat="52.032251" lon="05.785118"><ele>12.3</ele><time>2022-03-04T13:52:13Z</time><name>PT68</name></trkpt>
<trkpt lat="52.032265" lon="05.785126"><ele>12.4</ele><time>2022-03-04T13:52:13Z</time><name>PT69</name></trkpt>
<trkpt lat="52.032276" lon="05.785138"><ele>12.5</ele><time>2022-03-04T13:52:15Z</time><name>PT70</name></trkpt>
<trkpt lat="52.032280" lon="05.785152"><ele>12.3</ele><time>2022-03-04T13:52:16Z</time><name>PT71</name></trkpt>
<trkpt lat="52.032284" lon="05.785167"><ele>12.4</ele><time>2022-03-04T13:52:16Z</time><name>PT72</name></trkpt>
<trkpt lat="52.032289" lon="05.785182"><ele>12.3</ele><time>2022-03-04T13:52:17Z</time><name>PT73</name></trkpt>
<trkpt lat="52.032290" lon="05.785198"><ele>12.3</ele><time>2022-03-04T13:52:19Z</time><name>PT74</name></trkpt>
<trkpt lat="52.032289" lon="05.785211"><ele>12.4</ele><time>2022-03-04T13:52:19Z</time><name>PT75</name></trkpt>
<trkpt lat="52.032290" lon="05.785229"><ele>12.6</ele><time>2022-03-04T13:52:20Z</time><name>PT76</name></trkpt>
<trkpt lat="52.032290" lon="05.785246"><ele>12.7</ele><time>2022-03-04T13:52:22Z</time><name>PT77</name></trkpt>
<trkpt lat="52.032289" lon="05.785259"><ele>12.7</ele><time>2022-03-04T13:52:22Z</time><name>PT78</name></trkpt>
<trkpt lat="52.032286" lon="05.785267"><ele>12.6</ele><time>2022-03-04T13:52:23Z</time><name>PT79</name></trkpt>
<trkpt lat="52.032286" lon="05.785278"><ele>12.7</ele><time>2022-03-04T13:52:25Z</time><name>PT80</name></trkpt>
<trkpt lat="52.032285" lon="05.785291"><ele>12.5</ele><time>2022-03-04T13:52:25Z</time><name>PT81</name></trkpt>
<trkpt lat="52.032280" lon="05.785299"><ele>12.7</ele><time>2022-03-04T13:52:26Z</time><name>PT82</name></trkpt>
<trkpt lat="52.032273" lon="05.785313"><ele>12.6</ele><time>2022-03-04T13:52:28Z</time><name>PT83</name></trkpt>
<trkpt lat="52.032272" lon="05.785333"><ele>12.7</ele><time>2022-03-04T13:52:28Z</time><name>PT84</name></trkpt>
<trkpt lat="52.032266" lon="05.785353"><ele>12.8</ele><time>2022-03-04T13:52:29Z</time><name>PT85</name></trkpt>
<trkpt lat="52.032255" lon="05.785372"><ele>12.9</ele><time>2022-03-04T13:52:31Z</time><name>PT86</name></trkpt>
<trkpt lat="52.032251" lon="05.785395"><ele>12.9</ele><time>2022-03-04T13:52:31Z</time><name>PT87</name></trkpt>
<trkpt lat="52.032246" lon="05.785420"><ele>13</ele><time>2022-03-04T13:52:32Z</time><name>PT88</name></trkpt>
<trkpt lat="52.032244" lon="05.785438"><ele>13</ele><time>2022-03-04T13:52:34Z</time><name>PT89</name></trkpt>
<trkpt lat="52.032245" lon="05.785450"><ele>13</ele><time>2022-03-04T13:52:34Z</time><name>PT90</name></trkpt>
<trkpt lat="52.032245" lon="05.785464"><ele>13</ele><time>2022-03-04T13:52:35Z</time><name>PT91</name></trkpt>
<trkpt lat="52.032244" lon="05.785476"><ele>13.1</ele><time>2022-03-04T13:52:37Z</time><name>PT92</name></trkpt>
<trkpt lat="52.032241" lon="05.785493"><ele>13.1</ele><time>2022-03-04T13:52:37Z</time><name>PT93</name></trkpt>
<trkpt lat="52.032240" lon="05.785506"><ele>13</ele><time>2022-03-04T13:52:38Z</time><name>PT94</name></trkpt>
<trkpt lat="52.032239" lon="05.785523"><ele>13</ele><time>2022-03-04T13:52:40Z</time><name>PT95</name></trkpt>
<trkpt lat="52.032239" lon="05.785543"><ele>12.9</ele><time>2022-03-04T13:52:40Z</time><name>PT96</name></trkpt>
<trkpt lat="52.032239" lon="05.785562"><ele>12.8</ele><time>2022-03-04T13:52:41Z</time><name>PT97</name></trkpt>
<trkpt lat="52.032234" lon="05.785581"><ele>12.8</ele><time>2022-03-04T13:52:43Z</time><name>PT98</name></trkpt>
<trkpt lat="52.032230" lon="05.785597"><ele>12.7</ele><time>2022-03-04T13:52:43Z</time><name>PT99</name></trkpt>
<trkpt lat="52.032229" lon="05.785613"><ele>12.9</ele><time>2022-03-04T13:52:44Z</time><name>PT100</name></trkpt>
<trkpt lat="52.032228" lon="05.785626"><ele>12.7</ele><time>2022-03-04T13:52:46Z</time><name>PT101</name></trkpt>
<trkpt lat="52.032225" lon="05.785638"><ele>12.8</ele><time>2022-03-04T13:52:46Z</time><name>PT102</name></trkpt>
<trkpt lat="52.032223" lon="05.785656"><ele>12.9</ele><time>2022-03-04T13:52:47Z</time><name>PT103</name></trkpt>
<trkpt lat="52.032220" lon="05.785672"><ele>12.8</ele><time>2022-03-04T13:52:49Z</time><name>PT104</name></trkpt>
<trkpt lat="52.032219" lon="05.785691"><ele>12.8</ele><time>2022-03-04T13:52:49Z</time><name>PT105</name></trkpt>
<trkpt lat="52.032216" lon="05.785703"><ele>12.7</ele><time>2022-03-04T13:52:50Z</time><name>PT106</name></trkpt>
<trkpt lat="52.032214" lon="05.785719"><ele>12.6</ele><time>2022-03-04T13:52:52Z</time><name>PT107</name></trkpt>
<trkpt lat="52.032209" lon="05.785740"><ele>12.4</ele><time>2022-03-04T13:52:52Z</time><name>PT108</name></trkpt>
<trkpt lat="52.032206" lon="05.785758"><ele>12.2</ele><time>2022-03-04T13:52:53Z</time><name>PT109</name></trkpt>
<trkpt lat="52.032204" lon="05.785776"><ele>12.2</ele><time>2022-03-04T13:52:55Z</time><name>PT110</name></trkpt>
<trkpt lat="52.032202" lon="05.785792"><ele>12.3</ele><time>2022-03-04T13:52:55Z</time><name>PT111</name></trkpt>
<trkpt lat="52.032201" lon="05.785809"><ele>12.3</ele><time>2022-03-04T13:52:56Z</time><name>PT112</name></trkpt>
<trkpt lat="52.032199" lon="05.785816"><ele>12.5</ele><time>2022-03-04T13:52:58Z</time><name>PT113</name></trkpt>
<trkpt lat="52.032197" lon="05.785832"><ele>12.5</ele><time>2022-03-04T13:52:58Z</time><name>PT114</name></trkpt>
<trkpt lat="52.032195" lon="05.785848"><ele>12.5</ele><time>2022-03-04T13:52:59Z</time><name>PT115</name></trkpt>
<trkpt lat="52.032189" lon="05.785870"><ele>12.4</ele><time>2022-03-04T13:53:01Z</time><name>PT116</name></trkpt>
<trkpt lat="52.032183" lon="05.785897"><ele>12.4</ele><time>2022-03-04T13:53:01Z</time><name>PT117</name></trkpt>
<trkpt lat="52.032179" lon="05.785926"><ele>12.3</ele><time>2022-03-04T13:53:02Z</time><name>PT118</name></trkpt>
<trkpt lat="52.032174" lon="05.785945"><ele>12.6</ele><time>2022-03-04T13:53:04Z</time><name>PT119</name></trkpt>
<trkpt lat="52.032172" lon="05.785959"><ele>12.6</ele><time>2022-03-04T13:53:04Z</time><name>PT120</name></trkpt>
<trkpt lat="52.032171" lon="05.785970"><ele>12.7</ele><time>2022-03-04T13:53:05Z</time><name>PT121</name></trkpt>
<trkpt lat="52.032170" lon="05.785980"><ele>12.7</ele><time>2022-03-04T13:53:07Z</time><name>PT122</name></trkpt>
<trkpt lat="52.032167" lon="05.785992"><ele>12.6</ele><time>2022-03-04T13:53:07Z</time><name>PT123</name></trkpt>
<trkpt lat="52.032166" lon="05.786008"><ele>12.6</ele><time>2022-03-04T13:53:08Z</time><name>PT124</name></trkpt>
<trkpt lat="52.032165" lon="05.786022"><ele>12.4</ele><time>2022-03-04T13:53:10Z</time><name>PT125</name></trkpt>
<trkpt lat="52.032157" lon="05.786041"><ele>12.3</ele><time>2022-03-04T13:53:10Z</time><name>PT126</name></trkpt>
<trkpt lat="52.032154" lon="05.786065"><ele>12.3</ele><time>2022-03-04T13:53:11Z</time><name>PT127</name></trkpt>
<trkpt lat="52.032153" lon="05.786085"><ele>12.5</ele><time>2022-03-04T13:53:13Z</time><name>PT128</name></trkpt>
<trkpt lat="52.032150" lon="05.786111"><ele>12.5</ele><time>2022-03-04T13:53:13Z</time><name>PT129</name></trkpt>
<trkpt lat="52.032148" lon="05.786135"><ele>12.6</ele><time>2022-03-04T13:53:14Z</time><name>PT130</name></trkpt>
<trkpt lat="52.032147" lon="05.786158"><ele>12.7</ele><time>2022-03-04T13:53:16Z</time><name>PT131</name></trkpt>
<trkpt lat="52.032145" lon="05.786178"><ele>12.5</ele><time>2022-03-04T13:53:16Z</time><name>PT132</name></trkpt>
<trkpt lat="52.032144" lon="05.786198"><ele>12.7</ele><time>2022-03-04T13:53:17Z</time><name>PT133</name></trkpt>
<trkpt lat="52.032142" lon="05.786214"><ele>12.6</ele><time>2022-03-04T13:53:19Z</time><name>PT134</name></trkpt>
<trkpt lat="52.032138" lon="05.786230"><ele>12.6</ele><time>2022-03-04T13:53:19Z</time><name>PT135</name></trkpt>
<trkpt lat="52.032133" lon="05.786244"><ele>12.6</ele><time>2022-03-04T13:53:20Z</time><name>PT136</name></trkpt>
<trkpt lat="52.032129" lon="05.786265"><ele>12.7</ele><time>2022-03-04T13:53:22Z</time><name>PT137</name></trkpt>
<trkpt lat="52.032127" lon="05.786287"><ele>12.5</ele><time>2022-03-04T13:53:22Z</time><name>PT138</name></trkpt>
<trkpt lat="52.032124" lon="05.786305"><ele>12.4</ele><time>2022-03-04T13:53:23Z</time><name>PT139</name></trkpt>
<trkpt lat="52.032121" lon="05.786317"><ele>12.3</ele><time>2022-03-04T13:53:25Z</time><name>PT140</name></trkpt>
<trkpt lat="52.032117" lon="05.786328"><ele>12.3</ele><time>2022-03-04T13:53:25Z</time><name>PT141</name></trkpt>
<trkpt lat="52.032117" lon="05.786343"><ele>12.3</ele><time>2022-03-04T13:53:26Z</time><name>PT142</name></trkpt>
<trkpt lat="52.032116" lon="05.786364"><ele>12.4</ele><time>2022-03-04T13:53:28Z</time><name>PT143</name></trkpt>
<trkpt lat="52.032116" lon="05.786383"><ele>12.5</ele><time>2022-03-04T13:53:28Z</time><name>PT144</name></trkpt>
<trkpt lat="52.032110" lon="05.786406"><ele>12.5</ele><time>2022-03-04T13:53:29Z</time><name>PT145</name></trkpt>
<trkpt lat="52.032104" lon="05.786432"><ele>12.6</ele><time>2022-03-04T13:53:31Z</time><name>PT146</name></trkpt>
<trkpt lat="52.032095" lon="05.786462"><ele>12.5</ele><time>2022-03-04T13:53:31Z</time><name>PT147</name></trkpt>
<trkpt lat="52.032091" lon="05.786498"><ele>12.4</ele><time>2022-03-04T13:53:32Z</time><name>PT148</name></trkpt>
<trkpt lat="52.032087" lon="05.786533"><ele>12.4</ele><time>2022-03-04T13:53:34Z</time><name>PT149</name></trkpt>
<trkpt lat="52.032082" lon="05.786564"><ele>12.3</ele><time>2022-03-04T13:53:34Z</time><name>PT150</name></trkpt>
<trkpt lat="52.032078" lon="05.786586"><ele>12.4</ele><time>2022-03-04T13:53:35Z</time><name>PT151</name></trkpt>
<trkpt lat="52.032073" lon="05.786610"><ele>12.4</ele><time>2022-03-04T13:53:37Z</time><name>PT152</name></trkpt>
<trkpt lat="52.032065" lon="05.786628"><ele>12.3</ele><time>2022-03-04T13:53:37Z</time><name>PT153</name></trkpt>
<trkpt lat="52.032059" lon="05.786644"><ele>12.4</ele><time>2022-03-04T13:53:38Z</time><name>PT154</name></trkpt>
<trkpt lat="52.032055" lon="05.786652"><ele>12.6</ele><time>2022-03-04T13:53:40Z</time><name>PT155</name></trkpt>
<trkpt lat="52.032053" lon="05.786660"><ele>12.6</ele><time>2022-03-04T13:53:40Z</time><name>PT156</name></trkpt>
<trkpt lat="52.032050" lon="05.786668"><ele>12.7</ele><time>2022-03-04T13:53:41Z</time><name>PT157</name></trkpt>
<trkpt lat="52.032047" lon="05.786678"><ele>13</ele><time>2022-03-04T13:53:43Z</time><name>PT158</name></trkpt>
<trkpt lat="52.032044" lon="05.786687"><ele>12.9</ele><time>2022-03-04T13:53:43Z</time><name>PT159</name></trkpt>
<trkpt lat="52.032040" lon="05.786698"><ele>12.9</ele><time>2022-03-04T13:53:44Z</time><name>PT160</name></trkpt>
<trkpt lat="52.032037" lon="05.786709"><ele>12.8</ele><time>2022-03-04T13:53:46Z</time><name>PT161</name></trkpt>
<trkpt lat="52.032033" lon="05.786723"><ele>12.7</ele><time>2022-03-04T13:53:46Z</time><name>PT162</name></trkpt>
<trkpt lat="52.032032" lon="05.786740"><ele>12.6</ele><time>2022-03-04T13:53:47Z</time><name>PT163</name></trkpt>
<trkpt lat="52.032030" lon="05.786758"><ele>12.6</ele><time>2022-03-04T13:53:49Z</time><name>PT164</name></trkpt>
<trkpt lat="52.032030" lon="05.786773"><ele>12.6</ele><time>2022-03-04T13:53:49Z</time><name>PT165</name></trkpt>
<trkpt lat="52.032027" lon="05.786791"><ele>12.7</ele><time>2022-03-04T13:53:51Z</time><name>PT166</name></trkpt>
<trkpt lat="52.032024" lon="05.786810"><ele>12.8</ele><time>2022-03-04T13:53:52Z</time><name>PT167</name></trkpt>
<trkpt lat="52.032021" lon="05.786832"><ele>12.9</ele><time>2022-03-04T13:53:52Z</time><name>PT168</name></trkpt>
<trkpt lat="52.032017" lon="05.786854"><ele>13.1</ele><time>2022-03-04T13:53:53Z</time><name>PT169</name></trkpt>
<trkpt lat="52.032013" lon="05.786881"><ele>12.9</ele><time>2022-03-04T13:53:55Z</time><name>PT170</name></trkpt>
<trkpt lat="52.032011" lon="05.786907"><ele>12.7</ele><time>2022-03-04T13:53:55Z</time><name>PT171</name></trkpt>
<trkpt lat="52.032007" lon="05.786931"><ele>12.7</ele><time>2022-03-04T13:53:56Z</time><name>PT172</name></trkpt>
<trkpt lat="52.032004" lon="05.786958"><ele>12.7</ele><time>2022-03-04T13:53:58Z</time><name>PT173</name></trkpt>
<trkpt lat="52.032002" lon="05.786984"><ele>12.8</ele><time>2022-03-04T13:53:58Z</time><name>PT174</name></trkpt>
<trkpt lat="52.031997" lon="05.787009"><ele>13</ele><time>2022-03-04T13:53:59Z</time><name>PT175</name></trkpt>
<trkpt lat="52.031996" lon="05.787036"><ele>13</ele><time>2022-03-04T13:54:01Z</time><name>PT176</name></trkpt>
<trkpt lat="52.031993" lon="05.787062"><ele>13.1</ele><time>2022-03-04T13:54:01Z</time><name>PT177</name></trkpt>
<trkpt lat="52.031989" lon="05.787083"><ele>13.1</ele><time>2022-03-04T13:54:02Z</time><name>PT178</name></trkpt>
<trkpt lat="52.031986" lon="05.787102"><ele>13.2</ele><time>2022-03-04T13:54:04Z</time><name>PT179</name></trkpt>
<trkpt lat="52.031984" lon="05.787121"><ele>13.2</ele><time>2022-03-04T13:54:04Z</time><name>PT180</name></trkpt>
<trkpt lat="52.031980" lon="05.787139"><ele>13.2</ele><time>2022-03-04T13:54:05Z</time><name>PT181</name></trkpt>
<trkpt lat="52.031978" lon="05.787157"><ele>13.3</ele><time>2022-03-04T13:54:07Z</time><name>PT182</name></trkpt>
<trkpt lat="52.031977" lon="05.787176"><ele>13.3</ele><time>2022-03-04T13:54:07Z</time><name>PT183</name></trkpt>
<trkpt lat="52.031976" lon="05.787189"><ele>13.1</ele><time>2022-03-04T13:54:08Z</time><name>PT184</name></trkpt>
<trkpt lat="52.031974" lon="05.787204"><ele>13.1</ele><time>2022-03-04T13:54:10Z</time><name>PT185</name></trkpt>
<trkpt lat="52.031972" lon="05.787221"><ele>13.2</ele><time>2022-03-04T13:54:10Z</time><name>PT186</name></trkpt>
<trkpt lat="52.031967" lon="05.787237"><ele>13</ele><time>2022-03-04T13:54:11Z</time><name>PT187</name></trkpt>
<trkpt lat="52.031967" lon="05.787250"><ele>13.1</ele><time>2022-03-04T13:54:13Z</time><name>PT188</name></trkpt>
<trkpt lat="52.031965" lon="05.787266"><ele>13.2</ele><time>2022-03-04T13:54:13Z</time><name>PT189</name></trkpt>
<trkpt lat="52.031960" lon="05.787288"><ele>13</ele><time>2022-03-04T13:54:14Z</time><name>PT190</name></trkpt>
<trkpt lat="52.031951" lon="05.787311"><ele>12.9</ele><time>2022-03-04T13:54:16Z</time><name>PT191</name></trkpt>
<trkpt lat="52.031945" lon="05.787334"><ele>12.8</ele><time>2022-03-04T13:54:16Z</time><name>PT192</name></trkpt>
<trkpt lat="52.031937" lon="05.787359"><ele>12.8</ele><time>2022-03-04T13:54:17Z</time><name>PT193</name></trkpt>
<trkpt lat="52.031931" lon="05.787386"><ele>12.7</ele><time>2022-03-04T13:54:19Z</time><name>PT194</name></trkpt>
<trkpt lat="52.031926" lon="05.787411"><ele>12.7</ele><time>2022-03-04T13:54:19Z</time><name>PT195</name></trkpt>
<trkpt lat="52.031921" lon="05.787434"><ele>12.7</ele><time>2022-03-04T13:54:20Z</time><name>PT196</name></trkpt>
<trkpt lat="52.031918" lon="05.787454"><ele>12.7</ele><time>2022-03-04T13:54:22Z</time><name>PT197</name></trkpt>
<trkpt lat="52.031914" lon="05.787470"><ele>12.7</ele><time>2022-03-04T13:54:22Z</time><name>PT198</name></trkpt>
<trkpt lat="52.031914" lon="05.787483"><ele>12.7</ele><time>2022-03-04T13:54:23Z</time><name>PT199</name></trkpt>
<trkpt lat="52.031913" lon="05.787497"><ele>12.8</ele><time>2022-03-04T13:54:25Z</time><name>PT200</name></trkpt>
<trkpt lat="52.031909" lon="05.787512"><ele>12.9</ele><time>2022-03-04T13:54:25Z</time><name>PT201</name></trkpt>
<trkpt lat="52.031908" lon="05.787528"><ele>12.9</ele><time>2022-03-04T13:54:26Z</time><name>PT202</name></trkpt>
<trkpt lat="52.031906" lon="05.787545"><ele>13.1</ele><time>2022-03-04T13:54:28Z</time><name>PT203</name></trkpt>
<trkpt lat="52.031904" lon="05.787563"><ele>13.1</ele><time>2022-03-04T13:54:28Z</time><name>PT204</name></trkpt>
<trkpt lat="52.031901" lon="05.787579"><ele>12.9</ele><time>2022-03-04T13:54:29Z</time><name>PT205</name></trkpt>
<trkpt lat="52.031898" lon="05.787594"><ele>13</ele><time>2022-03-04T13:54:31Z</time><name>PT206</name></trkpt>
<trkpt lat="52.031898" lon="05.787609"><ele>13</ele><time>2022-03-04T13:54:31Z</time><name>PT207</name></trkpt>
<trkpt lat="52.031896" lon="05.787627"><ele>12.9</ele><time>2022-03-04T13:54:32Z</time><name>PT208</name></trkpt>
<trkpt lat="52.031897" lon="05.787644"><ele>13.1</ele><time>2022-03-04T13:54:34Z</time><name>PT209</name></trkpt>
<trkpt lat="52.031894" lon="05.787660"><ele>13.2</ele><time>2022-03-04T13:54:34Z</time><name>PT210</name></trkpt>
<trkpt lat="52.031888" lon="05.787676"><ele>13.1</ele><time>2022-03-04T13:54:35Z</time><name>PT211</name></trkpt>
<trkpt lat="52.031887" lon="05.787689"><ele>13.1</ele><time>2022-03-04T13:54:37Z</time><name>PT212</name></trkpt>
<trkpt lat="52.031890" lon="05.787705"><ele>13.2</ele><time>2022-03-04T13:54:37Z</time><name>PT213</name></trkpt>
<trkpt lat="52.031890" lon="05.787716"><ele>13.2</ele><time>2022-03-04T13:54:38Z</time><name>PT214</name></trkpt>
<trkpt lat="52.031887" lon="05.787732"><ele>13.2</ele><time>2022-03-04T13:54:40Z</time><name>PT215</name></trkpt>
<trkpt lat="52.031886" lon="05.787754"><ele>13.3</ele><time>2022-03-04T13:54:40Z</time><name>PT216</name></trkpt>
<trkpt lat="52.031881" lon="05.787772"><ele>13.3</ele><time>2022-03-04T13:54:41Z</time><name>PT217</name></trkpt>
<trkpt lat="52.031880" lon="05.787784"><ele>13.3</ele><time>2022-03-04T13:54:43Z</time><name>PT218</name></trkpt>
<trkpt lat="52.031876" lon="05.787797"><ele>13.3</ele><time>2022-03-04T13:54:43Z</time><name>PT219</name></trkpt>
<trkpt lat="52.031873" lon="05.787812"><ele>13.4</ele><time>2022-03-04T13:54:44Z</time><name>PT220</name></trkpt>
<trkpt lat="52.031872" lon="05.787823"><ele>13.2</ele><time>2022-03-04T13:54:46Z</time><name>PT221</name></trkpt>
<trkpt lat="52.031869" lon="05.787843"><ele>13.2</ele><time>2022-03-04T13:54:46Z</time><name>PT222</name></trkpt>
<trkpt lat="52.031869" lon="05.787855"><ele>13.1</ele><time>2022-03-04T13:54:47Z</time><name>PT223</name></trkpt>
<trkpt lat="52.031867" lon="05.787871"><ele>13.1</ele><time>2022-03-04T13:54:49Z</time><name>PT224</name></trkpt>
<trkpt lat="52.031861" lon="05.787889"><ele>13.2</ele><time>2022-03-04T13:54:49Z</time><name>PT225</name></trkpt>
<trkpt lat="52.031856" lon="05.787915"><ele>13.2</ele><time>2022-03-04T13:54:50Z</time><name>PT226</name></trkpt>
<trkpt lat="52.031854" lon="05.787943"><ele>13.2</ele><time>2022-03-04T13:54:52Z</time><name>PT227</name></trkpt>
<trkpt lat="52.031846" lon="05.787969"><ele>13.2</ele><time>2022-03-04T13:54:52Z</time><name>PT228</name></trkpt>
<trkpt lat="52.031838" lon="05.787991"><ele>13.1</ele><time>2022-03-04T13:54:53Z</time><name>PT229</name></trkpt>
<trkpt lat="52.031834" lon="05.788013"><ele>13</ele><time>2022-03-04T13:54:55Z</time><name>PT230</name></trkpt>
<trkpt lat="52.031833" lon="05.788036"><ele>13.1</ele><time>2022-03-04T13:54:55Z</time><name>PT231</name></trkpt>
<trkpt lat="52.031832" lon="05.788057"><ele>13.2</ele><time>2022-03-04T13:54:56Z</time><name>PT232</name></trkpt>
<trkpt lat="52.031828" lon="05.788068"><ele>13.2</ele><time>2022-03-04T13:54:58Z</time><name>PT233</name></trkpt>
<trkpt lat="52.031829" lon="05.788080"><ele>13.2</ele><time>2022-03-04T13:54:58Z</time><name>PT234</name></trkpt>
<trkpt lat="52.031826" lon="05.788095"><ele>13.2</ele><time>2022-03-04T13:54:59Z</time><name>PT235</name></trkpt>
<trkpt lat="52.031826" lon="05.788114"><ele>13.2</ele><time>2022-03-04T13:55:01Z</time><name>PT236</name></trkpt>
<trkpt lat="52.031824" lon="05.788129"><ele>13.2</ele><time>2022-03-04T13:55:01Z</time><name>PT237</name></trkpt>
<trkpt lat="52.031822" lon="05.788145"><ele>13</ele><time>2022-03-04T13:55:02Z</time><name>PT238</name></trkpt>
<trkpt lat="52.031821" lon="05.788169"><ele>13.2</ele><time>2022-03-04T13:55:04Z</time><name>PT239</name></trkpt>
<trkpt lat="52.031819" lon="05.788198"><ele>13.2</ele><time>2022-03-04T13:55:04Z</time><name>PT240</name></trkpt>
<trkpt lat="52.031817" lon="05.788232"><ele>13.4</ele><time>2022-03-04T13:55:05Z</time><name>PT241</name></trkpt>
<trkpt lat="52.031814" lon="05.788262"><ele>13.4</ele><time>2022-03-04T13:55:07Z</time><name>PT242</name></trkpt>
<trkpt lat="52.031808" lon="05.788287"><ele>13.5</ele><time>2022-03-04T13:55:07Z</time><name>PT243</name></trkpt>
<trkpt lat="52.031804" lon="05.788305"><ele>13.4</ele><time>2022-03-04T13:55:08Z</time><name>PT244</name></trkpt>
<trkpt lat="52.031797" lon="05.788324"><ele>13.3</ele><time>2022-03-04T13:55:10Z</time><name>PT245</name></trkpt>
<trkpt lat="52.031793" lon="05.788344"><ele>13.2</ele><time>2022-03-04T13:55:10Z</time><name>PT246</name></trkpt>
<trkpt lat="52.031794" lon="05.788355"><ele>13.3</ele><time>2022-03-04T13:55:11Z</time><name>PT247</name></trkpt>
<trkpt lat="52.031796" lon="05.788365"><ele>13.2</ele><time>2022-03-04T13:55:13Z</time><name>PT248</name></trkpt>
<trkpt lat="52.031796" lon="05.788380"><ele>13.1</ele><time>2022-03-04T13:55:13Z</time><name>PT249</name></trkpt>
<trkpt lat="52.031795" lon="05.788395"><ele>13.2</ele><time>2022-03-04T13:55:14Z</time><name>PT250</name></trkpt>
<trkpt lat="52.031793" lon="05.788416"><ele>13.2</ele><time>2022-03-04T13:55:16Z</time><name>PT251</name></trkpt>
<trkpt lat="52.031791" lon="05.788439"><ele>13.2</ele><time>2022-03-04T13:55:16Z</time><name>PT252</name></trkpt>
<trkpt lat="52.031787" lon="05.788464"><ele>13.2</ele><time>2022-03-04T13:55:17Z</time><name>PT253</name></trkpt>
<trkpt lat="52.031784" lon="05.788492"><ele>13.3</ele><time>2022-03-04T13:55:19Z</time><name>PT254</name></trkpt>
<trkpt lat="52.031779" lon="05.788519"><ele>13.2</ele><time>2022-03-04T13:55:19Z</time><name>PT255</name></trkpt>
<trkpt lat="52.031774" lon="05.788538"><ele>13.3</ele><time>2022-03-04T13:55:20Z</time><name>PT256</name></trkpt>
<trkpt lat="52.031771" lon="05.788556"><ele>13.4</ele><time>2022-03-04T13:55:22Z</time><name>PT257</name></trkpt>
<trkpt lat="52.031770" lon="05.788568"><ele>13.4</ele><time>2022-03-04T13:55:22Z</time><name>PT258</name></trkpt>
<trkpt lat="52.031765" lon="05.788580"><ele>13.3</ele><time>2022-03-04T13:55:23Z</time><name>PT259</name></trkpt>
<trkpt lat="52.031761" lon="05.788597"><ele>13.2</ele><time>2022-03-04T13:55:25Z</time><name>PT260</name></trkpt>
<trkpt lat="52.031762" lon="05.788617"><ele>13.2</ele><time>2022-03-04T13:55:25Z</time><name>PT261</name></trkpt>
<trkpt lat="52.031758" lon="05.788634"><ele>13.1</ele><time>2022-03-04T13:55:26Z</time><name>PT262</name></trkpt>
<trkpt lat="52.031755" lon="05.788660"><ele>13</ele><time>2022-03-04T13:55:28Z</time><name>PT263</name></trkpt>
<trkpt lat="52.031750" lon="05.788688"><ele>13.1</ele><time>2022-03-04T13:55:28Z</time><name>PT264</name></trkpt>
<trkpt lat="52.031746" lon="05.788718"><ele>13.1</ele><time>2022-03-04T13:55:29Z</time><name>PT265</name></trkpt>
<trkpt lat="52.031743" lon="05.788741"><ele>13.2</ele><time>2022-03-04T13:55:31Z</time><name>PT266</name></trkpt>
<trkpt lat="52.031740" lon="05.788764"><ele>13.3</ele><time>2022-03-04T13:55:31Z</time><name>PT267</name></trkpt>
<trkpt lat="52.031737" lon="05.788782"><ele>13.6</ele><time>2022-03-04T13:55:32Z</time><name>PT268</name></trkpt>
<trkpt lat="52.031735" lon="05.788799"><ele>13.6</ele><time>2022-03-04T13:55:34Z</time><name>PT269</name></trkpt>
<trkpt lat="52.031729" lon="05.788809"><ele>13.6</ele><time>2022-03-04T13:55:34Z</time><name>PT270</name></trkpt>
<trkpt lat="52.031726" lon="05.788823"><ele>13.6</ele><time>2022-03-04T13:55:35Z</time><name>PT271</name></trkpt>
<trkpt lat="52.031725" lon="05.788838"><ele>13.7</ele><time>2022-03-04T13:55:37Z</time><name>PT272</name></trkpt>
<trkpt lat="52.031722" lon="05.788850"><ele>13.7</ele><time>2022-03-04T13:55:37Z</time><name>PT273</name></trkpt>
<trkpt lat="52.031723" lon="05.788864"><ele>13.8</ele><time>2022-03-04T13:55:38Z</time><name>PT274</name></trkpt>
<trkpt lat="52.031730" lon="05.788884"><ele>14</ele><time>2022-03-04T13:55:40Z</time><name>PT275</name></trkpt>
<trkpt lat="52.031736" lon="05.788894"><ele>14</ele><time>2022-03-04T13:55:40Z</time><name>PT276</name></trkpt>
<trkpt lat="52.031742" lon="05.788906"><ele>14</ele><time>2022-03-04T13:55:41Z</time><name>PT277</name></trkpt>
<trkpt lat="52.031751" lon="05.788913"><ele>14.1</ele><time>2022-03-04T13:55:43Z</time><name>PT278</name></trkpt>
<trkpt lat="52.031758" lon="05.788922"><ele>14</ele><time>2022-03-04T13:55:43Z</time><name>PT279</name></trkpt>
<trkpt lat="52.031769" lon="05.788932"><ele>14</ele><time>2022-03-04T13:55:44Z</time><name>PT280</name></trkpt>
<trkpt lat="52.031774" lon="05.788953"><ele>14</ele><time>2022-03-04T13:55:46Z</time><name>PT281</name></trkpt>
<trkpt lat="52.031780" lon="05.788981"><ele>14</ele><time>2022-03-04T13:55:46Z</time><name>PT282</name></trkpt>
<trkpt lat="52.031786" lon="05.789014"><ele>14.1</ele><time>2022-03-04T13:55:47Z</time><name>PT283</name></trkpt>
<trkpt lat="52.031794" lon="05.789043"><ele>14.2</ele><time>2022-03-04T13:55:49Z</time><name>PT284</name></trkpt>
<trkpt lat="52.031799" lon="05.789068"><ele>14.2</ele><time>2022-03-04T13:55:49Z</time><name>PT285</name></trkpt>
<trkpt lat="52.031804" lon="05.789090"><ele>14.2</ele><time>2022-03-04T13:55:50Z</time><name>PT286</name></trkpt>
<trkpt lat="52.031805" lon="05.789103"><ele>14.1</ele><time>2022-03-04T13:55:52Z</time><name>PT287</name></trkpt>
<trkpt lat="52.031809" lon="05.789115"><ele>14</ele><time>2022-03-04T13:55:52Z</time><name>PT288</name></trkpt>
<trkpt lat="52.031813" lon="05.789133"><ele>13.9</ele><time>2022-03-04T13:55:53Z</time><name>PT289</name></trkpt>
<trkpt lat="52.031816" lon="05.789144"><ele>14.1</ele><time>2022-03-04T13:55:55Z</time><name>PT290</name></trkpt>
<trkpt lat="52.031819" lon="05.789153"><ele>14</ele><time>2022-03-04T13:55:55Z</time><name>PT291</name></trkpt>
<trkpt lat="52.031824" lon="05.789160"><ele>14.2</ele><time>2022-03-04T13:55:56Z</time><name>PT292</name></trkpt>
<trkpt lat="52.031826" lon="05.789168"><ele>14.2</ele><time>2022-03-04T13:55:58Z</time><name>PT293</name></trkpt>
<trkpt lat="52.031827" lon="05.789182"><ele>14.2</ele><time>2022-03-04T13:55:58Z</time><name>PT294</name></trkpt>
<trkpt lat="52.031829" lon="05.789204"><ele>14.2</ele><time>2022-03-04T13:55:59Z</time><name>PT295</name></trkpt>
<trkpt lat="52.031828" lon="05.789225"><ele>14.2</ele><time>2022-03-04T13:56:01Z</time><name>PT296</name></trkpt>
<trkpt lat="52.031827" lon="05.789254"><ele>14.1</ele><time>2022-03-04T13:56:01Z</time><name>PT297</name></trkpt>
<trkpt lat="52.031830" lon="05.789287"><ele>14.2</ele><time>2022-03-04T13:56:02Z</time><name>PT298</name></trkpt>
<trkpt lat="52.031831" lon="05.789321"><ele>14.3</ele><time>2022-03-04T13:56:04Z</time><name>PT299</name></trkpt>
<trkpt lat="52.031832" lon="05.789342"><ele>14.5</ele><time>2022-03-04T13:56:04Z</time><name>PT300</name></trkpt>
<trkpt lat="52.031833" lon="05.789366"><ele>14.6</ele><time>2022-03-04T13:56:05Z</time><name>PT301</name></trkpt>
<trkpt lat="52.031832" lon="05.789387"><ele>14.6</ele><time>2022-03-04T13:56:07Z</time><name>PT302</name></trkpt>
<trkpt lat="52.031830" lon="05.789403"><ele>14.6</ele><time>2022-03-04T13:56:07Z</time><name>PT303</name></trkpt>
<trkpt lat="52.031830" lon="05.789414"><ele>14.6</ele><time>2022-03-04T13:56:08Z</time><name>PT304</name></trkpt>
<trkpt lat="52.031832" lon="05.789424"><ele>14.5</ele><time>2022-03-04T13:56:10Z</time><name>PT305</name></trkpt>
<trkpt lat="52.031833" lon="05.789436"><ele>14.4</ele><time>2022-03-04T13:56:10Z</time><name>PT306</name></trkpt>
<trkpt lat="52.031831" lon="05.789455"><ele>14.4</ele><time>2022-03-04T13:56:11Z</time><name>PT307</name></trkpt>
<trkpt lat="52.031829" lon="05.789478"><ele>14.4</ele><time>2022-03-04T13:56:13Z</time><name>PT308</name></trkpt>
<trkpt lat="52.031823" lon="05.789505"><ele>14.5</ele><time>2022-03-04T13:56:13Z</time><name>PT309</name></trkpt>
<trkpt lat="52.031825" lon="05.789534"><ele>14.6</ele><time>2022-03-04T13:56:14Z</time><name>PT310</name></trkpt>
<trkpt lat="52.031826" lon="05.789562"><ele>14.7</ele><time>2022-03-04T13:56:16Z</time><name>PT311</name></trkpt>
<trkpt lat="52.031825" lon="05.789587"><ele>14.6</ele><time>2022-03-04T13:56:16Z</time><name>PT312</name></trkpt>
<trkpt lat="52.031829" lon="05.789602"><ele>14.6</ele><time>2022-03-04T13:56:17Z</time><name>PT313</name></trkpt>
<trkpt lat="52.031828" lon="05.789617"><ele>14.6</ele><time>2022-03-04T13:56:19Z</time><name>PT314</name></trkpt>
<trkpt lat="52.031827" lon="05.789631"><ele>14.6</ele><time>2022-03-04T13:56:19Z</time><name>PT315</name></trkpt>
<trkpt lat="52.031828" lon="05.789647"><ele>14.8</ele><time>2022-03-04T13:56:20Z</time><name>PT316</name></trkpt>
<trkpt lat="52.031828" lon="05.789663"><ele>15</ele><time>2022-03-04T13:56:22Z</time><name>PT317</name></trkpt>
<trkpt lat="52.031822" lon="05.789687"><ele>15</ele><time>2022-03-04T13:56:22Z</time><name>PT318</name></trkpt>
<trkpt lat="52.031822" lon="05.789710"><ele>14.8</ele><time>2022-03-04T13:56:23Z</time><name>PT319</name></trkpt>
<trkpt lat="52.031823" lon="05.789729"><ele>14.6</ele><time>2022-03-04T13:56:25Z</time><name>PT320</name></trkpt>
<trkpt lat="52.031826" lon="05.789754"><ele>14.6</ele><time>2022-03-04T13:56:25Z</time><name>PT321</name></trkpt>
<trkpt lat="52.031824" lon="05.789779"><ele>14.6</ele><time>2022-03-04T13:56:27Z</time><name>PT322</name></trkpt>
<trkpt lat="52.031824" lon="05.789805"><ele>14.7</ele><time>2022-03-04T13:56:28Z</time><name>PT323</name></trkpt>
<trkpt lat="52.031823" lon="05.789833"><ele>14.8</ele><time>2022-03-04T13:56:28Z</time><name>PT324</name></trkpt>
<trkpt lat="52.031818" lon="05.789851"><ele>14.7</ele><time>2022-03-04T13:56:29Z</time><name>PT325</name></trkpt>
<trkpt lat="52.031814" lon="05.789867"><ele>14.7</ele><time>2022-03-04T13:56:31Z</time><name>PT326</name></trkpt>
<trkpt lat="52.031814" lon="05.789881"><ele>14.6</ele><time>2022-03-04T13:56:31Z</time><name>PT327</name></trkpt>
<trkpt lat="52.031815" lon="05.789895"><ele>14.6</ele><time>2022-03-04T13:56:32Z</time><name>PT328</name></trkpt>
<trkpt lat="52.031815" lon="05.789908"><ele>14.6</ele><time>2022-03-04T13:56:34Z</time><name>PT329</name></trkpt>
<trkpt lat="52.031809" lon="05.789915"><ele>14.6</ele><time>2022-03-04T13:56:34Z</time><name>PT330</name></trkpt>
<trkpt lat="52.031802" lon="05.789936"><ele>14.7</ele><time>2022-03-04T13:56:35Z</time><name>PT331</name></trkpt>
<trkpt lat="52.031801" lon="05.789958"><ele>15</ele><time>2022-03-04T13:56:37Z</time><name>PT332</name></trkpt>
<trkpt lat="52.031805" lon="05.789979"><ele>15</ele><time>2022-03-04T13:56:37Z</time><name>PT333</name></trkpt>
<trkpt lat="52.031803" lon="05.790003"><ele>15.1</ele><time>2022-03-04T13:56:38Z</time><name>PT334</name></trkpt>
<trkpt lat="52.031801" lon="05.790030"><ele>15.2</ele><time>2022-03-04T13:56:40Z</time><name>PT335</name></trkpt>
<trkpt lat="52.031802" lon="05.790053"><ele>15.1</ele><time>2022-03-04T13:56:40Z</time><name>PT336</name></trkpt>
<trkpt lat="52.031804" lon="05.790076"><ele>14.9</ele><time>2022-03-04T13:56:41Z</time><name>PT337</name></trkpt>
<trkpt lat="52.031807" lon="05.790091"><ele>14.9</ele><time>2022-03-04T13:56:43Z</time><name>PT338</name></trkpt>
<trkpt lat="52.031809" lon="05.790104"><ele>15</ele><time>2022-03-04T13:56:43Z</time><name>PT339</name></trkpt>
<trkpt lat="52.031810" lon="05.790116"><ele>14.8</ele><time>2022-03-04T13:56:44Z</time><name>PT340</name></trkpt>
<trkpt lat="52.031812" lon="05.790128"><ele>14.9</ele><time>2022-03-04T13:56:46Z</time><name>PT341</name></trkpt>
<trkpt lat="52.031814" lon="05.790148"><ele>14.9</ele><time>2022-03-04T13:56:46Z</time><name>PT342</name></trkpt>
<trkpt lat="52.031811" lon="05.790177"><ele>15.1</ele><time>2022-03-04T13:56:47Z</time><name>PT343</name></trkpt>
<trkpt lat="52.031804" lon="05.790204"><ele>15.2</ele><time>2022-03-04T13:56:49Z</time><name>PT344</name></trkpt>
<trkpt lat="52.031800" lon="05.790229"><ele>15.3</ele><time>2022-03-04T13:56:49Z</time><name>PT345</name></trkpt>
<trkpt lat="52.031798" lon="05.790251"><ele>15.5</ele><time>2022-03-04T13:56:50Z</time><name>PT346</name></trkpt>
<trkpt lat="52.031797" lon="05.790273"><ele>15.5</ele><time>2022-03-04T13:56:52Z</time><name>PT347</name></trkpt>
<trkpt lat="52.031796" lon="05.790290"><ele>15.6</ele><time>2022-03-04T13:56:52Z</time><name>PT348</name></trkpt>
<trkpt lat="52.031799" lon="05.790306"><ele>15.6</ele><time>2022-03-04T13:56:53Z</time><name>PT349</name></trkpt>
<trkpt lat="52.031802" lon="05.790320"><ele>15.6</ele><time>2022-03-04T13:56:55Z</time><name>PT350</name></trkpt>
<trkpt lat="52.031803" lon="05.790333"><ele>15.6</ele><time>2022-03-04T13:56:55Z</time><name>PT351</name></trkpt>
<trkpt lat="52.031805" lon="05.790350"><ele>15.6</ele><time>2022-03-04T13:56:56Z</time><name>PT352</name></trkpt>
<trkpt lat="52.031808" lon="05.790368"><ele>15.5</ele><time>2022-03-04T13:56:58Z</time><name>PT353</name></trkpt>
<trkpt lat="52.031809" lon="05.790390"><ele>15.4</ele><time>2022-03-04T13:56:58Z</time><name>PT354</name></trkpt>
<trkpt lat="52.031810" lon="05.790415"><ele>15.4</ele><time>2022-03-04T13:56:59Z</time><name>PT355</name></trkpt>
<trkpt lat="52.031809" lon="05.790442"><ele>15.5</ele><time>2022-03-04T13:57:01Z</time><name>PT356</name></trkpt>
<trkpt lat="52.031809" lon="05.790472"><ele>15.5</ele><time>2022-03-04T13:57:01Z</time><name>PT357</name></trkpt>
<trkpt lat="52.031806" lon="05.790504"><ele>15.5</ele><time>2022-03-04T13:57:02Z</time><name>PT358</name></trkpt>
<trkpt lat="52.031803" lon="05.790534"><ele>15.6</ele><time>2022-03-04T13:57:04Z</time><name>PT359</name></trkpt>
<trkpt lat="52.031801" lon="05.790560"><ele>15.6</ele><time>2022-03-04T13:57:04Z</time><name>PT360</name></trkpt>
<trkpt lat="52.031800" lon="05.790582"><ele>15.6</ele><time>2022-03-04T13:57:05Z</time><name>PT361</name></trkpt>
<trkpt lat="52.031801" lon="05.790602"><ele>15.5</ele><time>2022-03-04T13:57:07Z</time><name>PT362</name></trkpt>
<trkpt lat="52.031799" lon="05.790619"><ele>15.5</ele><time>2022-03-04T13:57:07Z</time><name>PT363</name></trkpt>
<trkpt lat="52.031795" lon="05.790637"><ele>15.5</ele><time>2022-03-04T13:57:08Z</time><name>PT364</name></trkpt>
<trkpt lat="52.031795" lon="05.790653"><ele>15.5</ele><time>2022-03-04T13:57:10Z</time><name>PT365</name></trkpt>
<trkpt lat="52.031798" lon="05.790666"><ele>15.5</ele><time>2022-03-04T13:57:10Z</time><name>PT366</name></trkpt>
<trkpt lat="52.031800" lon="05.790677"><ele>15.5</ele><time>2022-03-04T13:57:11Z</time><name>PT367</name></trkpt>
<trkpt lat="52.031802" lon="05.790691"><ele>15.5</ele><time>2022-03-04T13:57:13Z</time><name>PT368</name></trkpt>
<trkpt lat="52.031801" lon="05.790708"><ele>15.4</ele><time>2022-03-04T13:57:13Z</time><name>PT369</name></trkpt>
<trkpt lat="52.031800" lon="05.790729"><ele>15.6</ele><time>2022-03-04T13:57:14Z</time><name>PT370</name></trkpt>
<trkpt lat="52.031801" lon="05.790752"><ele>15.6</ele><time>2022-03-04T13:57:16Z</time><name>PT371</name></trkpt>
<trkpt lat="52.031798" lon="05.790777"><ele>15.3</ele><time>2022-03-04T13:57:16Z</time><name>PT372</name></trkpt>
<trkpt lat="52.031800" lon="05.790803"><ele>15.2</ele><time>2022-03-04T13:57:17Z</time><name>PT373</name></trkpt>
<trkpt lat="52.031796" lon="05.790832"><ele>15.3</ele><time>2022-03-04T13:57:19Z</time><name>PT374</name></trkpt>
<trkpt lat="52.031793" lon="05.790862"><ele>15.3</ele><time>2022-03-04T13:57:19Z</time><name>PT375</name></trkpt>
<trkpt lat="52.031790" lon="05.790888"><ele>15.5</ele><time>2022-03-04T13:57:20Z</time><name>PT376</name></trkpt>
<trkpt lat="52.031786" lon="05.790913"><ele>15.6</ele><time>2022-03-04T13:57:22Z</time><name>PT377</name></trkpt>
<trkpt lat="52.031783" lon="05.790937"><ele>15.5</ele><time>2022-03-04T13:57:22Z</time><name>PT378</name></trkpt>
<trkpt lat="52.031782" lon="05.790957"><ele>15.5</ele><time>2022-03-04T13:57:23Z</time><name>PT379</name></trkpt>
<trkpt lat="52.031781" lon="05.790974"><ele>15.4</ele><time>2022-03-04T13:57:25Z</time><name>PT380</name></trkpt>
<trkpt lat="52.031783" lon="05.790986"><ele>15.2</ele><time>2022-03-04T13:57:25Z</time><name>PT381</name></trkpt>
<trkpt lat="52.031785" lon="05.790996"><ele>15.1</ele><time>2022-03-04T13:57:26Z</time><name>PT382</name></trkpt>
<trkpt lat="52.031786" lon="05.791008"><ele>15.1</ele><time>2022-03-04T13:57:28Z</time><name>PT383</name></trkpt>
<trkpt lat="52.031788" lon="05.791021"><ele>15.3</ele><time>2022-03-04T13:57:28Z</time><name>PT384</name></trkpt>
<trkpt lat="52.031794" lon="05.791040"><ele>15.4</ele><time>2022-03-04T13:57:29Z</time><name>PT385</name></trkpt>
<trkpt lat="52.031792" lon="05.791062"><ele>15.5</ele><time>2022-03-04T13:57:31Z</time><name>PT386</name></trkpt>
<trkpt lat="52.031788" lon="05.791083"><ele>15.4</ele><time>2022-03-04T13:57:31Z</time><name>PT387</name></trkpt>
<trkpt lat="52.031785" lon="05.791107"><ele>15.5</ele><time>2022-03-04T13:57:32Z</time><name>PT388</name></trkpt>
<trkpt lat="52.031781" lon="05.791133"><ele>15.4</ele><time>2022-03-04T13:57:34Z</time><name>PT389</name></trkpt>
<trkpt lat="52.031780" lon="05.791155"><ele>15.3</ele><time>2022-03-04T13:57:34Z</time><name>PT390</name></trkpt>
<trkpt lat="52.031782" lon="05.791176"><ele>15.6</ele><time>2022-03-04T13:57:35Z</time><name>PT391</name></trkpt>
<trkpt lat="52.031785" lon="05.791196"><ele>15.8</ele><time>2022-03-04T13:57:37Z</time><name>PT392</name></trkpt>
<trkpt lat="52.031785" lon="05.791214"><ele>15.9</ele><time>2022-03-04T13:57:37Z</time><name>PT393</name></trkpt>
<trkpt lat="52.031786" lon="05.791233"><ele>15.7</ele><time>2022-03-04T13:57:38Z</time><name>PT394</name></trkpt>
<trkpt lat="52.031787" lon="05.791248"><ele>15.9</ele><time>2022-03-04T13:57:40Z</time><name>PT395</name></trkpt>
<trkpt lat="52.031787" lon="05.791263"><ele>15.9</ele><time>2022-03-04T13:57:40Z</time><name>PT396</name></trkpt>
<trkpt lat="52.031788" lon="05.791277"><ele>15.6</ele><time>2022-03-04T13:57:41Z</time><name>PT397</name></trkpt>
<trkpt lat="52.031787" lon="05.791292"><ele>15.7</ele><time>2022-03-04T13:57:43Z</time><name>PT398</name></trkpt>
<trkpt lat="52.031788" lon="05.791309"><ele>15.6</ele><time>2022-03-04T13:57:43Z</time><name>PT399</name></trkpt>
<trkpt lat="52.031787" lon="05.791328"><ele>15.7</ele><time>2022-03-04T13:57:44Z</time><name>PT400</name></trkpt>
<trkpt lat="52.031786" lon="05.791353"><ele>15.7</ele><time>2022-03-04T13:57:46Z</time><name>PT401</name></trkpt>
<trkpt lat="52.031783" lon="05.791377"><ele>15.8</ele><time>2022-03-04T13:57:46Z</time><name>PT402</name></trkpt>
<trkpt lat="52.031780" lon="05.791401"><ele>15.8</ele><time>2022-03-04T13:57:47Z</time><name>PT403</name></trkpt>
<trkpt lat="52.031780" lon="05.791424"><ele>15.9</ele><time>2022-03-04T13:57:49Z</time><name>PT404</name></trkpt>
<trkpt lat="52.031778" lon="05.791447"><ele>15.9</ele><time>2022-03-04T13:57:49Z</time><name>PT405</name></trkpt>
<trkpt lat="52.031777" lon="05.791466"><ele>16</ele><time>2022-03-04T13:57:50Z</time><name>PT406</name></trkpt>
<trkpt lat="52.031778" lon="05.791482"><ele>16</ele><time>2022-03-04T13:57:52Z</time><name>PT407</name></trkpt>
<trkpt lat="52.031777" lon="05.791496"><ele>16.1</ele><time>2022-03-04T13:57:52Z</time><name>PT408</name></trkpt>
<trkpt lat="52.031777" lon="05.791507"><ele>16.1</ele><time>2022-03-04T13:57:53Z</time><name>PT409</name></trkpt>
<trkpt lat="52.031778" lon="05.791518"><ele>15.9</ele><time>2022-03-04T13:57:55Z</time><name>PT410</name></trkpt>
<trkpt lat="52.031779" lon="05.791533"><ele>16</ele><time>2022-03-04T13:57:55Z</time><name>PT411</name></trkpt>
<trkpt lat="52.031779" lon="05.791548"><ele>16</ele><time>2022-03-04T13:57:56Z</time><name>PT412</name></trkpt>
<trkpt lat="52.031782" lon="05.791563"><ele>15.9</ele><time>2022-03-04T13:57:58Z</time><name>PT413</name></trkpt>
<trkpt lat="52.031784" lon="05.791585"><ele>16</ele><time>2022-03-04T13:57:58Z</time><name>PT414</name></trkpt>
<trkpt lat="52.031783" lon="05.791613"><ele>15.8</ele><time>2022-03-04T13:57:59Z</time><name>PT415</name></trkpt>
<trkpt lat="52.031782" lon="05.791640"><ele>15.8</ele><time>2022-03-04T13:58:01Z</time><name>PT416</name></trkpt>
<trkpt lat="52.031783" lon="05.791666"><ele>15.9</ele><time>2022-03-04T13:58:01Z</time><name>PT417</name></trkpt>
<trkpt lat="52.031782" lon="05.791687"><ele>15.9</ele><time>2022-03-04T13:58:02Z</time><name>PT418</name></trkpt>
<trkpt lat="52.031780" lon="05.791707"><ele>16</ele><time>2022-03-04T13:58:04Z</time><name>PT419</name></trkpt>
<trkpt lat="52.031778" lon="05.791725"><ele>16.1</ele><time>2022-03-04T13:58:04Z</time><name>PT420</name></trkpt>
<trkpt lat="52.031777" lon="05.791739"><ele>16</ele><time>2022-03-04T13:58:05Z</time><name>PT421</name></trkpt>
<trkpt lat="52.031777" lon="05.791753"><ele>16.1</ele><time>2022-03-04T13:58:07Z</time><name>PT422</name></trkpt>
<trkpt lat="52.031776" lon="05.791767"><ele>16</ele><time>2022-03-04T13:58:07Z</time><name>PT423</name></trkpt>
<trkpt lat="52.031773" lon="05.791783"><ele>16</ele><time>2022-03-04T13:58:08Z</time><name>PT424</name></trkpt>
<trkpt lat="52.031774" lon="05.791799"><ele>16</ele><time>2022-03-04T13:58:10Z</time><name>PT425</name></trkpt>
<trkpt lat="52.031776" lon="05.791818"><ele>16.1</ele><time>2022-03-04T13:58:10Z</time><name>PT426</name></trkpt>
<trkpt lat="52.031776" lon="05.791836"><ele>16.1</ele><time>2022-03-04T13:58:11Z</time><name>PT427</name></trkpt>
<trkpt lat="52.031777" lon="05.791853"><ele>16.3</ele><time>2022-03-04T13:58:13Z</time><name>PT428</name></trkpt>
<trkpt lat="52.031773" lon="05.791879"><ele>16.3</ele><time>2022-03-04T13:58:13Z</time><name>PT429</name></trkpt>
<trkpt lat="52.031770" lon="05.791904"><ele>16.3</ele><time>2022-03-04T13:58:14Z</time><name>PT430</name></trkpt>
<trkpt lat="52.031768" lon="05.791928"><ele>16.4</ele><time>2022-03-04T13:58:16Z</time><name>PT431</name></trkpt>
<trkpt lat="52.031765" lon="05.791950"><ele>16.4</ele><time>2022-03-04T13:58:16Z</time><name>PT432</name></trkpt>
<trkpt lat="52.031763" lon="05.791971"><ele>16.3</ele><time>2022-03-04T13:58:17Z</time><name>PT433</name></trkpt>
<trkpt lat="52.031764" lon="05.791989"><ele>16.3</ele><time>2022-03-04T13:58:19Z</time><name>PT434</name></trkpt>
<trkpt lat="52.031765" lon="05.792006"><ele>16.3</ele><time>2022-03-04T13:58:19Z</time><name>PT435</name></trkpt>
<trkpt lat="52.031763" lon="05.792022"><ele>16.2</ele><time>2022-03-04T13:58:20Z</time><name>PT436</name></trkpt>
<trkpt lat="52.031761" lon="05.792038"><ele>16.1</ele><time>2022-03-04T13:58:22Z</time><name>PT437</name></trkpt>
<trkpt lat="52.031757" lon="05.792055"><ele>16</ele><time>2022-03-04T13:58:22Z</time><name>PT438</name></trkpt>
<trkpt lat="52.031757" lon="05.792076"><ele>15.7</ele><time>2022-03-04T13:58:23Z</time><name>PT439</name></trkpt>
<trkpt lat="52.031759" lon="05.792101"><ele>15.8</ele><time>2022-03-04T13:58:25Z</time><name>PT440</name></trkpt>
<trkpt lat="52.031759" lon="05.792128"><ele>15.8</ele><time>2022-03-04T13:58:25Z</time><name>PT441</name></trkpt>
<trkpt lat="52.031759" lon="05.792154"><ele>15.9</ele><time>2022-03-04T13:58:26Z</time><name>PT442</name></trkpt>
<trkpt lat="52.031758" lon="05.792176"><ele>16</ele><time>2022-03-04T13:58:28Z</time><name>PT443</name></trkpt>
<trkpt lat="52.031755" lon="05.792195"><ele>16</ele><time>2022-03-04T13:58:28Z</time><name>PT444</name></trkpt>
<trkpt lat="52.031757" lon="05.792210"><ele>15.8</ele><time>2022-03-04T13:58:29Z</time><name>PT445</name></trkpt>
<trkpt lat="52.031760" lon="05.792226"><ele>15.7</ele><time>2022-03-04T13:58:31Z</time><name>PT446</name></trkpt>
<trkpt lat="52.031763" lon="05.792242"><ele>15.7</ele><time>2022-03-04T13:58:31Z</time><name>PT447</name></trkpt>
<trkpt lat="52.031765" lon="05.792259"><ele>15.9</ele><time>2022-03-04T13:58:32Z</time><name>PT448</name></trkpt>
<trkpt lat="52.031768" lon="05.792278"><ele>16.3</ele><time>2022-03-04T13:58:34Z</time><name>PT449</name></trkpt>
<trkpt lat="52.031771" lon="05.792303"><ele>16.5</ele><time>2022-03-04T13:58:34Z</time><name>PT450</name></trkpt>
<trkpt lat="52.031773" lon="05.792324"><ele>16.6</ele><time>2022-03-04T13:58:35Z</time><name>PT451</name></trkpt>
<trkpt lat="52.031776" lon="05.792346"><ele>16.5</ele><time>2022-03-04T13:58:37Z</time><name>PT452</name></trkpt>
<trkpt lat="52.031774" lon="05.792370"><ele>16.4</ele><time>2022-03-04T13:58:37Z</time><name>PT453</name></trkpt>
<trkpt lat="52.031773" lon="05.792386"><ele>16.1</ele><time>2022-03-04T13:58:38Z</time><name>PT454</name></trkpt>
<trkpt lat="52.031774" lon="05.792397"><ele>16.1</ele><time>2022-03-04T13:58:40Z</time><name>PT455</name></trkpt>
<trkpt lat="52.031773" lon="05.792411"><ele>16.1</ele><time>2022-03-04T13:58:40Z</time><name>PT456</name></trkpt>
<trkpt lat="52.031774" lon="05.792424"><ele>16.2</ele><time>2022-03-04T13:58:41Z</time><name>PT457</name></trkpt>
<trkpt lat="52.031776" lon="05.792438"><ele>16.4</ele><time>2022-03-04T13:58:43Z</time><name>PT458</name></trkpt>
<trkpt lat="52.031780" lon="05.792457"><ele>16.3</ele><time>2022-03-04T13:58:43Z</time><name>PT459</name></trkpt>
<trkpt lat="52.031786" lon="05.792479"><ele>16.2</ele><time>2022-03-04T13:58:44Z</time><name>PT460</name></trkpt>
<trkpt lat="52.031791" lon="05.792506"><ele>16.1</ele><time>2022-03-04T13:58:46Z</time><name>PT461</name></trkpt>
<trkpt lat="52.031790" lon="05.792534"><ele>16.1</ele><time>2022-03-04T13:58:46Z</time><name>PT462</name></trkpt>
<trkpt lat="52.031790" lon="05.792559"><ele>16.1</ele><time>2022-03-04T13:58:47Z</time><name>PT463</name></trkpt>
<trkpt lat="52.031792" lon="05.792581"><ele>16</ele><time>2022-03-04T13:58:49Z</time><name>PT464</name></trkpt>
<trkpt lat="52.031794" lon="05.792597"><ele>16.1</ele><time>2022-03-04T13:58:49Z</time><name>PT465</name></trkpt>
<trkpt lat="52.031796" lon="05.792606"><ele>16.2</ele><time>2022-03-04T13:58:50Z</time><name>PT466</name></trkpt>
<trkpt lat="52.031799" lon="05.792618"><ele>16.2</ele><time>2022-03-04T13:58:52Z</time><name>PT467</name></trkpt>
<trkpt lat="52.031802" lon="05.792633"><ele>16.1</ele><time>2022-03-04T13:58:52Z</time><name>PT468</name></trkpt>
<trkpt lat="52.031805" lon="05.792653"><ele>16.3</ele><time>2022-03-04T13:58:53Z</time><name>PT469</name></trkpt>
<trkpt lat="52.031812" lon="05.792675"><ele>16.2</ele><time>2022-03-04T13:58:55Z</time><name>PT470</name></trkpt>
<trkpt lat="52.031816" lon="05.792699"><ele>16.2</ele><time>2022-03-04T13:58:55Z</time><name>PT471</name></trkpt>
<trkpt lat="52.031815" lon="05.792727"><ele>16.1</ele><time>2022-03-04T13:58:56Z</time><name>PT472</name></trkpt>
<trkpt lat="52.031814" lon="05.792754"><ele>16.1</ele><time>2022-03-04T13:58:58Z</time><name>PT473</name></trkpt>
<trkpt lat="52.031817" lon="05.792774"><ele>16.1</ele><time>2022-03-04T13:58:58Z</time><name>PT474</name></trkpt>
<trkpt lat="52.031820" lon="05.792789"><ele>16.1</ele><time>2022-03-04T13:58:59Z</time><name>PT475</name></trkpt>
<trkpt lat="52.031821" lon="05.792803"><ele>16.1</ele><time>2022-03-04T13:59:01Z</time><name>PT476</name></trkpt>
<trkpt lat="52.031824" lon="05.792815"><ele>16.1</ele><time>2022-03-04T13:59:01Z</time><name>PT477</name></trkpt>
<trkpt lat="52.031829" lon="05.792831"><ele>16.2</ele><time>2022-03-04T13:59:02Z</time><name>PT478</name></trkpt>
<trkpt lat="52.031836" lon="05.792845"><ele>16.1</ele><time>2022-03-04T13:59:04Z</time><name>PT479</name></trkpt>
<trkpt lat="52.031841" lon="05.792863"><ele>16.2</ele><time>2022-03-04T13:59:04Z</time><name>PT480</name></trkpt>
<trkpt lat="52.031846" lon="05.792887"><ele>16.2</ele><time>2022-03-04T13:59:05Z</time><name>PT481</name></trkpt>
<trkpt lat="52.031853" lon="05.792912"><ele>16.3</ele><time>2022-03-04T13:59:07Z</time><name>PT482</name></trkpt>
<trkpt lat="52.031859" lon="05.792938"><ele>16.5</ele><time>2022-03-04T13:59:07Z</time><name>PT483</name></trkpt>
<trkpt lat="52.031863" lon="05.792963"><ele>16.6</ele><time>2022-03-04T13:59:08Z</time><name>PT484</name></trkpt>
<trkpt lat="52.031864" lon="05.792987"><ele>16.8</ele><time>2022-03-04T13:59:10Z</time><name>PT485</name></trkpt>
<trkpt lat="52.031867" lon="05.793006"><ele>16.8</ele><time>2022-03-04T13:59:10Z</time><name>PT486</name></trkpt>
<trkpt lat="52.031872" lon="05.793022"><ele>16.9</ele><time>2022-03-04T13:59:11Z</time><name>PT487</name></trkpt>
<trkpt lat="52.031878" lon="05.793038"><ele>16.8</ele><time>2022-03-04T13:59:13Z</time><name>PT488</name></trkpt>
<trkpt lat="52.031880" lon="05.793054"><ele>16.9</ele><time>2022-03-04T13:59:13Z</time><name>PT489</name></trkpt>
<trkpt lat="52.031883" lon="05.793068"><ele>16.9</ele><time>2022-03-04T13:59:14Z</time><name>PT490</name></trkpt>
<trkpt lat="52.031889" lon="05.793083"><ele>17</ele><time>2022-03-04T13:59:16Z</time><name>PT491</name></trkpt>
<trkpt lat="52.031893" lon="05.793097"><ele>16.9</ele><time>2022-03-04T13:59:16Z</time><name>PT492</name></trkpt>
<trkpt lat="52.031898" lon="05.793109"><ele>16.9</ele><time>2022-03-04T13:59:17Z</time><name>PT493</name></trkpt>
<trkpt lat="52.031902" lon="05.793121"><ele>17</ele><time>2022-03-04T13:59:19Z</time><name>PT494</name></trkpt>
<trkpt lat="52.031907" lon="05.793134"><ele>17</ele><time>2022-03-04T13:59:19Z</time><name>PT495</name></trkpt>
<trkpt lat="52.031911" lon="05.793149"><ele>17</ele><time>2022-03-04T13:59:20Z</time><name>PT496</name></trkpt>
<trkpt lat="52.031917" lon="05.793161"><ele>17</ele><time>2022-03-04T13:59:22Z</time><name>PT497</name></trkpt>
<trkpt lat="52.031923" lon="05.793174"><ele>17.1</ele><time>2022-03-04T13:59:22Z</time><name>PT498</name></trkpt>
<trkpt lat="52.031929" lon="05.793193"><ele>17.3</ele><time>2022-03-04T13:59:23Z</time><name>PT499</name></trkpt>
<trkpt lat="52.031934" lon="05.793220"><ele>17.4</ele><time>2022-03-04T13:59:25Z</time><name>PT500</name></trkpt>
<trkpt lat="52.031936" lon="05.793247"><ele>17.6</ele><time>2022-03-04T13:59:25Z</time><name>PT501</name></trkpt>
<trkpt lat="52.031942" lon="05.793272"><ele>17.9</ele><time>2022-03-04T13:59:26Z</time><name>PT502</name></trkpt>
<trkpt lat="52.031951" lon="05.793296"><ele>18</ele><time>2022-03-04T13:59:28Z</time><name>PT503</name></trkpt>
<trkpt lat="52.031957" lon="05.793316"><ele>18.1</ele><time>2022-03-04T13:59:28Z</time><name>PT504</name></trkpt>
<trkpt lat="52.031963" lon="05.793338"><ele>18.1</ele><time>2022-03-04T13:59:29Z</time><name>PT505</name></trkpt>
<trkpt lat="52.031967" lon="05.793355"><ele>17.9</ele><time>2022-03-04T13:59:31Z</time><name>PT506</name></trkpt>
<trkpt lat="52.031970" lon="05.793370"><ele>17.9</ele><time>2022-03-04T13:59:31Z</time><name>PT507</name></trkpt>
<trkpt lat="52.031977" lon="05.793381"><ele>17.8</ele><time>2022-03-04T13:59:33Z</time><name>PT508</name></trkpt>
<trkpt lat="52.031982" lon="05.793392"><ele>18</ele><time>2022-03-04T13:59:34Z</time><name>PT509</name></trkpt>
<trkpt lat="52.031987" lon="05.793403"><ele>18</ele><time>2022-03-04T13:59:34Z</time><name>PT510</name></trkpt>
<trkpt lat="52.031991" lon="05.793417"><ele>18.3</ele><time>2022-03-04T13:59:35Z</time><name>PT511</name></trkpt>
<trkpt lat="52.031996" lon="05.793426"><ele>18.1</ele><time>2022-03-04T13:59:37Z</time><name>PT512</name></trkpt>
<trkpt lat="52.032000" lon="05.793444"><ele>18.3</ele><time>2022-03-04T13:59:37Z</time><name>PT513</name></trkpt>
<trkpt lat="52.032005" lon="05.793463"><ele>18.1</ele><time>2022-03-04T13:59:38Z</time><name>PT514</name></trkpt>
<trkpt lat="52.032011" lon="05.793484"><ele>18</ele><time>2022-03-04T13:59:40Z</time><name>PT515</name></trkpt>
<trkpt lat="52.032016" lon="05.793504"><ele>18</ele><time>2022-03-04T13:59:40Z</time><name>PT516</name></trkpt>
<trkpt lat="52.032018" lon="05.793516"><ele>18</ele><time>2022-03-04T13:59:41Z</time><name>PT517</name></trkpt>
<trkpt lat="52.032020" lon="05.793524"><ele>18</ele><time>2022-03-04T13:59:43Z</time><name>PT518</name></trkpt>
<trkpt lat="52.032023" lon="05.793535"><ele>18</ele><time>2022-03-04T13:59:43Z</time><name>PT519</name></trkpt>
<trkpt lat="52.032026" lon="05.793549"><ele>18</ele><time>2022-03-04T13:59:44Z</time><name>PT520</name></trkpt>
<trkpt lat="52.032031" lon="05.793569"><ele>18.1</ele><time>2022-03-04T13:59:46Z</time><name>PT521</name></trkpt>
<trkpt lat="52.032038" lon="05.793590"><ele>18.1</ele><time>2022-03-04T13:59:46Z</time><name>PT522</name></trkpt>
<trkpt lat="52.032047" lon="05.793611"><ele>18.3</ele><time>2022-03-04T13:59:48Z</time><name>PT523</name></trkpt>
<trkpt lat="52.032053" lon="05.793634"><ele>18.4</ele><time>2022-03-04T13:59:49Z</time><name>PT524</name></trkpt>
<trkpt lat="52.032058" lon="05.793655"><ele>18.4</ele><time>2022-03-04T13:59:49Z</time><name>PT525</name></trkpt>
<trkpt lat="52.032062" lon="05.793674"><ele>18.4</ele><time>2022-03-04T13:59:50Z</time><name>PT526</name></trkpt>
<trkpt lat="52.032065" lon="05.793686"><ele>18.4</ele><time>2022-03-04T13:59:52Z</time><name>PT527</name></trkpt>
<trkpt lat="52.032072" lon="05.793695"><ele>18.5</ele><time>2022-03-04T13:59:52Z</time><name>PT528</name></trkpt>
<trkpt lat="52.032078" lon="05.793708"><ele>18.5</ele><time>2022-03-04T13:59:53Z</time><name>PT529</name></trkpt>
<trkpt lat="52.032085" lon="05.793717"><ele>18.6</ele><time>2022-03-04T13:59:55Z</time><name>PT530</name></trkpt>
<trkpt lat="52.032093" lon="05.793727"><ele>18.6</ele><time>2022-03-04T13:59:55Z</time><name>PT531</name></trkpt>
<trkpt lat="52.032100" lon="05.793739"><ele>18.5</ele><time>2022-03-04T13:59:56Z</time><name>PT532</name></trkpt>
<trkpt lat="52.032109" lon="05.793762"><ele>18.4</ele><time>2022-03-04T13:59:58Z</time><name>PT533</name></trkpt>
<trkpt lat="52.032118" lon="05.793783"><ele>18.3</ele><time>2022-03-04T13:59:58Z</time><name>PT534</name></trkpt>
<trkpt lat="52.032126" lon="05.793800"><ele>18.4</ele><time>2022-03-04T13:59:59Z</time><name>PT535</name></trkpt>
<trkpt lat="52.032131" lon="05.793815"><ele>18.4</ele><time>2022-03-04T14:00:01Z</time><name>PT536</name></trkpt>
<trkpt lat="52.032139" lon="05.793825"><ele>18.5</ele><time>2022-03-04T14:00:01Z</time><name>PT537</name></trkpt>
<trkpt lat="52.032146" lon="05.793834"><ele>18.4</ele><time>2022-03-04T14:00:02Z</time><name>PT538</name></trkpt>
<trkpt lat="52.032154" lon="05.793846"><ele>18.4</ele><time>2022-03-04T14:00:04Z</time><name>PT539</name></trkpt>
<trkpt lat="52.032160" lon="05.793853"><ele>18.3</ele><time>2022-03-04T14:00:04Z</time><name>PT540</name></trkpt>
<trkpt lat="52.032167" lon="05.793861"><ele>18.2</ele><time>2022-03-04T14:00:05Z</time><name>PT541</name></trkpt>
<trkpt lat="52.032174" lon="05.793875"><ele>18.2</ele><time>2022-03-04T14:00:07Z</time><name>PT542</name></trkpt>
<trkpt lat="52.032181" lon="05.793898"><ele>18.1</ele><time>2022-03-04T14:00:07Z</time><name>PT543</name></trkpt>
<trkpt lat="52.032191" lon="05.793920"><ele>18.1</ele><time>2022-03-04T14:00:08Z</time><name>PT544</name></trkpt>
<trkpt lat="52.032198" lon="05.793936"><ele>18.2</ele><time>2022-03-04T14:00:10Z</time><name>PT545</name></trkpt>
<trkpt lat="52.032203" lon="05.793950"><ele>17.9</ele><time>2022-03-04T14:00:10Z</time><name>PT546</name></trkpt>
<trkpt lat="52.032204" lon="05.793962"><ele>17.8</ele><time>2022-03-04T14:00:11Z</time><name>PT547</name></trkpt>
<trkpt lat="52.032207" lon="05.793973"><ele>17.7</ele><time>2022-03-04T14:00:13Z</time><name>PT548</name></trkpt>
<trkpt lat="52.032212" lon="05.793983"><ele>17.6</ele><time>2022-03-04T14:00:13Z</time><name>PT549</name></trkpt>
<trkpt lat="52.032214" lon="05.793998"><ele>17.3</ele><time>2022-03-04T14:00:14Z</time><name>PT550</name></trkpt>
<trkpt lat="52.032220" lon="05.794017"><ele>17.4</ele><time>2022-03-04T14:00:16Z</time><name>PT551</name></trkpt>
<trkpt lat="52.032232" lon="05.794039"><ele>17.4</ele><time>2022-03-04T14:00:16Z</time><name>PT552</name></trkpt>
<trkpt lat="52.032242" lon="05.794059"><ele>17.3</ele><time>2022-03-04T14:00:17Z</time><name>PT553</name></trkpt>
<trkpt lat="52.032249" lon="05.794078"><ele>17.3</ele><time>2022-03-04T14:00:19Z</time><name>PT554</name></trkpt>
<trkpt lat="52.032254" lon="05.794095"><ele>17.4</ele><time>2022-03-04T14:00:19Z</time><name>PT555</name></trkpt>
<trkpt lat="52.032260" lon="05.794109"><ele>17.4</ele><time>2022-03-04T14:00:20Z</time><name>PT556</name></trkpt>
<trkpt lat="52.032263" lon="05.794119"><ele>17.4</ele><time>2022-03-04T14:00:22Z</time><name>PT557</name></trkpt>
<trkpt lat="52.032269" lon="05.794129"><ele>17.3</ele><time>2022-03-04T14:00:22Z</time><name>PT558</name></trkpt>
<trkpt lat="52.032276" lon="05.794142"><ele>17.5</ele><time>2022-03-04T14:00:23Z</time><name>PT559</name></trkpt>
<trkpt lat="52.032284" lon="05.794157"><ele>17.5</ele><time>2022-03-04T14:00:25Z</time><name>PT560</name></trkpt>
<trkpt lat="52.032287" lon="05.794169"><ele>17.5</ele><time>2022-03-04T14:00:25Z</time><name>PT561</name></trkpt>
<trkpt lat="52.032299" lon="05.794187"><ele>17.3</ele><time>2022-03-04T14:00:26Z</time><name>PT562</name></trkpt>
<trkpt lat="52.032309" lon="05.794208"><ele>17.2</ele><time>2022-03-04T14:00:28Z</time><name>PT563</name></trkpt>
<trkpt lat="52.032317" lon="05.794231"><ele>17.2</ele><time>2022-03-04T14:00:28Z</time><name>PT564</name></trkpt>
<trkpt lat="52.032323" lon="05.794246"><ele>17</ele><time>2022-03-04T14:00:29Z</time><name>PT565</name></trkpt>
<trkpt lat="52.032328" lon="05.794256"><ele>17.3</ele><time>2022-03-04T14:00:31Z</time><name>PT566</name></trkpt>
<trkpt lat="52.032336" lon="05.794272"><ele>17.2</ele><time>2022-03-04T14:00:31Z</time><name>PT567</name></trkpt>
<trkpt lat="52.032341" lon="05.794287"><ele>17.2</ele><time>2022-03-04T14:00:32Z</time><name>PT568</name></trkpt>
<trkpt lat="52.032343" lon="05.794296"><ele>17.1</ele><time>2022-03-04T14:00:34Z</time><name>PT569</name></trkpt>
<trkpt lat="52.032350" lon="05.794315"><ele>17</ele><time>2022-03-04T14:00:34Z</time><name>PT570</name></trkpt>
<trkpt lat="52.032355" lon="05.794335"><ele>16.8</ele><time>2022-03-04T14:00:35Z</time><name>PT571</name></trkpt>
<trkpt lat="52.032362" lon="05.794356"><ele>17</ele><time>2022-03-04T14:00:37Z</time><name>PT572</name></trkpt>
<trkpt lat="52.032369" lon="05.794377"><ele>16.9</ele><time>2022-03-04T14:00:37Z</time><name>PT573</name></trkpt>
<trkpt lat="52.032377" lon="05.794400"><ele>17</ele><time>2022-03-04T14:00:38Z</time><name>PT574</name></trkpt>
<trkpt lat="52.032384" lon="05.794418"><ele>17</ele><time>2022-03-04T14:00:40Z</time><name>PT575</name></trkpt>
<trkpt lat="52.032391" lon="05.794433"><ele>17.1</ele><time>2022-03-04T14:00:40Z</time><name>PT576</name></trkpt>
<trkpt lat="52.032396" lon="05.794448"><ele>17.1</ele><time>2022-03-04T14:00:41Z</time><name>PT577</name></trkpt>
<trkpt lat="52.032399" lon="05.794463"><ele>17</ele><time>2022-03-04T14:00:43Z</time><name>PT578</name></trkpt>
<trkpt lat="52.032405" lon="05.794478"><ele>17.1</ele><time>2022-03-04T14:00:43Z</time><name>PT579</name></trkpt>
<trkpt lat="52.032412" lon="05.794495"><ele>17</ele><time>2022-03-04T14:00:44Z</time><name>PT580</name></trkpt>
<trkpt lat="52.032420" lon="05.794515"><ele>17</ele><time>2022-03-04T14:00:46Z</time><name>PT581</name></trkpt>
<trkpt lat="52.032427" lon="05.794536"><ele>17</ele><time>2022-03-04T14:00:46Z</time><name>PT582</name></trkpt>
<trkpt lat="52.032434" lon="05.794560"><ele>17.1</ele><time>2022-03-04T14:00:47Z</time><name>PT583</name></trkpt>
<trkpt lat="52.032443" lon="05.794579"><ele>17.3</ele><time>2022-03-04T14:00:49Z</time><name>PT584</name></trkpt>
<trkpt lat="52.032452" lon="05.794602"><ele>17.3</ele><time>2022-03-04T14:00:49Z</time><name>PT585</name></trkpt>
<trkpt lat="52.032458" lon="05.794621"><ele>17.3</ele><time>2022-03-04T14:00:50Z</time><name>PT586</name></trkpt>
<trkpt lat="52.032464" lon="05.794636"><ele>17.2</ele><time>2022-03-04T14:00:52Z</time><name>PT587</name></trkpt>
<trkpt lat="52.032467" lon="05.794647"><ele>17</ele><time>2022-03-04T14:00:52Z</time><name>PT588</name></trkpt>
<trkpt lat="52.032472" lon="05.794655"><ele>17</ele><time>2022-03-04T14:00:53Z</time><name>PT589</name></trkpt>
<trkpt lat="52.032475" lon="05.794664"><ele>17</ele><time>2022-03-04T14:00:55Z</time><name>PT590</name></trkpt>
<trkpt lat="52.032483" lon="05.794679"><ele>17</ele><time>2022-03-04T14:00:55Z</time><name>PT591</name></trkpt>
<trkpt lat="52.032490" lon="05.794689"><ele>17.1</ele><time>2022-03-04T14:00:56Z</time><name>PT592</name></trkpt>
<trkpt lat="52.032495" lon="05.794705"><ele>17.2</ele><time>2022-03-04T14:00:58Z</time><name>PT593</name></trkpt>
<trkpt lat="52.032502" lon="05.794726"><ele>17.3</ele><time>2022-03-04T14:00:58Z</time><name>PT594</name></trkpt>
<trkpt lat="52.032507" lon="05.794751"><ele>17.3</ele><time>2022-03-04T14:00:59Z</time><name>PT595</name></trkpt>
<trkpt lat="52.032515" lon="05.794775"><ele>17.4</ele><time>2022-03-04T14:01:01Z</time><name>PT596</name></trkpt>
<trkpt lat="52.032518" lon="05.794795"><ele>17.5</ele><time>2022-03-04T14:01:01Z</time><name>PT597</name></trkpt>
<trkpt lat="52.032523" lon="05.794810"><ele>17.5</ele><time>2022-03-04T14:01:02Z</time><name>PT598</name></trkpt>
<trkpt lat="52.032529" lon="05.794824"><ele>17.4</ele><time>2022-03-04T14:01:04Z</time><name>PT599</name></trkpt>
<trkpt lat="52.032535" lon="05.794834"><ele>17.4</ele><time>2022-03-04T14:01:04Z</time><name>PT600</name></trkpt>
<trkpt lat="52.032542" lon="05.794851"><ele>17.3</ele><time>2022-03-04T14:01:05Z</time><name>PT601</name></trkpt>
<trkpt lat="52.032550" lon="05.794867"><ele>17.2</ele><time>2022-03-04T14:01:07Z</time><name>PT602</name></trkpt>
<trkpt lat="52.032559" lon="05.794880"><ele>17.2</ele><time>2022-03-04T14:01:07Z</time><name>PT603</name></trkpt>
<trkpt lat="52.032565" lon="05.794901"><ele>17.2</ele><time>2022-03-04T14:01:08Z</time><name>PT604</name></trkpt>
<trkpt lat="52.032570" lon="05.794917"><ele>17.2</ele><time>2022-03-04T14:01:10Z</time><name>PT605</name></trkpt>
<trkpt lat="52.032573" lon="05.794927"><ele>17.2</ele><time>2022-03-04T14:01:10Z</time><name>PT606</name></trkpt>
<trkpt lat="52.032578" lon="05.794943"><ele>17.1</ele><time>2022-03-04T14:01:11Z</time><name>PT607</name></trkpt>
<trkpt lat="52.032584" lon="05.794958"><ele>17.1</ele><time>2022-03-04T14:01:13Z</time><name>PT608</name></trkpt>
<trkpt lat="52.032590" lon="05.794972"><ele>17.1</ele><time>2022-03-04T14:01:13Z</time><name>PT609</name></trkpt>
<trkpt lat="52.032596" lon="05.794987"><ele>17.3</ele><time>2022-03-04T14:01:14Z</time><name>PT610</name></trkpt>
<trkpt lat="52.032598" lon="05.794997"><ele>17.5</ele><time>2022-03-04T14:01:16Z</time><name>PT611</name></trkpt>
<trkpt lat="52.032604" lon="05.795020"><ele>17.5</ele><time>2022-03-04T14:01:16Z</time><name>PT612</name></trkpt>
<trkpt lat="52.032612" lon="05.795041"><ele>17.2</ele><time>2022-03-04T14:01:17Z</time><name>PT613</name></trkpt>
<trkpt lat="52.032614" lon="05.795060"><ele>17.1</ele><time>2022-03-04T14:01:19Z</time><name>PT614</name></trkpt>
<trkpt lat="52.032611" lon="05.795080"><ele>17</ele><time>2022-03-04T14:01:19Z</time><name>PT615</name></trkpt>
<trkpt lat="52.032613" lon="05.795105"><ele>16.8</ele><time>2022-03-04T14:01:20Z</time><name>PT616</name></trkpt>
<trkpt lat="52.032616" lon="05.795130"><ele>16.8</ele><time>2022-03-04T14:01:22Z</time><name>PT617</name></trkpt>
<trkpt lat="52.032614" lon="05.795147"><ele>17</ele><time>2022-03-04T14:01:22Z</time><name>PT618</name></trkpt>
<trkpt lat="52.032615" lon="05.795166"><ele>16.8</ele><time>2022-03-04T14:01:23Z</time><name>PT619</name></trkpt>
<trkpt lat="52.032616" lon="05.795180"><ele>16.8</ele><time>2022-03-04T14:01:25Z</time><name>PT620</name></trkpt>
<trkpt lat="52.032618" lon="05.795194"><ele>16.9</ele><time>2022-03-04T14:01:25Z</time><name>PT621</name></trkpt>
<trkpt lat="52.032619" lon="05.795203"><ele>17</ele><time>2022-03-04T14:01:26Z</time><name>PT622</name></trkpt>
<trkpt lat="52.032617" lon="05.795212"><ele>17</ele><time>2022-03-04T14:01:28Z</time><name>PT623</name></trkpt>
<trkpt lat="52.032613" lon="05.795227"><ele>17</ele><time>2022-03-04T14:01:28Z</time><name>PT624</name></trkpt>
<trkpt lat="52.032612" lon="05.795245"><ele>16.9</ele><time>2022-03-04T14:01:29Z</time><name>PT625</name></trkpt>
<trkpt lat="52.032614" lon="05.795264"><ele>16.9</ele><time>2022-03-04T14:01:31Z</time><name>PT626</name></trkpt>
<trkpt lat="52.032613" lon="05.795285"><ele>16.8</ele><time>2022-03-04T14:01:31Z</time><name>PT627</name></trkpt>
<trkpt lat="52.032612" lon="05.795306"><ele>16.8</ele><time>2022-03-04T14:01:32Z</time><name>PT628</name></trkpt>
<trkpt lat="52.032609" lon="05.795321"><ele>17</ele><time>2022-03-04T14:01:34Z</time><name>PT629</name></trkpt>
<trkpt lat="52.032607" lon="05.795337"><ele>17</ele><time>2022-03-04T14:01:34Z</time><name>PT630</name></trkpt>
<trkpt lat="52.032604" lon="05.795355"><ele>17.2</ele><time>2022-03-04T14:01:35Z</time><name>PT631</name></trkpt>
<trkpt lat="52.032607" lon="05.795365"><ele>17.3</ele><time>2022-03-04T14:01:37Z</time><name>PT632</name></trkpt>
<trkpt lat="52.032611" lon="05.795379"><ele>17.3</ele><time>2022-03-04T14:01:37Z</time><name>PT633</name></trkpt>
<trkpt lat="52.032613" lon="05.795392"><ele>17.1</ele><time>2022-03-04T14:01:38Z</time><name>PT634</name></trkpt>
<trkpt lat="52.032613" lon="05.795411"><ele>17</ele><time>2022-03-04T14:01:40Z</time><name>PT635</name></trkpt>
<trkpt lat="52.032614" lon="05.795431"><ele>17</ele><time>2022-03-04T14:01:40Z</time><name>PT636</name></trkpt>
<trkpt lat="52.032616" lon="05.795450"><ele>16.9</ele><time>2022-03-04T14:01:41Z</time><name>PT637</name></trkpt>
<trkpt lat="52.032620" lon="05.795469"><ele>16.7</ele><time>2022-03-04T14:01:43Z</time><name>PT638</name></trkpt>
<trkpt lat="52.032618" lon="05.795492"><ele>16.8</ele><time>2022-03-04T14:01:43Z</time><name>PT639</name></trkpt>
<trkpt lat="52.032614" lon="05.795512"><ele>16.9</ele><time>2022-03-04T14:01:44Z</time><name>PT640</name></trkpt>
<trkpt lat="52.032609" lon="05.795529"><ele>17</ele><time>2022-03-04T14:01:46Z</time><name>PT641</name></trkpt>
<trkpt lat="52.032607" lon="05.795568"><ele>17.1</ele><time>2022-03-04T14:01:47Z</time><name>PT642</name></trkpt>
<trkpt lat="52.032608" lon="05.795580"><ele>17</ele><time>2022-03-04T14:01:49Z</time><name>PT643</name></trkpt>
<trkpt lat="52.032606" lon="05.795595"><ele>17</ele><time>2022-03-04T14:01:49Z</time><name>PT644</name></trkpt>
<trkpt lat="52.032604" lon="05.795611"><ele>16.8</ele><time>2022-03-04T14:01:50Z</time><name>PT645</name></trkpt>
<trkpt lat="52.032610" lon="05.795635"><ele>16.9</ele><time>2022-03-04T14:01:52Z</time><name>PT646</name></trkpt>
<trkpt lat="52.032611" lon="05.795656"><ele>17</ele><time>2022-03-04T14:01:52Z</time><name>PT647</name></trkpt>
<trkpt lat="52.032611" lon="05.795677"><ele>17</ele><time>2022-03-04T14:01:53Z</time><name>PT648</name></trkpt>
<trkpt lat="52.032611" lon="05.795692"><ele>17.3</ele><time>2022-03-04T14:01:55Z</time><name>PT649</name></trkpt>
<trkpt lat="52.032613" lon="05.795710"><ele>17.3</ele><time>2022-03-04T14:01:55Z</time><name>PT650</name></trkpt>
<trkpt lat="52.032620" lon="05.795725"><ele>17.2</ele><time>2022-03-04T14:01:56Z</time><name>PT651</name></trkpt>
<trkpt lat="52.032622" lon="05.795737"><ele>17</ele><time>2022-03-04T14:01:58Z</time><name>PT652</name></trkpt>
<trkpt lat="52.032622" lon="05.795745"><ele>17</ele><time>2022-03-04T14:01:58Z</time><name>PT653</name></trkpt>
<trkpt lat="52.032623" lon="05.795759"><ele>16.9</ele><time>2022-03-04T14:01:59Z</time><name>PT654</name></trkpt>
<trkpt lat="52.032619" lon="05.795782"><ele>16.9</ele><time>2022-03-04T14:02:01Z</time><name>PT655</name></trkpt>
<trkpt lat="52.032620" lon="05.795805"><ele>16.8</ele><time>2022-03-04T14:02:01Z</time><name>PT656</name></trkpt>
<trkpt lat="52.032620" lon="05.795830"><ele>16.7</ele><time>2022-03-04T14:02:02Z</time><name>PT657</name></trkpt>
<trkpt lat="52.032620" lon="05.795848"><ele>16.6</ele><time>2022-03-04T14:02:04Z</time><name>PT658</name></trkpt>
<trkpt lat="52.032623" lon="05.795860"><ele>16.7</ele><time>2022-03-04T14:02:04Z</time><name>PT659</name></trkpt>
<trkpt lat="52.032627" lon="05.795877"><ele>16.6</ele><time>2022-03-04T14:02:05Z</time><name>PT660</name></trkpt>
<trkpt lat="52.032630" lon="05.795892"><ele>16.7</ele><time>2022-03-04T14:02:07Z</time><name>PT661</name></trkpt>
<trkpt lat="52.032633" lon="05.795910"><ele>16.9</ele><time>2022-03-04T14:02:07Z</time><name>PT662</name></trkpt>
<trkpt lat="52.032635" lon="05.795929"><ele>17</ele><time>2022-03-04T14:02:08Z</time><name>PT663</name></trkpt>
<trkpt lat="52.032640" lon="05.795945"><ele>17</ele><time>2022-03-04T14:02:10Z</time><name>PT664</name></trkpt>
<trkpt lat="52.032649" lon="05.795965"><ele>17</ele><time>2022-03-04T14:02:10Z</time><name>PT665</name></trkpt>
<trkpt lat="52.032649" lon="05.795985"><ele>16.9</ele><time>2022-03-04T14:02:11Z</time><name>PT666</name></trkpt>
<trkpt lat="52.032649" lon="05.796004"><ele>16.8</ele><time>2022-03-04T14:02:13Z</time><name>PT667</name></trkpt>
<trkpt lat="52.032650" lon="05.796021"><ele>16.7</ele><time>2022-03-04T14:02:13Z</time><name>PT668</name></trkpt>
<trkpt lat="52.032645" lon="05.796040"><ele>16.6</ele><time>2022-03-04T14:02:14Z</time><name>PT669</name></trkpt>
<trkpt lat="52.032642" lon="05.796057"><ele>16.7</ele><time>2022-03-04T14:02:16Z</time><name>PT670</name></trkpt>
<trkpt lat="52.032642" lon="05.796076"><ele>16.8</ele><time>2022-03-04T14:02:16Z</time><name>PT671</name></trkpt>
<trkpt lat="52.032641" lon="05.796093"><ele>16.9</ele><time>2022-03-04T14:02:17Z</time><name>PT672</name></trkpt>
<trkpt lat="52.032644" lon="05.796113"><ele>17.1</ele><time>2022-03-04T14:02:19Z</time><name>PT673</name></trkpt>
<trkpt lat="52.032644" lon="05.796131"><ele>17</ele><time>2022-03-04T14:02:19Z</time><name>PT674</name></trkpt>
<trkpt lat="52.032647" lon="05.796150"><ele>16.9</ele><time>2022-03-04T14:02:20Z</time><name>PT675</name></trkpt>
<trkpt lat="52.032629" lon="05.796167"><ele>17</ele><time>2022-03-04T14:02:22Z</time><name>PT676</name></trkpt>
<trkpt lat="52.032623" lon="05.796187"><ele>16.9</ele><time>2022-03-04T14:02:22Z</time><name>PT677</name></trkpt>
<trkpt lat="52.032626" lon="05.796214"><ele>16.8</ele><time>2022-03-04T14:02:23Z</time><name>PT678</name></trkpt>
<trkpt lat="52.032634" lon="05.796243"><ele>16.9</ele><time>2022-03-04T14:02:25Z</time><name>PT679</name></trkpt>
<trkpt lat="52.032640" lon="05.796271"><ele>17</ele><time>2022-03-04T14:02:25Z</time><name>PT680</name></trkpt>
<trkpt lat="52.032643" lon="05.796301"><ele>17</ele><time>2022-03-04T14:02:26Z</time><name>PT681</name></trkpt>
<trkpt lat="52.032644" lon="05.796323"><ele>17</ele><time>2022-03-04T14:02:28Z</time><name>PT682</name></trkpt>
<trkpt lat="52.032650" lon="05.796349"><ele>16.9</ele><time>2022-03-04T14:02:28Z</time><name>PT683</name></trkpt>
<trkpt lat="52.032653" lon="05.796377"><ele>17</ele><time>2022-03-04T14:02:29Z</time><name>PT684</name></trkpt>
<trkpt lat="52.032656" lon="05.796410"><ele>17</ele><time>2022-03-04T14:02:31Z</time><name>PT685</name></trkpt>
<trkpt lat="52.032665" lon="05.796427"><ele>17</ele><time>2022-03-04T14:02:31Z</time><name>PT686</name></trkpt>
<trkpt lat="52.032663" lon="05.796441"><ele>16.9</ele><time>2022-03-04T14:02:32Z</time><name>PT687</name></trkpt>
<trkpt lat="52.032658" lon="05.796458"><ele>16.7</ele><time>2022-03-04T14:02:34Z</time><name>PT688</name></trkpt>
<trkpt lat="52.032656" lon="05.796479"><ele>16.7</ele><time>2022-03-04T14:02:34Z</time><name>PT689</name></trkpt>
<trkpt lat="52.032656" lon="05.796499"><ele>16.7</ele><time>2022-03-04T14:02:35Z</time><name>PT690</name></trkpt>
<trkpt lat="52.032658" lon="05.796516"><ele>16.8</ele><time>2022-03-04T14:02:37Z</time><name>PT691</name></trkpt>
<trkpt lat="52.032661" lon="05.796530"><ele>17</ele><time>2022-03-04T14:02:37Z</time><name>PT692</name></trkpt>
<trkpt lat="52.032662" lon="05.796541"><ele>17.2</ele><time>2022-03-04T14:02:38Z</time><name>PT693</name></trkpt>
<trkpt lat="52.032666" lon="05.796553"><ele>17.2</ele><time>2022-03-04T14:02:40Z</time><name>PT694</name></trkpt>
<trkpt lat="52.032671" lon="05.796568"><ele>17.3</ele><time>2022-03-04T14:02:40Z</time><name>PT695</name></trkpt>
<trkpt lat="52.032677" lon="05.796589"><ele>17.5</ele><time>2022-03-04T14:02:41Z</time><name>PT696</name></trkpt>
<trkpt lat="52.032681" lon="05.796610"><ele>17.5</ele><time>2022-03-04T14:02:43Z</time><name>PT697</name></trkpt>
<trkpt lat="52.032678" lon="05.796631"><ele>17.5</ele><time>2022-03-04T14:02:43Z</time><name>PT698</name></trkpt>
<trkpt lat="52.032680" lon="05.796653"><ele>17.4</ele><time>2022-03-04T14:02:44Z</time><name>PT699</name></trkpt>
<trkpt lat="52.032678" lon="05.796681"><ele>17.5</ele><time>2022-03-04T14:02:46Z</time><name>PT700</name></trkpt>
<trkpt lat="52.032677" lon="05.796702"><ele>17.4</ele><time>2022-03-04T14:02:46Z</time><name>PT701</name></trkpt>
<trkpt lat="52.032678" lon="05.796726"><ele>17.4</ele><time>2022-03-04T14:02:47Z</time><name>PT702</name></trkpt>
<trkpt lat="52.032681" lon="05.796747"><ele>17.4</ele><time>2022-03-04T14:02:49Z</time><name>PT703</name></trkpt>
<trkpt lat="52.032683" lon="05.796767"><ele>17.3</ele><time>2022-03-04T14:02:49Z</time><name>PT704</name></trkpt>
<trkpt lat="52.032690" lon="05.796780"><ele>17.3</ele><time>2022-03-04T14:02:50Z</time><name>PT705</name></trkpt>
<trkpt lat="52.032692" lon="05.796791"><ele>17</ele><time>2022-03-04T14:02:52Z</time><name>PT706</name></trkpt>
<trkpt lat="52.032694" lon="05.796804"><ele>17</ele><time>2022-03-04T14:02:52Z</time><name>PT707</name></trkpt>
<trkpt lat="52.032696" lon="05.796821"><ele>17.1</ele><time>2022-03-04T14:02:53Z</time><name>PT708</name></trkpt>
<trkpt lat="52.032697" lon="05.796839"><ele>17.2</ele><time>2022-03-04T14:02:55Z</time><name>PT709</name></trkpt>
<trkpt lat="52.032696" lon="05.796863"><ele>17.3</ele><time>2022-03-04T14:02:55Z</time><name>PT710</name></trkpt>
<trkpt lat="52.032700" lon="05.796889"><ele>17.4</ele><time>2022-03-04T14:02:56Z</time><name>PT711</name></trkpt>
<trkpt lat="52.032705" lon="05.796909"><ele>17.5</ele><time>2022-03-04T14:02:58Z</time><name>PT712</name></trkpt>
<trkpt lat="52.032708" lon="05.796924"><ele>17.6</ele><time>2022-03-04T14:02:58Z</time><name>PT713</name></trkpt>
<trkpt lat="52.032711" lon="05.796942"><ele>17.6</ele><time>2022-03-04T14:02:59Z</time><name>PT714</name></trkpt>
<trkpt lat="52.032709" lon="05.796961"><ele>17.6</ele><time>2022-03-04T14:03:01Z</time><name>PT715</name></trkpt>
<trkpt lat="52.032710" lon="05.796981"><ele>17.5</ele><time>2022-03-04T14:03:01Z</time><name>PT716</name></trkpt>
<trkpt lat="52.032709" lon="05.797000"><ele>17.5</ele><time>2022-03-04T14:03:02Z</time><name>PT717</name></trkpt>
<trkpt lat="52.032711" lon="05.797015"><ele>17.5</ele><time>2022-03-04T14:03:04Z</time><name>PT718</name></trkpt>
<trkpt lat="52.032713" lon="05.797032"><ele>17.6</ele><time>2022-03-04T14:03:04Z</time><name>PT719</name></trkpt>
<trkpt lat="52.032715" lon="05.797052"><ele>17.5</ele><time>2022-03-04T14:03:05Z</time><name>PT720</name></trkpt>
<trkpt lat="52.032720" lon="05.797070"><ele>17.5</ele><time>2022-03-04T14:03:07Z</time><name>PT721</name></trkpt>
<trkpt lat="52.032721" lon="05.797088"><ele>17.5</ele><time>2022-03-04T14:03:07Z</time><name>PT722</name></trkpt>
<trkpt lat="52.032724" lon="05.797111"><ele>17.3</ele><time>2022-03-04T14:03:08Z</time><name>PT723</name></trkpt>
<trkpt lat="52.032722" lon="05.797138"><ele>17.3</ele><time>2022-03-04T14:03:10Z</time><name>PT724</name></trkpt>
<trkpt lat="52.032719" lon="05.797162"><ele>17.2</ele><time>2022-03-04T14:03:10Z</time><name>PT725</name></trkpt>
<trkpt lat="52.032721" lon="05.797184"><ele>17.2</ele><time>2022-03-04T14:03:11Z</time><name>PT726</name></trkpt>
<trkpt lat="52.032724" lon="05.797203"><ele>17.1</ele><time>2022-03-04T14:03:13Z</time><name>PT727</name></trkpt>
<trkpt lat="52.032725" lon="05.797219"><ele>17.2</ele><time>2022-03-04T14:03:13Z</time><name>PT728</name></trkpt>
<trkpt lat="52.032727" lon="05.797234"><ele>17.3</ele><time>2022-03-04T14:03:14Z</time><name>PT729</name></trkpt>
<trkpt lat="52.032730" lon="05.797256"><ele>17.4</ele><time>2022-03-04T14:03:16Z</time><name>PT730</name></trkpt>
<trkpt lat="52.032730" lon="05.797275"><ele>17.5</ele><time>2022-03-04T14:03:16Z</time><name>PT731</name></trkpt>
<trkpt lat="52.032732" lon="05.797296"><ele>17.4</ele><time>2022-03-04T14:03:17Z</time><name>PT732</name></trkpt>
<trkpt lat="52.032735" lon="05.797317"><ele>17.3</ele><time>2022-03-04T14:03:19Z</time><name>PT733</name></trkpt>
<trkpt lat="52.032739" lon="05.797338"><ele>17.1</ele><time>2022-03-04T14:03:19Z</time><name>PT734</name></trkpt>
<trkpt lat="52.032738" lon="05.797360"><ele>17</ele><time>2022-03-04T14:03:20Z</time><name>PT735</name></trkpt>
<trkpt lat="52.032737" lon="05.797386"><ele>17</ele><time>2022-03-04T14:03:22Z</time><name>PT736</name></trkpt>
<trkpt lat="52.032737" lon="05.797416"><ele>17.3</ele><time>2022-03-04T14:03:22Z</time><name>PT737</name></trkpt>
<trkpt lat="52.032739" lon="05.797438"><ele>17.2</ele><time>2022-03-04T14:03:23Z</time><name>PT738</name></trkpt>
<trkpt lat="52.032741" lon="05.797456"><ele>17.3</ele><time>2022-03-04T14:03:25Z</time><name>PT739</name></trkpt>
<trkpt lat="52.032739" lon="05.797474"><ele>17.2</ele><time>2022-03-04T14:03:25Z</time><name>PT740</name></trkpt>
<trkpt lat="52.032741" lon="05.797490"><ele>17</ele><time>2022-03-04T14:03:26Z</time><name>PT741</name></trkpt>
<trkpt lat="52.032742" lon="05.797505"><ele>16.9</ele><time>2022-03-04T14:03:28Z</time><name>PT742</name></trkpt>
<trkpt lat="52.032744" lon="05.797523"><ele>17</ele><time>2022-03-04T14:03:28Z</time><name>PT743</name></trkpt>
<trkpt lat="52.032744" lon="05.797542"><ele>17</ele><time>2022-03-04T14:03:29Z</time><name>PT744</name></trkpt>
<trkpt lat="52.032742" lon="05.797566"><ele>17.1</ele><time>2022-03-04T14:03:31Z</time><name>PT745</name></trkpt>
<trkpt lat="52.032741" lon="05.797592"><ele>17.1</ele><time>2022-03-04T14:03:31Z</time><name>PT746</name></trkpt>
<trkpt lat="52.032741" lon="05.797618"><ele>17</ele><time>2022-03-04T14:03:32Z</time><name>PT747</name></trkpt>
<trkpt lat="52.032741" lon="05.797642"><ele>17</ele><time>2022-03-04T14:03:34Z</time><name>PT748</name></trkpt>
<trkpt lat="52.032742" lon="05.797661"><ele>17</ele><time>2022-03-04T14:03:34Z</time><name>PT749</name></trkpt>
<trkpt lat="52.032742" lon="05.797681"><ele>17</ele><time>2022-03-04T14:03:35Z</time><name>PT750</name></trkpt>
<trkpt lat="52.032744" lon="05.797699"><ele>17</ele><time>2022-03-04T14:03:37Z</time><name>PT751</name></trkpt>
<trkpt lat="52.032751" lon="05.797714"><ele>17</ele><time>2022-03-04T14:03:37Z</time><name>PT752</name></trkpt>
<trkpt lat="52.032755" lon="05.797730"><ele>17</ele><time>2022-03-04T14:03:38Z</time><name>PT753</name></trkpt>
<trkpt lat="52.032758" lon="05.797748"><ele>17</ele><time>2022-03-04T14:03:40Z</time><name>PT754</name></trkpt>
<trkpt lat="52.032759" lon="05.797766"><ele>17</ele><time>2022-03-04T14:03:40Z</time><name>PT755</name></trkpt>
<trkpt lat="52.032767" lon="05.797778"><ele>17.1</ele><time>2022-03-04T14:03:41Z</time><name>PT756</name></trkpt>
<trkpt lat="52.032773" lon="05.797787"><ele>17.1</ele><time>2022-03-04T14:03:43Z</time><name>PT757</name></trkpt>
<trkpt lat="52.032780" lon="05.797796"><ele>17.3</ele><time>2022-03-04T14:03:43Z</time><name>PT758</name></trkpt>
<trkpt lat="52.032785" lon="05.797809"><ele>17.2</ele><time>2022-03-04T14:03:44Z</time><name>PT759</name></trkpt>
<trkpt lat="52.032788" lon="05.797822"><ele>17.4</ele><time>2022-03-04T14:03:46Z</time><name>PT760</name></trkpt>
<trkpt lat="52.032792" lon="05.797832"><ele>17.3</ele><time>2022-03-04T14:03:46Z</time><name>PT761</name></trkpt>
<trkpt lat="52.032790" lon="05.797840"><ele>17.1</ele><time>2022-03-04T14:03:47Z</time><name>PT762</name></trkpt>
<trkpt lat="52.032794" lon="05.797861"><ele>17.3</ele><time>2022-03-04T14:03:49Z</time><name>PT763</name></trkpt>
<trkpt lat="52.032798" lon="05.797885"><ele>17.3</ele><time>2022-03-04T14:03:49Z</time><name>PT764</name></trkpt>
<trkpt lat="52.032798" lon="05.797907"><ele>17.2</ele><time>2022-03-04T14:03:50Z</time><name>PT765</name></trkpt>
<trkpt lat="52.032802" lon="05.797924"><ele>17.4</ele><time>2022-03-04T14:03:52Z</time><name>PT766</name></trkpt>
<trkpt lat="52.032804" lon="05.797939"><ele>17.5</ele><time>2022-03-04T14:03:52Z</time><name>PT767</name></trkpt>
<trkpt lat="52.032802" lon="05.797958"><ele>17.5</ele><time>2022-03-04T14:03:53Z</time><name>PT768</name></trkpt>
<trkpt lat="52.032806" lon="05.797976"><ele>17.5</ele><time>2022-03-04T14:03:55Z</time><name>PT769</name></trkpt>
<trkpt lat="52.032808" lon="05.797993"><ele>17.6</ele><time>2022-03-04T14:03:55Z</time><name>PT770</name></trkpt>
<trkpt lat="52.032807" lon="05.798010"><ele>17.5</ele><time>2022-03-04T14:03:56Z</time><name>PT771</name></trkpt>
<trkpt lat="52.032807" lon="05.798030"><ele>17.5</ele><time>2022-03-04T14:03:58Z</time><name>PT772</name></trkpt>
<trkpt lat="52.032804" lon="05.798054"><ele>17.6</ele><time>2022-03-04T14:03:58Z</time><name>PT773</name></trkpt>
<trkpt lat="52.032801" lon="05.798072"><ele>17.7</ele><time>2022-03-04T14:03:59Z</time><name>PT774</name></trkpt>
<trkpt lat="52.032802" lon="05.798087"><ele>17.8</ele><time>2022-03-04T14:04:01Z</time><name>PT775</name></trkpt>
<trkpt lat="52.032804" lon="05.798104"><ele>17.7</ele><time>2022-03-04T14:04:01Z</time><name>PT776</name></trkpt>
<trkpt lat="52.032807" lon="05.798121"><ele>17.7</ele><time>2022-03-04T14:04:02Z</time><name>PT777</name></trkpt>
<trkpt lat="52.032808" lon="05.798133"><ele>17.5</ele><time>2022-03-04T14:04:04Z</time><name>PT778</name></trkpt>
<trkpt lat="52.032808" lon="05.798151"><ele>17.5</ele><time>2022-03-04T14:04:04Z</time><name>PT779</name></trkpt>
<trkpt lat="52.032810" lon="05.798172"><ele>17.5</ele><time>2022-03-04T14:04:05Z</time><name>PT780</name></trkpt>
<trkpt lat="52.032810" lon="05.798197"><ele>17.5</ele><time>2022-03-04T14:04:07Z</time><name>PT781</name></trkpt>
<trkpt lat="52.032809" lon="05.798217"><ele>17.5</ele><time>2022-03-04T14:04:07Z</time><name>PT782</name></trkpt>
<trkpt lat="52.032810" lon="05.798233"><ele>17.4</ele><time>2022-03-04T14:04:08Z</time><name>PT783</name></trkpt>
<trkpt lat="52.032811" lon="05.798248"><ele>17.5</ele><time>2022-03-04T14:04:10Z</time><name>PT784</name></trkpt>
<trkpt lat="52.032813" lon="05.798262"><ele>17.6</ele><time>2022-03-04T14:04:10Z</time><name>PT785</name></trkpt>
<trkpt lat="52.032814" lon="05.798278"><ele>17.6</ele><time>2022-03-04T14:04:11Z</time><name>PT786</name></trkpt>
<trkpt lat="52.032816" lon="05.798297"><ele>17.5</ele><time>2022-03-04T14:04:13Z</time><name>PT787</name></trkpt>
<trkpt lat="52.032819" lon="05.798323"><ele>17.6</ele><time>2022-03-04T14:04:13Z</time><name>PT788</name></trkpt>
<trkpt lat="52.032821" lon="05.798349"><ele>17.5</ele><time>2022-03-04T14:04:14Z</time><name>PT789</name></trkpt>
<trkpt lat="52.032820" lon="05.798374"><ele>17.6</ele><time>2022-03-04T14:04:16Z</time><name>PT790</name></trkpt>
<trkpt lat="52.032822" lon="05.798399"><ele>17.6</ele><time>2022-03-04T14:04:16Z</time><name>PT791</name></trkpt>
<trkpt lat="52.032825" lon="05.798417"><ele>17.5</ele><time>2022-03-04T14:04:17Z</time><name>PT792</name></trkpt>
<trkpt lat="52.032829" lon="05.798429"><ele>17.4</ele><time>2022-03-04T14:04:19Z</time><name>PT793</name></trkpt>
<trkpt lat="52.032832" lon="05.798443"><ele>17.5</ele><time>2022-03-04T14:04:19Z</time><name>PT794</name></trkpt>
<trkpt lat="52.032837" lon="05.798458"><ele>17.5</ele><time>2022-03-04T14:04:20Z</time><name>PT795</name></trkpt>
<trkpt lat="52.032840" lon="05.798470"><ele>17.5</ele><time>2022-03-04T14:04:22Z</time><name>PT796</name></trkpt>
<trkpt lat="52.032844" lon="05.798486"><ele>17.6</ele><time>2022-03-04T14:04:22Z</time><name>PT797</name></trkpt>
<trkpt lat="52.032846" lon="05.798509"><ele>17.6</ele><time>2022-03-04T14:04:23Z</time><name>PT798</name></trkpt>
<trkpt lat="52.032847" lon="05.798533"><ele>17.4</ele><time>2022-03-04T14:04:25Z</time><name>PT799</name></trkpt>
<trkpt lat="52.032850" lon="05.798559"><ele>17.5</ele><time>2022-03-04T14:04:25Z</time><name>PT800</name></trkpt>
<trkpt lat="52.032850" lon="05.798579"><ele>17.5</ele><time>2022-03-04T14:04:26Z</time><name>PT801</name></trkpt>
<trkpt lat="52.032853" lon="05.798595"><ele>17.5</ele><time>2022-03-04T14:04:28Z</time><name>PT802</name></trkpt>
<trkpt lat="52.032861" lon="05.798609"><ele>17.6</ele><time>2022-03-04T14:04:28Z</time><name>PT803</name></trkpt>
<trkpt lat="52.032865" lon="05.798623"><ele>17.7</ele><time>2022-03-04T14:04:29Z</time><name>PT804</name></trkpt>
<trkpt lat="52.032867" lon="05.798635"><ele>17.6</ele><time>2022-03-04T14:04:31Z</time><name>PT805</name></trkpt>
<trkpt lat="52.032870" lon="05.798650"><ele>17.6</ele><time>2022-03-04T14:04:31Z</time><name>PT806</name></trkpt>
<trkpt lat="52.032869" lon="05.798671"><ele>17.6</ele><time>2022-03-04T14:04:32Z</time><name>PT807</name></trkpt>
<trkpt lat="52.032869" lon="05.798688"><ele>17.6</ele><time>2022-03-04T14:04:34Z</time><name>PT808</name></trkpt>
<trkpt lat="52.032869" lon="05.798711"><ele>17.8</ele><time>2022-03-04T14:04:34Z</time><name>PT809</name></trkpt>
<trkpt lat="52.032867" lon="05.798727"><ele>17.7</ele><time>2022-03-04T14:04:35Z</time><name>PT810</name></trkpt>
<trkpt lat="52.032864" lon="05.798738"><ele>17.6</ele><time>2022-03-04T14:04:37Z</time><name>PT811</name></trkpt>
<trkpt lat="52.032863" lon="05.798756"><ele>17.7</ele><time>2022-03-04T14:04:37Z</time><name>PT812</name></trkpt>
<trkpt lat="52.032865" lon="05.798775"><ele>17.7</ele><time>2022-03-04T14:04:38Z</time><name>PT813</name></trkpt>
<trkpt lat="52.032862" lon="05.798797"><ele>17.6</ele><time>2022-03-04T14:04:40Z</time><name>PT814</name></trkpt>
<trkpt lat="52.032858" lon="05.798820"><ele>17.7</ele><time>2022-03-04T14:04:40Z</time><name>PT815</name></trkpt>
<trkpt lat="52.032851" lon="05.798840"><ele>17.9</ele><time>2022-03-04T14:04:41Z</time><name>PT816</name></trkpt>
<trkpt lat="52.032850" lon="05.798859"><ele>18</ele><time>2022-03-04T14:04:43Z</time><name>PT817</name></trkpt>
<trkpt lat="52.032850" lon="05.798875"><ele>17.9</ele><time>2022-03-04T14:04:43Z</time><name>PT818</name></trkpt>
<trkpt lat="52.032849" lon="05.798890"><ele>17.9</ele><time>2022-03-04T14:04:44Z</time><name>PT819</name></trkpt>
<trkpt lat="52.032849" lon="05.798904"><ele>17.9</ele><time>2022-03-04T14:04:46Z</time><name>PT820</name></trkpt>
<trkpt lat="52.032849" lon="05.798919"><ele>17.9</ele><time>2022-03-04T14:04:46Z</time><name>PT821</name></trkpt>
<trkpt lat="52.032853" lon="05.798936"><ele>17.9</ele><time>2022-03-04T14:04:47Z</time><name>PT822</name></trkpt>
<trkpt lat="52.032858" lon="05.798955"><ele>17.9</ele><time>2022-03-04T14:04:49Z</time><name>PT823</name></trkpt>
<trkpt lat="52.032860" lon="05.798979"><ele>17.9</ele><time>2022-03-04T14:04:49Z</time><name>PT824</name></trkpt>
<trkpt lat="52.032862" lon="05.799005"><ele>18</ele><time>2022-03-04T14:04:50Z</time><name>PT825</name></trkpt>
<trkpt lat="52.032858" lon="05.799025"><ele>18</ele><time>2022-03-04T14:04:52Z</time><name>PT826</name></trkpt>
<trkpt lat="52.032863" lon="05.799050"><ele>18</ele><time>2022-03-04T14:04:52Z</time><name>PT827</name></trkpt>
<trkpt lat="52.032867" lon="05.799075"><ele>18.1</ele><time>2022-03-04T14:04:53Z</time><name>PT828</name></trkpt>
<trkpt lat="52.032869" lon="05.799098"><ele>18.1</ele><time>2022-03-04T14:04:55Z</time><name>PT829</name></trkpt>
<trkpt lat="52.032871" lon="05.799117"><ele>18.1</ele><time>2022-03-04T14:04:55Z</time><name>PT830</name></trkpt>
<trkpt lat="52.032877" lon="05.799132"><ele>18</ele><time>2022-03-04T14:04:56Z</time><name>PT831</name></trkpt>
<trkpt lat="52.032878" lon="05.799146"><ele>18</ele><time>2022-03-04T14:04:58Z</time><name>PT832</name></trkpt>
<trkpt lat="52.032880" lon="05.799162"><ele>18</ele><time>2022-03-04T14:04:58Z</time><name>PT833</name></trkpt>
<trkpt lat="52.032882" lon="05.799174"><ele>17.9</ele><time>2022-03-04T14:04:59Z</time><name>PT834</name></trkpt>
<trkpt lat="52.032888" lon="05.799191"><ele>17.8</ele><time>2022-03-04T14:05:01Z</time><name>PT835</name></trkpt>
<trkpt lat="52.032891" lon="05.799216"><ele>17.9</ele><time>2022-03-04T14:05:01Z</time><name>PT836</name></trkpt>
<trkpt lat="52.032894" lon="05.799243"><ele>17.9</ele><time>2022-03-04T14:05:02Z</time><name>PT837</name></trkpt>
<trkpt lat="52.032896" lon="05.799266"><ele>17.9</ele><time>2022-03-04T14:05:04Z</time><name>PT838</name></trkpt>
<trkpt lat="52.032898" lon="05.799284"><ele>18</ele><time>2022-03-04T14:05:04Z</time><name>PT839</name></trkpt>
<trkpt lat="52.032902" lon="05.799299"><ele>18</ele><time>2022-03-04T14:05:05Z</time><name>PT840</name></trkpt>
<trkpt lat="52.032904" lon="05.799314"><ele>18</ele><time>2022-03-04T14:05:07Z</time><name>PT841</name></trkpt>
<trkpt lat="52.032906" lon="05.799330"><ele>18.1</ele><time>2022-03-04T14:05:07Z</time><name>PT842</name></trkpt>
<trkpt lat="52.032906" lon="05.799351"><ele>18</ele><time>2022-03-04T14:05:08Z</time><name>PT843</name></trkpt>
<trkpt lat="52.032906" lon="05.799375"><ele>17.9</ele><time>2022-03-04T14:05:10Z</time><name>PT844</name></trkpt>
<trkpt lat="52.032911" lon="05.799398"><ele>18</ele><time>2022-03-04T14:05:10Z</time><name>PT845</name></trkpt>
<trkpt lat="52.032912" lon="05.799420"><ele>18</ele><time>2022-03-04T14:05:11Z</time><name>PT846</name></trkpt>
<trkpt lat="52.032915" lon="05.799439"><ele>18</ele><time>2022-03-04T14:05:13Z</time><name>PT847</name></trkpt>
<trkpt lat="52.032918" lon="05.799455"><ele>18</ele><time>2022-03-04T14:05:13Z</time><name>PT848</name></trkpt>
<trkpt lat="52.032918" lon="05.799470"><ele>18.1</ele><time>2022-03-04T14:05:14Z</time><name>PT849</name></trkpt>
<trkpt lat="52.032917" lon="05.799484"><ele>18</ele><time>2022-03-04T14:05:16Z</time><name>PT850</name></trkpt>
<trkpt lat="52.032921" lon="05.799498"><ele>18</ele><time>2022-03-04T14:05:16Z</time><name>PT851</name></trkpt>
<trkpt lat="52.032925" lon="05.799513"><ele>17.9</ele><time>2022-03-04T14:05:17Z</time><name>PT852</name></trkpt>
<trkpt lat="52.032927" lon="05.799530"><ele>17.8</ele><time>2022-03-04T14:05:19Z</time><name>PT853</name></trkpt>
<trkpt lat="52.032923" lon="05.799552"><ele>17.7</ele><time>2022-03-04T14:05:19Z</time><name>PT854</name></trkpt>
<trkpt lat="52.032923" lon="05.799574"><ele>17.8</ele><time>2022-03-04T14:05:20Z</time><name>PT855</name></trkpt>
<trkpt lat="52.032922" lon="05.799601"><ele>17.8</ele><time>2022-03-04T14:05:22Z</time><name>PT856</name></trkpt>
<trkpt lat="52.032919" lon="05.799620"><ele>17.9</ele><time>2022-03-04T14:05:22Z</time><name>PT857</name></trkpt>
<trkpt lat="52.032919" lon="05.799639"><ele>18</ele><time>2022-03-04T14:05:23Z</time><name>PT858</name></trkpt>
<trkpt lat="52.032921" lon="05.799657"><ele>17.7</ele><time>2022-03-04T14:05:25Z</time><name>PT859</name></trkpt>
<trkpt lat="52.032916" lon="05.799670"><ele>17.8</ele><time>2022-03-04T14:05:25Z</time><name>PT860</name></trkpt>
<trkpt lat="52.032916" lon="05.799681"><ele>17.9</ele><time>2022-03-04T14:05:26Z</time><name>PT861</name></trkpt>
<trkpt lat="52.032918" lon="05.799692"><ele>17.8</ele><time>2022-03-04T14:05:28Z</time><name>PT862</name></trkpt>
<trkpt lat="52.032916" lon="05.799702"><ele>17.9</ele><time>2022-03-04T14:05:28Z</time><name>PT863</name></trkpt>
<trkpt lat="52.032920" lon="05.799714"><ele>18.1</ele><time>2022-03-04T14:05:29Z</time><name>PT864</name></trkpt>
<trkpt lat="52.032921" lon="05.799728"><ele>18.2</ele><time>2022-03-04T14:05:31Z</time><name>PT865</name></trkpt>
<trkpt lat="52.032923" lon="05.799744"><ele>18.3</ele><time>2022-03-04T14:05:31Z</time><name>PT866</name></trkpt>
<trkpt lat="52.032928" lon="05.799759"><ele>18.3</ele><time>2022-03-04T14:05:32Z</time><name>PT867</name></trkpt>
<trkpt lat="52.032932" lon="05.799778"><ele>18.3</ele><time>2022-03-04T14:05:34Z</time><name>PT868</name></trkpt>
<trkpt lat="52.032932" lon="05.799805"><ele>18.3</ele><time>2022-03-04T14:05:34Z</time><name>PT869</name></trkpt>
<trkpt lat="52.032932" lon="05.799832"><ele>18.3</ele><time>2022-03-04T14:05:35Z</time><name>PT870</name></trkpt>
<trkpt lat="52.032931" lon="05.799865"><ele>18.2</ele><time>2022-03-04T14:05:37Z</time><name>PT871</name></trkpt>
<trkpt lat="52.032929" lon="05.799899"><ele>18.1</ele><time>2022-03-04T14:05:37Z</time><name>PT872</name></trkpt>
<trkpt lat="52.032927" lon="05.799929"><ele>18.2</ele><time>2022-03-04T14:05:38Z</time><name>PT873</name></trkpt>
<trkpt lat="52.032928" lon="05.799959"><ele>18.3</ele><time>2022-03-04T14:05:40Z</time><name>PT874</name></trkpt>
<trkpt lat="52.032932" lon="05.799985"><ele>18.2</ele><time>2022-03-04T14:05:40Z</time><name>PT875</name></trkpt>
<trkpt lat="52.032934" lon="05.800011"><ele>18.4</ele><time>2022-03-04T14:05:41Z</time><name>PT876</name></trkpt>
<trkpt lat="52.032932" lon="05.800031"><ele>18.4</ele><time>2022-03-04T14:05:43Z</time><name>PT877</name></trkpt>
<trkpt lat="52.032938" lon="05.800048"><ele>18.4</ele><time>2022-03-04T14:05:43Z</time><name>PT878</name></trkpt>
<trkpt lat="52.032942" lon="05.800063"><ele>18.5</ele><time>2022-03-04T14:05:44Z</time><name>PT879</name></trkpt>
<trkpt lat="52.032944" lon="05.800079"><ele>18.4</ele><time>2022-03-04T14:05:46Z</time><name>PT880</name></trkpt>
<trkpt lat="52.032946" lon="05.800095"><ele>18.4</ele><time>2022-03-04T14:05:46Z</time><name>PT881</name></trkpt>
<trkpt lat="52.032947" lon="05.800110"><ele>18.5</ele><time>2022-03-04T14:05:47Z</time><name>PT882</name></trkpt>
<trkpt lat="52.032952" lon="05.800122"><ele>18.4</ele><time>2022-03-04T14:05:49Z</time><name>PT883</name></trkpt>
<trkpt lat="52.032954" lon="05.800130"><ele>18.3</ele><time>2022-03-04T14:05:49Z</time><name>PT884</name></trkpt>
<trkpt lat="52.032951" lon="05.800143"><ele>18.4</ele><time>2022-03-04T14:05:50Z</time><name>PT885</name></trkpt>
<trkpt lat="52.032950" lon="05.800161"><ele>18.5</ele><time>2022-03-04T14:05:52Z</time><name>PT886</name></trkpt>
<trkpt lat="52.032951" lon="05.800177"><ele>18.4</ele><time>2022-03-04T14:05:52Z</time><name>PT887</name></trkpt>
<trkpt lat="52.032957" lon="05.800196"><ele>18.5</ele><time>2022-03-04T14:05:53Z</time><name>PT888</name></trkpt>
<trkpt lat="52.032964" lon="05.800214"><ele>18.4</ele><time>2022-03-04T14:05:55Z</time><name>PT889</name></trkpt>
<trkpt lat="52.032966" lon="05.800237"><ele>18.3</ele><time>2022-03-04T14:05:55Z</time><name>PT890</name></trkpt>
<trkpt lat="52.032967" lon="05.800262"><ele>18.4</ele><time>2022-03-04T14:05:56Z</time><name>PT891</name></trkpt>
<trkpt lat="52.032970" lon="05.800280"><ele>18.4</ele><time>2022-03-04T14:05:58Z</time><name>PT892</name></trkpt>
<trkpt lat="52.032972" lon="05.800298"><ele>18.4</ele><time>2022-03-04T14:05:58Z</time><name>PT893</name></trkpt>
<trkpt lat="52.032976" lon="05.800314"><ele>18.3</ele><time>2022-03-04T14:06:00Z</time><name>PT894</name></trkpt>
<trkpt lat="52.032981" lon="05.800329"><ele>18.3</ele><time>2022-03-04T14:06:01Z</time><name>PT895</name></trkpt>
<trkpt lat="52.032985" lon="05.800343"><ele>18.2</ele><time>2022-03-04T14:06:01Z</time><name>PT896</name></trkpt>
<trkpt lat="52.032987" lon="05.800358"><ele>18.1</ele><time>2022-03-04T14:06:02Z</time><name>PT897</name></trkpt>
<trkpt lat="52.032988" lon="05.800370"><ele>18</ele><time>2022-03-04T14:06:04Z</time><name>PT898</name></trkpt>
<trkpt lat="52.032993" lon="05.800388"><ele>18</ele><time>2022-03-04T14:06:04Z</time><name>PT899</name></trkpt>
<trkpt lat="52.032994" lon="05.800410"><ele>18.2</ele><time>2022-03-04T14:06:06Z</time><name>PT900</name></trkpt>
<trkpt lat="52.032995" lon="05.800435"><ele>18.2</ele><time>2022-03-04T14:06:07Z</time><name>PT901</name></trkpt>
<trkpt lat="52.032999" lon="05.800460"><ele>18.2</ele><time>2022-03-04T14:06:07Z</time><name>PT902</name></trkpt>
<trkpt lat="52.033009" lon="05.800479"><ele>18.2</ele><time>2022-03-04T14:06:09Z</time><name>PT903</name></trkpt>
<trkpt lat="52.033011" lon="05.800498"><ele>18.1</ele><time>2022-03-04T14:06:10Z</time><name>PT904</name></trkpt>
<trkpt lat="52.033011" lon="05.800515"><ele>18</ele><time>2022-03-04T14:06:10Z</time><name>PT905</name></trkpt>
<trkpt lat="52.033010" lon="05.800526"><ele>17.8</ele><time>2022-03-04T14:06:11Z</time><name>PT906</name></trkpt>
<trkpt lat="52.033014" lon="05.800539"><ele>17.7</ele><time>2022-03-04T14:06:13Z</time><name>PT907</name></trkpt>
<trkpt lat="52.033020" lon="05.800549"><ele>17.8</ele><time>2022-03-04T14:06:13Z</time><name>PT908</name></trkpt>
<trkpt lat="52.033025" lon="05.800558"><ele>17.8</ele><time>2022-03-04T14:06:15Z</time><name>PT909</name></trkpt>
<trkpt lat="52.033027" lon="05.800574"><ele>17.8</ele><time>2022-03-04T14:06:16Z</time><name>PT910</name></trkpt>
<trkpt lat="52.033024" lon="05.800596"><ele>17.9</ele><time>2022-03-04T14:06:16Z</time><name>PT911</name></trkpt>
<trkpt lat="52.033016" lon="05.800618"><ele>18</ele><time>2022-03-04T14:06:17Z</time><name>PT912</name></trkpt>
<trkpt lat="52.033015" lon="05.800641"><ele>18</ele><time>2022-03-04T14:06:19Z</time><name>PT913</name></trkpt>
<trkpt lat="52.033013" lon="05.800673"><ele>18</ele><time>2022-03-04T14:06:19Z</time><name>PT914</name></trkpt>
<trkpt lat="52.033010" lon="05.800703"><ele>18</ele><time>2022-03-04T14:06:20Z</time><name>PT915</name></trkpt>
<trkpt lat="52.033010" lon="05.800732"><ele>18.1</ele><time>2022-03-04T14:06:22Z</time><name>PT916</name></trkpt>
<trkpt lat="52.033012" lon="05.800758"><ele>18.2</ele><time>2022-03-04T14:06:22Z</time><name>PT917</name></trkpt>
<trkpt lat="52.033013" lon="05.800779"><ele>18.3</ele><time>2022-03-04T14:06:23Z</time><name>PT918</name></trkpt>
<trkpt lat="52.033013" lon="05.800801"><ele>18.2</ele><time>2022-03-04T14:06:25Z</time><name>PT919</name></trkpt>
<trkpt lat="52.033007" lon="05.800823"><ele>18.2</ele><time>2022-03-04T14:06:25Z</time><name>PT920</name></trkpt>
<trkpt lat="52.033012" lon="05.800844"><ele>18.1</ele><time>2022-03-04T14:06:26Z</time><name>PT921</name></trkpt>
<trkpt lat="52.033016" lon="05.800864"><ele>18.3</ele><time>2022-03-04T14:06:28Z</time><name>PT922</name></trkpt>
<trkpt lat="52.033018" lon="05.800873"><ele>18.3</ele><time>2022-03-04T14:06:28Z</time><name>PT923</name></trkpt>
<trkpt lat="52.033017" lon="05.800889"><ele>18.4</ele><time>2022-03-04T14:06:29Z</time><name>PT924</name></trkpt>
<trkpt lat="52.033020" lon="05.800900"><ele>18.4</ele><time>2022-03-04T14:06:31Z</time><name>PT925</name></trkpt>
<trkpt lat="52.033023" lon="05.800911"><ele>18.4</ele><time>2022-03-04T14:06:31Z</time><name>PT926</name></trkpt>
<trkpt lat="52.033021" lon="05.800926"><ele>18.4</ele><time>2022-03-04T14:06:32Z</time><name>PT927</name></trkpt>
<trkpt lat="52.033022" lon="05.800948"><ele>18.4</ele><time>2022-03-04T14:06:34Z</time><name>PT928</name></trkpt>
<trkpt lat="52.033023" lon="05.800971"><ele>18.4</ele><time>2022-03-04T14:06:34Z</time><name>PT929</name></trkpt>
<trkpt lat="52.033025" lon="05.800995"><ele>18.4</ele><time>2022-03-04T14:06:35Z</time><name>PT930</name></trkpt>
<trkpt lat="52.033025" lon="05.801020"><ele>18.4</ele><time>2022-03-04T14:06:37Z</time><name>PT931</name></trkpt>
<trkpt lat="52.033028" lon="05.801040"><ele>18.3</ele><time>2022-03-04T14:06:37Z</time><name>PT932</name></trkpt>
<trkpt lat="52.033032" lon="05.801057"><ele>18</ele><time>2022-03-04T14:06:38Z</time><name>PT933</name></trkpt>
<trkpt lat="52.033034" lon="05.801071"><ele>18</ele><time>2022-03-04T14:06:40Z</time><name>PT934</name></trkpt>
<trkpt lat="52.033037" lon="05.801084"><ele>17.9</ele><time>2022-03-04T14:06:40Z</time><name>PT935</name></trkpt>
<trkpt lat="52.033040" lon="05.801099"><ele>18</ele><time>2022-03-04T14:06:41Z</time><name>PT936</name></trkpt>
<trkpt lat="52.033049" lon="05.801118"><ele>18.1</ele><time>2022-03-04T14:06:43Z</time><name>PT937</name></trkpt>
<trkpt lat="52.033054" lon="05.801141"><ele>18.2</ele><time>2022-03-04T14:06:43Z</time><name>PT938</name></trkpt>
<trkpt lat="52.033054" lon="05.801155"><ele>18.2</ele><time>2022-03-04T14:06:44Z</time><name>PT939</name></trkpt>
<trkpt lat="52.033055" lon="05.801171"><ele>18.4</ele><time>2022-03-04T14:06:46Z</time><name>PT940</name></trkpt>
<trkpt lat="52.033058" lon="05.801185"><ele>18.4</ele><time>2022-03-04T14:06:46Z</time><name>PT941</name></trkpt>
<trkpt lat="52.033063" lon="05.801201"><ele>18.4</ele><time>2022-03-04T14:06:47Z</time><name>PT942</name></trkpt>
<trkpt lat="52.033064" lon="05.801220"><ele>18.4</ele><time>2022-03-04T14:06:49Z</time><name>PT943</name></trkpt>
<trkpt lat="52.033066" lon="05.801241"><ele>18.4</ele><time>2022-03-04T14:06:49Z</time><name>PT944</name></trkpt>
<trkpt lat="52.033070" lon="05.801263"><ele>18.4</ele><time>2022-03-04T14:06:50Z</time><name>PT945</name></trkpt>
<trkpt lat="52.033081" lon="05.801305"><ele>18.4</ele><time>2022-03-04T14:06:52Z</time><name>PT946</name></trkpt>
<trkpt lat="52.033085" lon="05.801328"><ele>18.2</ele><time>2022-03-04T14:06:53Z</time><name>PT947</name></trkpt>
<trkpt lat="52.033084" lon="05.801350"><ele>18.2</ele><time>2022-03-04T14:06:55Z</time><name>PT948</name></trkpt>
<trkpt lat="52.033084" lon="05.801366"><ele>18.2</ele><time>2022-03-04T14:06:55Z</time><name>PT949</name></trkpt>
<trkpt lat="52.033085" lon="05.801379"><ele>18.3</ele><time>2022-03-04T14:06:56Z</time><name>PT950</name></trkpt>
<trkpt lat="52.033093" lon="05.801394"><ele>18.3</ele><time>2022-03-04T14:06:58Z</time><name>PT951</name></trkpt>
<trkpt lat="52.033097" lon="05.801407"><ele>18.5</ele><time>2022-03-04T14:06:58Z</time><name>PT952</name></trkpt>
<trkpt lat="52.033100" lon="05.801414"><ele>18.7</ele><time>2022-03-04T14:06:59Z</time><name>PT953</name></trkpt>
<trkpt lat="52.033100" lon="05.801426"><ele>18.5</ele><time>2022-03-04T14:07:01Z</time><name>PT954</name></trkpt>
<trkpt lat="52.033100" lon="05.801437"><ele>18.4</ele><time>2022-03-04T14:07:01Z</time><name>PT955</name></trkpt>
<trkpt lat="52.033104" lon="05.801455"><ele>18.5</ele><time>2022-03-04T14:07:02Z</time><name>PT956</name></trkpt>
<trkpt lat="52.033107" lon="05.801481"><ele>18.7</ele><time>2022-03-04T14:07:04Z</time><name>PT957</name></trkpt>
<trkpt lat="52.033099" lon="05.801502"><ele>18.8</ele><time>2022-03-04T14:07:04Z</time><name>PT958</name></trkpt>
<trkpt lat="52.033100" lon="05.801523"><ele>18.9</ele><time>2022-03-04T14:07:05Z</time><name>PT959</name></trkpt>
<trkpt lat="52.033101" lon="05.801546"><ele>19.1</ele><time>2022-03-04T14:07:07Z</time><name>PT960</name></trkpt>
<trkpt lat="52.033101" lon="05.801566"><ele>19.1</ele><time>2022-03-04T14:07:07Z</time><name>PT961</name></trkpt>
<trkpt lat="52.033098" lon="05.801585"><ele>19</ele><time>2022-03-04T14:07:08Z</time><name>PT962</name></trkpt>
<trkpt lat="52.033096" lon="05.801602"><ele>18.9</ele><time>2022-03-04T14:07:10Z</time><name>PT963</name></trkpt>
<trkpt lat="52.033095" lon="05.801615"><ele>18.9</ele><time>2022-03-04T14:07:10Z</time><name>PT964</name></trkpt>
<trkpt lat="52.033097" lon="05.801627"><ele>18.9</ele><time>2022-03-04T14:07:11Z</time><name>PT965</name></trkpt>
<trkpt lat="52.033099" lon="05.801637"><ele>18.9</ele><time>2022-03-04T14:07:13Z</time><name>PT966</name></trkpt>
<trkpt lat="52.033102" lon="05.801650"><ele>18.8</ele><time>2022-03-04T14:07:13Z</time><name>PT967</name></trkpt>
<trkpt lat="52.033106" lon="05.801656"><ele>18.9</ele><time>2022-03-04T14:07:14Z</time><name>PT968</name></trkpt>
<trkpt lat="52.033106" lon="05.801663"><ele>18.9</ele><time>2022-03-04T14:07:16Z</time><name>PT969</name></trkpt>
<trkpt lat="52.033114" lon="05.801688"><ele>18.8</ele><time>2022-03-04T14:07:16Z</time><name>PT970</name></trkpt>
<trkpt lat="52.033112" lon="05.801713"><ele>18.8</ele><time>2022-03-04T14:07:17Z</time><name>PT971</name></trkpt>
<trkpt lat="52.033113" lon="05.801743"><ele>18.7</ele><time>2022-03-04T14:07:19Z</time><name>PT972</name></trkpt>
<trkpt lat="52.033118" lon="05.801779"><ele>18.7</ele><time>2022-03-04T14:07:19Z</time><name>PT973</name></trkpt>
<trkpt lat="52.033121" lon="05.801808"><ele>18.8</ele><time>2022-03-04T14:07:20Z</time><name>PT974</name></trkpt>
<trkpt lat="52.033123" lon="05.801831"><ele>18.8</ele><time>2022-03-04T14:07:22Z</time><name>PT975</name></trkpt>
<trkpt lat="52.033123" lon="05.801856"><ele>18.7</ele><time>2022-03-04T14:07:22Z</time><name>PT976</name></trkpt>
<trkpt lat="52.033117" lon="05.801879"><ele>18.8</ele><time>2022-03-04T14:07:23Z</time><name>PT977</name></trkpt>
<trkpt lat="52.033120" lon="05.801895"><ele>18.8</ele><time>2022-03-04T14:07:25Z</time><name>PT978</name></trkpt>
<trkpt lat="52.033124" lon="05.801909"><ele>18.9</ele><time>2022-03-04T14:07:25Z</time><name>PT979</name></trkpt>
<trkpt lat="52.033128" lon="05.801923"><ele>18.9</ele><time>2022-03-04T14:07:26Z</time><name>PT980</name></trkpt>
<trkpt lat="52.033132" lon="05.801939"><ele>18.9</ele><time>2022-03-04T14:07:28Z</time><name>PT981</name></trkpt>
<trkpt lat="52.033139" lon="05.801954"><ele>18.9</ele><time>2022-03-04T14:07:28Z</time><name>PT982</name></trkpt>
<trkpt lat="52.033139" lon="05.801975"><ele>18.9</ele><time>2022-03-04T14:07:29Z</time><name>PT983</name></trkpt>
<trkpt lat="52.033142" lon="05.802001"><ele>18.6</ele><time>2022-03-04T14:07:31Z</time><name>PT984</name></trkpt>
<trkpt lat="52.033143" lon="05.802023"><ele>18.7</ele><time>2022-03-04T14:07:31Z</time><name>PT985</name></trkpt>
<trkpt lat="52.033145" lon="05.802047"><ele>18.8</ele><time>2022-03-04T14:07:32Z</time><name>PT986</name></trkpt>
<trkpt lat="52.033139" lon="05.802070"><ele>18.9</ele><time>2022-03-04T14:07:34Z</time><name>PT987</name></trkpt>
<trkpt lat="52.033138" lon="05.802088"><ele>18.9</ele><time>2022-03-04T14:07:34Z</time><name>PT988</name></trkpt>
<trkpt lat="52.033138" lon="05.802104"><ele>19</ele><time>2022-03-04T14:07:35Z</time><name>PT989</name></trkpt>
<trkpt lat="52.033140" lon="05.802122"><ele>18.9</ele><time>2022-03-04T14:07:37Z</time><name>PT990</name></trkpt>
<trkpt lat="52.033141" lon="05.802136"><ele>18.9</ele><time>2022-03-04T14:07:37Z</time><name>PT991</name></trkpt>
<trkpt lat="52.033142" lon="05.802154"><ele>18.9</ele><time>2022-03-04T14:07:38Z</time><name>PT992</name></trkpt>
<trkpt lat="52.033142" lon="05.802174"><ele>18.9</ele><time>2022-03-04T14:07:40Z</time><name>PT993</name></trkpt>
<trkpt lat="52.033146" lon="05.802198"><ele>18.8</ele><time>2022-03-04T14:07:40Z</time><name>PT994</name></trkpt>
<trkpt lat="52.033145" lon="05.802229"><ele>18.8</ele><time>2022-03-04T14:07:41Z</time><name>PT995</name></trkpt>
<trkpt lat="52.033147" lon="05.802252"><ele>18.7</ele><time>2022-03-04T14:07:43Z</time><name>PT996</name></trkpt>
<trkpt lat="52.033152" lon="05.802271"><ele>18.7</ele><time>2022-03-04T14:07:43Z</time><name>PT997</name></trkpt>
<trkpt lat="52.033154" lon="05.802287"><ele>18.6</ele><time>2022-03-04T14:07:44Z</time><name>PT998</name></trkpt>
<trkpt lat="52.033155" lon="05.802302"><ele>18.8</ele><time>2022-03-04T14:07:46Z</time><name>PT999</name></trkpt>
<trkpt lat="52.033156" lon="05.802316"><ele>18.7</ele><time>2022-03-04T14:07:46Z</time><name>PT1000</name></trkpt>
<trkpt lat="52.033162" lon="05.802331"><ele>18.7</ele><time>2022-03-04T14:07:47Z</time><name>PT1001</name></trkpt>
<trkpt lat="52.033162" lon="05.802347"><ele>18.7</ele><time>2022-03-04T14:07:49Z</time><name>PT1002</name></trkpt>
<trkpt lat="52.033166" lon="05.802365"><ele>18.8</ele><time>2022-03-04T14:07:49Z</time><name>PT1003</name></trkpt>
<trkpt lat="52.033170" lon="05.802382"><ele>18.6</ele><time>2022-03-04T14:07:50Z</time><name>PT1004</name></trkpt>
<trkpt lat="52.033171" lon="05.802401"><ele>18.6</ele><time>2022-03-04T14:07:52Z</time><name>PT1005</name></trkpt>
<trkpt lat="52.033170" lon="05.802425"><ele>18.7</ele><time>2022-03-04T14:07:52Z</time><name>PT1006</name></trkpt>
<trkpt lat="52.033169" lon="05.802451"><ele>18.6</ele><time>2022-03-04T14:07:53Z</time><name>PT1007</name></trkpt>
<trkpt lat="52.033167" lon="05.802477"><ele>18.6</ele><time>2022-03-04T14:07:55Z</time><name>PT1008</name></trkpt>
<trkpt lat="52.033171" lon="05.802502"><ele>18.7</ele><time>2022-03-04T14:07:55Z</time><name>PT1009</name></trkpt>
<trkpt lat="52.033176" lon="05.802523"><ele>18.5</ele><time>2022-03-04T14:07:56Z</time><name>PT1010</name></trkpt>
<trkpt lat="52.033179" lon="05.802539"><ele>18.4</ele><time>2022-03-04T14:07:58Z</time><name>PT1011</name></trkpt>
<trkpt lat="52.033180" lon="05.802555"><ele>18.4</ele><time>2022-03-04T14:07:58Z</time><name>PT1012</name></trkpt>
<trkpt lat="52.033181" lon="05.802568"><ele>18.5</ele><time>2022-03-04T14:07:59Z</time><name>PT1013</name></trkpt>
<trkpt lat="52.033186" lon="05.802589"><ele>18.6</ele><time>2022-03-04T14:08:01Z</time><name>PT1014</name></trkpt>
<trkpt lat="52.033185" lon="05.802616"><ele>18.7</ele><time>2022-03-04T14:08:01Z</time><name>PT1015</name></trkpt>
<trkpt lat="52.033188" lon="05.802629"><ele>18.8</ele><time>2022-03-04T14:08:02Z</time><name>PT1016</name></trkpt>
<trkpt lat="52.033190" lon="05.802648"><ele>18.8</ele><time>2022-03-04T14:08:04Z</time><name>PT1017</name></trkpt>
<trkpt lat="52.033192" lon="05.802671"><ele>18.8</ele><time>2022-03-04T14:08:04Z</time><name>PT1018</name></trkpt>
<trkpt lat="52.033198" lon="05.802696"><ele>18.7</ele><time>2022-03-04T14:08:05Z</time><name>PT1019</name></trkpt>
<trkpt lat="52.033204" lon="05.802714"><ele>18.8</ele><time>2022-03-04T14:08:07Z</time><name>PT1020</name></trkpt>
<trkpt lat="52.033202" lon="05.802736"><ele>18.8</ele><time>2022-03-04T14:08:07Z</time><name>PT1021</name></trkpt>
<trkpt lat="52.033202" lon="05.802751"><ele>18.6</ele><time>2022-03-04T14:08:08Z</time><name>PT1022</name></trkpt>
<trkpt lat="52.033207" lon="05.802769"><ele>18.7</ele><time>2022-03-04T14:08:10Z</time><name>PT1023</name></trkpt>
<trkpt lat="52.033212" lon="05.802783"><ele>18.8</ele><time>2022-03-04T14:08:10Z</time><name>PT1024</name></trkpt>
<trkpt lat="52.033214" lon="05.802800"><ele>18.7</ele><time>2022-03-04T14:08:11Z</time><name>PT1025</name></trkpt>
<trkpt lat="52.033218" lon="05.802816"><ele>18.9</ele><time>2022-03-04T14:08:13Z</time><name>PT1026</name></trkpt>
<trkpt lat="52.033221" lon="05.802837"><ele>18.9</ele><time>2022-03-04T14:08:13Z</time><name>PT1027</name></trkpt>
<trkpt lat="52.033224" lon="05.802851"><ele>18.9</ele><time>2022-03-04T14:08:14Z</time><name>PT1028</name></trkpt>
<trkpt lat="52.033226" lon="05.802873"><ele>18.8</ele><time>2022-03-04T14:08:16Z</time><name>PT1029</name></trkpt>
<trkpt lat="52.033226" lon="05.802899"><ele>18.7</ele><time>2022-03-04T14:08:16Z</time><name>PT1030</name></trkpt>
<trkpt lat="52.033233" lon="05.802924"><ele>18.5</ele><time>2022-03-04T14:08:17Z</time><name>PT1031</name></trkpt>
<trkpt lat="52.033237" lon="05.802950"><ele>18.6</ele><time>2022-03-04T14:08:19Z</time><name>PT1032</name></trkpt>
<trkpt lat="52.033234" lon="05.802976"><ele>18.6</ele><time>2022-03-04T14:08:19Z</time><name>PT1033</name></trkpt>
<trkpt lat="52.033235" lon="05.803000"><ele>18.6</ele><time>2022-03-04T14:08:20Z</time><name>PT1034</name></trkpt>
<trkpt lat="52.033234" lon="05.803020"><ele>18.8</ele><time>2022-03-04T14:08:22Z</time><name>PT1035</name></trkpt>
<trkpt lat="52.033236" lon="05.803035"><ele>18.8</ele><time>2022-03-04T14:08:22Z</time><name>PT1036</name></trkpt>
<trkpt lat="52.033236" lon="05.803048"><ele>18.7</ele><time>2022-03-04T14:08:23Z</time><name>PT1037</name></trkpt>
<trkpt lat="52.033238" lon="05.803061"><ele>18.8</ele><time>2022-03-04T14:08:25Z</time><name>PT1038</name></trkpt>
<trkpt lat="52.033239" lon="05.803078"><ele>18.9</ele><time>2022-03-04T14:08:25Z</time><name>PT1039</name></trkpt>
<trkpt lat="52.033235" lon="05.803091"><ele>18.6</ele><time>2022-03-04T14:08:26Z</time><name>PT1040</name></trkpt>
<trkpt lat="52.033227" lon="05.803101"><ele>18.8</ele><time>2022-03-04T14:08:28Z</time><name>PT1041</name></trkpt>
<trkpt lat="52.033224" lon="05.803114"><ele>18.8</ele><time>2022-03-04T14:08:28Z</time><name>PT1042</name></trkpt>
<trkpt lat="52.033224" lon="05.803136"><ele>18.9</ele><time>2022-03-04T14:08:29Z</time><name>PT1043</name></trkpt>
<trkpt lat="52.033227" lon="05.803157"><ele>19</ele><time>2022-03-04T14:08:31Z</time><name>PT1044</name></trkpt>
<trkpt lat="52.033230" lon="05.803174"><ele>19.1</ele><time>2022-03-04T14:08:31Z</time><name>PT1045</name></trkpt>
<trkpt lat="52.033227" lon="05.803190"><ele>19.2</ele><time>2022-03-04T14:08:32Z</time><name>PT1046</name></trkpt>
<trkpt lat="52.033228" lon="05.803203"><ele>19.2</ele><time>2022-03-04T14:08:34Z</time><name>PT1047</name></trkpt>
<trkpt lat="52.033228" lon="05.803217"><ele>19.2</ele><time>2022-03-04T14:08:34Z</time><name>PT1048</name></trkpt>
<trkpt lat="52.033231" lon="05.803231"><ele>19.2</ele><time>2022-03-04T14:08:35Z</time><name>PT1049</name></trkpt>
<trkpt lat="52.033235" lon="05.803249"><ele>19.1</ele><time>2022-03-04T14:08:37Z</time><name>PT1050</name></trkpt>
<trkpt lat="52.033238" lon="05.803271"><ele>19</ele><time>2022-03-04T14:08:37Z</time><name>PT1051</name></trkpt>
<trkpt lat="52.033239" lon="05.803290"><ele>19.2</ele><time>2022-03-04T14:08:38Z</time><name>PT1052</name></trkpt>
<trkpt lat="52.033238" lon="05.803305"><ele>19.1</ele><time>2022-03-04T14:08:40Z</time><name>PT1053</name></trkpt>
<trkpt lat="52.033236" lon="05.803321"><ele>19</ele><time>2022-03-04T14:08:40Z</time><name>PT1054</name></trkpt>
<trkpt lat="52.033234" lon="05.803335"><ele>18.9</ele><time>2022-03-04T14:08:41Z</time><name>PT1055</name></trkpt>
<trkpt lat="52.033234" lon="05.803356"><ele>19</ele><time>2022-03-04T14:08:43Z</time><name>PT1056</name></trkpt>
<trkpt lat="52.033233" lon="05.803380"><ele>18.9</ele><time>2022-03-04T14:08:43Z</time><name>PT1057</name></trkpt>
<trkpt lat="52.033232" lon="05.803403"><ele>19</ele><time>2022-03-04T14:08:44Z</time><name>PT1058</name></trkpt>
<trkpt lat="52.033235" lon="05.803424"><ele>18.9</ele><time>2022-03-04T14:08:46Z</time><name>PT1059</name></trkpt>
<trkpt lat="52.033234" lon="05.803443"><ele>19.1</ele><time>2022-03-04T14:08:46Z</time><name>PT1060</name></trkpt>
<trkpt lat="52.033235" lon="05.803456"><ele>18.9</ele><time>2022-03-04T14:08:47Z</time><name>PT1061</name></trkpt>
<trkpt lat="52.033235" lon="05.803467"><ele>18.9</ele><time>2022-03-04T14:08:49Z</time><name>PT1062</name></trkpt>
<trkpt lat="52.033237" lon="05.803485"><ele>18.9</ele><time>2022-03-04T14:08:49Z</time><name>PT1063</name></trkpt>
<trkpt lat="52.033234" lon="05.803508"><ele>18.9</ele><time>2022-03-04T14:08:50Z</time><name>PT1064</name></trkpt>
<trkpt lat="52.033234" lon="05.803534"><ele>18.9</ele><time>2022-03-04T14:08:52Z</time><name>PT1065</name></trkpt>
<trkpt lat="52.033236" lon="05.803558"><ele>18.8</ele><time>2022-03-04T14:08:52Z</time><name>PT1066</name></trkpt>
<trkpt lat="52.033236" lon="05.803578"><ele>18.7</ele><time>2022-03-04T14:08:53Z</time><name>PT1067</name></trkpt>
<trkpt lat="52.033234" lon="05.803595"><ele>18.8</ele><time>2022-03-04T14:08:55Z</time><name>PT1068</name></trkpt>
<trkpt lat="52.033236" lon="05.803610"><ele>18.8</ele><time>2022-03-04T14:08:55Z</time><name>PT1069</name></trkpt>
<trkpt lat="52.033238" lon="05.803625"><ele>18.9</ele><time>2022-03-04T14:08:56Z</time><name>PT1070</name></trkpt>
<trkpt lat="52.033241" lon="05.803644"><ele>19</ele><time>2022-03-04T14:08:58Z</time><name>PT1071</name></trkpt>
<trkpt lat="52.033242" lon="05.803667"><ele>19</ele><time>2022-03-04T14:08:58Z</time><name>PT1072</name></trkpt>
<trkpt lat="52.033244" lon="05.803692"><ele>19.2</ele><time>2022-03-04T14:08:59Z</time><name>PT1073</name></trkpt>
<trkpt lat="52.033241" lon="05.803709"><ele>19.4</ele><time>2022-03-04T14:09:01Z</time><name>PT1074</name></trkpt>
<trkpt lat="52.033240" lon="05.803726"><ele>19.5</ele><time>2022-03-04T14:09:01Z</time><name>PT1075</name></trkpt>
<trkpt lat="52.033245" lon="05.803745"><ele>19.8</ele><time>2022-03-04T14:09:02Z</time><name>PT1076</name></trkpt>
<trkpt lat="52.033254" lon="05.803764"><ele>19.7</ele><time>2022-03-04T14:09:04Z</time><name>PT1077</name></trkpt>
<trkpt lat="52.033265" lon="05.803783"><ele>19.8</ele><time>2022-03-04T14:09:04Z</time><name>PT1078</name></trkpt>
<trkpt lat="52.033272" lon="05.803794"><ele>19.9</ele><time>2022-03-04T14:09:05Z</time><name>PT1079</name></trkpt>
<trkpt lat="52.033276" lon="05.803800"><ele>19.9</ele><time>2022-03-04T14:09:07Z</time><name>PT1080</name></trkpt>
<trkpt lat="52.033277" lon="05.803807"><ele>19.9</ele><time>2022-03-04T14:09:07Z</time><name>PT1081</name></trkpt>
<trkpt lat="52.033280" lon="05.803811"><ele>19.9</ele><time>2022-03-04T14:09:08Z</time><name>PT1082</name></trkpt>
<trkpt lat="52.033280" lon="05.803818"><ele>19.7</ele><time>2022-03-04T14:09:10Z</time><name>PT1083</name></trkpt>
<trkpt lat="52.033279" lon="05.803820"><ele>19.6</ele><time>2022-03-04T14:09:10Z</time><name>PT1084</name></trkpt>
<trkpt lat="52.033279" lon="05.803821"><ele>19.3</ele><time>2022-03-04T14:09:11Z</time><name>PT1085</name></trkpt>
<trkpt lat="52.033283" lon="05.803822"><ele>19.3</ele><time>2022-03-04T14:09:13Z</time><name>PT1086</name></trkpt>
<trkpt lat="52.033295" lon="05.803830"><ele>19.4</ele><time>2022-03-04T14:09:13Z</time><name>PT1087</name></trkpt>
<trkpt lat="52.033306" lon="05.803838"><ele>19.3</ele><time>2022-03-04T14:09:14Z</time><name>PT1088</name></trkpt>
<trkpt lat="52.033314" lon="05.803840"><ele>19.1</ele><time>2022-03-04T14:09:16Z</time><name>PT1089</name></trkpt>
<trkpt lat="52.033321" lon="05.803842"><ele>19</ele><time>2022-03-04T14:09:16Z</time><name>PT1090</name></trkpt>
<trkpt lat="52.033331" lon="05.803845"><ele>19.1</ele><time>2022-03-04T14:09:17Z</time><name>PT1091</name></trkpt>
<trkpt lat="52.033341" lon="05.803849"><ele>18.9</ele><time>2022-03-04T14:09:19Z</time><name>PT1092</name></trkpt>
<trkpt lat="52.033356" lon="05.803855"><ele>18.9</ele><time>2022-03-04T14:09:19Z</time><name>PT1093</name></trkpt>
<trkpt lat="52.033374" lon="05.803865"><ele>19</ele><time>2022-03-04T14:09:21Z</time><name>PT1094</name></trkpt>
<trkpt lat="52.033389" lon="05.803882"><ele>18.9</ele><time>2022-03-04T14:09:22Z</time><name>PT1095</name></trkpt>
<trkpt lat="52.033404" lon="05.803892"><ele>18.9</ele><time>2022-03-04T14:09:22Z</time><name>PT1096</name></trkpt>
<trkpt lat="52.033418" lon="05.803896"><ele>18.9</ele><time>2022-03-04T14:09:23Z</time><name>PT1097</name></trkpt>
<trkpt lat="52.033431" lon="05.803897"><ele>18.9</ele><time>2022-03-04T14:09:25Z</time><name>PT1098</name></trkpt>
<trkpt lat="52.033441" lon="05.803900"><ele>18.9</ele><time>2022-03-04T14:09:25Z</time><name>PT1099</name></trkpt>
<trkpt lat="52.033452" lon="05.803901"><ele>19.1</ele><time>2022-03-04T14:09:26Z</time><name>PT1100</name></trkpt>
<trkpt lat="52.033463" lon="05.803903"><ele>18.9</ele><time>2022-03-04T14:09:28Z</time><name>PT1101</name></trkpt>
<trkpt lat="52.033474" lon="05.803907"><ele>18.9</ele><time>2022-03-04T14:09:28Z</time><name>PT1102</name></trkpt>
<trkpt lat="52.033491" lon="05.803909"><ele>18.7</ele><time>2022-03-04T14:09:29Z</time><name>PT1103</name></trkpt>
<trkpt lat="52.033506" lon="05.803913"><ele>18.4</ele><time>2022-03-04T14:09:31Z</time><name>PT1104</name></trkpt>
<trkpt lat="52.033524" lon="05.803917"><ele>18.4</ele><time>2022-03-04T14:09:31Z</time><name>PT1105</name></trkpt>
<trkpt lat="52.033542" lon="05.803921"><ele>18.4</ele><time>2022-03-04T14:09:32Z</time><name>PT1106</name></trkpt>
<trkpt lat="52.033556" lon="05.803926"><ele>18.4</ele><time>2022-03-04T14:09:34Z</time><name>PT1107</name></trkpt>
<trkpt lat="52.033568" lon="05.803931"><ele>18.6</ele><time>2022-03-04T14:09:34Z</time><name>PT1108</name></trkpt>
<trkpt lat="52.033578" lon="05.803936"><ele>18.5</ele><time>2022-03-04T14:09:36Z</time><name>PT1109</name></trkpt>
<trkpt lat="52.033587" lon="05.803943"><ele>18.5</ele><time>2022-03-04T14:09:37Z</time><name>PT1110</name></trkpt>
<trkpt lat="52.033593" lon="05.803948"><ele>18.6</ele><time>2022-03-04T14:09:37Z</time><name>PT1111</name></trkpt>
<trkpt lat="52.033597" lon="05.803951"><ele>18.8</ele><time>2022-03-04T14:09:38Z</time><name>PT1112</name></trkpt>
<trkpt lat="52.033607" lon="05.803954"><ele>18.7</ele><time>2022-03-04T14:09:40Z</time><name>PT1113</name></trkpt>
<trkpt lat="52.033619" lon="05.803955"><ele>18.8</ele><time>2022-03-04T14:09:40Z</time><name>PT1114</name></trkpt>
<trkpt lat="52.033634" lon="05.803956"><ele>18.7</ele><time>2022-03-04T14:09:41Z</time><name>PT1115</name></trkpt>
<trkpt lat="52.033652" lon="05.803954"><ele>18.7</ele><time>2022-03-04T14:09:43Z</time><name>PT1116</name></trkpt>
<trkpt lat="52.033670" lon="05.803960"><ele>18.6</ele><time>2022-03-04T14:09:43Z</time><name>PT1117</name></trkpt>
<trkpt lat="52.033689" lon="05.803966"><ele>18.6</ele><time>2022-03-04T14:09:45Z</time><name>PT1118</name></trkpt>
<trkpt lat="52.033706" lon="05.803970"><ele>18.6</ele><time>2022-03-04T14:09:46Z</time><name>PT1119</name></trkpt>
<trkpt lat="52.033720" lon="05.803974"><ele>18.4</ele><time>2022-03-04T14:09:46Z</time><name>PT1120</name></trkpt>
<trkpt lat="52.033733" lon="05.803974"><ele>18.4</ele><time>2022-03-04T14:09:47Z</time><name>PT1121</name></trkpt>
<trkpt lat="52.033742" lon="05.803974"><ele>18.4</ele><time>2022-03-04T14:09:49Z</time><name>PT1122</name></trkpt>
<trkpt lat="52.033750" lon="05.803974"><ele>18.3</ele><time>2022-03-04T14:09:49Z</time><name>PT1123</name></trkpt>
<trkpt lat="52.033755" lon="05.803972"><ele>18.4</ele><time>2022-03-04T14:09:51Z</time><name>PT1124</name></trkpt>
<trkpt lat="52.033763" lon="05.803973"><ele>18.3</ele><time>2022-03-04T14:09:52Z</time><name>PT1125</name></trkpt>
<trkpt lat="52.033771" lon="05.803973"><ele>18.3</ele><time>2022-03-04T14:09:52Z</time><name>PT1126</name></trkpt>
<trkpt lat="52.033781" lon="05.803974"><ele>18.5</ele><time>2022-03-04T14:09:53Z</time><name>PT1127</name></trkpt>
<trkpt lat="52.033795" lon="05.803974"><ele>18.4</ele><time>2022-03-04T14:09:55Z</time><name>PT1128</name></trkpt>
<trkpt lat="52.033812" lon="05.803974"><ele>18.4</ele><time>2022-03-04T14:09:55Z</time><name>PT1129</name></trkpt>
<trkpt lat="52.033827" lon="05.803983"><ele>18.5</ele><time>2022-03-04T14:09:56Z</time><name>PT1130</name></trkpt>
<trkpt lat="52.033841" lon="05.803987"><ele>18.4</ele><time>2022-03-04T14:09:58Z</time><name>PT1131</name></trkpt>
<trkpt lat="52.033857" lon="05.803987"><ele>18.5</ele><time>2022-03-04T14:09:58Z</time><name>PT1132</name></trkpt>
<trkpt lat="52.033865" lon="05.803989"><ele>18.6</ele><time>2022-03-04T14:09:59Z</time><name>PT1133</name></trkpt>
<trkpt lat="52.033874" lon="05.803987"><ele>18.7</ele><time>2022-03-04T14:10:01Z</time><name>PT1134</name></trkpt>
<trkpt lat="52.033882" lon="05.803985"><ele>18.8</ele><time>2022-03-04T14:10:01Z</time><name>PT1135</name></trkpt>
<trkpt lat="52.033891" lon="05.803983"><ele>18.9</ele><time>2022-03-04T14:10:02Z</time><name>PT1136</name></trkpt>
<trkpt lat="52.033900" lon="05.803981"><ele>18.7</ele><time>2022-03-04T14:10:04Z</time><name>PT1137</name></trkpt>
<trkpt lat="52.033914" lon="05.803978"><ele>18.7</ele><time>2022-03-04T14:10:04Z</time><name>PT1138</name></trkpt>
<trkpt lat="52.033928" lon="05.803971"><ele>18.7</ele><time>2022-03-04T14:10:05Z</time><name>PT1139</name></trkpt>
<trkpt lat="52.033943" lon="05.803965"><ele>18.5</ele><time>2022-03-04T14:10:07Z</time><name>PT1140</name></trkpt>
<trkpt lat="52.033958" lon="05.803962"><ele>18.5</ele><time>2022-03-04T14:10:07Z</time><name>PT1141</name></trkpt>
<trkpt lat="52.033973" lon="05.803964"><ele>18.6</ele><time>2022-03-04T14:10:08Z</time><name>PT1142</name></trkpt>
<trkpt lat="52.033984" lon="05.803963"><ele>18.6</ele><time>2022-03-04T14:10:10Z</time><name>PT1143</name></trkpt>
<trkpt lat="52.033996" lon="05.803963"><ele>18.7</ele><time>2022-03-04T14:10:10Z</time><name>PT1144</name></trkpt>
<trkpt lat="52.034006" lon="05.803960"><ele>18.7</ele><time>2022-03-04T14:10:11Z</time><name>PT1145</name></trkpt>
<trkpt lat="52.034013" lon="05.803957"><ele>18.6</ele><time>2022-03-04T14:10:13Z</time><name>PT1146</name></trkpt>
<trkpt lat="52.034020" lon="05.803956"><ele>18.6</ele><time>2022-03-04T14:10:13Z</time><name>PT1147</name></trkpt>
<trkpt lat="52.034032" lon="05.803950"><ele>18.6</ele><time>2022-03-04T14:10:14Z</time><name>PT1148</name></trkpt>
<trkpt lat="52.034044" lon="05.803944"><ele>18.4</ele><time>2022-03-04T14:10:16Z</time><name>PT1149</name></trkpt>
<trkpt lat="52.034058" lon="05.803939"><ele>18.4</ele><time>2022-03-04T14:10:16Z</time><name>PT1150</name></trkpt>
<trkpt lat="52.034070" lon="05.803938"><ele>18.4</ele><time>2022-03-04T14:10:17Z</time><name>PT1151</name></trkpt>
<trkpt lat="52.034086" lon="05.803939"><ele>18.3</ele><time>2022-03-04T14:10:19Z</time><name>PT1152</name></trkpt>
<trkpt lat="52.034100" lon="05.803935"><ele>18.3</ele><time>2022-03-04T14:10:19Z</time><name>PT1153</name></trkpt>
<trkpt lat="52.034114" lon="05.803931"><ele>18.3</ele><time>2022-03-04T14:10:20Z</time><name>PT1154</name></trkpt>
<trkpt lat="52.034122" lon="05.803925"><ele>18.3</ele><time>2022-03-04T14:10:22Z</time><name>PT1155</name></trkpt>
<trkpt lat="52.034130" lon="05.803921"><ele>18.3</ele><time>2022-03-04T14:10:22Z</time><name>PT1156</name></trkpt>
<trkpt lat="52.034139" lon="05.803918"><ele>18.3</ele><time>2022-03-04T14:10:23Z</time><name>PT1157</name></trkpt>
<trkpt lat="52.034145" lon="05.803915"><ele>18.1</ele><time>2022-03-04T14:10:25Z</time><name>PT1158</name></trkpt>
<trkpt lat="52.034154" lon="05.803913"><ele>18.2</ele><time>2022-03-04T14:10:25Z</time><name>PT1159</name></trkpt>
<trkpt lat="52.034164" lon="05.803909"><ele>18.2</ele><time>2022-03-04T14:10:26Z</time><name>PT1160</name></trkpt>
<trkpt lat="52.034179" lon="05.803905"><ele>18.2</ele><time>2022-03-04T14:10:28Z</time><name>PT1161</name></trkpt>
<trkpt lat="52.034194" lon="05.803901"><ele>18.2</ele><time>2022-03-04T14:10:28Z</time><name>PT1162</name></trkpt>
<trkpt lat="52.034208" lon="05.803894"><ele>18.2</ele><time>2022-03-04T14:10:29Z</time><name>PT1163</name></trkpt>
<trkpt lat="52.034220" lon="05.803889"><ele>18.2</ele><time>2022-03-04T14:10:31Z</time><name>PT1164</name></trkpt>
<trkpt lat="52.034230" lon="05.803889"><ele>18.3</ele><time>2022-03-04T14:10:31Z</time><name>PT1165</name></trkpt>
<trkpt lat="52.034239" lon="05.803889"><ele>18.2</ele><time>2022-03-04T14:10:32Z</time><name>PT1166</name></trkpt>
<trkpt lat="52.034246" lon="05.803886"><ele>18.3</ele><time>2022-03-04T14:10:34Z</time><name>PT1167</name></trkpt>
<trkpt lat="52.034255" lon="05.803882"><ele>18.2</ele><time>2022-03-04T14:10:34Z</time><name>PT1168</name></trkpt>
<trkpt lat="52.034263" lon="05.803879"><ele>18</ele><time>2022-03-04T14:10:35Z</time><name>PT1169</name></trkpt>
<trkpt lat="52.034274" lon="05.803876"><ele>18</ele><time>2022-03-04T14:10:37Z</time><name>PT1170</name></trkpt>
<trkpt lat="52.034285" lon="05.803873"><ele>18</ele><time>2022-03-04T14:10:37Z</time><name>PT1171</name></trkpt>
<trkpt lat="52.034300" lon="05.803868"><ele>17.8</ele><time>2022-03-04T14:10:38Z</time><name>PT1172</name></trkpt>
<trkpt lat="52.034316" lon="05.803866"><ele>17.9</ele><time>2022-03-04T14:10:40Z</time><name>PT1173</name></trkpt>
<trkpt lat="52.034334" lon="05.803865"><ele>18</ele><time>2022-03-04T14:10:40Z</time><name>PT1174</name></trkpt>
<trkpt lat="52.034348" lon="05.803863"><ele>18</ele><time>2022-03-04T14:10:41Z</time><name>PT1175</name></trkpt>
<trkpt lat="52.034360" lon="05.803861"><ele>18</ele><time>2022-03-04T14:10:43Z</time><name>PT1176</name></trkpt>
<trkpt lat="52.034370" lon="05.803860"><ele>18</ele><time>2022-03-04T14:10:43Z</time><name>PT1177</name></trkpt>
<trkpt lat="52.034379" lon="05.803858"><ele>17.9</ele><time>2022-03-04T14:10:44Z</time><name>PT1178</name></trkpt>
<trkpt lat="52.034386" lon="05.803855"><ele>18</ele><time>2022-03-04T14:10:46Z</time><name>PT1179</name></trkpt>
<trkpt lat="52.034392" lon="05.803853"><ele>18</ele><time>2022-03-04T14:10:46Z</time><name>PT1180</name></trkpt>
<trkpt lat="52.034402" lon="05.803851"><ele>17.9</ele><time>2022-03-04T14:10:47Z</time><name>PT1181</name></trkpt>
<trkpt lat="52.034415" lon="05.803846"><ele>18</ele><time>2022-03-04T14:10:49Z</time><name>PT1182</name></trkpt>
<trkpt lat="52.034430" lon="05.803842"><ele>17.9</ele><time>2022-03-04T14:10:49Z</time><name>PT1183</name></trkpt>
<trkpt lat="52.034447" lon="05.803835"><ele>18</ele><time>2022-03-04T14:10:50Z</time><name>PT1184</name></trkpt>
<trkpt lat="52.034461" lon="05.803830"><ele>18</ele><time>2022-03-04T14:10:52Z</time><name>PT1185</name></trkpt>
<trkpt lat="52.034474" lon="05.803826"><ele>18</ele><time>2022-03-04T14:10:52Z</time><name>PT1186</name></trkpt>
<trkpt lat="52.034487" lon="05.803823"><ele>18</ele><time>2022-03-04T14:10:53Z</time><name>PT1187</name></trkpt>
<trkpt lat="52.034494" lon="05.803827"><ele>18</ele><time>2022-03-04T14:10:55Z</time><name>PT1188</name></trkpt>
<trkpt lat="52.034499" lon="05.803829"><ele>18</ele><time>2022-03-04T14:10:55Z</time><name>PT1189</name></trkpt>
<trkpt lat="52.034505" lon="05.803829"><ele>18.1</ele><time>2022-03-04T14:10:56Z</time><name>PT1190</name></trkpt>
<trkpt lat="52.034514" lon="05.803825"><ele>18</ele><time>2022-03-04T14:10:58Z</time><name>PT1191</name></trkpt>
<trkpt lat="52.034530" lon="05.803818"><ele>18.1</ele><time>2022-03-04T14:10:58Z</time><name>PT1192</name></trkpt>
<trkpt lat="52.034544" lon="05.803812"><ele>18.2</ele><time>2022-03-04T14:10:59Z</time><name>PT1193</name></trkpt>
<trkpt lat="52.034559" lon="05.803809"><ele>18.3</ele><time>2022-03-04T14:11:01Z</time><name>PT1194</name></trkpt>
<trkpt lat="52.034570" lon="05.803809"><ele>18.2</ele><time>2022-03-04T14:11:01Z</time><name>PT1195</name></trkpt>
<trkpt lat="52.034579" lon="05.803808"><ele>18.2</ele><time>2022-03-04T14:11:02Z</time><name>PT1196</name></trkpt>
<trkpt lat="52.034587" lon="05.803803"><ele>18.1</ele><time>2022-03-04T14:11:04Z</time><name>PT1197</name></trkpt>
<trkpt lat="52.034594" lon="05.803801"><ele>18</ele><time>2022-03-04T14:11:04Z</time><name>PT1198</name></trkpt>
<trkpt lat="52.034604" lon="05.803798"><ele>17.9</ele><time>2022-03-04T14:11:05Z</time><name>PT1199</name></trkpt>
<trkpt lat="52.034616" lon="05.803791"><ele>17.9</ele><time>2022-03-04T14:11:07Z</time><name>PT1200</name></trkpt>
<trkpt lat="52.034631" lon="05.803783"><ele>17.9</ele><time>2022-03-04T14:11:07Z</time><name>PT1201</name></trkpt>
<trkpt lat="52.034648" lon="05.803777"><ele>17.9</ele><time>2022-03-04T14:11:08Z</time><name>PT1202</name></trkpt>
<trkpt lat="52.034663" lon="05.803769"><ele>18</ele><time>2022-03-04T14:11:10Z</time><name>PT1203</name></trkpt>
<trkpt lat="52.034675" lon="05.803762"><ele>17.9</ele><time>2022-03-04T14:11:10Z</time><name>PT1204</name></trkpt>
<trkpt lat="52.034681" lon="05.803756"><ele>18</ele><time>2022-03-04T14:11:11Z</time><name>PT1205</name></trkpt>
<trkpt lat="52.034688" lon="05.803754"><ele>18</ele><time>2022-03-04T14:11:13Z</time><name>PT1206</name></trkpt>
<trkpt lat="52.034698" lon="05.803753"><ele>18</ele><time>2022-03-04T14:11:13Z</time><name>PT1207</name></trkpt>
<trkpt lat="52.034708" lon="05.803748"><ele>18</ele><time>2022-03-04T14:11:14Z</time><name>PT1208</name></trkpt>
<trkpt lat="52.034721" lon="05.803744"><ele>18.1</ele><time>2022-03-04T14:11:16Z</time><name>PT1209</name></trkpt>
<trkpt lat="52.034736" lon="05.803738"><ele>18.3</ele><time>2022-03-04T14:11:16Z</time><name>PT1210</name></trkpt>
<trkpt lat="52.034751" lon="05.803732"><ele>18.3</ele><time>2022-03-04T14:11:17Z</time><name>PT1211</name></trkpt>
<trkpt lat="52.034765" lon="05.803725"><ele>18.3</ele><time>2022-03-04T14:11:19Z</time><name>PT1212</name></trkpt>
<trkpt lat="52.034778" lon="05.803720"><ele>18.4</ele><time>2022-03-04T14:11:19Z</time><name>PT1213</name></trkpt>
<trkpt lat="52.034791" lon="05.803716"><ele>18.4</ele><time>2022-03-04T14:11:20Z</time><name>PT1214</name></trkpt>
<trkpt lat="52.034800" lon="05.803714"><ele>18.4</ele><time>2022-03-04T14:11:22Z</time><name>PT1215</name></trkpt>
<trkpt lat="52.034809" lon="05.803711"><ele>18.3</ele><time>2022-03-04T14:11:22Z</time><name>PT1216</name></trkpt>
<trkpt lat="52.034817" lon="05.803706"><ele>18.3</ele><time>2022-03-04T14:11:23Z</time><name>PT1217</name></trkpt>
<trkpt lat="52.034825" lon="05.803702"><ele>18.1</ele><time>2022-03-04T14:11:25Z</time><name>PT1218</name></trkpt>
<trkpt lat="52.034837" lon="05.803696"><ele>18.2</ele><time>2022-03-04T14:11:25Z</time><name>PT1219</name></trkpt>
<trkpt lat="52.034853" lon="05.803689"><ele>18.2</ele><time>2022-03-04T14:11:26Z</time><name>PT1220</name></trkpt>
<trkpt lat="52.034871" lon="05.803680"><ele>18</ele><time>2022-03-04T14:11:28Z</time><name>PT1221</name></trkpt>
<trkpt lat="52.034887" lon="05.803673"><ele>18.2</ele><time>2022-03-04T14:11:28Z</time><name>PT1222</name></trkpt>
<trkpt lat="52.034899" lon="05.803669"><ele>18.2</ele><time>2022-03-04T14:11:29Z</time><name>PT1223</name></trkpt>
<trkpt lat="52.034910" lon="05.803664"><ele>18.2</ele><time>2022-03-04T14:11:31Z</time><name>PT1224</name></trkpt>
<trkpt lat="52.034919" lon="05.803658"><ele>18.3</ele><time>2022-03-04T14:11:31Z</time><name>PT1225</name></trkpt>
<trkpt lat="52.034926" lon="05.803656"><ele>18.3</ele><time>2022-03-04T14:11:32Z</time><name>PT1226</name></trkpt>
<trkpt lat="52.034935" lon="05.803652"><ele>18</ele><time>2022-03-04T14:11:34Z</time><name>PT1227</name></trkpt>
<trkpt lat="52.034945" lon="05.803644"><ele>18.1</ele><time>2022-03-04T14:11:34Z</time><name>PT1228</name></trkpt>
<trkpt lat="52.034966" lon="05.803642"><ele>17.9</ele><time>2022-03-04T14:11:35Z</time><name>PT1229</name></trkpt>
<trkpt lat="52.034984" lon="05.803637"><ele>17.6</ele><time>2022-03-04T14:11:37Z</time><name>PT1230</name></trkpt>
<trkpt lat="52.034997" lon="05.803630"><ele>17.8</ele><time>2022-03-04T14:11:37Z</time><name>PT1231</name></trkpt>
<trkpt lat="52.035008" lon="05.803627"><ele>17.9</ele><time>2022-03-04T14:11:38Z</time><name>PT1232</name></trkpt>
<trkpt lat="52.035016" lon="05.803622"><ele>17.8</ele><time>2022-03-04T14:11:40Z</time><name>PT1233</name></trkpt>
<trkpt lat="52.035024" lon="05.803617"><ele>17.8</ele><time>2022-03-04T14:11:40Z</time><name>PT1234</name></trkpt>
<trkpt lat="52.035034" lon="05.803609"><ele>17.8</ele><time>2022-03-04T14:11:41Z</time><name>PT1235</name></trkpt>
<trkpt lat="52.035045" lon="05.803599"><ele>17.9</ele><time>2022-03-04T14:11:43Z</time><name>PT1236</name></trkpt>
<trkpt lat="52.035058" lon="05.803588"><ele>17.9</ele><time>2022-03-04T14:11:43Z</time><name>PT1237</name></trkpt>
<trkpt lat="52.035070" lon="05.803575"><ele>17.8</ele><time>2022-03-04T14:11:44Z</time><name>PT1238</name></trkpt>
<trkpt lat="52.035082" lon="05.803564"><ele>17.8</ele><time>2022-03-04T14:11:46Z</time><name>PT1239</name></trkpt>
<trkpt lat="52.035097" lon="05.803553"><ele>17.8</ele><time>2022-03-04T14:11:46Z</time><name>PT1240</name></trkpt>
<trkpt lat="52.035110" lon="05.803544"><ele>17.9</ele><time>2022-03-04T14:11:47Z</time><name>PT1241</name></trkpt>
<trkpt lat="52.035120" lon="05.803535"><ele>17.8</ele><time>2022-03-04T14:11:49Z</time><name>PT1242</name></trkpt>
<trkpt lat="52.035126" lon="05.803531"><ele>17.8</ele><time>2022-03-04T14:11:49Z</time><name>PT1243</name></trkpt>
<trkpt lat="52.035135" lon="05.803529"><ele>17.8</ele><time>2022-03-04T14:11:50Z</time><name>PT1244</name></trkpt>
<trkpt lat="52.035143" lon="05.803525"><ele>17.6</ele><time>2022-03-04T14:11:52Z</time><name>PT1245</name></trkpt>
<trkpt lat="52.035156" lon="05.803514"><ele>17.5</ele><time>2022-03-04T14:11:52Z</time><name>PT1246</name></trkpt>
<trkpt lat="52.035167" lon="05.803499"><ele>17.3</ele><time>2022-03-04T14:11:53Z</time><name>PT1247</name></trkpt>
<trkpt lat="52.035180" lon="05.803488"><ele>17.1</ele><time>2022-03-04T14:11:55Z</time><name>PT1248</name></trkpt>
<trkpt lat="52.035190" lon="05.803479"><ele>17.1</ele><time>2022-03-04T14:11:55Z</time><name>PT1249</name></trkpt>
<trkpt lat="52.035197" lon="05.803471"><ele>17</ele><time>2022-03-04T14:11:56Z</time><name>PT1250</name></trkpt>
<trkpt lat="52.035203" lon="05.803463"><ele>17</ele><time>2022-03-04T14:11:58Z</time><name>PT1251</name></trkpt>
<trkpt lat="52.035207" lon="05.803458"><ele>17</ele><time>2022-03-04T14:11:58Z</time><name>PT1252</name></trkpt>
<trkpt lat="52.035214" lon="05.803455"><ele>17</ele><time>2022-03-04T14:11:59Z</time><name>PT1253</name></trkpt>
<trkpt lat="52.035228" lon="05.803449"><ele>17</ele><time>2022-03-04T14:12:01Z</time><name>PT1254</name></trkpt>
<trkpt lat="52.035243" lon="05.803437"><ele>17.1</ele><time>2022-03-04T14:12:01Z</time><name>PT1255</name></trkpt>
<trkpt lat="52.035256" lon="05.803426"><ele>17</ele><time>2022-03-04T14:12:02Z</time><name>PT1256</name></trkpt>
<trkpt lat="52.035267" lon="05.803418"><ele>17</ele><time>2022-03-04T14:12:04Z</time><name>PT1257</name></trkpt>
<trkpt lat="52.035276" lon="05.803410"><ele>16.8</ele><time>2022-03-04T14:12:04Z</time><name>PT1258</name></trkpt>
<trkpt lat="52.035283" lon="05.803405"><ele>16.6</ele><time>2022-03-04T14:12:05Z</time><name>PT1259</name></trkpt>
<trkpt lat="52.035291" lon="05.803401"><ele>16.8</ele><time>2022-03-04T14:12:07Z</time><name>PT1260</name></trkpt>
<trkpt lat="52.035299" lon="05.803395"><ele>16.8</ele><time>2022-03-04T14:12:07Z</time><name>PT1261</name></trkpt>
<trkpt lat="52.035308" lon="05.803389"><ele>16.7</ele><time>2022-03-04T14:12:08Z</time><name>PT1262</name></trkpt>
<trkpt lat="52.035321" lon="05.803380"><ele>16.8</ele><time>2022-03-04T14:12:10Z</time><name>PT1263</name></trkpt>
<trkpt lat="52.035333" lon="05.803370"><ele>16.9</ele><time>2022-03-04T14:12:10Z</time><name>PT1264</name></trkpt>
<trkpt lat="52.035345" lon="05.803364"><ele>16.7</ele><time>2022-03-04T14:12:11Z</time><name>PT1265</name></trkpt>
<trkpt lat="52.035362" lon="05.803357"><ele>16.7</ele><time>2022-03-04T14:12:13Z</time><name>PT1266</name></trkpt>
<trkpt lat="52.035375" lon="05.803354"><ele>16.7</ele><time>2022-03-04T14:12:13Z</time><name>PT1267</name></trkpt>
<trkpt lat="52.035387" lon="05.803353"><ele>16.5</ele><time>2022-03-04T14:12:14Z</time><name>PT1268</name></trkpt>
<trkpt lat="52.035396" lon="05.803348"><ele>16.5</ele><time>2022-03-04T14:12:16Z</time><name>PT1269</name></trkpt>
<trkpt lat="52.035404" lon="05.803346"><ele>16.5</ele><time>2022-03-04T14:12:16Z</time><name>PT1270</name></trkpt>
<trkpt lat="52.035413" lon="05.803341"><ele>16.5</ele><time>2022-03-04T14:12:17Z</time><name>PT1271</name></trkpt>
<trkpt lat="52.035424" lon="05.803330"><ele>16.3</ele><time>2022-03-04T14:12:19Z</time><name>PT1272</name></trkpt>
<trkpt lat="52.035437" lon="05.803314"><ele>16.4</ele><time>2022-03-04T14:12:19Z</time><name>PT1273</name></trkpt>
<trkpt lat="52.035449" lon="05.803302"><ele>16.4</ele><time>2022-03-04T14:12:20Z</time><name>PT1274</name></trkpt>
<trkpt lat="52.035459" lon="05.803296"><ele>16.4</ele><time>2022-03-04T14:12:22Z</time><name>PT1275</name></trkpt>
<trkpt lat="52.035467" lon="05.803293"><ele>16.4</ele><time>2022-03-04T14:12:22Z</time><name>PT1276</name></trkpt>
<trkpt lat="52.035475" lon="05.803291"><ele>16.4</ele><time>2022-03-04T14:12:23Z</time><name>PT1277</name></trkpt>
<trkpt lat="52.035482" lon="05.803286"><ele>16.3</ele><time>2022-03-04T14:12:25Z</time><name>PT1278</name></trkpt>
<trkpt lat="52.035487" lon="05.803283"><ele>16.1</ele><time>2022-03-04T14:12:25Z</time><name>PT1279</name></trkpt>
<trkpt lat="52.035492" lon="05.803276"><ele>15.8</ele><time>2022-03-04T14:12:26Z</time><name>PT1280</name></trkpt>
<trkpt lat="52.035506" lon="05.803263"><ele>15.7</ele><time>2022-03-04T14:12:28Z</time><name>PT1281</name></trkpt>
<trkpt lat="52.035517" lon="05.803245"><ele>15.9</ele><time>2022-03-04T14:12:28Z</time><name>PT1282</name></trkpt>
<trkpt lat="52.035526" lon="05.803232"><ele>16.1</ele><time>2022-03-04T14:12:29Z</time><name>PT1283</name></trkpt>
<trkpt lat="52.035537" lon="05.803228"><ele>16.1</ele><time>2022-03-04T14:12:31Z</time><name>PT1284</name></trkpt>
<trkpt lat="52.035544" lon="05.803223"><ele>16.3</ele><time>2022-03-04T14:12:31Z</time><name>PT1285</name></trkpt>
<trkpt lat="52.035552" lon="05.803218"><ele>16.3</ele><time>2022-03-04T14:12:32Z</time><name>PT1286</name></trkpt>
<trkpt lat="52.035559" lon="05.803210"><ele>16.2</ele><time>2022-03-04T14:12:34Z</time><name>PT1287</name></trkpt>
<trkpt lat="52.035569" lon="05.803200"><ele>16.2</ele><time>2022-03-04T14:12:34Z</time><name>PT1288</name></trkpt>
<trkpt lat="52.035581" lon="05.803190"><ele>16.3</ele><time>2022-03-04T14:12:35Z</time><name>PT1289</name></trkpt>
<trkpt lat="52.035595" lon="05.803179"><ele>16.3</ele><time>2022-03-04T14:12:37Z</time><name>PT1290</name></trkpt>
<trkpt lat="52.035610" lon="05.803169"><ele>16.2</ele><time>2022-03-04T14:12:37Z</time><name>PT1291</name></trkpt>
<trkpt lat="52.035623" lon="05.803159"><ele>16.3</ele><time>2022-03-04T14:12:38Z</time><name>PT1292</name></trkpt>
<trkpt lat="52.035637" lon="05.803148"><ele>16.3</ele><time>2022-03-04T14:12:40Z</time><name>PT1293</name></trkpt>
<trkpt lat="52.035648" lon="05.803139"><ele>16.3</ele><time>2022-03-04T14:12:40Z</time><name>PT1294</name></trkpt>
<trkpt lat="52.035657" lon="05.803136"><ele>16.5</ele><time>2022-03-04T14:12:41Z</time><name>PT1295</name></trkpt>
<trkpt lat="52.035664" lon="05.803136"><ele>16.5</ele><time>2022-03-04T14:12:43Z</time><name>PT1296</name></trkpt>
<trkpt lat="52.035673" lon="05.803128"><ele>16.4</ele><time>2022-03-04T14:12:43Z</time><name>PT1297</name></trkpt>
<trkpt lat="52.035686" lon="05.803114"><ele>16.5</ele><time>2022-03-04T14:12:44Z</time><name>PT1298</name></trkpt>
<trkpt lat="52.035700" lon="05.803106"><ele>16.5</ele><time>2022-03-04T14:12:46Z</time><name>PT1299</name></trkpt>
<trkpt lat="52.035715" lon="05.803096"><ele>16.5</ele><time>2022-03-04T14:12:46Z</time><name>PT1300</name></trkpt>
<trkpt lat="52.035729" lon="05.803085"><ele>16.5</ele><time>2022-03-04T14:12:47Z</time><name>PT1301</name></trkpt>
<trkpt lat="52.035743" lon="05.803079"><ele>16.5</ele><time>2022-03-04T14:12:49Z</time><name>PT1302</name></trkpt>
<trkpt lat="52.035754" lon="05.803074"><ele>16.5</ele><time>2022-03-04T14:12:49Z</time><name>PT1303</name></trkpt>
<trkpt lat="52.035763" lon="05.803070"><ele>16.3</ele><time>2022-03-04T14:12:50Z</time><name>PT1304</name></trkpt>
<trkpt lat="52.035771" lon="05.803064"><ele>16.2</ele><time>2022-03-04T14:12:52Z</time><name>PT1305</name></trkpt>
<trkpt lat="52.035778" lon="05.803060"><ele>16.3</ele><time>2022-03-04T14:12:52Z</time><name>PT1306</name></trkpt>
<trkpt lat="52.035786" lon="05.803056"><ele>16.3</ele><time>2022-03-04T14:12:53Z</time><name>PT1307</name></trkpt>
<trkpt lat="52.035796" lon="05.803050"><ele>16.4</ele><time>2022-03-04T14:12:55Z</time><name>PT1308</name></trkpt>
<trkpt lat="52.035807" lon="05.803041"><ele>16.5</ele><time>2022-03-04T14:12:55Z</time><name>PT1309</name></trkpt>
<trkpt lat="52.035823" lon="05.803031"><ele>16.5</ele><time>2022-03-04T14:12:56Z</time><name>PT1310</name></trkpt>
<trkpt lat="52.035840" lon="05.803019"><ele>16.6</ele><time>2022-03-04T14:12:58Z</time><name>PT1311</name></trkpt>
<trkpt lat="52.035856" lon="05.803008"><ele>16.6</ele><time>2022-03-04T14:12:58Z</time><name>PT1312</name></trkpt>
<trkpt lat="52.035870" lon="05.803003"><ele>16.5</ele><time>2022-03-04T14:12:59Z</time><name>PT1313</name></trkpt>
<trkpt lat="52.035882" lon="05.803001"><ele>16.6</ele><time>2022-03-04T14:13:01Z</time><name>PT1314</name></trkpt>
<trkpt lat="52.035891" lon="05.802995"><ele>16.5</ele><time>2022-03-04T14:13:01Z</time><name>PT1315</name></trkpt>
<trkpt lat="52.035897" lon="05.802990"><ele>16.6</ele><time>2022-03-04T14:13:02Z</time><name>PT1316</name></trkpt>
<trkpt lat="52.035902" lon="05.802987"><ele>16.9</ele><time>2022-03-04T14:13:04Z</time><name>PT1317</name></trkpt>
<trkpt lat="52.035907" lon="05.802983"><ele>17</ele><time>2022-03-04T14:13:04Z</time><name>PT1318</name></trkpt>
<trkpt lat="52.035915" lon="05.802976"><ele>17</ele><time>2022-03-04T14:13:05Z</time><name>PT1319</name></trkpt>
<trkpt lat="52.035926" lon="05.802969"><ele>17.3</ele><time>2022-03-04T14:13:07Z</time><name>PT1320</name></trkpt>
<trkpt lat="52.035940" lon="05.802961"><ele>17.3</ele><time>2022-03-04T14:13:07Z</time><name>PT1321</name></trkpt>
<trkpt lat="52.035957" lon="05.802950"><ele>17.4</ele><time>2022-03-04T14:13:08Z</time><name>PT1322</name></trkpt>
<trkpt lat="52.035972" lon="05.802943"><ele>17.4</ele><time>2022-03-04T14:13:10Z</time><name>PT1323</name></trkpt>
<trkpt lat="52.035985" lon="05.802938"><ele>17.5</ele><time>2022-03-04T14:13:10Z</time><name>PT1324</name></trkpt>
<trkpt lat="52.035993" lon="05.802931"><ele>17.5</ele><time>2022-03-04T14:13:11Z</time><name>PT1325</name></trkpt>
<trkpt lat="52.035999" lon="05.802930"><ele>17.7</ele><time>2022-03-04T14:13:13Z</time><name>PT1326</name></trkpt>
<trkpt lat="52.036005" lon="05.802930"><ele>17.7</ele><time>2022-03-04T14:13:13Z</time><name>PT1327</name></trkpt>
<trkpt lat="52.036010" lon="05.802928"><ele>17.8</ele><time>2022-03-04T14:13:14Z</time><name>PT1328</name></trkpt>
<trkpt lat="52.036017" lon="05.802924"><ele>17.7</ele><time>2022-03-04T14:13:16Z</time><name>PT1329</name></trkpt>
<trkpt lat="52.036027" lon="05.802917"><ele>17.7</ele><time>2022-03-04T14:13:16Z</time><name>PT1330</name></trkpt>
<trkpt lat="52.036037" lon="05.802907"><ele>17.6</ele><time>2022-03-04T14:13:17Z</time><name>PT1331</name></trkpt>
<trkpt lat="52.036050" lon="05.802895"><ele>17.6</ele><time>2022-03-04T14:13:19Z</time><name>PT1332</name></trkpt>
<trkpt lat="52.036066" lon="05.802882"><ele>17.7</ele><time>2022-03-04T14:13:19Z</time><name>PT1333</name></trkpt>
<trkpt lat="52.036082" lon="05.802870"><ele>17.8</ele><time>2022-03-04T14:13:20Z</time><name>PT1334</name></trkpt>
<trkpt lat="52.036098" lon="05.802860"><ele>17.9</ele><time>2022-03-04T14:13:22Z</time><name>PT1335</name></trkpt>
<trkpt lat="52.036112" lon="05.802852"><ele>17.8</ele><time>2022-03-04T14:13:22Z</time><name>PT1336</name></trkpt>
<trkpt lat="52.036122" lon="05.802845"><ele>17.9</ele><time>2022-03-04T14:13:23Z</time><name>PT1337</name></trkpt>
<trkpt lat="52.036130" lon="05.802839"><ele>18</ele><time>2022-03-04T14:13:25Z</time><name>PT1338</name></trkpt>
<trkpt lat="52.036136" lon="05.802837"><ele>18</ele><time>2022-03-04T14:13:25Z</time><name>PT1339</name></trkpt>
<trkpt lat="52.036143" lon="05.802834"><ele>18.2</ele><time>2022-03-04T14:13:26Z</time><name>PT1340</name></trkpt>
<trkpt lat="52.036151" lon="05.802829"><ele>18.4</ele><time>2022-03-04T14:13:28Z</time><name>PT1341</name></trkpt>
<trkpt lat="52.036159" lon="05.802822"><ele>18.5</ele><time>2022-03-04T14:13:28Z</time><name>PT1342</name></trkpt>
<trkpt lat="52.036168" lon="05.802818"><ele>18.4</ele><time>2022-03-04T14:13:29Z</time><name>PT1343</name></trkpt>
<trkpt lat="52.036179" lon="05.802809"><ele>18.5</ele><time>2022-03-04T14:13:31Z</time><name>PT1344</name></trkpt>
<trkpt lat="52.036197" lon="05.802797"><ele>18.4</ele><time>2022-03-04T14:13:31Z</time><name>PT1345</name></trkpt>
<trkpt lat="52.036208" lon="05.802788"><ele>18.5</ele><time>2022-03-04T14:13:32Z</time><name>PT1346</name></trkpt>
<trkpt lat="52.036217" lon="05.802785"><ele>18.5</ele><time>2022-03-04T14:13:34Z</time><name>PT1347</name></trkpt>
<trkpt lat="52.036227" lon="05.802786"><ele>18.5</ele><time>2022-03-04T14:13:34Z</time><name>PT1348</name></trkpt>
<trkpt lat="52.036234" lon="05.802782"><ele>18.5</ele><time>2022-03-04T14:13:35Z</time><name>PT1349</name></trkpt>
<trkpt lat="52.036241" lon="05.802776"><ele>18.5</ele><time>2022-03-04T14:13:37Z</time><name>PT1350</name></trkpt>
<trkpt lat="52.036248" lon="05.802773"><ele>18.4</ele><time>2022-03-04T14:13:37Z</time><name>PT1351</name></trkpt>
<trkpt lat="52.036257" lon="05.802766"><ele>18.3</ele><time>2022-03-04T14:13:38Z</time><name>PT1352</name></trkpt>
<trkpt lat="52.036268" lon="05.802757"><ele>18.3</ele><time>2022-03-04T14:13:40Z</time><name>PT1353</name></trkpt>
<trkpt lat="52.036281" lon="05.802746"><ele>18.2</ele><time>2022-03-04T14:13:40Z</time><name>PT1354</name></trkpt>
<trkpt lat="52.036295" lon="05.802736"><ele>18.1</ele><time>2022-03-04T14:13:41Z</time><name>PT1355</name></trkpt>
<trkpt lat="52.036307" lon="05.802731"><ele>18.3</ele><time>2022-03-04T14:13:43Z</time><name>PT1356</name></trkpt>
<trkpt lat="52.036315" lon="05.802727"><ele>18.2</ele><time>2022-03-04T14:13:43Z</time><name>PT1357</name></trkpt>
<trkpt lat="52.036322" lon="05.802724"><ele>18.2</ele><time>2022-03-04T14:13:44Z</time><name>PT1358</name></trkpt>
<trkpt lat="52.036328" lon="05.802723"><ele>18.4</ele><time>2022-03-04T14:13:46Z</time><name>PT1359</name></trkpt>
<trkpt lat="52.036335" lon="05.802720"><ele>18.5</ele><time>2022-03-04T14:13:46Z</time><name>PT1360</name></trkpt>
<trkpt lat="52.036345" lon="05.802713"><ele>18.4</ele><time>2022-03-04T14:13:47Z</time><name>PT1361</name></trkpt>
<trkpt lat="52.036357" lon="05.802702"><ele>18.4</ele><time>2022-03-04T14:13:49Z</time><name>PT1362</name></trkpt>
<trkpt lat="52.036370" lon="05.802693"><ele>18.4</ele><time>2022-03-04T14:13:49Z</time><name>PT1363</name></trkpt>
<trkpt lat="52.036386" lon="05.802686"><ele>18.3</ele><time>2022-03-04T14:13:50Z</time><name>PT1364</name></trkpt>
<trkpt lat="52.036400" lon="05.802679"><ele>18.4</ele><time>2022-03-04T14:13:52Z</time><name>PT1365</name></trkpt>
<trkpt lat="52.036412" lon="05.802672"><ele>18.5</ele><time>2022-03-04T14:13:52Z</time><name>PT1366</name></trkpt>
<trkpt lat="52.036421" lon="05.802667"><ele>18.4</ele><time>2022-03-04T14:13:53Z</time><name>PT1367</name></trkpt>
<trkpt lat="52.036428" lon="05.802660"><ele>18.5</ele><time>2022-03-04T14:13:55Z</time><name>PT1368</name></trkpt>
<trkpt lat="52.036436" lon="05.802652"><ele>18.6</ele><time>2022-03-04T14:13:55Z</time><name>PT1369</name></trkpt>
<trkpt lat="52.036444" lon="05.802646"><ele>18.6</ele><time>2022-03-04T14:13:56Z</time><name>PT1370</name></trkpt>
<trkpt lat="52.036453" lon="05.802640"><ele>18.6</ele><time>2022-03-04T14:13:58Z</time><name>PT1371</name></trkpt>
<trkpt lat="52.036464" lon="05.802630"><ele>18.7</ele><time>2022-03-04T14:13:58Z</time><name>PT1372</name></trkpt>
<trkpt lat="52.036477" lon="05.802618"><ele>18.5</ele><time>2022-03-04T14:13:59Z</time><name>PT1373</name></trkpt>
<trkpt lat="52.036493" lon="05.802608"><ele>18.4</ele><time>2022-03-04T14:14:01Z</time><name>PT1374</name></trkpt>
<trkpt lat="52.036507" lon="05.802598"><ele>18.3</ele><time>2022-03-04T14:14:01Z</time><name>PT1375</name></trkpt>
<trkpt lat="52.036517" lon="05.802587"><ele>18.2</ele><time>2022-03-04T14:14:02Z</time><name>PT1376</name></trkpt>
<trkpt lat="52.036519" lon="05.802584"><ele>18.3</ele><time>2022-03-04T14:14:04Z</time><name>PT1377</name></trkpt>
<trkpt lat="52.036518" lon="05.802582"><ele>18.4</ele><time>2022-03-04T14:14:04Z</time><name>PT1378</name></trkpt>
<trkpt lat="52.036524" lon="05.802572"><ele>18.4</ele><time>2022-03-04T14:14:06Z</time><name>PT1379</name></trkpt>
<trkpt lat="52.036531" lon="05.802561"><ele>18.6</ele><time>2022-03-04T14:14:07Z</time><name>PT1380</name></trkpt>
<trkpt lat="52.036538" lon="05.802550"><ele>18.7</ele><time>2022-03-04T14:14:07Z</time><name>PT1381</name></trkpt>
<trkpt lat="52.036547" lon="05.802539"><ele>18.7</ele><time>2022-03-04T14:14:08Z</time><name>PT1382</name></trkpt>
<trkpt lat="52.036556" lon="05.802528"><ele>18.7</ele><time>2022-03-04T14:14:10Z</time><name>PT1383</name></trkpt>
<trkpt lat="52.036566" lon="05.802518"><ele>18.8</ele><time>2022-03-04T14:14:10Z</time><name>PT1384</name></trkpt>
<trkpt lat="52.036577" lon="05.802510"><ele>18.8</ele><time>2022-03-04T14:14:11Z</time><name>PT1385</name></trkpt>
<trkpt lat="52.036588" lon="05.802502"><ele>18.9</ele><time>2022-03-04T14:14:13Z</time><name>PT1386</name></trkpt>
<trkpt lat="52.036598" lon="05.802496"><ele>18.9</ele><time>2022-03-04T14:14:13Z</time><name>PT1387</name></trkpt>
<trkpt lat="52.036605" lon="05.802495"><ele>18.9</ele><time>2022-03-04T14:14:14Z</time><name>PT1388</name></trkpt>
<trkpt lat="52.036611" lon="05.802493"><ele>18.7</ele><time>2022-03-04T14:14:16Z</time><name>PT1389</name></trkpt>
<trkpt lat="52.036618" lon="05.802491"><ele>18.5</ele><time>2022-03-04T14:14:16Z</time><name>PT1390</name></trkpt>
<trkpt lat="52.036625" lon="05.802486"><ele>18.3</ele><time>2022-03-04T14:14:17Z</time><name>PT1391</name></trkpt>
<trkpt lat="52.036634" lon="05.802478"><ele>18</ele><time>2022-03-04T14:14:19Z</time><name>PT1392</name></trkpt>
<trkpt lat="52.036644" lon="05.802468"><ele>18</ele><time>2022-03-04T14:14:19Z</time><name>PT1393</name></trkpt>
<trkpt lat="52.036653" lon="05.802463"><ele>17.8</ele><time>2022-03-04T14:14:20Z</time><name>PT1394</name></trkpt>
<trkpt lat="52.036657" lon="05.802462"><ele>17.9</ele><time>2022-03-04T14:14:22Z</time><name>PT1395</name></trkpt>
<trkpt lat="52.036659" lon="05.802463"><ele>17.8</ele><time>2022-03-04T14:14:22Z</time><name>PT1396</name></trkpt>
<trkpt lat="52.036660" lon="05.802462"><ele>17.8</ele><time>2022-03-04T14:14:23Z</time><name>PT1397</name></trkpt>
<trkpt lat="52.036665" lon="05.802459"><ele>18.1</ele><time>2022-03-04T14:14:46Z</time><name>PT1398</name></trkpt>
<trkpt lat="52.036665" lon="05.802457"><ele>18.2</ele><time>2022-03-04T14:14:47Z</time><name>PT1399</name></trkpt>
<trkpt lat="52.036661" lon="05.802453"><ele>18.3</ele><time>2022-03-04T14:14:49Z</time><name>PT1400</name></trkpt>
<trkpt lat="52.036662" lon="05.802452"><ele>18.2</ele><time>2022-03-04T14:14:49Z</time><name>PT1401</name></trkpt>
<trkpt lat="52.036665" lon="05.802451"><ele>18.2</ele><time>2022-03-04T14:14:50Z</time><name>PT1402</name></trkpt>
<trkpt lat="52.036667" lon="05.802449"><ele>18.2</ele><time>2022-03-04T14:14:52Z</time><name>PT1403</name></trkpt>
<trkpt lat="52.036668" lon="05.802448"><ele>18.3</ele><time>2022-03-04T14:14:52Z</time><name>PT1404</name></trkpt>
<trkpt lat="52.036671" lon="05.802448"><ele>18.1</ele><time>2022-03-04T14:14:53Z</time><name>PT1405</name></trkpt>
<trkpt lat="52.036678" lon="05.802443"><ele>18.3</ele><time>2022-03-04T14:14:55Z</time><name>PT1406</name></trkpt>
<trkpt lat="52.036683" lon="05.802438"><ele>18.3</ele><time>2022-03-04T14:14:55Z</time><name>PT1407</name></trkpt>
<trkpt lat="52.036691" lon="05.802436"><ele>18.3</ele><time>2022-03-04T14:14:56Z</time><name>PT1408</name></trkpt>
<trkpt lat="52.036695" lon="05.802434"><ele>18.3</ele><time>2022-03-04T14:14:58Z</time><name>PT1409</name></trkpt>
<trkpt lat="52.036700" lon="05.802426"><ele>18.4</ele><time>2022-03-04T14:14:58Z</time><name>PT1410</name></trkpt>
<trkpt lat="52.036707" lon="05.802422"><ele>18.4</ele><time>2022-03-04T14:14:59Z</time><name>PT1411</name></trkpt>
<trkpt lat="52.036713" lon="05.802417"><ele>18.4</ele><time>2022-03-04T14:15:01Z</time><name>PT1412</name></trkpt>
<trkpt lat="52.036721" lon="05.802412"><ele>18.4</ele><time>2022-03-04T14:15:01Z</time><name>PT1413</name></trkpt>
<trkpt lat="52.036727" lon="05.802408"><ele>18.5</ele><time>2022-03-04T14:15:02Z</time><name>PT1414</name></trkpt>
<trkpt lat="52.036733" lon="05.802406"><ele>18.4</ele><time>2022-03-04T14:15:04Z</time><name>PT1415</name></trkpt>
<trkpt lat="52.036738" lon="05.802406"><ele>18.4</ele><time>2022-03-04T14:15:04Z</time><name>PT1416</name></trkpt>
<trkpt lat="52.036743" lon="05.802401"><ele>18.4</ele><time>2022-03-04T14:15:05Z</time><name>PT1417</name></trkpt>
<trkpt lat="52.036748" lon="05.802398"><ele>18.4</ele><time>2022-03-04T14:15:07Z</time><name>PT1418</name></trkpt>
<trkpt lat="52.036754" lon="05.802395"><ele>18.4</ele><time>2022-03-04T14:15:07Z</time><name>PT1419</name></trkpt>
<trkpt lat="52.036760" lon="05.802391"><ele>18.6</ele><time>2022-03-04T14:15:08Z</time><name>PT1420</name></trkpt>
<trkpt lat="52.036760" lon="05.802391"><ele>18.6</ele><time>2022-03-04T14:15:10Z</time><name>PT1421</name></trkpt>
<trkpt lat="52.036759" lon="05.802392"><ele>18.6</ele><time>2022-03-04T14:15:10Z</time><name>PT1422</name></trkpt>
<trkpt lat="52.036762" lon="05.802387"><ele>18.6</ele><time>2022-03-04T14:15:11Z</time><name>PT1423</name></trkpt>
<trkpt lat="52.036766" lon="05.802382"><ele>18.5</ele><time>2022-03-04T14:15:13Z</time><name>PT1424</name></trkpt>
<trkpt lat="52.036771" lon="05.802377"><ele>18.5</ele><time>2022-03-04T14:15:13Z</time><name>PT1425</name></trkpt>
<trkpt lat="52.036779" lon="05.802369"><ele>18.5</ele><time>2022-03-04T14:15:14Z</time><name>PT1426</name></trkpt>
<trkpt lat="52.036787" lon="05.802363"><ele>18.7</ele><time>2022-03-04T14:15:16Z</time><name>PT1427</name></trkpt>
<trkpt lat="52.036796" lon="05.802357"><ele>18.5</ele><time>2022-03-04T14:15:16Z</time><name>PT1428</name></trkpt>
<trkpt lat="52.036805" lon="05.802353"><ele>18.4</ele><time>2022-03-04T14:15:17Z</time><name>PT1429</name></trkpt>
<trkpt lat="52.036814" lon="05.802350"><ele>18.2</ele><time>2022-03-04T14:15:19Z</time><name>PT1430</name></trkpt>
<trkpt lat="52.036820" lon="05.802352"><ele>18.2</ele><time>2022-03-04T14:15:19Z</time><name>PT1431</name></trkpt>
<trkpt lat="52.036820" lon="05.802352"><ele>18</ele><time>2022-03-04T14:15:20Z</time><name>PT1432</name></trkpt>
<trkpt lat="52.036819" lon="05.802352"><ele>18</ele><time>2022-03-04T14:15:22Z</time><name>PT1433</name></trkpt>
<trkpt lat="52.036820" lon="05.802351"><ele>18.1</ele><time>2022-03-04T14:15:22Z</time><name>PT1434</name></trkpt>
<trkpt lat="52.036824" lon="05.802349"><ele>18</ele><time>2022-03-04T14:15:26Z</time><name>PT1435</name></trkpt>
<trkpt lat="52.036833" lon="05.802340"><ele>17.9</ele><time>2022-03-04T14:15:28Z</time><name>PT1436</name></trkpt>
<trkpt lat="52.036843" lon="05.802329"><ele>18</ele><time>2022-03-04T14:15:28Z</time><name>PT1437</name></trkpt>
<trkpt lat="52.036852" lon="05.802315"><ele>18.1</ele><time>2022-03-04T14:15:29Z</time><name>PT1438</name></trkpt>
<trkpt lat="52.036861" lon="05.802305"><ele>18.2</ele><time>2022-03-04T14:15:31Z</time><name>PT1439</name></trkpt>
<trkpt lat="52.036870" lon="05.802296"><ele>18.3</ele><time>2022-03-04T14:15:31Z</time><name>PT1440</name></trkpt>
<trkpt lat="52.036879" lon="05.802289"><ele>18.4</ele><time>2022-03-04T14:15:32Z</time><name>PT1441</name></trkpt>
<trkpt lat="52.036889" lon="05.802282"><ele>18.1</ele><time>2022-03-04T14:15:34Z</time><name>PT1442</name></trkpt>
<trkpt lat="52.036898" lon="05.802273"><ele>18</ele><time>2022-03-04T14:15:34Z</time><name>PT1443</name></trkpt>
<trkpt lat="52.036907" lon="05.802266"><ele>17.9</ele><time>2022-03-04T14:15:35Z</time><name>PT1444</name></trkpt>
<trkpt lat="52.036916" lon="05.802257"><ele>17.9</ele><time>2022-03-04T14:15:37Z</time><name>PT1445</name></trkpt>
<trkpt lat="52.036925" lon="05.802251"><ele>17.9</ele><time>2022-03-04T14:15:37Z</time><name>PT1446</name></trkpt>
<trkpt lat="52.036935" lon="05.802244"><ele>18</ele><time>2022-03-04T14:15:39Z</time><name>PT1447</name></trkpt>
<trkpt lat="52.036946" lon="05.802237"><ele>17.9</ele><time>2022-03-04T14:15:40Z</time><name>PT1448</name></trkpt>
<trkpt lat="52.036955" lon="05.802229"><ele>17.9</ele><time>2022-03-04T14:15:40Z</time><name>PT1449</name></trkpt>
<trkpt lat="52.036964" lon="05.802221"><ele>17.9</ele><time>2022-03-04T14:15:41Z</time><name>PT1450</name></trkpt>
<trkpt lat="52.036973" lon="05.802212"><ele>17.8</ele><time>2022-03-04T14:15:43Z</time><name>PT1451</name></trkpt>
<trkpt lat="52.036983" lon="05.802203"><ele>17.6</ele><time>2022-03-04T14:15:43Z</time><name>PT1452</name></trkpt>
<trkpt lat="52.036993" lon="05.802196"><ele>17.6</ele><time>2022-03-04T14:15:44Z</time><name>PT1453</name></trkpt>
<trkpt lat="52.037002" lon="05.802187"><ele>17.7</ele><time>2022-03-04T14:15:46Z</time><name>PT1454</name></trkpt>
<trkpt lat="52.037012" lon="05.802179"><ele>17.7</ele><time>2022-03-04T14:15:46Z</time><name>PT1455</name></trkpt>
<trkpt lat="52.037024" lon="05.802170"><ele>17.8</ele><time>2022-03-04T14:15:47Z</time><name>PT1456</name></trkpt>
<trkpt lat="52.037035" lon="05.802162"><ele>18</ele><time>2022-03-04T14:15:49Z</time><name>PT1457</name></trkpt>
<trkpt lat="52.037045" lon="05.802152"><ele>18.1</ele><time>2022-03-04T14:15:49Z</time><name>PT1458</name></trkpt>
<trkpt lat="52.037054" lon="05.802143"><ele>18</ele><time>2022-03-04T14:15:50Z</time><name>PT1459</name></trkpt>
<trkpt lat="52.037064" lon="05.802137"><ele>17.9</ele><time>2022-03-04T14:15:52Z</time><name>PT1460</name></trkpt>
<trkpt lat="52.037072" lon="05.802133"><ele>17.9</ele><time>2022-03-04T14:15:52Z</time><name>PT1461</name></trkpt>
<trkpt lat="52.037079" lon="05.802128"><ele>17.8</ele><time>2022-03-04T14:15:53Z</time><name>PT1462</name></trkpt>
<trkpt lat="52.037087" lon="05.802125"><ele>17.8</ele><time>2022-03-04T14:15:55Z</time><name>PT1463</name></trkpt>
<trkpt lat="52.037096" lon="05.802124"><ele>17.7</ele><time>2022-03-04T14:15:55Z</time><name>PT1464</name></trkpt>
<trkpt lat="52.037106" lon="05.802122"><ele>17.6</ele><time>2022-03-04T14:15:56Z</time><name>PT1465</name></trkpt>
<trkpt lat="52.037114" lon="05.802122"><ele>17.7</ele><time>2022-03-04T14:15:58Z</time><name>PT1466</name></trkpt>
<trkpt lat="52.037122" lon="05.802119"><ele>17.8</ele><time>2022-03-04T14:15:58Z</time><name>PT1467</name></trkpt>
<trkpt lat="52.037131" lon="05.802113"><ele>17.7</ele><time>2022-03-04T14:15:59Z</time><name>PT1468</name></trkpt>
<trkpt lat="52.037139" lon="05.802105"><ele>17.7</ele><time>2022-03-04T14:16:01Z</time><name>PT1469</name></trkpt>
<trkpt lat="52.037147" lon="05.802098"><ele>17.7</ele><time>2022-03-04T14:16:01Z</time><name>PT1470</name></trkpt>
<trkpt lat="52.037155" lon="05.802093"><ele>17.5</ele><time>2022-03-04T14:16:02Z</time><name>PT1471</name></trkpt>
<trkpt lat="52.037164" lon="05.802089"><ele>17.5</ele><time>2022-03-04T14:16:04Z</time><name>PT1472</name></trkpt>
<trkpt lat="52.037172" lon="05.802086"><ele>17.4</ele><time>2022-03-04T14:16:04Z</time><name>PT1473</name></trkpt>
<trkpt lat="52.037179" lon="05.802081"><ele>17.2</ele><time>2022-03-04T14:16:05Z</time><name>PT1474</name></trkpt>
<trkpt lat="52.037186" lon="05.802074"><ele>17.2</ele><time>2022-03-04T14:16:07Z</time><name>PT1475</name></trkpt>
<trkpt lat="52.037193" lon="05.802073"><ele>17.3</ele><time>2022-03-04T14:16:07Z</time><name>PT1476</name></trkpt>
<trkpt lat="52.037200" lon="05.802071"><ele>17.5</ele><time>2022-03-04T14:16:08Z</time><name>PT1477</name></trkpt>
<trkpt lat="52.037208" lon="05.802067"><ele>17.4</ele><time>2022-03-04T14:16:10Z</time><name>PT1478</name></trkpt>
<trkpt lat="52.037213" lon="05.802064"><ele>17.5</ele><time>2022-03-04T14:16:10Z</time><name>PT1479</name></trkpt>
<trkpt lat="52.037220" lon="05.802061"><ele>17.5</ele><time>2022-03-04T14:16:11Z</time><name>PT1480</name></trkpt>
<trkpt lat="52.037229" lon="05.802055"><ele>17.5</ele><time>2022-03-04T14:16:13Z</time><name>PT1481</name></trkpt>
<trkpt lat="52.037238" lon="05.802049"><ele>17.5</ele><time>2022-03-04T14:16:13Z</time><name>PT1482</name></trkpt>
<trkpt lat="52.037248" lon="05.802043"><ele>17.7</ele><time>2022-03-04T14:16:14Z</time><name>PT1483</name></trkpt>
<trkpt lat="52.037256" lon="05.802036"><ele>17.5</ele><time>2022-03-04T14:16:16Z</time><name>PT1484</name></trkpt>
<trkpt lat="52.037264" lon="05.802028"><ele>17.5</ele><time>2022-03-04T14:16:16Z</time><name>PT1485</name></trkpt>
<trkpt lat="52.037273" lon="05.802021"><ele>17.4</ele><time>2022-03-04T14:16:17Z</time><name>PT1486</name></trkpt>
<trkpt lat="52.037282" lon="05.802017"><ele>17.4</ele><time>2022-03-04T14:16:19Z</time><name>PT1487</name></trkpt>
<trkpt lat="52.037289" lon="05.802013"><ele>17.5</ele><time>2022-03-04T14:16:19Z</time><name>PT1488</name></trkpt>
<trkpt lat="52.037297" lon="05.802006"><ele>17.6</ele><time>2022-03-04T14:16:20Z</time><name>PT1489</name></trkpt>
<trkpt lat="52.037304" lon="05.801998"><ele>17.7</ele><time>2022-03-04T14:16:22Z</time><name>PT1490</name></trkpt>
<trkpt lat="52.037312" lon="05.801993"><ele>17.8</ele><time>2022-03-04T14:16:22Z</time><name>PT1491</name></trkpt>
<trkpt lat="52.037321" lon="05.801989"><ele>17.8</ele><time>2022-03-04T14:16:23Z</time><name>PT1492</name></trkpt>
<trkpt lat="52.037330" lon="05.801984"><ele>17.9</ele><time>2022-03-04T14:16:25Z</time><name>PT1493</name></trkpt>
<trkpt lat="52.037338" lon="05.801978"><ele>18</ele><time>2022-03-04T14:16:25Z</time><name>PT1494</name></trkpt>
<trkpt lat="52.037348" lon="05.801969"><ele>18</ele><time>2022-03-04T14:16:26Z</time><name>PT1495</name></trkpt>
<trkpt lat="52.037358" lon="05.801961"><ele>18</ele><time>2022-03-04T14:16:28Z</time><name>PT1496</name></trkpt>
<trkpt lat="52.037369" lon="05.801952"><ele>18.1</ele><time>2022-03-04T14:16:28Z</time><name>PT1497</name></trkpt>
<trkpt lat="52.037378" lon="05.801945"><ele>18.1</ele><time>2022-03-04T14:16:29Z</time><name>PT1498</name></trkpt>
<trkpt lat="52.037387" lon="05.801940"><ele>18</ele><time>2022-03-04T14:16:31Z</time><name>PT1499</name></trkpt>
<trkpt lat="52.037398" lon="05.801936"><ele>17.9</ele><time>2022-03-04T14:16:31Z</time><name>PT1500</name></trkpt>
<trkpt lat="52.037408" lon="05.801932"><ele>17.9</ele><time>2022-03-04T14:16:32Z</time><name>PT1501</name></trkpt>
<trkpt lat="52.037418" lon="05.801926"><ele>17.9</ele><time>2022-03-04T14:16:34Z</time><name>PT1502</name></trkpt>
<trkpt lat="52.037430" lon="05.801920"><ele>17.8</ele><time>2022-03-04T14:16:34Z</time><name>PT1503</name></trkpt>
<trkpt lat="52.037439" lon="05.801913"><ele>17.9</ele><time>2022-03-04T14:16:35Z</time><name>PT1504</name></trkpt>
<trkpt lat="52.037449" lon="05.801905"><ele>18</ele><time>2022-03-04T14:16:37Z</time><name>PT1505</name></trkpt>
<trkpt lat="52.037458" lon="05.801898"><ele>17.9</ele><time>2022-03-04T14:16:37Z</time><name>PT1506</name></trkpt>
<trkpt lat="52.037467" lon="05.801892"><ele>17.8</ele><time>2022-03-04T14:16:38Z</time><name>PT1507</name></trkpt>
<trkpt lat="52.037475" lon="05.801886"><ele>17.9</ele><time>2022-03-04T14:16:40Z</time><name>PT1508</name></trkpt>
<trkpt lat="52.037483" lon="05.801879"><ele>17.9</ele><time>2022-03-04T14:16:40Z</time><name>PT1509</name></trkpt>
<trkpt lat="52.037493" lon="05.801870"><ele>17.7</ele><time>2022-03-04T14:16:41Z</time><name>PT1510</name></trkpt>
<trkpt lat="52.037503" lon="05.801863"><ele>17.9</ele><time>2022-03-04T14:16:43Z</time><name>PT1511</name></trkpt>
<trkpt lat="52.037515" lon="05.801857"><ele>18</ele><time>2022-03-04T14:16:43Z</time><name>PT1512</name></trkpt>
<trkpt lat="52.037526" lon="05.801852"><ele>18</ele><time>2022-03-04T14:16:44Z</time><name>PT1513</name></trkpt>
<trkpt lat="52.037536" lon="05.801846"><ele>18</ele><time>2022-03-04T14:16:46Z</time><name>PT1514</name></trkpt>
<trkpt lat="52.037545" lon="05.801839"><ele>17.9</ele><time>2022-03-04T14:16:46Z</time><name>PT1515</name></trkpt>
<trkpt lat="52.037555" lon="05.801833"><ele>17.9</ele><time>2022-03-04T14:16:47Z</time><name>PT1516</name></trkpt>
<trkpt lat="52.037565" lon="05.801825"><ele>17.8</ele><time>2022-03-04T14:16:49Z</time><name>PT1517</name></trkpt>
<trkpt lat="52.037575" lon="05.801815"><ele>17.8</ele><time>2022-03-04T14:16:49Z</time><name>PT1518</name></trkpt>
<trkpt lat="52.037584" lon="05.801806"><ele>17.8</ele><time>2022-03-04T14:16:50Z</time><name>PT1519</name></trkpt>
<trkpt lat="52.037593" lon="05.801799"><ele>18</ele><time>2022-03-04T14:16:52Z</time><name>PT1520</name></trkpt>
<trkpt lat="52.037601" lon="05.801792"><ele>17.9</ele><time>2022-03-04T14:16:52Z</time><name>PT1521</name></trkpt>
<trkpt lat="52.037610" lon="05.801788"><ele>17.9</ele><time>2022-03-04T14:16:53Z</time><name>PT1522</name></trkpt>
<trkpt lat="52.037621" lon="05.801782"><ele>17.8</ele><time>2022-03-04T14:16:55Z</time><name>PT1523</name></trkpt>
<trkpt lat="52.037632" lon="05.801778"><ele>17.7</ele><time>2022-03-04T14:16:55Z</time><name>PT1524</name></trkpt>
<trkpt lat="52.037640" lon="05.801772"><ele>17.5</ele><time>2022-03-04T14:16:56Z</time><name>PT1525</name></trkpt>
<trkpt lat="52.037651" lon="05.801765"><ele>17.4</ele><time>2022-03-04T14:16:58Z</time><name>PT1526</name></trkpt>
<trkpt lat="52.037662" lon="05.801757"><ele>17.5</ele><time>2022-03-04T14:16:58Z</time><name>PT1527</name></trkpt>
<trkpt lat="52.037671" lon="05.801748"><ele>17.5</ele><time>2022-03-04T14:16:59Z</time><name>PT1528</name></trkpt>
<trkpt lat="52.037686" lon="05.801740"><ele>17.6</ele><time>2022-03-04T14:17:01Z</time><name>PT1529</name></trkpt>
<trkpt lat="52.037697" lon="05.801732"><ele>17.5</ele><time>2022-03-04T14:17:01Z</time><name>PT1530</name></trkpt>
<trkpt lat="52.037712" lon="05.801727"><ele>17.6</ele><time>2022-03-04T14:17:02Z</time><name>PT1531</name></trkpt>
<trkpt lat="52.037730" lon="05.801723"><ele>17.5</ele><time>2022-03-04T14:17:04Z</time><name>PT1532</name></trkpt>
<trkpt lat="52.037740" lon="05.801715"><ele>17.5</ele><time>2022-03-04T14:17:04Z</time><name>PT1533</name></trkpt>
<trkpt lat="52.037751" lon="05.801708"><ele>17.5</ele><time>2022-03-04T14:17:05Z</time><name>PT1534</name></trkpt>
<trkpt lat="52.037763" lon="05.801704"><ele>17.5</ele><time>2022-03-04T14:17:07Z</time><name>PT1535</name></trkpt>
<trkpt lat="52.037776" lon="05.801700"><ele>17.5</ele><time>2022-03-04T14:17:07Z</time><name>PT1536</name></trkpt>
<trkpt lat="52.037790" lon="05.801695"><ele>17.5</ele><time>2022-03-04T14:17:08Z</time><name>PT1537</name></trkpt>
<trkpt lat="52.037802" lon="05.801688"><ele>17.7</ele><time>2022-03-04T14:17:10Z</time><name>PT1538</name></trkpt>
<trkpt lat="52.037814" lon="05.801683"><ele>17.6</ele><time>2022-03-04T14:17:10Z</time><name>PT1539</name></trkpt>
<trkpt lat="52.037827" lon="05.801679"><ele>17.6</ele><time>2022-03-04T14:17:11Z</time><name>PT1540</name></trkpt>
<trkpt lat="52.037836" lon="05.801677"><ele>17.6</ele><time>2022-03-04T14:17:13Z</time><name>PT1541</name></trkpt>
<trkpt lat="52.037844" lon="05.801673"><ele>17.6</ele><time>2022-03-04T14:17:13Z</time><name>PT1542</name></trkpt>
<trkpt lat="52.037852" lon="05.801674"><ele>17.8</ele><time>2022-03-04T14:17:14Z</time><name>PT1543</name></trkpt>
<trkpt lat="52.037859" lon="05.801676"><ele>17.8</ele><time>2022-03-04T14:17:16Z</time><name>PT1544</name></trkpt>
<trkpt lat="52.037867" lon="05.801674"><ele>17.7</ele><time>2022-03-04T14:17:16Z</time><name>PT1545</name></trkpt>
<trkpt lat="52.037870" lon="05.801674"><ele>17.9</ele><time>2022-03-04T14:17:17Z</time><name>PT1546</name></trkpt>
<trkpt lat="52.037872" lon="05.801673"><ele>17.6</ele><time>2022-03-04T14:17:19Z</time><name>PT1547</name></trkpt>
<trkpt lat="52.037886" lon="05.801670"><ele>17.6</ele><time>2022-03-04T14:17:19Z</time><name>PT1548</name></trkpt>
<trkpt lat="52.037896" lon="05.801666"><ele>17.5</ele><time>2022-03-04T14:17:20Z</time><name>PT1549</name></trkpt>
<trkpt lat="52.037905" lon="05.801666"><ele>17.6</ele><time>2022-03-04T14:17:22Z</time><name>PT1550</name></trkpt>
<trkpt lat="52.037911" lon="05.801665"><ele>17.6</ele><time>2022-03-04T14:17:22Z</time><name>PT1551</name></trkpt>
<trkpt lat="52.037914" lon="05.801663"><ele>17.7</ele><time>2022-03-04T14:17:23Z</time><name>PT1552</name></trkpt>
<trkpt lat="52.037919" lon="05.801662"><ele>17.6</ele><time>2022-03-04T14:17:25Z</time><name>PT1553</name></trkpt>
<trkpt lat="52.037926" lon="05.801662"><ele>17.6</ele><time>2022-03-04T14:17:25Z</time><name>PT1554</name></trkpt>
<trkpt lat="52.037931" lon="05.801659"><ele>17.6</ele><time>2022-03-04T14:17:26Z</time><name>PT1555</name></trkpt>
<trkpt lat="52.037938" lon="05.801659"><ele>17.7</ele><time>2022-03-04T14:17:28Z</time><name>PT1556</name></trkpt>
<trkpt lat="52.037946" lon="05.801655"><ele>17.7</ele><time>2022-03-04T14:17:28Z</time><name>PT1557</name></trkpt>
<trkpt lat="52.037954" lon="05.801652"><ele>17.7</ele><time>2022-03-04T14:17:29Z</time><name>PT1558</name></trkpt>
<trkpt lat="52.037962" lon="05.801651"><ele>17.7</ele><time>2022-03-04T14:17:31Z</time><name>PT1559</name></trkpt>
<trkpt lat="52.037972" lon="05.801652"><ele>17.6</ele><time>2022-03-04T14:17:31Z</time><name>PT1560</name></trkpt>
<trkpt lat="52.037983" lon="05.801649"><ele>17.3</ele><time>2022-03-04T14:17:32Z</time><name>PT1561</name></trkpt>
<trkpt lat="52.037993" lon="05.801644"><ele>17.3</ele><time>2022-03-04T14:17:34Z</time><name>PT1562</name></trkpt>
<trkpt lat="52.038006" lon="05.801637"><ele>17.3</ele><time>2022-03-04T14:17:34Z</time><name>PT1563</name></trkpt>
<trkpt lat="52.038013" lon="05.801635"><ele>17.2</ele><time>2022-03-04T14:17:35Z</time><name>PT1564</name></trkpt>
<trkpt lat="52.038027" lon="05.801630"><ele>17.3</ele><time>2022-03-04T14:17:37Z</time><name>PT1565</name></trkpt>
<trkpt lat="52.038035" lon="05.801626"><ele>17.5</ele><time>2022-03-04T14:17:37Z</time><name>PT1566</name></trkpt>
<trkpt lat="52.038041" lon="05.801620"><ele>17.4</ele><time>2022-03-04T14:17:38Z</time><name>PT1567</name></trkpt>
<trkpt lat="52.038050" lon="05.801617"><ele>17.5</ele><time>2022-03-04T14:17:40Z</time><name>PT1568</name></trkpt>
<trkpt lat="52.038057" lon="05.801612"><ele>17.5</ele><time>2022-03-04T14:17:40Z</time><name>PT1569</name></trkpt>
<trkpt lat="52.038066" lon="05.801606"><ele>17.5</ele><time>2022-03-04T14:17:41Z</time><name>PT1570</name></trkpt>
<trkpt lat="52.038073" lon="05.801606"><ele>17.5</ele><time>2022-03-04T14:17:43Z</time><name>PT1571</name></trkpt>
<trkpt lat="52.038075" lon="05.801606"><ele>17.5</ele><time>2022-03-04T14:17:43Z</time><name>PT1572</name></trkpt>
<trkpt lat="52.038074" lon="05.801608"><ele>17.5</ele><time>2022-03-04T14:17:44Z</time><name>PT1573</name></trkpt>
<trkpt lat="52.038077" lon="05.801608"><ele>17.3</ele><time>2022-03-04T14:17:46Z</time><name>PT1574</name></trkpt>
<trkpt lat="52.038080" lon="05.801605"><ele>17.3</ele><time>2022-03-04T14:17:46Z</time><name>PT1575</name></trkpt>
<trkpt lat="52.038087" lon="05.801602"><ele>17.2</ele><time>2022-03-04T14:17:48Z</time><name>PT1576</name></trkpt>
<trkpt lat="52.038093" lon="05.801598"><ele>17.1</ele><time>2022-03-04T14:17:49Z</time><name>PT1577</name></trkpt>
<trkpt lat="52.038097" lon="05.801594"><ele>17.1</ele><time>2022-03-04T14:17:49Z</time><name>PT1578</name></trkpt>
<trkpt lat="52.038100" lon="05.801586"><ele>17.3</ele><time>2022-03-04T14:17:50Z</time><name>PT1579</name></trkpt>
<trkpt lat="52.038106" lon="05.801576"><ele>17.3</ele><time>2022-03-04T14:17:52Z</time><name>PT1580</name></trkpt>
<trkpt lat="52.038113" lon="05.801567"><ele>17.3</ele><time>2022-03-04T14:17:52Z</time><name>PT1581</name></trkpt>
<trkpt lat="52.038120" lon="05.801563"><ele>17.2</ele><time>2022-03-04T14:17:53Z</time><name>PT1582</name></trkpt>
<trkpt lat="52.038122" lon="05.801559"><ele>17</ele><time>2022-03-04T14:17:55Z</time><name>PT1583</name></trkpt>
<trkpt lat="52.038129" lon="05.801549"><ele>17</ele><time>2022-03-04T14:17:55Z</time><name>PT1584</name></trkpt>
<trkpt lat="52.038137" lon="05.801539"><ele>16.9</ele><time>2022-03-04T14:17:56Z</time><name>PT1585</name></trkpt>
<trkpt lat="52.038141" lon="05.801532"><ele>16.8</ele><time>2022-03-04T14:17:58Z</time><name>PT1586</name></trkpt>
<trkpt lat="52.038144" lon="05.801526"><ele>17</ele><time>2022-03-04T14:17:58Z</time><name>PT1587</name></trkpt>
<trkpt lat="52.038150" lon="05.801513"><ele>17.1</ele><time>2022-03-04T14:17:59Z</time><name>PT1588</name></trkpt>
<trkpt lat="52.038156" lon="05.801505"><ele>17.1</ele><time>2022-03-04T14:18:01Z</time><name>PT1589</name></trkpt>
<trkpt lat="52.038159" lon="05.801496"><ele>17</ele><time>2022-03-04T14:18:01Z</time><name>PT1590</name></trkpt>
<trkpt lat="52.038164" lon="05.801494"><ele>16.8</ele><time>2022-03-04T14:18:02Z</time><name>PT1591</name></trkpt>
<trkpt lat="52.038172" lon="05.801486"><ele>16.8</ele><time>2022-03-04T14:18:04Z</time><name>PT1592</name></trkpt>
<trkpt lat="52.038179" lon="05.801478"><ele>16.6</ele><time>2022-03-04T14:18:04Z</time><name>PT1593</name></trkpt>
<trkpt lat="52.038186" lon="05.801472"><ele>16.7</ele><time>2022-03-04T14:18:05Z</time><name>PT1594</name></trkpt>
<trkpt lat="52.038195" lon="05.801456"><ele>16.8</ele><time>2022-03-04T14:18:07Z</time><name>PT1595</name></trkpt>
<trkpt lat="52.038205" lon="05.801447"><ele>16.8</ele><time>2022-03-04T14:18:07Z</time><name>PT1596</name></trkpt>
<trkpt lat="52.038216" lon="05.801438"><ele>16.9</ele><time>2022-03-04T14:18:08Z</time><name>PT1597</name></trkpt>
<trkpt lat="52.038228" lon="05.801430"><ele>16.7</ele><time>2022-03-04T14:18:10Z</time><name>PT1598</name></trkpt>
<trkpt lat="52.038234" lon="05.801422"><ele>16.7</ele><time>2022-03-04T14:18:10Z</time><name>PT1599</name></trkpt>
<trkpt lat="52.038239" lon="05.801416"><ele>16.8</ele><time>2022-03-04T14:18:11Z</time><name>PT1600</name></trkpt>
<trkpt lat="52.038249" lon="05.801412"><ele>16.8</ele><time>2022-03-04T14:18:13Z</time><name>PT1601</name></trkpt>
<trkpt lat="52.038260" lon="05.801415"><ele>16.8</ele><time>2022-03-04T14:18:13Z</time><name>PT1602</name></trkpt>
<trkpt lat="52.038268" lon="05.801419"><ele>17</ele><time>2022-03-04T14:18:14Z</time><name>PT1603</name></trkpt>
<trkpt lat="52.038275" lon="05.801422"><ele>17.2</ele><time>2022-03-04T14:18:16Z</time><name>PT1604</name></trkpt>
<trkpt lat="52.038281" lon="05.801427"><ele>17.2</ele><time>2022-03-04T14:18:16Z</time><name>PT1605</name></trkpt>
<trkpt lat="52.038289" lon="05.801429"><ele>17.1</ele><time>2022-03-04T14:18:17Z</time><name>PT1606</name></trkpt>
<trkpt lat="52.038297" lon="05.801430"><ele>17.3</ele><time>2022-03-04T14:18:19Z</time><name>PT1607</name></trkpt>
<trkpt lat="52.038305" lon="05.801433"><ele>17.2</ele><time>2022-03-04T14:18:19Z</time><name>PT1608</name></trkpt>
<trkpt lat="52.038311" lon="05.801439"><ele>16.9</ele><time>2022-03-04T14:18:20Z</time><name>PT1609</name></trkpt>
<trkpt lat="52.038320" lon="05.801450"><ele>17</ele><time>2022-03-04T14:18:22Z</time><name>PT1610</name></trkpt>
<trkpt lat="52.038326" lon="05.801461"><ele>17</ele><time>2022-03-04T14:18:22Z</time><name>PT1611</name></trkpt>
<trkpt lat="52.038336" lon="05.801469"><ele>17</ele><time>2022-03-04T14:18:23Z</time><name>PT1612</name></trkpt>
<trkpt lat="52.038343" lon="05.801473"><ele>17</ele><time>2022-03-04T14:18:25Z</time><name>PT1613</name></trkpt>
<trkpt lat="52.038352" lon="05.801476"><ele>17.1</ele><time>2022-03-04T14:18:25Z</time><name>PT1614</name></trkpt>
<trkpt lat="52.038355" lon="05.801478"><ele>17</ele><time>2022-03-04T14:18:26Z</time><name>PT1615</name></trkpt>
<trkpt lat="52.038361" lon="05.801482"><ele>16.9</ele><time>2022-03-04T14:18:28Z</time><name>PT1616</name></trkpt>
<trkpt lat="52.038368" lon="05.801490"><ele>16.9</ele><time>2022-03-04T14:18:28Z</time><name>PT1617</name></trkpt>
<trkpt lat="52.038375" lon="05.801499"><ele>16.8</ele><time>2022-03-04T14:18:29Z</time><name>PT1618</name></trkpt>
<trkpt lat="52.038383" lon="05.801510"><ele>16.8</ele><time>2022-03-04T14:18:31Z</time><name>PT1619</name></trkpt>
<trkpt lat="52.038392" lon="05.801517"><ele>17</ele><time>2022-03-04T14:18:31Z</time><name>PT1620</name></trkpt>
<trkpt lat="52.038402" lon="05.801525"><ele>17</ele><time>2022-03-04T14:18:32Z</time><name>PT1621</name></trkpt>
<trkpt lat="52.038409" lon="05.801532"><ele>17</ele><time>2022-03-04T14:18:34Z</time><name>PT1622</name></trkpt>
<trkpt lat="52.038416" lon="05.801538"><ele>17.3</ele><time>2022-03-04T14:18:34Z</time><name>PT1623</name></trkpt>
<trkpt lat="52.038425" lon="05.801546"><ele>17.3</ele><time>2022-03-04T14:18:35Z</time><name>PT1624</name></trkpt>
<trkpt lat="52.038429" lon="05.801555"><ele>17.4</ele><time>2022-03-04T14:18:37Z</time><name>PT1625</name></trkpt>
<trkpt lat="52.038439" lon="05.801563"><ele>17.5</ele><time>2022-03-04T14:18:37Z</time><name>PT1626</name></trkpt>
<trkpt lat="52.038450" lon="05.801572"><ele>17.5</ele><time>2022-03-04T14:18:38Z</time><name>PT1627</name></trkpt>
<trkpt lat="52.038460" lon="05.801586"><ele>17.2</ele><time>2022-03-04T14:18:40Z</time><name>PT1628</name></trkpt>
<trkpt lat="52.038472" lon="05.801605"><ele>17.3</ele><time>2022-03-04T14:18:40Z</time><name>PT1629</name></trkpt>
<trkpt lat="52.038486" lon="05.801621"><ele>17.2</ele><time>2022-03-04T14:18:41Z</time><name>PT1630</name></trkpt>
<trkpt lat="52.038494" lon="05.801632"><ele>17</ele><time>2022-03-04T14:18:43Z</time><name>PT1631</name></trkpt>
<trkpt lat="52.038503" lon="05.801640"><ele>17</ele><time>2022-03-04T14:18:43Z</time><name>PT1632</name></trkpt>
<trkpt lat="52.038513" lon="05.801648"><ele>16.9</ele><time>2022-03-04T14:18:44Z</time><name>PT1633</name></trkpt>
<trkpt lat="52.038520" lon="05.801655"><ele>16.7</ele><time>2022-03-04T14:18:46Z</time><name>PT1634</name></trkpt>
<trkpt lat="52.038526" lon="05.801664"><ele>16.6</ele><time>2022-03-04T14:18:46Z</time><name>PT1635</name></trkpt>
<trkpt lat="52.038533" lon="05.801670"><ele>16.5</ele><time>2022-03-04T14:18:47Z</time><name>PT1636</name></trkpt>
<trkpt lat="52.038541" lon="05.801678"><ele>16.8</ele><time>2022-03-04T14:18:49Z</time><name>PT1637</name></trkpt>
<trkpt lat="52.038549" lon="05.801687"><ele>16.9</ele><time>2022-03-04T14:18:49Z</time><name>PT1638</name></trkpt>
<trkpt lat="52.038556" lon="05.801696"><ele>17</ele><time>2022-03-04T14:18:50Z</time><name>PT1639</name></trkpt>
<trkpt lat="52.038567" lon="05.801707"><ele>17.2</ele><time>2022-03-04T14:18:52Z</time><name>PT1640</name></trkpt>
<trkpt lat="52.038578" lon="05.801718"><ele>17.3</ele><time>2022-03-04T14:18:52Z</time><name>PT1641</name></trkpt>
<trkpt lat="52.038589" lon="05.801730"><ele>17.1</ele><time>2022-03-04T14:18:53Z</time><name>PT1642</name></trkpt>
<trkpt lat="52.038600" lon="05.801745"><ele>17.1</ele><time>2022-03-04T14:18:55Z</time><name>PT1643</name></trkpt>
<trkpt lat="52.038613" lon="05.801752"><ele>17</ele><time>2022-03-04T14:18:55Z</time><name>PT1644</name></trkpt>
<trkpt lat="52.038622" lon="05.801760"><ele>17</ele><time>2022-03-04T14:18:56Z</time><name>PT1645</name></trkpt>
<trkpt lat="52.038631" lon="05.801767"><ele>17</ele><time>2022-03-04T14:18:58Z</time><name>PT1646</name></trkpt>
<trkpt lat="52.038637" lon="05.801773"><ele>16.9</ele><time>2022-03-04T14:18:58Z</time><name>PT1647</name></trkpt>
<trkpt lat="52.038644" lon="05.801780"><ele>16.7</ele><time>2022-03-04T14:18:59Z</time><name>PT1648</name></trkpt>
<trkpt lat="52.038655" lon="05.801793"><ele>16.6</ele><time>2022-03-04T14:19:01Z</time><name>PT1649</name></trkpt>
<trkpt lat="52.038670" lon="05.801808"><ele>16.8</ele><time>2022-03-04T14:19:01Z</time><name>PT1650</name></trkpt>
<trkpt lat="52.038681" lon="05.801821"><ele>16.8</ele><time>2022-03-04T14:19:02Z</time><name>PT1651</name></trkpt>
<trkpt lat="52.038694" lon="05.801838"><ele>16.7</ele><time>2022-03-04T14:19:04Z</time><name>PT1652</name></trkpt>
<trkpt lat="52.038701" lon="05.801851"><ele>16.9</ele><time>2022-03-04T14:19:04Z</time><name>PT1653</name></trkpt>
<trkpt lat="52.038708" lon="05.801863"><ele>16.7</ele><time>2022-03-04T14:19:05Z</time><name>PT1654</name></trkpt>
<trkpt lat="52.038717" lon="05.801868"><ele>16.8</ele><time>2022-03-04T14:19:07Z</time><name>PT1655</name></trkpt>
<trkpt lat="52.038728" lon="05.801873"><ele>16.7</ele><time>2022-03-04T14:19:07Z</time><name>PT1656</name></trkpt>
<trkpt lat="52.038739" lon="05.801880"><ele>16.7</ele><time>2022-03-04T14:19:08Z</time><name>PT1657</name></trkpt>
<trkpt lat="52.038753" lon="05.801883"><ele>16.7</ele><time>2022-03-04T14:19:10Z</time><name>PT1658</name></trkpt>
<trkpt lat="52.038762" lon="05.801890"><ele>16.9</ele><time>2022-03-04T14:19:10Z</time><name>PT1659</name></trkpt>
<trkpt lat="52.038772" lon="05.801903"><ele>16.8</ele><time>2022-03-04T14:19:12Z</time><name>PT1660</name></trkpt>
<trkpt lat="52.038781" lon="05.801915"><ele>17</ele><time>2022-03-04T14:19:13Z</time><name>PT1661</name></trkpt>
<trkpt lat="52.038794" lon="05.801933"><ele>17</ele><time>2022-03-04T14:19:13Z</time><name>PT1662</name></trkpt>
<trkpt lat="52.038804" lon="05.801946"><ele>17.2</ele><time>2022-03-04T14:19:14Z</time><name>PT1663</name></trkpt>
<trkpt lat="52.038812" lon="05.801952"><ele>17</ele><time>2022-03-04T14:19:16Z</time><name>PT1664</name></trkpt>
<trkpt lat="52.038821" lon="05.801961"><ele>17.1</ele><time>2022-03-04T14:19:16Z</time><name>PT1665</name></trkpt>
<trkpt lat="52.038829" lon="05.801970"><ele>17.2</ele><time>2022-03-04T14:19:17Z</time><name>PT1666</name></trkpt>
<trkpt lat="52.038830" lon="05.801976"><ele>17.1</ele><time>2022-03-04T14:19:19Z</time><name>PT1667</name></trkpt>
<trkpt lat="52.038842" lon="05.801988"><ele>17.1</ele><time>2022-03-04T14:19:19Z</time><name>PT1668</name></trkpt>
<trkpt lat="52.038853" lon="05.802005"><ele>17.2</ele><time>2022-03-04T14:19:20Z</time><name>PT1669</name></trkpt>
<trkpt lat="52.038865" lon="05.802017"><ele>17</ele><time>2022-03-04T14:19:22Z</time><name>PT1670</name></trkpt>
<trkpt lat="52.038873" lon="05.802023"><ele>17.1</ele><time>2022-03-04T14:19:22Z</time><name>PT1671</name></trkpt>
<trkpt lat="52.038883" lon="05.802035"><ele>17</ele><time>2022-03-04T14:19:23Z</time><name>PT1672</name></trkpt>
<trkpt lat="52.038890" lon="05.802040"><ele>16.8</ele><time>2022-03-04T14:19:25Z</time><name>PT1673</name></trkpt>
<trkpt lat="52.038896" lon="05.802044"><ele>16.8</ele><time>2022-03-04T14:19:25Z</time><name>PT1674</name></trkpt>
<trkpt lat="52.038900" lon="05.802048"><ele>16.9</ele><time>2022-03-04T14:19:26Z</time><name>PT1675</name></trkpt>
<trkpt lat="52.038907" lon="05.802057"><ele>16.7</ele><time>2022-03-04T14:19:28Z</time><name>PT1676</name></trkpt>
<trkpt lat="52.038918" lon="05.802069"><ele>16.7</ele><time>2022-03-04T14:19:28Z</time><name>PT1677</name></trkpt>
<trkpt lat="52.038929" lon="05.802081"><ele>16.6</ele><time>2022-03-04T14:19:29Z</time><name>PT1678</name></trkpt>
<trkpt lat="52.038939" lon="05.802092"><ele>16.7</ele><time>2022-03-04T14:19:31Z</time><name>PT1679</name></trkpt>
<trkpt lat="52.038948" lon="05.802101"><ele>16.7</ele><time>2022-03-04T14:19:31Z</time><name>PT1680</name></trkpt>
<trkpt lat="52.038957" lon="05.802113"><ele>17</ele><time>2022-03-04T14:19:32Z</time><name>PT1681</name></trkpt>
<trkpt lat="52.038967" lon="05.802121"><ele>17.1</ele><time>2022-03-04T14:19:34Z</time><name>PT1682</name></trkpt>
<trkpt lat="52.038973" lon="05.802131"><ele>17.1</ele><time>2022-03-04T14:19:34Z</time><name>PT1683</name></trkpt>
<trkpt lat="52.038981" lon="05.802138"><ele>17.2</ele><time>2022-03-04T14:19:35Z</time><name>PT1684</name></trkpt>
<trkpt lat="52.038988" lon="05.802145"><ele>17.1</ele><time>2022-03-04T14:19:37Z</time><name>PT1685</name></trkpt>
<trkpt lat="52.038998" lon="05.802162"><ele>17</ele><time>2022-03-04T14:19:37Z</time><name>PT1686</name></trkpt>
<trkpt lat="52.038999" lon="05.802180"><ele>17</ele><time>2022-03-04T14:19:38Z</time><name>PT1687</name></trkpt>
<trkpt lat="52.039003" lon="05.802196"><ele>17</ele><time>2022-03-04T14:19:40Z</time><name>PT1688</name></trkpt>
<trkpt lat="52.039007" lon="05.802206"><ele>16.9</ele><time>2022-03-04T14:19:40Z</time><name>PT1689</name></trkpt>
<trkpt lat="52.039017" lon="05.802210"><ele>16.9</ele><time>2022-03-04T14:19:41Z</time><name>PT1690</name></trkpt>
<trkpt lat="52.039026" lon="05.802214"><ele>16.8</ele><time>2022-03-04T14:19:43Z</time><name>PT1691</name></trkpt>
<trkpt lat="52.039034" lon="05.802221"><ele>16.8</ele><time>2022-03-04T14:19:43Z</time><name>PT1692</name></trkpt>
<trkpt lat="52.039040" lon="05.802231"><ele>17</ele><time>2022-03-04T14:19:44Z</time><name>PT1693</name></trkpt>
<trkpt lat="52.039046" lon="05.802242"><ele>17</ele><time>2022-03-04T14:19:46Z</time><name>PT1694</name></trkpt>
<trkpt lat="52.039059" lon="05.802253"><ele>17.1</ele><time>2022-03-04T14:19:46Z</time><name>PT1695</name></trkpt>
<trkpt lat="52.039072" lon="05.802263"><ele>17.1</ele><time>2022-03-04T14:19:47Z</time><name>PT1696</name></trkpt>
<trkpt lat="52.039086" lon="05.802272"><ele>17.2</ele><time>2022-03-04T14:19:49Z</time><name>PT1697</name></trkpt>
<trkpt lat="52.039097" lon="05.802286"><ele>17.1</ele><time>2022-03-04T14:19:49Z</time><name>PT1698</name></trkpt>
<trkpt lat="52.039111" lon="05.802298"><ele>17</ele><time>2022-03-04T14:19:50Z</time><name>PT1699</name></trkpt>
<trkpt lat="52.039124" lon="05.802302"><ele>17</ele><time>2022-03-04T14:19:52Z</time><name>PT1700</name></trkpt>
<trkpt lat="52.039136" lon="05.802311"><ele>17</ele><time>2022-03-04T14:19:52Z</time><name>PT1701</name></trkpt>
<trkpt lat="52.039143" lon="05.802319"><ele>17</ele><time>2022-03-04T14:19:53Z</time><name>PT1702</name></trkpt>
<trkpt lat="52.039152" lon="05.802324"><ele>17.2</ele><time>2022-03-04T14:19:55Z</time><name>PT1703</name></trkpt>
<trkpt lat="52.039160" lon="05.802329"><ele>17.2</ele><time>2022-03-04T14:19:55Z</time><name>PT1704</name></trkpt>
<trkpt lat="52.039174" lon="05.802335"><ele>17</ele><time>2022-03-04T14:19:56Z</time><name>PT1705</name></trkpt>
<trkpt lat="52.039189" lon="05.802346"><ele>17</ele><time>2022-03-04T14:19:58Z</time><name>PT1706</name></trkpt>
<trkpt lat="52.039203" lon="05.802358"><ele>17</ele><time>2022-03-04T14:19:58Z</time><name>PT1707</name></trkpt>
<trkpt lat="52.039214" lon="05.802371"><ele>16.9</ele><time>2022-03-04T14:19:59Z</time><name>PT1708</name></trkpt>
<trkpt lat="52.039225" lon="05.802385"><ele>17</ele><time>2022-03-04T14:20:01Z</time><name>PT1709</name></trkpt>
<trkpt lat="52.039235" lon="05.802397"><ele>17</ele><time>2022-03-04T14:20:01Z</time><name>PT1710</name></trkpt>
<trkpt lat="52.039244" lon="05.802409"><ele>17</ele><time>2022-03-04T14:20:02Z</time><name>PT1711</name></trkpt>
<trkpt lat="52.039255" lon="05.802416"><ele>16.9</ele><time>2022-03-04T14:20:04Z</time><name>PT1712</name></trkpt>
<trkpt lat="52.039265" lon="05.802424"><ele>17</ele><time>2022-03-04T14:20:04Z</time><name>PT1713</name></trkpt>
<trkpt lat="52.039277" lon="05.802431"><ele>17.1</ele><time>2022-03-04T14:20:05Z</time><name>PT1714</name></trkpt>
<trkpt lat="52.039290" lon="05.802445"><ele>17.2</ele><time>2022-03-04T14:20:07Z</time><name>PT1715</name></trkpt>
<trkpt lat="52.039304" lon="05.802457"><ele>17.1</ele><time>2022-03-04T14:20:07Z</time><name>PT1716</name></trkpt>
<trkpt lat="52.039317" lon="05.802473"><ele>17.2</ele><time>2022-03-04T14:20:08Z</time><name>PT1717</name></trkpt>
<trkpt lat="52.039327" lon="05.802488"><ele>17.2</ele><time>2022-03-04T14:20:10Z</time><name>PT1718</name></trkpt>
<trkpt lat="52.039336" lon="05.802496"><ele>17.2</ele><time>2022-03-04T14:20:10Z</time><name>PT1719</name></trkpt>
<trkpt lat="52.039345" lon="05.802502"><ele>17.3</ele><time>2022-03-04T14:20:12Z</time><name>PT1720</name></trkpt>
<trkpt lat="52.039351" lon="05.802512"><ele>17.3</ele><time>2022-03-04T14:20:13Z</time><name>PT1721</name></trkpt>
<trkpt lat="52.039356" lon="05.802521"><ele>17.2</ele><time>2022-03-04T14:20:13Z</time><name>PT1722</name></trkpt>
<trkpt lat="52.039365" lon="05.802533"><ele>17.2</ele><time>2022-03-04T14:20:14Z</time><name>PT1723</name></trkpt>
<trkpt lat="52.039378" lon="05.802548"><ele>17.1</ele><time>2022-03-04T14:20:16Z</time><name>PT1724</name></trkpt>
<trkpt lat="52.039390" lon="05.802561"><ele>17.2</ele><time>2022-03-04T14:20:16Z</time><name>PT1725</name></trkpt>
<trkpt lat="52.039402" lon="05.802569"><ele>17.3</ele><time>2022-03-04T14:20:17Z</time><name>PT1726</name></trkpt>
<trkpt lat="52.039413" lon="05.802576"><ele>17.3</ele><time>2022-03-04T14:20:19Z</time><name>PT1727</name></trkpt>
<trkpt lat="52.039421" lon="05.802583"><ele>17.2</ele><time>2022-03-04T14:20:19Z</time><name>PT1728</name></trkpt>
<trkpt lat="52.039431" lon="05.802590"><ele>17.1</ele><time>2022-03-04T14:20:20Z</time><name>PT1729</name></trkpt>
<trkpt lat="52.039439" lon="05.802598"><ele>17</ele><time>2022-03-04T14:20:22Z</time><name>PT1730</name></trkpt>
<trkpt lat="52.039447" lon="05.802603"><ele>17</ele><time>2022-03-04T14:20:22Z</time><name>PT1731</name></trkpt>
<trkpt lat="52.039457" lon="05.802613"><ele>16.9</ele><time>2022-03-04T14:20:23Z</time><name>PT1732</name></trkpt>
<trkpt lat="52.039472" lon="05.802631"><ele>16.9</ele><time>2022-03-04T14:20:25Z</time><name>PT1733</name></trkpt>
<trkpt lat="52.039481" lon="05.802645"><ele>17</ele><time>2022-03-04T14:20:25Z</time><name>PT1734</name></trkpt>
<trkpt lat="52.039489" lon="05.802656"><ele>17</ele><time>2022-03-04T14:20:26Z</time><name>PT1735</name></trkpt>
<trkpt lat="52.039501" lon="05.802661"><ele>17.3</ele><time>2022-03-04T14:20:28Z</time><name>PT1736</name></trkpt>
<trkpt lat="52.039509" lon="05.802666"><ele>17.3</ele><time>2022-03-04T14:20:28Z</time><name>PT1737</name></trkpt>
<trkpt lat="52.039519" lon="05.802671"><ele>17.4</ele><time>2022-03-04T14:20:29Z</time><name>PT1738</name></trkpt>
<trkpt lat="52.039525" lon="05.802679"><ele>17.3</ele><time>2022-03-04T14:20:31Z</time><name>PT1739</name></trkpt>
<trkpt lat="52.039534" lon="05.802689"><ele>17.3</ele><time>2022-03-04T14:20:31Z</time><name>PT1740</name></trkpt>
<trkpt lat="52.039545" lon="05.802702"><ele>17.2</ele><time>2022-03-04T14:20:32Z</time><name>PT1741</name></trkpt>
<trkpt lat="52.039558" lon="05.802718"><ele>17.1</ele><time>2022-03-04T14:20:34Z</time><name>PT1742</name></trkpt>
<trkpt lat="52.039570" lon="05.802729"><ele>17.1</ele><time>2022-03-04T14:20:34Z</time><name>PT1743</name></trkpt>
<trkpt lat="52.039582" lon="05.802734"><ele>17.2</ele><time>2022-03-04T14:20:35Z</time><name>PT1744</name></trkpt>
<trkpt lat="52.039589" lon="05.802737"><ele>17.1</ele><time>2022-03-04T14:20:37Z</time><name>PT1745</name></trkpt>
<trkpt lat="52.039597" lon="05.802740"><ele>17</ele><time>2022-03-04T14:20:37Z</time><name>PT1746</name></trkpt>
<trkpt lat="52.039604" lon="05.802746"><ele>17.2</ele><time>2022-03-04T14:20:38Z</time><name>PT1747</name></trkpt>
<trkpt lat="52.039610" lon="05.802761"><ele>17.2</ele><time>2022-03-04T14:20:40Z</time><name>PT1748</name></trkpt>
<trkpt lat="52.039622" lon="05.802771"><ele>17.2</ele><time>2022-03-04T14:20:40Z</time><name>PT1749</name></trkpt>
<trkpt lat="52.039636" lon="05.802782"><ele>17.2</ele><time>2022-03-04T14:20:41Z</time><name>PT1750</name></trkpt>
<trkpt lat="52.039647" lon="05.802794"><ele>17.4</ele><time>2022-03-04T14:20:43Z</time><name>PT1751</name></trkpt>
<trkpt lat="52.039659" lon="05.802807"><ele>17.4</ele><time>2022-03-04T14:20:43Z</time><name>PT1752</name></trkpt>
<trkpt lat="52.039675" lon="05.802825"><ele>17.2</ele><time>2022-03-04T14:20:44Z</time><name>PT1753</name></trkpt>
<trkpt lat="52.039692" lon="05.802836"><ele>17.2</ele><time>2022-03-04T14:20:46Z</time><name>PT1754</name></trkpt>
<trkpt lat="52.039700" lon="05.802849"><ele>17.2</ele><time>2022-03-04T14:20:46Z</time><name>PT1755</name></trkpt>
<trkpt lat="52.039704" lon="05.802856"><ele>17</ele><time>2022-03-04T14:20:47Z</time><name>PT1756</name></trkpt>
<trkpt lat="52.039706" lon="05.802859"><ele>17</ele><time>2022-03-04T14:20:49Z</time><name>PT1757</name></trkpt>
<trkpt lat="52.039708" lon="05.802867"><ele>17</ele><time>2022-03-04T14:20:49Z</time><name>PT1758</name></trkpt>
<trkpt lat="52.039719" lon="05.802875"><ele>16.8</ele><time>2022-03-04T14:20:50Z</time><name>PT1759</name></trkpt>
<trkpt lat="52.039729" lon="05.802889"><ele>16.7</ele><time>2022-03-04T14:20:52Z</time><name>PT1760</name></trkpt>
<trkpt lat="52.039742" lon="05.802910"><ele>16.8</ele><time>2022-03-04T14:20:52Z</time><name>PT1761</name></trkpt>
<trkpt lat="52.039752" lon="05.802921"><ele>16.9</ele><time>2022-03-04T14:20:53Z</time><name>PT1762</name></trkpt>
<trkpt lat="52.039758" lon="05.802929"><ele>17</ele><time>2022-03-04T14:20:55Z</time><name>PT1763</name></trkpt>
<trkpt lat="52.039762" lon="05.802932"><ele>17.1</ele><time>2022-03-04T14:20:55Z</time><name>PT1764</name></trkpt>
<trkpt lat="52.039772" lon="05.802939"><ele>17</ele><time>2022-03-04T14:20:56Z</time><name>PT1765</name></trkpt>
<trkpt lat="52.039777" lon="05.802947"><ele>17</ele><time>2022-03-04T14:20:58Z</time><name>PT1766</name></trkpt>
<trkpt lat="52.039784" lon="05.802953"><ele>16.9</ele><time>2022-03-04T14:20:58Z</time><name>PT1767</name></trkpt>
<trkpt lat="52.039795" lon="05.802963"><ele>16.8</ele><time>2022-03-04T14:20:59Z</time><name>PT1768</name></trkpt>
<trkpt lat="52.039812" lon="05.802973"><ele>16.7</ele><time>2022-03-04T14:21:01Z</time><name>PT1769</name></trkpt>
<trkpt lat="52.039824" lon="05.802988"><ele>16.8</ele><time>2022-03-04T14:21:01Z</time><name>PT1770</name></trkpt>
<trkpt lat="52.039836" lon="05.802999"><ele>16.8</ele><time>2022-03-04T14:21:02Z</time><name>PT1771</name></trkpt>
<trkpt lat="52.039846" lon="05.803005"><ele>16.9</ele><time>2022-03-04T14:21:04Z</time><name>PT1772</name></trkpt>
<trkpt lat="52.039853" lon="05.803011"><ele>17</ele><time>2022-03-04T14:21:04Z</time><name>PT1773</name></trkpt>
<trkpt lat="52.039863" lon="05.803017"><ele>17</ele><time>2022-03-04T14:21:05Z</time><name>PT1774</name></trkpt>
<trkpt lat="52.039871" lon="05.803023"><ele>17</ele><time>2022-03-04T14:21:07Z</time><name>PT1775</name></trkpt>
<trkpt lat="52.039881" lon="05.803030"><ele>17</ele><time>2022-03-04T14:21:07Z</time><name>PT1776</name></trkpt>
<trkpt lat="52.039891" lon="05.803041"><ele>16.8</ele><time>2022-03-04T14:21:08Z</time><name>PT1777</name></trkpt>
<trkpt lat="52.039902" lon="05.803053"><ele>16.7</ele><time>2022-03-04T14:21:10Z</time><name>PT1778</name></trkpt>
<trkpt lat="52.039914" lon="05.803060"><ele>16.7</ele><time>2022-03-04T14:21:10Z</time><name>PT1779</name></trkpt>
<trkpt lat="52.039927" lon="05.803070"><ele>16.6</ele><time>2022-03-04T14:21:11Z</time><name>PT1780</name></trkpt>
<trkpt lat="52.039941" lon="05.803087"><ele>16.5</ele><time>2022-03-04T14:21:13Z</time><name>PT1781</name></trkpt>
<trkpt lat="52.039952" lon="05.803096"><ele>16.5</ele><time>2022-03-04T14:21:13Z</time><name>PT1782</name></trkpt>
<trkpt lat="52.039960" lon="05.803106"><ele>16.5</ele><time>2022-03-04T14:21:14Z</time><name>PT1783</name></trkpt>
<trkpt lat="52.039966" lon="05.803112"><ele>16.6</ele><time>2022-03-04T14:21:16Z</time><name>PT1784</name></trkpt>
<trkpt lat="52.039974" lon="05.803119"><ele>16.7</ele><time>2022-03-04T14:21:16Z</time><name>PT1785</name></trkpt>
<trkpt lat="52.039982" lon="05.803127"><ele>16.8</ele><time>2022-03-04T14:21:17Z</time><name>PT1786</name></trkpt>
<trkpt lat="52.039992" lon="05.803137"><ele>16.9</ele><time>2022-03-04T14:21:19Z</time><name>PT1787</name></trkpt>
<trkpt lat="52.040004" lon="05.803146"><ele>16.8</ele><time>2022-03-04T14:21:19Z</time><name>PT1788</name></trkpt>
<trkpt lat="52.040010" lon="05.803160"><ele>16.8</ele><time>2022-03-04T14:21:20Z</time><name>PT1789</name></trkpt>
<trkpt lat="52.040018" lon="05.803169"><ele>16.9</ele><time>2022-03-04T14:21:22Z</time><name>PT1790</name></trkpt>
<trkpt lat="52.040029" lon="05.803175"><ele>16.8</ele><time>2022-03-04T14:21:22Z</time><name>PT1791</name></trkpt>
<trkpt lat="52.040038" lon="05.803188"><ele>16.7</ele><time>2022-03-04T14:21:23Z</time><name>PT1792</name></trkpt>
<trkpt lat="52.040042" lon="05.803191"><ele>16.6</ele><time>2022-03-04T14:21:25Z</time><name>PT1793</name></trkpt>
<trkpt lat="52.040048" lon="05.803196"><ele>16.7</ele><time>2022-03-04T14:21:25Z</time><name>PT1794</name></trkpt>
<trkpt lat="52.040054" lon="05.803198"><ele>16.8</ele><time>2022-03-04T14:21:26Z</time><name>PT1795</name></trkpt>
<trkpt lat="52.040060" lon="05.803202"><ele>16.7</ele><time>2022-03-04T14:21:28Z</time><name>PT1796</name></trkpt>
<trkpt lat="52.040060" lon="05.803206"><ele>16.9</ele><time>2022-03-04T14:21:28Z</time><name>PT1797</name></trkpt>
<trkpt lat="52.040066" lon="05.803214"><ele>17</ele><time>2022-03-04T14:21:29Z</time><name>PT1798</name></trkpt>
<trkpt lat="52.040073" lon="05.803219"><ele>16.9</ele><time>2022-03-04T14:21:31Z</time><name>PT1799</name></trkpt>
<trkpt lat="52.040078" lon="05.803224"><ele>16.7</ele><time>2022-03-04T14:21:31Z</time><name>PT1800</name></trkpt>
<trkpt lat="52.040086" lon="05.803229"><ele>16.9</ele><time>2022-03-04T14:21:32Z</time><name>PT1801</name></trkpt>
<trkpt lat="52.040093" lon="05.803236"><ele>16.9</ele><time>2022-03-04T14:21:34Z</time><name>PT1802</name></trkpt>
<trkpt lat="52.040105" lon="05.803248"><ele>17</ele><time>2022-03-04T14:21:34Z</time><name>PT1803</name></trkpt>
<trkpt lat="52.040116" lon="05.803259"><ele>17</ele><time>2022-03-04T14:21:35Z</time><name>PT1804</name></trkpt>
<trkpt lat="52.040123" lon="05.803269"><ele>17</ele><time>2022-03-04T14:21:37Z</time><name>PT1805</name></trkpt>
<trkpt lat="52.040131" lon="05.803282"><ele>17</ele><time>2022-03-04T14:21:37Z</time><name>PT1806</name></trkpt>
<trkpt lat="52.040141" lon="05.803292"><ele>17</ele><time>2022-03-04T14:21:38Z</time><name>PT1807</name></trkpt>
<trkpt lat="52.040151" lon="05.803302"><ele>17.1</ele><time>2022-03-04T14:21:40Z</time><name>PT1808</name></trkpt>
<trkpt lat="52.040163" lon="05.803312"><ele>17</ele><time>2022-03-04T14:21:40Z</time><name>PT1809</name></trkpt>
<trkpt lat="52.040172" lon="05.803320"><ele>17</ele><time>2022-03-04T14:21:41Z</time><name>PT1810</name></trkpt>
<trkpt lat="52.040186" lon="05.803328"><ele>16.9</ele><time>2022-03-04T14:21:43Z</time><name>PT1811</name></trkpt>
<trkpt lat="52.040195" lon="05.803345"><ele>16.8</ele><time>2022-03-04T14:21:43Z</time><name>PT1812</name></trkpt>
<trkpt lat="52.040206" lon="05.803356"><ele>16.5</ele><time>2022-03-04T14:21:44Z</time><name>PT1813</name></trkpt>
<trkpt lat="52.040218" lon="05.803366"><ele>16.5</ele><time>2022-03-04T14:21:46Z</time><name>PT1814</name></trkpt>
<trkpt lat="52.040228" lon="05.803377"><ele>16.4</ele><time>2022-03-04T14:21:46Z</time><name>PT1815</name></trkpt>
<trkpt lat="52.040233" lon="05.803381"><ele>16.4</ele><time>2022-03-04T14:21:47Z</time><name>PT1816</name></trkpt>
<trkpt lat="52.040236" lon="05.803384"><ele>16.5</ele><time>2022-03-04T14:21:49Z</time><name>PT1817</name></trkpt>
<trkpt lat="52.040241" lon="05.803391"><ele>16.5</ele><time>2022-03-04T14:21:49Z</time><name>PT1818</name></trkpt>
<trkpt lat="52.040248" lon="05.803404"><ele>16.5</ele><time>2022-03-04T14:21:50Z</time><name>PT1819</name></trkpt>
<trkpt lat="52.040258" lon="05.803413"><ele>16.6</ele><time>2022-03-04T14:21:52Z</time><name>PT1820</name></trkpt>
<trkpt lat="52.040268" lon="05.803425"><ele>16.7</ele><time>2022-03-04T14:21:52Z</time><name>PT1821</name></trkpt>
<trkpt lat="52.040281" lon="05.803439"><ele>16.5</ele><time>2022-03-04T14:21:53Z</time><name>PT1822</name></trkpt>
<trkpt lat="52.040293" lon="05.803457"><ele>16.6</ele><time>2022-03-04T14:21:55Z</time><name>PT1823</name></trkpt>
<trkpt lat="52.040304" lon="05.803471"><ele>16.5</ele><time>2022-03-04T14:21:55Z</time><name>PT1824</name></trkpt>
<trkpt lat="52.040313" lon="05.803478"><ele>16.4</ele><time>2022-03-04T14:21:56Z</time><name>PT1825</name></trkpt>
<trkpt lat="52.040321" lon="05.803484"><ele>16.5</ele><time>2022-03-04T14:21:58Z</time><name>PT1826</name></trkpt>
<trkpt lat="52.040328" lon="05.803489"><ele>16.4</ele><time>2022-03-04T14:21:58Z</time><name>PT1827</name></trkpt>
<trkpt lat="52.040339" lon="05.803496"><ele>16.3</ele><time>2022-03-04T14:21:59Z</time><name>PT1828</name></trkpt>
<trkpt lat="52.040358" lon="05.803507"><ele>16.4</ele><time>2022-03-04T14:22:01Z</time><name>PT1829</name></trkpt>
<trkpt lat="52.040371" lon="05.803521"><ele>16.5</ele><time>2022-03-04T14:22:01Z</time><name>PT1830</name></trkpt>
<trkpt lat="52.040390" lon="05.803532"><ele>16.5</ele><time>2022-03-04T14:22:02Z</time><name>PT1831</name></trkpt>
<trkpt lat="52.040401" lon="05.803538"><ele>16.4</ele><time>2022-03-04T14:22:04Z</time><name>PT1832</name></trkpt>
<trkpt lat="52.040405" lon="05.803545"><ele>16.4</ele><time>2022-03-04T14:22:04Z</time><name>PT1833</name></trkpt>
<trkpt lat="52.040415" lon="05.803552"><ele>16.4</ele><time>2022-03-04T14:22:05Z</time><name>PT1834</name></trkpt>
<trkpt lat="52.040422" lon="05.803561"><ele>16.3</ele><time>2022-03-04T14:22:07Z</time><name>PT1835</name></trkpt>
<trkpt lat="52.040432" lon="05.803570"><ele>16.3</ele><time>2022-03-04T14:22:07Z</time><name>PT1836</name></trkpt>
<trkpt lat="52.040443" lon="05.803581"><ele>16.5</ele><time>2022-03-04T14:22:08Z</time><name>PT1837</name></trkpt>
<trkpt lat="52.040453" lon="05.803596"><ele>16.5</ele><time>2022-03-04T14:22:10Z</time><name>PT1838</name></trkpt>
<trkpt lat="52.040463" lon="05.803612"><ele>16.5</ele><time>2022-03-04T14:22:10Z</time><name>PT1839</name></trkpt>
<trkpt lat="52.040467" lon="05.803621"><ele>16.5</ele><time>2022-03-04T14:22:11Z</time><name>PT1840</name></trkpt>
<trkpt lat="52.040471" lon="05.803627"><ele>16.5</ele><time>2022-03-04T14:22:13Z</time><name>PT1841</name></trkpt>
<trkpt lat="52.040476" lon="05.803634"><ele>16.5</ele><time>2022-03-04T14:22:13Z</time><name>PT1842</name></trkpt>
<trkpt lat="52.040484" lon="05.803641"><ele>16.5</ele><time>2022-03-04T14:22:14Z</time><name>PT1843</name></trkpt>
<trkpt lat="52.040491" lon="05.803655"><ele>16.4</ele><time>2022-03-04T14:22:16Z</time><name>PT1844</name></trkpt>
<trkpt lat="52.040496" lon="05.803667"><ele>16.4</ele><time>2022-03-04T14:22:16Z</time><name>PT1845</name></trkpt>
<trkpt lat="52.040502" lon="05.803693"><ele>16.4</ele><time>2022-03-04T14:22:17Z</time><name>PT1846</name></trkpt>
<trkpt lat="52.040503" lon="05.803713"><ele>16.4</ele><time>2022-03-04T14:22:19Z</time><name>PT1847</name></trkpt>
<trkpt lat="52.040504" lon="05.803730"><ele>16.5</ele><time>2022-03-04T14:22:19Z</time><name>PT1848</name></trkpt>
<trkpt lat="52.040507" lon="05.803748"><ele>16.8</ele><time>2022-03-04T14:22:20Z</time><name>PT1849</name></trkpt>
<trkpt lat="52.040511" lon="05.803766"><ele>16.8</ele><time>2022-03-04T14:22:22Z</time><name>PT1850</name></trkpt>
<trkpt lat="52.040516" lon="05.803785"><ele>16.9</ele><time>2022-03-04T14:22:22Z</time><name>PT1851</name></trkpt>
<trkpt lat="52.040519" lon="05.803805"><ele>17</ele><time>2022-03-04T14:22:23Z</time><name>PT1852</name></trkpt>
<trkpt lat="52.040523" lon="05.803832"><ele>17</ele><time>2022-03-04T14:22:25Z</time><name>PT1853</name></trkpt>
<trkpt lat="52.040533" lon="05.803854"><ele>17</ele><time>2022-03-04T14:22:25Z</time><name>PT1854</name></trkpt>
<trkpt lat="52.040534" lon="05.803864"><ele>17</ele><time>2022-03-04T14:22:26Z</time><name>PT1855</name></trkpt>
<trkpt lat="52.040535" lon="05.803874"><ele>17</ele><time>2022-03-04T14:22:28Z</time><name>PT1856</name></trkpt>
<trkpt lat="52.040538" lon="05.803883"><ele>17.1</ele><time>2022-03-04T14:22:28Z</time><name>PT1857</name></trkpt>
<trkpt lat="52.040539" lon="05.803898"><ele>17</ele><time>2022-03-04T14:22:29Z</time><name>PT1858</name></trkpt>
<trkpt lat="52.040537" lon="05.803915"><ele>17</ele><time>2022-03-04T14:22:31Z</time><name>PT1859</name></trkpt>
<trkpt lat="52.040534" lon="05.803933"><ele>17</ele><time>2022-03-04T14:22:31Z</time><name>PT1860</name></trkpt>
<trkpt lat="52.040530" lon="05.803950"><ele>16.8</ele><time>2022-03-04T14:22:32Z</time><name>PT1861</name></trkpt>
<trkpt lat="52.040530" lon="05.803959"><ele>16.6</ele><time>2022-03-04T14:22:34Z</time><name>PT1862</name></trkpt>
<trkpt lat="52.040528" lon="05.803975"><ele>16.6</ele><time>2022-03-04T14:22:34Z</time><name>PT1863</name></trkpt>
<trkpt lat="52.040524" lon="05.803993"><ele>16.9</ele><time>2022-03-04T14:22:35Z</time><name>PT1864</name></trkpt>
<trkpt lat="52.040521" lon="05.804010"><ele>17.1</ele><time>2022-03-04T14:22:37Z</time><name>PT1865</name></trkpt>
<trkpt lat="52.040521" lon="05.804029"><ele>17.3</ele><time>2022-03-04T14:22:37Z</time><name>PT1866</name></trkpt>
<trkpt lat="52.040523" lon="05.804050"><ele>17.7</ele><time>2022-03-04T14:22:38Z</time><name>PT1867</name></trkpt>
<trkpt lat="52.040525" lon="05.804067"><ele>17.8</ele><time>2022-03-04T14:22:40Z</time><name>PT1868</name></trkpt>
<trkpt lat="52.040524" lon="05.804090"><ele>17.9</ele><time>2022-03-04T14:22:40Z</time><name>PT1869</name></trkpt>
<trkpt lat="52.040523" lon="05.804112"><ele>18</ele><time>2022-03-04T14:22:41Z</time><name>PT1870</name></trkpt>
<trkpt lat="52.040523" lon="05.804136"><ele>17.7</ele><time>2022-03-04T14:22:43Z</time><name>PT1871</name></trkpt>
<trkpt lat="52.040521" lon="05.804153"><ele>17.7</ele><time>2022-03-04T14:22:43Z</time><name>PT1872</name></trkpt>
<trkpt lat="52.040522" lon="05.804168"><ele>17.7</ele><time>2022-03-04T14:22:44Z</time><name>PT1873</name></trkpt>
<trkpt lat="52.040522" lon="05.804180"><ele>17.6</ele><time>2022-03-04T14:22:46Z</time><name>PT1874</name></trkpt>
<trkpt lat="52.040523" lon="05.804195"><ele>17.6</ele><time>2022-03-04T14:22:46Z</time><name>PT1875</name></trkpt>
<trkpt lat="52.040524" lon="05.804212"><ele>18</ele><time>2022-03-04T14:22:47Z</time><name>PT1876</name></trkpt>
<trkpt lat="52.040527" lon="05.804223"><ele>18.4</ele><time>2022-03-04T14:22:49Z</time><name>PT1877</name></trkpt>
<trkpt lat="52.040529" lon="05.804236"><ele>18.4</ele><time>2022-03-04T14:22:49Z</time><name>PT1878</name></trkpt>
<trkpt lat="52.040530" lon="05.804250"><ele>18.4</ele><time>2022-03-04T14:22:50Z</time><name>PT1879</name></trkpt>
<trkpt lat="52.040530" lon="05.804265"><ele>18.4</ele><time>2022-03-04T14:22:52Z</time><name>PT1880</name></trkpt>
<trkpt lat="52.040527" lon="05.804281"><ele>18.4</ele><time>2022-03-04T14:22:52Z</time><name>PT1881</name></trkpt>
<trkpt lat="52.040524" lon="05.804294"><ele>18.4</ele><time>2022-03-04T14:22:53Z</time><name>PT1882</name></trkpt>
<trkpt lat="52.040524" lon="05.804310"><ele>18.6</ele><time>2022-03-04T14:22:55Z</time><name>PT1883</name></trkpt>
<trkpt lat="52.040525" lon="05.804323"><ele>18.7</ele><time>2022-03-04T14:22:55Z</time><name>PT1884</name></trkpt>
<trkpt lat="52.040526" lon="05.804337"><ele>18.8</ele><time>2022-03-04T14:22:56Z</time><name>PT1885</name></trkpt>
<trkpt lat="52.040525" lon="05.804353"><ele>18.9</ele><time>2022-03-04T14:22:58Z</time><name>PT1886</name></trkpt>
<trkpt lat="52.040525" lon="05.804368"><ele>19</ele><time>2022-03-04T14:22:58Z</time><name>PT1887</name></trkpt>
<trkpt lat="52.040526" lon="05.804379"><ele>19.2</ele><time>2022-03-04T14:22:59Z</time><name>PT1888</name></trkpt>
<trkpt lat="52.040526" lon="05.804392"><ele>19.4</ele><time>2022-03-04T14:23:01Z</time><name>PT1889</name></trkpt>
<trkpt lat="52.040527" lon="05.804405"><ele>19.4</ele><time>2022-03-04T14:23:01Z</time><name>PT1890</name></trkpt>
<trkpt lat="52.040527" lon="05.804420"><ele>19.5</ele><time>2022-03-04T14:23:02Z</time><name>PT1891</name></trkpt>
<trkpt lat="52.040525" lon="05.804434"><ele>19.5</ele><time>2022-03-04T14:23:04Z</time><name>PT1892</name></trkpt>
<trkpt lat="52.040521" lon="05.804452"><ele>19.6</ele><time>2022-03-04T14:23:04Z</time><name>PT1893</name></trkpt>
<trkpt lat="52.040519" lon="05.804469"><ele>19.7</ele><time>2022-03-04T14:23:05Z</time><name>PT1894</name></trkpt>
<trkpt lat="52.040517" lon="05.804485"><ele>19.7</ele><time>2022-03-04T14:23:07Z</time><name>PT1895</name></trkpt>
<trkpt lat="52.040516" lon="05.804500"><ele>19.8</ele><time>2022-03-04T14:23:07Z</time><name>PT1896</name></trkpt>
<trkpt lat="52.040512" lon="05.804515"><ele>19.9</ele><time>2022-03-04T14:23:08Z</time><name>PT1897</name></trkpt>
<trkpt lat="52.040509" lon="05.804530"><ele>19.9</ele><time>2022-03-04T14:23:10Z</time><name>PT1898</name></trkpt>
<trkpt lat="52.040507" lon="05.804543"><ele>19.9</ele><time>2022-03-04T14:23:10Z</time><name>PT1899</name></trkpt>
<trkpt lat="52.040502" lon="05.804558"><ele>20</ele><time>2022-03-04T14:23:11Z</time><name>PT1900</name></trkpt>
<trkpt lat="52.040496" lon="05.804573"><ele>20.1</ele><time>2022-03-04T14:23:13Z</time><name>PT1901</name></trkpt>
<trkpt lat="52.040490" lon="05.804584"><ele>20</ele><time>2022-03-04T14:23:13Z</time><name>PT1902</name></trkpt>
<trkpt lat="52.040485" lon="05.804593"><ele>20.1</ele><time>2022-03-04T14:23:14Z</time><name>PT1903</name></trkpt>
<trkpt lat="52.040481" lon="05.804601"><ele>20.3</ele><time>2022-03-04T14:23:16Z</time><name>PT1904</name></trkpt>
<trkpt lat="52.040478" lon="05.804607"><ele>20.3</ele><time>2022-03-04T14:23:16Z</time><name>PT1905</name></trkpt>
<trkpt lat="52.040477" lon="05.804612"><ele>20.4</ele><time>2022-03-04T14:23:17Z</time><name>PT1906</name></trkpt>
<trkpt lat="52.040480" lon="05.804607"><ele>20.7</ele><time>2022-03-04T14:23:19Z</time><name>PT1907</name></trkpt>
<trkpt lat="52.040483" lon="05.804601"><ele>20.8</ele><time>2022-03-04T14:23:19Z</time><name>PT1908</name></trkpt>
<trkpt lat="52.040486" lon="05.804594"><ele>20.8</ele><time>2022-03-04T14:23:20Z</time><name>PT1909</name></trkpt>
<trkpt lat="52.040487" lon="05.804590"><ele>20.8</ele><time>2022-03-04T14:23:22Z</time><name>PT1910</name></trkpt>
<trkpt lat="52.040490" lon="05.804583"><ele>21.1</ele><time>2022-03-04T14:23:22Z</time><name>PT1911</name></trkpt>
<trkpt lat="52.040494" lon="05.804579"><ele>21.2</ele><time>2022-03-04T14:23:23Z</time><name>PT1912</name></trkpt>
<trkpt lat="52.040498" lon="05.804574"><ele>21.5</ele><time>2022-03-04T14:23:25Z</time><name>PT1913</name></trkpt>
<trkpt lat="52.040501" lon="05.804571"><ele>21.6</ele><time>2022-03-04T14:23:25Z</time><name>PT1914</name></trkpt>
<trkpt lat="52.040501" lon="05.804570"><ele>21.8</ele><time>2022-03-04T14:23:26Z</time><name>PT1915</name></trkpt>
<trkpt lat="52.040503" lon="05.804568"><ele>21.8</ele><time>2022-03-04T14:23:28Z</time><name>PT1916</name></trkpt>
<trkpt lat="52.040507" lon="05.804560"><ele>21.8</ele><time>2022-03-04T14:23:28Z</time><name>PT1917</name></trkpt>
<trkpt lat="52.040511" lon="05.804546"><ele>21.3</ele><time>2022-03-04T14:23:29Z</time><name>PT1918</name></trkpt>
<trkpt lat="52.040515" lon="05.804534"><ele>21</ele><time>2022-03-04T14:23:31Z</time><name>PT1919</name></trkpt>
<trkpt lat="52.040522" lon="05.804524"><ele>20.8</ele><time>2022-03-04T14:23:31Z</time><name>PT1920</name></trkpt>
<trkpt lat="52.040528" lon="05.804515"><ele>20.7</ele><time>2022-03-04T14:23:32Z</time><name>PT1921</name></trkpt>
<trkpt lat="52.040536" lon="05.804508"><ele>20.7</ele><time>2022-03-04T14:23:34Z</time><name>PT1922</name></trkpt>
<trkpt lat="52.040543" lon="05.804500"><ele>20.8</ele><time>2022-03-04T14:23:34Z</time><name>PT1923</name></trkpt>
<trkpt lat="52.040546" lon="05.804492"><ele>20.7</ele><time>2022-03-04T14:23:35Z</time><name>PT1924</name></trkpt>
<trkpt lat="52.040550" lon="05.804486"><ele>20.6</ele><time>2022-03-04T14:23:37Z</time><name>PT1925</name></trkpt>
<trkpt lat="52.040557" lon="05.804479"><ele>20.6</ele><time>2022-03-04T14:23:37Z</time><name>PT1926</name></trkpt>
<trkpt lat="52.040562" lon="05.804471"><ele>20.6</ele><time>2022-03-04T14:23:38Z</time><name>PT1927</name></trkpt>
<trkpt lat="52.040565" lon="05.804468"><ele>20.5</ele><time>2022-03-04T14:23:40Z</time><name>PT1928</name></trkpt>
<trkpt lat="52.040570" lon="05.804464"><ele>20.5</ele><time>2022-03-04T14:23:40Z</time><name>PT1929</name></trkpt>
<trkpt lat="52.040575" lon="05.804460"><ele>20.4</ele><time>2022-03-04T14:23:41Z</time><name>PT1930</name></trkpt>
<trkpt lat="52.040582" lon="05.804459"><ele>20.4</ele><time>2022-03-04T14:23:43Z</time><name>PT1931</name></trkpt>
<trkpt lat="52.040592" lon="05.804461"><ele>20.3</ele><time>2022-03-04T14:23:43Z</time><name>PT1932</name></trkpt>
<trkpt lat="52.040601" lon="05.804464"><ele>20.2</ele><time>2022-03-04T14:23:44Z</time><name>PT1933</name></trkpt>
<trkpt lat="52.040607" lon="05.804464"><ele>20.3</ele><time>2022-03-04T14:23:46Z</time><name>PT1934</name></trkpt>
<trkpt lat="52.040615" lon="05.804468"><ele>20.2</ele><time>2022-03-04T14:23:46Z</time><name>PT1935</name></trkpt>
<trkpt lat="52.040623" lon="05.804473"><ele>20</ele><time>2022-03-04T14:23:47Z</time><name>PT1936</name></trkpt>
<trkpt lat="52.040626" lon="05.804482"><ele>19.9</ele><time>2022-03-04T14:23:49Z</time><name>PT1937</name></trkpt>
<trkpt lat="52.040629" lon="05.804492"><ele>19.9</ele><time>2022-03-04T14:23:49Z</time><name>PT1938</name></trkpt>
<trkpt lat="52.040632" lon="05.804508"><ele>19.9</ele><time>2022-03-04T14:23:50Z</time><name>PT1939</name></trkpt>
<trkpt lat="52.040634" lon="05.804524"><ele>19.9</ele><time>2022-03-04T14:23:52Z</time><name>PT1940</name></trkpt>
<trkpt lat="52.040634" lon="05.804534"><ele>19.9</ele><time>2022-03-04T14:23:52Z</time><name>PT1941</name></trkpt>
<trkpt lat="52.040636" lon="05.804543"><ele>19.8</ele><time>2022-03-04T14:23:53Z</time><name>PT1942</name></trkpt>
<trkpt lat="52.040642" lon="05.804556"><ele>19.9</ele><time>2022-03-04T14:23:55Z</time><name>PT1943</name></trkpt>
<trkpt lat="52.040647" lon="05.804569"><ele>20</ele><time>2022-03-04T14:23:55Z</time><name>PT1944</name></trkpt>
<trkpt lat="52.040652" lon="05.804579"><ele>19.9</ele><time>2022-03-04T14:23:56Z</time><name>PT1945</name></trkpt>
<trkpt lat="52.040653" lon="05.804594"><ele>20</ele><time>2022-03-04T14:23:58Z</time><name>PT1946</name></trkpt>
<trkpt lat="52.040662" lon="05.804614"><ele>19.9</ele><time>2022-03-04T14:23:58Z</time><name>PT1947</name></trkpt>
<trkpt lat="52.040672" lon="05.804630"><ele>19.6</ele><time>2022-03-04T14:23:59Z</time><name>PT1948</name></trkpt>
<trkpt lat="52.040683" lon="05.804649"><ele>19.4</ele><time>2022-03-04T14:24:01Z</time><name>PT1949</name></trkpt>
<trkpt lat="52.040694" lon="05.804661"><ele>19.4</ele><time>2022-03-04T14:24:01Z</time><name>PT1950</name></trkpt>
<trkpt lat="52.040703" lon="05.804669"><ele>19.2</ele><time>2022-03-04T14:24:02Z</time><name>PT1951</name></trkpt>
<trkpt lat="52.040706" lon="05.804676"><ele>18.9</ele><time>2022-03-04T14:24:04Z</time><name>PT1952</name></trkpt>
<trkpt lat="52.040711" lon="05.804682"><ele>18.8</ele><time>2022-03-04T14:24:04Z</time><name>PT1953</name></trkpt>
<trkpt lat="52.040716" lon="05.804689"><ele>18.7</ele><time>2022-03-04T14:24:05Z</time><name>PT1954</name></trkpt>
<trkpt lat="52.040720" lon="05.804700"><ele>18.7</ele><time>2022-03-04T14:24:07Z</time><name>PT1955</name></trkpt>
<trkpt lat="52.040726" lon="05.804695"><ele>18.7</ele><time>2022-03-04T14:24:07Z</time><name>PT1956</name></trkpt>
<trkpt lat="52.040736" lon="05.804701"><ele>18.8</ele><time>2022-03-04T14:24:08Z</time><name>PT1957</name></trkpt>
<trkpt lat="52.040738" lon="05.804715"><ele>18.9</ele><time>2022-03-04T14:24:10Z</time><name>PT1958</name></trkpt>
<trkpt lat="52.040745" lon="05.804729"><ele>18.9</ele><time>2022-03-04T14:24:10Z</time><name>PT1959</name></trkpt>
<trkpt lat="52.040748" lon="05.804738"><ele>18.8</ele><time>2022-03-04T14:24:11Z</time><name>PT1960</name></trkpt>
<trkpt lat="52.040760" lon="05.804759"><ele>18.7</ele><time>2022-03-04T14:24:13Z</time><name>PT1961</name></trkpt>
<trkpt lat="52.040766" lon="05.804768"><ele>18.7</ele><time>2022-03-04T14:24:13Z</time><name>PT1962</name></trkpt>
<trkpt lat="52.040771" lon="05.804780"><ele>18.4</ele><time>2022-03-04T14:24:14Z</time><name>PT1963</name></trkpt>
<trkpt lat="52.040777" lon="05.804785"><ele>18.4</ele><time>2022-03-04T14:24:16Z</time><name>PT1964</name></trkpt>
<trkpt lat="52.040784" lon="05.804796"><ele>18.4</ele><time>2022-03-04T14:24:16Z</time><name>PT1965</name></trkpt>
<trkpt lat="52.040788" lon="05.804807"><ele>18.2</ele><time>2022-03-04T14:24:17Z</time><name>PT1966</name></trkpt>
<trkpt lat="52.040793" lon="05.804822"><ele>18</ele><time>2022-03-04T14:24:19Z</time><name>PT1967</name></trkpt>
<trkpt lat="52.040806" lon="05.804836"><ele>18</ele><time>2022-03-04T14:24:19Z</time><name>PT1968</name></trkpt>
<trkpt lat="52.040815" lon="05.804849"><ele>17.8</ele><time>2022-03-04T14:24:20Z</time><name>PT1969</name></trkpt>
<trkpt lat="52.040830" lon="05.804845"><ele>17.9</ele><time>2022-03-04T14:24:22Z</time><name>PT1970</name></trkpt>
<trkpt lat="52.040835" lon="05.804858"><ele>17.9</ele><time>2022-03-04T14:24:22Z</time><name>PT1971</name></trkpt>
<trkpt lat="52.040839" lon="05.804869"><ele>18</ele><time>2022-03-04T14:24:23Z</time><name>PT1972</name></trkpt>
<trkpt lat="52.040841" lon="05.804880"><ele>18</ele><time>2022-03-04T14:24:25Z</time><name>PT1973</name></trkpt>
<trkpt lat="52.040845" lon="05.804890"><ele>18</ele><time>2022-03-04T14:24:25Z</time><name>PT1974</name></trkpt>
<trkpt lat="52.040847" lon="05.804894"><ele>17.8</ele><time>2022-03-04T14:24:26Z</time><name>PT1975</name></trkpt>
<trkpt lat="52.040856" lon="05.804910"><ele>17.7</ele><time>2022-03-04T14:24:28Z</time><name>PT1976</name></trkpt>
<trkpt lat="52.040868" lon="05.804938"><ele>17.7</ele><time>2022-03-04T14:24:28Z</time><name>PT1977</name></trkpt>
<trkpt lat="52.040880" lon="05.804953"><ele>17.6</ele><time>2022-03-04T14:24:29Z</time><name>PT1978</name></trkpt>
<trkpt lat="52.040890" lon="05.804971"><ele>17.5</ele><time>2022-03-04T14:24:31Z</time><name>PT1979</name></trkpt>
<trkpt lat="52.040903" lon="05.804997"><ele>17.5</ele><time>2022-03-04T14:24:31Z</time><name>PT1980</name></trkpt>
<trkpt lat="52.040916" lon="05.805008"><ele>17.4</ele><time>2022-03-04T14:24:32Z</time><name>PT1981</name></trkpt>
<trkpt lat="52.040930" lon="05.805017"><ele>17</ele><time>2022-03-04T14:24:34Z</time><name>PT1982</name></trkpt>
<trkpt lat="52.040941" lon="05.805026"><ele>17</ele><time>2022-03-04T14:24:34Z</time><name>PT1983</name></trkpt>
<trkpt lat="52.040957" lon="05.805038"><ele>17</ele><time>2022-03-04T14:24:35Z</time><name>PT1984</name></trkpt>
<trkpt lat="52.040968" lon="05.805055"><ele>16.9</ele><time>2022-03-04T14:24:37Z</time><name>PT1985</name></trkpt>
<trkpt lat="52.040975" lon="05.805073"><ele>16.9</ele><time>2022-03-04T14:24:37Z</time><name>PT1986</name></trkpt>
<trkpt lat="52.040981" lon="05.805096"><ele>16.9</ele><time>2022-03-04T14:24:38Z</time><name>PT1987</name></trkpt>
<trkpt lat="52.040992" lon="05.805126"><ele>16.9</ele><time>2022-03-04T14:24:40Z</time><name>PT1988</name></trkpt>
<trkpt lat="52.041004" lon="05.805149"><ele>17</ele><time>2022-03-04T14:24:40Z</time><name>PT1989</name></trkpt>
<trkpt lat="52.041005" lon="05.805173"><ele>17.1</ele><time>2022-03-04T14:24:41Z</time><name>PT1990</name></trkpt>
<trkpt lat="52.041011" lon="05.805199"><ele>17.1</ele><time>2022-03-04T14:24:43Z</time><name>PT1991</name></trkpt>
<trkpt lat="52.041016" lon="05.805212"><ele>17.1</ele><time>2022-03-04T14:24:43Z</time><name>PT1992</name></trkpt>
<trkpt lat="52.041022" lon="05.805224"><ele>17.1</ele><time>2022-03-04T14:24:44Z</time><name>PT1993</name></trkpt>
<trkpt lat="52.041025" lon="05.805236"><ele>17</ele><time>2022-03-04T14:24:46Z</time><name>PT1994</name></trkpt>
<trkpt lat="52.041029" lon="05.805244"><ele>17</ele><time>2022-03-04T14:24:46Z</time><name>PT1995</name></trkpt>
<trkpt lat="52.041030" lon="05.805256"><ele>17</ele><time>2022-03-04T14:24:47Z</time><name>PT1996</name></trkpt>
<trkpt lat="52.041034" lon="05.805269"><ele>17</ele><time>2022-03-04T14:24:49Z</time><name>PT1997</name></trkpt>
<trkpt lat="52.041044" lon="05.805286"><ele>17.1</ele><time>2022-03-04T14:24:49Z</time><name>PT1998</name></trkpt>
<trkpt lat="52.041050" lon="05.805300"><ele>17.1</ele><time>2022-03-04T14:24:50Z</time><name>PT1999</name></trkpt>
<trkpt lat="52.041057" lon="05.805303"><ele>17.1</ele><time>2022-03-04T14:24:52Z</time><name>PT2000</name></trkpt>
<trkpt lat="52.041069" lon="05.805320"><ele>17</ele><time>2022-03-04T14:24:52Z</time><name>PT2001</name></trkpt>
<trkpt lat="52.041077" lon="05.805331"><ele>16.8</ele><time>2022-03-04T14:24:53Z</time><name>PT2002</name></trkpt>
<trkpt lat="52.041087" lon="05.805343"><ele>16.8</ele><time>2022-03-04T14:24:55Z</time><name>PT2003</name></trkpt>
<trkpt lat="52.041094" lon="05.805353"><ele>16.6</ele><time>2022-03-04T14:24:55Z</time><name>PT2004</name></trkpt>
<trkpt lat="52.041102" lon="05.805366"><ele>16.4</ele><time>2022-03-04T14:24:56Z</time><name>PT2005</name></trkpt>
<trkpt lat="52.041105" lon="05.805381"><ele>16.5</ele><time>2022-03-04T14:24:58Z</time><name>PT2006</name></trkpt>
<trkpt lat="52.041114" lon="05.805402"><ele>16.5</ele><time>2022-03-04T14:24:58Z</time><name>PT2007</name></trkpt>
<trkpt lat="52.041119" lon="05.805414"><ele>16.5</ele><time>2022-03-04T14:24:59Z</time><name>PT2008</name></trkpt>
<trkpt lat="52.041128" lon="05.805424"><ele>16.5</ele><time>2022-03-04T14:25:01Z</time><name>PT2009</name></trkpt>
<trkpt lat="52.041134" lon="05.805428"><ele>16.4</ele><time>2022-03-04T14:25:01Z</time><name>PT2010</name></trkpt>
<trkpt lat="52.041147" lon="05.805442"><ele>16.4</ele><time>2022-03-04T14:25:02Z</time><name>PT2011</name></trkpt>
<trkpt lat="52.041155" lon="05.805448"><ele>16.5</ele><time>2022-03-04T14:25:04Z</time><name>PT2012</name></trkpt>
<trkpt lat="52.041165" lon="05.805465"><ele>16.5</ele><time>2022-03-04T14:25:04Z</time><name>PT2013</name></trkpt>
<trkpt lat="52.041176" lon="05.805480"><ele>16.7</ele><time>2022-03-04T14:25:05Z</time><name>PT2014</name></trkpt>
<trkpt lat="52.041195" lon="05.805504"><ele>16.5</ele><time>2022-03-04T14:25:07Z</time><name>PT2015</name></trkpt>
<trkpt lat="52.041211" lon="05.805524"><ele>16.4</ele><time>2022-03-04T14:25:07Z</time><name>PT2016</name></trkpt>
<trkpt lat="52.041226" lon="05.805544"><ele>16.4</ele><time>2022-03-04T14:25:08Z</time><name>PT2017</name></trkpt>
<trkpt lat="52.041237" lon="05.805554"><ele>16.3</ele><time>2022-03-04T14:25:10Z</time><name>PT2018</name></trkpt>
<trkpt lat="52.041250" lon="05.805565"><ele>16.3</ele><time>2022-03-04T14:25:10Z</time><name>PT2019</name></trkpt>
<trkpt lat="52.041256" lon="05.805580"><ele>16.2</ele><time>2022-03-04T14:25:11Z</time><name>PT2020</name></trkpt>
<trkpt lat="52.041261" lon="05.805585"><ele>16.1</ele><time>2022-03-04T14:25:13Z</time><name>PT2021</name></trkpt>
<trkpt lat="52.041264" lon="05.805584"><ele>16.1</ele><time>2022-03-04T14:25:13Z</time><name>PT2022</name></trkpt>
<trkpt lat="52.041278" lon="05.805589"><ele>16.1</ele><time>2022-03-04T14:25:14Z</time><name>PT2023</name></trkpt>
<trkpt lat="52.041295" lon="05.805592"><ele>16.1</ele><time>2022-03-04T14:25:16Z</time><name>PT2024</name></trkpt>
<trkpt lat="52.041311" lon="05.805597"><ele>16.3</ele><time>2022-03-04T14:25:16Z</time><name>PT2025</name></trkpt>
<trkpt lat="52.041325" lon="05.805603"><ele>16.2</ele><time>2022-03-04T14:25:17Z</time><name>PT2026</name></trkpt>
<trkpt lat="52.041337" lon="05.805614"><ele>16.3</ele><time>2022-03-04T14:25:19Z</time><name>PT2027</name></trkpt>
<trkpt lat="52.041351" lon="05.805626"><ele>16.3</ele><time>2022-03-04T14:25:19Z</time><name>PT2028</name></trkpt>
<trkpt lat="52.041364" lon="05.805632"><ele>16.3</ele><time>2022-03-04T14:25:20Z</time><name>PT2029</name></trkpt>
<trkpt lat="52.041374" lon="05.805637"><ele>16.1</ele><time>2022-03-04T14:25:22Z</time><name>PT2030</name></trkpt>
<trkpt lat="52.041384" lon="05.805645"><ele>16.1</ele><time>2022-03-04T14:25:22Z</time><name>PT2031</name></trkpt>
<trkpt lat="52.041397" lon="05.805650"><ele>15.8</ele><time>2022-03-04T14:25:24Z</time><name>PT2032</name></trkpt>
<trkpt lat="52.041403" lon="05.805656"><ele>15.7</ele><time>2022-03-04T14:25:25Z</time><name>PT2033</name></trkpt>
<trkpt lat="52.041410" lon="05.805659"><ele>15.6</ele><time>2022-03-04T14:25:25Z</time><name>PT2034</name></trkpt>
<trkpt lat="52.041420" lon="05.805659"><ele>15.6</ele><time>2022-03-04T14:25:26Z</time><name>PT2035</name></trkpt>
<trkpt lat="52.041428" lon="05.805657"><ele>15.4</ele><time>2022-03-04T14:25:28Z</time><name>PT2036</name></trkpt>
<trkpt lat="52.041443" lon="05.805651"><ele>15.5</ele><time>2022-03-04T14:25:28Z</time><name>PT2037</name></trkpt>
<trkpt lat="52.041459" lon="05.805651"><ele>15.6</ele><time>2022-03-04T14:25:29Z</time><name>PT2038</name></trkpt>
<trkpt lat="52.041470" lon="05.805656"><ele>15.6</ele><time>2022-03-04T14:25:31Z</time><name>PT2039</name></trkpt>
<trkpt lat="52.041484" lon="05.805653"><ele>15.6</ele><time>2022-03-04T14:25:31Z</time><name>PT2040</name></trkpt>
<trkpt lat="52.041493" lon="05.805644"><ele>15.5</ele><time>2022-03-04T14:25:33Z</time><name>PT2041</name></trkpt>
<trkpt lat="52.041503" lon="05.805638"><ele>15.5</ele><time>2022-03-04T14:25:34Z</time><name>PT2042</name></trkpt>
<trkpt lat="52.041512" lon="05.805633"><ele>15.5</ele><time>2022-03-04T14:25:34Z</time><name>PT2043</name></trkpt>
<trkpt lat="52.041519" lon="05.805628"><ele>15.4</ele><time>2022-03-04T14:25:35Z</time><name>PT2044</name></trkpt>
<trkpt lat="52.041527" lon="05.805624"><ele>15.3</ele><time>2022-03-04T14:25:37Z</time><name>PT2045</name></trkpt>
<trkpt lat="52.041538" lon="05.805623"><ele>15.4</ele><time>2022-03-04T14:25:37Z</time><name>PT2046</name></trkpt>
<trkpt lat="52.041553" lon="05.805619"><ele>15.3</ele><time>2022-03-04T14:25:38Z</time><name>PT2047</name></trkpt>
<trkpt lat="52.041566" lon="05.805616"><ele>15.2</ele><time>2022-03-04T14:25:40Z</time><name>PT2048</name></trkpt>
<trkpt lat="52.041581" lon="05.805608"><ele>15.1</ele><time>2022-03-04T14:25:40Z</time><name>PT2049</name></trkpt>
<trkpt lat="52.041595" lon="05.805600"><ele>15.2</ele><time>2022-03-04T14:25:41Z</time><name>PT2050</name></trkpt>
<trkpt lat="52.041601" lon="05.805593"><ele>15.2</ele><time>2022-03-04T14:25:43Z</time><name>PT2051</name></trkpt>
<trkpt lat="52.041609" lon="05.805588"><ele>15.1</ele><time>2022-03-04T14:25:43Z</time><name>PT2052</name></trkpt>
<trkpt lat="52.041618" lon="05.805584"><ele>15.2</ele><time>2022-03-04T14:25:44Z</time><name>PT2053</name></trkpt>
<trkpt lat="52.041629" lon="05.805578"><ele>15.3</ele><time>2022-03-04T14:25:46Z</time><name>PT2054</name></trkpt>
<trkpt lat="52.041639" lon="05.805573"><ele>15.2</ele><time>2022-03-04T14:25:46Z</time><name>PT2055</name></trkpt>
<trkpt lat="52.041651" lon="05.805569"><ele>15.1</ele><time>2022-03-04T14:25:47Z</time><name>PT2056</name></trkpt>
<trkpt lat="52.041664" lon="05.805564"><ele>15.1</ele><time>2022-03-04T14:25:49Z</time><name>PT2057</name></trkpt>
<trkpt lat="52.041671" lon="05.805563"><ele>15.1</ele><time>2022-03-04T14:25:49Z</time><name>PT2058</name></trkpt>
<trkpt lat="52.041679" lon="05.805559"><ele>15.1</ele><time>2022-03-04T14:25:50Z</time><name>PT2059</name></trkpt>
<trkpt lat="52.041687" lon="05.805555"><ele>15.1</ele><time>2022-03-04T14:25:52Z</time><name>PT2060</name></trkpt>
<trkpt lat="52.041696" lon="05.805548"><ele>15.1</ele><time>2022-03-04T14:25:52Z</time><name>PT2061</name></trkpt>
<trkpt lat="52.041706" lon="05.805540"><ele>15.1</ele><time>2022-03-04T14:25:53Z</time><name>PT2062</name></trkpt>
<trkpt lat="52.041716" lon="05.805533"><ele>15.1</ele><time>2022-03-04T14:25:55Z</time><name>PT2063</name></trkpt>
<trkpt lat="52.041727" lon="05.805526"><ele>15.1</ele><time>2022-03-04T14:25:55Z</time><name>PT2064</name></trkpt>
<trkpt lat="52.041735" lon="05.805523"><ele>15.1</ele><time>2022-03-04T14:25:56Z</time><name>PT2065</name></trkpt>
<trkpt lat="52.041748" lon="05.805519"><ele>15.1</ele><time>2022-03-04T14:25:58Z</time><name>PT2066</name></trkpt>
<trkpt lat="52.041758" lon="05.805512"><ele>15.1</ele><time>2022-03-04T14:25:58Z</time><name>PT2067</name></trkpt>
<trkpt lat="52.041765" lon="05.805508"><ele>15</ele><time>2022-03-04T14:25:59Z</time><name>PT2068</name></trkpt>
<trkpt lat="52.041774" lon="05.805504"><ele>15.1</ele><time>2022-03-04T14:26:01Z</time><name>PT2069</name></trkpt>
<trkpt lat="52.041785" lon="05.805501"><ele>15</ele><time>2022-03-04T14:26:01Z</time><name>PT2070</name></trkpt>
<trkpt lat="52.041799" lon="05.805491"><ele>15</ele><time>2022-03-04T14:26:02Z</time><name>PT2071</name></trkpt>
<trkpt lat="52.041814" lon="05.805489"><ele>15.1</ele><time>2022-03-04T14:26:04Z</time><name>PT2072</name></trkpt>
<trkpt lat="52.041824" lon="05.805486"><ele>15.1</ele><time>2022-03-04T14:26:04Z</time><name>PT2073</name></trkpt>
<trkpt lat="52.041832" lon="05.805484"><ele>15.2</ele><time>2022-03-04T14:26:05Z</time><name>PT2074</name></trkpt>
<trkpt lat="52.041843" lon="05.805482"><ele>15.2</ele><time>2022-03-04T14:26:07Z</time><name>PT2075</name></trkpt>
<trkpt lat="52.041853" lon="05.805480"><ele>15.2</ele><time>2022-03-04T14:26:07Z</time><name>PT2076</name></trkpt>
<trkpt lat="52.041864" lon="05.805475"><ele>15.1</ele><time>2022-03-04T14:26:08Z</time><name>PT2077</name></trkpt>
<trkpt lat="52.041879" lon="05.805469"><ele>15.1</ele><time>2022-03-04T14:26:10Z</time><name>PT2078</name></trkpt>
<trkpt lat="52.041892" lon="05.805465"><ele>15.2</ele><time>2022-03-04T14:26:10Z</time><name>PT2079</name></trkpt>
<trkpt lat="52.041907" lon="05.805460"><ele>15.1</ele><time>2022-03-04T14:26:11Z</time><name>PT2080</name></trkpt>
<trkpt lat="52.041918" lon="05.805453"><ele>15.1</ele><time>2022-03-04T14:26:13Z</time><name>PT2081</name></trkpt>
<trkpt lat="52.041925" lon="05.805448"><ele>15.1</ele><time>2022-03-04T14:26:13Z</time><name>PT2082</name></trkpt>
<trkpt lat="52.041936" lon="05.805446"><ele>15</ele><time>2022-03-04T14:26:14Z</time><name>PT2083</name></trkpt>
<trkpt lat="52.041947" lon="05.805437"><ele>14.9</ele><time>2022-03-04T14:26:16Z</time><name>PT2084</name></trkpt>
<trkpt lat="52.041961" lon="05.805430"><ele>15.1</ele><time>2022-03-04T14:26:16Z</time><name>PT2085</name></trkpt>
<trkpt lat="52.041974" lon="05.805423"><ele>15.1</ele><time>2022-03-04T14:26:17Z</time><name>PT2086</name></trkpt>
<trkpt lat="52.041983" lon="05.805422"><ele>15.1</ele><time>2022-03-04T14:26:19Z</time><name>PT2087</name></trkpt>
<trkpt lat="52.041995" lon="05.805423"><ele>15.3</ele><time>2022-03-04T14:26:19Z</time><name>PT2088</name></trkpt>
<trkpt lat="52.042000" lon="05.805417"><ele>15.1</ele><time>2022-03-04T14:26:20Z</time><name>PT2089</name></trkpt>
<trkpt lat="52.042012" lon="05.805413"><ele>15.1</ele><time>2022-03-04T14:26:22Z</time><name>PT2090</name></trkpt>
<trkpt lat="52.042017" lon="05.805408"><ele>15.1</ele><time>2022-03-04T14:26:22Z</time><name>PT2091</name></trkpt>
<trkpt lat="52.042024" lon="05.805407"><ele>15.2</ele><time>2022-03-04T14:26:23Z</time><name>PT2092</name></trkpt>
<trkpt lat="52.042032" lon="05.805406"><ele>15.1</ele><time>2022-03-04T14:26:25Z</time><name>PT2093</name></trkpt>
<trkpt lat="52.042041" lon="05.805406"><ele>15.3</ele><time>2022-03-04T14:26:25Z</time><name>PT2094</name></trkpt>
<trkpt lat="52.042050" lon="05.805407"><ele>15.4</ele><time>2022-03-04T14:26:26Z</time><name>PT2095</name></trkpt>
<trkpt lat="52.042066" lon="05.805409"><ele>15.6</ele><time>2022-03-04T14:26:28Z</time><name>PT2096</name></trkpt>
<trkpt lat="52.042079" lon="05.805406"><ele>15.6</ele><time>2022-03-04T14:26:28Z</time><name>PT2097</name></trkpt>
<trkpt lat="52.042084" lon="05.805403"><ele>15.6</ele><time>2022-03-04T14:26:29Z</time><name>PT2098</name></trkpt>
<trkpt lat="52.042091" lon="05.805397"><ele>15.7</ele><time>2022-03-04T14:26:31Z</time><name>PT2099</name></trkpt>
<trkpt lat="52.042100" lon="05.805396"><ele>15.8</ele><time>2022-03-04T14:26:31Z</time><name>PT2100</name></trkpt>
<trkpt lat="52.042106" lon="05.805394"><ele>15.6</ele><time>2022-03-04T14:26:32Z</time><name>PT2101</name></trkpt>
<trkpt lat="52.042117" lon="05.805399"><ele>15.7</ele><time>2022-03-04T14:26:34Z</time><name>PT2102</name></trkpt>
<trkpt lat="52.042131" lon="05.805402"><ele>15.6</ele><time>2022-03-04T14:26:34Z</time><name>PT2103</name></trkpt>
<trkpt lat="52.042142" lon="05.805398"><ele>15.6</ele><time>2022-03-04T14:26:35Z</time><name>PT2104</name></trkpt>
<trkpt lat="52.042151" lon="05.805399"><ele>15.6</ele><time>2022-03-04T14:26:37Z</time><name>PT2105</name></trkpt>
<trkpt lat="52.042160" lon="05.805404"><ele>15.6</ele><time>2022-03-04T14:26:37Z</time><name>PT2106</name></trkpt>
<trkpt lat="52.042172" lon="05.805413"><ele>15.6</ele><time>2022-03-04T14:26:38Z</time><name>PT2107</name></trkpt>
<trkpt lat="52.042185" lon="05.805423"><ele>15.6</ele><time>2022-03-04T14:26:40Z</time><name>PT2108</name></trkpt>
<trkpt lat="52.042199" lon="05.805437"><ele>15.7</ele><time>2022-03-04T14:26:40Z</time><name>PT2109</name></trkpt>
<trkpt lat="52.042218" lon="05.805452"><ele>15.8</ele><time>2022-03-04T14:26:41Z</time><name>PT2110</name></trkpt>
<trkpt lat="52.042229" lon="05.805467"><ele>15.9</ele><time>2022-03-04T14:26:43Z</time><name>PT2111</name></trkpt>
<trkpt lat="52.042232" lon="05.805475"><ele>16</ele><time>2022-03-04T14:26:43Z</time><name>PT2112</name></trkpt>
<trkpt lat="52.042242" lon="05.805480"><ele>15.9</ele><time>2022-03-04T14:26:44Z</time><name>PT2113</name></trkpt>
<trkpt lat="52.042249" lon="05.805488"><ele>15.9</ele><time>2022-03-04T14:26:46Z</time><name>PT2114</name></trkpt>
<trkpt lat="52.042255" lon="05.805495"><ele>15.7</ele><time>2022-03-04T14:26:46Z</time><name>PT2115</name></trkpt>
<trkpt lat="52.042261" lon="05.805510"><ele>15.7</ele><time>2022-03-04T14:26:47Z</time><name>PT2116</name></trkpt>
<trkpt lat="52.042272" lon="05.805516"><ele>15.6</ele><time>2022-03-04T14:26:49Z</time><name>PT2117</name></trkpt>
<trkpt lat="52.042282" lon="05.805534"><ele>15.7</ele><time>2022-03-04T14:26:49Z</time><name>PT2118</name></trkpt>
<trkpt lat="52.042289" lon="05.805553"><ele>15.9</ele><time>2022-03-04T14:26:50Z</time><name>PT2119</name></trkpt>
<trkpt lat="52.042296" lon="05.805567"><ele>16</ele><time>2022-03-04T14:26:52Z</time><name>PT2120</name></trkpt>
<trkpt lat="52.042306" lon="05.805579"><ele>15.9</ele><time>2022-03-04T14:26:52Z</time><name>PT2121</name></trkpt>
<trkpt lat="52.042313" lon="05.805586"><ele>16</ele><time>2022-03-04T14:26:53Z</time><name>PT2122</name></trkpt>
<trkpt lat="52.042321" lon="05.805598"><ele>15.8</ele><time>2022-03-04T14:26:55Z</time><name>PT2123</name></trkpt>
<trkpt lat="52.042330" lon="05.805617"><ele>15.7</ele><time>2022-03-04T14:26:55Z</time><name>PT2124</name></trkpt>
<trkpt lat="52.042342" lon="05.805635"><ele>15.7</ele><time>2022-03-04T14:26:56Z</time><name>PT2125</name></trkpt>
<trkpt lat="52.042351" lon="05.805649"><ele>15.6</ele><time>2022-03-04T14:26:58Z</time><name>PT2126</name></trkpt>
<trkpt lat="52.042355" lon="05.805663"><ele>15.6</ele><time>2022-03-04T14:26:58Z</time><name>PT2127</name></trkpt>
<trkpt lat="52.042355" lon="05.805674"><ele>15.6</ele><time>2022-03-04T14:26:59Z</time><name>PT2128</name></trkpt>
<trkpt lat="52.042363" lon="05.805688"><ele>15.8</ele><time>2022-03-04T14:27:01Z</time><name>PT2129</name></trkpt>
<trkpt lat="52.042366" lon="05.805702"><ele>15.9</ele><time>2022-03-04T14:27:01Z</time><name>PT2130</name></trkpt>
<trkpt lat="52.042369" lon="05.805715"><ele>16.1</ele><time>2022-03-04T14:27:02Z</time><name>PT2131</name></trkpt>
<trkpt lat="52.042379" lon="05.805732"><ele>16.1</ele><time>2022-03-04T14:27:04Z</time><name>PT2132</name></trkpt>
<trkpt lat="52.042385" lon="05.805750"><ele>16.1</ele><time>2022-03-04T14:27:04Z</time><name>PT2133</name></trkpt>
<trkpt lat="52.042395" lon="05.805769"><ele>16</ele><time>2022-03-04T14:27:05Z</time><name>PT2134</name></trkpt>
<trkpt lat="52.042396" lon="05.805782"><ele>15.9</ele><time>2022-03-04T14:27:07Z</time><name>PT2135</name></trkpt>
<trkpt lat="52.042399" lon="05.805791"><ele>15.9</ele><time>2022-03-04T14:27:07Z</time><name>PT2136</name></trkpt>
<trkpt lat="52.042403" lon="05.805798"><ele>15.9</ele><time>2022-03-04T14:27:08Z</time><name>PT2137</name></trkpt>
<trkpt lat="52.042409" lon="05.805805"><ele>16.1</ele><time>2022-03-04T14:27:10Z</time><name>PT2138</name></trkpt>
<trkpt lat="52.042412" lon="05.805817"><ele>16</ele><time>2022-03-04T14:27:10Z</time><name>PT2139</name></trkpt>
<trkpt lat="52.042420" lon="05.805831"><ele>16</ele><time>2022-03-04T14:27:11Z</time><name>PT2140</name></trkpt>
<trkpt lat="52.042423" lon="05.805844"><ele>16</ele><time>2022-03-04T14:27:13Z</time><name>PT2141</name></trkpt>
<trkpt lat="52.042429" lon="05.805858"><ele>16</ele><time>2022-03-04T14:27:13Z</time><name>PT2142</name></trkpt>
<trkpt lat="52.042431" lon="05.805868"><ele>16</ele><time>2022-03-04T14:27:14Z</time><name>PT2143</name></trkpt>
<trkpt lat="52.042434" lon="05.805882"><ele>16.1</ele><time>2022-03-04T14:27:16Z</time><name>PT2144</name></trkpt>
<trkpt lat="52.042437" lon="05.805895"><ele>16</ele><time>2022-03-04T14:27:16Z</time><name>PT2145</name></trkpt>
<trkpt lat="52.042445" lon="05.805915"><ele>16.1</ele><time>2022-03-04T14:27:17Z</time><name>PT2146</name></trkpt>
<trkpt lat="52.042449" lon="05.805936"><ele>16.1</ele><time>2022-03-04T14:27:19Z</time><name>PT2147</name></trkpt>
<trkpt lat="52.042455" lon="05.805957"><ele>15.9</ele><time>2022-03-04T14:27:19Z</time><name>PT2148</name></trkpt>
<trkpt lat="52.042457" lon="05.805972"><ele>15.8</ele><time>2022-03-04T14:27:20Z</time><name>PT2149</name></trkpt>
<trkpt lat="52.042462" lon="05.805983"><ele>15.9</ele><time>2022-03-04T14:27:22Z</time><name>PT2150</name></trkpt>
<trkpt lat="52.042467" lon="05.805998"><ele>15.9</ele><time>2022-03-04T14:27:22Z</time><name>PT2151</name></trkpt>
<trkpt lat="52.042474" lon="05.806016"><ele>16</ele><time>2022-03-04T14:27:23Z</time><name>PT2152</name></trkpt>
<trkpt lat="52.042477" lon="05.806032"><ele>16.1</ele><time>2022-03-04T14:27:25Z</time><name>PT2153</name></trkpt>
<trkpt lat="52.042483" lon="05.806054"><ele>16.1</ele><time>2022-03-04T14:27:25Z</time><name>PT2154</name></trkpt>
<trkpt lat="52.042489" lon="05.806076"><ele>16.1</ele><time>2022-03-04T14:27:26Z</time><name>PT2155</name></trkpt>
<trkpt lat="52.042494" lon="05.806086"><ele>16.1</ele><time>2022-03-04T14:27:28Z</time><name>PT2156</name></trkpt>
<trkpt lat="52.042499" lon="05.806103"><ele>16.1</ele><time>2022-03-04T14:27:28Z</time><name>PT2157</name></trkpt>
<trkpt lat="52.042500" lon="05.806114"><ele>16.1</ele><time>2022-03-04T14:27:29Z</time><name>PT2158</name></trkpt>
<trkpt lat="52.042500" lon="05.806124"><ele>16.1</ele><time>2022-03-04T14:27:31Z</time><name>PT2159</name></trkpt>
<trkpt lat="52.042504" lon="05.806133"><ele>16.2</ele><time>2022-03-04T14:27:31Z</time><name>PT2160</name></trkpt>
<trkpt lat="52.042512" lon="05.806147"><ele>16.3</ele><time>2022-03-04T14:27:32Z</time><name>PT2161</name></trkpt>
<trkpt lat="52.042516" lon="05.806161"><ele>16.3</ele><time>2022-03-04T14:27:34Z</time><name>PT2162</name></trkpt>
<trkpt lat="52.042518" lon="05.806176"><ele>16.5</ele><time>2022-03-04T14:27:34Z</time><name>PT2163</name></trkpt>
<trkpt lat="52.042519" lon="05.806200"><ele>16.5</ele><time>2022-03-04T14:27:35Z</time><name>PT2164</name></trkpt>
<trkpt lat="52.042524" lon="05.806228"><ele>16.5</ele><time>2022-03-04T14:27:37Z</time><name>PT2165</name></trkpt>
<trkpt lat="52.042527" lon="05.806251"><ele>16.4</ele><time>2022-03-04T14:27:37Z</time><name>PT2166</name></trkpt>
<trkpt lat="52.042536" lon="05.806272"><ele>16.4</ele><time>2022-03-04T14:27:38Z</time><name>PT2167</name></trkpt>
<trkpt lat="52.042545" lon="05.806286"><ele>16.3</ele><time>2022-03-04T14:27:40Z</time><name>PT2168</name></trkpt>
<trkpt lat="52.042553" lon="05.806295"><ele>16.1</ele><time>2022-03-04T14:27:40Z</time><name>PT2169</name></trkpt>
<trkpt lat="52.042558" lon="05.806302"><ele>16.4</ele><time>2022-03-04T14:27:41Z</time><name>PT2170</name></trkpt>
<trkpt lat="52.042561" lon="05.806315"><ele>16.3</ele><time>2022-03-04T14:27:43Z</time><name>PT2171</name></trkpt>
<trkpt lat="52.042566" lon="05.806334"><ele>16.4</ele><time>2022-03-04T14:27:43Z</time><name>PT2172</name></trkpt>
<trkpt lat="52.042580" lon="05.806360"><ele>16.3</ele><time>2022-03-04T14:27:44Z</time><name>PT2173</name></trkpt>
<trkpt lat="52.042585" lon="05.806378"><ele>16.4</ele><time>2022-03-04T14:27:46Z</time><name>PT2174</name></trkpt>
<trkpt lat="52.042593" lon="05.806393"><ele>16.2</ele><time>2022-03-04T14:27:46Z</time><name>PT2175</name></trkpt>
<trkpt lat="52.042593" lon="05.806408"><ele>16.2</ele><time>2022-03-04T14:27:47Z</time><name>PT2176</name></trkpt>
<trkpt lat="52.042601" lon="05.806426"><ele>16.2</ele><time>2022-03-04T14:27:49Z</time><name>PT2177</name></trkpt>
<trkpt lat="52.042608" lon="05.806446"><ele>16.2</ele><time>2022-03-04T14:27:49Z</time><name>PT2178</name></trkpt>
<trkpt lat="52.042612" lon="05.806461"><ele>16.1</ele><time>2022-03-04T14:27:50Z</time><name>PT2179</name></trkpt>
<trkpt lat="52.042618" lon="05.806480"><ele>16.1</ele><time>2022-03-04T14:27:52Z</time><name>PT2180</name></trkpt>
<trkpt lat="52.042632" lon="05.806491"><ele>16.2</ele><time>2022-03-04T14:27:52Z</time><name>PT2181</name></trkpt>
<trkpt lat="52.042641" lon="05.806504"><ele>16.1</ele><time>2022-03-04T14:27:53Z</time><name>PT2182</name></trkpt>
<trkpt lat="52.042648" lon="05.806518"><ele>16.2</ele><time>2022-03-04T14:27:55Z</time><name>PT2183</name></trkpt>
<trkpt lat="52.042650" lon="05.806529"><ele>16.3</ele><time>2022-03-04T14:27:55Z</time><name>PT2184</name></trkpt>
<trkpt lat="52.042656" lon="05.806547"><ele>16.5</ele><time>2022-03-04T14:27:56Z</time><name>PT2185</name></trkpt>
<trkpt lat="52.042664" lon="05.806560"><ele>16.3</ele><time>2022-03-04T14:27:58Z</time><name>PT2186</name></trkpt>
<trkpt lat="52.042672" lon="05.806569"><ele>16.4</ele><time>2022-03-04T14:27:58Z</time><name>PT2187</name></trkpt>
<trkpt lat="52.042680" lon="05.806573"><ele>16.3</ele><time>2022-03-04T14:27:59Z</time><name>PT2188</name></trkpt>
<trkpt lat="52.042690" lon="05.806587"><ele>16.5</ele><time>2022-03-04T14:28:01Z</time><name>PT2189</name></trkpt>
<trkpt lat="52.042696" lon="05.806600"><ele>16.4</ele><time>2022-03-04T14:28:01Z</time><name>PT2190</name></trkpt>
<trkpt lat="52.042702" lon="05.806605"><ele>16.5</ele><time>2022-03-04T14:28:02Z</time><name>PT2191</name></trkpt>
<trkpt lat="52.042707" lon="05.806605"><ele>16.6</ele><time>2022-03-04T14:28:04Z</time><name>PT2192</name></trkpt>
<trkpt lat="52.042712" lon="05.806602"><ele>16.8</ele><time>2022-03-04T14:28:04Z</time><name>PT2193</name></trkpt>
<trkpt lat="52.042717" lon="05.806603"><ele>16.8</ele><time>2022-03-04T14:28:05Z</time><name>PT2194</name></trkpt>
<trkpt lat="52.042721" lon="05.806596"><ele>16.6</ele><time>2022-03-04T14:28:07Z</time><name>PT2195</name></trkpt>
<trkpt lat="52.042727" lon="05.806594"><ele>16.6</ele><time>2022-03-04T14:28:07Z</time><name>PT2196</name></trkpt>
<trkpt lat="52.042735" lon="05.806594"><ele>16.8</ele><time>2022-03-04T14:28:08Z</time><name>PT2197</name></trkpt>
<trkpt lat="52.042742" lon="05.806591"><ele>16.6</ele><time>2022-03-04T14:28:10Z</time><name>PT2198</name></trkpt>
<trkpt lat="52.042752" lon="05.806584"><ele>16.6</ele><time>2022-03-04T14:28:10Z</time><name>PT2199</name></trkpt>
<trkpt lat="52.042766" lon="05.806574"><ele>16.7</ele><time>2022-03-04T14:28:11Z</time><name>PT2200</name></trkpt>
<trkpt lat="52.042776" lon="05.806568"><ele>16.6</ele><time>2022-03-04T14:28:13Z</time><name>PT2201</name></trkpt>
<trkpt lat="52.042786" lon="05.806561"><ele>16.6</ele><time>2022-03-04T14:28:13Z</time><name>PT2202</name></trkpt>
<trkpt lat="52.042794" lon="05.806556"><ele>16.6</ele><time>2022-03-04T14:28:14Z</time><name>PT2203</name></trkpt>
<trkpt lat="52.042799" lon="05.806549"><ele>16.7</ele><time>2022-03-04T14:28:16Z</time><name>PT2204</name></trkpt>
<trkpt lat="52.042806" lon="05.806535"><ele>16.6</ele><time>2022-03-04T14:28:16Z</time><name>PT2205</name></trkpt>
<trkpt lat="52.042817" lon="05.806520"><ele>16.6</ele><time>2022-03-04T14:28:17Z</time><name>PT2206</name></trkpt>
<trkpt lat="52.042829" lon="05.806509"><ele>16.5</ele><time>2022-03-04T14:28:19Z</time><name>PT2207</name></trkpt>
<trkpt lat="52.042838" lon="05.806501"><ele>16.4</ele><time>2022-03-04T14:28:19Z</time><name>PT2208</name></trkpt>
<trkpt lat="52.042849" lon="05.806493"><ele>16.5</ele><time>2022-03-04T14:28:20Z</time><name>PT2209</name></trkpt>
<trkpt lat="52.042852" lon="05.806482"><ele>16.6</ele><time>2022-03-04T14:28:22Z</time><name>PT2210</name></trkpt>
<trkpt lat="52.042857" lon="05.806472"><ele>16.7</ele><time>2022-03-04T14:28:22Z</time><name>PT2211</name></trkpt>
<trkpt lat="52.042862" lon="05.806460"><ele>16.9</ele><time>2022-03-04T14:28:23Z</time><name>PT2212</name></trkpt>
<trkpt lat="52.042867" lon="05.806444"><ele>17.1</ele><time>2022-03-04T14:28:25Z</time><name>PT2213</name></trkpt>
<trkpt lat="52.042876" lon="05.806430"><ele>17</ele><time>2022-03-04T14:28:25Z</time><name>PT2214</name></trkpt>
<trkpt lat="52.042888" lon="05.806415"><ele>17</ele><time>2022-03-04T14:28:26Z</time><name>PT2215</name></trkpt>
<trkpt lat="52.042897" lon="05.806401"><ele>17.1</ele><time>2022-03-04T14:28:28Z</time><name>PT2216</name></trkpt>
<trkpt lat="52.042905" lon="05.806390"><ele>17.2</ele><time>2022-03-04T14:28:28Z</time><name>PT2217</name></trkpt>
<trkpt lat="52.042911" lon="05.806380"><ele>17.2</ele><time>2022-03-04T14:28:29Z</time><name>PT2218</name></trkpt>
<trkpt lat="52.042918" lon="05.806374"><ele>17.2</ele><time>2022-03-04T14:28:31Z</time><name>PT2219</name></trkpt>
<trkpt lat="52.042924" lon="05.806365"><ele>17.1</ele><time>2022-03-04T14:28:31Z</time><name>PT2220</name></trkpt>
<trkpt lat="52.042935" lon="05.806351"><ele>17</ele><time>2022-03-04T14:28:32Z</time><name>PT2221</name></trkpt>
<trkpt lat="52.042944" lon="05.806337"><ele>16.9</ele><time>2022-03-04T14:28:34Z</time><name>PT2222</name></trkpt>
<trkpt lat="52.042958" lon="05.806323"><ele>17</ele><time>2022-03-04T14:28:34Z</time><name>PT2223</name></trkpt>
<trkpt lat="52.042971" lon="05.806311"><ele>17</ele><time>2022-03-04T14:28:35Z</time><name>PT2224</name></trkpt>
<trkpt lat="52.042979" lon="05.806300"><ele>17</ele><time>2022-03-04T14:28:37Z</time><name>PT2225</name></trkpt>
<trkpt lat="52.042986" lon="05.806291"><ele>17</ele><time>2022-03-04T14:28:37Z</time><name>PT2226</name></trkpt>
<trkpt lat="52.042993" lon="05.806283"><ele>17</ele><time>2022-03-04T14:28:38Z</time><name>PT2227</name></trkpt>
<trkpt lat="52.043001" lon="05.806273"><ele>17</ele><time>2022-03-04T14:28:40Z</time><name>PT2228</name></trkpt>
<trkpt lat="52.043012" lon="05.806259"><ele>17</ele><time>2022-03-04T14:28:40Z</time><name>PT2229</name></trkpt>
<trkpt lat="52.043026" lon="05.806245"><ele>17</ele><time>2022-03-04T14:28:41Z</time><name>PT2230</name></trkpt>
<trkpt lat="52.043038" lon="05.806232"><ele>16.9</ele><time>2022-03-04T14:28:43Z</time><name>PT2231</name></trkpt>
<trkpt lat="52.043046" lon="05.806222"><ele>16.8</ele><time>2022-03-04T14:28:43Z</time><name>PT2232</name></trkpt>
<trkpt lat="52.043038" lon="05.806210"><ele>17</ele><time>2022-03-04T14:28:44Z</time><name>PT2233</name></trkpt>
<trkpt lat="52.043035" lon="05.806200"><ele>17.1</ele><time>2022-03-04T14:28:46Z</time><name>PT2234</name></trkpt>
<trkpt lat="52.043043" lon="05.806190"><ele>17.1</ele><time>2022-03-04T14:28:46Z</time><name>PT2235</name></trkpt>
<trkpt lat="52.043053" lon="05.806178"><ele>17</ele><time>2022-03-04T14:28:47Z</time><name>PT2236</name></trkpt>
<trkpt lat="52.043066" lon="05.806168"><ele>17.1</ele><time>2022-03-04T14:28:49Z</time><name>PT2237</name></trkpt>
<trkpt lat="52.043071" lon="05.806168"><ele>17</ele><time>2022-03-04T14:28:49Z</time><name>PT2238</name></trkpt>
<trkpt lat="52.043075" lon="05.806163"><ele>16.9</ele><time>2022-03-04T14:28:50Z</time><name>PT2239</name></trkpt>
<trkpt lat="52.043082" lon="05.806157"><ele>17</ele><time>2022-03-04T14:28:52Z</time><name>PT2240</name></trkpt>
<trkpt lat="52.043090" lon="05.806148"><ele>17</ele><time>2022-03-04T14:28:52Z</time><name>PT2241</name></trkpt>
<trkpt lat="52.043097" lon="05.806139"><ele>17</ele><time>2022-03-04T14:28:53Z</time><name>PT2242</name></trkpt>
<trkpt lat="52.043109" lon="05.806124"><ele>17</ele><time>2022-03-04T14:28:55Z</time><name>PT2243</name></trkpt>
<trkpt lat="52.043122" lon="05.806109"><ele>17</ele><time>2022-03-04T14:28:55Z</time><name>PT2244</name></trkpt>
<trkpt lat="52.043132" lon="05.806099"><ele>16.8</ele><time>2022-03-04T14:28:56Z</time><name>PT2245</name></trkpt>
<trkpt lat="52.043140" lon="05.806090"><ele>16.7</ele><time>2022-03-04T14:28:58Z</time><name>PT2246</name></trkpt>
<trkpt lat="52.043149" lon="05.806080"><ele>16.7</ele><time>2022-03-04T14:28:58Z</time><name>PT2247</name></trkpt>
<trkpt lat="52.043156" lon="05.806066"><ele>16.7</ele><time>2022-03-04T14:28:59Z</time><name>PT2248</name></trkpt>
<trkpt lat="52.043161" lon="05.806058"><ele>16.7</ele><time>2022-03-04T14:29:01Z</time><name>PT2249</name></trkpt>
<trkpt lat="52.043169" lon="05.806045"><ele>16.8</ele><time>2022-03-04T14:29:01Z</time><name>PT2250</name></trkpt>
<trkpt lat="52.043186" lon="05.806030"><ele>16.7</ele><time>2022-03-04T14:29:02Z</time><name>PT2251</name></trkpt>
<trkpt lat="52.043201" lon="05.806022"><ele>16.7</ele><time>2022-03-04T14:29:04Z</time><name>PT2252</name></trkpt>
<trkpt lat="52.043211" lon="05.806018"><ele>16.6</ele><time>2022-03-04T14:29:04Z</time><name>PT2253</name></trkpt>
<trkpt lat="52.043219" lon="05.806009"><ele>16.9</ele><time>2022-03-04T14:29:05Z</time><name>PT2254</name></trkpt>
<trkpt lat="52.043227" lon="05.805996"><ele>16.8</ele><time>2022-03-04T14:29:07Z</time><name>PT2255</name></trkpt>
<trkpt lat="52.043240" lon="05.805984"><ele>17.1</ele><time>2022-03-04T14:29:07Z</time><name>PT2256</name></trkpt>
<trkpt lat="52.043250" lon="05.805972"><ele>17.1</ele><time>2022-03-04T14:29:09Z</time><name>PT2257</name></trkpt>
<trkpt lat="52.043262" lon="05.805960"><ele>17.3</ele><time>2022-03-04T14:29:10Z</time><name>PT2258</name></trkpt>
<trkpt lat="52.043270" lon="05.805948"><ele>17.4</ele><time>2022-03-04T14:29:10Z</time><name>PT2259</name></trkpt>
<trkpt lat="52.043278" lon="05.805938"><ele>17.5</ele><time>2022-03-04T14:29:11Z</time><name>PT2260</name></trkpt>
<trkpt lat="52.043283" lon="05.805932"><ele>17.5</ele><time>2022-03-04T14:29:13Z</time><name>PT2261</name></trkpt>
<trkpt lat="52.043290" lon="05.805919"><ele>17.5</ele><time>2022-03-04T14:29:13Z</time><name>PT2262</name></trkpt>
<trkpt lat="52.043299" lon="05.805904"><ele>17.5</ele><time>2022-03-04T14:29:14Z</time><name>PT2263</name></trkpt>
<trkpt lat="52.043302" lon="05.805893"><ele>17.7</ele><time>2022-03-04T14:29:16Z</time><name>PT2264</name></trkpt>
<trkpt lat="52.043308" lon="05.805885"><ele>17.6</ele><time>2022-03-04T14:29:16Z</time><name>PT2265</name></trkpt>
<trkpt lat="52.043315" lon="05.805878"><ele>17.8</ele><time>2022-03-04T14:29:17Z</time><name>PT2266</name></trkpt>
<trkpt lat="52.043323" lon="05.805867"><ele>17.9</ele><time>2022-03-04T14:29:19Z</time><name>PT2267</name></trkpt>
<trkpt lat="52.043333" lon="05.805854"><ele>18</ele><time>2022-03-04T14:29:19Z</time><name>PT2268</name></trkpt>
<trkpt lat="52.043345" lon="05.805841"><ele>18</ele><time>2022-03-04T14:29:20Z</time><name>PT2269</name></trkpt>
<trkpt lat="52.043358" lon="05.805829"><ele>18</ele><time>2022-03-04T14:29:22Z</time><name>PT2270</name></trkpt>
<trkpt lat="52.043370" lon="05.805816"><ele>18</ele><time>2022-03-04T14:29:22Z</time><name>PT2271</name></trkpt>
<trkpt lat="52.043377" lon="05.805809"><ele>18</ele><time>2022-03-04T14:29:23Z</time><name>PT2272</name></trkpt>
<trkpt lat="52.043384" lon="05.805802"><ele>18</ele><time>2022-03-04T14:29:25Z</time><name>PT2273</name></trkpt>
<trkpt lat="52.043391" lon="05.805791"><ele>18</ele><time>2022-03-04T14:29:25Z</time><name>PT2274</name></trkpt>
<trkpt lat="52.043398" lon="05.805780"><ele>18</ele><time>2022-03-04T14:29:26Z</time><name>PT2275</name></trkpt>
<trkpt lat="52.043410" lon="05.805765"><ele>18</ele><time>2022-03-04T14:29:28Z</time><name>PT2276</name></trkpt>
<trkpt lat="52.043422" lon="05.805753"><ele>18</ele><time>2022-03-04T14:29:28Z</time><name>PT2277</name></trkpt>
<trkpt lat="52.043432" lon="05.805740"><ele>18</ele><time>2022-03-04T14:29:29Z</time><name>PT2278</name></trkpt>
<trkpt lat="52.043441" lon="05.805732"><ele>18</ele><time>2022-03-04T14:29:31Z</time><name>PT2279</name></trkpt>
<trkpt lat="52.043449" lon="05.805724"><ele>18</ele><time>2022-03-04T14:29:31Z</time><name>PT2280</name></trkpt>
<trkpt lat="52.043456" lon="05.805716"><ele>17.9</ele><time>2022-03-04T14:29:32Z</time><name>PT2281</name></trkpt>
<trkpt lat="52.043463" lon="05.805709"><ele>18</ele><time>2022-03-04T14:29:34Z</time><name>PT2282</name></trkpt>
<trkpt lat="52.043472" lon="05.805698"><ele>18.1</ele><time>2022-03-04T14:29:34Z</time><name>PT2283</name></trkpt>
<trkpt lat="52.043487" lon="05.805683"><ele>18</ele><time>2022-03-04T14:29:35Z</time><name>PT2284</name></trkpt>
<trkpt lat="52.043500" lon="05.805668"><ele>18.1</ele><time>2022-03-04T14:29:37Z</time><name>PT2285</name></trkpt>
<trkpt lat="52.043507" lon="05.805657"><ele>18.2</ele><time>2022-03-04T14:29:37Z</time><name>PT2286</name></trkpt>
<trkpt lat="52.043514" lon="05.805650"><ele>18</ele><time>2022-03-04T14:29:38Z</time><name>PT2287</name></trkpt>
<trkpt lat="52.043521" lon="05.805642"><ele>18.2</ele><time>2022-03-04T14:29:40Z</time><name>PT2288</name></trkpt>
<trkpt lat="52.043531" lon="05.805631"><ele>18.1</ele><time>2022-03-04T14:29:40Z</time><name>PT2289</name></trkpt>
<trkpt lat="52.043543" lon="05.805619"><ele>18</ele><time>2022-03-04T14:29:41Z</time><name>PT2290</name></trkpt>
<trkpt lat="52.043556" lon="05.805605"><ele>18.1</ele><time>2022-03-04T14:29:43Z</time><name>PT2291</name></trkpt>
<trkpt lat="52.043565" lon="05.805593"><ele>18</ele><time>2022-03-04T14:29:43Z</time><name>PT2292</name></trkpt>
<trkpt lat="52.043573" lon="05.805583"><ele>17.9</ele><time>2022-03-04T14:29:44Z</time><name>PT2293</name></trkpt>
<trkpt lat="52.043579" lon="05.805575"><ele>18</ele><time>2022-03-04T14:29:46Z</time><name>PT2294</name></trkpt>
<trkpt lat="52.043586" lon="05.805569"><ele>18</ele><time>2022-03-04T14:29:46Z</time><name>PT2295</name></trkpt>
<trkpt lat="52.043592" lon="05.805561"><ele>17.8</ele><time>2022-03-04T14:29:47Z</time><name>PT2296</name></trkpt>
<trkpt lat="52.043600" lon="05.805549"><ele>18</ele><time>2022-03-04T14:29:49Z</time><name>PT2297</name></trkpt>
<trkpt lat="52.043613" lon="05.805534"><ele>18</ele><time>2022-03-04T14:29:49Z</time><name>PT2298</name></trkpt>
<trkpt lat="52.043626" lon="05.805521"><ele>18</ele><time>2022-03-04T14:29:50Z</time><name>PT2299</name></trkpt>
<trkpt lat="52.043636" lon="05.805509"><ele>18</ele><time>2022-03-04T14:29:52Z</time><name>PT2300</name></trkpt>
<trkpt lat="52.043645" lon="05.805501"><ele>18.1</ele><time>2022-03-04T14:29:52Z</time><name>PT2301</name></trkpt>
<trkpt lat="52.043651" lon="05.805491"><ele>18</ele><time>2022-03-04T14:29:53Z</time><name>PT2302</name></trkpt>
<trkpt lat="52.043658" lon="05.805483"><ele>18</ele><time>2022-03-04T14:29:55Z</time><name>PT2303</name></trkpt>
<trkpt lat="52.043665" lon="05.805476"><ele>17.9</ele><time>2022-03-04T14:29:55Z</time><name>PT2304</name></trkpt>
<trkpt lat="52.043673" lon="05.805463"><ele>18</ele><time>2022-03-04T14:29:56Z</time><name>PT2305</name></trkpt>
<trkpt lat="52.043684" lon="05.805448"><ele>18.1</ele><time>2022-03-04T14:29:58Z</time><name>PT2306</name></trkpt>
<trkpt lat="52.043696" lon="05.805434"><ele>18.1</ele><time>2022-03-04T14:29:58Z</time><name>PT2307</name></trkpt>
<trkpt lat="52.043707" lon="05.805423"><ele>18.2</ele><time>2022-03-04T14:29:59Z</time><name>PT2308</name></trkpt>
<trkpt lat="52.043715" lon="05.805414"><ele>18.4</ele><time>2022-03-04T14:30:01Z</time><name>PT2309</name></trkpt>
<trkpt lat="52.043721" lon="05.805406"><ele>18.4</ele><time>2022-03-04T14:30:01Z</time><name>PT2310</name></trkpt>
<trkpt lat="52.043728" lon="05.805400"><ele>18.2</ele><time>2022-03-04T14:30:02Z</time><name>PT2311</name></trkpt>
<trkpt lat="52.043735" lon="05.805390"><ele>18.3</ele><time>2022-03-04T14:30:04Z</time><name>PT2312</name></trkpt>
<trkpt lat="52.043743" lon="05.805379"><ele>18.3</ele><time>2022-03-04T14:30:04Z</time><name>PT2313</name></trkpt>
<trkpt lat="52.043752" lon="05.805365"><ele>18.1</ele><time>2022-03-04T14:30:05Z</time><name>PT2314</name></trkpt>
<trkpt lat="52.043766" lon="05.805351"><ele>18.2</ele><time>2022-03-04T14:30:07Z</time><name>PT2315</name></trkpt>
<trkpt lat="52.043778" lon="05.805338"><ele>18.3</ele><time>2022-03-04T14:30:07Z</time><name>PT2316</name></trkpt>
<trkpt lat="52.043788" lon="05.805326"><ele>18.3</ele><time>2022-03-04T14:30:08Z</time><name>PT2317</name></trkpt>
<trkpt lat="52.043798" lon="05.805316"><ele>18.4</ele><time>2022-03-04T14:30:10Z</time><name>PT2318</name></trkpt>
<trkpt lat="52.043806" lon="05.805308"><ele>18.4</ele><time>2022-03-04T14:30:10Z</time><name>PT2319</name></trkpt>
<trkpt lat="52.043812" lon="05.805301"><ele>18.4</ele><time>2022-03-04T14:30:11Z</time><name>PT2320</name></trkpt>
<trkpt lat="52.043819" lon="05.805293"><ele>18.6</ele><time>2022-03-04T14:30:13Z</time><name>PT2321</name></trkpt>
<trkpt lat="52.043824" lon="05.805284"><ele>18.5</ele><time>2022-03-04T14:30:13Z</time><name>PT2322</name></trkpt>
<trkpt lat="52.043830" lon="05.805274"><ele>18.5</ele><time>2022-03-04T14:30:14Z</time><name>PT2323</name></trkpt>
<trkpt lat="52.043840" lon="05.805264"><ele>18.5</ele><time>2022-03-04T14:30:16Z</time><name>PT2324</name></trkpt>
<trkpt lat="52.043851" lon="05.805252"><ele>18.6</ele><time>2022-03-04T14:30:16Z</time><name>PT2325</name></trkpt>
<trkpt lat="52.043863" lon="05.805235"><ele>18.5</ele><time>2022-03-04T14:30:17Z</time><name>PT2326</name></trkpt>
<trkpt lat="52.043878" lon="05.805218"><ele>18.4</ele><time>2022-03-04T14:30:19Z</time><name>PT2327</name></trkpt>
<trkpt lat="52.043891" lon="05.805203"><ele>18.4</ele><time>2022-03-04T14:30:19Z</time><name>PT2328</name></trkpt>
<trkpt lat="52.043902" lon="05.805191"><ele>18.4</ele><time>2022-03-04T14:30:20Z</time><name>PT2329</name></trkpt>
<trkpt lat="52.043911" lon="05.805180"><ele>18.3</ele><time>2022-03-04T14:30:22Z</time><name>PT2330</name></trkpt>
<trkpt lat="52.043916" lon="05.805169"><ele>18.3</ele><time>2022-03-04T14:30:22Z</time><name>PT2331</name></trkpt>
<trkpt lat="52.043922" lon="05.805159"><ele>18.4</ele><time>2022-03-04T14:30:23Z</time><name>PT2332</name></trkpt>
<trkpt lat="52.043930" lon="05.805149"><ele>18.5</ele><time>2022-03-04T14:30:25Z</time><name>PT2333</name></trkpt>
<trkpt lat="52.043936" lon="05.805138"><ele>18.6</ele><time>2022-03-04T14:30:25Z</time><name>PT2334</name></trkpt>
<trkpt lat="52.043946" lon="05.805123"><ele>18.7</ele><time>2022-03-04T14:30:26Z</time><name>PT2335</name></trkpt>
<trkpt lat="52.043955" lon="05.805107"><ele>18.8</ele><time>2022-03-04T14:30:28Z</time><name>PT2336</name></trkpt>
<trkpt lat="52.043967" lon="05.805089"><ele>18.8</ele><time>2022-03-04T14:30:28Z</time><name>PT2337</name></trkpt>
<trkpt lat="52.043978" lon="05.805072"><ele>18.8</ele><time>2022-03-04T14:30:29Z</time><name>PT2338</name></trkpt>
<trkpt lat="52.043990" lon="05.805056"><ele>18.7</ele><time>2022-03-04T14:30:31Z</time><name>PT2339</name></trkpt>
<trkpt lat="52.044001" lon="05.805042"><ele>18.7</ele><time>2022-03-04T14:30:31Z</time><name>PT2340</name></trkpt>
<trkpt lat="52.044009" lon="05.805031"><ele>18.5</ele><time>2022-03-04T14:30:32Z</time><name>PT2341</name></trkpt>
<trkpt lat="52.044017" lon="05.805023"><ele>18.7</ele><time>2022-03-04T14:30:34Z</time><name>PT2342</name></trkpt>
<trkpt lat="52.044023" lon="05.805018"><ele>18.7</ele><time>2022-03-04T14:30:34Z</time><name>PT2343</name></trkpt>
<trkpt lat="52.044029" lon="05.805014"><ele>18.9</ele><time>2022-03-04T14:30:35Z</time><name>PT2344</name></trkpt>
<trkpt lat="52.044040" lon="05.805001"><ele>18.9</ele><time>2022-03-04T14:30:37Z</time><name>PT2345</name></trkpt>
<trkpt lat="52.044051" lon="05.804983"><ele>19</ele><time>2022-03-04T14:30:37Z</time><name>PT2346</name></trkpt>
<trkpt lat="52.044067" lon="05.804968"><ele>19.1</ele><time>2022-03-04T14:30:38Z</time><name>PT2347</name></trkpt>
<trkpt lat="52.044080" lon="05.804954"><ele>19.2</ele><time>2022-03-04T14:30:40Z</time><name>PT2348</name></trkpt>
<trkpt lat="52.044092" lon="05.804941"><ele>19.1</ele><time>2022-03-04T14:30:40Z</time><name>PT2349</name></trkpt>
<trkpt lat="52.044099" lon="05.804931"><ele>19.1</ele><time>2022-03-04T14:30:41Z</time><name>PT2350</name></trkpt>
<trkpt lat="52.044105" lon="05.804924"><ele>19.3</ele><time>2022-03-04T14:30:43Z</time><name>PT2351</name></trkpt>
<trkpt lat="52.044111" lon="05.804918"><ele>19.3</ele><time>2022-03-04T14:30:43Z</time><name>PT2352</name></trkpt>
<trkpt lat="52.044115" lon="05.804912"><ele>19.2</ele><time>2022-03-04T14:30:44Z</time><name>PT2353</name></trkpt>
<trkpt lat="52.044123" lon="05.804901"><ele>19.3</ele><time>2022-03-04T14:30:46Z</time><name>PT2354</name></trkpt>
<trkpt lat="52.044135" lon="05.804885"><ele>19.4</ele><time>2022-03-04T14:30:46Z</time><name>PT2355</name></trkpt>
<trkpt lat="52.044148" lon="05.804867"><ele>19.4</ele><time>2022-03-04T14:30:47Z</time><name>PT2356</name></trkpt>
<trkpt lat="52.044160" lon="05.804852"><ele>19.4</ele><time>2022-03-04T14:30:49Z</time><name>PT2357</name></trkpt>
<trkpt lat="52.044171" lon="05.804839"><ele>19.3</ele><time>2022-03-04T14:30:49Z</time><name>PT2358</name></trkpt>
<trkpt lat="52.044179" lon="05.804828"><ele>19.2</ele><time>2022-03-04T14:30:50Z</time><name>PT2359</name></trkpt>
<trkpt lat="52.044184" lon="05.804820"><ele>19</ele><time>2022-03-04T14:30:52Z</time><name>PT2360</name></trkpt>
<trkpt lat="52.044190" lon="05.804812"><ele>19</ele><time>2022-03-04T14:30:52Z</time><name>PT2361</name></trkpt>
<trkpt lat="52.044194" lon="05.804806"><ele>19</ele><time>2022-03-04T14:30:54Z</time><name>PT2362</name></trkpt>
<trkpt lat="52.044201" lon="05.804797"><ele>19.3</ele><time>2022-03-04T14:30:55Z</time><name>PT2363</name></trkpt>
<trkpt lat="52.044210" lon="05.804784"><ele>19.5</ele><time>2022-03-04T14:30:55Z</time><name>PT2364</name></trkpt>
<trkpt lat="52.044222" lon="05.804767"><ele>19.8</ele><time>2022-03-04T14:30:56Z</time><name>PT2365</name></trkpt>
<trkpt lat="52.044233" lon="05.804750"><ele>19.9</ele><time>2022-03-04T14:30:58Z</time><name>PT2366</name></trkpt>
<trkpt lat="52.044247" lon="05.804730"><ele>19.9</ele><time>2022-03-04T14:30:58Z</time><name>PT2367</name></trkpt>
<trkpt lat="52.044258" lon="05.804713"><ele>19.9</ele><time>2022-03-04T14:30:59Z</time><name>PT2368</name></trkpt>
<trkpt lat="52.044268" lon="05.804700"><ele>19.7</ele><time>2022-03-04T14:31:01Z</time><name>PT2369</name></trkpt>
<trkpt lat="52.044274" lon="05.804689"><ele>19.8</ele><time>2022-03-04T14:31:01Z</time><name>PT2370</name></trkpt>
<trkpt lat="52.044281" lon="05.804680"><ele>19.6</ele><time>2022-03-04T14:31:02Z</time><name>PT2371</name></trkpt>
<trkpt lat="52.044285" lon="05.804676"><ele>19.5</ele><time>2022-03-04T14:31:04Z</time><name>PT2372</name></trkpt>
<trkpt lat="52.044290" lon="05.804672"><ele>19.5</ele><time>2022-03-04T14:31:04Z</time><name>PT2373</name></trkpt>
<trkpt lat="52.044296" lon="05.804667"><ele>19.5</ele><time>2022-03-04T14:31:05Z</time><name>PT2374</name></trkpt>
<trkpt lat="52.044304" lon="05.804655"><ele>19.5</ele><time>2022-03-04T14:31:07Z</time><name>PT2375</name></trkpt>
<trkpt lat="52.044314" lon="05.804641"><ele>19.6</ele><time>2022-03-04T14:31:07Z</time><name>PT2376</name></trkpt>
<trkpt lat="52.044328" lon="05.804622"><ele>19.6</ele><time>2022-03-04T14:31:08Z</time><name>PT2377</name></trkpt>
<trkpt lat="52.044342" lon="05.804603"><ele>19.6</ele><time>2022-03-04T14:31:10Z</time><name>PT2378</name></trkpt>
<trkpt lat="52.044353" lon="05.804587"><ele>19.7</ele><time>2022-03-04T14:31:10Z</time><name>PT2379</name></trkpt>
<trkpt lat="52.044364" lon="05.804576"><ele>19.9</ele><time>2022-03-04T14:31:11Z</time><name>PT2380</name></trkpt>
<trkpt lat="52.044376" lon="05.804568"><ele>19.9</ele><time>2022-03-04T14:31:13Z</time><name>PT2381</name></trkpt>
<trkpt lat="52.044382" lon="05.804563"><ele>19.9</ele><time>2022-03-04T14:31:13Z</time><name>PT2382</name></trkpt>
<trkpt lat="52.044387" lon="05.804557"><ele>19.9</ele><time>2022-03-04T14:31:14Z</time><name>PT2383</name></trkpt>
<trkpt lat="52.044391" lon="05.804551"><ele>19.9</ele><time>2022-03-04T14:31:16Z</time><name>PT2384</name></trkpt>
<trkpt lat="52.044397" lon="05.804542"><ele>19.7</ele><time>2022-03-04T14:31:16Z</time><name>PT2385</name></trkpt>
<trkpt lat="52.044407" lon="05.804528"><ele>19.9</ele><time>2022-03-04T14:31:17Z</time><name>PT2386</name></trkpt>
<trkpt lat="52.044425" lon="05.804509"><ele>20</ele><time>2022-03-04T14:31:19Z</time><name>PT2387</name></trkpt>
<trkpt lat="52.044438" lon="05.804493"><ele>20</ele><time>2022-03-04T14:31:19Z</time><name>PT2388</name></trkpt>
<trkpt lat="52.044447" lon="05.804477"><ele>20</ele><time>2022-03-04T14:31:20Z</time><name>PT2389</name></trkpt>
<trkpt lat="52.044456" lon="05.804463"><ele>20.1</ele><time>2022-03-04T14:31:22Z</time><name>PT2390</name></trkpt>
<trkpt lat="52.044463" lon="05.804454"><ele>20.1</ele><time>2022-03-04T14:31:22Z</time><name>PT2391</name></trkpt>
<trkpt lat="52.044470" lon="05.804449"><ele>19.9</ele><time>2022-03-04T14:31:23Z</time><name>PT2392</name></trkpt>
<trkpt lat="52.044476" lon="05.804443"><ele>19.7</ele><time>2022-03-04T14:31:25Z</time><name>PT2393</name></trkpt>
<trkpt lat="52.044484" lon="05.804435"><ele>19.7</ele><time>2022-03-04T14:31:25Z</time><name>PT2394</name></trkpt>
<trkpt lat="52.044490" lon="05.804429"><ele>19.7</ele><time>2022-03-04T14:31:26Z</time><name>PT2395</name></trkpt>
<trkpt lat="52.044498" lon="05.804419"><ele>19.8</ele><time>2022-03-04T14:31:28Z</time><name>PT2396</name></trkpt>
<trkpt lat="52.044507" lon="05.804406"><ele>19.8</ele><time>2022-03-04T14:31:28Z</time><name>PT2397</name></trkpt>
<trkpt lat="52.044519" lon="05.804389"><ele>19.9</ele><time>2022-03-04T14:31:29Z</time><name>PT2398</name></trkpt>
<trkpt lat="52.044532" lon="05.804370"><ele>20</ele><time>2022-03-04T14:31:31Z</time><name>PT2399</name></trkpt>
<trkpt lat="52.044544" lon="05.804351"><ele>20</ele><time>2022-03-04T14:31:31Z</time><name>PT2400</name></trkpt>
<trkpt lat="52.044557" lon="05.804336"><ele>20</ele><time>2022-03-04T14:31:32Z</time><name>PT2401</name></trkpt>
<trkpt lat="52.044565" lon="05.804328"><ele>20.3</ele><time>2022-03-04T14:31:34Z</time><name>PT2402</name></trkpt>
<trkpt lat="52.044571" lon="05.804322"><ele>20.4</ele><time>2022-03-04T14:31:34Z</time><name>PT2403</name></trkpt>
<trkpt lat="52.044574" lon="05.804316"><ele>20.6</ele><time>2022-03-04T14:31:35Z</time><name>PT2404</name></trkpt>
<trkpt lat="52.044579" lon="05.804309"><ele>20.6</ele><time>2022-03-04T14:31:37Z</time><name>PT2405</name></trkpt>
<trkpt lat="52.044587" lon="05.804298"><ele>20.4</ele><time>2022-03-04T14:31:37Z</time><name>PT2406</name></trkpt>
<trkpt lat="52.044600" lon="05.804285"><ele>20.4</ele><time>2022-03-04T14:31:38Z</time><name>PT2407</name></trkpt>
<trkpt lat="52.044615" lon="05.804269"><ele>20.2</ele><time>2022-03-04T14:31:40Z</time><name>PT2408</name></trkpt>
<trkpt lat="52.044627" lon="05.804257"><ele>20.1</ele><time>2022-03-04T14:31:40Z</time><name>PT2409</name></trkpt>
<trkpt lat="52.044636" lon="05.804247"><ele>20</ele><time>2022-03-04T14:31:41Z</time><name>PT2410</name></trkpt>
<trkpt lat="52.044643" lon="05.804240"><ele>20</ele><time>2022-03-04T14:31:43Z</time><name>PT2411</name></trkpt>
<trkpt lat="52.044649" lon="05.804232"><ele>20.2</ele><time>2022-03-04T14:31:43Z</time><name>PT2412</name></trkpt>
<trkpt lat="52.044656" lon="05.804220"><ele>20.3</ele><time>2022-03-04T14:31:44Z</time><name>PT2413</name></trkpt>
<trkpt lat="52.044664" lon="05.804206"><ele>20.3</ele><time>2022-03-04T14:31:46Z</time><name>PT2414</name></trkpt>
<trkpt lat="52.044672" lon="05.804190"><ele>20.4</ele><time>2022-03-04T14:31:46Z</time><name>PT2415</name></trkpt>
<trkpt lat="52.044687" lon="05.804174"><ele>20.6</ele><time>2022-03-04T14:31:47Z</time><name>PT2416</name></trkpt>
<trkpt lat="52.044702" lon="05.804158"><ele>20.4</ele><time>2022-03-04T14:31:49Z</time><name>PT2417</name></trkpt>
<trkpt lat="52.044712" lon="05.804145"><ele>20.4</ele><time>2022-03-04T14:31:49Z</time><name>PT2418</name></trkpt>
<trkpt lat="52.044720" lon="05.804138"><ele>20.4</ele><time>2022-03-04T14:31:50Z</time><name>PT2419</name></trkpt>
<trkpt lat="52.044725" lon="05.804131"><ele>20.5</ele><time>2022-03-04T14:31:52Z</time><name>PT2420</name></trkpt>
<trkpt lat="52.044730" lon="05.804123"><ele>20.5</ele><time>2022-03-04T14:31:52Z</time><name>PT2421</name></trkpt>
<trkpt lat="52.044736" lon="05.804112"><ele>20.6</ele><time>2022-03-04T14:31:53Z</time><name>PT2422</name></trkpt>
<trkpt lat="52.044747" lon="05.804098"><ele>20.6</ele><time>2022-03-04T14:31:55Z</time><name>PT2423</name></trkpt>
<trkpt lat="52.044758" lon="05.804082"><ele>20.7</ele><time>2022-03-04T14:31:55Z</time><name>PT2424</name></trkpt>
<trkpt lat="52.044767" lon="05.804066"><ele>20.6</ele><time>2022-03-04T14:31:56Z</time><name>PT2425</name></trkpt>
<trkpt lat="52.044775" lon="05.804052"><ele>20.6</ele><time>2022-03-04T14:31:58Z</time><name>PT2426</name></trkpt>
<trkpt lat="52.044783" lon="05.804042"><ele>20.7</ele><time>2022-03-04T14:31:58Z</time><name>PT2427</name></trkpt>
<trkpt lat="52.044791" lon="05.804033"><ele>20.8</ele><time>2022-03-04T14:31:59Z</time><name>PT2428</name></trkpt>
<trkpt lat="52.044799" lon="05.804022"><ele>20.8</ele><time>2022-03-04T14:32:01Z</time><name>PT2429</name></trkpt>
<trkpt lat="52.044806" lon="05.804012"><ele>20.8</ele><time>2022-03-04T14:32:01Z</time><name>PT2430</name></trkpt>
<trkpt lat="52.044814" lon="05.803998"><ele>21</ele><time>2022-03-04T14:32:02Z</time><name>PT2431</name></trkpt>
<trkpt lat="52.044823" lon="05.803982"><ele>21</ele><time>2022-03-04T14:32:04Z</time><name>PT2432</name></trkpt>
<trkpt lat="52.044829" lon="05.803971"><ele>20.9</ele><time>2022-03-04T14:32:04Z</time><name>PT2433</name></trkpt>
<trkpt lat="52.044837" lon="05.803962"><ele>20.8</ele><time>2022-03-04T14:32:05Z</time><name>PT2434</name></trkpt>
<trkpt lat="52.044842" lon="05.803954"><ele>20.8</ele><time>2022-03-04T14:32:07Z</time><name>PT2435</name></trkpt>
<trkpt lat="52.044846" lon="05.803945"><ele>20.6</ele><time>2022-03-04T14:32:07Z</time><name>PT2436</name></trkpt>
<trkpt lat="52.044852" lon="05.803932"><ele>20.8</ele><time>2022-03-04T14:32:08Z</time><name>PT2437</name></trkpt>
<trkpt lat="52.044862" lon="05.803917"><ele>20.8</ele><time>2022-03-04T14:32:10Z</time><name>PT2438</name></trkpt>
<trkpt lat="52.044873" lon="05.803904"><ele>20.8</ele><time>2022-03-04T14:32:10Z</time><name>PT2439</name></trkpt>
<trkpt lat="52.044884" lon="05.803892"><ele>20.8</ele><time>2022-03-04T14:32:11Z</time><name>PT2440</name></trkpt>
<trkpt lat="52.044893" lon="05.803879"><ele>20.9</ele><time>2022-03-04T14:32:13Z</time><name>PT2441</name></trkpt>
<trkpt lat="52.044899" lon="05.803868"><ele>20.9</ele><time>2022-03-04T14:32:13Z</time><name>PT2442</name></trkpt>
<trkpt lat="52.044905" lon="05.803861"><ele>20.8</ele><time>2022-03-04T14:32:14Z</time><name>PT2443</name></trkpt>
<trkpt lat="52.044910" lon="05.803858"><ele>20.7</ele><time>2022-03-04T14:32:16Z</time><name>PT2444</name></trkpt>
<trkpt lat="52.044915" lon="05.803849"><ele>20.8</ele><time>2022-03-04T14:32:16Z</time><name>PT2445</name></trkpt>
<trkpt lat="52.044923" lon="05.803837"><ele>20.8</ele><time>2022-03-04T14:32:17Z</time><name>PT2446</name></trkpt>
<trkpt lat="52.044933" lon="05.803826"><ele>20.8</ele><time>2022-03-04T14:32:19Z</time><name>PT2447</name></trkpt>
<trkpt lat="52.044944" lon="05.803815"><ele>20.8</ele><time>2022-03-04T14:32:19Z</time><name>PT2448</name></trkpt>
<trkpt lat="52.044954" lon="05.803803"><ele>21.1</ele><time>2022-03-04T14:32:20Z</time><name>PT2449</name></trkpt>
<trkpt lat="52.044961" lon="05.803791"><ele>21.2</ele><time>2022-03-04T14:32:22Z</time><name>PT2450</name></trkpt>
<trkpt lat="52.044967" lon="05.803780"><ele>21</ele><time>2022-03-04T14:32:22Z</time><name>PT2451</name></trkpt>
<trkpt lat="52.044974" lon="05.803772"><ele>21.1</ele><time>2022-03-04T14:32:23Z</time><name>PT2452</name></trkpt>
<trkpt lat="52.044980" lon="05.803764"><ele>21.1</ele><time>2022-03-04T14:32:25Z</time><name>PT2453</name></trkpt>
<trkpt lat="52.044986" lon="05.803752"><ele>21.1</ele><time>2022-03-04T14:32:25Z</time><name>PT2454</name></trkpt>
<trkpt lat="52.044995" lon="05.803737"><ele>21</ele><time>2022-03-04T14:32:26Z</time><name>PT2455</name></trkpt>
<trkpt lat="52.045004" lon="05.803720"><ele>21</ele><time>2022-03-04T14:32:28Z</time><name>PT2456</name></trkpt>
<trkpt lat="52.045016" lon="05.803700"><ele>21.1</ele><time>2022-03-04T14:32:28Z</time><name>PT2457</name></trkpt>
<trkpt lat="52.045027" lon="05.803690"><ele>21</ele><time>2022-03-04T14:32:29Z</time><name>PT2458</name></trkpt>
<trkpt lat="52.045036" lon="05.803680"><ele>21</ele><time>2022-03-04T14:32:31Z</time><name>PT2459</name></trkpt>
<trkpt lat="52.045042" lon="05.803672"><ele>20.9</ele><time>2022-03-04T14:32:31Z</time><name>PT2460</name></trkpt>
<trkpt lat="52.045046" lon="05.803663"><ele>21.1</ele><time>2022-03-04T14:32:32Z</time><name>PT2461</name></trkpt>
<trkpt lat="52.045050" lon="05.803654"><ele>21</ele><time>2022-03-04T14:32:34Z</time><name>PT2462</name></trkpt>
<trkpt lat="52.045058" lon="05.803641"><ele>20.9</ele><time>2022-03-04T14:32:34Z</time><name>PT2463</name></trkpt>
<trkpt lat="52.045067" lon="05.803630"><ele>20.8</ele><time>2022-03-04T14:32:35Z</time><name>PT2464</name></trkpt>
<trkpt lat="52.045077" lon="05.803617"><ele>20.8</ele><time>2022-03-04T14:32:37Z</time><name>PT2465</name></trkpt>
<trkpt lat="52.045086" lon="05.803606"><ele>20.7</ele><time>2022-03-04T14:32:37Z</time><name>PT2466</name></trkpt>
<trkpt lat="52.045095" lon="05.803594"><ele>20.8</ele><time>2022-03-04T14:32:38Z</time><name>PT2467</name></trkpt>
<trkpt lat="52.045101" lon="05.803587"><ele>20.8</ele><time>2022-03-04T14:32:40Z</time><name>PT2468</name></trkpt>
<trkpt lat="52.045109" lon="05.803581"><ele>21</ele><time>2022-03-04T14:32:40Z</time><name>PT2469</name></trkpt>
<trkpt lat="52.045113" lon="05.803575"><ele>21.2</ele><time>2022-03-04T14:32:41Z</time><name>PT2470</name></trkpt>
<trkpt lat="52.045121" lon="05.803566"><ele>21.2</ele><time>2022-03-04T14:32:43Z</time><name>PT2471</name></trkpt>
<trkpt lat="52.045128" lon="05.803552"><ele>21.2</ele><time>2022-03-04T14:32:43Z</time><name>PT2472</name></trkpt>
<trkpt lat="52.045136" lon="05.803538"><ele>21.3</ele><time>2022-03-04T14:32:44Z</time><name>PT2473</name></trkpt>
<trkpt lat="52.045142" lon="05.803529"><ele>21.2</ele><time>2022-03-04T14:32:46Z</time><name>PT2474</name></trkpt>
<trkpt lat="52.045149" lon="05.803520"><ele>21.1</ele><time>2022-03-04T14:32:46Z</time><name>PT2475</name></trkpt>
<trkpt lat="52.045156" lon="05.803514"><ele>21.1</ele><time>2022-03-04T14:32:47Z</time><name>PT2476</name></trkpt>
<trkpt lat="52.045163" lon="05.803506"><ele>21.2</ele><time>2022-03-04T14:32:49Z</time><name>PT2477</name></trkpt>
<trkpt lat="52.045174" lon="05.803491"><ele>21.2</ele><time>2022-03-04T14:32:49Z</time><name>PT2478</name></trkpt>
<trkpt lat="52.045187" lon="05.803477"><ele>21.3</ele><time>2022-03-04T14:32:50Z</time><name>PT2479</name></trkpt>
<trkpt lat="52.045196" lon="05.803466"><ele>21.3</ele><time>2022-03-04T14:32:52Z</time><name>PT2480</name></trkpt>
<trkpt lat="52.045203" lon="05.803461"><ele>21.4</ele><time>2022-03-04T14:32:52Z</time><name>PT2481</name></trkpt>
<trkpt lat="52.045209" lon="05.803458"><ele>21.5</ele><time>2022-03-04T14:32:53Z</time><name>PT2482</name></trkpt>
<trkpt lat="52.045214" lon="05.803448"><ele>21.6</ele><time>2022-03-04T14:32:55Z</time><name>PT2483</name></trkpt>
<trkpt lat="52.045219" lon="05.803432"><ele>21.6</ele><time>2022-03-04T14:32:55Z</time><name>PT2484</name></trkpt>
<trkpt lat="52.045228" lon="05.803419"><ele>21.6</ele><time>2022-03-04T14:32:56Z</time><name>PT2485</name></trkpt>
<trkpt lat="52.045237" lon="05.803405"><ele>21.7</ele><time>2022-03-04T14:32:58Z</time><name>PT2486</name></trkpt>
<trkpt lat="52.045243" lon="05.803397"><ele>21.8</ele><time>2022-03-04T14:32:58Z</time><name>PT2487</name></trkpt>
<trkpt lat="52.045248" lon="05.803390"><ele>21.7</ele><time>2022-03-04T14:32:59Z</time><name>PT2488</name></trkpt>
<trkpt lat="52.045254" lon="05.803382"><ele>21.8</ele><time>2022-03-04T14:33:01Z</time><name>PT2489</name></trkpt>
<trkpt lat="52.045260" lon="05.803365"><ele>21.6</ele><time>2022-03-04T14:33:01Z</time><name>PT2490</name></trkpt>
<trkpt lat="52.045266" lon="05.803344"><ele>21.6</ele><time>2022-03-04T14:33:02Z</time><name>PT2491</name></trkpt>
<trkpt lat="52.045272" lon="05.803322"><ele>21.6</ele><time>2022-03-04T14:33:04Z</time><name>PT2492</name></trkpt>
<trkpt lat="52.045278" lon="05.803305"><ele>21.6</ele><time>2022-03-04T14:33:04Z</time><name>PT2493</name></trkpt>
<trkpt lat="52.045279" lon="05.803291"><ele>21.8</ele><time>2022-03-04T14:33:05Z</time><name>PT2494</name></trkpt>
<trkpt lat="52.045281" lon="05.803280"><ele>21.9</ele><time>2022-03-04T14:33:07Z</time><name>PT2495</name></trkpt>
<trkpt lat="52.045278" lon="05.803261"><ele>22</ele><time>2022-03-04T14:33:07Z</time><name>PT2496</name></trkpt>
<trkpt lat="52.045271" lon="05.803243"><ele>22.2</ele><time>2022-03-04T14:33:08Z</time><name>PT2497</name></trkpt>
<trkpt lat="52.045270" lon="05.803238"><ele>22.2</ele><time>2022-03-04T14:33:10Z</time><name>PT2498</name></trkpt>
<trkpt lat="52.045272" lon="05.803234"><ele>22.2</ele><time>2022-03-04T14:33:10Z</time><name>PT2499</name></trkpt>
<trkpt lat="52.045272" lon="05.803228"><ele>22.2</ele><time>2022-03-04T14:33:11Z</time><name>PT2500</name></trkpt>
<trkpt lat="52.045267" lon="05.803215"><ele>22.2</ele><time>2022-03-04T14:33:13Z</time><name>PT2501</name></trkpt>
<trkpt lat="52.045263" lon="05.803203"><ele>22</ele><time>2022-03-04T14:33:13Z</time><name>PT2502</name></trkpt>
<trkpt lat="52.045259" lon="05.803196"><ele>21.9</ele><time>2022-03-04T14:33:14Z</time><name>PT2503</name></trkpt>
<trkpt lat="52.045256" lon="05.803188"><ele>21.9</ele><time>2022-03-04T14:33:16Z</time><name>PT2504</name></trkpt>
<trkpt lat="52.045252" lon="05.803174"><ele>21.8</ele><time>2022-03-04T14:33:16Z</time><name>PT2505</name></trkpt>
<trkpt lat="52.045246" lon="05.803164"><ele>21.7</ele><time>2022-03-04T14:33:17Z</time><name>PT2506</name></trkpt>
<trkpt lat="52.045240" lon="05.803160"><ele>21.8</ele><time>2022-03-04T14:33:19Z</time><name>PT2507</name></trkpt>
<trkpt lat="52.045234" lon="05.803148"><ele>21.8</ele><time>2022-03-04T14:33:19Z</time><name>PT2508</name></trkpt>
<trkpt lat="52.045225" lon="05.803133"><ele>21.8</ele><time>2022-03-04T14:33:21Z</time><name>PT2509</name></trkpt>
<trkpt lat="52.045221" lon="05.803126"><ele>21.8</ele><time>2022-03-04T14:33:22Z</time><name>PT2510</name></trkpt>
<trkpt lat="52.045221" lon="05.803122"><ele>21.8</ele><time>2022-03-04T14:33:22Z</time><name>PT2511</name></trkpt>
<trkpt lat="52.045215" lon="05.803110"><ele>21.8</ele><time>2022-03-04T14:33:23Z</time><name>PT2512</name></trkpt>
<trkpt lat="52.045209" lon="05.803097"><ele>21.6</ele><time>2022-03-04T14:33:25Z</time><name>PT2513</name></trkpt>
<trkpt lat="52.045204" lon="05.803087"><ele>21.5</ele><time>2022-03-04T14:33:25Z</time><name>PT2514</name></trkpt>
<trkpt lat="52.045199" lon="05.803079"><ele>21.5</ele><time>2022-03-04T14:33:26Z</time><name>PT2515</name></trkpt>
<trkpt lat="52.045196" lon="05.803064"><ele>21.5</ele><time>2022-03-04T14:33:28Z</time><name>PT2516</name></trkpt>
<trkpt lat="52.045192" lon="05.803054"><ele>21.4</ele><time>2022-03-04T14:33:28Z</time><name>PT2517</name></trkpt>
<trkpt lat="52.045182" lon="05.803035"><ele>21.6</ele><time>2022-03-04T14:33:31Z</time><name>PT2518</name></trkpt>
<trkpt lat="52.045178" lon="05.803019"><ele>21.5</ele><time>2022-03-04T14:33:31Z</time><name>PT2519</name></trkpt>
<trkpt lat="52.045174" lon="05.803007"><ele>21.5</ele><time>2022-03-04T14:33:32Z</time><name>PT2520</name></trkpt>
<trkpt lat="52.045169" lon="05.802997"><ele>21.6</ele><time>2022-03-04T14:33:34Z</time><name>PT2521</name></trkpt>
<trkpt lat="52.045163" lon="05.802987"><ele>21.6</ele><time>2022-03-04T14:33:34Z</time><name>PT2522</name></trkpt>
<trkpt lat="52.045157" lon="05.802971"><ele>21.4</ele><time>2022-03-04T14:33:36Z</time><name>PT2523</name></trkpt>
<trkpt lat="52.045152" lon="05.802956"><ele>21.5</ele><time>2022-03-04T14:33:37Z</time><name>PT2524</name></trkpt>
<trkpt lat="52.045148" lon="05.802945"><ele>21.3</ele><time>2022-03-04T14:33:37Z</time><name>PT2525</name></trkpt>
<trkpt lat="52.045145" lon="05.802938"><ele>21.2</ele><time>2022-03-04T14:33:38Z</time><name>PT2526</name></trkpt>
<trkpt lat="52.045140" lon="05.802928"><ele>21.1</ele><time>2022-03-04T14:33:40Z</time><name>PT2527</name></trkpt>
<trkpt lat="52.045138" lon="05.802918"><ele>21.2</ele><time>2022-03-04T14:33:40Z</time><name>PT2528</name></trkpt>
<trkpt lat="52.045133" lon="05.802910"><ele>21.2</ele><time>2022-03-04T14:33:41Z</time><name>PT2529</name></trkpt>
<trkpt lat="52.045129" lon="05.802899"><ele>21.2</ele><time>2022-03-04T14:33:43Z</time><name>PT2530</name></trkpt>
<trkpt lat="52.045124" lon="05.802887"><ele>21.3</ele><time>2022-03-04T14:33:43Z</time><name>PT2531</name></trkpt>
<trkpt lat="52.045116" lon="05.802878"><ele>21.3</ele><time>2022-03-04T14:33:44Z</time><name>PT2532</name></trkpt>
<trkpt lat="52.045110" lon="05.802865"><ele>21.4</ele><time>2022-03-04T14:33:46Z</time><name>PT2533</name></trkpt>
<trkpt lat="52.045105" lon="05.802857"><ele>21.5</ele><time>2022-03-04T14:33:46Z</time><name>PT2534</name></trkpt>
<trkpt lat="52.045100" lon="05.802848"><ele>21.6</ele><time>2022-03-04T14:33:47Z</time><name>PT2535</name></trkpt>
<trkpt lat="52.045091" lon="05.802834"><ele>21.8</ele><time>2022-03-04T14:33:49Z</time><name>PT2536</name></trkpt>
<trkpt lat="52.045084" lon="05.802820"><ele>21.8</ele><time>2022-03-04T14:33:49Z</time><name>PT2537</name></trkpt>
<trkpt lat="52.045080" lon="05.802810"><ele>21.8</ele><time>2022-03-04T14:33:50Z</time><name>PT2538</name></trkpt>
<trkpt lat="52.045076" lon="05.802801"><ele>21.8</ele><time>2022-03-04T14:33:52Z</time><name>PT2539</name></trkpt>
<trkpt lat="52.045071" lon="05.802795"><ele>21.7</ele><time>2022-03-04T14:33:52Z</time><name>PT2540</name></trkpt>
<trkpt lat="52.045062" lon="05.802782"><ele>21.4</ele><time>2022-03-04T14:33:53Z</time><name>PT2541</name></trkpt>
<trkpt lat="52.045054" lon="05.802761"><ele>21.5</ele><time>2022-03-04T14:33:55Z</time><name>PT2542</name></trkpt>
<trkpt lat="52.045048" lon="05.802748"><ele>21.3</ele><time>2022-03-04T14:33:55Z</time><name>PT2543</name></trkpt>
<trkpt lat="52.045034" lon="05.802726"><ele>21.1</ele><time>2022-03-04T14:33:58Z</time><name>PT2544</name></trkpt>
<trkpt lat="52.045028" lon="05.802712"><ele>21.1</ele><time>2022-03-04T14:33:58Z</time><name>PT2545</name></trkpt>
<trkpt lat="52.045022" lon="05.802698"><ele>21</ele><time>2022-03-04T14:33:59Z</time><name>PT2546</name></trkpt>
<trkpt lat="52.045017" lon="05.802686"><ele>21.1</ele><time>2022-03-04T14:34:01Z</time><name>PT2547</name></trkpt>
<trkpt lat="52.045015" lon="05.802676"><ele>21.2</ele><time>2022-03-04T14:34:01Z</time><name>PT2548</name></trkpt>
<trkpt lat="52.045009" lon="05.802665"><ele>21.3</ele><time>2022-03-04T14:34:02Z</time><name>PT2549</name></trkpt>
<trkpt lat="52.045000" lon="05.802648"><ele>21.3</ele><time>2022-03-04T14:34:04Z</time><name>PT2550</name></trkpt>
<trkpt lat="52.044993" lon="05.802630"><ele>21.3</ele><time>2022-03-04T14:34:04Z</time><name>PT2551</name></trkpt>
<trkpt lat="52.044988" lon="05.802617"><ele>21.3</ele><time>2022-03-04T14:34:05Z</time><name>PT2552</name></trkpt>
<trkpt lat="52.044981" lon="05.802604"><ele>21.3</ele><time>2022-03-04T14:34:07Z</time><name>PT2553</name></trkpt>
<trkpt lat="52.044976" lon="05.802594"><ele>21.3</ele><time>2022-03-04T14:34:07Z</time><name>PT2554</name></trkpt>
<trkpt lat="52.044969" lon="05.802577"><ele>21.3</ele><time>2022-03-04T14:34:08Z</time><name>PT2555</name></trkpt>
<trkpt lat="52.044964" lon="05.802562"><ele>21.2</ele><time>2022-03-04T14:34:10Z</time><name>PT2556</name></trkpt>
<trkpt lat="52.044958" lon="05.802551"><ele>21.2</ele><time>2022-03-04T14:34:10Z</time><name>PT2557</name></trkpt>
<trkpt lat="52.044953" lon="05.802540"><ele>21.3</ele><time>2022-03-04T14:34:11Z</time><name>PT2558</name></trkpt>
<trkpt lat="52.044947" lon="05.802527"><ele>21.3</ele><time>2022-03-04T14:34:13Z</time><name>PT2559</name></trkpt>
<trkpt lat="52.044940" lon="05.802516"><ele>21.3</ele><time>2022-03-04T14:34:13Z</time><name>PT2560</name></trkpt>
<trkpt lat="52.044932" lon="05.802499"><ele>21.3</ele><time>2022-03-04T14:34:14Z</time><name>PT2561</name></trkpt>
<trkpt lat="52.044927" lon="05.802483"><ele>21.2</ele><time>2022-03-04T14:34:16Z</time><name>PT2562</name></trkpt>
<trkpt lat="52.044924" lon="05.802472"><ele>21.3</ele><time>2022-03-04T14:34:16Z</time><name>PT2563</name></trkpt>
<trkpt lat="52.044918" lon="05.802461"><ele>21.4</ele><time>2022-03-04T14:34:17Z</time><name>PT2564</name></trkpt>
<trkpt lat="52.044910" lon="05.802449"><ele>21.3</ele><time>2022-03-04T14:34:19Z</time><name>PT2565</name></trkpt>
<trkpt lat="52.044901" lon="05.802430"><ele>21.3</ele><time>2022-03-04T14:34:19Z</time><name>PT2566</name></trkpt>
<trkpt lat="52.044894" lon="05.802416"><ele>21.5</ele><time>2022-03-04T14:34:20Z</time><name>PT2567</name></trkpt>
<trkpt lat="52.044889" lon="05.802406"><ele>21.5</ele><time>2022-03-04T14:34:22Z</time><name>PT2568</name></trkpt>
<trkpt lat="52.044876" lon="05.802384"><ele>21.3</ele><time>2022-03-04T14:34:23Z</time><name>PT2569</name></trkpt>
<trkpt lat="52.044867" lon="05.802365"><ele>21.3</ele><time>2022-03-04T14:34:25Z</time><name>PT2570</name></trkpt>
<trkpt lat="52.044861" lon="05.802349"><ele>21.3</ele><time>2022-03-04T14:34:25Z</time><name>PT2571</name></trkpt>
<trkpt lat="52.044854" lon="05.802335"><ele>21.2</ele><time>2022-03-04T14:34:26Z</time><name>PT2572</name></trkpt>
<trkpt lat="52.044850" lon="05.802325"><ele>21.2</ele><time>2022-03-04T14:34:28Z</time><name>PT2573</name></trkpt>
<trkpt lat="52.044846" lon="05.802316"><ele>21.2</ele><time>2022-03-04T14:34:28Z</time><name>PT2574</name></trkpt>
<trkpt lat="52.044842" lon="05.802300"><ele>21.2</ele><time>2022-03-04T14:34:29Z</time><name>PT2575</name></trkpt>
<trkpt lat="52.044838" lon="05.802284"><ele>21</ele><time>2022-03-04T14:34:31Z</time><name>PT2576</name></trkpt>
<trkpt lat="52.044832" lon="05.802272"><ele>21.1</ele><time>2022-03-04T14:34:31Z</time><name>PT2577</name></trkpt>
<trkpt lat="52.044826" lon="05.802263"><ele>21.3</ele><time>2022-03-04T14:34:32Z</time><name>PT2578</name></trkpt>
<trkpt lat="52.044821" lon="05.802253"><ele>21.3</ele><time>2022-03-04T14:34:34Z</time><name>PT2579</name></trkpt>
<trkpt lat="52.044815" lon="05.802240"><ele>21.3</ele><time>2022-03-04T14:34:34Z</time><name>PT2580</name></trkpt>
<trkpt lat="52.044807" lon="05.802223"><ele>21.3</ele><time>2022-03-04T14:34:35Z</time><name>PT2581</name></trkpt>
<trkpt lat="52.044800" lon="05.802203"><ele>21.3</ele><time>2022-03-04T14:34:37Z</time><name>PT2582</name></trkpt>
<trkpt lat="52.044794" lon="05.802187"><ele>21</ele><time>2022-03-04T14:34:37Z</time><name>PT2583</name></trkpt>
<trkpt lat="52.044788" lon="05.802177"><ele>20.8</ele><time>2022-03-04T14:34:38Z</time><name>PT2584</name></trkpt>
<trkpt lat="52.044783" lon="05.802167"><ele>20.9</ele><time>2022-03-04T14:34:40Z</time><name>PT2585</name></trkpt>
<trkpt lat="52.044778" lon="05.802156"><ele>20.8</ele><time>2022-03-04T14:34:40Z</time><name>PT2586</name></trkpt>
<trkpt lat="52.044771" lon="05.802139"><ele>20.8</ele><time>2022-03-04T14:34:41Z</time><name>PT2587</name></trkpt>
<trkpt lat="52.044765" lon="05.802119"><ele>20.8</ele><time>2022-03-04T14:34:43Z</time><name>PT2588</name></trkpt>
<trkpt lat="52.044758" lon="05.802103"><ele>20.8</ele><time>2022-03-04T14:34:43Z</time><name>PT2589</name></trkpt>
<trkpt lat="52.044750" lon="05.802090"><ele>20.8</ele><time>2022-03-04T14:34:44Z</time><name>PT2590</name></trkpt>
<trkpt lat="52.044746" lon="05.802080"><ele>20.7</ele><time>2022-03-04T14:34:46Z</time><name>PT2591</name></trkpt>
<trkpt lat="52.044742" lon="05.802070"><ele>20.7</ele><time>2022-03-04T14:34:46Z</time><name>PT2592</name></trkpt>
<trkpt lat="52.044736" lon="05.802058"><ele>20.7</ele><time>2022-03-04T14:34:47Z</time><name>PT2593</name></trkpt>
<trkpt lat="52.044726" lon="05.802043"><ele>20.7</ele><time>2022-03-04T14:34:49Z</time><name>PT2594</name></trkpt>
<trkpt lat="52.044712" lon="05.802015"><ele>20.7</ele><time>2022-03-04T14:34:50Z</time><name>PT2595</name></trkpt>
<trkpt lat="52.044706" lon="05.802007"><ele>20.7</ele><time>2022-03-04T14:34:52Z</time><name>PT2596</name></trkpt>
<trkpt lat="52.044701" lon="05.801998"><ele>20.6</ele><time>2022-03-04T14:34:52Z</time><name>PT2597</name></trkpt>
<trkpt lat="52.044695" lon="05.801986"><ele>20.5</ele><time>2022-03-04T14:34:53Z</time><name>PT2598</name></trkpt>
<trkpt lat="52.044688" lon="05.801964"><ele>20.6</ele><time>2022-03-04T14:34:55Z</time><name>PT2599</name></trkpt>
<trkpt lat="52.044682" lon="05.801943"><ele>20.6</ele><time>2022-03-04T14:34:55Z</time><name>PT2600</name></trkpt>
<trkpt lat="52.044675" lon="05.801927"><ele>20.7</ele><time>2022-03-04T14:34:56Z</time><name>PT2601</name></trkpt>
<trkpt lat="52.044669" lon="05.801915"><ele>20.8</ele><time>2022-03-04T14:34:58Z</time><name>PT2602</name></trkpt>
<trkpt lat="52.044661" lon="05.801907"><ele>20.9</ele><time>2022-03-04T14:34:58Z</time><name>PT2603</name></trkpt>
<trkpt lat="52.044652" lon="05.801896"><ele>20.9</ele><time>2022-03-04T14:34:59Z</time><name>PT2604</name></trkpt>
<trkpt lat="52.044644" lon="05.801878"><ele>20.8</ele><time>2022-03-04T14:35:01Z</time><name>PT2605</name></trkpt>
<trkpt lat="52.044640" lon="05.801856"><ele>20.8</ele><time>2022-03-04T14:35:01Z</time><name>PT2606</name></trkpt>
<trkpt lat="52.044636" lon="05.801836"><ele>20.8</ele><time>2022-03-04T14:35:02Z</time><name>PT2607</name></trkpt>
<trkpt lat="52.044631" lon="05.801821"><ele>20.8</ele><time>2022-03-04T14:35:04Z</time><name>PT2608</name></trkpt>
<trkpt lat="52.044626" lon="05.801812"><ele>20.8</ele><time>2022-03-04T14:35:04Z</time><name>PT2609</name></trkpt>
<trkpt lat="52.044621" lon="05.801803"><ele>20.9</ele><time>2022-03-04T14:35:05Z</time><name>PT2610</name></trkpt>
<trkpt lat="52.044615" lon="05.801787"><ele>20.9</ele><time>2022-03-04T14:35:07Z</time><name>PT2611</name></trkpt>
<trkpt lat="52.044609" lon="05.801769"><ele>20.9</ele><time>2022-03-04T14:35:07Z</time><name>PT2612</name></trkpt>
<trkpt lat="52.044602" lon="05.801756"><ele>21</ele><time>2022-03-04T14:35:08Z</time><name>PT2613</name></trkpt>
<trkpt lat="52.044597" lon="05.801745"><ele>21</ele><time>2022-03-04T14:35:10Z</time><name>PT2614</name></trkpt>
<trkpt lat="52.044593" lon="05.801737"><ele>20.9</ele><time>2022-03-04T14:35:10Z</time><name>PT2615</name></trkpt>
<trkpt lat="52.044586" lon="05.801726"><ele>20.8</ele><time>2022-03-04T14:35:11Z</time><name>PT2616</name></trkpt>
<trkpt lat="52.044582" lon="05.801705"><ele>20.8</ele><time>2022-03-04T14:35:13Z</time><name>PT2617</name></trkpt>
<trkpt lat="52.044576" lon="05.801695"><ele>20.8</ele><time>2022-03-04T14:35:13Z</time><name>PT2618</name></trkpt>
<trkpt lat="52.044572" lon="05.801690"><ele>20.8</ele><time>2022-03-04T14:35:14Z</time><name>PT2619</name></trkpt>
<trkpt lat="52.044569" lon="05.801684"><ele>20.8</ele><time>2022-03-04T14:35:16Z</time><name>PT2620</name></trkpt>
<trkpt lat="52.044566" lon="05.801679"><ele>20.9</ele><time>2022-03-04T14:35:16Z</time><name>PT2621</name></trkpt>
<trkpt lat="52.044564" lon="05.801676"><ele>20.8</ele><time>2022-03-04T14:35:17Z</time><name>PT2622</name></trkpt>
<trkpt lat="52.044562" lon="05.801673"><ele>20.6</ele><time>2022-03-04T14:35:19Z</time><name>PT2623</name></trkpt>
<trkpt lat="52.044562" lon="05.801671"><ele>20.5</ele><time>2022-03-04T14:35:19Z</time><name>PT2624</name></trkpt>
<trkpt lat="52.044560" lon="05.801671"><ele>20.6</ele><time>2022-03-04T14:35:20Z</time><name>PT2625</name></trkpt>
<trkpt lat="52.044560" lon="05.801667"><ele>20.7</ele><time>2022-03-04T14:35:22Z</time><name>PT2626</name></trkpt>
<trkpt lat="52.044559" lon="05.801668"><ele>20.8</ele><time>2022-03-04T14:35:22Z</time><name>PT2627</name></trkpt>
<trkpt lat="52.044557" lon="05.801668"><ele>20.9</ele><time>2022-03-04T14:35:23Z</time><name>PT2628</name></trkpt>
<trkpt lat="52.044557" lon="05.801668"><ele>21.2</ele><time>2022-03-04T14:35:25Z</time><name>PT2629</name></trkpt>
<trkpt lat="52.044556" lon="05.801668"><ele>21.2</ele><time>2022-03-04T14:35:25Z</time><name>PT2630</name></trkpt>
<trkpt lat="52.044559" lon="05.801670"><ele>21</ele><time>2022-03-04T14:35:32Z</time><name>PT2631</name></trkpt>
<trkpt lat="52.044560" lon="05.801676"><ele>21.1</ele><time>2022-03-04T14:35:34Z</time><name>PT2632</name></trkpt>
<trkpt lat="52.044558" lon="05.801674"><ele>21.2</ele><time>2022-03-04T14:35:34Z</time><name>PT2633</name></trkpt>
<trkpt lat="52.044560" lon="05.801670"><ele>21.2</ele><time>2022-03-04T14:35:35Z</time><name>PT2634</name></trkpt>
<trkpt lat="52.044562" lon="05.801664"><ele>21.1</ele><time>2022-03-04T14:35:37Z</time><name>PT2635</name></trkpt>
<trkpt lat="52.044562" lon="05.801643"><ele>21</ele><time>2022-03-04T14:35:37Z</time><name>PT2636</name></trkpt>
<trkpt lat="52.044558" lon="05.801623"><ele>20.9</ele><time>2022-03-04T14:35:38Z</time><name>PT2637</name></trkpt>
<trkpt lat="52.044554" lon="05.801602"><ele>20.8</ele><time>2022-03-04T14:35:40Z</time><name>PT2638</name></trkpt>
<trkpt lat="52.044551" lon="05.801580"><ele>20.7</ele><time>2022-03-04T14:35:40Z</time><name>PT2639</name></trkpt>
<trkpt lat="52.044545" lon="05.801558"><ele>20.7</ele><time>2022-03-04T14:35:41Z</time><name>PT2640</name></trkpt>
<trkpt lat="52.044541" lon="05.801546"><ele>20.8</ele><time>2022-03-04T14:35:43Z</time><name>PT2641</name></trkpt>
<trkpt lat="52.044538" lon="05.801536"><ele>20.8</ele><time>2022-03-04T14:35:43Z</time><name>PT2642</name></trkpt>
<trkpt lat="52.044536" lon="05.801527"><ele>20.9</ele><time>2022-03-04T14:35:44Z</time><name>PT2643</name></trkpt>
<trkpt lat="52.044538" lon="05.801511"><ele>21</ele><time>2022-03-04T14:35:46Z</time><name>PT2644</name></trkpt>
<trkpt lat="52.044535" lon="05.801496"><ele>20.9</ele><time>2022-03-04T14:35:46Z</time><name>PT2645</name></trkpt>
<trkpt lat="52.044533" lon="05.801477"><ele>20.8</ele><time>2022-03-04T14:35:47Z</time><name>PT2646</name></trkpt>
<trkpt lat="52.044533" lon="05.801453"><ele>20.8</ele><time>2022-03-04T14:35:49Z</time><name>PT2647</name></trkpt>
<trkpt lat="52.044535" lon="05.801429"><ele>20.9</ele><time>2022-03-04T14:35:49Z</time><name>PT2648</name></trkpt>
<trkpt lat="52.044536" lon="05.801401"><ele>21.1</ele><time>2022-03-04T14:35:50Z</time><name>PT2649</name></trkpt>
<trkpt lat="52.044537" lon="05.801375"><ele>21</ele><time>2022-03-04T14:35:52Z</time><name>PT2650</name></trkpt>
<trkpt lat="52.044539" lon="05.801352"><ele>21.1</ele><time>2022-03-04T14:35:52Z</time><name>PT2651</name></trkpt>
<trkpt lat="52.044538" lon="05.801336"><ele>21.3</ele><time>2022-03-04T14:35:53Z</time><name>PT2652</name></trkpt>
<trkpt lat="52.044538" lon="05.801321"><ele>21.1</ele><time>2022-03-04T14:35:55Z</time><name>PT2653</name></trkpt>
<trkpt lat="52.044536" lon="05.801312"><ele>21</ele><time>2022-03-04T14:35:55Z</time><name>PT2654</name></trkpt>
<trkpt lat="52.044537" lon="05.801307"><ele>21.3</ele><time>2022-03-04T14:35:56Z</time><name>PT2655</name></trkpt>
<trkpt lat="52.044544" lon="05.801292"><ele>21.3</ele><time>2022-03-04T14:35:58Z</time><name>PT2656</name></trkpt>
<trkpt lat="52.044548" lon="05.801272"><ele>21.2</ele><time>2022-03-04T14:35:58Z</time><name>PT2657</name></trkpt>
<trkpt lat="52.044552" lon="05.801250"><ele>21.3</ele><time>2022-03-04T14:35:59Z</time><name>PT2658</name></trkpt>
<trkpt lat="52.044559" lon="05.801226"><ele>21.3</ele><time>2022-03-04T14:36:01Z</time><name>PT2659</name></trkpt>
<trkpt lat="52.044560" lon="05.801207"><ele>21.3</ele><time>2022-03-04T14:36:01Z</time><name>PT2660</name></trkpt>
<trkpt lat="52.044561" lon="05.801190"><ele>21.1</ele><time>2022-03-04T14:36:02Z</time><name>PT2661</name></trkpt>
<trkpt lat="52.044561" lon="05.801179"><ele>21.2</ele><time>2022-03-04T14:36:04Z</time><name>PT2662</name></trkpt>
<trkpt lat="52.044568" lon="05.801163"><ele>21.1</ele><time>2022-03-04T14:36:04Z</time><name>PT2663</name></trkpt>
<trkpt lat="52.044567" lon="05.801152"><ele>21.2</ele><time>2022-03-04T14:36:06Z</time><name>PT2664</name></trkpt>
<trkpt lat="52.044564" lon="05.801141"><ele>21.2</ele><time>2022-03-04T14:36:07Z</time><name>PT2665</name></trkpt>
<trkpt lat="52.044557" lon="05.801117"><ele>21.2</ele><time>2022-03-04T14:36:07Z</time><name>PT2666</name></trkpt>
<trkpt lat="52.044547" lon="05.801095"><ele>21.3</ele><time>2022-03-04T14:36:09Z</time><name>PT2667</name></trkpt>
<trkpt lat="52.044531" lon="05.801079"><ele>21.3</ele><time>2022-03-04T14:36:10Z</time><name>PT2668</name></trkpt>
<trkpt lat="52.044516" lon="05.801064"><ele>21.3</ele><time>2022-03-04T14:36:10Z</time><name>PT2669</name></trkpt>
<trkpt lat="52.044506" lon="05.801053"><ele>21.3</ele><time>2022-03-04T14:36:11Z</time><name>PT2670</name></trkpt>
<trkpt lat="52.044498" lon="05.801047"><ele>21.3</ele><time>2022-03-04T14:36:13Z</time><name>PT2671</name></trkpt>
<trkpt lat="52.044490" lon="05.801043"><ele>21.3</ele><time>2022-03-04T14:36:13Z</time><name>PT2672</name></trkpt>
<trkpt lat="52.044483" lon="05.801040"><ele>21.4</ele><time>2022-03-04T14:36:14Z</time><name>PT2673</name></trkpt>
<trkpt lat="52.044477" lon="05.801036"><ele>21.4</ele><time>2022-03-04T14:36:16Z</time><name>PT2674</name></trkpt>
<trkpt lat="52.044470" lon="05.801030"><ele>21.5</ele><time>2022-03-04T14:36:16Z</time><name>PT2675</name></trkpt>
<trkpt lat="52.044460" lon="05.801017"><ele>21.5</ele><time>2022-03-04T14:36:17Z</time><name>PT2676</name></trkpt>
<trkpt lat="52.044448" lon="05.800996"><ele>21.6</ele><time>2022-03-04T14:36:19Z</time><name>PT2677</name></trkpt>
<trkpt lat="52.044433" lon="05.800972"><ele>21.6</ele><time>2022-03-04T14:36:19Z</time><name>PT2678</name></trkpt>
<trkpt lat="52.044420" lon="05.800951"><ele>21.7</ele><time>2022-03-04T14:36:20Z</time><name>PT2679</name></trkpt>
<trkpt lat="52.044410" lon="05.800938"><ele>21.8</ele><time>2022-03-04T14:36:22Z</time><name>PT2680</name></trkpt>
<trkpt lat="52.044405" lon="05.800933"><ele>21.9</ele><time>2022-03-04T14:36:22Z</time><name>PT2681</name></trkpt>
<trkpt lat="52.044399" lon="05.800933"><ele>21.9</ele><time>2022-03-04T14:36:23Z</time><name>PT2682</name></trkpt>
<trkpt lat="52.044392" lon="05.800931"><ele>21.8</ele><time>2022-03-04T14:36:25Z</time><name>PT2683</name></trkpt>
<trkpt lat="52.044384" lon="05.800923"><ele>21.6</ele><time>2022-03-04T14:36:25Z</time><name>PT2684</name></trkpt>
<trkpt lat="52.044374" lon="05.800907"><ele>21.4</ele><time>2022-03-04T14:36:26Z</time><name>PT2685</name></trkpt>
<trkpt lat="52.044362" lon="05.800882"><ele>21.3</ele><time>2022-03-04T14:36:28Z</time><name>PT2686</name></trkpt>
<trkpt lat="52.044350" lon="05.800862"><ele>21.2</ele><time>2022-03-04T14:36:28Z</time><name>PT2687</name></trkpt>
<trkpt lat="52.044341" lon="05.800846"><ele>21.3</ele><time>2022-03-04T14:36:29Z</time><name>PT2688</name></trkpt>
<trkpt lat="52.044334" lon="05.800836"><ele>21.1</ele><time>2022-03-04T14:36:31Z</time><name>PT2689</name></trkpt>
<trkpt lat="52.044329" lon="05.800831"><ele>21.1</ele><time>2022-03-04T14:36:31Z</time><name>PT2690</name></trkpt>
<trkpt lat="52.044324" lon="05.800825"><ele>20.8</ele><time>2022-03-04T14:36:32Z</time><name>PT2691</name></trkpt>
<trkpt lat="52.044318" lon="05.800817"><ele>20.8</ele><time>2022-03-04T14:36:34Z</time><name>PT2692</name></trkpt>
<trkpt lat="52.044308" lon="05.800805"><ele>20.8</ele><time>2022-03-04T14:36:34Z</time><name>PT2693</name></trkpt>
<trkpt lat="52.044295" lon="05.800793"><ele>20.8</ele><time>2022-03-04T14:36:35Z</time><name>PT2694</name></trkpt>
<trkpt lat="52.044282" lon="05.800775"><ele>20.8</ele><time>2022-03-04T14:36:37Z</time><name>PT2695</name></trkpt>
<trkpt lat="52.044268" lon="05.800757"><ele>21.1</ele><time>2022-03-04T14:36:37Z</time><name>PT2696</name></trkpt>
<trkpt lat="52.044257" lon="05.800742"><ele>21.2</ele><time>2022-03-04T14:36:38Z</time><name>PT2697</name></trkpt>
<trkpt lat="52.044248" lon="05.800732"><ele>21.2</ele><time>2022-03-04T14:36:40Z</time><name>PT2698</name></trkpt>
<trkpt lat="52.044241" lon="05.800727"><ele>21.3</ele><time>2022-03-04T14:36:40Z</time><name>PT2699</name></trkpt>
<trkpt lat="52.044235" lon="05.800725"><ele>21.3</ele><time>2022-03-04T14:36:41Z</time><name>PT2700</name></trkpt>
<trkpt lat="52.044230" lon="05.800723"><ele>21.3</ele><time>2022-03-04T14:36:43Z</time><name>PT2701</name></trkpt>
<trkpt lat="52.044226" lon="05.800720"><ele>21.2</ele><time>2022-03-04T14:36:43Z</time><name>PT2702</name></trkpt>
<trkpt lat="52.044216" lon="05.800715"><ele>21.2</ele><time>2022-03-04T14:36:44Z</time><name>PT2703</name></trkpt>
<trkpt lat="52.044204" lon="05.800707"><ele>21.3</ele><time>2022-03-04T14:36:46Z</time><name>PT2704</name></trkpt>
<trkpt lat="52.044190" lon="05.800699"><ele>21.3</ele><time>2022-03-04T14:36:46Z</time><name>PT2705</name></trkpt>
<trkpt lat="52.044176" lon="05.800694"><ele>21.4</ele><time>2022-03-04T14:36:47Z</time><name>PT2706</name></trkpt>
<trkpt lat="52.044163" lon="05.800687"><ele>21.7</ele><time>2022-03-04T14:36:49Z</time><name>PT2707</name></trkpt>
<trkpt lat="52.044156" lon="05.800681"><ele>21.8</ele><time>2022-03-04T14:36:49Z</time><name>PT2708</name></trkpt>
<trkpt lat="52.044151" lon="05.800677"><ele>21.8</ele><time>2022-03-04T14:36:50Z</time><name>PT2709</name></trkpt>
<trkpt lat="52.044147" lon="05.800672"><ele>21.8</ele><time>2022-03-04T14:36:52Z</time><name>PT2710</name></trkpt>
<trkpt lat="52.044140" lon="05.800669"><ele>21.8</ele><time>2022-03-04T14:36:52Z</time><name>PT2711</name></trkpt>
<trkpt lat="52.044127" lon="05.800667"><ele>21.8</ele><time>2022-03-04T14:36:53Z</time><name>PT2712</name></trkpt>
<trkpt lat="52.044114" lon="05.800665"><ele>21.5</ele><time>2022-03-04T14:36:55Z</time><name>PT2713</name></trkpt>
<trkpt lat="52.044098" lon="05.800662"><ele>21.4</ele><time>2022-03-04T14:36:55Z</time><name>PT2714</name></trkpt>
<trkpt lat="52.044083" lon="05.800659"><ele>21.3</ele><time>2022-03-04T14:36:56Z</time><name>PT2715</name></trkpt>
<trkpt lat="52.044075" lon="05.800660"><ele>21.4</ele><time>2022-03-04T14:36:58Z</time><name>PT2716</name></trkpt>
<trkpt lat="52.044071" lon="05.800659"><ele>21.3</ele><time>2022-03-04T14:36:58Z</time><name>PT2717</name></trkpt>
<trkpt lat="52.044065" lon="05.800657"><ele>21.4</ele><time>2022-03-04T14:36:59Z</time><name>PT2718</name></trkpt>
<trkpt lat="52.044059" lon="05.800656"><ele>21.4</ele><time>2022-03-04T14:37:01Z</time><name>PT2719</name></trkpt>
<trkpt lat="52.044051" lon="05.800657"><ele>21.3</ele><time>2022-03-04T14:37:01Z</time><name>PT2720</name></trkpt>
<trkpt lat="52.044042" lon="05.800656"><ele>21.1</ele><time>2022-03-04T14:37:02Z</time><name>PT2721</name></trkpt>
<trkpt lat="52.044028" lon="05.800652"><ele>21.1</ele><time>2022-03-04T14:37:04Z</time><name>PT2722</name></trkpt>
<trkpt lat="52.044012" lon="05.800644"><ele>21.1</ele><time>2022-03-04T14:37:04Z</time><name>PT2723</name></trkpt>
<trkpt lat="52.043996" lon="05.800635"><ele>21</ele><time>2022-03-04T14:37:05Z</time><name>PT2724</name></trkpt>
<trkpt lat="52.043981" lon="05.800623"><ele>20.9</ele><time>2022-03-04T14:37:07Z</time><name>PT2725</name></trkpt>
<trkpt lat="52.043969" lon="05.800619"><ele>21</ele><time>2022-03-04T14:37:07Z</time><name>PT2726</name></trkpt>
<trkpt lat="52.043960" lon="05.800618"><ele>20.9</ele><time>2022-03-04T14:37:08Z</time><name>PT2727</name></trkpt>
<trkpt lat="52.043952" lon="05.800618"><ele>20.8</ele><time>2022-03-04T14:37:10Z</time><name>PT2728</name></trkpt>
<trkpt lat="52.043944" lon="05.800617"><ele>20.8</ele><time>2022-03-04T14:37:10Z</time><name>PT2729</name></trkpt>
<trkpt lat="52.043933" lon="05.800618"><ele>21</ele><time>2022-03-04T14:37:11Z</time><name>PT2730</name></trkpt>
<trkpt lat="52.043921" lon="05.800616"><ele>20.9</ele><time>2022-03-04T14:37:13Z</time><name>PT2731</name></trkpt>
<trkpt lat="52.043906" lon="05.800610"><ele>20.8</ele><time>2022-03-04T14:37:13Z</time><name>PT2732</name></trkpt>
<trkpt lat="52.043892" lon="05.800598"><ele>20.8</ele><time>2022-03-04T14:37:14Z</time><name>PT2733</name></trkpt>
<trkpt lat="52.043879" lon="05.800586"><ele>20.8</ele><time>2022-03-04T14:37:16Z</time><name>PT2734</name></trkpt>
<trkpt lat="52.043869" lon="05.800575"><ele>20.6</ele><time>2022-03-04T14:37:16Z</time><name>PT2735</name></trkpt>
<trkpt lat="52.043862" lon="05.800568"><ele>20.6</ele><time>2022-03-04T14:37:17Z</time><name>PT2736</name></trkpt>
<trkpt lat="52.043857" lon="05.800563"><ele>20.4</ele><time>2022-03-04T14:37:19Z</time><name>PT2737</name></trkpt>
<trkpt lat="52.043850" lon="05.800562"><ele>20.3</ele><time>2022-03-04T14:37:19Z</time><name>PT2738</name></trkpt>
<trkpt lat="52.043842" lon="05.800556"><ele>20.4</ele><time>2022-03-04T14:37:20Z</time><name>PT2739</name></trkpt>
<trkpt lat="52.043829" lon="05.800549"><ele>20.5</ele><time>2022-03-04T14:37:22Z</time><name>PT2740</name></trkpt>
<trkpt lat="52.043817" lon="05.800541"><ele>20.4</ele><time>2022-03-04T14:37:22Z</time><name>PT2741</name></trkpt>
<trkpt lat="52.043805" lon="05.800531"><ele>20.7</ele><time>2022-03-04T14:37:23Z</time><name>PT2742</name></trkpt>
<trkpt lat="52.043793" lon="05.800524"><ele>20.5</ele><time>2022-03-04T14:37:25Z</time><name>PT2743</name></trkpt>
<trkpt lat="52.043784" lon="05.800516"><ele>20.4</ele><time>2022-03-04T14:37:25Z</time><name>PT2744</name></trkpt>
<trkpt lat="52.043778" lon="05.800511"><ele>20.3</ele><time>2022-03-04T14:37:26Z</time><name>PT2745</name></trkpt>
<trkpt lat="52.043771" lon="05.800505"><ele>20</ele><time>2022-03-04T14:37:28Z</time><name>PT2746</name></trkpt>
<trkpt lat="52.043760" lon="05.800502"><ele>19.9</ele><time>2022-03-04T14:37:28Z</time><name>PT2747</name></trkpt>
<trkpt lat="52.043750" lon="05.800496"><ele>19.9</ele><time>2022-03-04T14:37:29Z</time><name>PT2748</name></trkpt>
<trkpt lat="52.043737" lon="05.800486"><ele>19.9</ele><time>2022-03-04T14:37:31Z</time><name>PT2749</name></trkpt>
<trkpt lat="52.043720" lon="05.800482"><ele>19.9</ele><time>2022-03-04T14:37:31Z</time><name>PT2750</name></trkpt>
<trkpt lat="52.043703" lon="05.800476"><ele>19.8</ele><time>2022-03-04T14:37:32Z</time><name>PT2751</name></trkpt>
<trkpt lat="52.043690" lon="05.800465"><ele>19.9</ele><time>2022-03-04T14:37:34Z</time><name>PT2752</name></trkpt>
<trkpt lat="52.043680" lon="05.800454"><ele>19.9</ele><time>2022-03-04T14:37:34Z</time><name>PT2753</name></trkpt>
<trkpt lat="52.043672" lon="05.800450"><ele>20</ele><time>2022-03-04T14:37:35Z</time><name>PT2754</name></trkpt>
<trkpt lat="52.043667" lon="05.800446"><ele>20.1</ele><time>2022-03-04T14:37:37Z</time><name>PT2755</name></trkpt>
<trkpt lat="52.043661" lon="05.800440"><ele>20.1</ele><time>2022-03-04T14:37:37Z</time><name>PT2756</name></trkpt>
<trkpt lat="52.043652" lon="05.800431"><ele>20.1</ele><time>2022-03-04T14:37:39Z</time><name>PT2757</name></trkpt>
<trkpt lat="52.043638" lon="05.800422"><ele>20.1</ele><time>2022-03-04T14:37:40Z</time><name>PT2758</name></trkpt>
<trkpt lat="52.043622" lon="05.800410"><ele>20</ele><time>2022-03-04T14:37:40Z</time><name>PT2759</name></trkpt>
<trkpt lat="52.043606" lon="05.800398"><ele>19.9</ele><time>2022-03-04T14:37:41Z</time><name>PT2760</name></trkpt>
<trkpt lat="52.043593" lon="05.800384"><ele>19.9</ele><time>2022-03-04T14:37:43Z</time><name>PT2761</name></trkpt>
<trkpt lat="52.043583" lon="05.800372"><ele>19.8</ele><time>2022-03-04T14:37:43Z</time><name>PT2762</name></trkpt>
<trkpt lat="52.043575" lon="05.800363"><ele>19.5</ele><time>2022-03-04T14:37:44Z</time><name>PT2763</name></trkpt>
<trkpt lat="52.043569" lon="05.800354"><ele>19.6</ele><time>2022-03-04T14:37:46Z</time><name>PT2764</name></trkpt>
<trkpt lat="52.043562" lon="05.800349"><ele>19.6</ele><time>2022-03-04T14:37:46Z</time><name>PT2765</name></trkpt>
<trkpt lat="52.043555" lon="05.800342"><ele>19.7</ele><time>2022-03-04T14:37:47Z</time><name>PT2766</name></trkpt>
<trkpt lat="52.043546" lon="05.800331"><ele>19.8</ele><time>2022-03-04T14:37:49Z</time><name>PT2767</name></trkpt>
<trkpt lat="52.043533" lon="05.800322"><ele>19.9</ele><time>2022-03-04T14:37:49Z</time><name>PT2768</name></trkpt>
<trkpt lat="52.043522" lon="05.800304"><ele>19.8</ele><time>2022-03-04T14:37:50Z</time><name>PT2769</name></trkpt>
<trkpt lat="52.043511" lon="05.800288"><ele>19.7</ele><time>2022-03-04T14:37:52Z</time><name>PT2770</name></trkpt>
<trkpt lat="52.043501" lon="05.800275"><ele>19.6</ele><time>2022-03-04T14:37:52Z</time><name>PT2771</name></trkpt>
<trkpt lat="52.043492" lon="05.800265"><ele>19.4</ele><time>2022-03-04T14:37:53Z</time><name>PT2772</name></trkpt>
<trkpt lat="52.043484" lon="05.800256"><ele>19.4</ele><time>2022-03-04T14:37:55Z</time><name>PT2773</name></trkpt>
<trkpt lat="52.043477" lon="05.800248"><ele>19.4</ele><time>2022-03-04T14:37:55Z</time><name>PT2774</name></trkpt>
<trkpt lat="52.043469" lon="05.800238"><ele>19.4</ele><time>2022-03-04T14:37:56Z</time><name>PT2775</name></trkpt>
<trkpt lat="52.043458" lon="05.800229"><ele>19.2</ele><time>2022-03-04T14:37:58Z</time><name>PT2776</name></trkpt>
<trkpt lat="52.043448" lon="05.800217"><ele>19.1</ele><time>2022-03-04T14:37:58Z</time><name>PT2777</name></trkpt>
<trkpt lat="52.043440" lon="05.800203"><ele>19</ele><time>2022-03-04T14:37:59Z</time><name>PT2778</name></trkpt>
<trkpt lat="52.043430" lon="05.800184"><ele>19.1</ele><time>2022-03-04T14:38:01Z</time><name>PT2779</name></trkpt>
<trkpt lat="52.043417" lon="05.800166"><ele>19.1</ele><time>2022-03-04T14:38:01Z</time><name>PT2780</name></trkpt>
<trkpt lat="52.043406" lon="05.800148"><ele>19.3</ele><time>2022-03-04T14:38:02Z</time><name>PT2781</name></trkpt>
<trkpt lat="52.043397" lon="05.800136"><ele>19.3</ele><time>2022-03-04T14:38:04Z</time><name>PT2782</name></trkpt>
<trkpt lat="52.043392" lon="05.800125"><ele>19.3</ele><time>2022-03-04T14:38:04Z</time><name>PT2783</name></trkpt>
<trkpt lat="52.043386" lon="05.800115"><ele>19.3</ele><time>2022-03-04T14:38:05Z</time><name>PT2784</name></trkpt>
<trkpt lat="52.043380" lon="05.800108"><ele>19.3</ele><time>2022-03-04T14:38:07Z</time><name>PT2785</name></trkpt>
<trkpt lat="52.043371" lon="05.800100"><ele>19.1</ele><time>2022-03-04T14:38:07Z</time><name>PT2786</name></trkpt>
<trkpt lat="52.043358" lon="05.800086"><ele>19.1</ele><time>2022-03-04T14:38:08Z</time><name>PT2787</name></trkpt>
<trkpt lat="52.043349" lon="05.800070"><ele>19</ele><time>2022-03-04T14:38:10Z</time><name>PT2788</name></trkpt>
<trkpt lat="52.043339" lon="05.800061"><ele>19.1</ele><time>2022-03-04T14:38:10Z</time><name>PT2789</name></trkpt>
<trkpt lat="52.043328" lon="05.800056"><ele>19.1</ele><time>2022-03-04T14:38:11Z</time><name>PT2790</name></trkpt>
<trkpt lat="52.043319" lon="05.800051"><ele>19.1</ele><time>2022-03-04T14:38:13Z</time><name>PT2791</name></trkpt>
<trkpt lat="52.043313" lon="05.800044"><ele>19</ele><time>2022-03-04T14:38:13Z</time><name>PT2792</name></trkpt>
<trkpt lat="52.043306" lon="05.800040"><ele>19.1</ele><time>2022-03-04T14:38:14Z</time><name>PT2793</name></trkpt>
<trkpt lat="52.043295" lon="05.800036"><ele>18.9</ele><time>2022-03-04T14:38:16Z</time><name>PT2794</name></trkpt>
<trkpt lat="52.043283" lon="05.800027"><ele>18.9</ele><time>2022-03-04T14:38:16Z</time><name>PT2795</name></trkpt>
<trkpt lat="52.043270" lon="05.800017"><ele>19</ele><time>2022-03-04T14:38:17Z</time><name>PT2796</name></trkpt>
<trkpt lat="52.043258" lon="05.800008"><ele>19</ele><time>2022-03-04T14:38:19Z</time><name>PT2797</name></trkpt>
<trkpt lat="52.043244" lon="05.799992"><ele>19.1</ele><time>2022-03-04T14:38:20Z</time><name>PT2798</name></trkpt>
<trkpt lat="52.043239" lon="05.799983"><ele>19</ele><time>2022-03-04T14:38:22Z</time><name>PT2799</name></trkpt>
<trkpt lat="52.043232" lon="05.799975"><ele>19</ele><time>2022-03-04T14:38:22Z</time><name>PT2800</name></trkpt>
<trkpt lat="52.043223" lon="05.799966"><ele>18.9</ele><time>2022-03-04T14:38:23Z</time><name>PT2801</name></trkpt>
<trkpt lat="52.043212" lon="05.799958"><ele>19</ele><time>2022-03-04T14:38:25Z</time><name>PT2802</name></trkpt>
<trkpt lat="52.043202" lon="05.799944"><ele>19</ele><time>2022-03-04T14:38:25Z</time><name>PT2803</name></trkpt>
<trkpt lat="52.043191" lon="05.799934"><ele>18.9</ele><time>2022-03-04T14:38:26Z</time><name>PT2804</name></trkpt>
<trkpt lat="52.043182" lon="05.799924"><ele>18.9</ele><time>2022-03-04T14:38:28Z</time><name>PT2805</name></trkpt>
<trkpt lat="52.043173" lon="05.799915"><ele>19</ele><time>2022-03-04T14:38:28Z</time><name>PT2806</name></trkpt>
<trkpt lat="52.043165" lon="05.799908"><ele>19</ele><time>2022-03-04T14:38:29Z</time><name>PT2807</name></trkpt>
<trkpt lat="52.043156" lon="05.799900"><ele>19</ele><time>2022-03-04T14:38:31Z</time><name>PT2808</name></trkpt>
<trkpt lat="52.043147" lon="05.799895"><ele>19</ele><time>2022-03-04T14:38:31Z</time><name>PT2809</name></trkpt>
<trkpt lat="52.043138" lon="05.799889"><ele>19.3</ele><time>2022-03-04T14:38:32Z</time><name>PT2810</name></trkpt>
<trkpt lat="52.043127" lon="05.799881"><ele>19.2</ele><time>2022-03-04T14:38:34Z</time><name>PT2811</name></trkpt>
<trkpt lat="52.043116" lon="05.799871"><ele>19.1</ele><time>2022-03-04T14:38:34Z</time><name>PT2812</name></trkpt>
<trkpt lat="52.043105" lon="05.799856"><ele>19.2</ele><time>2022-03-04T14:38:35Z</time><name>PT2813</name></trkpt>
<trkpt lat="52.043095" lon="05.799846"><ele>19.2</ele><time>2022-03-04T14:38:37Z</time><name>PT2814</name></trkpt>
<trkpt lat="52.043084" lon="05.799838"><ele>19.2</ele><time>2022-03-04T14:38:37Z</time><name>PT2815</name></trkpt>
<trkpt lat="52.043076" lon="05.799828"><ele>19.2</ele><time>2022-03-04T14:38:38Z</time><name>PT2816</name></trkpt>
<trkpt lat="52.043071" lon="05.799820"><ele>19.2</ele><time>2022-03-04T14:38:40Z</time><name>PT2817</name></trkpt>
<trkpt lat="52.043066" lon="05.799812"><ele>19.2</ele><time>2022-03-04T14:38:40Z</time><name>PT2818</name></trkpt>
<trkpt lat="52.043059" lon="05.799804"><ele>19</ele><time>2022-03-04T14:38:41Z</time><name>PT2819</name></trkpt>
<trkpt lat="52.043051" lon="05.799794"><ele>18.9</ele><time>2022-03-04T14:38:43Z</time><name>PT2820</name></trkpt>
<trkpt lat="52.043040" lon="05.799779"><ele>18.9</ele><time>2022-03-04T14:38:43Z</time><name>PT2821</name></trkpt>
<trkpt lat="52.043030" lon="05.799765"><ele>18.9</ele><time>2022-03-04T14:38:44Z</time><name>PT2822</name></trkpt>
<trkpt lat="52.043021" lon="05.799749"><ele>18.9</ele><time>2022-03-04T14:38:46Z</time><name>PT2823</name></trkpt>
<trkpt lat="52.043016" lon="05.799737"><ele>18.9</ele><time>2022-03-04T14:38:46Z</time><name>PT2824</name></trkpt>
<trkpt lat="52.043010" lon="05.799727"><ele>18.8</ele><time>2022-03-04T14:38:47Z</time><name>PT2825</name></trkpt>
<trkpt lat="52.043004" lon="05.799716"><ele>18.9</ele><time>2022-03-04T14:38:49Z</time><name>PT2826</name></trkpt>
<trkpt lat="52.042997" lon="05.799705"><ele>18.9</ele><time>2022-03-04T14:38:49Z</time><name>PT2827</name></trkpt>
<trkpt lat="52.042990" lon="05.799691"><ele>18.9</ele><time>2022-03-04T14:38:50Z</time><name>PT2828</name></trkpt>
<trkpt lat="52.042984" lon="05.799671"><ele>18.8</ele><time>2022-03-04T14:38:52Z</time><name>PT2829</name></trkpt>
<trkpt lat="52.042977" lon="05.799654"><ele>18.9</ele><time>2022-03-04T14:38:52Z</time><name>PT2830</name></trkpt>
<trkpt lat="52.042969" lon="05.799637"><ele>18.8</ele><time>2022-03-04T14:38:53Z</time><name>PT2831</name></trkpt>
<trkpt lat="52.042961" lon="05.799623"><ele>18.8</ele><time>2022-03-04T14:38:55Z</time><name>PT2832</name></trkpt>
<trkpt lat="52.042954" lon="05.799612"><ele>18.8</ele><time>2022-03-04T14:38:55Z</time><name>PT2833</name></trkpt>
<trkpt lat="52.042947" lon="05.799604"><ele>18.9</ele><time>2022-03-04T14:38:56Z</time><name>PT2834</name></trkpt>
<trkpt lat="52.042939" lon="05.799597"><ele>18.9</ele><time>2022-03-04T14:38:58Z</time><name>PT2835</name></trkpt>
<trkpt lat="52.042933" lon="05.799587"><ele>19.1</ele><time>2022-03-04T14:38:58Z</time><name>PT2836</name></trkpt>
<trkpt lat="52.042925" lon="05.799578"><ele>19.1</ele><time>2022-03-04T14:38:59Z</time><name>PT2837</name></trkpt>
<trkpt lat="52.042917" lon="05.799566"><ele>18.9</ele><time>2022-03-04T14:39:01Z</time><name>PT2838</name></trkpt>
<trkpt lat="52.042906" lon="05.799552"><ele>18.9</ele><time>2022-03-04T14:39:01Z</time><name>PT2839</name></trkpt>
<trkpt lat="52.042896" lon="05.799535"><ele>18.7</ele><time>2022-03-04T14:39:02Z</time><name>PT2840</name></trkpt>
<trkpt lat="52.042885" lon="05.799518"><ele>18.6</ele><time>2022-03-04T14:39:04Z</time><name>PT2841</name></trkpt>
<trkpt lat="52.042872" lon="05.799503"><ele>18.6</ele><time>2022-03-04T14:39:04Z</time><name>PT2842</name></trkpt>
<trkpt lat="52.042861" lon="05.799487"><ele>18.6</ele><time>2022-03-04T14:39:05Z</time><name>PT2843</name></trkpt>
<trkpt lat="52.042850" lon="05.799474"><ele>18.6</ele><time>2022-03-04T14:39:07Z</time><name>PT2844</name></trkpt>
<trkpt lat="52.042842" lon="05.799463"><ele>18.6</ele><time>2022-03-04T14:39:07Z</time><name>PT2845</name></trkpt>
<trkpt lat="52.042834" lon="05.799454"><ele>18.7</ele><time>2022-03-04T14:39:08Z</time><name>PT2846</name></trkpt>
<trkpt lat="52.042827" lon="05.799445"><ele>18.5</ele><time>2022-03-04T14:39:10Z</time><name>PT2847</name></trkpt>
<trkpt lat="52.042820" lon="05.799436"><ele>18.4</ele><time>2022-03-04T14:39:10Z</time><name>PT2848</name></trkpt>
<trkpt lat="52.042811" lon="05.799426"><ele>18.4</ele><time>2022-03-04T14:39:11Z</time><name>PT2849</name></trkpt>
<trkpt lat="52.042802" lon="05.799415"><ele>18.2</ele><time>2022-03-04T14:39:13Z</time><name>PT2850</name></trkpt>
<trkpt lat="52.042791" lon="05.799400"><ele>18.2</ele><time>2022-03-04T14:39:13Z</time><name>PT2851</name></trkpt>
<trkpt lat="52.042780" lon="05.799383"><ele>18.1</ele><time>2022-03-04T14:39:14Z</time><name>PT2852</name></trkpt>
<trkpt lat="52.042769" lon="05.799366"><ele>18.3</ele><time>2022-03-04T14:39:16Z</time><name>PT2853</name></trkpt>
<trkpt lat="52.042759" lon="05.799349"><ele>18.3</ele><time>2022-03-04T14:39:16Z</time><name>PT2854</name></trkpt>
<trkpt lat="52.042750" lon="05.799337"><ele>18.2</ele><time>2022-03-04T14:39:17Z</time><name>PT2855</name></trkpt>
<trkpt lat="52.042742" lon="05.799326"><ele>18.2</ele><time>2022-03-04T14:39:19Z</time><name>PT2856</name></trkpt>
<trkpt lat="52.042736" lon="05.799318"><ele>18.2</ele><time>2022-03-04T14:39:19Z</time><name>PT2857</name></trkpt>
<trkpt lat="52.042728" lon="05.799313"><ele>18.2</ele><time>2022-03-04T14:39:20Z</time><name>PT2858</name></trkpt>
<trkpt lat="52.042717" lon="05.799306"><ele>18.4</ele><time>2022-03-04T14:39:22Z</time><name>PT2859</name></trkpt>
<trkpt lat="52.042711" lon="05.799297"><ele>18.6</ele><time>2022-03-04T14:39:22Z</time><name>PT2860</name></trkpt>
<trkpt lat="52.042702" lon="05.799284"><ele>18.7</ele><time>2022-03-04T14:39:23Z</time><name>PT2861</name></trkpt>
<trkpt lat="52.042690" lon="05.799270"><ele>18.7</ele><time>2022-03-04T14:39:25Z</time><name>PT2862</name></trkpt>
<trkpt lat="52.042677" lon="05.799257"><ele>18.7</ele><time>2022-03-04T14:39:25Z</time><name>PT2863</name></trkpt>
<trkpt lat="52.042665" lon="05.799245"><ele>18.4</ele><time>2022-03-04T14:39:26Z</time><name>PT2864</name></trkpt>
<trkpt lat="52.042656" lon="05.799235"><ele>18.4</ele><time>2022-03-04T14:39:28Z</time><name>PT2865</name></trkpt>
<trkpt lat="52.042646" lon="05.799228"><ele>18.4</ele><time>2022-03-04T14:39:28Z</time><name>PT2866</name></trkpt>
<trkpt lat="52.042642" lon="05.799220"><ele>18.3</ele><time>2022-03-04T14:39:29Z</time><name>PT2867</name></trkpt>
<trkpt lat="52.042635" lon="05.799215"><ele>18.5</ele><time>2022-03-04T14:39:31Z</time><name>PT2868</name></trkpt>
<trkpt lat="52.042622" lon="05.799207"><ele>18.5</ele><time>2022-03-04T14:39:31Z</time><name>PT2869</name></trkpt>
<trkpt lat="52.042606" lon="05.799199"><ele>18.5</ele><time>2022-03-04T14:39:32Z</time><name>PT2870</name></trkpt>
<trkpt lat="52.042593" lon="05.799194"><ele>18.5</ele><time>2022-03-04T14:39:34Z</time><name>PT2871</name></trkpt>
<trkpt lat="52.042585" lon="05.799187"><ele>18.5</ele><time>2022-03-04T14:39:34Z</time><name>PT2872</name></trkpt>
<trkpt lat="52.042577" lon="05.799181"><ele>18.3</ele><time>2022-03-04T14:39:35Z</time><name>PT2873</name></trkpt>
<trkpt lat="52.042568" lon="05.799181"><ele>18.1</ele><time>2022-03-04T14:39:37Z</time><name>PT2874</name></trkpt>
<trkpt lat="52.042558" lon="05.799182"><ele>18</ele><time>2022-03-04T14:39:37Z</time><name>PT2875</name></trkpt>
<trkpt lat="52.042550" lon="05.799177"><ele>17.8</ele><time>2022-03-04T14:39:38Z</time><name>PT2876</name></trkpt>
<trkpt lat="52.042548" lon="05.799179"><ele>17.6</ele><time>2022-03-04T14:39:40Z</time><name>PT2877</name></trkpt>
<trkpt lat="52.042545" lon="05.799179"><ele>17.5</ele><time>2022-03-04T14:39:40Z</time><name>PT2878</name></trkpt>
<trkpt lat="52.042546" lon="05.799179"><ele>17.5</ele><time>2022-03-04T14:39:41Z</time><name>PT2879</name></trkpt>
<trkpt lat="52.042541" lon="05.799178"><ele>17.7</ele><time>2022-03-04T14:39:43Z</time><name>PT2880</name></trkpt>
<trkpt lat="52.042531" lon="05.799179"><ele>17.7</ele><time>2022-03-04T14:39:43Z</time><name>PT2881</name></trkpt>
<trkpt lat="52.042516" lon="05.799180"><ele>17.8</ele><time>2022-03-04T14:39:44Z</time><name>PT2882</name></trkpt>
<trkpt lat="52.042501" lon="05.799178"><ele>17.9</ele><time>2022-03-04T14:39:46Z</time><name>PT2883</name></trkpt>
<trkpt lat="52.042490" lon="05.799172"><ele>17.8</ele><time>2022-03-04T14:39:46Z</time><name>PT2884</name></trkpt>
<trkpt lat="52.042480" lon="05.799170"><ele>17.8</ele><time>2022-03-04T14:39:47Z</time><name>PT2885</name></trkpt>
<trkpt lat="52.042473" lon="05.799165"><ele>17.7</ele><time>2022-03-04T14:39:49Z</time><name>PT2886</name></trkpt>
<trkpt lat="52.042464" lon="05.799160"><ele>17.8</ele><time>2022-03-04T14:39:49Z</time><name>PT2887</name></trkpt>
<trkpt lat="52.042455" lon="05.799157"><ele>17.8</ele><time>2022-03-04T14:39:50Z</time><name>PT2888</name></trkpt>
<trkpt lat="52.042445" lon="05.799156"><ele>17.9</ele><time>2022-03-04T14:39:52Z</time><name>PT2889</name></trkpt>
<trkpt lat="52.042428" lon="05.799153"><ele>17.8</ele><time>2022-03-04T14:39:52Z</time><name>PT2890</name></trkpt>
<trkpt lat="52.042411" lon="05.799150"><ele>17.9</ele><time>2022-03-04T14:39:53Z</time><name>PT2891</name></trkpt>
<trkpt lat="52.042399" lon="05.799150"><ele>18</ele><time>2022-03-04T14:39:55Z</time><name>PT2892</name></trkpt>
<trkpt lat="52.042386" lon="05.799151"><ele>17.8</ele><time>2022-03-04T14:39:55Z</time><name>PT2893</name></trkpt>
<trkpt lat="52.042373" lon="05.799145"><ele>17.8</ele><time>2022-03-04T14:39:56Z</time><name>PT2894</name></trkpt>
<trkpt lat="52.042361" lon="05.799137"><ele>17.9</ele><time>2022-03-04T14:39:58Z</time><name>PT2895</name></trkpt>
<trkpt lat="52.042350" lon="05.799130"><ele>18</ele><time>2022-03-04T14:39:58Z</time><name>PT2896</name></trkpt>
<trkpt lat="52.042340" lon="05.799124"><ele>17.9</ele><time>2022-03-04T14:39:59Z</time><name>PT2897</name></trkpt>
<trkpt lat="52.042330" lon="05.799120"><ele>18</ele><time>2022-03-04T14:40:01Z</time><name>PT2898</name></trkpt>
<trkpt lat="52.042319" lon="05.799117"><ele>18</ele><time>2022-03-04T14:40:01Z</time><name>PT2899</name></trkpt>
<trkpt lat="52.042308" lon="05.799114"><ele>17.9</ele><time>2022-03-04T14:40:02Z</time><name>PT2900</name></trkpt>
<trkpt lat="52.042296" lon="05.799111"><ele>17.8</ele><time>2022-03-04T14:40:04Z</time><name>PT2901</name></trkpt>
<trkpt lat="52.042286" lon="05.799108"><ele>17.7</ele><time>2022-03-04T14:40:04Z</time><name>PT2902</name></trkpt>
<trkpt lat="52.042276" lon="05.799100"><ele>17.6</ele><time>2022-03-04T14:40:05Z</time><name>PT2903</name></trkpt>
<trkpt lat="52.042262" lon="05.799094"><ele>17.5</ele><time>2022-03-04T14:40:07Z</time><name>PT2904</name></trkpt>
<trkpt lat="52.042248" lon="05.799091"><ele>17.5</ele><time>2022-03-04T14:40:07Z</time><name>PT2905</name></trkpt>
<trkpt lat="52.042235" lon="05.799089"><ele>17.5</ele><time>2022-03-04T14:40:08Z</time><name>PT2906</name></trkpt>
<trkpt lat="52.042223" lon="05.799089"><ele>17.5</ele><time>2022-03-04T14:40:10Z</time><name>PT2907</name></trkpt>
<trkpt lat="52.042215" lon="05.799089"><ele>17.5</ele><time>2022-03-04T14:40:10Z</time><name>PT2908</name></trkpt>
<trkpt lat="52.042207" lon="05.799089"><ele>17.7</ele><time>2022-03-04T14:40:11Z</time><name>PT2909</name></trkpt>
<trkpt lat="52.042199" lon="05.799087"><ele>17.7</ele><time>2022-03-04T14:40:13Z</time><name>PT2910</name></trkpt>
<trkpt lat="52.042191" lon="05.799083"><ele>17.6</ele><time>2022-03-04T14:40:13Z</time><name>PT2911</name></trkpt>
<trkpt lat="52.042181" lon="05.799077"><ele>17.6</ele><time>2022-03-04T14:40:14Z</time><name>PT2912</name></trkpt>
<trkpt lat="52.042171" lon="05.799067"><ele>17.5</ele><time>2022-03-04T14:40:16Z</time><name>PT2913</name></trkpt>
<trkpt lat="52.042159" lon="05.799061"><ele>17.5</ele><time>2022-03-04T14:40:16Z</time><name>PT2914</name></trkpt>
<trkpt lat="52.042144" lon="05.799048"><ele>17.3</ele><time>2022-03-04T14:40:17Z</time><name>PT2915</name></trkpt>
<trkpt lat="52.042129" lon="05.799034"><ele>17.1</ele><time>2022-03-04T14:40:19Z</time><name>PT2916</name></trkpt>
<trkpt lat="52.042116" lon="05.799022"><ele>17.2</ele><time>2022-03-04T14:40:19Z</time><name>PT2917</name></trkpt>
<trkpt lat="52.042104" lon="05.799013"><ele>17.3</ele><time>2022-03-04T14:40:20Z</time><name>PT2918</name></trkpt>
<trkpt lat="52.042094" lon="05.799006"><ele>17.3</ele><time>2022-03-04T14:40:22Z</time><name>PT2919</name></trkpt>
<trkpt lat="52.042088" lon="05.799002"><ele>17.3</ele><time>2022-03-04T14:40:22Z</time><name>PT2920</name></trkpt>
<trkpt lat="52.042082" lon="05.798994"><ele>17.1</ele><time>2022-03-04T14:40:23Z</time><name>PT2921</name></trkpt>
<trkpt lat="52.042077" lon="05.798993"><ele>17.1</ele><time>2022-03-04T14:40:25Z</time><name>PT2922</name></trkpt>
<trkpt lat="52.042068" lon="05.798988"><ele>17.2</ele><time>2022-03-04T14:40:25Z</time><name>PT2923</name></trkpt>
<trkpt lat="52.042056" lon="05.798982"><ele>17.2</ele><time>2022-03-04T14:40:26Z</time><name>PT2924</name></trkpt>
<trkpt lat="52.042044" lon="05.798971"><ele>17.3</ele><time>2022-03-04T14:40:28Z</time><name>PT2925</name></trkpt>
<trkpt lat="52.042033" lon="05.798957"><ele>17.3</ele><time>2022-03-04T14:40:28Z</time><name>PT2926</name></trkpt>
<trkpt lat="52.042025" lon="05.798946"><ele>17.4</ele><time>2022-03-04T14:40:29Z</time><name>PT2927</name></trkpt>
<trkpt lat="52.042020" lon="05.798939"><ele>17.3</ele><time>2022-03-04T14:40:31Z</time><name>PT2928</name></trkpt>
<trkpt lat="52.042017" lon="05.798933"><ele>17.3</ele><time>2022-03-04T14:40:31Z</time><name>PT2929</name></trkpt>
<trkpt lat="52.042007" lon="05.798925"><ele>17.4</ele><time>2022-03-04T14:40:32Z</time><name>PT2930</name></trkpt>
<trkpt lat="52.041999" lon="05.798916"><ele>17.4</ele><time>2022-03-04T14:40:34Z</time><name>PT2931</name></trkpt>
<trkpt lat="52.041993" lon="05.798906"><ele>17.2</ele><time>2022-03-04T14:40:34Z</time><name>PT2932</name></trkpt>
<trkpt lat="52.041986" lon="05.798897"><ele>17.3</ele><time>2022-03-04T14:40:35Z</time><name>PT2933</name></trkpt>
<trkpt lat="52.041977" lon="05.798888"><ele>17.4</ele><time>2022-03-04T14:40:37Z</time><name>PT2934</name></trkpt>
<trkpt lat="52.041968" lon="05.798882"><ele>17.4</ele><time>2022-03-04T14:40:37Z</time><name>PT2935</name></trkpt>
<trkpt lat="52.041959" lon="05.798873"><ele>17.3</ele><time>2022-03-04T14:40:38Z</time><name>PT2936</name></trkpt>
<trkpt lat="52.041949" lon="05.798863"><ele>17.2</ele><time>2022-03-04T14:40:40Z</time><name>PT2937</name></trkpt>
<trkpt lat="52.041940" lon="05.798854"><ele>17</ele><time>2022-03-04T14:40:40Z</time><name>PT2938</name></trkpt>
<trkpt lat="52.041935" lon="05.798847"><ele>16.9</ele><time>2022-03-04T14:40:41Z</time><name>PT2939</name></trkpt>
<trkpt lat="52.041929" lon="05.798839"><ele>16.7</ele><time>2022-03-04T14:40:43Z</time><name>PT2940</name></trkpt>
<trkpt lat="52.041921" lon="05.798827"><ele>16.9</ele><time>2022-03-04T14:40:43Z</time><name>PT2941</name></trkpt>
<trkpt lat="52.041910" lon="05.798812"><ele>17</ele><time>2022-03-04T14:40:44Z</time><name>PT2942</name></trkpt>
<trkpt lat="52.041901" lon="05.798800"><ele>16.9</ele><time>2022-03-04T14:40:46Z</time><name>PT2943</name></trkpt>
<trkpt lat="52.041893" lon="05.798791"><ele>17</ele><time>2022-03-04T14:40:46Z</time><name>PT2944</name></trkpt>
<trkpt lat="52.041889" lon="05.798781"><ele>16.9</ele><time>2022-03-04T14:40:47Z</time><name>PT2945</name></trkpt>
<trkpt lat="52.041883" lon="05.798771"><ele>16.9</ele><time>2022-03-04T14:40:49Z</time><name>PT2946</name></trkpt>
<trkpt lat="52.041875" lon="05.798760"><ele>16.9</ele><time>2022-03-04T14:40:49Z</time><name>PT2947</name></trkpt>
<trkpt lat="52.041869" lon="05.798743"><ele>16.9</ele><time>2022-03-04T14:40:50Z</time><name>PT2948</name></trkpt>
<trkpt lat="52.041860" lon="05.798726"><ele>17</ele><time>2022-03-04T14:40:52Z</time><name>PT2949</name></trkpt>
<trkpt lat="52.041856" lon="05.798714"><ele>17.2</ele><time>2022-03-04T14:40:52Z</time><name>PT2950</name></trkpt>
<trkpt lat="52.041855" lon="05.798700"><ele>17.3</ele><time>2022-03-04T14:40:53Z</time><name>PT2951</name></trkpt>
<trkpt lat="52.041853" lon="05.798687"><ele>17.3</ele><time>2022-03-04T14:40:55Z</time><name>PT2952</name></trkpt>
<trkpt lat="52.041850" lon="05.798671"><ele>17.5</ele><time>2022-03-04T14:40:55Z</time><name>PT2953</name></trkpt>
<trkpt lat="52.041848" lon="05.798648"><ele>17.3</ele><time>2022-03-04T14:40:56Z</time><name>PT2954</name></trkpt>
<trkpt lat="52.041847" lon="05.798630"><ele>17.2</ele><time>2022-03-04T14:40:58Z</time><name>PT2955</name></trkpt>
<trkpt lat="52.041840" lon="05.798617"><ele>17.1</ele><time>2022-03-04T14:40:58Z</time><name>PT2956</name></trkpt>
<trkpt lat="52.041835" lon="05.798608"><ele>17</ele><time>2022-03-04T14:40:59Z</time><name>PT2957</name></trkpt>
<trkpt lat="52.041833" lon="05.798599"><ele>17</ele><time>2022-03-04T14:41:01Z</time><name>PT2958</name></trkpt>
<trkpt lat="52.041829" lon="05.798584"><ele>17</ele><time>2022-03-04T14:41:01Z</time><name>PT2959</name></trkpt>
<trkpt lat="52.041824" lon="05.798563"><ele>16.9</ele><time>2022-03-04T14:41:02Z</time><name>PT2960</name></trkpt>
<trkpt lat="52.041822" lon="05.798544"><ele>16.7</ele><time>2022-03-04T14:41:04Z</time><name>PT2961</name></trkpt>
<trkpt lat="52.041821" lon="05.798527"><ele>16.7</ele><time>2022-03-04T14:41:04Z</time><name>PT2962</name></trkpt>
<trkpt lat="52.041820" lon="05.798514"><ele>16.8</ele><time>2022-03-04T14:41:05Z</time><name>PT2963</name></trkpt>
<trkpt lat="52.041820" lon="05.798499"><ele>17</ele><time>2022-03-04T14:41:07Z</time><name>PT2964</name></trkpt>
<trkpt lat="52.041814" lon="05.798485"><ele>17</ele><time>2022-03-04T14:41:07Z</time><name>PT2965</name></trkpt>
<trkpt lat="52.041811" lon="05.798471"><ele>17.2</ele><time>2022-03-04T14:41:08Z</time><name>PT2966</name></trkpt>
<trkpt lat="52.041805" lon="05.798457"><ele>17.3</ele><time>2022-03-04T14:41:10Z</time><name>PT2967</name></trkpt>
<trkpt lat="52.041802" lon="05.798446"><ele>17.4</ele><time>2022-03-04T14:41:10Z</time><name>PT2968</name></trkpt>
<trkpt lat="52.041796" lon="05.798438"><ele>17.3</ele><time>2022-03-04T14:41:11Z</time><name>PT2969</name></trkpt>
<trkpt lat="52.041791" lon="05.798427"><ele>17.2</ele><time>2022-03-04T14:41:13Z</time><name>PT2970</name></trkpt>
<trkpt lat="52.041784" lon="05.798409"><ele>17</ele><time>2022-03-04T14:41:13Z</time><name>PT2971</name></trkpt>
<trkpt lat="52.041778" lon="05.798390"><ele>17</ele><time>2022-03-04T14:41:14Z</time><name>PT2972</name></trkpt>
<trkpt lat="52.041773" lon="05.798378"><ele>16.8</ele><time>2022-03-04T14:41:16Z</time><name>PT2973</name></trkpt>
<trkpt lat="52.041769" lon="05.798369"><ele>16.6</ele><time>2022-03-04T14:41:16Z</time><name>PT2974</name></trkpt>
<trkpt lat="52.041760" lon="05.798361"><ele>16.7</ele><time>2022-03-04T14:41:17Z</time><name>PT2975</name></trkpt>
<trkpt lat="52.041750" lon="05.798351"><ele>16.9</ele><time>2022-03-04T14:41:19Z</time><name>PT2976</name></trkpt>
<trkpt lat="52.041741" lon="05.798341"><ele>16.9</ele><time>2022-03-04T14:41:19Z</time><name>PT2977</name></trkpt>
<trkpt lat="52.041736" lon="05.798338"><ele>17</ele><time>2022-03-04T14:41:20Z</time><name>PT2978</name></trkpt>
<trkpt lat="52.041731" lon="05.798336"><ele>17.1</ele><time>2022-03-04T14:41:22Z</time><name>PT2979</name></trkpt>
<trkpt lat="52.041728" lon="05.798335"><ele>17.1</ele><time>2022-03-04T14:41:22Z</time><name>PT2980</name></trkpt>
<trkpt lat="52.041728" lon="05.798330"><ele>17.1</ele><time>2022-03-04T14:41:23Z</time><name>PT2981</name></trkpt>
<trkpt lat="52.041728" lon="05.798327"><ele>17</ele><time>2022-03-04T14:41:25Z</time><name>PT2982</name></trkpt>
<trkpt lat="52.041725" lon="05.798320"><ele>17.1</ele><time>2022-03-04T14:41:25Z</time><name>PT2983</name></trkpt>
<trkpt lat="52.041722" lon="05.798312"><ele>17.1</ele><time>2022-03-04T14:41:26Z</time><name>PT2984</name></trkpt>
<trkpt lat="52.041717" lon="05.798307"><ele>17.2</ele><time>2022-03-04T14:41:28Z</time><name>PT2985</name></trkpt>
<trkpt lat="52.041714" lon="05.798303"><ele>17.1</ele><time>2022-03-04T14:41:29Z</time><name>PT2986</name></trkpt>
<trkpt lat="52.041712" lon="05.798295"><ele>17.1</ele><time>2022-03-04T14:41:29Z</time><name>PT2987</name></trkpt>
<trkpt lat="52.041711" lon="05.798284"><ele>17</ele><time>2022-03-04T14:41:31Z</time><name>PT2988</name></trkpt>
<trkpt lat="52.041708" lon="05.798282"><ele>17</ele><time>2022-03-04T14:41:31Z</time><name>PT2989</name></trkpt>
<trkpt lat="52.041708" lon="05.798283"><ele>17</ele><time>2022-03-04T14:41:32Z</time><name>PT2990</name></trkpt>
<trkpt lat="52.041708" lon="05.798286"><ele>17.1</ele><time>2022-03-04T14:41:34Z</time><name>PT2991</name></trkpt>
<trkpt lat="52.041707" lon="05.798289"><ele>17.2</ele><time>2022-03-04T14:41:34Z</time><name>PT2992</name></trkpt>
<trkpt lat="52.041708" lon="05.798290"><ele>17.2</ele><time>2022-03-04T14:41:35Z</time><name>PT2993</name></trkpt>
<trkpt lat="52.041708" lon="05.798291"><ele>17.2</ele><time>2022-03-04T14:41:37Z</time><name>PT2994</name></trkpt>
<trkpt lat="52.041701" lon="05.798282"><ele>17.5</ele><time>2022-03-04T14:41:56Z</time><name>PT2995</name></trkpt>
<trkpt lat="52.041698" lon="05.798234"><ele>17.2</ele><time>2022-03-04T14:41:58Z</time><name>PT2996</name></trkpt>
<trkpt lat="52.041701" lon="05.798214"><ele>17</ele><time>2022-03-04T14:41:59Z</time><name>PT2997</name></trkpt>
<trkpt lat="52.041705" lon="05.798195"><ele>17</ele><time>2022-03-04T14:42:01Z</time><name>PT2998</name></trkpt>
<trkpt lat="52.041706" lon="05.798177"><ele>17</ele><time>2022-03-04T14:42:01Z</time><name>PT2999</name></trkpt>
<trkpt lat="52.041709" lon="05.798158"><ele>17.2</ele><time>2022-03-04T14:42:02Z</time><name>PT3000</name></trkpt>
<trkpt lat="52.041708" lon="05.798138"><ele>17</ele><time>2022-03-04T14:42:04Z</time><name>PT3001</name></trkpt>
<trkpt lat="52.041710" lon="05.798123"><ele>17.1</ele><time>2022-03-04T14:42:04Z</time><name>PT3002</name></trkpt>
<trkpt lat="52.041712" lon="05.798111"><ele>17.3</ele><time>2022-03-04T14:42:05Z</time><name>PT3003</name></trkpt>
<trkpt lat="52.041711" lon="05.798094"><ele>17.3</ele><time>2022-03-04T14:42:07Z</time><name>PT3004</name></trkpt>
<trkpt lat="52.041710" lon="05.798073"><ele>17.3</ele><time>2022-03-04T14:42:07Z</time><name>PT3005</name></trkpt>
<trkpt lat="52.041716" lon="05.798059"><ele>17.4</ele><time>2022-03-04T14:42:09Z</time><name>PT3006</name></trkpt>
<trkpt lat="52.041719" lon="05.798045"><ele>17.3</ele><time>2022-03-04T14:42:10Z</time><name>PT3007</name></trkpt>
<trkpt lat="52.041720" lon="05.798031"><ele>17.2</ele><time>2022-03-04T14:42:10Z</time><name>PT3008</name></trkpt>
<trkpt lat="52.041727" lon="05.798013"><ele>17.2</ele><time>2022-03-04T14:42:11Z</time><name>PT3009</name></trkpt>
<trkpt lat="52.041728" lon="05.797993"><ele>17.2</ele><time>2022-03-04T14:42:13Z</time><name>PT3010</name></trkpt>
<trkpt lat="52.041729" lon="05.797972"><ele>17.4</ele><time>2022-03-04T14:42:13Z</time><name>PT3011</name></trkpt>
<trkpt lat="52.041729" lon="05.797955"><ele>17.3</ele><time>2022-03-04T14:42:14Z</time><name>PT3012</name></trkpt>
<trkpt lat="52.041731" lon="05.797940"><ele>17.4</ele><time>2022-03-04T14:42:16Z</time><name>PT3013</name></trkpt>
<trkpt lat="52.041732" lon="05.797925"><ele>17.4</ele><time>2022-03-04T14:42:16Z</time><name>PT3014</name></trkpt>
<trkpt lat="52.041732" lon="05.797908"><ele>17.4</ele><time>2022-03-04T14:42:17Z</time><name>PT3015</name></trkpt>
<trkpt lat="52.041731" lon="05.797892"><ele>17.4</ele><time>2022-03-04T14:42:19Z</time><name>PT3016</name></trkpt>
<trkpt lat="52.041731" lon="05.797875"><ele>17.5</ele><time>2022-03-04T14:42:19Z</time><name>PT3017</name></trkpt>
<trkpt lat="52.041735" lon="05.797856"><ele>17.5</ele><time>2022-03-04T14:42:20Z</time><name>PT3018</name></trkpt>
<trkpt lat="52.041737" lon="05.797840"><ele>17.6</ele><time>2022-03-04T14:42:22Z</time><name>PT3019</name></trkpt>
<trkpt lat="52.041735" lon="05.797828"><ele>17.7</ele><time>2022-03-04T14:42:22Z</time><name>PT3020</name></trkpt>
<trkpt lat="52.041731" lon="05.797798"><ele>17.6</ele><time>2022-03-04T14:42:25Z</time><name>PT3021</name></trkpt>
<trkpt lat="52.041735" lon="05.797778"><ele>17.6</ele><time>2022-03-04T14:42:25Z</time><name>PT3022</name></trkpt>
<trkpt lat="52.041736" lon="05.797763"><ele>17.5</ele><time>2022-03-04T14:42:26Z</time><name>PT3023</name></trkpt>
<trkpt lat="52.041732" lon="05.797757"><ele>17.5</ele><time>2022-03-04T14:42:28Z</time><name>PT3024</name></trkpt>
<trkpt lat="52.041729" lon="05.797746"><ele>17.3</ele><time>2022-03-04T14:42:28Z</time><name>PT3025</name></trkpt>
<trkpt lat="52.041728" lon="05.797725"><ele>17.4</ele><time>2022-03-04T14:42:29Z</time><name>PT3026</name></trkpt>
<trkpt lat="52.041729" lon="05.797707"><ele>17.5</ele><time>2022-03-04T14:42:31Z</time><name>PT3027</name></trkpt>
<trkpt lat="52.041728" lon="05.797688"><ele>17.6</ele><time>2022-03-04T14:42:31Z</time><name>PT3028</name></trkpt>
<trkpt lat="52.041728" lon="05.797665"><ele>17.5</ele><time>2022-03-04T14:42:32Z</time><name>PT3029</name></trkpt>
<trkpt lat="52.041728" lon="05.797650"><ele>17.6</ele><time>2022-03-04T14:42:34Z</time><name>PT3030</name></trkpt>
<trkpt lat="52.041727" lon="05.797640"><ele>17.6</ele><time>2022-03-04T14:42:34Z</time><name>PT3031</name></trkpt>
<trkpt lat="52.041726" lon="05.797630"><ele>17.5</ele><time>2022-03-04T14:42:35Z</time><name>PT3032</name></trkpt>
<trkpt lat="52.041727" lon="05.797620"><ele>17.4</ele><time>2022-03-04T14:42:37Z</time><name>PT3033</name></trkpt>
<trkpt lat="52.041728" lon="05.797603"><ele>17.4</ele><time>2022-03-04T14:42:37Z</time><name>PT3034</name></trkpt>
<trkpt lat="52.041733" lon="05.797580"><ele>17.5</ele><time>2022-03-04T14:42:38Z</time><name>PT3035</name></trkpt>
<trkpt lat="52.041737" lon="05.797565"><ele>17.5</ele><time>2022-03-04T14:42:40Z</time><name>PT3036</name></trkpt>
<trkpt lat="52.041742" lon="05.797550"><ele>17.6</ele><time>2022-03-04T14:42:40Z</time><name>PT3037</name></trkpt>
<trkpt lat="52.041747" lon="05.797540"><ele>17.5</ele><time>2022-03-04T14:42:41Z</time><name>PT3038</name></trkpt>
<trkpt lat="52.041745" lon="05.797532"><ele>17.5</ele><time>2022-03-04T14:42:43Z</time><name>PT3039</name></trkpt>
<trkpt lat="52.041745" lon="05.797516"><ele>17.5</ele><time>2022-03-04T14:42:43Z</time><name>PT3040</name></trkpt>
<trkpt lat="52.041748" lon="05.797477"><ele>17.6</ele><time>2022-03-04T14:42:46Z</time><name>PT3041</name></trkpt>
<trkpt lat="52.041752" lon="05.797456"><ele>17.6</ele><time>2022-03-04T14:42:46Z</time><name>PT3042</name></trkpt>
<trkpt lat="52.041755" lon="05.797436"><ele>17.8</ele><time>2022-03-04T14:42:47Z</time><name>PT3043</name></trkpt>
<trkpt lat="52.041759" lon="05.797415"><ele>17.8</ele><time>2022-03-04T14:42:49Z</time><name>PT3044</name></trkpt>
<trkpt lat="52.041762" lon="05.797396"><ele>17.8</ele><time>2022-03-04T14:42:49Z</time><name>PT3045</name></trkpt>
<trkpt lat="52.041764" lon="05.797379"><ele>18</ele><time>2022-03-04T14:42:50Z</time><name>PT3046</name></trkpt>
<trkpt lat="52.041760" lon="05.797364"><ele>18</ele><time>2022-03-04T14:42:52Z</time><name>PT3047</name></trkpt>
<trkpt lat="52.041761" lon="05.797341"><ele>17.9</ele><time>2022-03-04T14:42:52Z</time><name>PT3048</name></trkpt>
<trkpt lat="52.041759" lon="05.797322"><ele>17.9</ele><time>2022-03-04T14:42:53Z</time><name>PT3049</name></trkpt>
<trkpt lat="52.041760" lon="05.797303"><ele>17.9</ele><time>2022-03-04T14:42:55Z</time><name>PT3050</name></trkpt>
<trkpt lat="52.041760" lon="05.797283"><ele>17.8</ele><time>2022-03-04T14:42:55Z</time><name>PT3051</name></trkpt>
<trkpt lat="52.041758" lon="05.797268"><ele>17.8</ele><time>2022-03-04T14:42:56Z</time><name>PT3052</name></trkpt>
<trkpt lat="52.041759" lon="05.797253"><ele>17.9</ele><time>2022-03-04T14:42:58Z</time><name>PT3053</name></trkpt>
<trkpt lat="52.041759" lon="05.797235"><ele>17.7</ele><time>2022-03-04T14:42:58Z</time><name>PT3054</name></trkpt>
<trkpt lat="52.041757" lon="05.797215"><ele>17.6</ele><time>2022-03-04T14:42:59Z</time><name>PT3055</name></trkpt>
<trkpt lat="52.041761" lon="05.797193"><ele>17.6</ele><time>2022-03-04T14:43:01Z</time><name>PT3056</name></trkpt>
<trkpt lat="52.041762" lon="05.797171"><ele>17.7</ele><time>2022-03-04T14:43:01Z</time><name>PT3057</name></trkpt>
<trkpt lat="52.041762" lon="05.797151"><ele>17.8</ele><time>2022-03-04T14:43:02Z</time><name>PT3058</name></trkpt>
<trkpt lat="52.041764" lon="05.797131"><ele>17.9</ele><time>2022-03-04T14:43:04Z</time><name>PT3059</name></trkpt>
<trkpt lat="52.041765" lon="05.797115"><ele>18</ele><time>2022-03-04T14:43:04Z</time><name>PT3060</name></trkpt>
<trkpt lat="52.041769" lon="05.797105"><ele>17.9</ele><time>2022-03-04T14:43:05Z</time><name>PT3061</name></trkpt>
<trkpt lat="52.041772" lon="05.797090"><ele>18</ele><time>2022-03-04T14:43:07Z</time><name>PT3062</name></trkpt>
<trkpt lat="52.041770" lon="05.797070"><ele>18</ele><time>2022-03-04T14:43:07Z</time><name>PT3063</name></trkpt>
<trkpt lat="52.041770" lon="05.797048"><ele>18</ele><time>2022-03-04T14:43:08Z</time><name>PT3064</name></trkpt>
<trkpt lat="52.041768" lon="05.797032"><ele>18</ele><time>2022-03-04T14:43:10Z</time><name>PT3065</name></trkpt>
<trkpt lat="52.041774" lon="05.797011"><ele>18</ele><time>2022-03-04T14:43:10Z</time><name>PT3066</name></trkpt>
<trkpt lat="52.041776" lon="05.796998"><ele>18</ele><time>2022-03-04T14:43:11Z</time><name>PT3067</name></trkpt>
<trkpt lat="52.041779" lon="05.796983"><ele>18.2</ele><time>2022-03-04T14:43:13Z</time><name>PT3068</name></trkpt>
<trkpt lat="52.041781" lon="05.796967"><ele>18.1</ele><time>2022-03-04T14:43:13Z</time><name>PT3069</name></trkpt>
<trkpt lat="52.041779" lon="05.796950"><ele>18.2</ele><time>2022-03-04T14:43:14Z</time><name>PT3070</name></trkpt>
<trkpt lat="52.041779" lon="05.796929"><ele>18.3</ele><time>2022-03-04T14:43:16Z</time><name>PT3071</name></trkpt>
<trkpt lat="52.041781" lon="05.796900"><ele>18.2</ele><time>2022-03-04T14:43:16Z</time><name>PT3072</name></trkpt>
<trkpt lat="52.041782" lon="05.796876"><ele>18</ele><time>2022-03-04T14:43:17Z</time><name>PT3073</name></trkpt>
<trkpt lat="52.041783" lon="05.796853"><ele>18.2</ele><time>2022-03-04T14:43:19Z</time><name>PT3074</name></trkpt>
<trkpt lat="52.041786" lon="05.796835"><ele>18.1</ele><time>2022-03-04T14:43:19Z</time><name>PT3075</name></trkpt>
<trkpt lat="52.041788" lon="05.796819"><ele>18.2</ele><time>2022-03-04T14:43:20Z</time><name>PT3076</name></trkpt>
<trkpt lat="52.041790" lon="05.796799"><ele>18.4</ele><time>2022-03-04T14:43:22Z</time><name>PT3077</name></trkpt>
<trkpt lat="52.041791" lon="05.796780"><ele>18.4</ele><time>2022-03-04T14:43:22Z</time><name>PT3078</name></trkpt>
<trkpt lat="52.041795" lon="05.796757"><ele>18.4</ele><time>2022-03-04T14:43:23Z</time><name>PT3079</name></trkpt>
<trkpt lat="52.041797" lon="05.796730"><ele>18.4</ele><time>2022-03-04T14:43:25Z</time><name>PT3080</name></trkpt>
<trkpt lat="52.041796" lon="05.796711"><ele>18.5</ele><time>2022-03-04T14:43:25Z</time><name>PT3081</name></trkpt>
<trkpt lat="52.041795" lon="05.796692"><ele>18.4</ele><time>2022-03-04T14:43:26Z</time><name>PT3082</name></trkpt>
<trkpt lat="52.041795" lon="05.796675"><ele>18.6</ele><time>2022-03-04T14:43:28Z</time><name>PT3083</name></trkpt>
<trkpt lat="52.041795" lon="05.796659"><ele>18.5</ele><time>2022-03-04T14:43:28Z</time><name>PT3084</name></trkpt>
<trkpt lat="52.041794" lon="05.796642"><ele>18.6</ele><time>2022-03-04T14:43:29Z</time><name>PT3085</name></trkpt>
<trkpt lat="52.041791" lon="05.796629"><ele>18.4</ele><time>2022-03-04T14:43:31Z</time><name>PT3086</name></trkpt>
<trkpt lat="52.041791" lon="05.796617"><ele>18.4</ele><time>2022-03-04T14:43:31Z</time><name>PT3087</name></trkpt>
<trkpt lat="52.041789" lon="05.796602"><ele>18.4</ele><time>2022-03-04T14:43:32Z</time><name>PT3088</name></trkpt>
<trkpt lat="52.041789" lon="05.796582"><ele>18.5</ele><time>2022-03-04T14:43:34Z</time><name>PT3089</name></trkpt>
<trkpt lat="52.041791" lon="05.796564"><ele>18.4</ele><time>2022-03-04T14:43:34Z</time><name>PT3090</name></trkpt>
<trkpt lat="52.041791" lon="05.796549"><ele>18.6</ele><time>2022-03-04T14:43:35Z</time><name>PT3091</name></trkpt>
<trkpt lat="52.041791" lon="05.796532"><ele>18.6</ele><time>2022-03-04T14:43:37Z</time><name>PT3092</name></trkpt>
<trkpt lat="52.041793" lon="05.796514"><ele>18.5</ele><time>2022-03-04T14:43:37Z</time><name>PT3093</name></trkpt>
<trkpt lat="52.041794" lon="05.796501"><ele>18.4</ele><time>2022-03-04T14:43:38Z</time><name>PT3094</name></trkpt>
<trkpt lat="52.041795" lon="05.796493"><ele>18.3</ele><time>2022-03-04T14:43:40Z</time><name>PT3095</name></trkpt>
<trkpt lat="52.041797" lon="05.796482"><ele>18.2</ele><time>2022-03-04T14:43:40Z</time><name>PT3096</name></trkpt>
<trkpt lat="52.041805" lon="05.796466"><ele>18.2</ele><time>2022-03-04T14:43:41Z</time><name>PT3097</name></trkpt>
<trkpt lat="52.041813" lon="05.796443"><ele>18.1</ele><time>2022-03-04T14:43:43Z</time><name>PT3098</name></trkpt>
<trkpt lat="52.041816" lon="05.796419"><ele>18.1</ele><time>2022-03-04T14:43:43Z</time><name>PT3099</name></trkpt>
<trkpt lat="52.041813" lon="05.796400"><ele>18.1</ele><time>2022-03-04T14:43:44Z</time><name>PT3100</name></trkpt>
<trkpt lat="52.041814" lon="05.796382"><ele>18.2</ele><time>2022-03-04T14:43:46Z</time><name>PT3101</name></trkpt>
<trkpt lat="52.041814" lon="05.796369"><ele>18.2</ele><time>2022-03-04T14:43:46Z</time><name>PT3102</name></trkpt>
<trkpt lat="52.041812" lon="05.796356"><ele>18.3</ele><time>2022-03-04T14:43:47Z</time><name>PT3103</name></trkpt>
<trkpt lat="52.041814" lon="05.796342"><ele>18.2</ele><time>2022-03-04T14:43:49Z</time><name>PT3104</name></trkpt>
<trkpt lat="52.041815" lon="05.796328"><ele>18.2</ele><time>2022-03-04T14:43:49Z</time><name>PT3105</name></trkpt>
<trkpt lat="52.041818" lon="05.796309"><ele>18.3</ele><time>2022-03-04T14:43:50Z</time><name>PT3106</name></trkpt>
<trkpt lat="52.041820" lon="05.796285"><ele>18.4</ele><time>2022-03-04T14:43:52Z</time><name>PT3107</name></trkpt>
<trkpt lat="52.041822" lon="05.796264"><ele>18.4</ele><time>2022-03-04T14:43:52Z</time><name>PT3108</name></trkpt>
<trkpt lat="52.041821" lon="05.796244"><ele>18.5</ele><time>2022-03-04T14:43:53Z</time><name>PT3109</name></trkpt>
<trkpt lat="52.041823" lon="05.796223"><ele>18.5</ele><time>2022-03-04T14:43:55Z</time><name>PT3110</name></trkpt>
<trkpt lat="52.041826" lon="05.796203"><ele>18.5</ele><time>2022-03-04T14:43:55Z</time><name>PT3111</name></trkpt>
<trkpt lat="52.041829" lon="05.796188"><ele>18.4</ele><time>2022-03-04T14:43:56Z</time><name>PT3112</name></trkpt>
<trkpt lat="52.041830" lon="05.796176"><ele>18.4</ele><time>2022-03-04T14:43:58Z</time><name>PT3113</name></trkpt>
<trkpt lat="52.041827" lon="05.796156"><ele>18.4</ele><time>2022-03-04T14:43:58Z</time><name>PT3114</name></trkpt>
<trkpt lat="52.041826" lon="05.796138"><ele>18.3</ele><time>2022-03-04T14:43:59Z</time><name>PT3115</name></trkpt>
<trkpt lat="52.041821" lon="05.796120"><ele>18.3</ele><time>2022-03-04T14:44:01Z</time><name>PT3116</name></trkpt>
<trkpt lat="52.041824" lon="05.796095"><ele>18.4</ele><time>2022-03-04T14:44:01Z</time><name>PT3117</name></trkpt>
<trkpt lat="52.041827" lon="05.796071"><ele>18.4</ele><time>2022-03-04T14:44:02Z</time><name>PT3118</name></trkpt>
<trkpt lat="52.041832" lon="05.796054"><ele>18.4</ele><time>2022-03-04T14:44:04Z</time><name>PT3119</name></trkpt>
<trkpt lat="52.041838" lon="05.796037"><ele>18.4</ele><time>2022-03-04T14:44:04Z</time><name>PT3120</name></trkpt>
<trkpt lat="52.041840" lon="05.796022"><ele>18.4</ele><time>2022-03-04T14:44:05Z</time><name>PT3121</name></trkpt>
<trkpt lat="52.041840" lon="05.796009"><ele>18.4</ele><time>2022-03-04T14:44:07Z</time><name>PT3122</name></trkpt>
<trkpt lat="52.041836" lon="05.796003"><ele>18.5</ele><time>2022-03-04T14:44:07Z</time><name>PT3123</name></trkpt>
<trkpt lat="52.041837" lon="05.795988"><ele>18.5</ele><time>2022-03-04T14:44:08Z</time><name>PT3124</name></trkpt>
<trkpt lat="52.041840" lon="05.795967"><ele>18.7</ele><time>2022-03-04T14:44:10Z</time><name>PT3125</name></trkpt>
<trkpt lat="52.041840" lon="05.795940"><ele>18.6</ele><time>2022-03-04T14:44:10Z</time><name>PT3126</name></trkpt>
<trkpt lat="52.041843" lon="05.795914"><ele>18.4</ele><time>2022-03-04T14:44:11Z</time><name>PT3127</name></trkpt>
<trkpt lat="52.041844" lon="05.795895"><ele>18.4</ele><time>2022-03-04T14:44:13Z</time><name>PT3128</name></trkpt>
<trkpt lat="52.041845" lon="05.795885"><ele>18.4</ele><time>2022-03-04T14:44:13Z</time><name>PT3129</name></trkpt>
<trkpt lat="52.041844" lon="05.795877"><ele>18.4</ele><time>2022-03-04T14:44:14Z</time><name>PT3130</name></trkpt>
<trkpt lat="52.041843" lon="05.795866"><ele>18.4</ele><time>2022-03-04T14:44:16Z</time><name>PT3131</name></trkpt>
<trkpt lat="52.041842" lon="05.795848"><ele>18.4</ele><time>2022-03-04T14:44:16Z</time><name>PT3132</name></trkpt>
<trkpt lat="52.041843" lon="05.795828"><ele>18.5</ele><time>2022-03-04T14:44:17Z</time><name>PT3133</name></trkpt>
<trkpt lat="52.041864" lon="05.795802"><ele>18.5</ele><time>2022-03-04T14:44:19Z</time><name>PT3134</name></trkpt>
<trkpt lat="52.041871" lon="05.795782"><ele>18.7</ele><time>2022-03-04T14:44:19Z</time><name>PT3135</name></trkpt>
<trkpt lat="52.041876" lon="05.795764"><ele>18.8</ele><time>2022-03-04T14:44:20Z</time><name>PT3136</name></trkpt>
<trkpt lat="52.041878" lon="05.795750"><ele>18.9</ele><time>2022-03-04T14:44:22Z</time><name>PT3137</name></trkpt>
<trkpt lat="52.041879" lon="05.795734"><ele>18.9</ele><time>2022-03-04T14:44:22Z</time><name>PT3138</name></trkpt>
<trkpt lat="52.041876" lon="05.795721"><ele>19.1</ele><time>2022-03-04T14:44:23Z</time><name>PT3139</name></trkpt>
<trkpt lat="52.041881" lon="05.795705"><ele>19</ele><time>2022-03-04T14:44:25Z</time><name>PT3140</name></trkpt>
<trkpt lat="52.041885" lon="05.795680"><ele>19</ele><time>2022-03-04T14:44:25Z</time><name>PT3141</name></trkpt>
<trkpt lat="52.041891" lon="05.795655"><ele>18.8</ele><time>2022-03-04T14:44:26Z</time><name>PT3142</name></trkpt>
<trkpt lat="52.041894" lon="05.795634"><ele>18.6</ele><time>2022-03-04T14:44:28Z</time><name>PT3143</name></trkpt>
<trkpt lat="52.041894" lon="05.795617"><ele>18.6</ele><time>2022-03-04T14:44:28Z</time><name>PT3144</name></trkpt>
<trkpt lat="52.041894" lon="05.795604"><ele>18.6</ele><time>2022-03-04T14:44:29Z</time><name>PT3145</name></trkpt>
<trkpt lat="52.041895" lon="05.795589"><ele>18.6</ele><time>2022-03-04T14:44:31Z</time><name>PT3146</name></trkpt>
<trkpt lat="52.041891" lon="05.795563"><ele>18.8</ele><time>2022-03-04T14:44:31Z</time><name>PT3147</name></trkpt>
<trkpt lat="52.041885" lon="05.795544"><ele>19</ele><time>2022-03-04T14:44:32Z</time><name>PT3148</name></trkpt>
<trkpt lat="52.041883" lon="05.795529"><ele>19</ele><time>2022-03-04T14:44:34Z</time><name>PT3149</name></trkpt>
<trkpt lat="52.041884" lon="05.795504"><ele>19.1</ele><time>2022-03-04T14:44:34Z</time><name>PT3150</name></trkpt>
<trkpt lat="52.041894" lon="05.795488"><ele>19</ele><time>2022-03-04T14:44:35Z</time><name>PT3151</name></trkpt>
<trkpt lat="52.041898" lon="05.795467"><ele>18.8</ele><time>2022-03-04T14:44:37Z</time><name>PT3152</name></trkpt>
<trkpt lat="52.041896" lon="05.795456"><ele>18.8</ele><time>2022-03-04T14:44:37Z</time><name>PT3153</name></trkpt>
<trkpt lat="52.041897" lon="05.795450"><ele>18.8</ele><time>2022-03-04T14:44:38Z</time><name>PT3154</name></trkpt>
<trkpt lat="52.041894" lon="05.795442"><ele>18.8</ele><time>2022-03-04T14:44:40Z</time><name>PT3155</name></trkpt>
<trkpt lat="52.041890" lon="05.795426"><ele>18.9</ele><time>2022-03-04T14:44:40Z</time><name>PT3156</name></trkpt>
<trkpt lat="52.041888" lon="05.795405"><ele>19</ele><time>2022-03-04T14:44:41Z</time><name>PT3157</name></trkpt>
<trkpt lat="52.041887" lon="05.795380"><ele>19</ele><time>2022-03-04T14:44:43Z</time><name>PT3158</name></trkpt>
<trkpt lat="52.041890" lon="05.795357"><ele>19.1</ele><time>2022-03-04T14:44:43Z</time><name>PT3159</name></trkpt>
<trkpt lat="52.041893" lon="05.795336"><ele>18.9</ele><time>2022-03-04T14:44:44Z</time><name>PT3160</name></trkpt>
<trkpt lat="52.041893" lon="05.795325"><ele>18.9</ele><time>2022-03-04T14:44:46Z</time><name>PT3161</name></trkpt>
<trkpt lat="52.041894" lon="05.795313"><ele>18.9</ele><time>2022-03-04T14:44:46Z</time><name>PT3162</name></trkpt>
<trkpt lat="52.041896" lon="05.795299"><ele>18.9</ele><time>2022-03-04T14:44:47Z</time><name>PT3163</name></trkpt>
<trkpt lat="52.041893" lon="05.795287"><ele>18.9</ele><time>2022-03-04T14:44:49Z</time><name>PT3164</name></trkpt>
<trkpt lat="52.041891" lon="05.795264"><ele>19.1</ele><time>2022-03-04T14:44:49Z</time><name>PT3165</name></trkpt>
<trkpt lat="52.041906" lon="05.795237"><ele>19.1</ele><time>2022-03-04T14:44:50Z</time><name>PT3166</name></trkpt>
<trkpt lat="52.041907" lon="05.795215"><ele>19.3</ele><time>2022-03-04T14:44:52Z</time><name>PT3167</name></trkpt>
<trkpt lat="52.041907" lon="05.795196"><ele>19.4</ele><time>2022-03-04T14:44:52Z</time><name>PT3168</name></trkpt>
<trkpt lat="52.041903" lon="05.795178"><ele>19.2</ele><time>2022-03-04T14:44:53Z</time><name>PT3169</name></trkpt>
<trkpt lat="52.041900" lon="05.795166"><ele>19.2</ele><time>2022-03-04T14:44:55Z</time><name>PT3170</name></trkpt>
<trkpt lat="52.041899" lon="05.795154"><ele>19.2</ele><time>2022-03-04T14:44:55Z</time><name>PT3171</name></trkpt>
<trkpt lat="52.041897" lon="05.795142"><ele>19.2</ele><time>2022-03-04T14:44:56Z</time><name>PT3172</name></trkpt>
<trkpt lat="52.041897" lon="05.795122"><ele>19.3</ele><time>2022-03-04T14:44:58Z</time><name>PT3173</name></trkpt>
<trkpt lat="52.041896" lon="05.795097"><ele>19.3</ele><time>2022-03-04T14:44:58Z</time><name>PT3174</name></trkpt>
<trkpt lat="52.041893" lon="05.795073"><ele>19.4</ele><time>2022-03-04T14:44:59Z</time><name>PT3175</name></trkpt>
<trkpt lat="52.041899" lon="05.795049"><ele>19.2</ele><time>2022-03-04T14:45:01Z</time><name>PT3176</name></trkpt>
<trkpt lat="52.041901" lon="05.795031"><ele>19.1</ele><time>2022-03-04T14:45:01Z</time><name>PT3177</name></trkpt>
<trkpt lat="52.041902" lon="05.795015"><ele>19.1</ele><time>2022-03-04T14:45:02Z</time><name>PT3178</name></trkpt>
<trkpt lat="52.041900" lon="05.795000"><ele>19.2</ele><time>2022-03-04T14:45:04Z</time><name>PT3179</name></trkpt>
<trkpt lat="52.041903" lon="05.794982"><ele>19.1</ele><time>2022-03-04T14:45:04Z</time><name>PT3180</name></trkpt>
<trkpt lat="52.041905" lon="05.794963"><ele>19</ele><time>2022-03-04T14:45:05Z</time><name>PT3181</name></trkpt>
<trkpt lat="52.041904" lon="05.794944"><ele>19.3</ele><time>2022-03-04T14:45:07Z</time><name>PT3182</name></trkpt>
<trkpt lat="52.041908" lon="05.794923"><ele>19.2</ele><time>2022-03-04T14:45:07Z</time><name>PT3183</name></trkpt>
<trkpt lat="52.041906" lon="05.794896"><ele>19.1</ele><time>2022-03-04T14:45:08Z</time><name>PT3184</name></trkpt>
<trkpt lat="52.041906" lon="05.794872"><ele>19.3</ele><time>2022-03-04T14:45:10Z</time><name>PT3185</name></trkpt>
<trkpt lat="52.041907" lon="05.794852"><ele>19.4</ele><time>2022-03-04T14:45:10Z</time><name>PT3186</name></trkpt>
<trkpt lat="52.041908" lon="05.794836"><ele>19.3</ele><time>2022-03-04T14:45:11Z</time><name>PT3187</name></trkpt>
<trkpt lat="52.041909" lon="05.794821"><ele>19.4</ele><time>2022-03-04T14:45:13Z</time><name>PT3188</name></trkpt>
<trkpt lat="52.041908" lon="05.794804"><ele>19.4</ele><time>2022-03-04T14:45:13Z</time><name>PT3189</name></trkpt>
<trkpt lat="52.041906" lon="05.794790"><ele>19.4</ele><time>2022-03-04T14:45:14Z</time><name>PT3190</name></trkpt>
<trkpt lat="52.041904" lon="05.794765"><ele>19.4</ele><time>2022-03-04T14:45:16Z</time><name>PT3191</name></trkpt>
<trkpt lat="52.041905" lon="05.794741"><ele>19.4</ele><time>2022-03-04T14:45:16Z</time><name>PT3192</name></trkpt>
<trkpt lat="52.041905" lon="05.794719"><ele>19.4</ele><time>2022-03-04T14:45:17Z</time><name>PT3193</name></trkpt>
<trkpt lat="52.041909" lon="05.794701"><ele>19.2</ele><time>2022-03-04T14:45:19Z</time><name>PT3194</name></trkpt>
<trkpt lat="52.041908" lon="05.794686"><ele>19.2</ele><time>2022-03-04T14:45:19Z</time><name>PT3195</name></trkpt>
<trkpt lat="52.041908" lon="05.794670"><ele>19.1</ele><time>2022-03-04T14:45:20Z</time><name>PT3196</name></trkpt>
<trkpt lat="52.041907" lon="05.794659"><ele>19.1</ele><time>2022-03-04T14:45:22Z</time><name>PT3197</name></trkpt>
<trkpt lat="52.041905" lon="05.794640"><ele>19.1</ele><time>2022-03-04T14:45:22Z</time><name>PT3198</name></trkpt>
<trkpt lat="52.041902" lon="05.794614"><ele>19.1</ele><time>2022-03-04T14:45:23Z</time><name>PT3199</name></trkpt>
<trkpt lat="52.041901" lon="05.794592"><ele>19.1</ele><time>2022-03-04T14:45:25Z</time><name>PT3200</name></trkpt>
<trkpt lat="52.041900" lon="05.794573"><ele>19.3</ele><time>2022-03-04T14:45:25Z</time><name>PT3201</name></trkpt>
<trkpt lat="52.041901" lon="05.794549"><ele>19.2</ele><time>2022-03-04T14:45:26Z</time><name>PT3202</name></trkpt>
<trkpt lat="52.041901" lon="05.794537"><ele>19.1</ele><time>2022-03-04T14:45:28Z</time><name>PT3203</name></trkpt>
<trkpt lat="52.041904" lon="05.794523"><ele>19</ele><time>2022-03-04T14:45:28Z</time><name>PT3204</name></trkpt>
<trkpt lat="52.041905" lon="05.794508"><ele>19</ele><time>2022-03-04T14:45:29Z</time><name>PT3205</name></trkpt>
<trkpt lat="52.041904" lon="05.794493"><ele>19</ele><time>2022-03-04T14:45:31Z</time><name>PT3206</name></trkpt>
<trkpt lat="52.041904" lon="05.794468"><ele>19.1</ele><time>2022-03-04T14:45:31Z</time><name>PT3207</name></trkpt>
<trkpt lat="52.041902" lon="05.794449"><ele>19.3</ele><time>2022-03-04T14:45:32Z</time><name>PT3208</name></trkpt>
<trkpt lat="52.041901" lon="05.794428"><ele>19.4</ele><time>2022-03-04T14:45:34Z</time><name>PT3209</name></trkpt>
<trkpt lat="52.041903" lon="05.794410"><ele>19.4</ele><time>2022-03-04T14:45:34Z</time><name>PT3210</name></trkpt>
<trkpt lat="52.041908" lon="05.794389"><ele>19.5</ele><time>2022-03-04T14:45:35Z</time><name>PT3211</name></trkpt>
<trkpt lat="52.041912" lon="05.794375"><ele>19.5</ele><time>2022-03-04T14:45:37Z</time><name>PT3212</name></trkpt>
<trkpt lat="52.041915" lon="05.794358"><ele>19.4</ele><time>2022-03-04T14:45:37Z</time><name>PT3213</name></trkpt>
<trkpt lat="52.041916" lon="05.794345"><ele>19.4</ele><time>2022-03-04T14:45:38Z</time><name>PT3214</name></trkpt>
<trkpt lat="52.041918" lon="05.794329"><ele>19.4</ele><time>2022-03-04T14:45:40Z</time><name>PT3215</name></trkpt>
<trkpt lat="52.041915" lon="05.794313"><ele>19.4</ele><time>2022-03-04T14:45:40Z</time><name>PT3216</name></trkpt>
<trkpt lat="52.041912" lon="05.794292"><ele>19.3</ele><time>2022-03-04T14:45:41Z</time><name>PT3217</name></trkpt>
<trkpt lat="52.041911" lon="05.794269"><ele>19.4</ele><time>2022-03-04T14:45:43Z</time><name>PT3218</name></trkpt>
<trkpt lat="52.041911" lon="05.794245"><ele>19.3</ele><time>2022-03-04T14:45:43Z</time><name>PT3219</name></trkpt>
<trkpt lat="52.041914" lon="05.794222"><ele>19.4</ele><time>2022-03-04T14:45:44Z</time><name>PT3220</name></trkpt>
<trkpt lat="52.041917" lon="05.794206"><ele>19.3</ele><time>2022-03-04T14:45:46Z</time><name>PT3221</name></trkpt>
<trkpt lat="52.041920" lon="05.794195"><ele>19.3</ele><time>2022-03-04T14:45:46Z</time><name>PT3222</name></trkpt>
<trkpt lat="52.041922" lon="05.794184"><ele>19.3</ele><time>2022-03-04T14:45:47Z</time><name>PT3223</name></trkpt>
<trkpt lat="52.041923" lon="05.794172"><ele>19.4</ele><time>2022-03-04T14:45:49Z</time><name>PT3224</name></trkpt>
<trkpt lat="52.041924" lon="05.794157"><ele>19.4</ele><time>2022-03-04T14:45:49Z</time><name>PT3225</name></trkpt>
<trkpt lat="52.041922" lon="05.794142"><ele>19.4</ele><time>2022-03-04T14:45:50Z</time><name>PT3226</name></trkpt>
<trkpt lat="52.041924" lon="05.794114"><ele>19.5</ele><time>2022-03-04T14:45:52Z</time><name>PT3227</name></trkpt>
<trkpt lat="52.041924" lon="05.794088"><ele>19.4</ele><time>2022-03-04T14:45:52Z</time><name>PT3228</name></trkpt>
<trkpt lat="52.041918" lon="05.794057"><ele>19.4</ele><time>2022-03-04T14:45:54Z</time><name>PT3229</name></trkpt>
<trkpt lat="52.041916" lon="05.794033"><ele>19.5</ele><time>2022-03-04T14:45:55Z</time><name>PT3230</name></trkpt>
<trkpt lat="52.041916" lon="05.794014"><ele>19.4</ele><time>2022-03-04T14:45:55Z</time><name>PT3231</name></trkpt>
<trkpt lat="52.041917" lon="05.794001"><ele>19.4</ele><time>2022-03-04T14:45:56Z</time><name>PT3232</name></trkpt>
<trkpt lat="52.041920" lon="05.793988"><ele>19.4</ele><time>2022-03-04T14:45:58Z</time><name>PT3233</name></trkpt>
<trkpt lat="52.041923" lon="05.793971"><ele>19.4</ele><time>2022-03-04T14:45:58Z</time><name>PT3234</name></trkpt>
<trkpt lat="52.041923" lon="05.793949"><ele>19.3</ele><time>2022-03-04T14:46:00Z</time><name>PT3235</name></trkpt>
<trkpt lat="52.041927" lon="05.793922"><ele>19.3</ele><time>2022-03-04T14:46:01Z</time><name>PT3236</name></trkpt>
<trkpt lat="52.041918" lon="05.793888"><ele>19.4</ele><time>2022-03-04T14:46:01Z</time><name>PT3237</name></trkpt>
<trkpt lat="52.041921" lon="05.793868"><ele>19.4</ele><time>2022-03-04T14:46:02Z</time><name>PT3238</name></trkpt>
<trkpt lat="52.041924" lon="05.793855"><ele>19.4</ele><time>2022-03-04T14:46:04Z</time><name>PT3239</name></trkpt>
<trkpt lat="52.041924" lon="05.793842"><ele>19.6</ele><time>2022-03-04T14:46:04Z</time><name>PT3240</name></trkpt>
<trkpt lat="52.041924" lon="05.793829"><ele>19.5</ele><time>2022-03-04T14:46:05Z</time><name>PT3241</name></trkpt>
<trkpt lat="52.041919" lon="05.793816"><ele>19.4</ele><time>2022-03-04T14:46:07Z</time><name>PT3242</name></trkpt>
<trkpt lat="52.041923" lon="05.793803"><ele>19.4</ele><time>2022-03-04T14:46:07Z</time><name>PT3243</name></trkpt>
<trkpt lat="52.041927" lon="05.793776"><ele>19.4</ele><time>2022-03-04T14:46:08Z</time><name>PT3244</name></trkpt>
<trkpt lat="52.041937" lon="05.793754"><ele>19.3</ele><time>2022-03-04T14:46:10Z</time><name>PT3245</name></trkpt>
<trkpt lat="52.041941" lon="05.793743"><ele>19.4</ele><time>2022-03-04T14:46:10Z</time><name>PT3246</name></trkpt>
<trkpt lat="52.041944" lon="05.793727"><ele>19.4</ele><time>2022-03-04T14:46:11Z</time><name>PT3247</name></trkpt>
<trkpt lat="52.041945" lon="05.793711"><ele>19.4</ele><time>2022-03-04T14:46:13Z</time><name>PT3248</name></trkpt>
<trkpt lat="52.041942" lon="05.793695"><ele>19.4</ele><time>2022-03-04T14:46:13Z</time><name>PT3249</name></trkpt>
<trkpt lat="52.041941" lon="05.793681"><ele>19.8</ele><time>2022-03-04T14:46:14Z</time><name>PT3250</name></trkpt>
<trkpt lat="52.041942" lon="05.793665"><ele>19.9</ele><time>2022-03-04T14:46:16Z</time><name>PT3251</name></trkpt>
<trkpt lat="52.041951" lon="05.793645"><ele>19.9</ele><time>2022-03-04T14:46:16Z</time><name>PT3252</name></trkpt>
<trkpt lat="52.041949" lon="05.793626"><ele>19.8</ele><time>2022-03-04T14:46:17Z</time><name>PT3253</name></trkpt>
<trkpt lat="52.041951" lon="05.793600"><ele>19.9</ele><time>2022-03-04T14:46:19Z</time><name>PT3254</name></trkpt>
<trkpt lat="52.041955" lon="05.793578"><ele>19.9</ele><time>2022-03-04T14:46:19Z</time><name>PT3255</name></trkpt>
<trkpt lat="52.041961" lon="05.793562"><ele>19.8</ele><time>2022-03-04T14:46:20Z</time><name>PT3256</name></trkpt>
<trkpt lat="52.041964" lon="05.793547"><ele>19.7</ele><time>2022-03-04T14:46:22Z</time><name>PT3257</name></trkpt>
<trkpt lat="52.041968" lon="05.793536"><ele>19.7</ele><time>2022-03-04T14:46:22Z</time><name>PT3258</name></trkpt>
<trkpt lat="52.041967" lon="05.793518"><ele>19.6</ele><time>2022-03-04T14:46:23Z</time><name>PT3259</name></trkpt>
<trkpt lat="52.041965" lon="05.793501"><ele>19.4</ele><time>2022-03-04T14:46:25Z</time><name>PT3260</name></trkpt>
<trkpt lat="52.041966" lon="05.793479"><ele>19.4</ele><time>2022-03-04T14:46:25Z</time><name>PT3261</name></trkpt>
<trkpt lat="52.041972" lon="05.793456"><ele>19.4</ele><time>2022-03-04T14:46:26Z</time><name>PT3262</name></trkpt>
<trkpt lat="52.041976" lon="05.793435"><ele>19.4</ele><time>2022-03-04T14:46:28Z</time><name>PT3263</name></trkpt>
<trkpt lat="52.041986" lon="05.793411"><ele>19.3</ele><time>2022-03-04T14:46:28Z</time><name>PT3264</name></trkpt>
<trkpt lat="52.041987" lon="05.793394"><ele>19.4</ele><time>2022-03-04T14:46:29Z</time><name>PT3265</name></trkpt>
<trkpt lat="52.041992" lon="05.793377"><ele>19.4</ele><time>2022-03-04T14:46:31Z</time><name>PT3266</name></trkpt>
<trkpt lat="52.041994" lon="05.793362"><ele>19.4</ele><time>2022-03-04T14:46:31Z</time><name>PT3267</name></trkpt>
<trkpt lat="52.041994" lon="05.793353"><ele>19.4</ele><time>2022-03-04T14:46:32Z</time><name>PT3268</name></trkpt>
<trkpt lat="52.041992" lon="05.793340"><ele>19.4</ele><time>2022-03-04T14:46:34Z</time><name>PT3269</name></trkpt>
<trkpt lat="52.041989" lon="05.793323"><ele>19.4</ele><time>2022-03-04T14:46:34Z</time><name>PT3270</name></trkpt>
<trkpt lat="52.041982" lon="05.793303"><ele>19.5</ele><time>2022-03-04T14:46:35Z</time><name>PT3271</name></trkpt>
<trkpt lat="52.041984" lon="05.793284"><ele>19.5</ele><time>2022-03-04T14:46:37Z</time><name>PT3272</name></trkpt>
<trkpt lat="52.041987" lon="05.793270"><ele>19.6</ele><time>2022-03-04T14:46:37Z</time><name>PT3273</name></trkpt>
<trkpt lat="52.041989" lon="05.793257"><ele>19.7</ele><time>2022-03-04T14:46:38Z</time><name>PT3274</name></trkpt>
<trkpt lat="52.041988" lon="05.793245"><ele>19.5</ele><time>2022-03-04T14:46:40Z</time><name>PT3275</name></trkpt>
<trkpt lat="52.041985" lon="05.793226"><ele>19.5</ele><time>2022-03-04T14:46:40Z</time><name>PT3276</name></trkpt>
<trkpt lat="52.041986" lon="05.793207"><ele>19.6</ele><time>2022-03-04T14:46:41Z</time><name>PT3277</name></trkpt>
<trkpt lat="52.041986" lon="05.793180"><ele>19.6</ele><time>2022-03-04T14:46:43Z</time><name>PT3278</name></trkpt>
<trkpt lat="52.041984" lon="05.793158"><ele>19.8</ele><time>2022-03-04T14:46:43Z</time><name>PT3279</name></trkpt>
<trkpt lat="52.041983" lon="05.793133"><ele>19.9</ele><time>2022-03-04T14:46:44Z</time><name>PT3280</name></trkpt>
<trkpt lat="52.041984" lon="05.793112"><ele>19.9</ele><time>2022-03-04T14:46:46Z</time><name>PT3281</name></trkpt>
<trkpt lat="52.041987" lon="05.793099"><ele>19.9</ele><time>2022-03-04T14:46:46Z</time><name>PT3282</name></trkpt>
<trkpt lat="52.041988" lon="05.793091"><ele>19.9</ele><time>2022-03-04T14:46:47Z</time><name>PT3283</name></trkpt>
<trkpt lat="52.041986" lon="05.793078"><ele>19.8</ele><time>2022-03-04T14:46:49Z</time><name>PT3284</name></trkpt>
<trkpt lat="52.041990" lon="05.793065"><ele>19.8</ele><time>2022-03-04T14:46:49Z</time><name>PT3285</name></trkpt>
<trkpt lat="52.041992" lon="05.793045"><ele>19.6</ele><time>2022-03-04T14:46:50Z</time><name>PT3286</name></trkpt>
<trkpt lat="52.041994" lon="05.793020"><ele>19.6</ele><time>2022-03-04T14:46:52Z</time><name>PT3287</name></trkpt>
<trkpt lat="52.041999" lon="05.792998"><ele>19.6</ele><time>2022-03-04T14:46:52Z</time><name>PT3288</name></trkpt>
<trkpt lat="52.041999" lon="05.792988"><ele>19.6</ele><time>2022-03-04T14:46:53Z</time><name>PT3289</name></trkpt>
<trkpt lat="52.042001" lon="05.792980"><ele>19.7</ele><time>2022-03-04T14:46:55Z</time><name>PT3290</name></trkpt>
<trkpt lat="52.042005" lon="05.792975"><ele>19.7</ele><time>2022-03-04T14:46:55Z</time><name>PT3291</name></trkpt>
<trkpt lat="52.042006" lon="05.792966"><ele>19.5</ele><time>2022-03-04T14:46:56Z</time><name>PT3292</name></trkpt>
<trkpt lat="52.042004" lon="05.792948"><ele>19.6</ele><time>2022-03-04T14:46:58Z</time><name>PT3293</name></trkpt>
<trkpt lat="52.042015" lon="05.792937"><ele>19.6</ele><time>2022-03-04T14:46:58Z</time><name>PT3294</name></trkpt>
<trkpt lat="52.042018" lon="05.792923"><ele>19.5</ele><time>2022-03-04T14:46:59Z</time><name>PT3295</name></trkpt>
<trkpt lat="52.042023" lon="05.792912"><ele>19.8</ele><time>2022-03-04T14:47:01Z</time><name>PT3296</name></trkpt>
<trkpt lat="52.042025" lon="05.792901"><ele>19.9</ele><time>2022-03-04T14:47:01Z</time><name>PT3297</name></trkpt>
<trkpt lat="52.042028" lon="05.792886"><ele>19.6</ele><time>2022-03-04T14:47:02Z</time><name>PT3298</name></trkpt>
<trkpt lat="52.042038" lon="05.792872"><ele>19.8</ele><time>2022-03-04T14:47:04Z</time><name>PT3299</name></trkpt>
<trkpt lat="52.042043" lon="05.792853"><ele>19.9</ele><time>2022-03-04T14:47:04Z</time><name>PT3300</name></trkpt>
<trkpt lat="52.042047" lon="05.792833"><ele>19.9</ele><time>2022-03-04T14:47:05Z</time><name>PT3301</name></trkpt>
<trkpt lat="52.042051" lon="05.792817"><ele>20</ele><time>2022-03-04T14:47:07Z</time><name>PT3302</name></trkpt>
<trkpt lat="52.042048" lon="05.792802"><ele>20.1</ele><time>2022-03-04T14:47:07Z</time><name>PT3303</name></trkpt>
<trkpt lat="52.042045" lon="05.792788"><ele>20.2</ele><time>2022-03-04T14:47:08Z</time><name>PT3304</name></trkpt>
<trkpt lat="52.042046" lon="05.792767"><ele>20.3</ele><time>2022-03-04T14:47:10Z</time><name>PT3305</name></trkpt>
<trkpt lat="52.042047" lon="05.792744"><ele>20.2</ele><time>2022-03-04T14:47:10Z</time><name>PT3306</name></trkpt>
<trkpt lat="52.042048" lon="05.792724"><ele>20.1</ele><time>2022-03-04T14:47:11Z</time><name>PT3307</name></trkpt>
<trkpt lat="52.042047" lon="05.792707"><ele>19.9</ele><time>2022-03-04T14:47:13Z</time><name>PT3308</name></trkpt>
<trkpt lat="52.042045" lon="05.792692"><ele>19.8</ele><time>2022-03-04T14:47:13Z</time><name>PT3309</name></trkpt>
<trkpt lat="52.042041" lon="05.792685"><ele>19.5</ele><time>2022-03-04T14:47:14Z</time><name>PT3310</name></trkpt>
<trkpt lat="52.042038" lon="05.792671"><ele>19.5</ele><time>2022-03-04T14:47:16Z</time><name>PT3311</name></trkpt>
<trkpt lat="52.042035" lon="05.792654"><ele>19.4</ele><time>2022-03-04T14:47:16Z</time><name>PT3312</name></trkpt>
<trkpt lat="52.042027" lon="05.792634"><ele>19.4</ele><time>2022-03-04T14:47:17Z</time><name>PT3313</name></trkpt>
<trkpt lat="52.042027" lon="05.792609"><ele>19.5</ele><time>2022-03-04T14:47:19Z</time><name>PT3314</name></trkpt>
<trkpt lat="52.042030" lon="05.792591"><ele>19.5</ele><time>2022-03-04T14:47:19Z</time><name>PT3315</name></trkpt>
<trkpt lat="52.042029" lon="05.792575"><ele>19.4</ele><time>2022-03-04T14:47:20Z</time><name>PT3316</name></trkpt>
<trkpt lat="52.042029" lon="05.792563"><ele>19.4</ele><time>2022-03-04T14:47:22Z</time><name>PT3317</name></trkpt>
<trkpt lat="52.042029" lon="05.792553"><ele>19.5</ele><time>2022-03-04T14:47:22Z</time><name>PT3318</name></trkpt>
<trkpt lat="52.042025" lon="05.792537"><ele>19.6</ele><time>2022-03-04T14:47:23Z</time><name>PT3319</name></trkpt>
<trkpt lat="52.042026" lon="05.792515"><ele>19.4</ele><time>2022-03-04T14:47:25Z</time><name>PT3320</name></trkpt>
<trkpt lat="52.042029" lon="05.792491"><ele>19.5</ele><time>2022-03-04T14:47:25Z</time><name>PT3321</name></trkpt>
<trkpt lat="52.042036" lon="05.792476"><ele>19.6</ele><time>2022-03-04T14:47:26Z</time><name>PT3322</name></trkpt>
<trkpt lat="52.042041" lon="05.792457"><ele>19.9</ele><time>2022-03-04T14:47:28Z</time><name>PT3323</name></trkpt>
<trkpt lat="52.042042" lon="05.792444"><ele>19.9</ele><time>2022-03-04T14:47:28Z</time><name>PT3324</name></trkpt>
<trkpt lat="52.042041" lon="05.792435"><ele>19.9</ele><time>2022-03-04T14:47:29Z</time><name>PT3325</name></trkpt>
<trkpt lat="52.042039" lon="05.792420"><ele>19.9</ele><time>2022-03-04T14:47:31Z</time><name>PT3326</name></trkpt>
<trkpt lat="52.042037" lon="05.792399"><ele>19.9</ele><time>2022-03-04T14:47:31Z</time><name>PT3327</name></trkpt>
<trkpt lat="52.042040" lon="05.792376"><ele>19.8</ele><time>2022-03-04T14:47:32Z</time><name>PT3328</name></trkpt>
<trkpt lat="52.042049" lon="05.792354"><ele>19.9</ele><time>2022-03-04T14:47:34Z</time><name>PT3329</name></trkpt>
<trkpt lat="52.042056" lon="05.792337"><ele>19.9</ele><time>2022-03-04T14:47:34Z</time><name>PT3330</name></trkpt>
<trkpt lat="52.042058" lon="05.792322"><ele>19.9</ele><time>2022-03-04T14:47:35Z</time><name>PT3331</name></trkpt>
<trkpt lat="52.042055" lon="05.792312"><ele>19.9</ele><time>2022-03-04T14:47:37Z</time><name>PT3332</name></trkpt>
<trkpt lat="52.042055" lon="05.792295"><ele>19.9</ele><time>2022-03-04T14:47:37Z</time><name>PT3333</name></trkpt>
<trkpt lat="52.042055" lon="05.792274"><ele>19.9</ele><time>2022-03-04T14:47:38Z</time><name>PT3334</name></trkpt>
<trkpt lat="52.042062" lon="05.792253"><ele>19.8</ele><time>2022-03-04T14:47:40Z</time><name>PT3335</name></trkpt>
<trkpt lat="52.042066" lon="05.792237"><ele>19.7</ele><time>2022-03-04T14:47:40Z</time><name>PT3336</name></trkpt>
<trkpt lat="52.042066" lon="05.792220"><ele>19.8</ele><time>2022-03-04T14:47:41Z</time><name>PT3337</name></trkpt>
<trkpt lat="52.042064" lon="05.792204"><ele>19.9</ele><time>2022-03-04T14:47:43Z</time><name>PT3338</name></trkpt>
<trkpt lat="52.042065" lon="05.792190"><ele>19.9</ele><time>2022-03-04T14:47:43Z</time><name>PT3339</name></trkpt>
<trkpt lat="52.042061" lon="05.792164"><ele>19.9</ele><time>2022-03-04T14:47:44Z</time><name>PT3340</name></trkpt>
<trkpt lat="52.042061" lon="05.792138"><ele>19.9</ele><time>2022-03-04T14:47:46Z</time><name>PT3341</name></trkpt>
<trkpt lat="52.042068" lon="05.792115"><ele>19.9</ele><time>2022-03-04T14:47:46Z</time><name>PT3342</name></trkpt>
<trkpt lat="52.042077" lon="05.792100"><ele>20</ele><time>2022-03-04T14:47:47Z</time><name>PT3343</name></trkpt>
<trkpt lat="52.042078" lon="05.792084"><ele>20</ele><time>2022-03-04T14:47:49Z</time><name>PT3344</name></trkpt>
<trkpt lat="52.042084" lon="05.792077"><ele>19.9</ele><time>2022-03-04T14:47:49Z</time><name>PT3345</name></trkpt>
<trkpt lat="52.042087" lon="05.792065"><ele>20</ele><time>2022-03-04T14:47:50Z</time><name>PT3346</name></trkpt>
<trkpt lat="52.042089" lon="05.792046"><ele>20</ele><time>2022-03-04T14:47:52Z</time><name>PT3347</name></trkpt>
<trkpt lat="52.042093" lon="05.792025"><ele>19.9</ele><time>2022-03-04T14:47:52Z</time><name>PT3348</name></trkpt>
<trkpt lat="52.042104" lon="05.792003"><ele>19.9</ele><time>2022-03-04T14:47:53Z</time><name>PT3349</name></trkpt>
<trkpt lat="52.042107" lon="05.791986"><ele>19.9</ele><time>2022-03-04T14:47:55Z</time><name>PT3350</name></trkpt>
<trkpt lat="52.042102" lon="05.791970"><ele>19.9</ele><time>2022-03-04T14:47:55Z</time><name>PT3351</name></trkpt>
<trkpt lat="52.042102" lon="05.791955"><ele>19.9</ele><time>2022-03-04T14:47:56Z</time><name>PT3352</name></trkpt>
<trkpt lat="52.042100" lon="05.791944"><ele>19.8</ele><time>2022-03-04T14:47:58Z</time><name>PT3353</name></trkpt>
<trkpt lat="52.042101" lon="05.791933"><ele>19.9</ele><time>2022-03-04T14:47:58Z</time><name>PT3354</name></trkpt>
<trkpt lat="52.042103" lon="05.791919"><ele>19.9</ele><time>2022-03-04T14:47:59Z</time><name>PT3355</name></trkpt>
<trkpt lat="52.042104" lon="05.791903"><ele>19.9</ele><time>2022-03-04T14:48:01Z</time><name>PT3356</name></trkpt>
<trkpt lat="52.042104" lon="05.791881"><ele>19.9</ele><time>2022-03-04T14:48:01Z</time><name>PT3357</name></trkpt>
<trkpt lat="52.042106" lon="05.791862"><ele>19.9</ele><time>2022-03-04T14:48:02Z</time><name>PT3358</name></trkpt>
<trkpt lat="52.042104" lon="05.791843"><ele>20</ele><time>2022-03-04T14:48:04Z</time><name>PT3359</name></trkpt>
<trkpt lat="52.042106" lon="05.791830"><ele>19.9</ele><time>2022-03-04T14:48:04Z</time><name>PT3360</name></trkpt>
<trkpt lat="52.042106" lon="05.791817"><ele>20.1</ele><time>2022-03-04T14:48:05Z</time><name>PT3361</name></trkpt>
<trkpt lat="52.042105" lon="05.791799"><ele>20</ele><time>2022-03-04T14:48:07Z</time><name>PT3362</name></trkpt>
<trkpt lat="52.042100" lon="05.791779"><ele>20</ele><time>2022-03-04T14:48:07Z</time><name>PT3363</name></trkpt>
<trkpt lat="52.042110" lon="05.791758"><ele>19.9</ele><time>2022-03-04T14:48:08Z</time><name>PT3364</name></trkpt>
<trkpt lat="52.042119" lon="05.791743"><ele>20</ele><time>2022-03-04T14:48:09Z</time><name>PT3365</name></trkpt>
<trkpt lat="52.042139" lon="05.791731"><ele>20.1</ele><time>2022-03-04T14:48:10Z</time><name>PT3366</name></trkpt>
<trkpt lat="52.042146" lon="05.791716"><ele>20</ele><time>2022-03-04T14:48:11Z</time><name>PT3367</name></trkpt>
<trkpt lat="52.042147" lon="05.791699"><ele>20.1</ele><time>2022-03-04T14:48:13Z</time><name>PT3368</name></trkpt>
<trkpt lat="52.042141" lon="05.791686"><ele>20.1</ele><time>2022-03-04T14:48:13Z</time><name>PT3369</name></trkpt>
<trkpt lat="52.042143" lon="05.791671"><ele>19.9</ele><time>2022-03-04T14:48:14Z</time><name>PT3370</name></trkpt>
<trkpt lat="52.042143" lon="05.791655"><ele>19.9</ele><time>2022-03-04T14:48:16Z</time><name>PT3371</name></trkpt>
<trkpt lat="52.042139" lon="05.791641"><ele>19.9</ele><time>2022-03-04T14:48:16Z</time><name>PT3372</name></trkpt>
<trkpt lat="52.042134" lon="05.791629"><ele>19.9</ele><time>2022-03-04T14:48:17Z</time><name>PT3373</name></trkpt>
<trkpt lat="52.042135" lon="05.791617"><ele>19.9</ele><time>2022-03-04T14:48:19Z</time><name>PT3374</name></trkpt>
<trkpt lat="52.042139" lon="05.791600"><ele>19.9</ele><time>2022-03-04T14:48:19Z</time><name>PT3375</name></trkpt>
<trkpt lat="52.042140" lon="05.791583"><ele>20</ele><time>2022-03-04T14:48:20Z</time><name>PT3376</name></trkpt>
<trkpt lat="52.042143" lon="05.791566"><ele>19.9</ele><time>2022-03-04T14:48:22Z</time><name>PT3377</name></trkpt>
<trkpt lat="52.042150" lon="05.791560"><ele>19.8</ele><time>2022-03-04T14:48:22Z</time><name>PT3378</name></trkpt>
<trkpt lat="52.042154" lon="05.791548"><ele>19.9</ele><time>2022-03-04T14:48:23Z</time><name>PT3379</name></trkpt>
<trkpt lat="52.042151" lon="05.791528"><ele>19.9</ele><time>2022-03-04T14:48:25Z</time><name>PT3380</name></trkpt>
<trkpt lat="52.042142" lon="05.791517"><ele>19.9</ele><time>2022-03-04T14:48:25Z</time><name>PT3381</name></trkpt>
<trkpt lat="52.042136" lon="05.791500"><ele>20.1</ele><time>2022-03-04T14:48:26Z</time><name>PT3382</name></trkpt>
<trkpt lat="52.042133" lon="05.791484"><ele>20.2</ele><time>2022-03-04T14:48:28Z</time><name>PT3383</name></trkpt>
<trkpt lat="52.042127" lon="05.791458"><ele>20.3</ele><time>2022-03-04T14:48:28Z</time><name>PT3384</name></trkpt>
<trkpt lat="52.042116" lon="05.791435"><ele>20.3</ele><time>2022-03-04T14:48:29Z</time><name>PT3385</name></trkpt>
<trkpt lat="52.042108" lon="05.791419"><ele>20.4</ele><time>2022-03-04T14:48:31Z</time><name>PT3386</name></trkpt>
<trkpt lat="52.042109" lon="05.791393"><ele>20.5</ele><time>2022-03-04T14:48:31Z</time><name>PT3387</name></trkpt>
<trkpt lat="52.042109" lon="05.791372"><ele>20.6</ele><time>2022-03-04T14:48:32Z</time><name>PT3388</name></trkpt>
<trkpt lat="52.042112" lon="05.791352"><ele>20.7</ele><time>2022-03-04T14:48:34Z</time><name>PT3389</name></trkpt>
<trkpt lat="52.042117" lon="05.791332"><ele>20.6</ele><time>2022-03-04T14:48:34Z</time><name>PT3390</name></trkpt>
<trkpt lat="52.042124" lon="05.791309"><ele>20.7</ele><time>2022-03-04T14:48:35Z</time><name>PT3391</name></trkpt>
<trkpt lat="52.042120" lon="05.791286"><ele>20.7</ele><time>2022-03-04T14:48:37Z</time><name>PT3392</name></trkpt>
<trkpt lat="52.042124" lon="05.791266"><ele>20.6</ele><time>2022-03-04T14:48:37Z</time><name>PT3393</name></trkpt>
<trkpt lat="52.042131" lon="05.791245"><ele>20.5</ele><time>2022-03-04T14:48:38Z</time><name>PT3394</name></trkpt>
<trkpt lat="52.042140" lon="05.791222"><ele>20.3</ele><time>2022-03-04T14:48:40Z</time><name>PT3395</name></trkpt>
<trkpt lat="52.042147" lon="05.791199"><ele>20.2</ele><time>2022-03-04T14:48:40Z</time><name>PT3396</name></trkpt>
<trkpt lat="52.042145" lon="05.791179"><ele>20.1</ele><time>2022-03-04T14:48:41Z</time><name>PT3397</name></trkpt>
<trkpt lat="52.042144" lon="05.791164"><ele>20</ele><time>2022-03-04T14:48:43Z</time><name>PT3398</name></trkpt>
<trkpt lat="52.042143" lon="05.791149"><ele>20</ele><time>2022-03-04T14:48:43Z</time><name>PT3399</name></trkpt>
<trkpt lat="52.042142" lon="05.791129"><ele>20</ele><time>2022-03-04T14:48:44Z</time><name>PT3400</name></trkpt>
<trkpt lat="52.042139" lon="05.791104"><ele>19.9</ele><time>2022-03-04T14:48:46Z</time><name>PT3401</name></trkpt>
<trkpt lat="52.042143" lon="05.791081"><ele>19.9</ele><time>2022-03-04T14:48:46Z</time><name>PT3402</name></trkpt>
<trkpt lat="52.042142" lon="05.791056"><ele>19.9</ele><time>2022-03-04T14:48:47Z</time><name>PT3403</name></trkpt>
<trkpt lat="52.042143" lon="05.791039"><ele>19.9</ele><time>2022-03-04T14:48:49Z</time><name>PT3404</name></trkpt>
<trkpt lat="52.042143" lon="05.791024"><ele>19.9</ele><time>2022-03-04T14:48:49Z</time><name>PT3405</name></trkpt>
<trkpt lat="52.042141" lon="05.791011"><ele>20</ele><time>2022-03-04T14:48:50Z</time><name>PT3406</name></trkpt>
<trkpt lat="52.042142" lon="05.790993"><ele>20.1</ele><time>2022-03-04T14:48:52Z</time><name>PT3407</name></trkpt>
<trkpt lat="52.042144" lon="05.790970"><ele>20.1</ele><time>2022-03-04T14:48:52Z</time><name>PT3408</name></trkpt>
<trkpt lat="52.042145" lon="05.790941"><ele>19.9</ele><time>2022-03-04T14:48:53Z</time><name>PT3409</name></trkpt>
<trkpt lat="52.042151" lon="05.790920"><ele>19.9</ele><time>2022-03-04T14:48:55Z</time><name>PT3410</name></trkpt>
<trkpt lat="52.042155" lon="05.790902"><ele>19.9</ele><time>2022-03-04T14:48:55Z</time><name>PT3411</name></trkpt>
<trkpt lat="52.042158" lon="05.790877"><ele>20</ele><time>2022-03-04T14:48:56Z</time><name>PT3412</name></trkpt>
<trkpt lat="52.042155" lon="05.790861"><ele>19.9</ele><time>2022-03-04T14:48:58Z</time><name>PT3413</name></trkpt>
<trkpt lat="52.042157" lon="05.790845"><ele>20.2</ele><time>2022-03-04T14:48:58Z</time><name>PT3414</name></trkpt>
<trkpt lat="52.042161" lon="05.790829"><ele>20.3</ele><time>2022-03-04T14:48:59Z</time><name>PT3415</name></trkpt>
<trkpt lat="52.042163" lon="05.790811"><ele>20.2</ele><time>2022-03-04T14:49:01Z</time><name>PT3416</name></trkpt>
<trkpt lat="52.042164" lon="05.790792"><ele>20.2</ele><time>2022-03-04T14:49:01Z</time><name>PT3417</name></trkpt>
<trkpt lat="52.042168" lon="05.790770"><ele>20.1</ele><time>2022-03-04T14:49:02Z</time><name>PT3418</name></trkpt>
<trkpt lat="52.042173" lon="05.790754"><ele>20.1</ele><time>2022-03-04T14:49:04Z</time><name>PT3419</name></trkpt>
<trkpt lat="52.042176" lon="05.790739"><ele>20.1</ele><time>2022-03-04T14:49:04Z</time><name>PT3420</name></trkpt>
<trkpt lat="52.042176" lon="05.790726"><ele>20.2</ele><time>2022-03-04T14:49:05Z</time><name>PT3421</name></trkpt>
<trkpt lat="52.042174" lon="05.790712"><ele>20.3</ele><time>2022-03-04T14:49:07Z</time><name>PT3422</name></trkpt>
<trkpt lat="52.042174" lon="05.790694"><ele>20.3</ele><time>2022-03-04T14:49:07Z</time><name>PT3423</name></trkpt>
<trkpt lat="52.042175" lon="05.790672"><ele>20.3</ele><time>2022-03-04T14:49:08Z</time><name>PT3424</name></trkpt>
<trkpt lat="52.042176" lon="05.790647"><ele>20.5</ele><time>2022-03-04T14:49:09Z</time><name>PT3425</name></trkpt>
<trkpt lat="52.042180" lon="05.790630"><ele>20.5</ele><time>2022-03-04T14:49:10Z</time><name>PT3426</name></trkpt>
<trkpt lat="52.042183" lon="05.790614"><ele>20.6</ele><time>2022-03-04T14:49:11Z</time><name>PT3427</name></trkpt>
<trkpt lat="52.042183" lon="05.790600"><ele>20.5</ele><time>2022-03-04T14:49:13Z</time><name>PT3428</name></trkpt>
<trkpt lat="52.042188" lon="05.790588"><ele>20.6</ele><time>2022-03-04T14:49:13Z</time><name>PT3429</name></trkpt>
<trkpt lat="52.042191" lon="05.790572"><ele>20.3</ele><time>2022-03-04T14:49:14Z</time><name>PT3430</name></trkpt>
<trkpt lat="52.042195" lon="05.790551"><ele>20.4</ele><time>2022-03-04T14:49:15Z</time><name>PT3431</name></trkpt>
<trkpt lat="52.042198" lon="05.790528"><ele>20.3</ele><time>2022-03-04T14:49:16Z</time><name>PT3432</name></trkpt>
<trkpt lat="52.042206" lon="05.790512"><ele>20.6</ele><time>2022-03-04T14:49:17Z</time><name>PT3433</name></trkpt>
<trkpt lat="52.042215" lon="05.790495"><ele>20.6</ele><time>2022-03-04T14:49:19Z</time><name>PT3434</name></trkpt>
<trkpt lat="52.042213" lon="05.790474"><ele>20.8</ele><time>2022-03-04T14:49:19Z</time><name>PT3435</name></trkpt>
<trkpt lat="52.042210" lon="05.790460"><ele>20.9</ele><time>2022-03-04T14:49:20Z</time><name>PT3436</name></trkpt>
<trkpt lat="52.042206" lon="05.790444"><ele>20.8</ele><time>2022-03-04T14:49:22Z</time><name>PT3437</name></trkpt>
<trkpt lat="52.042207" lon="05.790430"><ele>21.1</ele><time>2022-03-04T14:49:22Z</time><name>PT3438</name></trkpt>
<trkpt lat="52.042202" lon="05.790413"><ele>21</ele><time>2022-03-04T14:49:23Z</time><name>PT3439</name></trkpt>
<trkpt lat="52.042204" lon="05.790389"><ele>21.2</ele><time>2022-03-04T14:49:25Z</time><name>PT3440</name></trkpt>
<trkpt lat="52.042208" lon="05.790365"><ele>21.1</ele><time>2022-03-04T14:49:25Z</time><name>PT3441</name></trkpt>
<trkpt lat="52.042210" lon="05.790342"><ele>21.2</ele><time>2022-03-04T14:49:26Z</time><name>PT3442</name></trkpt>
<trkpt lat="52.042219" lon="05.790323"><ele>21.1</ele><time>2022-03-04T14:49:28Z</time><name>PT3443</name></trkpt>
<trkpt lat="52.042224" lon="05.790311"><ele>21.2</ele><time>2022-03-04T14:49:28Z</time><name>PT3444</name></trkpt>
<trkpt lat="52.042228" lon="05.790302"><ele>21.2</ele><time>2022-03-04T14:49:29Z</time><name>PT3445</name></trkpt>
<trkpt lat="52.042231" lon="05.790288"><ele>21.3</ele><time>2022-03-04T14:49:31Z</time><name>PT3446</name></trkpt>
<trkpt lat="52.042232" lon="05.790274"><ele>21.2</ele><time>2022-03-04T14:49:31Z</time><name>PT3447</name></trkpt>
<trkpt lat="52.042229" lon="05.790266"><ele>21.1</ele><time>2022-03-04T14:49:32Z</time><name>PT3448</name></trkpt>
<trkpt lat="52.042221" lon="05.790238"><ele>21</ele><time>2022-03-04T14:49:34Z</time><name>PT3449</name></trkpt>
<trkpt lat="52.042227" lon="05.790217"><ele>20.8</ele><time>2022-03-04T14:49:34Z</time><name>PT3450</name></trkpt>
<trkpt lat="52.042235" lon="05.790193"><ele>20.8</ele><time>2022-03-04T14:49:35Z</time><name>PT3451</name></trkpt>
<trkpt lat="52.042236" lon="05.790172"><ele>20.9</ele><time>2022-03-04T14:49:37Z</time><name>PT3452</name></trkpt>
<trkpt lat="52.042238" lon="05.790156"><ele>20.9</ele><time>2022-03-04T14:49:37Z</time><name>PT3453</name></trkpt>
<trkpt lat="52.042238" lon="05.790136"><ele>21.1</ele><time>2022-03-04T14:49:38Z</time><name>PT3454</name></trkpt>
<trkpt lat="52.042252" lon="05.790122"><ele>21</ele><time>2022-03-04T14:49:40Z</time><name>PT3455</name></trkpt>
<trkpt lat="52.042256" lon="05.790103"><ele>21.1</ele><time>2022-03-04T14:49:40Z</time><name>PT3456</name></trkpt>
<trkpt lat="52.042263" lon="05.790084"><ele>21</ele><time>2022-03-04T14:49:41Z</time><name>PT3457</name></trkpt>
<trkpt lat="52.042267" lon="05.790057"><ele>21.1</ele><time>2022-03-04T14:49:43Z</time><name>PT3458</name></trkpt>
<trkpt lat="52.042266" lon="05.790034"><ele>21.2</ele><time>2022-03-04T14:49:43Z</time><name>PT3459</name></trkpt>
<trkpt lat="52.042268" lon="05.790019"><ele>21.1</ele><time>2022-03-04T14:49:44Z</time><name>PT3460</name></trkpt>
<trkpt lat="52.042270" lon="05.790009"><ele>21.3</ele><time>2022-03-04T14:49:46Z</time><name>PT3461</name></trkpt>
<trkpt lat="52.042276" lon="05.789994"><ele>21.3</ele><time>2022-03-04T14:49:46Z</time><name>PT3462</name></trkpt>
<trkpt lat="52.042275" lon="05.789969"><ele>21.3</ele><time>2022-03-04T14:49:47Z</time><name>PT3463</name></trkpt>
<trkpt lat="52.042278" lon="05.789945"><ele>21.3</ele><time>2022-03-04T14:49:49Z</time><name>PT3464</name></trkpt>
<trkpt lat="52.042281" lon="05.789919"><ele>21.3</ele><time>2022-03-04T14:49:49Z</time><name>PT3465</name></trkpt>
<trkpt lat="52.042290" lon="05.789895"><ele>21.4</ele><time>2022-03-04T14:49:50Z</time><name>PT3466</name></trkpt>
<trkpt lat="52.042298" lon="05.789875"><ele>21.3</ele><time>2022-03-04T14:49:52Z</time><name>PT3467</name></trkpt>
<trkpt lat="52.042298" lon="05.789857"><ele>21.2</ele><time>2022-03-04T14:49:52Z</time><name>PT3468</name></trkpt>
<trkpt lat="52.042300" lon="05.789843"><ele>21.2</ele><time>2022-03-04T14:49:53Z</time><name>PT3469</name></trkpt>
<trkpt lat="52.042302" lon="05.789831"><ele>21.1</ele><time>2022-03-04T14:49:55Z</time><name>PT3470</name></trkpt>
<trkpt lat="52.042300" lon="05.789815"><ele>21.1</ele><time>2022-03-04T14:49:55Z</time><name>PT3471</name></trkpt>
<trkpt lat="52.042306" lon="05.789794"><ele>21.1</ele><time>2022-03-04T14:49:56Z</time><name>PT3472</name></trkpt>
<trkpt lat="52.042313" lon="05.789771"><ele>21.2</ele><time>2022-03-04T14:49:58Z</time><name>PT3473</name></trkpt>
<trkpt lat="52.042324" lon="05.789746"><ele>21.1</ele><time>2022-03-04T14:49:58Z</time><name>PT3474</name></trkpt>
<trkpt lat="52.042328" lon="05.789728"><ele>21.2</ele><time>2022-03-04T14:49:59Z</time><name>PT3475</name></trkpt>
<trkpt lat="52.042328" lon="05.789710"><ele>21.1</ele><time>2022-03-04T14:50:01Z</time><name>PT3476</name></trkpt>
<trkpt lat="52.042332" lon="05.789696"><ele>20.9</ele><time>2022-03-04T14:50:01Z</time><name>PT3477</name></trkpt>
<trkpt lat="52.042332" lon="05.789678"><ele>21</ele><time>2022-03-04T14:50:02Z</time><name>PT3478</name></trkpt>
<trkpt lat="52.042333" lon="05.789661"><ele>20.9</ele><time>2022-03-04T14:50:04Z</time><name>PT3479</name></trkpt>
<trkpt lat="52.042335" lon="05.789644"><ele>20.9</ele><time>2022-03-04T14:50:04Z</time><name>PT3480</name></trkpt>
<trkpt lat="52.042341" lon="05.789623"><ele>21.1</ele><time>2022-03-04T14:50:05Z</time><name>PT3481</name></trkpt>
<trkpt lat="52.042343" lon="05.789605"><ele>21.3</ele><time>2022-03-04T14:50:07Z</time><name>PT3482</name></trkpt>
<trkpt lat="52.042349" lon="05.789585"><ele>21.3</ele><time>2022-03-04T14:50:07Z</time><name>PT3483</name></trkpt>
<trkpt lat="52.042350" lon="05.789570"><ele>21.3</ele><time>2022-03-04T14:50:08Z</time><name>PT3484</name></trkpt>
<trkpt lat="52.042347" lon="05.789558"><ele>21.3</ele><time>2022-03-04T14:50:10Z</time><name>PT3485</name></trkpt>
<trkpt lat="52.042344" lon="05.789542"><ele>21.3</ele><time>2022-03-04T14:50:10Z</time><name>PT3486</name></trkpt>
<trkpt lat="52.042346" lon="05.789521"><ele>21.3</ele><time>2022-03-04T14:50:11Z</time><name>PT3487</name></trkpt>
<trkpt lat="52.042352" lon="05.789499"><ele>21.4</ele><time>2022-03-04T14:50:13Z</time><name>PT3488</name></trkpt>
<trkpt lat="52.042358" lon="05.789481"><ele>21.3</ele><time>2022-03-04T14:50:13Z</time><name>PT3489</name></trkpt>
<trkpt lat="52.042365" lon="05.789464"><ele>21.3</ele><time>2022-03-04T14:50:14Z</time><name>PT3490</name></trkpt>
<trkpt lat="52.042368" lon="05.789453"><ele>21.3</ele><time>2022-03-04T14:50:16Z</time><name>PT3491</name></trkpt>
<trkpt lat="52.042364" lon="05.789436"><ele>21.3</ele><time>2022-03-04T14:50:16Z</time><name>PT3492</name></trkpt>
<trkpt lat="52.042365" lon="05.789419"><ele>21.4</ele><time>2022-03-04T14:50:17Z</time><name>PT3493</name></trkpt>
<trkpt lat="52.042369" lon="05.789397"><ele>21.5</ele><time>2022-03-04T14:50:19Z</time><name>PT3494</name></trkpt>
<trkpt lat="52.042382" lon="05.789374"><ele>21.7</ele><time>2022-03-04T14:50:19Z</time><name>PT3495</name></trkpt>
<trkpt lat="52.042389" lon="05.789360"><ele>21.6</ele><time>2022-03-04T14:50:20Z</time><name>PT3496</name></trkpt>
<trkpt lat="52.042388" lon="05.789346"><ele>21.4</ele><time>2022-03-04T14:50:22Z</time><name>PT3497</name></trkpt>
<trkpt lat="52.042388" lon="05.789330"><ele>21.3</ele><time>2022-03-04T14:50:22Z</time><name>PT3498</name></trkpt>
<trkpt lat="52.042386" lon="05.789311"><ele>21.4</ele><time>2022-03-04T14:50:23Z</time><name>PT3499</name></trkpt>
<trkpt lat="52.042385" lon="05.789290"><ele>21.3</ele><time>2022-03-04T14:50:25Z</time><name>PT3500</name></trkpt>
<trkpt lat="52.042388" lon="05.789274"><ele>21.3</ele><time>2022-03-04T14:50:25Z</time><name>PT3501</name></trkpt>
<trkpt lat="52.042388" lon="05.789253"><ele>21.4</ele><time>2022-03-04T14:50:26Z</time><name>PT3502</name></trkpt>
<trkpt lat="52.042392" lon="05.789231"><ele>21.5</ele><time>2022-03-04T14:50:27Z</time><name>PT3503</name></trkpt>
<trkpt lat="52.042396" lon="05.789224"><ele>21.4</ele><time>2022-03-04T14:50:28Z</time><name>PT3504</name></trkpt>
<trkpt lat="52.042398" lon="05.789212"><ele>21.5</ele><time>2022-03-04T14:50:29Z</time><name>PT3505</name></trkpt>
<trkpt lat="52.042400" lon="05.789196"><ele>21.5</ele><time>2022-03-04T14:50:31Z</time><name>PT3506</name></trkpt>
<trkpt lat="52.042404" lon="05.789178"><ele>21.6</ele><time>2022-03-04T14:50:31Z</time><name>PT3507</name></trkpt>
<trkpt lat="52.042404" lon="05.789160"><ele>21.7</ele><time>2022-03-04T14:50:32Z</time><name>PT3508</name></trkpt>
<trkpt lat="52.042409" lon="05.789137"><ele>21.6</ele><time>2022-03-04T14:50:34Z</time><name>PT3509</name></trkpt>
<trkpt lat="52.042414" lon="05.789113"><ele>21.7</ele><time>2022-03-04T14:50:34Z</time><name>PT3510</name></trkpt>
<trkpt lat="52.042417" lon="05.789098"><ele>21.6</ele><time>2022-03-04T14:50:35Z</time><name>PT3511</name></trkpt>
<trkpt lat="52.042422" lon="05.789083"><ele>21.4</ele><time>2022-03-04T14:50:37Z</time><name>PT3512</name></trkpt>
<trkpt lat="52.042425" lon="05.789065"><ele>21.5</ele><time>2022-03-04T14:50:37Z</time><name>PT3513</name></trkpt>
<trkpt lat="52.042428" lon="05.789049"><ele>21.3</ele><time>2022-03-04T14:50:38Z</time><name>PT3514</name></trkpt>
<trkpt lat="52.042419" lon="05.789036"><ele>21.3</ele><time>2022-03-04T14:50:40Z</time><name>PT3515</name></trkpt>
<trkpt lat="52.042427" lon="05.789020"><ele>21.4</ele><time>2022-03-04T14:50:40Z</time><name>PT3516</name></trkpt>
<trkpt lat="52.042438" lon="05.788999"><ele>21.5</ele><time>2022-03-04T14:50:41Z</time><name>PT3517</name></trkpt>
<trkpt lat="52.042441" lon="05.788976"><ele>21.5</ele><time>2022-03-04T14:50:43Z</time><name>PT3518</name></trkpt>
<trkpt lat="52.042452" lon="05.788961"><ele>21.5</ele><time>2022-03-04T14:50:43Z</time><name>PT3519</name></trkpt>
<trkpt lat="52.042459" lon="05.788949"><ele>21.4</ele><time>2022-03-04T14:50:44Z</time><name>PT3520</name></trkpt>
<trkpt lat="52.042450" lon="05.788927"><ele>21.4</ele><time>2022-03-04T14:50:46Z</time><name>PT3521</name></trkpt>
<trkpt lat="52.042448" lon="05.788902"><ele>21.6</ele><time>2022-03-04T14:50:46Z</time><name>PT3522</name></trkpt>
<trkpt lat="52.042447" lon="05.788878"><ele>21.6</ele><time>2022-03-04T14:50:47Z</time><name>PT3523</name></trkpt>
<trkpt lat="52.042442" lon="05.788855"><ele>21.8</ele><time>2022-03-04T14:50:49Z</time><name>PT3524</name></trkpt>
<trkpt lat="52.042440" lon="05.788835"><ele>21.8</ele><time>2022-03-04T14:50:49Z</time><name>PT3525</name></trkpt>
<trkpt lat="52.042441" lon="05.788813"><ele>21.8</ele><time>2022-03-04T14:50:50Z</time><name>PT3526</name></trkpt>
<trkpt lat="52.042449" lon="05.788790"><ele>21.8</ele><time>2022-03-04T14:50:52Z</time><name>PT3527</name></trkpt>
<trkpt lat="52.042451" lon="05.788768"><ele>21.8</ele><time>2022-03-04T14:50:52Z</time><name>PT3528</name></trkpt>
<trkpt lat="52.042449" lon="05.788758"><ele>21.7</ele><time>2022-03-04T14:50:53Z</time><name>PT3529</name></trkpt>
<trkpt lat="52.042448" lon="05.788744"><ele>21.6</ele><time>2022-03-04T14:50:55Z</time><name>PT3530</name></trkpt>
<trkpt lat="52.042451" lon="05.788726"><ele>21.5</ele><time>2022-03-04T14:50:55Z</time><name>PT3531</name></trkpt>
<trkpt lat="52.042455" lon="05.788709"><ele>21.6</ele><time>2022-03-04T14:50:56Z</time><name>PT3532</name></trkpt>
<trkpt lat="52.042460" lon="05.788689"><ele>21.5</ele><time>2022-03-04T14:50:58Z</time><name>PT3533</name></trkpt>
<trkpt lat="52.042462" lon="05.788665"><ele>21.5</ele><time>2022-03-04T14:50:58Z</time><name>PT3534</name></trkpt>
<trkpt lat="52.042470" lon="05.788642"><ele>21.5</ele><time>2022-03-04T14:50:59Z</time><name>PT3535</name></trkpt>
<trkpt lat="52.042480" lon="05.788622"><ele>21.6</ele><time>2022-03-04T14:51:01Z</time><name>PT3536</name></trkpt>
<trkpt lat="52.042481" lon="05.788609"><ele>21.6</ele><time>2022-03-04T14:51:01Z</time><name>PT3537</name></trkpt>
<trkpt lat="52.042479" lon="05.788594"><ele>21.4</ele><time>2022-03-04T14:51:02Z</time><name>PT3538</name></trkpt>
<trkpt lat="52.042475" lon="05.788581"><ele>21.7</ele><time>2022-03-04T14:51:04Z</time><name>PT3539</name></trkpt>
<trkpt lat="52.042480" lon="05.788565"><ele>21.7</ele><time>2022-03-04T14:51:04Z</time><name>PT3540</name></trkpt>
<trkpt lat="52.042483" lon="05.788548"><ele>21.5</ele><time>2022-03-04T14:51:05Z</time><name>PT3541</name></trkpt>
<trkpt lat="52.042487" lon="05.788534"><ele>21.6</ele><time>2022-03-04T14:51:07Z</time><name>PT3542</name></trkpt>
<trkpt lat="52.042487" lon="05.788518"><ele>21.7</ele><time>2022-03-04T14:51:07Z</time><name>PT3543</name></trkpt>
<trkpt lat="52.042486" lon="05.788506"><ele>21.5</ele><time>2022-03-04T14:51:08Z</time><name>PT3544</name></trkpt>
<trkpt lat="52.042485" lon="05.788491"><ele>21.5</ele><time>2022-03-04T14:51:10Z</time><name>PT3545</name></trkpt>
<trkpt lat="52.042486" lon="05.788476"><ele>21.6</ele><time>2022-03-04T14:51:10Z</time><name>PT3546</name></trkpt>
<trkpt lat="52.042493" lon="05.788457"><ele>21.4</ele><time>2022-03-04T14:51:11Z</time><name>PT3547</name></trkpt>
<trkpt lat="52.042494" lon="05.788435"><ele>21.4</ele><time>2022-03-04T14:51:13Z</time><name>PT3548</name></trkpt>
<trkpt lat="52.042498" lon="05.788417"><ele>21.4</ele><time>2022-03-04T14:51:13Z</time><name>PT3549</name></trkpt>
<trkpt lat="52.042502" lon="05.788400"><ele>21.5</ele><time>2022-03-04T14:51:14Z</time><name>PT3550</name></trkpt>
<trkpt lat="52.042503" lon="05.788384"><ele>21.6</ele><time>2022-03-04T14:51:16Z</time><name>PT3551</name></trkpt>
<trkpt lat="52.042501" lon="05.788368"><ele>21.7</ele><time>2022-03-04T14:51:16Z</time><name>PT3552</name></trkpt>
<trkpt lat="52.042505" lon="05.788360"><ele>21.8</ele><time>2022-03-04T14:51:17Z</time><name>PT3553</name></trkpt>
<trkpt lat="52.042506" lon="05.788341"><ele>22</ele><time>2022-03-04T14:51:19Z</time><name>PT3554</name></trkpt>
<trkpt lat="52.042521" lon="05.788313"><ele>22.1</ele><time>2022-03-04T14:51:19Z</time><name>PT3555</name></trkpt>
<trkpt lat="52.042524" lon="05.788293"><ele>22.1</ele><time>2022-03-04T14:51:20Z</time><name>PT3556</name></trkpt>
<trkpt lat="52.042524" lon="05.788273"><ele>22</ele><time>2022-03-04T14:51:22Z</time><name>PT3557</name></trkpt>
<trkpt lat="52.042528" lon="05.788252"><ele>21.9</ele><time>2022-03-04T14:51:22Z</time><name>PT3558</name></trkpt>
<trkpt lat="52.042533" lon="05.788235"><ele>21.8</ele><time>2022-03-04T14:51:23Z</time><name>PT3559</name></trkpt>
<trkpt lat="52.042529" lon="05.788217"><ele>21.7</ele><time>2022-03-04T14:51:25Z</time><name>PT3560</name></trkpt>
<trkpt lat="52.042529" lon="05.788202"><ele>21.9</ele><time>2022-03-04T14:51:25Z</time><name>PT3561</name></trkpt>
<trkpt lat="52.042528" lon="05.788185"><ele>21.9</ele><time>2022-03-04T14:51:26Z</time><name>PT3562</name></trkpt>
<trkpt lat="52.042529" lon="05.788166"><ele>22</ele><time>2022-03-04T14:51:28Z</time><name>PT3563</name></trkpt>
<trkpt lat="52.042533" lon="05.788143"><ele>22.1</ele><time>2022-03-04T14:51:28Z</time><name>PT3564</name></trkpt>
<trkpt lat="52.042541" lon="05.788123"><ele>22</ele><time>2022-03-04T14:51:29Z</time><name>PT3565</name></trkpt>
<trkpt lat="52.042548" lon="05.788103"><ele>21.8</ele><time>2022-03-04T14:51:31Z</time><name>PT3566</name></trkpt>
<trkpt lat="52.042554" lon="05.788087"><ele>21.8</ele><time>2022-03-04T14:51:31Z</time><name>PT3567</name></trkpt>
<trkpt lat="52.042553" lon="05.788071"><ele>21.8</ele><time>2022-03-04T14:51:32Z</time><name>PT3568</name></trkpt>
<trkpt lat="52.042552" lon="05.788054"><ele>21.8</ele><time>2022-03-04T14:51:34Z</time><name>PT3569</name></trkpt>
<trkpt lat="52.042554" lon="05.788037"><ele>21.8</ele><time>2022-03-04T14:51:34Z</time><name>PT3570</name></trkpt>
<trkpt lat="52.042557" lon="05.788024"><ele>21.8</ele><time>2022-03-04T14:51:35Z</time><name>PT3571</name></trkpt>
<trkpt lat="52.042557" lon="05.788004"><ele>21.9</ele><time>2022-03-04T14:51:37Z</time><name>PT3572</name></trkpt>
<trkpt lat="52.042559" lon="05.787978"><ele>21.9</ele><time>2022-03-04T14:51:37Z</time><name>PT3573</name></trkpt>
<trkpt lat="52.042558" lon="05.787953"><ele>22</ele><time>2022-03-04T14:51:38Z</time><name>PT3574</name></trkpt>
<trkpt lat="52.042558" lon="05.787933"><ele>22.1</ele><time>2022-03-04T14:51:40Z</time><name>PT3575</name></trkpt>
<trkpt lat="52.042571" lon="05.787917"><ele>22.1</ele><time>2022-03-04T14:51:40Z</time><name>PT3576</name></trkpt>
<trkpt lat="52.042582" lon="05.787906"><ele>21.9</ele><time>2022-03-04T14:51:41Z</time><name>PT3577</name></trkpt>
<trkpt lat="52.042587" lon="05.787894"><ele>22.1</ele><time>2022-03-04T14:51:43Z</time><name>PT3578</name></trkpt>
<trkpt lat="52.042591" lon="05.787883"><ele>22.2</ele><time>2022-03-04T14:51:43Z</time><name>PT3579</name></trkpt>
<trkpt lat="52.042594" lon="05.787868"><ele>22.2</ele><time>2022-03-04T14:51:44Z</time><name>PT3580</name></trkpt>
<trkpt lat="52.042599" lon="05.787852"><ele>22.2</ele><time>2022-03-04T14:51:46Z</time><name>PT3581</name></trkpt>
<trkpt lat="52.042599" lon="05.787829"><ele>22.2</ele><time>2022-03-04T14:51:46Z</time><name>PT3582</name></trkpt>
<trkpt lat="52.042601" lon="05.787804"><ele>22.2</ele><time>2022-03-04T14:51:47Z</time><name>PT3583</name></trkpt>
<trkpt lat="52.042604" lon="05.787786"><ele>22.2</ele><time>2022-03-04T14:51:49Z</time><name>PT3584</name></trkpt>
<trkpt lat="52.042608" lon="05.787765"><ele>22.2</ele><time>2022-03-04T14:51:49Z</time><name>PT3585</name></trkpt>
<trkpt lat="52.042612" lon="05.787753"><ele>22.2</ele><time>2022-03-04T14:51:50Z</time><name>PT3586</name></trkpt>
<trkpt lat="52.042617" lon="05.787740"><ele>22.1</ele><time>2022-03-04T14:51:52Z</time><name>PT3587</name></trkpt>
<trkpt lat="52.042622" lon="05.787725"><ele>22.1</ele><time>2022-03-04T14:51:52Z</time><name>PT3588</name></trkpt>
<trkpt lat="52.042623" lon="05.787708"><ele>22.2</ele><time>2022-03-04T14:51:53Z</time><name>PT3589</name></trkpt>
<trkpt lat="52.042624" lon="05.787693"><ele>22.2</ele><time>2022-03-04T14:51:55Z</time><name>PT3590</name></trkpt>
<trkpt lat="52.042628" lon="05.787675"><ele>22.1</ele><time>2022-03-04T14:51:55Z</time><name>PT3591</name></trkpt>
<trkpt lat="52.042634" lon="05.787656"><ele>22.1</ele><time>2022-03-04T14:51:56Z</time><name>PT3592</name></trkpt>
<trkpt lat="52.042640" lon="05.787633"><ele>22.2</ele><time>2022-03-04T14:51:58Z</time><name>PT3593</name></trkpt>
<trkpt lat="52.042644" lon="05.787617"><ele>22.2</ele><time>2022-03-04T14:51:58Z</time><name>PT3594</name></trkpt>
<trkpt lat="52.042645" lon="05.787597"><ele>22.2</ele><time>2022-03-04T14:51:59Z</time><name>PT3595</name></trkpt>
<trkpt lat="52.042646" lon="05.787583"><ele>22.3</ele><time>2022-03-04T14:52:01Z</time><name>PT3596</name></trkpt>
<trkpt lat="52.042647" lon="05.787569"><ele>22.3</ele><time>2022-03-04T14:52:01Z</time><name>PT3597</name></trkpt>
<trkpt lat="52.042648" lon="05.787546"><ele>22.3</ele><time>2022-03-04T14:52:02Z</time><name>PT3598</name></trkpt>
<trkpt lat="52.042648" lon="05.787527"><ele>22.2</ele><time>2022-03-04T14:52:04Z</time><name>PT3599</name></trkpt>
<trkpt lat="52.042648" lon="05.787499"><ele>22.1</ele><time>2022-03-04T14:52:04Z</time><name>PT3600</name></trkpt>
<trkpt lat="52.042650" lon="05.787480"><ele>22.2</ele><time>2022-03-04T14:52:05Z</time><name>PT3601</name></trkpt>
<trkpt lat="52.042656" lon="05.787459"><ele>22.3</ele><time>2022-03-04T14:52:07Z</time><name>PT3602</name></trkpt>
<trkpt lat="52.042655" lon="05.787442"><ele>22.3</ele><time>2022-03-04T14:52:07Z</time><name>PT3603</name></trkpt>
<trkpt lat="52.042656" lon="05.787414"><ele>22.2</ele><time>2022-03-04T14:52:08Z</time><name>PT3604</name></trkpt>
<trkpt lat="52.042660" lon="05.787390"><ele>22.5</ele><time>2022-03-04T14:52:10Z</time><name>PT3605</name></trkpt>
<trkpt lat="52.042684" lon="05.787383"><ele>22.5</ele><time>2022-03-04T14:52:10Z</time><name>PT3606</name></trkpt>
<trkpt lat="52.042693" lon="05.787368"><ele>22.5</ele><time>2022-03-04T14:52:11Z</time><name>PT3607</name></trkpt>
<trkpt lat="52.042691" lon="05.787353"><ele>22.4</ele><time>2022-03-04T14:52:13Z</time><name>PT3608</name></trkpt>
<trkpt lat="52.042692" lon="05.787334"><ele>22.5</ele><time>2022-03-04T14:52:13Z</time><name>PT3609</name></trkpt>
<trkpt lat="52.042692" lon="05.787323"><ele>22.3</ele><time>2022-03-04T14:52:14Z</time><name>PT3610</name></trkpt>
<trkpt lat="52.042692" lon="05.787308"><ele>22.4</ele><time>2022-03-04T14:52:16Z</time><name>PT3611</name></trkpt>
<trkpt lat="52.042698" lon="05.787287"><ele>22.5</ele><time>2022-03-04T14:52:16Z</time><name>PT3612</name></trkpt>
<trkpt lat="52.042703" lon="05.787264"><ele>22.7</ele><time>2022-03-04T14:52:17Z</time><name>PT3613</name></trkpt>
<trkpt lat="52.042707" lon="05.787240"><ele>22.7</ele><time>2022-03-04T14:52:19Z</time><name>PT3614</name></trkpt>
<trkpt lat="52.042711" lon="05.787221"><ele>22.8</ele><time>2022-03-04T14:52:19Z</time><name>PT3615</name></trkpt>
<trkpt lat="52.042711" lon="05.787204"><ele>22.7</ele><time>2022-03-04T14:52:20Z</time><name>PT3616</name></trkpt>
<trkpt lat="52.042713" lon="05.787191"><ele>22.7</ele><time>2022-03-04T14:52:22Z</time><name>PT3617</name></trkpt>
<trkpt lat="52.042713" lon="05.787180"><ele>22.7</ele><time>2022-03-04T14:52:22Z</time><name>PT3618</name></trkpt>
<trkpt lat="52.042718" lon="05.787161"><ele>22.8</ele><time>2022-03-04T14:52:23Z</time><name>PT3619</name></trkpt>
<trkpt lat="52.042723" lon="05.787138"><ele>22.9</ele><time>2022-03-04T14:52:25Z</time><name>PT3620</name></trkpt>
<trkpt lat="52.042731" lon="05.787120"><ele>23</ele><time>2022-03-04T14:52:25Z</time><name>PT3621</name></trkpt>
<trkpt lat="52.042740" lon="05.787111"><ele>23.1</ele><time>2022-03-04T14:52:26Z</time><name>PT3622</name></trkpt>
<trkpt lat="52.042745" lon="05.787099"><ele>23.1</ele><time>2022-03-04T14:52:28Z</time><name>PT3623</name></trkpt>
<trkpt lat="52.042743" lon="05.787078"><ele>23</ele><time>2022-03-04T14:52:28Z</time><name>PT3624</name></trkpt>
<trkpt lat="52.042747" lon="05.787060"><ele>23</ele><time>2022-03-04T14:52:29Z</time><name>PT3625</name></trkpt>
<trkpt lat="52.042749" lon="05.787047"><ele>23</ele><time>2022-03-04T14:52:31Z</time><name>PT3626</name></trkpt>
<trkpt lat="52.042748" lon="05.787037"><ele>23</ele><time>2022-03-04T14:52:31Z</time><name>PT3627</name></trkpt>
<trkpt lat="52.042748" lon="05.787024"><ele>23</ele><time>2022-03-04T14:52:32Z</time><name>PT3628</name></trkpt>
<trkpt lat="52.042748" lon="05.786998"><ele>23.1</ele><time>2022-03-04T14:52:34Z</time><name>PT3629</name></trkpt>
<trkpt lat="52.042752" lon="05.786976"><ele>22.8</ele><time>2022-03-04T14:52:34Z</time><name>PT3630</name></trkpt>
<trkpt lat="52.042759" lon="05.786950"><ele>22.8</ele><time>2022-03-04T14:52:35Z</time><name>PT3631</name></trkpt>
<trkpt lat="52.042771" lon="05.786931"><ele>23</ele><time>2022-03-04T14:52:37Z</time><name>PT3632</name></trkpt>
<trkpt lat="52.042787" lon="05.786925"><ele>23.1</ele><time>2022-03-04T14:52:37Z</time><name>PT3633</name></trkpt>
<trkpt lat="52.042793" lon="05.786913"><ele>23</ele><time>2022-03-04T14:52:38Z</time><name>PT3634</name></trkpt>
<trkpt lat="52.042797" lon="05.786898"><ele>23.4</ele><time>2022-03-04T14:52:40Z</time><name>PT3635</name></trkpt>
<trkpt lat="52.042799" lon="05.786886"><ele>23.4</ele><time>2022-03-04T14:52:40Z</time><name>PT3636</name></trkpt>
<trkpt lat="52.042802" lon="05.786872"><ele>23.3</ele><time>2022-03-04T14:52:41Z</time><name>PT3637</name></trkpt>
<trkpt lat="52.042800" lon="05.786857"><ele>23.3</ele><time>2022-03-04T14:52:42Z</time><name>PT3638</name></trkpt>
<trkpt lat="52.042800" lon="05.786837"><ele>23.3</ele><time>2022-03-04T14:52:43Z</time><name>PT3639</name></trkpt>
<trkpt lat="52.042801" lon="05.786816"><ele>23</ele><time>2022-03-04T14:52:44Z</time><name>PT3640</name></trkpt>
<trkpt lat="52.042804" lon="05.786796"><ele>22.9</ele><time>2022-03-04T14:52:46Z</time><name>PT3641</name></trkpt>
<trkpt lat="52.042808" lon="05.786780"><ele>22.9</ele><time>2022-03-04T14:52:46Z</time><name>PT3642</name></trkpt>
<trkpt lat="52.042810" lon="05.786764"><ele>22.9</ele><time>2022-03-04T14:52:47Z</time><name>PT3643</name></trkpt>
<trkpt lat="52.042812" lon="05.786745"><ele>23.1</ele><time>2022-03-04T14:52:48Z</time><name>PT3644</name></trkpt>
<trkpt lat="52.042815" lon="05.786733"><ele>23.2</ele><time>2022-03-04T14:52:49Z</time><name>PT3645</name></trkpt>
<trkpt lat="52.042812" lon="05.786719"><ele>23.2</ele><time>2022-03-04T14:52:50Z</time><name>PT3646</name></trkpt>
<trkpt lat="52.042811" lon="05.786701"><ele>23.2</ele><time>2022-03-04T14:52:51Z</time><name>PT3647</name></trkpt>
<trkpt lat="52.042808" lon="05.786682"><ele>23.1</ele><time>2022-03-04T14:52:52Z</time><name>PT3648</name></trkpt>
<trkpt lat="52.042808" lon="05.786660"><ele>22.8</ele><time>2022-03-04T14:52:53Z</time><name>PT3649</name></trkpt>
<trkpt lat="52.042811" lon="05.786640"><ele>22.8</ele><time>2022-03-04T14:52:55Z</time><name>PT3650</name></trkpt>
<trkpt lat="52.042812" lon="05.786626"><ele>22.8</ele><time>2022-03-04T14:52:55Z</time><name>PT3651</name></trkpt>
<trkpt lat="52.042812" lon="05.786610"><ele>22.7</ele><time>2022-03-04T14:52:56Z</time><name>PT3652</name></trkpt>
<trkpt lat="52.042816" lon="05.786594"><ele>22.5</ele><time>2022-03-04T14:52:58Z</time><name>PT3653</name></trkpt>
<trkpt lat="52.042812" lon="05.786578"><ele>22.6</ele><time>2022-03-04T14:52:58Z</time><name>PT3654</name></trkpt>
<trkpt lat="52.042811" lon="05.786561"><ele>22.6</ele><time>2022-03-04T14:52:59Z</time><name>PT3655</name></trkpt>
<trkpt lat="52.042812" lon="05.786544"><ele>22.6</ele><time>2022-03-04T14:53:01Z</time><name>PT3656</name></trkpt>
<trkpt lat="52.042810" lon="05.786522"><ele>22.6</ele><time>2022-03-04T14:53:01Z</time><name>PT3657</name></trkpt>
<trkpt lat="52.042816" lon="05.786500"><ele>22.7</ele><time>2022-03-04T14:53:02Z</time><name>PT3658</name></trkpt>
<trkpt lat="52.042817" lon="05.786483"><ele>22.8</ele><time>2022-03-04T14:53:04Z</time><name>PT3659</name></trkpt>
<trkpt lat="52.042815" lon="05.786468"><ele>22.8</ele><time>2022-03-04T14:53:04Z</time><name>PT3660</name></trkpt>
<trkpt lat="52.042816" lon="05.786453"><ele>22.9</ele><time>2022-03-04T14:53:05Z</time><name>PT3661</name></trkpt>
<trkpt lat="52.042814" lon="05.786443"><ele>23</ele><time>2022-03-04T14:53:07Z</time><name>PT3662</name></trkpt>
<trkpt lat="52.042810" lon="05.786425"><ele>22.8</ele><time>2022-03-04T14:53:07Z</time><name>PT3663</name></trkpt>
<trkpt lat="52.042809" lon="05.786404"><ele>22.6</ele><time>2022-03-04T14:53:08Z</time><name>PT3664</name></trkpt>
<trkpt lat="52.042814" lon="05.786381"><ele>22.4</ele><time>2022-03-04T14:53:10Z</time><name>PT3665</name></trkpt>
<trkpt lat="52.042820" lon="05.786355"><ele>22.3</ele><time>2022-03-04T14:53:10Z</time><name>PT3666</name></trkpt>
<trkpt lat="52.042826" lon="05.786336"><ele>22.2</ele><time>2022-03-04T14:53:11Z</time><name>PT3667</name></trkpt>
<trkpt lat="52.042836" lon="05.786322"><ele>22.2</ele><time>2022-03-04T14:53:13Z</time><name>PT3668</name></trkpt>
<trkpt lat="52.042839" lon="05.786313"><ele>22.2</ele><time>2022-03-04T14:53:13Z</time><name>PT3669</name></trkpt>
<trkpt lat="52.042836" lon="05.786301"><ele>22.1</ele><time>2022-03-04T14:53:14Z</time><name>PT3670</name></trkpt>
<trkpt lat="52.042840" lon="05.786287"><ele>22.1</ele><time>2022-03-04T14:53:16Z</time><name>PT3671</name></trkpt>
<trkpt lat="52.042845" lon="05.786270"><ele>22.1</ele><time>2022-03-04T14:53:16Z</time><name>PT3672</name></trkpt>
<trkpt lat="52.042849" lon="05.786249"><ele>22</ele><time>2022-03-04T14:53:17Z</time><name>PT3673</name></trkpt>
<trkpt lat="52.042850" lon="05.786234"><ele>22</ele><time>2022-03-04T14:53:19Z</time><name>PT3674</name></trkpt>
<trkpt lat="52.042852" lon="05.786218"><ele>22</ele><time>2022-03-04T14:53:19Z</time><name>PT3675</name></trkpt>
<trkpt lat="52.042854" lon="05.786200"><ele>21.9</ele><time>2022-03-04T14:53:20Z</time><name>PT3676</name></trkpt>
<trkpt lat="52.042853" lon="05.786189"><ele>21.9</ele><time>2022-03-04T14:53:21Z</time><name>PT3677</name></trkpt>
<trkpt lat="52.042854" lon="05.786173"><ele>22</ele><time>2022-03-04T14:53:22Z</time><name>PT3678</name></trkpt>
<trkpt lat="52.042853" lon="05.786157"><ele>22.1</ele><time>2022-03-04T14:53:23Z</time><name>PT3679</name></trkpt>
<trkpt lat="52.042857" lon="05.786139"><ele>22.1</ele><time>2022-03-04T14:53:25Z</time><name>PT3680</name></trkpt>
<trkpt lat="52.042862" lon="05.786121"><ele>22.1</ele><time>2022-03-04T14:53:25Z</time><name>PT3681</name></trkpt>
<trkpt lat="52.042870" lon="05.786102"><ele>22.1</ele><time>2022-03-04T14:53:26Z</time><name>PT3682</name></trkpt>
<trkpt lat="52.042879" lon="05.786086"><ele>22.2</ele><time>2022-03-04T14:53:28Z</time><name>PT3683</name></trkpt>
<trkpt lat="52.042881" lon="05.786073"><ele>22.1</ele><time>2022-03-04T14:53:28Z</time><name>PT3684</name></trkpt>
<trkpt lat="52.042884" lon="05.786061"><ele>22</ele><time>2022-03-04T14:53:29Z</time><name>PT3685</name></trkpt>
<trkpt lat="52.042888" lon="05.786046"><ele>22</ele><time>2022-03-04T14:53:31Z</time><name>PT3686</name></trkpt>
<trkpt lat="52.042892" lon="05.786036"><ele>21.9</ele><time>2022-03-04T14:53:31Z</time><name>PT3687</name></trkpt>
<trkpt lat="52.042894" lon="05.786015"><ele>21.9</ele><time>2022-03-04T14:53:32Z</time><name>PT3688</name></trkpt>
<trkpt lat="52.042902" lon="05.785991"><ele>22</ele><time>2022-03-04T14:53:34Z</time><name>PT3689</name></trkpt>
<trkpt lat="52.042906" lon="05.785972"><ele>22</ele><time>2022-03-04T14:53:34Z</time><name>PT3690</name></trkpt>
<trkpt lat="52.042912" lon="05.785958"><ele>22.1</ele><time>2022-03-04T14:53:35Z</time><name>PT3691</name></trkpt>
<trkpt lat="52.042917" lon="05.785944"><ele>22</ele><time>2022-03-04T14:53:36Z</time><name>PT3692</name></trkpt>
<trkpt lat="52.042922" lon="05.785931"><ele>21.9</ele><time>2022-03-04T14:53:37Z</time><name>PT3693</name></trkpt>
<trkpt lat="52.042925" lon="05.785916"><ele>21.8</ele><time>2022-03-04T14:53:38Z</time><name>PT3694</name></trkpt>
<trkpt lat="52.042929" lon="05.785900"><ele>21.8</ele><time>2022-03-04T14:53:40Z</time><name>PT3695</name></trkpt>
<trkpt lat="52.042936" lon="05.785879"><ele>21.9</ele><time>2022-03-04T14:53:40Z</time><name>PT3696</name></trkpt>
<trkpt lat="52.042948" lon="05.785857"><ele>21.9</ele><time>2022-03-04T14:53:41Z</time><name>PT3697</name></trkpt>
<trkpt lat="52.042955" lon="05.785839"><ele>21.8</ele><time>2022-03-04T14:53:43Z</time><name>PT3698</name></trkpt>
<trkpt lat="52.042963" lon="05.785822"><ele>21.8</ele><time>2022-03-04T14:53:43Z</time><name>PT3699</name></trkpt>
<trkpt lat="52.042970" lon="05.785807"><ele>21.6</ele><time>2022-03-04T14:53:44Z</time><name>PT3700</name></trkpt>
<trkpt lat="52.042973" lon="05.785797"><ele>21.6</ele><time>2022-03-04T14:53:45Z</time><name>PT3701</name></trkpt>
<trkpt lat="52.042980" lon="05.785787"><ele>21.5</ele><time>2022-03-04T14:53:46Z</time><name>PT3702</name></trkpt>
<trkpt lat="52.042987" lon="05.785767"><ele>21.8</ele><time>2022-03-04T14:53:47Z</time><name>PT3703</name></trkpt>
<trkpt lat="52.042995" lon="05.785742"><ele>21.8</ele><time>2022-03-04T14:53:49Z</time><name>PT3704</name></trkpt>
<trkpt lat="52.042998" lon="05.785721"><ele>21.8</ele><time>2022-03-04T14:53:49Z</time><name>PT3705</name></trkpt>
<trkpt lat="52.042998" lon="05.785707"><ele>21.8</ele><time>2022-03-04T14:53:50Z</time><name>PT3706</name></trkpt>
<trkpt lat="52.043001" lon="05.785692"><ele>21.8</ele><time>2022-03-04T14:53:52Z</time><name>PT3707</name></trkpt>
<trkpt lat="52.043003" lon="05.785679"><ele>21.6</ele><time>2022-03-04T14:53:52Z</time><name>PT3708</name></trkpt>
<trkpt lat="52.043007" lon="05.785668"><ele>21.5</ele><time>2022-03-04T14:53:53Z</time><name>PT3709</name></trkpt>
<trkpt lat="52.043012" lon="05.785650"><ele>21.5</ele><time>2022-03-04T14:53:55Z</time><name>PT3710</name></trkpt>
<trkpt lat="52.043021" lon="05.785632"><ele>21.5</ele><time>2022-03-04T14:53:55Z</time><name>PT3711</name></trkpt>
<trkpt lat="52.043031" lon="05.785609"><ele>21.5</ele><time>2022-03-04T14:53:56Z</time><name>PT3712</name></trkpt>
<trkpt lat="52.043032" lon="05.785591"><ele>21.3</ele><time>2022-03-04T14:53:58Z</time><name>PT3713</name></trkpt>
<trkpt lat="52.043034" lon="05.785577"><ele>21.3</ele><time>2022-03-04T14:53:58Z</time><name>PT3714</name></trkpt>
<trkpt lat="52.043035" lon="05.785565"><ele>21.4</ele><time>2022-03-04T14:53:59Z</time><name>PT3715</name></trkpt>
<trkpt lat="52.043041" lon="05.785556"><ele>21.3</ele><time>2022-03-04T14:54:01Z</time><name>PT3716</name></trkpt>
<trkpt lat="52.043046" lon="05.785546"><ele>21.4</ele><time>2022-03-04T14:54:01Z</time><name>PT3717</name></trkpt>
<trkpt lat="52.043056" lon="05.785534"><ele>21.4</ele><time>2022-03-04T14:54:02Z</time><name>PT3718</name></trkpt>
<trkpt lat="52.043062" lon="05.785509"><ele>21.4</ele><time>2022-03-04T14:54:03Z</time><name>PT3719</name></trkpt>
<trkpt lat="52.043064" lon="05.785489"><ele>21.4</ele><time>2022-03-04T14:54:04Z</time><name>PT3720</name></trkpt>
<trkpt lat="52.043070" lon="05.785472"><ele>21.3</ele><time>2022-03-04T14:54:05Z</time><name>PT3721</name></trkpt>
<trkpt lat="52.043071" lon="05.785458"><ele>21.2</ele><time>2022-03-04T14:54:06Z</time><name>PT3722</name></trkpt>
<trkpt lat="52.043070" lon="05.785446"><ele>21.1</ele><time>2022-03-04T14:54:07Z</time><name>PT3723</name></trkpt>
<trkpt lat="52.043070" lon="05.785431"><ele>20.9</ele><time>2022-03-04T14:54:08Z</time><name>PT3724</name></trkpt>
<trkpt lat="52.043067" lon="05.785411"><ele>20.8</ele><time>2022-03-04T14:54:10Z</time><name>PT3725</name></trkpt>
<trkpt lat="52.043067" lon="05.785389"><ele>20.8</ele><time>2022-03-04T14:54:10Z</time><name>PT3726</name></trkpt>
<trkpt lat="52.043071" lon="05.785371"><ele>20.8</ele><time>2022-03-04T14:54:11Z</time><name>PT3727</name></trkpt>
<trkpt lat="52.043070" lon="05.785354"><ele>20.7</ele><time>2022-03-04T14:54:13Z</time><name>PT3728</name></trkpt>
<trkpt lat="52.043073" lon="05.785341"><ele>20.8</ele><time>2022-03-04T14:54:13Z</time><name>PT3729</name></trkpt>
<trkpt lat="52.043078" lon="05.785329"><ele>21</ele><time>2022-03-04T14:54:14Z</time><name>PT3730</name></trkpt>
<trkpt lat="52.043082" lon="05.785316"><ele>21.2</ele><time>2022-03-04T14:54:16Z</time><name>PT3731</name></trkpt>
<trkpt lat="52.043076" lon="05.785292"><ele>21.3</ele><time>2022-03-04T14:54:16Z</time><name>PT3732</name></trkpt>
<trkpt lat="52.043076" lon="05.785271"><ele>21.5</ele><time>2022-03-04T14:54:17Z</time><name>PT3733</name></trkpt>
<trkpt lat="52.043081" lon="05.785251"><ele>21.3</ele><time>2022-03-04T14:54:19Z</time><name>PT3734</name></trkpt>
<trkpt lat="52.043086" lon="05.785234"><ele>21.3</ele><time>2022-03-04T14:54:19Z</time><name>PT3735</name></trkpt>
<trkpt lat="52.043091" lon="05.785217"><ele>21</ele><time>2022-03-04T14:54:20Z</time><name>PT3736</name></trkpt>
<trkpt lat="52.043096" lon="05.785203"><ele>20.8</ele><time>2022-03-04T14:54:22Z</time><name>PT3737</name></trkpt>
<trkpt lat="52.043098" lon="05.785189"><ele>20.8</ele><time>2022-03-04T14:54:22Z</time><name>PT3738</name></trkpt>
<trkpt lat="52.043099" lon="05.785172"><ele>20.8</ele><time>2022-03-04T14:54:23Z</time><name>PT3739</name></trkpt>
<trkpt lat="52.043115" lon="05.785159"><ele>20.8</ele><time>2022-03-04T14:54:25Z</time><name>PT3740</name></trkpt>
<trkpt lat="52.043122" lon="05.785141"><ele>20.8</ele><time>2022-03-04T14:54:25Z</time><name>PT3741</name></trkpt>
<trkpt lat="52.043129" lon="05.785122"><ele>20.9</ele><time>2022-03-04T14:54:26Z</time><name>PT3742</name></trkpt>
<trkpt lat="52.043137" lon="05.785100"><ele>21</ele><time>2022-03-04T14:54:28Z</time><name>PT3743</name></trkpt>
<trkpt lat="52.043143" lon="05.785080"><ele>20.9</ele><time>2022-03-04T14:54:28Z</time><name>PT3744</name></trkpt>
<trkpt lat="52.043148" lon="05.785065"><ele>20.8</ele><time>2022-03-04T14:54:29Z</time><name>PT3745</name></trkpt>
<trkpt lat="52.043151" lon="05.785050"><ele>20.8</ele><time>2022-03-04T14:54:31Z</time><name>PT3746</name></trkpt>
<trkpt lat="52.043152" lon="05.785033"><ele>20.9</ele><time>2022-03-04T14:54:31Z</time><name>PT3747</name></trkpt>
<trkpt lat="52.043154" lon="05.785015"><ele>20.9</ele><time>2022-03-04T14:54:32Z</time><name>PT3748</name></trkpt>
<trkpt lat="52.043158" lon="05.784994"><ele>21</ele><time>2022-03-04T14:54:34Z</time><name>PT3749</name></trkpt>
<trkpt lat="52.043166" lon="05.784980"><ele>21.1</ele><time>2022-03-04T14:54:34Z</time><name>PT3750</name></trkpt>
<trkpt lat="52.043177" lon="05.784957"><ele>20.9</ele><time>2022-03-04T14:54:35Z</time><name>PT3751</name></trkpt>
<trkpt lat="52.043190" lon="05.784938"><ele>20.8</ele><time>2022-03-04T14:54:36Z</time><name>PT3752</name></trkpt>
<trkpt lat="52.043198" lon="05.784918"><ele>20.8</ele><time>2022-03-04T14:54:37Z</time><name>PT3753</name></trkpt>
<trkpt lat="52.043202" lon="05.784900"><ele>20.9</ele><time>2022-03-04T14:54:38Z</time><name>PT3754</name></trkpt>
<trkpt lat="52.043204" lon="05.784885"><ele>20.8</ele><time>2022-03-04T14:54:39Z</time><name>PT3755</name></trkpt>
<trkpt lat="52.043206" lon="05.784869"><ele>20.8</ele><time>2022-03-04T14:54:40Z</time><name>PT3756</name></trkpt>
<trkpt lat="52.043211" lon="05.784851"><ele>20.8</ele><time>2022-03-04T14:54:41Z</time><name>PT3757</name></trkpt>
<trkpt lat="52.043225" lon="05.784833"><ele>20.9</ele><time>2022-03-04T14:54:42Z</time><name>PT3758</name></trkpt>
<trkpt lat="52.043239" lon="05.784811"><ele>20.8</ele><time>2022-03-04T14:54:43Z</time><name>PT3759</name></trkpt>
<trkpt lat="52.043246" lon="05.784790"><ele>20.9</ele><time>2022-03-04T14:54:44Z</time><name>PT3760</name></trkpt>
<trkpt lat="52.043248" lon="05.784772"><ele>21.1</ele><time>2022-03-04T14:54:46Z</time><name>PT3761</name></trkpt>
<trkpt lat="52.043257" lon="05.784756"><ele>21.2</ele><time>2022-03-04T14:54:46Z</time><name>PT3762</name></trkpt>
<trkpt lat="52.043262" lon="05.784737"><ele>21.1</ele><time>2022-03-04T14:54:47Z</time><name>PT3763</name></trkpt>
<trkpt lat="52.043263" lon="05.784723"><ele>21.2</ele><time>2022-03-04T14:54:49Z</time><name>PT3764</name></trkpt>
<trkpt lat="52.043263" lon="05.784706"><ele>21.1</ele><time>2022-03-04T14:54:49Z</time><name>PT3765</name></trkpt>
<trkpt lat="52.043264" lon="05.784693"><ele>21.2</ele><time>2022-03-04T14:54:51Z</time><name>PT3766</name></trkpt>
<trkpt lat="52.043268" lon="05.784673"><ele>21.2</ele><time>2022-03-04T14:54:52Z</time><name>PT3767</name></trkpt>
<trkpt lat="52.043270" lon="05.784648"><ele>21.3</ele><time>2022-03-04T14:54:52Z</time><name>PT3768</name></trkpt>
<trkpt lat="52.043272" lon="05.784628"><ele>21.3</ele><time>2022-03-04T14:54:53Z</time><name>PT3769</name></trkpt>
<trkpt lat="52.043273" lon="05.784613"><ele>21.3</ele><time>2022-03-04T14:54:54Z</time><name>PT3770</name></trkpt>
<trkpt lat="52.043275" lon="05.784601"><ele>21.3</ele><time>2022-03-04T14:54:55Z</time><name>PT3771</name></trkpt>
<trkpt lat="52.043276" lon="05.784589"><ele>21</ele><time>2022-03-04T14:54:56Z</time><name>PT3772</name></trkpt>
<trkpt lat="52.043284" lon="05.784573"><ele>20.9</ele><time>2022-03-04T14:54:58Z</time><name>PT3773</name></trkpt>
<trkpt lat="52.043286" lon="05.784556"><ele>21</ele><time>2022-03-04T14:54:58Z</time><name>PT3774</name></trkpt>
<trkpt lat="52.043295" lon="05.784533"><ele>21</ele><time>2022-03-04T14:54:59Z</time><name>PT3775</name></trkpt>
<trkpt lat="52.043301" lon="05.784516"><ele>20.9</ele><time>2022-03-04T14:55:01Z</time><name>PT3776</name></trkpt>
<trkpt lat="52.043304" lon="05.784502"><ele>21</ele><time>2022-03-04T14:55:01Z</time><name>PT3777</name></trkpt>
<trkpt lat="52.043307" lon="05.784485"><ele>20.9</ele><time>2022-03-04T14:55:02Z</time><name>PT3778</name></trkpt>
<trkpt lat="52.043308" lon="05.784469"><ele>20.8</ele><time>2022-03-04T14:55:04Z</time><name>PT3779</name></trkpt>
<trkpt lat="52.043318" lon="05.784461"><ele>20.7</ele><time>2022-03-04T14:55:04Z</time><name>PT3780</name></trkpt>
<trkpt lat="52.043330" lon="05.784453"><ele>20.8</ele><time>2022-03-04T14:55:05Z</time><name>PT3781</name></trkpt>
<trkpt lat="52.043336" lon="05.784435"><ele>20.8</ele><time>2022-03-04T14:55:07Z</time><name>PT3782</name></trkpt>
<trkpt lat="52.043340" lon="05.784419"><ele>20.8</ele><time>2022-03-04T14:55:07Z</time><name>PT3783</name></trkpt>
<trkpt lat="52.043344" lon="05.784397"><ele>20.8</ele><time>2022-03-04T14:55:08Z</time><name>PT3784</name></trkpt>
<trkpt lat="52.043346" lon="05.784378"><ele>20.9</ele><time>2022-03-04T14:55:10Z</time><name>PT3785</name></trkpt>
<trkpt lat="52.043354" lon="05.784364"><ele>21</ele><time>2022-03-04T14:55:10Z</time><name>PT3786</name></trkpt>
<trkpt lat="52.043358" lon="05.784353"><ele>21</ele><time>2022-03-04T14:55:11Z</time><name>PT3787</name></trkpt>
<trkpt lat="52.043362" lon="05.784339"><ele>21.1</ele><time>2022-03-04T14:55:13Z</time><name>PT3788</name></trkpt>
<trkpt lat="52.043362" lon="05.784330"><ele>21.2</ele><time>2022-03-04T14:55:13Z</time><name>PT3789</name></trkpt>
<trkpt lat="52.043364" lon="05.784317"><ele>21.3</ele><time>2022-03-04T14:55:14Z</time><name>PT3790</name></trkpt>
<trkpt lat="52.043367" lon="05.784289"><ele>21.3</ele><time>2022-03-04T14:55:16Z</time><name>PT3791</name></trkpt>
<trkpt lat="52.043369" lon="05.784261"><ele>21.3</ele><time>2022-03-04T14:55:16Z</time><name>PT3792</name></trkpt>
<trkpt lat="52.043384" lon="05.784237"><ele>21.3</ele><time>2022-03-04T14:55:17Z</time><name>PT3793</name></trkpt>
<trkpt lat="52.043396" lon="05.784220"><ele>21.3</ele><time>2022-03-04T14:55:19Z</time><name>PT3794</name></trkpt>
<trkpt lat="52.043405" lon="05.784205"><ele>21.3</ele><time>2022-03-04T14:55:19Z</time><name>PT3795</name></trkpt>
<trkpt lat="52.043410" lon="05.784192"><ele>21.3</ele><time>2022-03-04T14:55:20Z</time><name>PT3796</name></trkpt>
<trkpt lat="52.043410" lon="05.784175"><ele>21.2</ele><time>2022-03-04T14:55:22Z</time><name>PT3797</name></trkpt>
<trkpt lat="52.043410" lon="05.784159"><ele>21.2</ele><time>2022-03-04T14:55:22Z</time><name>PT3798</name></trkpt>
<trkpt lat="52.043410" lon="05.784142"><ele>21.3</ele><time>2022-03-04T14:55:23Z</time><name>PT3799</name></trkpt>
<trkpt lat="52.043412" lon="05.784120"><ele>21.4</ele><time>2022-03-04T14:55:25Z</time><name>PT3800</name></trkpt>
<trkpt lat="52.043419" lon="05.784102"><ele>21.4</ele><time>2022-03-04T14:55:25Z</time><name>PT3801</name></trkpt>
<trkpt lat="52.043428" lon="05.784088"><ele>21.5</ele><time>2022-03-04T14:55:26Z</time><name>PT3802</name></trkpt>
<trkpt lat="52.043429" lon="05.784074"><ele>21.7</ele><time>2022-03-04T14:55:28Z</time><name>PT3803</name></trkpt>
<trkpt lat="52.043431" lon="05.784059"><ele>21.8</ele><time>2022-03-04T14:55:28Z</time><name>PT3804</name></trkpt>
<trkpt lat="52.043432" lon="05.784043"><ele>21.9</ele><time>2022-03-04T14:55:29Z</time><name>PT3805</name></trkpt>
<trkpt lat="52.043434" lon="05.784029"><ele>22</ele><time>2022-03-04T14:55:31Z</time><name>PT3806</name></trkpt>
<trkpt lat="52.043435" lon="05.784008"><ele>22</ele><time>2022-03-04T14:55:31Z</time><name>PT3807</name></trkpt>
<trkpt lat="52.043435" lon="05.783982"><ele>22</ele><time>2022-03-04T14:55:32Z</time><name>PT3808</name></trkpt>
<trkpt lat="52.043441" lon="05.783954"><ele>22</ele><time>2022-03-04T14:55:33Z</time><name>PT3809</name></trkpt>
<trkpt lat="52.043452" lon="05.783933"><ele>21.9</ele><time>2022-03-04T14:55:34Z</time><name>PT3810</name></trkpt>
<trkpt lat="52.043470" lon="05.783921"><ele>22.2</ele><time>2022-03-04T14:55:35Z</time><name>PT3811</name></trkpt>
<trkpt lat="52.043477" lon="05.783910"><ele>22.2</ele><time>2022-03-04T14:55:37Z</time><name>PT3812</name></trkpt>
<trkpt lat="52.043478" lon="05.783895"><ele>22.2</ele><time>2022-03-04T14:55:37Z</time><name>PT3813</name></trkpt>
<trkpt lat="52.043480" lon="05.783884"><ele>22.2</ele><time>2022-03-04T14:55:38Z</time><name>PT3814</name></trkpt>
<trkpt lat="52.043485" lon="05.783864"><ele>22</ele><time>2022-03-04T14:55:39Z</time><name>PT3815</name></trkpt>
<trkpt lat="52.043499" lon="05.783843"><ele>21.8</ele><time>2022-03-04T14:55:40Z</time><name>PT3816</name></trkpt>
<trkpt lat="52.043508" lon="05.783823"><ele>21.7</ele><time>2022-03-04T14:55:41Z</time><name>PT3817</name></trkpt>
<trkpt lat="52.043510" lon="05.783804"><ele>21.7</ele><time>2022-03-04T14:55:42Z</time><name>PT3818</name></trkpt>
<trkpt lat="52.043514" lon="05.783783"><ele>21.8</ele><time>2022-03-04T14:55:43Z</time><name>PT3819</name></trkpt>
<trkpt lat="52.043512" lon="05.783765"><ele>22</ele><time>2022-03-04T14:55:44Z</time><name>PT3820</name></trkpt>
<trkpt lat="52.043513" lon="05.783751"><ele>22.1</ele><time>2022-03-04T14:55:45Z</time><name>PT3821</name></trkpt>
<trkpt lat="52.043508" lon="05.783731"><ele>22.2</ele><time>2022-03-04T14:55:46Z</time><name>PT3822</name></trkpt>
<trkpt lat="52.043507" lon="05.783712"><ele>22.2</ele><time>2022-03-04T14:55:47Z</time><name>PT3823</name></trkpt>
<trkpt lat="52.043508" lon="05.783685"><ele>21.9</ele><time>2022-03-04T14:55:48Z</time><name>PT3824</name></trkpt>
<trkpt lat="52.043509" lon="05.783658"><ele>21.9</ele><time>2022-03-04T14:55:49Z</time><name>PT3825</name></trkpt>
<trkpt lat="52.043514" lon="05.783639"><ele>21.9</ele><time>2022-03-04T14:55:50Z</time><name>PT3826</name></trkpt>
<trkpt lat="52.043508" lon="05.783616"><ele>21.9</ele><time>2022-03-04T14:55:52Z</time><name>PT3827</name></trkpt>
<trkpt lat="52.043508" lon="05.783599"><ele>22</ele><time>2022-03-04T14:55:52Z</time><name>PT3828</name></trkpt>
<trkpt lat="52.043516" lon="05.783586"><ele>22.2</ele><time>2022-03-04T14:55:53Z</time><name>PT3829</name></trkpt>
<trkpt lat="52.043520" lon="05.783571"><ele>22.1</ele><time>2022-03-04T14:55:55Z</time><name>PT3830</name></trkpt>
<trkpt lat="52.043520" lon="05.783551"><ele>22.1</ele><time>2022-03-04T14:55:55Z</time><name>PT3831</name></trkpt>
<trkpt lat="52.043518" lon="05.783530"><ele>22.2</ele><time>2022-03-04T14:55:56Z</time><name>PT3832</name></trkpt>
<trkpt lat="52.043527" lon="05.783509"><ele>22</ele><time>2022-03-04T14:55:57Z</time><name>PT3833</name></trkpt>
<trkpt lat="52.043529" lon="05.783491"><ele>22</ele><time>2022-03-04T14:55:58Z</time><name>PT3834</name></trkpt>
<trkpt lat="52.043531" lon="05.783478"><ele>21.8</ele><time>2022-03-04T14:55:59Z</time><name>PT3835</name></trkpt>
<trkpt lat="52.043529" lon="05.783463"><ele>21.8</ele><time>2022-03-04T14:56:00Z</time><name>PT3836</name></trkpt>
<trkpt lat="52.043527" lon="05.783452"><ele>21.8</ele><time>2022-03-04T14:56:01Z</time><name>PT3837</name></trkpt>
<trkpt lat="52.043528" lon="05.783444"><ele>21.8</ele><time>2022-03-04T14:56:02Z</time><name>PT3838</name></trkpt>
<trkpt lat="52.043527" lon="05.783421"><ele>21.9</ele><time>2022-03-04T14:56:04Z</time><name>PT3839</name></trkpt>
<trkpt lat="52.043524" lon="05.783397"><ele>22</ele><time>2022-03-04T14:56:04Z</time><name>PT3840</name></trkpt>
<trkpt lat="52.043524" lon="05.783376"><ele>21.9</ele><time>2022-03-04T14:56:05Z</time><name>PT3841</name></trkpt>
<trkpt lat="52.043524" lon="05.783360"><ele>21.9</ele><time>2022-03-04T14:56:07Z</time><name>PT3842</name></trkpt>
<trkpt lat="52.043523" lon="05.783341"><ele>22.1</ele><time>2022-03-04T14:56:07Z</time><name>PT3843</name></trkpt>
<trkpt lat="52.043527" lon="05.783321"><ele>22.2</ele><time>2022-03-04T14:56:08Z</time><name>PT3844</name></trkpt>
<trkpt lat="52.043531" lon="05.783309"><ele>22.1</ele><time>2022-03-04T14:56:10Z</time><name>PT3845</name></trkpt>
<trkpt lat="52.043535" lon="05.783296"><ele>22.2</ele><time>2022-03-04T14:56:10Z</time><name>PT3846</name></trkpt>
<trkpt lat="52.043537" lon="05.783281"><ele>22.2</ele><time>2022-03-04T14:56:11Z</time><name>PT3847</name></trkpt>
<trkpt lat="52.043538" lon="05.783261"><ele>22</ele><time>2022-03-04T14:56:12Z</time><name>PT3848</name></trkpt>
<trkpt lat="52.043547" lon="05.783238"><ele>21.8</ele><time>2022-03-04T14:56:13Z</time><name>PT3849</name></trkpt>
<trkpt lat="52.043553" lon="05.783213"><ele>21.8</ele><time>2022-03-04T14:56:14Z</time><name>PT3850</name></trkpt>
<trkpt lat="52.043553" lon="05.783185"><ele>21.7</ele><time>2022-03-04T14:56:16Z</time><name>PT3851</name></trkpt>
<trkpt lat="52.043555" lon="05.783166"><ele>21.6</ele><time>2022-03-04T14:56:16Z</time><name>PT3852</name></trkpt>
<trkpt lat="52.043558" lon="05.783150"><ele>21.7</ele><time>2022-03-04T14:56:17Z</time><name>PT3853</name></trkpt>
<trkpt lat="52.043562" lon="05.783133"><ele>21.8</ele><time>2022-03-04T14:56:19Z</time><name>PT3854</name></trkpt>
<trkpt lat="52.043564" lon="05.783119"><ele>21.8</ele><time>2022-03-04T14:56:19Z</time><name>PT3855</name></trkpt>
<trkpt lat="52.043569" lon="05.783101"><ele>21.8</ele><time>2022-03-04T14:56:20Z</time><name>PT3856</name></trkpt>
<trkpt lat="52.043572" lon="05.783078"><ele>21.8</ele><time>2022-03-04T14:56:22Z</time><name>PT3857</name></trkpt>
<trkpt lat="52.043572" lon="05.783056"><ele>21.7</ele><time>2022-03-04T14:56:22Z</time><name>PT3858</name></trkpt>
<trkpt lat="52.043572" lon="05.783039"><ele>21.7</ele><time>2022-03-04T14:56:23Z</time><name>PT3859</name></trkpt>
<trkpt lat="52.043574" lon="05.783020"><ele>21.8</ele><time>2022-03-04T14:56:25Z</time><name>PT3860</name></trkpt>
<trkpt lat="52.043574" lon="05.783004"><ele>21.7</ele><time>2022-03-04T14:56:25Z</time><name>PT3861</name></trkpt>
<trkpt lat="52.043570" lon="05.782990"><ele>21.7</ele><time>2022-03-04T14:56:26Z</time><name>PT3862</name></trkpt>
<trkpt lat="52.043566" lon="05.782971"><ele>22</ele><time>2022-03-04T14:56:28Z</time><name>PT3863</name></trkpt>
<trkpt lat="52.043567" lon="05.782950"><ele>21.8</ele><time>2022-03-04T14:56:28Z</time><name>PT3864</name></trkpt>
<trkpt lat="52.043574" lon="05.782930"><ele>21.8</ele><time>2022-03-04T14:56:29Z</time><name>PT3865</name></trkpt>
<trkpt lat="52.043575" lon="05.782912"><ele>21.8</ele><time>2022-03-04T14:56:31Z</time><name>PT3866</name></trkpt>
<trkpt lat="52.043574" lon="05.782896"><ele>21.7</ele><time>2022-03-04T14:56:31Z</time><name>PT3867</name></trkpt>
<trkpt lat="52.043580" lon="05.782885"><ele>21.7</ele><time>2022-03-04T14:56:32Z</time><name>PT3868</name></trkpt>
<trkpt lat="52.043584" lon="05.782874"><ele>21.7</ele><time>2022-03-04T14:56:34Z</time><name>PT3869</name></trkpt>
<trkpt lat="52.043586" lon="05.782852"><ele>21.8</ele><time>2022-03-04T14:56:34Z</time><name>PT3870</name></trkpt>
<trkpt lat="52.043591" lon="05.782833"><ele>21.8</ele><time>2022-03-04T14:56:35Z</time><name>PT3871</name></trkpt>
<trkpt lat="52.043596" lon="05.782815"><ele>22</ele><time>2022-03-04T14:56:36Z</time><name>PT3872</name></trkpt>
<trkpt lat="52.043591" lon="05.782796"><ele>22</ele><time>2022-03-04T14:56:37Z</time><name>PT3873</name></trkpt>
<trkpt lat="52.043589" lon="05.782783"><ele>22</ele><time>2022-03-04T14:56:38Z</time><name>PT3874</name></trkpt>
<trkpt lat="52.043591" lon="05.782769"><ele>21.8</ele><time>2022-03-04T14:56:40Z</time><name>PT3875</name></trkpt>
<trkpt lat="52.043594" lon="05.782755"><ele>21.6</ele><time>2022-03-04T14:56:40Z</time><name>PT3876</name></trkpt>
<trkpt lat="52.043596" lon="05.782739"><ele>21.5</ele><time>2022-03-04T14:56:41Z</time><name>PT3877</name></trkpt>
<trkpt lat="52.043597" lon="05.782719"><ele>21.6</ele><time>2022-03-04T14:56:42Z</time><name>PT3878</name></trkpt>
<trkpt lat="52.043599" lon="05.782698"><ele>21.7</ele><time>2022-03-04T14:56:43Z</time><name>PT3879</name></trkpt>
<trkpt lat="52.043602" lon="05.782675"><ele>21.7</ele><time>2022-03-04T14:56:44Z</time><name>PT3880</name></trkpt>
<trkpt lat="52.043614" lon="05.782655"><ele>21.6</ele><time>2022-03-04T14:56:46Z</time><name>PT3881</name></trkpt>
<trkpt lat="52.043622" lon="05.782626"><ele>21.6</ele><time>2022-03-04T14:56:47Z</time><name>PT3882</name></trkpt>
<trkpt lat="52.043627" lon="05.782616"><ele>21.4</ele><time>2022-03-04T14:56:48Z</time><name>PT3883</name></trkpt>
<trkpt lat="52.043631" lon="05.782611"><ele>21.5</ele><time>2022-03-04T14:56:49Z</time><name>PT3884</name></trkpt>
<trkpt lat="52.043635" lon="05.782599"><ele>21.7</ele><time>2022-03-04T14:56:50Z</time><name>PT3885</name></trkpt>
<trkpt lat="52.043635" lon="05.782576"><ele>21.6</ele><time>2022-03-04T14:56:52Z</time><name>PT3886</name></trkpt>
<trkpt lat="52.043641" lon="05.782556"><ele>21.6</ele><time>2022-03-04T14:56:52Z</time><name>PT3887</name></trkpt>
<trkpt lat="52.043643" lon="05.782539"><ele>21.5</ele><time>2022-03-04T14:56:53Z</time><name>PT3888</name></trkpt>
<trkpt lat="52.043649" lon="05.782521"><ele>21.3</ele><time>2022-03-04T14:56:55Z</time><name>PT3889</name></trkpt>
<trkpt lat="52.043652" lon="05.782509"><ele>21.3</ele><time>2022-03-04T14:56:55Z</time><name>PT3890</name></trkpt>
<trkpt lat="52.043652" lon="05.782494"><ele>21.5</ele><time>2022-03-04T14:56:56Z</time><name>PT3891</name></trkpt>
<trkpt lat="52.043651" lon="05.782477"><ele>21.6</ele><time>2022-03-04T14:56:58Z</time><name>PT3892</name></trkpt>
<trkpt lat="52.043653" lon="05.782453"><ele>21.7</ele><time>2022-03-04T14:56:58Z</time><name>PT3893</name></trkpt>
<trkpt lat="52.043672" lon="05.782436"><ele>21.8</ele><time>2022-03-04T14:56:59Z</time><name>PT3894</name></trkpt>
<trkpt lat="52.043686" lon="05.782420"><ele>21.9</ele><time>2022-03-04T14:57:01Z</time><name>PT3895</name></trkpt>
<trkpt lat="52.043694" lon="05.782405"><ele>21.8</ele><time>2022-03-04T14:57:01Z</time><name>PT3896</name></trkpt>
<trkpt lat="52.043695" lon="05.782394"><ele>21.8</ele><time>2022-03-04T14:57:02Z</time><name>PT3897</name></trkpt>
<trkpt lat="52.043692" lon="05.782379"><ele>21.6</ele><time>2022-03-04T14:57:04Z</time><name>PT3898</name></trkpt>
<trkpt lat="52.043692" lon="05.782362"><ele>21.6</ele><time>2022-03-04T14:57:04Z</time><name>PT3899</name></trkpt>
<trkpt lat="52.043689" lon="05.782344"><ele>21.6</ele><time>2022-03-04T14:57:05Z</time><name>PT3900</name></trkpt>
<trkpt lat="52.043689" lon="05.782320"><ele>21.7</ele><time>2022-03-04T14:57:07Z</time><name>PT3901</name></trkpt>
<trkpt lat="52.043692" lon="05.782295"><ele>21.6</ele><time>2022-03-04T14:57:07Z</time><name>PT3902</name></trkpt>
<trkpt lat="52.043695" lon="05.782278"><ele>21.7</ele><time>2022-03-04T14:57:08Z</time><name>PT3903</name></trkpt>
<trkpt lat="52.043700" lon="05.782260"><ele>21.8</ele><time>2022-03-04T14:57:10Z</time><name>PT3904</name></trkpt>
<trkpt lat="52.043701" lon="05.782244"><ele>21.7</ele><time>2022-03-04T14:57:10Z</time><name>PT3905</name></trkpt>
<trkpt lat="52.043709" lon="05.782226"><ele>21.8</ele><time>2022-03-04T14:57:11Z</time><name>PT3906</name></trkpt>
<trkpt lat="52.043715" lon="05.782209"><ele>21.6</ele><time>2022-03-04T14:57:12Z</time><name>PT3907</name></trkpt>
<trkpt lat="52.043720" lon="05.782195"><ele>21.5</ele><time>2022-03-04T14:57:13Z</time><name>PT3908</name></trkpt>
<trkpt lat="52.043722" lon="05.782175"><ele>21.6</ele><time>2022-03-04T14:57:14Z</time><name>PT3909</name></trkpt>
<trkpt lat="52.043727" lon="05.782154"><ele>21.3</ele><time>2022-03-04T14:57:15Z</time><name>PT3910</name></trkpt>
<trkpt lat="52.043737" lon="05.782133"><ele>21.2</ele><time>2022-03-04T14:57:16Z</time><name>PT3911</name></trkpt>
<trkpt lat="52.043749" lon="05.782116"><ele>21.3</ele><time>2022-03-04T14:57:17Z</time><name>PT3912</name></trkpt>
<trkpt lat="52.043753" lon="05.782105"><ele>21.3</ele><time>2022-03-04T14:57:19Z</time><name>PT3913</name></trkpt>
<trkpt lat="52.043754" lon="05.782091"><ele>21.3</ele><time>2022-03-04T14:57:19Z</time><name>PT3914</name></trkpt>
<trkpt lat="52.043754" lon="05.782078"><ele>21.4</ele><time>2022-03-04T14:57:20Z</time><name>PT3915</name></trkpt>
<trkpt lat="52.043755" lon="05.782063"><ele>21.4</ele><time>2022-03-04T14:57:22Z</time><name>PT3916</name></trkpt>
<trkpt lat="52.043767" lon="05.782048"><ele>21.3</ele><time>2022-03-04T14:57:22Z</time><name>PT3917</name></trkpt>
<trkpt lat="52.043780" lon="05.782026"><ele>21.2</ele><time>2022-03-04T14:57:23Z</time><name>PT3918</name></trkpt>
<trkpt lat="52.043790" lon="05.781998"><ele>21</ele><time>2022-03-04T14:57:25Z</time><name>PT3919</name></trkpt>
<trkpt lat="52.043794" lon="05.781976"><ele>20.9</ele><time>2022-03-04T14:57:25Z</time><name>PT3920</name></trkpt>
<trkpt lat="52.043797" lon="05.781957"><ele>21</ele><time>2022-03-04T14:57:26Z</time><name>PT3921</name></trkpt>
<trkpt lat="52.043796" lon="05.781941"><ele>20.9</ele><time>2022-03-04T14:57:28Z</time><name>PT3922</name></trkpt>
<trkpt lat="52.043796" lon="05.781926"><ele>20.8</ele><time>2022-03-04T14:57:28Z</time><name>PT3923</name></trkpt>
<trkpt lat="52.043797" lon="05.781917"><ele>21.1</ele><time>2022-03-04T14:57:29Z</time><name>PT3924</name></trkpt>
<trkpt lat="52.043796" lon="05.781904"><ele>21.1</ele><time>2022-03-04T14:57:31Z</time><name>PT3925</name></trkpt>
<trkpt lat="52.043828" lon="05.781899"><ele>21</ele><time>2022-03-04T14:57:31Z</time><name>PT3926</name></trkpt>
<trkpt lat="52.043843" lon="05.781883"><ele>21</ele><time>2022-03-04T14:57:33Z</time><name>PT3927</name></trkpt>
<trkpt lat="52.043852" lon="05.781863"><ele>21.2</ele><time>2022-03-04T14:57:34Z</time><name>PT3928</name></trkpt>
<trkpt lat="52.043857" lon="05.781842"><ele>21.1</ele><time>2022-03-04T14:57:34Z</time><name>PT3929</name></trkpt>
<trkpt lat="52.043857" lon="05.781828"><ele>20.9</ele><time>2022-03-04T14:57:35Z</time><name>PT3930</name></trkpt>
<trkpt lat="52.043858" lon="05.781818"><ele>21</ele><time>2022-03-04T14:57:37Z</time><name>PT3931</name></trkpt>
<trkpt lat="52.043852" lon="05.781798"><ele>21.1</ele><time>2022-03-04T14:57:37Z</time><name>PT3932</name></trkpt>
<trkpt lat="52.043847" lon="05.781777"><ele>21.1</ele><time>2022-03-04T14:57:38Z</time><name>PT3933</name></trkpt>
<trkpt lat="52.043842" lon="05.781760"><ele>21.1</ele><time>2022-03-04T14:57:40Z</time><name>PT3934</name></trkpt>
<trkpt lat="52.043844" lon="05.781738"><ele>21.2</ele><time>2022-03-04T14:57:40Z</time><name>PT3935</name></trkpt>
<trkpt lat="52.043842" lon="05.781711"><ele>21.2</ele><time>2022-03-04T14:57:41Z</time><name>PT3936</name></trkpt>
<trkpt lat="52.043836" lon="05.781684"><ele>21.1</ele><time>2022-03-04T14:57:43Z</time><name>PT3937</name></trkpt>
<trkpt lat="52.043837" lon="05.781665"><ele>21.3</ele><time>2022-03-04T14:57:43Z</time><name>PT3938</name></trkpt>
<trkpt lat="52.043832" lon="05.781638"><ele>21.3</ele><time>2022-03-04T14:57:44Z</time><name>PT3939</name></trkpt>
<trkpt lat="52.043836" lon="05.781619"><ele>21.4</ele><time>2022-03-04T14:57:46Z</time><name>PT3940</name></trkpt>
<trkpt lat="52.043837" lon="05.781599"><ele>21.5</ele><time>2022-03-04T14:57:46Z</time><name>PT3941</name></trkpt>
<trkpt lat="52.043839" lon="05.781580"><ele>21.3</ele><time>2022-03-04T14:57:47Z</time><name>PT3942</name></trkpt>
<trkpt lat="52.043842" lon="05.781564"><ele>21.3</ele><time>2022-03-04T14:57:49Z</time><name>PT3943</name></trkpt>
<trkpt lat="52.043844" lon="05.781545"><ele>21.2</ele><time>2022-03-04T14:57:49Z</time><name>PT3944</name></trkpt>
<trkpt lat="52.043844" lon="05.781525"><ele>21</ele><time>2022-03-04T14:57:50Z</time><name>PT3945</name></trkpt>
<trkpt lat="52.043843" lon="05.781505"><ele>21.2</ele><time>2022-03-04T14:57:52Z</time><name>PT3946</name></trkpt>
<trkpt lat="52.043846" lon="05.781489"><ele>21.2</ele><time>2022-03-04T14:57:52Z</time><name>PT3947</name></trkpt>
<trkpt lat="52.043849" lon="05.781473"><ele>21.2</ele><time>2022-03-04T14:57:53Z</time><name>PT3948</name></trkpt>
<trkpt lat="52.043850" lon="05.781459"><ele>20.9</ele><time>2022-03-04T14:57:54Z</time><name>PT3949</name></trkpt>
<trkpt lat="52.043849" lon="05.781442"><ele>20.8</ele><time>2022-03-04T14:57:55Z</time><name>PT3950</name></trkpt>
<trkpt lat="52.043849" lon="05.781421"><ele>20.7</ele><time>2022-03-04T14:57:56Z</time><name>PT3951</name></trkpt>
<trkpt lat="52.043850" lon="05.781397"><ele>20.7</ele><time>2022-03-04T14:57:58Z</time><name>PT3952</name></trkpt>
<trkpt lat="52.043852" lon="05.781377"><ele>20.8</ele><time>2022-03-04T14:57:58Z</time><name>PT3953</name></trkpt>
<trkpt lat="52.043855" lon="05.781359"><ele>20.7</ele><time>2022-03-04T14:57:59Z</time><name>PT3954</name></trkpt>
<trkpt lat="52.043851" lon="05.781351"><ele>20.6</ele><time>2022-03-04T14:58:01Z</time><name>PT3955</name></trkpt>
<trkpt lat="52.043846" lon="05.781353"><ele>20.6</ele><time>2022-03-04T14:58:01Z</time><name>PT3956</name></trkpt>
<trkpt lat="52.043845" lon="05.781357"><ele>20.5</ele><time>2022-03-04T14:58:02Z</time><name>PT3957</name></trkpt>
<trkpt lat="52.043847" lon="05.781359"><ele>20.4</ele><time>2022-03-04T14:58:04Z</time><name>PT3958</name></trkpt>
<trkpt lat="52.043852" lon="05.781359"><ele>20.5</ele><time>2022-03-04T14:58:04Z</time><name>PT3959</name></trkpt>
<trkpt lat="52.043853" lon="05.781357"><ele>20.6</ele><time>2022-03-04T14:58:05Z</time><name>PT3960</name></trkpt>
<trkpt lat="52.043856" lon="05.781342"><ele>20.8</ele><time>2022-03-04T14:58:08Z</time><name>PT3961</name></trkpt>
<trkpt lat="52.043859" lon="05.781331"><ele>20.8</ele><time>2022-03-04T14:58:10Z</time><name>PT3962</name></trkpt>
<trkpt lat="52.043859" lon="05.781316"><ele>20.8</ele><time>2022-03-04T14:58:10Z</time><name>PT3963</name></trkpt>
<trkpt lat="52.043859" lon="05.781306"><ele>20.7</ele><time>2022-03-04T14:58:11Z</time><name>PT3964</name></trkpt>
<trkpt lat="52.043861" lon="05.781300"><ele>20.7</ele><time>2022-03-04T14:58:13Z</time><name>PT3965</name></trkpt>
<trkpt lat="52.043863" lon="05.781291"><ele>20.6</ele><time>2022-03-04T14:58:13Z</time><name>PT3966</name></trkpt>
<trkpt lat="52.043863" lon="05.781289"><ele>20.5</ele><time>2022-03-04T14:58:14Z</time><name>PT3967</name></trkpt>
<trkpt lat="52.043866" lon="05.781291"><ele>20.5</ele><time>2022-03-04T14:58:16Z</time><name>PT3968</name></trkpt>
<trkpt lat="52.043868" lon="05.781286"><ele>20.4</ele><time>2022-03-04T14:58:16Z</time><name>PT3969</name></trkpt>
<trkpt lat="52.043868" lon="05.781273"><ele>20.4</ele><time>2022-03-04T14:58:17Z</time><name>PT3970</name></trkpt>
<trkpt lat="52.043868" lon="05.781257"><ele>20.3</ele><time>2022-03-04T14:58:19Z</time><name>PT3971</name></trkpt>
<trkpt lat="52.043870" lon="05.781242"><ele>20.3</ele><time>2022-03-04T14:58:19Z</time><name>PT3972</name></trkpt>
<trkpt lat="52.043870" lon="05.781231"><ele>20.2</ele><time>2022-03-04T14:58:20Z</time><name>PT3973</name></trkpt>
<trkpt lat="52.043878" lon="05.781218"><ele>20.4</ele><time>2022-03-04T14:58:22Z</time><name>PT3974</name></trkpt>
<trkpt lat="52.043881" lon="05.781205"><ele>20.5</ele><time>2022-03-04T14:58:22Z</time><name>PT3975</name></trkpt>
<trkpt lat="52.043880" lon="05.781192"><ele>20.6</ele><time>2022-03-04T14:58:23Z</time><name>PT3976</name></trkpt>
<trkpt lat="52.043882" lon="05.781180"><ele>20.6</ele><time>2022-03-04T14:58:24Z</time><name>PT3977</name></trkpt>
<trkpt lat="52.043887" lon="05.781165"><ele>20.6</ele><time>2022-03-04T14:58:25Z</time><name>PT3978</name></trkpt>
<trkpt lat="52.043890" lon="05.781152"><ele>20.5</ele><time>2022-03-04T14:58:26Z</time><name>PT3979</name></trkpt>
<trkpt lat="52.043894" lon="05.781139"><ele>20.4</ele><time>2022-03-04T14:58:27Z</time><name>PT3980</name></trkpt>
<trkpt lat="52.043893" lon="05.781129"><ele>20.3</ele><time>2022-03-04T14:58:28Z</time><name>PT3981</name></trkpt>
<trkpt lat="52.043891" lon="05.781114"><ele>20.2</ele><time>2022-03-04T14:58:29Z</time><name>PT3982</name></trkpt>
<trkpt lat="52.043894" lon="05.781105"><ele>20</ele><time>2022-03-04T14:58:30Z</time><name>PT3983</name></trkpt>
<trkpt lat="52.043892" lon="05.781101"><ele>20</ele><time>2022-03-04T14:58:31Z</time><name>PT3984</name></trkpt>
<trkpt lat="52.043888" lon="05.781096"><ele>20.1</ele><time>2022-03-04T14:58:32Z</time><name>PT3985</name></trkpt>
<trkpt lat="52.043884" lon="05.781099"><ele>20.2</ele><time>2022-03-04T14:58:34Z</time><name>PT3986</name></trkpt>
<trkpt lat="52.043884" lon="05.781108"><ele>20.3</ele><time>2022-03-04T14:58:34Z</time><name>PT3987</name></trkpt>
<trkpt lat="52.043886" lon="05.781108"><ele>20.4</ele><time>2022-03-04T14:58:35Z</time><name>PT3988</name></trkpt>
<trkpt lat="52.043887" lon="05.781110"><ele>20.5</ele><time>2022-03-04T14:58:36Z</time><name>PT3989</name></trkpt>
<trkpt lat="52.043886" lon="05.781112"><ele>20.4</ele><time>2022-03-04T14:58:37Z</time><name>PT3990</name></trkpt>
<trkpt lat="52.043886" lon="05.781099"><ele>19.9</ele><time>2022-03-04T14:58:42Z</time><name>PT3991</name></trkpt>
<trkpt lat="52.043891" lon="05.781083"><ele>19.9</ele><time>2022-03-04T14:58:43Z</time><name>PT3992</name></trkpt>
<trkpt lat="52.043896" lon="05.781066"><ele>19.9</ele><time>2022-03-04T14:58:43Z</time><name>PT3993</name></trkpt>
<trkpt lat="52.043897" lon="05.781052"><ele>20</ele><time>2022-03-04T14:58:44Z</time><name>PT3994</name></trkpt>
<trkpt lat="52.043901" lon="05.781036"><ele>20.1</ele><time>2022-03-04T14:58:46Z</time><name>PT3995</name></trkpt>
<trkpt lat="52.043907" lon="05.781018"><ele>20.1</ele><time>2022-03-04T14:58:46Z</time><name>PT3996</name></trkpt>
<trkpt lat="52.043909" lon="05.780999"><ele>20</ele><time>2022-03-04T14:58:47Z</time><name>PT3997</name></trkpt>
<trkpt lat="52.043911" lon="05.780978"><ele>20.1</ele><time>2022-03-04T14:58:48Z</time><name>PT3998</name></trkpt>
<trkpt lat="52.043916" lon="05.780962"><ele>20.1</ele><time>2022-03-04T14:58:49Z</time><name>PT3999</name></trkpt>
<trkpt lat="52.043920" lon="05.780945"><ele>19.9</ele><time>2022-03-04T14:58:50Z</time><name>PT4000</name></trkpt>
<trkpt lat="52.043927" lon="05.780936"><ele>19.9</ele><time>2022-03-04T14:58:52Z</time><name>PT4001</name></trkpt>
<trkpt lat="52.043931" lon="05.780941"><ele>19.9</ele><time>2022-03-04T14:58:52Z</time><name>PT4002</name></trkpt>
<trkpt lat="52.043938" lon="05.780947"><ele>19.9</ele><time>2022-03-04T14:58:53Z</time><name>PT4003</name></trkpt>
<trkpt lat="52.043947" lon="05.780950"><ele>19.9</ele><time>2022-03-04T14:58:55Z</time><name>PT4004</name></trkpt>
<trkpt lat="52.043950" lon="05.780945"><ele>19.9</ele><time>2022-03-04T14:58:55Z</time><name>PT4005</name></trkpt>
<trkpt lat="52.043944" lon="05.780944"><ele>20</ele><time>2022-03-04T14:58:56Z</time><name>PT4006</name></trkpt>
<trkpt lat="52.043935" lon="05.780944"><ele>20</ele><time>2022-03-04T14:58:58Z</time><name>PT4007</name></trkpt>
<trkpt lat="52.043933" lon="05.780944"><ele>20</ele><time>2022-03-04T14:58:58Z</time><name>PT4008</name></trkpt>
<trkpt lat="52.043931" lon="05.780942"><ele>20</ele><time>2022-03-04T14:58:59Z</time><name>PT4009</name></trkpt>
<trkpt lat="52.043932" lon="05.780942"><ele>19.9</ele><time>2022-03-04T14:59:01Z</time><name>PT4010</name></trkpt>
<trkpt lat="52.043938" lon="05.780931"><ele>20</ele><time>2022-03-04T14:59:01Z</time><name>PT4011</name></trkpt>
<trkpt lat="52.043936" lon="05.780915"><ele>20.2</ele><time>2022-03-04T14:59:02Z</time><name>PT4012</name></trkpt>
<trkpt lat="52.043934" lon="05.780894"><ele>20.2</ele><time>2022-03-04T14:59:04Z</time><name>PT4013</name></trkpt>
<trkpt lat="52.043934" lon="05.780873"><ele>20.2</ele><time>2022-03-04T14:59:04Z</time><name>PT4014</name></trkpt>
<trkpt lat="52.043938" lon="05.780851"><ele>20.3</ele><time>2022-03-04T14:59:05Z</time><name>PT4015</name></trkpt>
<trkpt lat="52.043940" lon="05.780834"><ele>20.3</ele><time>2022-03-04T14:59:07Z</time><name>PT4016</name></trkpt>
<trkpt lat="52.043942" lon="05.780823"><ele>20.2</ele><time>2022-03-04T14:59:07Z</time><name>PT4017</name></trkpt>
<trkpt lat="52.043946" lon="05.780806"><ele>20.2</ele><time>2022-03-04T14:59:08Z</time><name>PT4018</name></trkpt>
<trkpt lat="52.043947" lon="05.780783"><ele>20.2</ele><time>2022-03-04T14:59:10Z</time><name>PT4019</name></trkpt>
<trkpt lat="52.043950" lon="05.780758"><ele>20.1</ele><time>2022-03-04T14:59:10Z</time><name>PT4020</name></trkpt>
<trkpt lat="52.043936" lon="05.780730"><ele>20.1</ele><time>2022-03-04T14:59:11Z</time><name>PT4021</name></trkpt>
<trkpt lat="52.043931" lon="05.780712"><ele>20.1</ele><time>2022-03-04T14:59:13Z</time><name>PT4022</name></trkpt>
<trkpt lat="52.043932" lon="05.780700"><ele>20.3</ele><time>2022-03-04T14:59:13Z</time><name>PT4023</name></trkpt>
<trkpt lat="52.043932" lon="05.780686"><ele>20.3</ele><time>2022-03-04T14:59:14Z</time><name>PT4024</name></trkpt>
<trkpt lat="52.043933" lon="05.780679"><ele>20.4</ele><time>2022-03-04T14:59:16Z</time><name>PT4025</name></trkpt>
<trkpt lat="52.043939" lon="05.780661"><ele>20.4</ele><time>2022-03-04T14:59:16Z</time><name>PT4026</name></trkpt>
<trkpt lat="52.043938" lon="05.780639"><ele>20.3</ele><time>2022-03-04T14:59:17Z</time><name>PT4027</name></trkpt>
<trkpt lat="52.043944" lon="05.780616"><ele>20.3</ele><time>2022-03-04T14:59:19Z</time><name>PT4028</name></trkpt>
<trkpt lat="52.043947" lon="05.780601"><ele>20.2</ele><time>2022-03-04T14:59:19Z</time><name>PT4029</name></trkpt>
<trkpt lat="52.043946" lon="05.780586"><ele>20</ele><time>2022-03-04T14:59:20Z</time><name>PT4030</name></trkpt>
<trkpt lat="52.043943" lon="05.780573"><ele>20</ele><time>2022-03-04T14:59:22Z</time><name>PT4031</name></trkpt>
<trkpt lat="52.043943" lon="05.780561"><ele>20</ele><time>2022-03-04T14:59:22Z</time><name>PT4032</name></trkpt>
<trkpt lat="52.043947" lon="05.780542"><ele>20</ele><time>2022-03-04T14:59:23Z</time><name>PT4033</name></trkpt>
<trkpt lat="52.043956" lon="05.780524"><ele>19.9</ele><time>2022-03-04T14:59:24Z</time><name>PT4034</name></trkpt>
<trkpt lat="52.043965" lon="05.780510"><ele>19.8</ele><time>2022-03-04T14:59:25Z</time><name>PT4035</name></trkpt>
<trkpt lat="52.043966" lon="05.780495"><ele>19.9</ele><time>2022-03-04T14:59:26Z</time><name>PT4036</name></trkpt>
<trkpt lat="52.043968" lon="05.780478"><ele>19.9</ele><time>2022-03-04T14:59:28Z</time><name>PT4037</name></trkpt>
<trkpt lat="52.043971" lon="05.780463"><ele>19.9</ele><time>2022-03-04T14:59:28Z</time><name>PT4038</name></trkpt>
<trkpt lat="52.043975" lon="05.780441"><ele>20</ele><time>2022-03-04T14:59:29Z</time><name>PT4039</name></trkpt>
<trkpt lat="52.043981" lon="05.780412"><ele>20.1</ele><time>2022-03-04T14:59:31Z</time><name>PT4040</name></trkpt>
<trkpt lat="52.043992" lon="05.780393"><ele>20</ele><time>2022-03-04T14:59:31Z</time><name>PT4041</name></trkpt>
<trkpt lat="52.043996" lon="05.780380"><ele>19.9</ele><time>2022-03-04T14:59:32Z</time><name>PT4042</name></trkpt>
<trkpt lat="52.043998" lon="05.780368"><ele>19.9</ele><time>2022-03-04T14:59:33Z</time><name>PT4043</name></trkpt>
<trkpt lat="52.044000" lon="05.780350"><ele>19.7</ele><time>2022-03-04T14:59:34Z</time><name>PT4044</name></trkpt>
<trkpt lat="52.043999" lon="05.780332"><ele>19.8</ele><time>2022-03-04T14:59:35Z</time><name>PT4045</name></trkpt>
<trkpt lat="52.043996" lon="05.780311"><ele>19.7</ele><time>2022-03-04T14:59:37Z</time><name>PT4046</name></trkpt>
<trkpt lat="52.044005" lon="05.780295"><ele>19.8</ele><time>2022-03-04T14:59:37Z</time><name>PT4047</name></trkpt>
<trkpt lat="52.044020" lon="05.780281"><ele>19.9</ele><time>2022-03-04T14:59:38Z</time><name>PT4048</name></trkpt>
<trkpt lat="52.044026" lon="05.780269"><ele>20.2</ele><time>2022-03-04T14:59:40Z</time><name>PT4049</name></trkpt>
<trkpt lat="52.044030" lon="05.780254"><ele>20.2</ele><time>2022-03-04T14:59:40Z</time><name>PT4050</name></trkpt>
<trkpt lat="52.044029" lon="05.780233"><ele>20.3</ele><time>2022-03-04T14:59:41Z</time><name>PT4051</name></trkpt>
<trkpt lat="52.044029" lon="05.780216"><ele>20.3</ele><time>2022-03-04T14:59:43Z</time><name>PT4052</name></trkpt>
<trkpt lat="52.044043" lon="05.780201"><ele>20.2</ele><time>2022-03-04T14:59:43Z</time><name>PT4053</name></trkpt>
<trkpt lat="52.044050" lon="05.780187"><ele>20.3</ele><time>2022-03-04T14:59:44Z</time><name>PT4054</name></trkpt>
<trkpt lat="52.044057" lon="05.780177"><ele>20.2</ele><time>2022-03-04T14:59:45Z</time><name>PT4055</name></trkpt>
<trkpt lat="52.044059" lon="05.780162"><ele>20.2</ele><time>2022-03-04T14:59:46Z</time><name>PT4056</name></trkpt>
<trkpt lat="52.044058" lon="05.780147"><ele>20.2</ele><time>2022-03-04T14:59:47Z</time><name>PT4057</name></trkpt>
<trkpt lat="52.044054" lon="05.780127"><ele>20.3</ele><time>2022-03-04T14:59:49Z</time><name>PT4058</name></trkpt>
<trkpt lat="52.044046" lon="05.780111"><ele>20.4</ele><time>2022-03-04T14:59:49Z</time><name>PT4059</name></trkpt>
<trkpt lat="52.044053" lon="05.780094"><ele>20.4</ele><time>2022-03-04T14:59:50Z</time><name>PT4060</name></trkpt>
<trkpt lat="52.044061" lon="05.780072"><ele>20.4</ele><time>2022-03-04T14:59:51Z</time><name>PT4061</name></trkpt>
<trkpt lat="52.044063" lon="05.780054"><ele>20.4</ele><time>2022-03-04T14:59:52Z</time><name>PT4062</name></trkpt>
<trkpt lat="52.044066" lon="05.780035"><ele>20.3</ele><time>2022-03-04T14:59:53Z</time><name>PT4063</name></trkpt>
<trkpt lat="52.044067" lon="05.780016"><ele>20.3</ele><time>2022-03-04T14:59:55Z</time><name>PT4064</name></trkpt>
<trkpt lat="52.044067" lon="05.779998"><ele>20.2</ele><time>2022-03-04T14:59:55Z</time><name>PT4065</name></trkpt>
<trkpt lat="52.044072" lon="05.779977"><ele>20.1</ele><time>2022-03-04T14:59:56Z</time><name>PT4066</name></trkpt>
<trkpt lat="52.044082" lon="05.779955"><ele>20.1</ele><time>2022-03-04T14:59:58Z</time><name>PT4067</name></trkpt>
<trkpt lat="52.044089" lon="05.779938"><ele>20.1</ele><time>2022-03-04T14:59:58Z</time><name>PT4068</name></trkpt>
<trkpt lat="52.044091" lon="05.779922"><ele>19.9</ele><time>2022-03-04T14:59:59Z</time><name>PT4069</name></trkpt>
<trkpt lat="52.044092" lon="05.779908"><ele>20.3</ele><time>2022-03-04T15:00:01Z</time><name>PT4070</name></trkpt>
<trkpt lat="52.044093" lon="05.779892"><ele>20.3</ele><time>2022-03-04T15:00:01Z</time><name>PT4071</name></trkpt>
<trkpt lat="52.044095" lon="05.779874"><ele>20.2</ele><time>2022-03-04T15:00:02Z</time><name>PT4072</name></trkpt>
<trkpt lat="52.044097" lon="05.779852"><ele>20.2</ele><time>2022-03-04T15:00:03Z</time><name>PT4073</name></trkpt>
<trkpt lat="52.044105" lon="05.779840"><ele>20.1</ele><time>2022-03-04T15:00:04Z</time><name>PT4074</name></trkpt>
<trkpt lat="52.044109" lon="05.779827"><ele>20.3</ele><time>2022-03-04T15:00:05Z</time><name>PT4075</name></trkpt>
<trkpt lat="52.044115" lon="05.779817"><ele>20.2</ele><time>2022-03-04T15:00:06Z</time><name>PT4076</name></trkpt>
<trkpt lat="52.044121" lon="05.779806"><ele>20.3</ele><time>2022-03-04T15:00:07Z</time><name>PT4077</name></trkpt>
<trkpt lat="52.044122" lon="05.779790"><ele>20.3</ele><time>2022-03-04T15:00:08Z</time><name>PT4078</name></trkpt>
<trkpt lat="52.044116" lon="05.779768"><ele>20.4</ele><time>2022-03-04T15:00:09Z</time><name>PT4079</name></trkpt>
<trkpt lat="52.044118" lon="05.779746"><ele>20.4</ele><time>2022-03-04T15:00:10Z</time><name>PT4080</name></trkpt>
<trkpt lat="52.044117" lon="05.779726"><ele>20.4</ele><time>2022-03-04T15:00:11Z</time><name>PT4081</name></trkpt>
<trkpt lat="52.044115" lon="05.779709"><ele>20.3</ele><time>2022-03-04T15:00:13Z</time><name>PT4082</name></trkpt>
<trkpt lat="52.044111" lon="05.779695"><ele>20.4</ele><time>2022-03-04T15:00:13Z</time><name>PT4083</name></trkpt>
<trkpt lat="52.044108" lon="05.779680"><ele>20.4</ele><time>2022-03-04T15:00:14Z</time><name>PT4084</name></trkpt>
<trkpt lat="52.044106" lon="05.779662"><ele>20.2</ele><time>2022-03-04T15:00:16Z</time><name>PT4085</name></trkpt>
<trkpt lat="52.044104" lon="05.779642"><ele>20.2</ele><time>2022-03-04T15:00:16Z</time><name>PT4086</name></trkpt>
<trkpt lat="52.044102" lon="05.779619"><ele>20.3</ele><time>2022-03-04T15:00:17Z</time><name>PT4087</name></trkpt>
<trkpt lat="52.044098" lon="05.779597"><ele>20.1</ele><time>2022-03-04T15:00:19Z</time><name>PT4088</name></trkpt>
<trkpt lat="52.044091" lon="05.779587"><ele>20.2</ele><time>2022-03-04T15:00:19Z</time><name>PT4089</name></trkpt>
<trkpt lat="52.044087" lon="05.779573"><ele>20.3</ele><time>2022-03-04T15:00:20Z</time><name>PT4090</name></trkpt>
<trkpt lat="52.044079" lon="05.779569"><ele>20.3</ele><time>2022-03-04T15:00:22Z</time><name>PT4091</name></trkpt>
<trkpt lat="52.044070" lon="05.779565"><ele>20.1</ele><time>2022-03-04T15:00:22Z</time><name>PT4092</name></trkpt>
<trkpt lat="52.044067" lon="05.779554"><ele>20.1</ele><time>2022-03-04T15:00:23Z</time><name>PT4093</name></trkpt>
<trkpt lat="52.044057" lon="05.779534"><ele>20</ele><time>2022-03-04T15:00:25Z</time><name>PT4094</name></trkpt>
<trkpt lat="52.044053" lon="05.779511"><ele>20.2</ele><time>2022-03-04T15:00:25Z</time><name>PT4095</name></trkpt>
<trkpt lat="52.044054" lon="05.779488"><ele>20</ele><time>2022-03-04T15:00:26Z</time><name>PT4096</name></trkpt>
<trkpt lat="52.044054" lon="05.779469"><ele>20.1</ele><time>2022-03-04T15:00:27Z</time><name>PT4097</name></trkpt>
<trkpt lat="52.044057" lon="05.779460"><ele>20.3</ele><time>2022-03-04T15:00:28Z</time><name>PT4098</name></trkpt>
<trkpt lat="52.044054" lon="05.779450"><ele>20.3</ele><time>2022-03-04T15:00:29Z</time><name>PT4099</name></trkpt>
<trkpt lat="52.044048" lon="05.779439"><ele>20.3</ele><time>2022-03-04T15:00:30Z</time><name>PT4100</name></trkpt>
<trkpt lat="52.044044" lon="05.779417"><ele>20.3</ele><time>2022-03-04T15:00:31Z</time><name>PT4101</name></trkpt>
<trkpt lat="52.044042" lon="05.779393"><ele>20.2</ele><time>2022-03-04T15:00:32Z</time><name>PT4102</name></trkpt>
<trkpt lat="52.044037" lon="05.779369"><ele>20.1</ele><time>2022-03-04T15:00:34Z</time><name>PT4103</name></trkpt>
<trkpt lat="52.044033" lon="05.779341"><ele>20</ele><time>2022-03-04T15:00:34Z</time><name>PT4104</name></trkpt>
<trkpt lat="52.044039" lon="05.779321"><ele>20</ele><time>2022-03-04T15:00:35Z</time><name>PT4105</name></trkpt>
<trkpt lat="52.044039" lon="05.779293"><ele>19.9</ele><time>2022-03-04T15:00:37Z</time><name>PT4106</name></trkpt>
<trkpt lat="52.044038" lon="05.779273"><ele>19.9</ele><time>2022-03-04T15:00:38Z</time><name>PT4107</name></trkpt>
<trkpt lat="52.044031" lon="05.779254"><ele>19.9</ele><time>2022-03-04T15:00:40Z</time><name>PT4108</name></trkpt>
<trkpt lat="52.044027" lon="05.779235"><ele>19.8</ele><time>2022-03-04T15:00:40Z</time><name>PT4109</name></trkpt>
<trkpt lat="52.044027" lon="05.779209"><ele>19.5</ele><time>2022-03-04T15:00:41Z</time><name>PT4110</name></trkpt>
<trkpt lat="52.044025" lon="05.779185"><ele>19.6</ele><time>2022-03-04T15:00:43Z</time><name>PT4111</name></trkpt>
<trkpt lat="52.044020" lon="05.779168"><ele>19.6</ele><time>2022-03-04T15:00:43Z</time><name>PT4112</name></trkpt>
<trkpt lat="52.044016" lon="05.779154"><ele>19.7</ele><time>2022-03-04T15:00:44Z</time><name>PT4113</name></trkpt>
<trkpt lat="52.044015" lon="05.779142"><ele>19.9</ele><time>2022-03-04T15:00:46Z</time><name>PT4114</name></trkpt>
<trkpt lat="52.044013" lon="05.779124"><ele>19.9</ele><time>2022-03-04T15:00:46Z</time><name>PT4115</name></trkpt>
<trkpt lat="52.044010" lon="05.779104"><ele>20</ele><time>2022-03-04T15:00:47Z</time><name>PT4116</name></trkpt>
<trkpt lat="52.044005" lon="05.779078"><ele>20</ele><time>2022-03-04T15:00:49Z</time><name>PT4117</name></trkpt>
<trkpt lat="52.044001" lon="05.779053"><ele>20</ele><time>2022-03-04T15:00:49Z</time><name>PT4118</name></trkpt>
<trkpt lat="52.044003" lon="05.779030"><ele>19.9</ele><time>2022-03-04T15:00:50Z</time><name>PT4119</name></trkpt>
<trkpt lat="52.044005" lon="05.779015"><ele>19.7</ele><time>2022-03-04T15:00:52Z</time><name>PT4120</name></trkpt>
<trkpt lat="52.044003" lon="05.779000"><ele>19.6</ele><time>2022-03-04T15:00:52Z</time><name>PT4121</name></trkpt>
<trkpt lat="52.043995" lon="05.778984"><ele>19.4</ele><time>2022-03-04T15:00:53Z</time><name>PT4122</name></trkpt>
<trkpt lat="52.043988" lon="05.778968"><ele>19.4</ele><time>2022-03-04T15:00:54Z</time><name>PT4123</name></trkpt>
<trkpt lat="52.043982" lon="05.778949"><ele>19.5</ele><time>2022-03-04T15:00:55Z</time><name>PT4124</name></trkpt>
<trkpt lat="52.043980" lon="05.778926"><ele>19.6</ele><time>2022-03-04T15:00:56Z</time><name>PT4125</name></trkpt>
<trkpt lat="52.043980" lon="05.778897"><ele>19.7</ele><time>2022-03-04T15:00:57Z</time><name>PT4126</name></trkpt>
<trkpt lat="52.043981" lon="05.778870"><ele>19.7</ele><time>2022-03-04T15:00:58Z</time><name>PT4127</name></trkpt>
<trkpt lat="52.043978" lon="05.778853"><ele>19.6</ele><time>2022-03-04T15:00:59Z</time><name>PT4128</name></trkpt>
<trkpt lat="52.043973" lon="05.778839"><ele>19.7</ele><time>2022-03-04T15:01:01Z</time><name>PT4129</name></trkpt>
<trkpt lat="52.043970" lon="05.778826"><ele>19.8</ele><time>2022-03-04T15:01:01Z</time><name>PT4130</name></trkpt>
<trkpt lat="52.043969" lon="05.778812"><ele>19.7</ele><time>2022-03-04T15:01:02Z</time><name>PT4131</name></trkpt>
<trkpt lat="52.043966" lon="05.778797"><ele>19.6</ele><time>2022-03-04T15:01:03Z</time><name>PT4132</name></trkpt>
<trkpt lat="52.043962" lon="05.778773"><ele>19.5</ele><time>2022-03-04T15:01:04Z</time><name>PT4133</name></trkpt>
<trkpt lat="52.043964" lon="05.778749"><ele>19.5</ele><time>2022-03-04T15:01:05Z</time><name>PT4134</name></trkpt>
<trkpt lat="52.043965" lon="05.778733"><ele>19.5</ele><time>2022-03-04T15:01:07Z</time><name>PT4135</name></trkpt>
<trkpt lat="52.043958" lon="05.778716"><ele>19.6</ele><time>2022-03-04T15:01:07Z</time><name>PT4136</name></trkpt>
<trkpt lat="52.043953" lon="05.778702"><ele>19.8</ele><time>2022-03-04T15:01:09Z</time><name>PT4137</name></trkpt>
<trkpt lat="52.043952" lon="05.778687"><ele>19.8</ele><time>2022-03-04T15:01:09Z</time><name>PT4138</name></trkpt>
<trkpt lat="52.043950" lon="05.778674"><ele>19.6</ele><time>2022-03-04T15:01:10Z</time><name>PT4139</name></trkpt>
<trkpt lat="52.043946" lon="05.778653"><ele>19.6</ele><time>2022-03-04T15:01:11Z</time><name>PT4140</name></trkpt>
<trkpt lat="52.043940" lon="05.778636"><ele>19.5</ele><time>2022-03-04T15:01:12Z</time><name>PT4141</name></trkpt>
<trkpt lat="52.043941" lon="05.778619"><ele>19.4</ele><time>2022-03-04T15:01:13Z</time><name>PT4142</name></trkpt>
<trkpt lat="52.043942" lon="05.778599"><ele>19.3</ele><time>2022-03-04T15:01:14Z</time><name>PT4143</name></trkpt>
<trkpt lat="52.043939" lon="05.778584"><ele>19.3</ele><time>2022-03-04T15:01:16Z</time><name>PT4144</name></trkpt>
<trkpt lat="52.043939" lon="05.778569"><ele>19.2</ele><time>2022-03-04T15:01:16Z</time><name>PT4145</name></trkpt>
<trkpt lat="52.043923" lon="05.778554"><ele>19.1</ele><time>2022-03-04T15:01:17Z</time><name>PT4146</name></trkpt>
<trkpt lat="52.043918" lon="05.778538"><ele>19.2</ele><time>2022-03-04T15:01:19Z</time><name>PT4147</name></trkpt>
<trkpt lat="52.043916" lon="05.778517"><ele>19.2</ele><time>2022-03-04T15:01:19Z</time><name>PT4148</name></trkpt>
<trkpt lat="52.043917" lon="05.778494"><ele>19.2</ele><time>2022-03-04T15:01:20Z</time><name>PT4149</name></trkpt>
<trkpt lat="52.043915" lon="05.778474"><ele>19.3</ele><time>2022-03-04T15:01:21Z</time><name>PT4150</name></trkpt>
<trkpt lat="52.043916" lon="05.778455"><ele>19.4</ele><time>2022-03-04T15:01:22Z</time><name>PT4151</name></trkpt>
<trkpt lat="52.043917" lon="05.778438"><ele>19.3</ele><time>2022-03-04T15:01:23Z</time><name>PT4152</name></trkpt>
<trkpt lat="52.043914" lon="05.778421"><ele>19.4</ele><time>2022-03-04T15:01:25Z</time><name>PT4153</name></trkpt>
<trkpt lat="52.043913" lon="05.778399"><ele>19.4</ele><time>2022-03-04T15:01:25Z</time><name>PT4154</name></trkpt>
<trkpt lat="52.043915" lon="05.778376"><ele>19.4</ele><time>2022-03-04T15:01:26Z</time><name>PT4155</name></trkpt>
<trkpt lat="52.043912" lon="05.778356"><ele>19.3</ele><time>2022-03-04T15:01:28Z</time><name>PT4156</name></trkpt>
<trkpt lat="52.043910" lon="05.778338"><ele>19.3</ele><time>2022-03-04T15:01:28Z</time><name>PT4157</name></trkpt>
<trkpt lat="52.043911" lon="05.778325"><ele>19.2</ele><time>2022-03-04T15:01:29Z</time><name>PT4158</name></trkpt>
<trkpt lat="52.043914" lon="05.778314"><ele>18.9</ele><time>2022-03-04T15:01:31Z</time><name>PT4159</name></trkpt>
<trkpt lat="52.043913" lon="05.778296"><ele>18.8</ele><time>2022-03-04T15:01:31Z</time><name>PT4160</name></trkpt>
<trkpt lat="52.043911" lon="05.778283"><ele>18.7</ele><time>2022-03-04T15:01:32Z</time><name>PT4161</name></trkpt>
<trkpt lat="52.043910" lon="05.778273"><ele>18.6</ele><time>2022-03-04T15:01:33Z</time><name>PT4162</name></trkpt>
<trkpt lat="52.043908" lon="05.778254"><ele>18.6</ele><time>2022-03-04T15:01:34Z</time><name>PT4163</name></trkpt>
<trkpt lat="52.043905" lon="05.778229"><ele>18.5</ele><time>2022-03-04T15:01:35Z</time><name>PT4164</name></trkpt>
<trkpt lat="52.043904" lon="05.778206"><ele>18.6</ele><time>2022-03-04T15:01:37Z</time><name>PT4165</name></trkpt>
<trkpt lat="52.043903" lon="05.778192"><ele>18.4</ele><time>2022-03-04T15:01:37Z</time><name>PT4166</name></trkpt>
<trkpt lat="52.043903" lon="05.778179"><ele>18.7</ele><time>2022-03-04T15:01:38Z</time><name>PT4167</name></trkpt>
<trkpt lat="52.043900" lon="05.778168"><ele>18.5</ele><time>2022-03-04T15:01:40Z</time><name>PT4168</name></trkpt>
<trkpt lat="52.043892" lon="05.778126"><ele>18.5</ele><time>2022-03-04T15:01:41Z</time><name>PT4169</name></trkpt>
<trkpt lat="52.043887" lon="05.778106"><ele>18.6</ele><time>2022-03-04T15:01:43Z</time><name>PT4170</name></trkpt>
<trkpt lat="52.043880" lon="05.778090"><ele>18.6</ele><time>2022-03-04T15:01:43Z</time><name>PT4171</name></trkpt>
<trkpt lat="52.043877" lon="05.778079"><ele>18.7</ele><time>2022-03-04T15:01:44Z</time><name>PT4172</name></trkpt>
<trkpt lat="52.043880" lon="05.778064"><ele>18.8</ele><time>2022-03-04T15:01:45Z</time><name>PT4173</name></trkpt>
<trkpt lat="52.043878" lon="05.778045"><ele>18.7</ele><time>2022-03-04T15:01:46Z</time><name>PT4174</name></trkpt>
<trkpt lat="52.043877" lon="05.778021"><ele>18.7</ele><time>2022-03-04T15:01:47Z</time><name>PT4175</name></trkpt>
<trkpt lat="52.043874" lon="05.777998"><ele>18.7</ele><time>2022-03-04T15:01:48Z</time><name>PT4176</name></trkpt>
<trkpt lat="52.043875" lon="05.777977"><ele>18.6</ele><time>2022-03-04T15:01:49Z</time><name>PT4177</name></trkpt>
<trkpt lat="52.043873" lon="05.777962"><ele>18.5</ele><time>2022-03-04T15:01:50Z</time><name>PT4178</name></trkpt>
<trkpt lat="52.043874" lon="05.777947"><ele>18.5</ele><time>2022-03-04T15:01:51Z</time><name>PT4179</name></trkpt>
<trkpt lat="52.043869" lon="05.777931"><ele>18.6</ele><time>2022-03-04T15:01:52Z</time><name>PT4180</name></trkpt>
<trkpt lat="52.043868" lon="05.777908"><ele>18.6</ele><time>2022-03-04T15:01:53Z</time><name>PT4181</name></trkpt>
<trkpt lat="52.043867" lon="05.777893"><ele>18.6</ele><time>2022-03-04T15:01:54Z</time><name>PT4182</name></trkpt>
<trkpt lat="52.043866" lon="05.777879"><ele>18.8</ele><time>2022-03-04T15:01:55Z</time><name>PT4183</name></trkpt>
<trkpt lat="52.043861" lon="05.777868"><ele>18.8</ele><time>2022-03-04T15:01:56Z</time><name>PT4184</name></trkpt>
<trkpt lat="52.043860" lon="05.777845"><ele>18.8</ele><time>2022-03-04T15:01:58Z</time><name>PT4185</name></trkpt>
<trkpt lat="52.043858" lon="05.777828"><ele>18.7</ele><time>2022-03-04T15:01:58Z</time><name>PT4186</name></trkpt>
<trkpt lat="52.043850" lon="05.777817"><ele>18.7</ele><time>2022-03-04T15:01:59Z</time><name>PT4187</name></trkpt>
<trkpt lat="52.043843" lon="05.777803"><ele>18.4</ele><time>2022-03-04T15:02:01Z</time><name>PT4188</name></trkpt>
<trkpt lat="52.043838" lon="05.777789"><ele>18.4</ele><time>2022-03-04T15:02:01Z</time><name>PT4189</name></trkpt>
<trkpt lat="52.043832" lon="05.777774"><ele>18.4</ele><time>2022-03-04T15:02:02Z</time><name>PT4190</name></trkpt>
<trkpt lat="52.043829" lon="05.777758"><ele>18.2</ele><time>2022-03-04T15:02:04Z</time><name>PT4191</name></trkpt>
<trkpt lat="52.043826" lon="05.777735"><ele>18.2</ele><time>2022-03-04T15:02:04Z</time><name>PT4192</name></trkpt>
<trkpt lat="52.043823" lon="05.777717"><ele>18.2</ele><time>2022-03-04T15:02:05Z</time><name>PT4193</name></trkpt>
<trkpt lat="52.043823" lon="05.777702"><ele>18.2</ele><time>2022-03-04T15:02:06Z</time><name>PT4194</name></trkpt>
<trkpt lat="52.043818" lon="05.777689"><ele>18.2</ele><time>2022-03-04T15:02:07Z</time><name>PT4195</name></trkpt>
<trkpt lat="52.043813" lon="05.777676"><ele>18.3</ele><time>2022-03-04T15:02:08Z</time><name>PT4196</name></trkpt>
<trkpt lat="52.043812" lon="05.777657"><ele>18.4</ele><time>2022-03-04T15:02:10Z</time><name>PT4197</name></trkpt>
<trkpt lat="52.043810" lon="05.777633"><ele>18.4</ele><time>2022-03-04T15:02:10Z</time><name>PT4198</name></trkpt>
<trkpt lat="52.043811" lon="05.777611"><ele>18.4</ele><time>2022-03-04T15:02:11Z</time><name>PT4199</name></trkpt>
<trkpt lat="52.043810" lon="05.777599"><ele>18.6</ele><time>2022-03-04T15:02:13Z</time><name>PT4200</name></trkpt>
<trkpt lat="52.043809" lon="05.777580"><ele>18.8</ele><time>2022-03-04T15:02:13Z</time><name>PT4201</name></trkpt>
<trkpt lat="52.043806" lon="05.777568"><ele>19.1</ele><time>2022-03-04T15:02:14Z</time><name>PT4202</name></trkpt>
<trkpt lat="52.043801" lon="05.777555"><ele>19</ele><time>2022-03-04T15:02:16Z</time><name>PT4203</name></trkpt>
<trkpt lat="52.043791" lon="05.777536"><ele>18.9</ele><time>2022-03-04T15:02:16Z</time><name>PT4204</name></trkpt>
<trkpt lat="52.043785" lon="05.777521"><ele>18.8</ele><time>2022-03-04T15:02:17Z</time><name>PT4205</name></trkpt>
<trkpt lat="52.043780" lon="05.777506"><ele>18.4</ele><time>2022-03-04T15:02:18Z</time><name>PT4206</name></trkpt>
<trkpt lat="52.043776" lon="05.777495"><ele>18.4</ele><time>2022-03-04T15:02:19Z</time><name>PT4207</name></trkpt>
<trkpt lat="52.043774" lon="05.777480"><ele>18.2</ele><time>2022-03-04T15:02:20Z</time><name>PT4208</name></trkpt>
<trkpt lat="52.043771" lon="05.777467"><ele>18.3</ele><time>2022-03-04T15:02:22Z</time><name>PT4209</name></trkpt>
<trkpt lat="52.043767" lon="05.777443"><ele>18.3</ele><time>2022-03-04T15:02:22Z</time><name>PT4210</name></trkpt>
<trkpt lat="52.043764" lon="05.777423"><ele>18.3</ele><time>2022-03-04T15:02:23Z</time><name>PT4211</name></trkpt>
<trkpt lat="52.043758" lon="05.777405"><ele>18.3</ele><time>2022-03-04T15:02:24Z</time><name>PT4212</name></trkpt>
<trkpt lat="52.043756" lon="05.777384"><ele>18.3</ele><time>2022-03-04T15:02:25Z</time><name>PT4213</name></trkpt>
<trkpt lat="52.043753" lon="05.777364"><ele>18.4</ele><time>2022-03-04T15:02:26Z</time><name>PT4214</name></trkpt>
<trkpt lat="52.043750" lon="05.777344"><ele>18.3</ele><time>2022-03-04T15:02:27Z</time><name>PT4215</name></trkpt>
<trkpt lat="52.043746" lon="05.777328"><ele>18.4</ele><time>2022-03-04T15:02:28Z</time><name>PT4216</name></trkpt>
<trkpt lat="52.043741" lon="05.777315"><ele>18.4</ele><time>2022-03-04T15:02:29Z</time><name>PT4217</name></trkpt>
<trkpt lat="52.043733" lon="05.777302"><ele>18.6</ele><time>2022-03-04T15:02:30Z</time><name>PT4218</name></trkpt>
<trkpt lat="52.043725" lon="05.777290"><ele>18.6</ele><time>2022-03-04T15:02:31Z</time><name>PT4219</name></trkpt>
<trkpt lat="52.043717" lon="05.777276"><ele>18.4</ele><time>2022-03-04T15:02:32Z</time><name>PT4220</name></trkpt>
<trkpt lat="52.043710" lon="05.777261"><ele>18.2</ele><time>2022-03-04T15:02:33Z</time><name>PT4221</name></trkpt>
<trkpt lat="52.043707" lon="05.777247"><ele>18.2</ele><time>2022-03-04T15:02:34Z</time><name>PT4222</name></trkpt>
<trkpt lat="52.043703" lon="05.777234"><ele>18.1</ele><time>2022-03-04T15:02:35Z</time><name>PT4223</name></trkpt>
<trkpt lat="52.043696" lon="05.777220"><ele>18.1</ele><time>2022-03-04T15:02:36Z</time><name>PT4224</name></trkpt>
<trkpt lat="52.043691" lon="05.777208"><ele>18</ele><time>2022-03-04T15:02:37Z</time><name>PT4225</name></trkpt>
<trkpt lat="52.043684" lon="05.777198"><ele>18.2</ele><time>2022-03-04T15:02:38Z</time><name>PT4226</name></trkpt>
<trkpt lat="52.043676" lon="05.777186"><ele>18</ele><time>2022-03-04T15:02:39Z</time><name>PT4227</name></trkpt>
<trkpt lat="52.043669" lon="05.777170"><ele>18</ele><time>2022-03-04T15:02:40Z</time><name>PT4228</name></trkpt>
<trkpt lat="52.043663" lon="05.777152"><ele>17.9</ele><time>2022-03-04T15:02:41Z</time><name>PT4229</name></trkpt>
<trkpt lat="52.043656" lon="05.777137"><ele>17.9</ele><time>2022-03-04T15:02:42Z</time><name>PT4230</name></trkpt>
<trkpt lat="52.043653" lon="05.777127"><ele>17.7</ele><time>2022-03-04T15:02:43Z</time><name>PT4231</name></trkpt>
<trkpt lat="52.043647" lon="05.777119"><ele>17.6</ele><time>2022-03-04T15:02:44Z</time><name>PT4232</name></trkpt>
<trkpt lat="52.043638" lon="05.777110"><ele>17.5</ele><time>2022-03-04T15:02:46Z</time><name>PT4233</name></trkpt>
<trkpt lat="52.043630" lon="05.777102"><ele>17.4</ele><time>2022-03-04T15:02:46Z</time><name>PT4234</name></trkpt>
<trkpt lat="52.043623" lon="05.777093"><ele>17.4</ele><time>2022-03-04T15:02:47Z</time><name>PT4235</name></trkpt>
<trkpt lat="52.043614" lon="05.777085"><ele>17.3</ele><time>2022-03-04T15:02:48Z</time><name>PT4236</name></trkpt>
<trkpt lat="52.043604" lon="05.777074"><ele>17.4</ele><time>2022-03-04T15:02:49Z</time><name>PT4237</name></trkpt>
<trkpt lat="52.043597" lon="05.777060"><ele>17.5</ele><time>2022-03-04T15:02:50Z</time><name>PT4238</name></trkpt>
<trkpt lat="52.043587" lon="05.777048"><ele>17.5</ele><time>2022-03-04T15:02:51Z</time><name>PT4239</name></trkpt>
<trkpt lat="52.043579" lon="05.777036"><ele>17.5</ele><time>2022-03-04T15:02:52Z</time><name>PT4240</name></trkpt>
<trkpt lat="52.043572" lon="05.777023"><ele>17.4</ele><time>2022-03-04T15:02:53Z</time><name>PT4241</name></trkpt>
<trkpt lat="52.043564" lon="05.777010"><ele>17</ele><time>2022-03-04T15:02:55Z</time><name>PT4242</name></trkpt>
<trkpt lat="52.043554" lon="05.776992"><ele>16.9</ele><time>2022-03-04T15:02:55Z</time><name>PT4243</name></trkpt>
<trkpt lat="52.043545" lon="05.776969"><ele>16.7</ele><time>2022-03-04T15:02:56Z</time><name>PT4244</name></trkpt>
<trkpt lat="52.043542" lon="05.776954"><ele>16.5</ele><time>2022-03-04T15:02:58Z</time><name>PT4245</name></trkpt>
<trkpt lat="52.043538" lon="05.776943"><ele>16.5</ele><time>2022-03-04T15:02:58Z</time><name>PT4246</name></trkpt>
<trkpt lat="52.043534" lon="05.776933"><ele>16.7</ele><time>2022-03-04T15:02:59Z</time><name>PT4247</name></trkpt>
<trkpt lat="52.043529" lon="05.776921"><ele>16.8</ele><time>2022-03-04T15:03:00Z</time><name>PT4248</name></trkpt>
<trkpt lat="52.043523" lon="05.776907"><ele>16.7</ele><time>2022-03-04T15:03:01Z</time><name>PT4249</name></trkpt>
<trkpt lat="52.043519" lon="05.776885"><ele>16.6</ele><time>2022-03-04T15:03:02Z</time><name>PT4250</name></trkpt>
<trkpt lat="52.043516" lon="05.776864"><ele>16.7</ele><time>2022-03-04T15:03:03Z</time><name>PT4251</name></trkpt>
<trkpt lat="52.043513" lon="05.776845"><ele>16.6</ele><time>2022-03-04T15:03:04Z</time><name>PT4252</name></trkpt>
<trkpt lat="52.043508" lon="05.776831"><ele>16.6</ele><time>2022-03-04T15:03:05Z</time><name>PT4253</name></trkpt>
<trkpt lat="52.043508" lon="05.776815"><ele>16.7</ele><time>2022-03-04T15:03:06Z</time><name>PT4254</name></trkpt>
<trkpt lat="52.043511" lon="05.776805"><ele>16.7</ele><time>2022-03-04T15:03:07Z</time><name>PT4255</name></trkpt>
<trkpt lat="52.043509" lon="05.776791"><ele>16.8</ele><time>2022-03-04T15:03:08Z</time><name>PT4256</name></trkpt>
<trkpt lat="52.043508" lon="05.776767"><ele>17</ele><time>2022-03-04T15:03:09Z</time><name>PT4257</name></trkpt>
<trkpt lat="52.043511" lon="05.776745"><ele>16.9</ele><time>2022-03-04T15:03:10Z</time><name>PT4258</name></trkpt>
<trkpt lat="52.043511" lon="05.776727"><ele>16.8</ele><time>2022-03-04T15:03:11Z</time><name>PT4259</name></trkpt>
<trkpt lat="52.043509" lon="05.776710"><ele>16.7</ele><time>2022-03-04T15:03:12Z</time><name>PT4260</name></trkpt>
<trkpt lat="52.043508" lon="05.776693"><ele>16.6</ele><time>2022-03-04T15:03:13Z</time><name>PT4261</name></trkpt>
<trkpt lat="52.043505" lon="05.776678"><ele>16.5</ele><time>2022-03-04T15:03:14Z</time><name>PT4262</name></trkpt>
<trkpt lat="52.043503" lon="05.776658"><ele>16.2</ele><time>2022-03-04T15:03:15Z</time><name>PT4263</name></trkpt>
<trkpt lat="52.043507" lon="05.776633"><ele>16.1</ele><time>2022-03-04T15:03:16Z</time><name>PT4264</name></trkpt>
<trkpt lat="52.043509" lon="05.776610"><ele>16</ele><time>2022-03-04T15:03:17Z</time><name>PT4265</name></trkpt>
<trkpt lat="52.043509" lon="05.776591"><ele>16</ele><time>2022-03-04T15:03:18Z</time><name>PT4266</name></trkpt>
<trkpt lat="52.043510" lon="05.776575"><ele>15.9</ele><time>2022-03-04T15:03:19Z</time><name>PT4267</name></trkpt>
<trkpt lat="52.043510" lon="05.776563"><ele>16.1</ele><time>2022-03-04T15:03:20Z</time><name>PT4268</name></trkpt>
<trkpt lat="52.043509" lon="05.776544"><ele>16.1</ele><time>2022-03-04T15:03:21Z</time><name>PT4269</name></trkpt>
<trkpt lat="52.043513" lon="05.776523"><ele>16.1</ele><time>2022-03-04T15:03:22Z</time><name>PT4270</name></trkpt>
<trkpt lat="52.043516" lon="05.776507"><ele>15.9</ele><time>2022-03-04T15:03:23Z</time><name>PT4271</name></trkpt>
<trkpt lat="52.043519" lon="05.776498"><ele>15.9</ele><time>2022-03-04T15:03:24Z</time><name>PT4272</name></trkpt>
<trkpt lat="52.043521" lon="05.776488"><ele>15.9</ele><time>2022-03-04T15:03:25Z</time><name>PT4273</name></trkpt>
<trkpt lat="52.043524" lon="05.776473"><ele>16</ele><time>2022-03-04T15:03:26Z</time><name>PT4274</name></trkpt>
<trkpt lat="52.043529" lon="05.776451"><ele>16</ele><time>2022-03-04T15:03:27Z</time><name>PT4275</name></trkpt>
<trkpt lat="52.043531" lon="05.776417"><ele>16.1</ele><time>2022-03-04T15:03:28Z</time><name>PT4276</name></trkpt>
<trkpt lat="52.043536" lon="05.776394"><ele>15.9</ele><time>2022-03-04T15:03:29Z</time><name>PT4277</name></trkpt>
<trkpt lat="52.043540" lon="05.776377"><ele>15.8</ele><time>2022-03-04T15:03:30Z</time><name>PT4278</name></trkpt>
<trkpt lat="52.043547" lon="05.776369"><ele>15.8</ele><time>2022-03-04T15:03:31Z</time><name>PT4279</name></trkpt>
<trkpt lat="52.043552" lon="05.776357"><ele>15.9</ele><time>2022-03-04T15:03:32Z</time><name>PT4280</name></trkpt>
<trkpt lat="52.043559" lon="05.776339"><ele>15.7</ele><time>2022-03-04T15:03:33Z</time><name>PT4281</name></trkpt>
<trkpt lat="52.043573" lon="05.776330"><ele>16</ele><time>2022-03-04T15:03:34Z</time><name>PT4282</name></trkpt>
<trkpt lat="52.043584" lon="05.776319"><ele>16.2</ele><time>2022-03-04T15:03:35Z</time><name>PT4283</name></trkpt>
<trkpt lat="52.043594" lon="05.776312"><ele>16.2</ele><time>2022-03-04T15:03:37Z</time><name>PT4284</name></trkpt>
<trkpt lat="52.043603" lon="05.776306"><ele>16.3</ele><time>2022-03-04T15:03:37Z</time><name>PT4285</name></trkpt>
<trkpt lat="52.043608" lon="05.776302"><ele>16.5</ele><time>2022-03-04T15:03:38Z</time><name>PT4286</name></trkpt>
<trkpt lat="52.043614" lon="05.776299"><ele>16.4</ele><time>2022-03-04T15:03:39Z</time><name>PT4287</name></trkpt>
<trkpt lat="52.043624" lon="05.776293"><ele>16.2</ele><time>2022-03-04T15:03:40Z</time><name>PT4288</name></trkpt>
<trkpt lat="52.043638" lon="05.776290"><ele>16.2</ele><time>2022-03-04T15:03:41Z</time><name>PT4289</name></trkpt>
<trkpt lat="52.043650" lon="05.776290"><ele>16.1</ele><time>2022-03-04T15:03:42Z</time><name>PT4290</name></trkpt>
<trkpt lat="52.043661" lon="05.776289"><ele>16.1</ele><time>2022-03-04T15:03:43Z</time><name>PT4291</name></trkpt>
<trkpt lat="52.043670" lon="05.776290"><ele>16.3</ele><time>2022-03-04T15:03:44Z</time><name>PT4292</name></trkpt>
<trkpt lat="52.043680" lon="05.776288"><ele>16.4</ele><time>2022-03-04T15:03:45Z</time><name>PT4293</name></trkpt>
<trkpt lat="52.043691" lon="05.776282"><ele>16.4</ele><time>2022-03-04T15:03:46Z</time><name>PT4294</name></trkpt>
<trkpt lat="52.043704" lon="05.776274"><ele>16.5</ele><time>2022-03-04T15:03:47Z</time><name>PT4295</name></trkpt>
<trkpt lat="52.043713" lon="05.776277"><ele>16.5</ele><time>2022-03-04T15:03:48Z</time><name>PT4296</name></trkpt>
<trkpt lat="52.043726" lon="05.776276"><ele>16.5</ele><time>2022-03-04T15:03:49Z</time><name>PT4297</name></trkpt>
<trkpt lat="52.043739" lon="05.776275"><ele>16.5</ele><time>2022-03-04T15:03:50Z</time><name>PT4298</name></trkpt>
<trkpt lat="52.043746" lon="05.776276"><ele>16.5</ele><time>2022-03-04T15:03:51Z</time><name>PT4299</name></trkpt>
<trkpt lat="52.043753" lon="05.776275"><ele>16.5</ele><time>2022-03-04T15:03:52Z</time><name>PT4300</name></trkpt>
<trkpt lat="52.043762" lon="05.776274"><ele>16.6</ele><time>2022-03-04T15:03:53Z</time><name>PT4301</name></trkpt>
<trkpt lat="52.043771" lon="05.776267"><ele>16.6</ele><time>2022-03-04T15:03:54Z</time><name>PT4302</name></trkpt>
<trkpt lat="52.043784" lon="05.776264"><ele>16.7</ele><time>2022-03-04T15:03:55Z</time><name>PT4303</name></trkpt>
<trkpt lat="52.043795" lon="05.776260"><ele>16.7</ele><time>2022-03-04T15:03:56Z</time><name>PT4304</name></trkpt>
<trkpt lat="52.043809" lon="05.776256"><ele>16.9</ele><time>2022-03-04T15:03:57Z</time><name>PT4305</name></trkpt>
<trkpt lat="52.043820" lon="05.776258"><ele>16.9</ele><time>2022-03-04T15:03:58Z</time><name>PT4306</name></trkpt>
<trkpt lat="52.043832" lon="05.776258"><ele>17</ele><time>2022-03-04T15:03:59Z</time><name>PT4307</name></trkpt>
<trkpt lat="52.043842" lon="05.776259"><ele>17.2</ele><time>2022-03-04T15:04:00Z</time><name>PT4308</name></trkpt>
<trkpt lat="52.043845" lon="05.776264"><ele>17.2</ele><time>2022-03-04T15:04:01Z</time><name>PT4309</name></trkpt>
<trkpt lat="52.043846" lon="05.776266"><ele>17.3</ele><time>2022-03-04T15:04:02Z</time><name>PT4310</name></trkpt>
<trkpt lat="52.043852" lon="05.776265"><ele>17.3</ele><time>2022-03-04T15:04:03Z</time><name>PT4311</name></trkpt>
<trkpt lat="52.043859" lon="05.776261"><ele>17.4</ele><time>2022-03-04T15:04:04Z</time><name>PT4312</name></trkpt>
<trkpt lat="52.043868" lon="05.776259"><ele>17.3</ele><time>2022-03-04T15:04:05Z</time><name>PT4313</name></trkpt>
<trkpt lat="52.043881" lon="05.776256"><ele>17.3</ele><time>2022-03-04T15:04:07Z</time><name>PT4314</name></trkpt>
<trkpt lat="52.043893" lon="05.776252"><ele>17.3</ele><time>2022-03-04T15:04:07Z</time><name>PT4315</name></trkpt>
<trkpt lat="52.043906" lon="05.776248"><ele>17.4</ele><time>2022-03-04T15:04:08Z</time><name>PT4316</name></trkpt>
<trkpt lat="52.043916" lon="05.776246"><ele>17.3</ele><time>2022-03-04T15:04:09Z</time><name>PT4317</name></trkpt>
<trkpt lat="52.043924" lon="05.776246"><ele>17.3</ele><time>2022-03-04T15:04:10Z</time><name>PT4318</name></trkpt>
<trkpt lat="52.043933" lon="05.776243"><ele>17.3</ele><time>2022-03-04T15:04:11Z</time><name>PT4319</name></trkpt>
<trkpt lat="52.043944" lon="05.776239"><ele>17.2</ele><time>2022-03-04T15:04:12Z</time><name>PT4320</name></trkpt>
<trkpt lat="52.043956" lon="05.776234"><ele>17.2</ele><time>2022-03-04T15:04:13Z</time><name>PT4321</name></trkpt>
<trkpt lat="52.043970" lon="05.776241"><ele>17.4</ele><time>2022-03-04T15:04:14Z</time><name>PT4322</name></trkpt>
<trkpt lat="52.043986" lon="05.776242"><ele>17.5</ele><time>2022-03-04T15:04:15Z</time><name>PT4323</name></trkpt>
<trkpt lat="52.043997" lon="05.776241"><ele>17.5</ele><time>2022-03-04T15:04:16Z</time><name>PT4324</name></trkpt>
<trkpt lat="52.044008" lon="05.776241"><ele>17.5</ele><time>2022-03-04T15:04:17Z</time><name>PT4325</name></trkpt>
<trkpt lat="52.044017" lon="05.776240"><ele>17.5</ele><time>2022-03-04T15:04:18Z</time><name>PT4326</name></trkpt>
<trkpt lat="52.044023" lon="05.776242"><ele>17.4</ele><time>2022-03-04T15:04:19Z</time><name>PT4327</name></trkpt>
<trkpt lat="52.044031" lon="05.776242"><ele>17.5</ele><time>2022-03-04T15:04:20Z</time><name>PT4328</name></trkpt>
<trkpt lat="52.044043" lon="05.776239"><ele>17.5</ele><time>2022-03-04T15:04:21Z</time><name>PT4329</name></trkpt>
<trkpt lat="52.044059" lon="05.776234"><ele>17.6</ele><time>2022-03-04T15:04:22Z</time><name>PT4330</name></trkpt>
<trkpt lat="52.044079" lon="05.776228"><ele>17.6</ele><time>2022-03-04T15:04:23Z</time><name>PT4331</name></trkpt>
<trkpt lat="52.044096" lon="05.776229"><ele>17.6</ele><time>2022-03-04T15:04:24Z</time><name>PT4332</name></trkpt>
<trkpt lat="52.044109" lon="05.776230"><ele>17.5</ele><time>2022-03-04T15:04:25Z</time><name>PT4333</name></trkpt>
<trkpt lat="52.044120" lon="05.776232"><ele>17.5</ele><time>2022-03-04T15:04:26Z</time><name>PT4334</name></trkpt>
<trkpt lat="52.044131" lon="05.776229"><ele>17.5</ele><time>2022-03-04T15:04:28Z</time><name>PT4335</name></trkpt>
<trkpt lat="52.044138" lon="05.776228"><ele>17.5</ele><time>2022-03-04T15:04:28Z</time><name>PT4336</name></trkpt>
<trkpt lat="52.044149" lon="05.776231"><ele>17.5</ele><time>2022-03-04T15:04:29Z</time><name>PT4337</name></trkpt>
<trkpt lat="52.044156" lon="05.776231"><ele>17.8</ele><time>2022-03-04T15:04:31Z</time><name>PT4338</name></trkpt>
<trkpt lat="52.044164" lon="05.776227"><ele>17.8</ele><time>2022-03-04T15:04:31Z</time><name>PT4339</name></trkpt>
<trkpt lat="52.044178" lon="05.776224"><ele>17.7</ele><time>2022-03-04T15:04:32Z</time><name>PT4340</name></trkpt>
<trkpt lat="52.044193" lon="05.776215"><ele>17.7</ele><time>2022-03-04T15:04:33Z</time><name>PT4341</name></trkpt>
<trkpt lat="52.044206" lon="05.776213"><ele>17.8</ele><time>2022-03-04T15:04:34Z</time><name>PT4342</name></trkpt>
<trkpt lat="52.044218" lon="05.776213"><ele>17.7</ele><time>2022-03-04T15:04:35Z</time><name>PT4343</name></trkpt>
<trkpt lat="52.044225" lon="05.776215"><ele>17.7</ele><time>2022-03-04T15:04:37Z</time><name>PT4344</name></trkpt>
<trkpt lat="52.044231" lon="05.776215"><ele>17.7</ele><time>2022-03-04T15:04:37Z</time><name>PT4345</name></trkpt>
<trkpt lat="52.044241" lon="05.776213"><ele>17.7</ele><time>2022-03-04T15:04:38Z</time><name>PT4346</name></trkpt>
<trkpt lat="52.044251" lon="05.776211"><ele>17.9</ele><time>2022-03-04T15:04:39Z</time><name>PT4347</name></trkpt>
<trkpt lat="52.044262" lon="05.776207"><ele>17.8</ele><time>2022-03-04T15:04:40Z</time><name>PT4348</name></trkpt>
<trkpt lat="52.044275" lon="05.776203"><ele>17.8</ele><time>2022-03-04T15:04:41Z</time><name>PT4349</name></trkpt>
<trkpt lat="52.044289" lon="05.776198"><ele>17.9</ele><time>2022-03-04T15:04:43Z</time><name>PT4350</name></trkpt>
<trkpt lat="52.044304" lon="05.776193"><ele>18</ele><time>2022-03-04T15:04:43Z</time><name>PT4351</name></trkpt>
<trkpt lat="52.044314" lon="05.776190"><ele>17.8</ele><time>2022-03-04T15:04:44Z</time><name>PT4352</name></trkpt>
<trkpt lat="52.044323" lon="05.776189"><ele>17.8</ele><time>2022-03-04T15:04:46Z</time><name>PT4353</name></trkpt>
<trkpt lat="52.044332" lon="05.776185"><ele>17.8</ele><time>2022-03-04T15:04:46Z</time><name>PT4354</name></trkpt>
<trkpt lat="52.044339" lon="05.776185"><ele>17.9</ele><time>2022-03-04T15:04:47Z</time><name>PT4355</name></trkpt>
<trkpt lat="52.044347" lon="05.776182"><ele>18</ele><time>2022-03-04T15:04:48Z</time><name>PT4356</name></trkpt>
<trkpt lat="52.044355" lon="05.776181"><ele>18</ele><time>2022-03-04T15:04:49Z</time><name>PT4357</name></trkpt>
<trkpt lat="52.044361" lon="05.776184"><ele>18.3</ele><time>2022-03-04T15:04:50Z</time><name>PT4358</name></trkpt>
<trkpt lat="52.044370" lon="05.776185"><ele>18.2</ele><time>2022-03-04T15:04:52Z</time><name>PT4359</name></trkpt>
<trkpt lat="52.044381" lon="05.776180"><ele>18.2</ele><time>2022-03-04T15:04:52Z</time><name>PT4360</name></trkpt>
<trkpt lat="52.044393" lon="05.776178"><ele>18.1</ele><time>2022-03-04T15:04:53Z</time><name>PT4361</name></trkpt>
<trkpt lat="52.044401" lon="05.776176"><ele>18</ele><time>2022-03-04T15:04:54Z</time><name>PT4362</name></trkpt>
<trkpt lat="52.044411" lon="05.776172"><ele>18</ele><time>2022-03-04T15:04:55Z</time><name>PT4363</name></trkpt>
<trkpt lat="52.044421" lon="05.776165"><ele>18</ele><time>2022-03-04T15:04:56Z</time><name>PT4364</name></trkpt>
<trkpt lat="52.044440" lon="05.776163"><ele>18.1</ele><time>2022-03-04T15:04:57Z</time><name>PT4365</name></trkpt>
<trkpt lat="52.044453" lon="05.776162"><ele>18.1</ele><time>2022-03-04T15:04:58Z</time><name>PT4366</name></trkpt>
<trkpt lat="52.044468" lon="05.776161"><ele>18.2</ele><time>2022-03-04T15:04:59Z</time><name>PT4367</name></trkpt>
<trkpt lat="52.044477" lon="05.776160"><ele>18.3</ele><time>2022-03-04T15:05:00Z</time><name>PT4368</name></trkpt>
<trkpt lat="52.044485" lon="05.776160"><ele>18.4</ele><time>2022-03-04T15:05:01Z</time><name>PT4369</name></trkpt>
<trkpt lat="52.044493" lon="05.776156"><ele>18.3</ele><time>2022-03-04T15:05:02Z</time><name>PT4370</name></trkpt>
<trkpt lat="52.044501" lon="05.776151"><ele>18.2</ele><time>2022-03-04T15:05:03Z</time><name>PT4371</name></trkpt>
<trkpt lat="52.044516" lon="05.776141"><ele>18.2</ele><time>2022-03-04T15:05:04Z</time><name>PT4372</name></trkpt>
<trkpt lat="52.044530" lon="05.776142"><ele>18.4</ele><time>2022-03-04T15:05:05Z</time><name>PT4373</name></trkpt>
<trkpt lat="52.044539" lon="05.776142"><ele>18.4</ele><time>2022-03-04T15:05:06Z</time><name>PT4374</name></trkpt>
<trkpt lat="52.044545" lon="05.776138"><ele>18.4</ele><time>2022-03-04T15:05:07Z</time><name>PT4375</name></trkpt>
<trkpt lat="52.044546" lon="05.776134"><ele>18.4</ele><time>2022-03-04T15:05:08Z</time><name>PT4376</name></trkpt>
<trkpt lat="52.044545" lon="05.776129"><ele>18.4</ele><time>2022-03-04T15:05:09Z</time><name>PT4377</name></trkpt>
<trkpt lat="52.044542" lon="05.776125"><ele>18.2</ele><time>2022-03-04T15:05:10Z</time><name>PT4378</name></trkpt>
<trkpt lat="52.044540" lon="05.776123"><ele>18.2</ele><time>2022-03-04T15:05:11Z</time><name>PT4379</name></trkpt>
<trkpt lat="52.044546" lon="05.776101"><ele>18.3</ele><time>2022-03-04T15:05:19Z</time><name>PT4380</name></trkpt>
<trkpt lat="52.044548" lon="05.776106"><ele>18.2</ele><time>2022-03-04T15:05:20Z</time><name>PT4381</name></trkpt>
<trkpt lat="52.044551" lon="05.776118"><ele>18.2</ele><time>2022-03-04T15:05:21Z</time><name>PT4382</name></trkpt>
<trkpt lat="52.044556" lon="05.776123"><ele>18.4</ele><time>2022-03-04T15:05:22Z</time><name>PT4383</name></trkpt>
<trkpt lat="52.044562" lon="05.776125"><ele>18.7</ele><time>2022-03-04T15:05:23Z</time><name>PT4384</name></trkpt>
<trkpt lat="52.044561" lon="05.776133"><ele>18.8</ele><time>2022-03-04T15:05:24Z</time><name>PT4385</name></trkpt>
<trkpt lat="52.044561" lon="05.776136"><ele>18.7</ele><time>2022-03-04T15:05:25Z</time><name>PT4386</name></trkpt>
<trkpt lat="52.044561" lon="05.776148"><ele>18.4</ele><time>2022-03-04T15:05:28Z</time><name>PT4387</name></trkpt>
<trkpt lat="52.044558" lon="05.776156"><ele>18.5</ele><time>2022-03-04T15:05:29Z</time><name>PT4388</name></trkpt>
<trkpt lat="52.044559" lon="05.776159"><ele>18.7</ele><time>2022-03-04T15:05:31Z</time><name>PT4389</name></trkpt>
<trkpt lat="52.044558" lon="05.776161"><ele>18.6</ele><time>2022-03-04T15:05:31Z</time><name>PT4390</name></trkpt>
<trkpt lat="52.044563" lon="05.776152"><ele>19</ele><time>2022-03-04T15:05:45Z</time><name>PT4391</name></trkpt>
<trkpt lat="52.044564" lon="05.776150"><ele>19</ele><time>2022-03-04T15:05:46Z</time><name>PT4392</name></trkpt>
<trkpt lat="52.044570" lon="05.776146"><ele>18.8</ele><time>2022-03-04T15:05:47Z</time><name>PT4393</name></trkpt>
<trkpt lat="52.044575" lon="05.776133"><ele>19</ele><time>2022-03-04T15:05:54Z</time><name>PT4394</name></trkpt>
<trkpt lat="52.044574" lon="05.776131"><ele>18.9</ele><time>2022-03-04T15:05:55Z</time><name>PT4395</name></trkpt>
<trkpt lat="52.044574" lon="05.776124"><ele>19.3</ele><time>2022-03-04T15:06:25Z</time><name>PT4396</name></trkpt>
<trkpt lat="52.044578" lon="05.776121"><ele>19.3</ele><time>2022-03-04T15:06:26Z</time><name>PT4397</name></trkpt>
<trkpt lat="52.044582" lon="05.776121"><ele>19.1</ele><time>2022-03-04T15:06:27Z</time><name>PT4398</name></trkpt>
<trkpt lat="52.044587" lon="05.776122"><ele>19.2</ele><time>2022-03-04T15:06:28Z</time><name>PT4399</name></trkpt>
<trkpt lat="52.044591" lon="05.776121"><ele>18.9</ele><time>2022-03-04T15:06:29Z</time><name>PT4400</name></trkpt>
<trkpt lat="52.044591" lon="05.776116"><ele>19</ele><time>2022-03-04T15:06:55Z</time><name>PT4401</name></trkpt>
<trkpt lat="52.044602" lon="05.776112"><ele>19.1</ele><time>2022-03-04T15:06:56Z</time><name>PT4402</name></trkpt>
<trkpt lat="52.044616" lon="05.776110"><ele>19</ele><time>2022-03-04T15:06:57Z</time><name>PT4403</name></trkpt>
<trkpt lat="52.044629" lon="05.776108"><ele>19.2</ele><time>2022-03-04T15:06:58Z</time><name>PT4404</name></trkpt>
<trkpt lat="52.044642" lon="05.776109"><ele>19.2</ele><time>2022-03-04T15:06:59Z</time><name>PT4405</name></trkpt>
<trkpt lat="52.044658" lon="05.776105"><ele>19.1</ele><time>2022-03-04T15:07:00Z</time><name>PT4406</name></trkpt>
<trkpt lat="52.044668" lon="05.776108"><ele>19</ele><time>2022-03-04T15:07:01Z</time><name>PT4407</name></trkpt>
<trkpt lat="52.044677" lon="05.776105"><ele>19</ele><time>2022-03-04T15:07:02Z</time><name>PT4408</name></trkpt>
<trkpt lat="52.044689" lon="05.776104"><ele>18.9</ele><time>2022-03-04T15:07:03Z</time><name>PT4409</name></trkpt>
<trkpt lat="52.044697" lon="05.776106"><ele>18.9</ele><time>2022-03-04T15:07:04Z</time><name>PT4410</name></trkpt>
<trkpt lat="52.044708" lon="05.776109"><ele>18.9</ele><time>2022-03-04T15:07:05Z</time><name>PT4411</name></trkpt>
<trkpt lat="52.044722" lon="05.776112"><ele>18.9</ele><time>2022-03-04T15:07:06Z</time><name>PT4412</name></trkpt>
<trkpt lat="52.044734" lon="05.776113"><ele>18.8</ele><time>2022-03-04T15:07:07Z</time><name>PT4413</name></trkpt>
<trkpt lat="52.044743" lon="05.776114"><ele>18.8</ele><time>2022-03-04T15:07:08Z</time><name>PT4414</name></trkpt>
<trkpt lat="52.044754" lon="05.776114"><ele>18.8</ele><time>2022-03-04T15:07:09Z</time><name>PT4415</name></trkpt>
<trkpt lat="52.044765" lon="05.776110"><ele>18.8</ele><time>2022-03-04T15:07:10Z</time><name>PT4416</name></trkpt>
<trkpt lat="52.044773" lon="05.776107"><ele>18.7</ele><time>2022-03-04T15:07:11Z</time><name>PT4417</name></trkpt>
<trkpt lat="52.044780" lon="05.776104"><ele>18.8</ele><time>2022-03-04T15:07:12Z</time><name>PT4418</name></trkpt>
<trkpt lat="52.044794" lon="05.776097"><ele>18.8</ele><time>2022-03-04T15:07:13Z</time><name>PT4419</name></trkpt>
<trkpt lat="52.044807" lon="05.776093"><ele>18.7</ele><time>2022-03-04T15:07:14Z</time><name>PT4420</name></trkpt>
<trkpt lat="52.044824" lon="05.776090"><ele>18.7</ele><time>2022-03-04T15:07:15Z</time><name>PT4421</name></trkpt>
<trkpt lat="52.044837" lon="05.776092"><ele>18.9</ele><time>2022-03-04T15:07:16Z</time><name>PT4422</name></trkpt>
<trkpt lat="52.044848" lon="05.776093"><ele>18.9</ele><time>2022-03-04T15:07:17Z</time><name>PT4423</name></trkpt>
<trkpt lat="52.044863" lon="05.776095"><ele>19</ele><time>2022-03-04T15:07:18Z</time><name>PT4424</name></trkpt>
<trkpt lat="52.044874" lon="05.776093"><ele>19.1</ele><time>2022-03-04T15:07:19Z</time><name>PT4425</name></trkpt>
<trkpt lat="52.044884" lon="05.776089"><ele>19.1</ele><time>2022-03-04T15:07:20Z</time><name>PT4426</name></trkpt>
<trkpt lat="52.044896" lon="05.776086"><ele>19</ele><time>2022-03-04T15:07:21Z</time><name>PT4427</name></trkpt>
<trkpt lat="52.044906" lon="05.776092"><ele>18.9</ele><time>2022-03-04T15:07:22Z</time><name>PT4428</name></trkpt>
<trkpt lat="52.044920" lon="05.776089"><ele>18.6</ele><time>2022-03-04T15:07:23Z</time><name>PT4429</name></trkpt>
<trkpt lat="52.044930" lon="05.776084"><ele>18.6</ele><time>2022-03-04T15:07:24Z</time><name>PT4430</name></trkpt>
<trkpt lat="52.044941" lon="05.776083"><ele>18.7</ele><time>2022-03-04T15:07:25Z</time><name>PT4431</name></trkpt>
<trkpt lat="52.044956" lon="05.776083"><ele>18.7</ele><time>2022-03-04T15:07:26Z</time><name>PT4432</name></trkpt>
<trkpt lat="52.044972" lon="05.776083"><ele>18.7</ele><time>2022-03-04T15:07:28Z</time><name>PT4433</name></trkpt>
<trkpt lat="52.044982" lon="05.776079"><ele>18.8</ele><time>2022-03-04T15:07:28Z</time><name>PT4434</name></trkpt>
<trkpt lat="52.044993" lon="05.776075"><ele>18.7</ele><time>2022-03-04T15:07:29Z</time><name>PT4435</name></trkpt>
<trkpt lat="52.045002" lon="05.776073"><ele>18.6</ele><time>2022-03-04T15:07:31Z</time><name>PT4436</name></trkpt>
<trkpt lat="52.045012" lon="05.776070"><ele>18.5</ele><time>2022-03-04T15:07:31Z</time><name>PT4437</name></trkpt>
<trkpt lat="52.045023" lon="05.776068"><ele>18.6</ele><time>2022-03-04T15:07:32Z</time><name>PT4438</name></trkpt>
<trkpt lat="52.045038" lon="05.776059"><ele>18.6</ele><time>2022-03-04T15:07:33Z</time><name>PT4439</name></trkpt>
<trkpt lat="52.045048" lon="05.776053"><ele>18.5</ele><time>2022-03-04T15:07:34Z</time><name>PT4440</name></trkpt>
<trkpt lat="52.045058" lon="05.776046"><ele>18.4</ele><time>2022-03-04T15:07:35Z</time><name>PT4441</name></trkpt>
<trkpt lat="52.045066" lon="05.776043"><ele>18.4</ele><time>2022-03-04T15:07:37Z</time><name>PT4442</name></trkpt>
<trkpt lat="52.045074" lon="05.776037"><ele>18.3</ele><time>2022-03-04T15:07:37Z</time><name>PT4443</name></trkpt>
<trkpt lat="52.045081" lon="05.776035"><ele>18.3</ele><time>2022-03-04T15:07:38Z</time><name>PT4444</name></trkpt>
<trkpt lat="52.045090" lon="05.776034"><ele>18.2</ele><time>2022-03-04T15:07:39Z</time><name>PT4445</name></trkpt>
<trkpt lat="52.045102" lon="05.776025"><ele>18.3</ele><time>2022-03-04T15:07:40Z</time><name>PT4446</name></trkpt>
<trkpt lat="52.045112" lon="05.776019"><ele>18.4</ele><time>2022-03-04T15:07:41Z</time><name>PT4447</name></trkpt>
<trkpt lat="52.045123" lon="05.776011"><ele>18.4</ele><time>2022-03-04T15:07:42Z</time><name>PT4448</name></trkpt>
<trkpt lat="52.045136" lon="05.776003"><ele>18.6</ele><time>2022-03-04T15:07:43Z</time><name>PT4449</name></trkpt>
<trkpt lat="52.045149" lon="05.775996"><ele>18.6</ele><time>2022-03-04T15:07:44Z</time><name>PT4450</name></trkpt>
<trkpt lat="52.045162" lon="05.775987"><ele>18.6</ele><time>2022-03-04T15:07:46Z</time><name>PT4451</name></trkpt>
<trkpt lat="52.045174" lon="05.775981"><ele>18.5</ele><time>2022-03-04T15:07:46Z</time><name>PT4452</name></trkpt>
<trkpt lat="52.045183" lon="05.775979"><ele>18.7</ele><time>2022-03-04T15:07:47Z</time><name>PT4453</name></trkpt>
<trkpt lat="52.045193" lon="05.775975"><ele>18.7</ele><time>2022-03-04T15:07:49Z</time><name>PT4454</name></trkpt>
<trkpt lat="52.045204" lon="05.775966"><ele>18.7</ele><time>2022-03-04T15:07:49Z</time><name>PT4455</name></trkpt>
<trkpt lat="52.045213" lon="05.775955"><ele>18.6</ele><time>2022-03-04T15:07:50Z</time><name>PT4456</name></trkpt>
<trkpt lat="52.045224" lon="05.775947"><ele>18.7</ele><time>2022-03-04T15:07:51Z</time><name>PT4457</name></trkpt>
<trkpt lat="52.045235" lon="05.775941"><ele>18.7</ele><time>2022-03-04T15:07:52Z</time><name>PT4458</name></trkpt>
<trkpt lat="52.045246" lon="05.775935"><ele>18.7</ele><time>2022-03-04T15:07:53Z</time><name>PT4459</name></trkpt>
<trkpt lat="52.045259" lon="05.775932"><ele>18.8</ele><time>2022-03-04T15:07:54Z</time><name>PT4460</name></trkpt>
<trkpt lat="52.045270" lon="05.775928"><ele>18.7</ele><time>2022-03-04T15:07:55Z</time><name>PT4461</name></trkpt>
<trkpt lat="52.045278" lon="05.775925"><ele>18.6</ele><time>2022-03-04T15:07:56Z</time><name>PT4462</name></trkpt>
<trkpt lat="52.045290" lon="05.775918"><ele>18.8</ele><time>2022-03-04T15:07:57Z</time><name>PT4463</name></trkpt>
<trkpt lat="52.045298" lon="05.775914"><ele>18.9</ele><time>2022-03-04T15:07:58Z</time><name>PT4464</name></trkpt>
<trkpt lat="52.045309" lon="05.775913"><ele>18.9</ele><time>2022-03-04T15:07:59Z</time><name>PT4465</name></trkpt>
<trkpt lat="52.045313" lon="05.775903"><ele>19.1</ele><time>2022-03-04T15:08:01Z</time><name>PT4466</name></trkpt>
<trkpt lat="52.045320" lon="05.775896"><ele>19.1</ele><time>2022-03-04T15:08:01Z</time><name>PT4467</name></trkpt>
<trkpt lat="52.045333" lon="05.775889"><ele>19</ele><time>2022-03-04T15:08:02Z</time><name>PT4468</name></trkpt>
<trkpt lat="52.045345" lon="05.775881"><ele>19</ele><time>2022-03-04T15:08:03Z</time><name>PT4469</name></trkpt>
<trkpt lat="52.045357" lon="05.775876"><ele>19</ele><time>2022-03-04T15:08:04Z</time><name>PT4470</name></trkpt>
<trkpt lat="52.045369" lon="05.775876"><ele>18.9</ele><time>2022-03-04T15:08:05Z</time><name>PT4471</name></trkpt>
<trkpt lat="52.045383" lon="05.775873"><ele>18.8</ele><time>2022-03-04T15:08:06Z</time><name>PT4472</name></trkpt>
<trkpt lat="52.045396" lon="05.775867"><ele>18.8</ele><time>2022-03-04T15:08:07Z</time><name>PT4473</name></trkpt>
<trkpt lat="52.045410" lon="05.775859"><ele>18.7</ele><time>2022-03-04T15:08:08Z</time><name>PT4474</name></trkpt>
<trkpt lat="52.045422" lon="05.775852"><ele>18.8</ele><time>2022-03-04T15:08:09Z</time><name>PT4475</name></trkpt>
<trkpt lat="52.045435" lon="05.775846"><ele>18.8</ele><time>2022-03-04T15:08:10Z</time><name>PT4476</name></trkpt>
<trkpt lat="52.045449" lon="05.775842"><ele>18.9</ele><time>2022-03-04T15:08:11Z</time><name>PT4477</name></trkpt>
<trkpt lat="52.045462" lon="05.775836"><ele>18.9</ele><time>2022-03-04T15:08:12Z</time><name>PT4478</name></trkpt>
<trkpt lat="52.045473" lon="05.775832"><ele>18.9</ele><time>2022-03-04T15:08:13Z</time><name>PT4479</name></trkpt>
<trkpt lat="52.045483" lon="05.775827"><ele>19</ele><time>2022-03-04T15:08:14Z</time><name>PT4480</name></trkpt>
<trkpt lat="52.045493" lon="05.775822"><ele>19</ele><time>2022-03-04T15:08:15Z</time><name>PT4481</name></trkpt>
<trkpt lat="52.045503" lon="05.775819"><ele>19</ele><time>2022-03-04T15:08:16Z</time><name>PT4482</name></trkpt>
<trkpt lat="52.045518" lon="05.775815"><ele>19.2</ele><time>2022-03-04T15:08:17Z</time><name>PT4483</name></trkpt>
<trkpt lat="52.045529" lon="05.775807"><ele>19.2</ele><time>2022-03-04T15:08:18Z</time><name>PT4484</name></trkpt>
<trkpt lat="52.045540" lon="05.775798"><ele>19.1</ele><time>2022-03-04T15:08:19Z</time><name>PT4485</name></trkpt>
<trkpt lat="52.045552" lon="05.775791"><ele>19.3</ele><time>2022-03-04T15:08:20Z</time><name>PT4486</name></trkpt>
<trkpt lat="52.045564" lon="05.775785"><ele>19.2</ele><time>2022-03-04T15:08:21Z</time><name>PT4487</name></trkpt>
<trkpt lat="52.045578" lon="05.775779"><ele>19</ele><time>2022-03-04T15:08:22Z</time><name>PT4488</name></trkpt>
<trkpt lat="52.045591" lon="05.775774"><ele>19</ele><time>2022-03-04T15:08:23Z</time><name>PT4489</name></trkpt>
<trkpt lat="52.045601" lon="05.775769"><ele>18.9</ele><time>2022-03-04T15:08:24Z</time><name>PT4490</name></trkpt>
<trkpt lat="52.045612" lon="05.775763"><ele>18.8</ele><time>2022-03-04T15:08:25Z</time><name>PT4491</name></trkpt>
<trkpt lat="52.045625" lon="05.775756"><ele>18.8</ele><time>2022-03-04T15:08:26Z</time><name>PT4492</name></trkpt>
<trkpt lat="52.045635" lon="05.775750"><ele>18.8</ele><time>2022-03-04T15:08:27Z</time><name>PT4493</name></trkpt>
<trkpt lat="52.045649" lon="05.775742"><ele>18.9</ele><time>2022-03-04T15:08:28Z</time><name>PT4494</name></trkpt>
<trkpt lat="52.045661" lon="05.775732"><ele>18.9</ele><time>2022-03-04T15:08:29Z</time><name>PT4495</name></trkpt>
<trkpt lat="52.045672" lon="05.775728"><ele>19</ele><time>2022-03-04T15:08:30Z</time><name>PT4496</name></trkpt>
<trkpt lat="52.045683" lon="05.775724"><ele>19</ele><time>2022-03-04T15:08:31Z</time><name>PT4497</name></trkpt>
<trkpt lat="52.045694" lon="05.775720"><ele>19</ele><time>2022-03-04T15:08:33Z</time><name>PT4498</name></trkpt>
<trkpt lat="52.045705" lon="05.775714"><ele>19.3</ele><time>2022-03-04T15:08:33Z</time><name>PT4499</name></trkpt>
<trkpt lat="52.045714" lon="05.775706"><ele>19.1</ele><time>2022-03-04T15:08:34Z</time><name>PT4500</name></trkpt>
<trkpt lat="52.045725" lon="05.775697"><ele>19</ele><time>2022-03-04T15:08:35Z</time><name>PT4501</name></trkpt>
<trkpt lat="52.045737" lon="05.775691"><ele>19.1</ele><time>2022-03-04T15:08:36Z</time><name>PT4502</name></trkpt>
<trkpt lat="52.045747" lon="05.775683"><ele>19.3</ele><time>2022-03-04T15:08:37Z</time><name>PT4503</name></trkpt>
<trkpt lat="52.045757" lon="05.775676"><ele>19.1</ele><time>2022-03-04T15:08:38Z</time><name>PT4504</name></trkpt>
<trkpt lat="52.045769" lon="05.775669"><ele>19.3</ele><time>2022-03-04T15:08:40Z</time><name>PT4505</name></trkpt>
<trkpt lat="52.045779" lon="05.775664"><ele>19.4</ele><time>2022-03-04T15:08:40Z</time><name>PT4506</name></trkpt>
<trkpt lat="52.045789" lon="05.775660"><ele>19.4</ele><time>2022-03-04T15:08:41Z</time><name>PT4507</name></trkpt>
<trkpt lat="52.045798" lon="05.775655"><ele>19.4</ele><time>2022-03-04T15:08:42Z</time><name>PT4508</name></trkpt>
<trkpt lat="52.045806" lon="05.775648"><ele>19.4</ele><time>2022-03-04T15:08:43Z</time><name>PT4509</name></trkpt>
<trkpt lat="52.045815" lon="05.775642"><ele>19.4</ele><time>2022-03-04T15:08:44Z</time><name>PT4510</name></trkpt>
<trkpt lat="52.045827" lon="05.775634"><ele>19.4</ele><time>2022-03-04T15:08:45Z</time><name>PT4511</name></trkpt>
<trkpt lat="52.045838" lon="05.775628"><ele>19.4</ele><time>2022-03-04T15:08:46Z</time><name>PT4512</name></trkpt>
<trkpt lat="52.045849" lon="05.775622"><ele>19.4</ele><time>2022-03-04T15:08:47Z</time><name>PT4513</name></trkpt>
<trkpt lat="52.045861" lon="05.775619"><ele>19.4</ele><time>2022-03-04T15:08:48Z</time><name>PT4514</name></trkpt>
<trkpt lat="52.045871" lon="05.775614"><ele>19.4</ele><time>2022-03-04T15:08:49Z</time><name>PT4515</name></trkpt>
<trkpt lat="52.045879" lon="05.775612"><ele>19.4</ele><time>2022-03-04T15:08:50Z</time><name>PT4516</name></trkpt>
<trkpt lat="52.045888" lon="05.775609"><ele>19.3</ele><time>2022-03-04T15:08:51Z</time><name>PT4517</name></trkpt>
<trkpt lat="52.045896" lon="05.775601"><ele>19.3</ele><time>2022-03-04T15:08:52Z</time><name>PT4518</name></trkpt>
<trkpt lat="52.045908" lon="05.775591"><ele>19.3</ele><time>2022-03-04T15:08:53Z</time><name>PT4519</name></trkpt>
<trkpt lat="52.045918" lon="05.775579"><ele>19.3</ele><time>2022-03-04T15:08:54Z</time><name>PT4520</name></trkpt>
<trkpt lat="52.045928" lon="05.775569"><ele>19.3</ele><time>2022-03-04T15:08:55Z</time><name>PT4521</name></trkpt>
<trkpt lat="52.045938" lon="05.775561"><ele>19.4</ele><time>2022-03-04T15:08:56Z</time><name>PT4522</name></trkpt>
<trkpt lat="52.045947" lon="05.775554"><ele>19.3</ele><time>2022-03-04T15:08:57Z</time><name>PT4523</name></trkpt>
<trkpt lat="52.045956" lon="05.775549"><ele>19.4</ele><time>2022-03-04T15:08:58Z</time><name>PT4524</name></trkpt>
<trkpt lat="52.045966" lon="05.775545"><ele>19.2</ele><time>2022-03-04T15:08:59Z</time><name>PT4525</name></trkpt>
<trkpt lat="52.045976" lon="05.775540"><ele>19.1</ele><time>2022-03-04T15:09:00Z</time><name>PT4526</name></trkpt>
<trkpt lat="52.045987" lon="05.775534"><ele>19.2</ele><time>2022-03-04T15:09:01Z</time><name>PT4527</name></trkpt>
<trkpt lat="52.045997" lon="05.775528"><ele>19.3</ele><time>2022-03-04T15:09:02Z</time><name>PT4528</name></trkpt>
<trkpt lat="52.046009" lon="05.775519"><ele>19.3</ele><time>2022-03-04T15:09:03Z</time><name>PT4529</name></trkpt>
<trkpt lat="52.046019" lon="05.775510"><ele>19.4</ele><time>2022-03-04T15:09:04Z</time><name>PT4530</name></trkpt>
<trkpt lat="52.046031" lon="05.775501"><ele>19.3</ele><time>2022-03-04T15:09:05Z</time><name>PT4531</name></trkpt>
<trkpt lat="52.046042" lon="05.775496"><ele>19.2</ele><time>2022-03-04T15:09:06Z</time><name>PT4532</name></trkpt>
<trkpt lat="52.046051" lon="05.775492"><ele>19.2</ele><time>2022-03-04T15:09:07Z</time><name>PT4533</name></trkpt>
<trkpt lat="52.046060" lon="05.775485"><ele>19.2</ele><time>2022-03-04T15:09:08Z</time><name>PT4534</name></trkpt>
<trkpt lat="52.046072" lon="05.775479"><ele>19.4</ele><time>2022-03-04T15:09:09Z</time><name>PT4535</name></trkpt>
<trkpt lat="52.046085" lon="05.775470"><ele>19.4</ele><time>2022-03-04T15:09:10Z</time><name>PT4536</name></trkpt>
<trkpt lat="52.046097" lon="05.775463"><ele>19.3</ele><time>2022-03-04T15:09:11Z</time><name>PT4537</name></trkpt>
<trkpt lat="52.046109" lon="05.775456"><ele>19.4</ele><time>2022-03-04T15:09:12Z</time><name>PT4538</name></trkpt>
<trkpt lat="52.046121" lon="05.775451"><ele>19.4</ele><time>2022-03-04T15:09:13Z</time><name>PT4539</name></trkpt>
<trkpt lat="52.046131" lon="05.775449"><ele>19.3</ele><time>2022-03-04T15:09:14Z</time><name>PT4540</name></trkpt>
<trkpt lat="52.046141" lon="05.775444"><ele>19.3</ele><time>2022-03-04T15:09:15Z</time><name>PT4541</name></trkpt>
<trkpt lat="52.046150" lon="05.775439"><ele>19.3</ele><time>2022-03-04T15:09:16Z</time><name>PT4542</name></trkpt>
<trkpt lat="52.046159" lon="05.775431"><ele>19.3</ele><time>2022-03-04T15:09:17Z</time><name>PT4543</name></trkpt>
<trkpt lat="52.046170" lon="05.775421"><ele>19.2</ele><time>2022-03-04T15:09:18Z</time><name>PT4544</name></trkpt>
<trkpt lat="52.046179" lon="05.775414"><ele>19.1</ele><time>2022-03-04T15:09:19Z</time><name>PT4545</name></trkpt>
<trkpt lat="52.046190" lon="05.775408"><ele>19.2</ele><time>2022-03-04T15:09:20Z</time><name>PT4546</name></trkpt>
<trkpt lat="52.046196" lon="05.775400"><ele>19.2</ele><time>2022-03-04T15:09:21Z</time><name>PT4547</name></trkpt>
<trkpt lat="52.046207" lon="05.775397"><ele>19.2</ele><time>2022-03-04T15:09:22Z</time><name>PT4548</name></trkpt>
<trkpt lat="52.046218" lon="05.775393"><ele>19.2</ele><time>2022-03-04T15:09:23Z</time><name>PT4549</name></trkpt>
<trkpt lat="52.046229" lon="05.775387"><ele>19.3</ele><time>2022-03-04T15:09:24Z</time><name>PT4550</name></trkpt>
<trkpt lat="52.046239" lon="05.775382"><ele>19.2</ele><time>2022-03-04T15:09:25Z</time><name>PT4551</name></trkpt>
<trkpt lat="52.046250" lon="05.775377"><ele>19.1</ele><time>2022-03-04T15:09:26Z</time><name>PT4552</name></trkpt>
<trkpt lat="52.046261" lon="05.775370"><ele>19.2</ele><time>2022-03-04T15:09:27Z</time><name>PT4553</name></trkpt>
<trkpt lat="52.046274" lon="05.775362"><ele>19.3</ele><time>2022-03-04T15:09:28Z</time><name>PT4554</name></trkpt>
<trkpt lat="52.046285" lon="05.775355"><ele>19.4</ele><time>2022-03-04T15:09:29Z</time><name>PT4555</name></trkpt>
<trkpt lat="52.046298" lon="05.775348"><ele>19.3</ele><time>2022-03-04T15:09:30Z</time><name>PT4556</name></trkpt>
<trkpt lat="52.046310" lon="05.775342"><ele>19.3</ele><time>2022-03-04T15:09:31Z</time><name>PT4557</name></trkpt>
<trkpt lat="52.046322" lon="05.775335"><ele>19.1</ele><time>2022-03-04T15:09:32Z</time><name>PT4558</name></trkpt>
<trkpt lat="52.046332" lon="05.775330"><ele>19</ele><time>2022-03-04T15:09:33Z</time><name>PT4559</name></trkpt>
<trkpt lat="52.046341" lon="05.775327"><ele>19.1</ele><time>2022-03-04T15:09:34Z</time><name>PT4560</name></trkpt>
<trkpt lat="52.046352" lon="05.775322"><ele>19.2</ele><time>2022-03-04T15:09:35Z</time><name>PT4561</name></trkpt>
<trkpt lat="52.046364" lon="05.775318"><ele>19.4</ele><time>2022-03-04T15:09:36Z</time><name>PT4562</name></trkpt>
<trkpt lat="52.046372" lon="05.775308"><ele>19.5</ele><time>2022-03-04T15:09:37Z</time><name>PT4563</name></trkpt>
<trkpt lat="52.046382" lon="05.775298"><ele>19.5</ele><time>2022-03-04T15:09:38Z</time><name>PT4564</name></trkpt>
<trkpt lat="52.046391" lon="05.775294"><ele>19.5</ele><time>2022-03-04T15:09:39Z</time><name>PT4565</name></trkpt>
<trkpt lat="52.046406" lon="05.775290"><ele>19.5</ele><time>2022-03-04T15:09:40Z</time><name>PT4566</name></trkpt>
<trkpt lat="52.046418" lon="05.775284"><ele>19.4</ele><time>2022-03-04T15:09:41Z</time><name>PT4567</name></trkpt>
<trkpt lat="52.046430" lon="05.775277"><ele>19.5</ele><time>2022-03-04T15:09:43Z</time><name>PT4568</name></trkpt>
<trkpt lat="52.046440" lon="05.775271"><ele>19.5</ele><time>2022-03-04T15:09:43Z</time><name>PT4569</name></trkpt>
<trkpt lat="52.046452" lon="05.775265"><ele>19.5</ele><time>2022-03-04T15:09:44Z</time><name>PT4570</name></trkpt>
<trkpt lat="52.046463" lon="05.775258"><ele>19.7</ele><time>2022-03-04T15:09:45Z</time><name>PT4571</name></trkpt>
<trkpt lat="52.046474" lon="05.775251"><ele>19.5</ele><time>2022-03-04T15:09:46Z</time><name>PT4572</name></trkpt>
<trkpt lat="52.046485" lon="05.775246"><ele>19.5</ele><time>2022-03-04T15:09:47Z</time><name>PT4573</name></trkpt>
<trkpt lat="52.046496" lon="05.775240"><ele>19.4</ele><time>2022-03-04T15:09:48Z</time><name>PT4574</name></trkpt>
<trkpt lat="52.046508" lon="05.775234"><ele>19.5</ele><time>2022-03-04T15:09:49Z</time><name>PT4575</name></trkpt>
<trkpt lat="52.046521" lon="05.775230"><ele>19.4</ele><time>2022-03-04T15:09:51Z</time><name>PT4576</name></trkpt>
<trkpt lat="52.046533" lon="05.775225"><ele>19.6</ele><time>2022-03-04T15:09:51Z</time><name>PT4577</name></trkpt>
<trkpt lat="52.046543" lon="05.775219"><ele>19.7</ele><time>2022-03-04T15:09:52Z</time><name>PT4578</name></trkpt>
<trkpt lat="52.046555" lon="05.775212"><ele>19.8</ele><time>2022-03-04T15:09:53Z</time><name>PT4579</name></trkpt>
<trkpt lat="52.046567" lon="05.775205"><ele>19.9</ele><time>2022-03-04T15:09:54Z</time><name>PT4580</name></trkpt>
<trkpt lat="52.046579" lon="05.775197"><ele>19.8</ele><time>2022-03-04T15:09:55Z</time><name>PT4581</name></trkpt>
<trkpt lat="52.046590" lon="05.775190"><ele>19.8</ele><time>2022-03-04T15:09:56Z</time><name>PT4582</name></trkpt>
<trkpt lat="52.046600" lon="05.775185"><ele>19.7</ele><time>2022-03-04T15:09:57Z</time><name>PT4583</name></trkpt>
<trkpt lat="52.046611" lon="05.775183"><ele>19.8</ele><time>2022-03-04T15:09:58Z</time><name>PT4584</name></trkpt>
<trkpt lat="52.046621" lon="05.775177"><ele>19.4</ele><time>2022-03-04T15:09:59Z</time><name>PT4585</name></trkpt>
<trkpt lat="52.046631" lon="05.775169"><ele>19.5</ele><time>2022-03-04T15:10:01Z</time><name>PT4586</name></trkpt>
<trkpt lat="52.046642" lon="05.775162"><ele>19.5</ele><time>2022-03-04T15:10:01Z</time><name>PT4587</name></trkpt>
<trkpt lat="52.046654" lon="05.775157"><ele>19.4</ele><time>2022-03-04T15:10:02Z</time><name>PT4588</name></trkpt>
<trkpt lat="52.046666" lon="05.775152"><ele>19.5</ele><time>2022-03-04T15:10:03Z</time><name>PT4589</name></trkpt>
<trkpt lat="52.046677" lon="05.775146"><ele>19.6</ele><time>2022-03-04T15:10:04Z</time><name>PT4590</name></trkpt>
<trkpt lat="52.046688" lon="05.775142"><ele>19.4</ele><time>2022-03-04T15:10:05Z</time><name>PT4591</name></trkpt>
<trkpt lat="52.046701" lon="05.775139"><ele>19.4</ele><time>2022-03-04T15:10:06Z</time><name>PT4592</name></trkpt>
<trkpt lat="52.046713" lon="05.775136"><ele>19.5</ele><time>2022-03-04T15:10:07Z</time><name>PT4593</name></trkpt>
<trkpt lat="52.046726" lon="05.775136"><ele>19.5</ele><time>2022-03-04T15:10:08Z</time><name>PT4594</name></trkpt>
<trkpt lat="52.046738" lon="05.775134"><ele>19.4</ele><time>2022-03-04T15:10:09Z</time><name>PT4595</name></trkpt>
<trkpt lat="52.046750" lon="05.775131"><ele>19.4</ele><time>2022-03-04T15:10:10Z</time><name>PT4596</name></trkpt>
<trkpt lat="52.046762" lon="05.775129"><ele>19.3</ele><time>2022-03-04T15:10:11Z</time><name>PT4597</name></trkpt>
<trkpt lat="52.046775" lon="05.775126"><ele>19.2</ele><time>2022-03-04T15:10:12Z</time><name>PT4598</name></trkpt>
<trkpt lat="52.046788" lon="05.775119"><ele>19.1</ele><time>2022-03-04T15:10:13Z</time><name>PT4599</name></trkpt>
<trkpt lat="52.046800" lon="05.775113"><ele>19.2</ele><time>2022-03-04T15:10:14Z</time><name>PT4600</name></trkpt>
<trkpt lat="52.046811" lon="05.775108"><ele>19.1</ele><time>2022-03-04T15:10:16Z</time><name>PT4601</name></trkpt>
<trkpt lat="52.046822" lon="05.775107"><ele>19.2</ele><time>2022-03-04T15:10:16Z</time><name>PT4602</name></trkpt>
<trkpt lat="52.046834" lon="05.775107"><ele>19.3</ele><time>2022-03-04T15:10:17Z</time><name>PT4603</name></trkpt>
<trkpt lat="52.046845" lon="05.775105"><ele>19.4</ele><time>2022-03-04T15:10:19Z</time><name>PT4604</name></trkpt>
<trkpt lat="52.046858" lon="05.775103"><ele>19.4</ele><time>2022-03-04T15:10:19Z</time><name>PT4605</name></trkpt>
<trkpt lat="52.046869" lon="05.775101"><ele>19.5</ele><time>2022-03-04T15:10:20Z</time><name>PT4606</name></trkpt>
<trkpt lat="52.046881" lon="05.775097"><ele>19.4</ele><time>2022-03-04T15:10:21Z</time><name>PT4607</name></trkpt>
<trkpt lat="52.046891" lon="05.775092"><ele>19.5</ele><time>2022-03-04T15:10:22Z</time><name>PT4608</name></trkpt>
<trkpt lat="52.046903" lon="05.775086"><ele>19.5</ele><time>2022-03-04T15:10:23Z</time><name>PT4609</name></trkpt>
<trkpt lat="52.046916" lon="05.775079"><ele>19.6</ele><time>2022-03-04T15:10:25Z</time><name>PT4610</name></trkpt>
<trkpt lat="52.046928" lon="05.775075"><ele>19.5</ele><time>2022-03-04T15:10:25Z</time><name>PT4611</name></trkpt>
<trkpt lat="52.046940" lon="05.775070"><ele>19.5</ele><time>2022-03-04T15:10:26Z</time><name>PT4612</name></trkpt>
<trkpt lat="52.046952" lon="05.775062"><ele>19.4</ele><time>2022-03-04T15:10:27Z</time><name>PT4613</name></trkpt>
<trkpt lat="52.046963" lon="05.775055"><ele>19.4</ele><time>2022-03-04T15:10:28Z</time><name>PT4614</name></trkpt>
<trkpt lat="52.046974" lon="05.775050"><ele>19.4</ele><time>2022-03-04T15:10:29Z</time><name>PT4615</name></trkpt>
<trkpt lat="52.046985" lon="05.775044"><ele>19.4</ele><time>2022-03-04T15:10:30Z</time><name>PT4616</name></trkpt>
<trkpt lat="52.046996" lon="05.775039"><ele>19.4</ele><time>2022-03-04T15:10:31Z</time><name>PT4617</name></trkpt>
<trkpt lat="52.047006" lon="05.775034"><ele>19.4</ele><time>2022-03-04T15:10:32Z</time><name>PT4618</name></trkpt>
<trkpt lat="52.047018" lon="05.775027"><ele>19.3</ele><time>2022-03-04T15:10:33Z</time><name>PT4619</name></trkpt>
<trkpt lat="52.047030" lon="05.775019"><ele>19.4</ele><time>2022-03-04T15:10:34Z</time><name>PT4620</name></trkpt>
<trkpt lat="52.047039" lon="05.775009"><ele>19.4</ele><time>2022-03-04T15:10:35Z</time><name>PT4621</name></trkpt>
<trkpt lat="52.047051" lon="05.775000"><ele>19.4</ele><time>2022-03-04T15:10:36Z</time><name>PT4622</name></trkpt>
<trkpt lat="52.047063" lon="05.774988"><ele>19.6</ele><time>2022-03-04T15:10:37Z</time><name>PT4623</name></trkpt>
<trkpt lat="52.047073" lon="05.774978"><ele>19.6</ele><time>2022-03-04T15:10:38Z</time><name>PT4624</name></trkpt>
<trkpt lat="52.047082" lon="05.774967"><ele>19.4</ele><time>2022-03-04T15:10:40Z</time><name>PT4625</name></trkpt>
<trkpt lat="52.047093" lon="05.774959"><ele>19.4</ele><time>2022-03-04T15:10:40Z</time><name>PT4626</name></trkpt>
<trkpt lat="52.047104" lon="05.774950"><ele>19.4</ele><time>2022-03-04T15:10:41Z</time><name>PT4627</name></trkpt>
<trkpt lat="52.047114" lon="05.774940"><ele>19.4</ele><time>2022-03-04T15:10:42Z</time><name>PT4628</name></trkpt>
<trkpt lat="52.047124" lon="05.774929"><ele>19.7</ele><time>2022-03-04T15:10:43Z</time><name>PT4629</name></trkpt>
<trkpt lat="52.047134" lon="05.774918"><ele>19.6</ele><time>2022-03-04T15:10:44Z</time><name>PT4630</name></trkpt>
<trkpt lat="52.047144" lon="05.774905"><ele>19.5</ele><time>2022-03-04T15:10:45Z</time><name>PT4631</name></trkpt>
<trkpt lat="52.047154" lon="05.774891"><ele>19.5</ele><time>2022-03-04T15:10:46Z</time><name>PT4632</name></trkpt>
<trkpt lat="52.047164" lon="05.774878"><ele>19.5</ele><time>2022-03-04T15:10:47Z</time><name>PT4633</name></trkpt>
<trkpt lat="52.047173" lon="05.774864"><ele>19.3</ele><time>2022-03-04T15:10:48Z</time><name>PT4634</name></trkpt>
<trkpt lat="52.047182" lon="05.774850"><ele>19.3</ele><time>2022-03-04T15:10:49Z</time><name>PT4635</name></trkpt>
<trkpt lat="52.047192" lon="05.774840"><ele>19.3</ele><time>2022-03-04T15:10:50Z</time><name>PT4636</name></trkpt>
<trkpt lat="52.047201" lon="05.774827"><ele>19.2</ele><time>2022-03-04T15:10:51Z</time><name>PT4637</name></trkpt>
<trkpt lat="52.047209" lon="05.774817"><ele>19.1</ele><time>2022-03-04T15:10:52Z</time><name>PT4638</name></trkpt>
<trkpt lat="52.047216" lon="05.774805"><ele>19.2</ele><time>2022-03-04T15:10:53Z</time><name>PT4639</name></trkpt>
<trkpt lat="52.047224" lon="05.774792"><ele>19.4</ele><time>2022-03-04T15:10:54Z</time><name>PT4640</name></trkpt>
<trkpt lat="52.047232" lon="05.774778"><ele>19.4</ele><time>2022-03-04T15:10:55Z</time><name>PT4641</name></trkpt>
<trkpt lat="52.047239" lon="05.774762"><ele>19.4</ele><time>2022-03-04T15:10:56Z</time><name>PT4642</name></trkpt>
<trkpt lat="52.047247" lon="05.774746"><ele>19.4</ele><time>2022-03-04T15:10:57Z</time><name>PT4643</name></trkpt>
<trkpt lat="52.047256" lon="05.774730"><ele>19.4</ele><time>2022-03-04T15:10:58Z</time><name>PT4644</name></trkpt>
<trkpt lat="52.047266" lon="05.774713"><ele>19.4</ele><time>2022-03-04T15:10:59Z</time><name>PT4645</name></trkpt>
<trkpt lat="52.047274" lon="05.774696"><ele>19.4</ele><time>2022-03-04T15:11:00Z</time><name>PT4646</name></trkpt>
<trkpt lat="52.047281" lon="05.774681"><ele>19.3</ele><time>2022-03-04T15:11:01Z</time><name>PT4647</name></trkpt>
<trkpt lat="52.047287" lon="05.774669"><ele>19.1</ele><time>2022-03-04T15:11:02Z</time><name>PT4648</name></trkpt>
<trkpt lat="52.047289" lon="05.774660"><ele>19.1</ele><time>2022-03-04T15:11:03Z</time><name>PT4649</name></trkpt>
<trkpt lat="52.047297" lon="05.774649"><ele>19</ele><time>2022-03-04T15:11:04Z</time><name>PT4650</name></trkpt>
<trkpt lat="52.047306" lon="05.774636"><ele>19.1</ele><time>2022-03-04T15:11:05Z</time><name>PT4651</name></trkpt>
<trkpt lat="52.047313" lon="05.774621"><ele>19.1</ele><time>2022-03-04T15:11:06Z</time><name>PT4652</name></trkpt>
<trkpt lat="52.047320" lon="05.774607"><ele>19.3</ele><time>2022-03-04T15:11:07Z</time><name>PT4653</name></trkpt>
<trkpt lat="52.047328" lon="05.774594"><ele>19.4</ele><time>2022-03-04T15:11:08Z</time><name>PT4654</name></trkpt>
<trkpt lat="52.047338" lon="05.774579"><ele>19.5</ele><time>2022-03-04T15:11:09Z</time><name>PT4655</name></trkpt>
<trkpt lat="52.047348" lon="05.774566"><ele>19.4</ele><time>2022-03-04T15:11:10Z</time><name>PT4656</name></trkpt>
<trkpt lat="52.047357" lon="05.774555"><ele>19.4</ele><time>2022-03-04T15:11:11Z</time><name>PT4657</name></trkpt>
<trkpt lat="52.047365" lon="05.774542"><ele>19.3</ele><time>2022-03-04T15:11:12Z</time><name>PT4658</name></trkpt>
<trkpt lat="52.047372" lon="05.774530"><ele>19.3</ele><time>2022-03-04T15:11:13Z</time><name>PT4659</name></trkpt>
<trkpt lat="52.047379" lon="05.774517"><ele>19.3</ele><time>2022-03-04T15:11:14Z</time><name>PT4660</name></trkpt>
<trkpt lat="52.047385" lon="05.774503"><ele>19.1</ele><time>2022-03-04T15:11:15Z</time><name>PT4661</name></trkpt>
<trkpt lat="52.047392" lon="05.774488"><ele>19.1</ele><time>2022-03-04T15:11:16Z</time><name>PT4662</name></trkpt>
<trkpt lat="52.047399" lon="05.774474"><ele>19.1</ele><time>2022-03-04T15:11:17Z</time><name>PT4663</name></trkpt>
<trkpt lat="52.047408" lon="05.774460"><ele>19</ele><time>2022-03-04T15:11:18Z</time><name>PT4664</name></trkpt>
<trkpt lat="52.047415" lon="05.774449"><ele>18.9</ele><time>2022-03-04T15:11:19Z</time><name>PT4665</name></trkpt>
<trkpt lat="52.047423" lon="05.774438"><ele>19.1</ele><time>2022-03-04T15:11:20Z</time><name>PT4666</name></trkpt>
<trkpt lat="52.047432" lon="05.774425"><ele>19</ele><time>2022-03-04T15:11:21Z</time><name>PT4667</name></trkpt>
<trkpt lat="52.047439" lon="05.774410"><ele>19</ele><time>2022-03-04T15:11:22Z</time><name>PT4668</name></trkpt>
<trkpt lat="52.047447" lon="05.774396"><ele>19.1</ele><time>2022-03-04T15:11:23Z</time><name>PT4669</name></trkpt>
<trkpt lat="52.047455" lon="05.774380"><ele>18.9</ele><time>2022-03-04T15:11:24Z</time><name>PT4670</name></trkpt>
<trkpt lat="52.047464" lon="05.774365"><ele>18.9</ele><time>2022-03-04T15:11:25Z</time><name>PT4671</name></trkpt>
<trkpt lat="52.047475" lon="05.774350"><ele>19</ele><time>2022-03-04T15:11:26Z</time><name>PT4672</name></trkpt>
<trkpt lat="52.047485" lon="05.774337"><ele>18.9</ele><time>2022-03-04T15:11:27Z</time><name>PT4673</name></trkpt>
<trkpt lat="52.047495" lon="05.774326"><ele>18.9</ele><time>2022-03-04T15:11:28Z</time><name>PT4674</name></trkpt>
<trkpt lat="52.047503" lon="05.774313"><ele>19</ele><time>2022-03-04T15:11:29Z</time><name>PT4675</name></trkpt>
<trkpt lat="52.047511" lon="05.774301"><ele>18.9</ele><time>2022-03-04T15:11:30Z</time><name>PT4676</name></trkpt>
<trkpt lat="52.047519" lon="05.774288"><ele>19</ele><time>2022-03-04T15:11:31Z</time><name>PT4677</name></trkpt>
<trkpt lat="52.047527" lon="05.774274"><ele>18.9</ele><time>2022-03-04T15:11:32Z</time><name>PT4678</name></trkpt>
<trkpt lat="52.047534" lon="05.774260"><ele>18.9</ele><time>2022-03-04T15:11:33Z</time><name>PT4679</name></trkpt>
<trkpt lat="52.047541" lon="05.774248"><ele>18.8</ele><time>2022-03-04T15:11:34Z</time><name>PT4680</name></trkpt>
<trkpt lat="52.047549" lon="05.774236"><ele>18.7</ele><time>2022-03-04T15:11:35Z</time><name>PT4681</name></trkpt>
<trkpt lat="52.047559" lon="05.774224"><ele>18.6</ele><time>2022-03-04T15:11:36Z</time><name>PT4682</name></trkpt>
<trkpt lat="52.047567" lon="05.774214"><ele>18.7</ele><time>2022-03-04T15:11:37Z</time><name>PT4683</name></trkpt>
<trkpt lat="52.047575" lon="05.774202"><ele>18.6</ele><time>2022-03-04T15:11:38Z</time><name>PT4684</name></trkpt>
<trkpt lat="52.047584" lon="05.774189"><ele>18.8</ele><time>2022-03-04T15:11:40Z</time><name>PT4685</name></trkpt>
<trkpt lat="52.047592" lon="05.774175"><ele>18.8</ele><time>2022-03-04T15:11:40Z</time><name>PT4686</name></trkpt>
<trkpt lat="52.047599" lon="05.774162"><ele>18.8</ele><time>2022-03-04T15:11:41Z</time><name>PT4687</name></trkpt>
<trkpt lat="52.047605" lon="05.774147"><ele>18.7</ele><time>2022-03-04T15:11:42Z</time><name>PT4688</name></trkpt>
<trkpt lat="52.047613" lon="05.774134"><ele>18.9</ele><time>2022-03-04T15:11:43Z</time><name>PT4689</name></trkpt>
<trkpt lat="52.047622" lon="05.774121"><ele>18.9</ele><time>2022-03-04T15:11:44Z</time><name>PT4690</name></trkpt>
<trkpt lat="52.047627" lon="05.774109"><ele>18.9</ele><time>2022-03-04T15:11:46Z</time><name>PT4691</name></trkpt>
<trkpt lat="52.047635" lon="05.774099"><ele>18.9</ele><time>2022-03-04T15:11:46Z</time><name>PT4692</name></trkpt>
<trkpt lat="52.047644" lon="05.774089"><ele>19.1</ele><time>2022-03-04T15:11:47Z</time><name>PT4693</name></trkpt>
<trkpt lat="52.047652" lon="05.774078"><ele>19</ele><time>2022-03-04T15:11:49Z</time><name>PT4694</name></trkpt>
<trkpt lat="52.047659" lon="05.774062"><ele>18.9</ele><time>2022-03-04T15:11:49Z</time><name>PT4695</name></trkpt>
<trkpt lat="52.047667" lon="05.774045"><ele>19</ele><time>2022-03-04T15:11:50Z</time><name>PT4696</name></trkpt>
<trkpt lat="52.047672" lon="05.774029"><ele>19</ele><time>2022-03-04T15:11:51Z</time><name>PT4697</name></trkpt>
<trkpt lat="52.047680" lon="05.774014"><ele>18.9</ele><time>2022-03-04T15:11:52Z</time><name>PT4698</name></trkpt>
<trkpt lat="52.047688" lon="05.774001"><ele>18.9</ele><time>2022-03-04T15:11:53Z</time><name>PT4699</name></trkpt>
<trkpt lat="52.047697" lon="05.773986"><ele>18.9</ele><time>2022-03-04T15:11:54Z</time><name>PT4700</name></trkpt>
<trkpt lat="52.047705" lon="05.773977"><ele>18.9</ele><time>2022-03-04T15:11:55Z</time><name>PT4701</name></trkpt>
<trkpt lat="52.047712" lon="05.773966"><ele>19</ele><time>2022-03-04T15:11:56Z</time><name>PT4702</name></trkpt>
<trkpt lat="52.047719" lon="05.773954"><ele>19.1</ele><time>2022-03-04T15:11:57Z</time><name>PT4703</name></trkpt>
<trkpt lat="52.047727" lon="05.773939"><ele>19.1</ele><time>2022-03-04T15:11:58Z</time><name>PT4704</name></trkpt>
<trkpt lat="52.047735" lon="05.773923"><ele>19.2</ele><time>2022-03-04T15:11:59Z</time><name>PT4705</name></trkpt>
<trkpt lat="52.047742" lon="05.773906"><ele>19.2</ele><time>2022-03-04T15:12:00Z</time><name>PT4706</name></trkpt>
<trkpt lat="52.047748" lon="05.773890"><ele>19.1</ele><time>2022-03-04T15:12:01Z</time><name>PT4707</name></trkpt>
<trkpt lat="52.047756" lon="05.773875"><ele>19</ele><time>2022-03-04T15:12:02Z</time><name>PT4708</name></trkpt>
<trkpt lat="52.047761" lon="05.773863"><ele>19</ele><time>2022-03-04T15:12:03Z</time><name>PT4709</name></trkpt>
<trkpt lat="52.047765" lon="05.773850"><ele>19</ele><time>2022-03-04T15:12:04Z</time><name>PT4710</name></trkpt>
<trkpt lat="52.047772" lon="05.773834"><ele>19</ele><time>2022-03-04T15:12:05Z</time><name>PT4711</name></trkpt>
<trkpt lat="52.047780" lon="05.773819"><ele>18.9</ele><time>2022-03-04T15:12:06Z</time><name>PT4712</name></trkpt>
<trkpt lat="52.047788" lon="05.773802"><ele>18.9</ele><time>2022-03-04T15:12:07Z</time><name>PT4713</name></trkpt>
<trkpt lat="52.047796" lon="05.773783"><ele>18.9</ele><time>2022-03-04T15:12:08Z</time><name>PT4714</name></trkpt>
<trkpt lat="52.047801" lon="05.773765"><ele>18.9</ele><time>2022-03-04T15:12:09Z</time><name>PT4715</name></trkpt>
<trkpt lat="52.047807" lon="05.773747"><ele>18.9</ele><time>2022-03-04T15:12:10Z</time><name>PT4716</name></trkpt>
<trkpt lat="52.047815" lon="05.773731"><ele>18.8</ele><time>2022-03-04T15:12:11Z</time><name>PT4717</name></trkpt>
<trkpt lat="52.047822" lon="05.773716"><ele>18.8</ele><time>2022-03-04T15:12:13Z</time><name>PT4718</name></trkpt>
<trkpt lat="52.047826" lon="05.773698"><ele>18.9</ele><time>2022-03-04T15:12:13Z</time><name>PT4719</name></trkpt>
<trkpt lat="52.047833" lon="05.773682"><ele>18.9</ele><time>2022-03-04T15:12:14Z</time><name>PT4720</name></trkpt>
<trkpt lat="52.047839" lon="05.773666"><ele>18.9</ele><time>2022-03-04T15:12:15Z</time><name>PT4721</name></trkpt>
<trkpt lat="52.047845" lon="05.773648"><ele>19</ele><time>2022-03-04T15:12:16Z</time><name>PT4722</name></trkpt>
<trkpt lat="52.047848" lon="05.773630"><ele>19.1</ele><time>2022-03-04T15:12:17Z</time><name>PT4723</name></trkpt>
<trkpt lat="52.047853" lon="05.773611"><ele>19</ele><time>2022-03-04T15:12:18Z</time><name>PT4724</name></trkpt>
<trkpt lat="52.047858" lon="05.773593"><ele>18.9</ele><time>2022-03-04T15:12:19Z</time><name>PT4725</name></trkpt>
<trkpt lat="52.047864" lon="05.773576"><ele>18.9</ele><time>2022-03-04T15:12:20Z</time><name>PT4726</name></trkpt>
<trkpt lat="52.047870" lon="05.773561"><ele>19</ele><time>2022-03-04T15:12:21Z</time><name>PT4727</name></trkpt>
<trkpt lat="52.047874" lon="05.773546"><ele>18.9</ele><time>2022-03-04T15:12:22Z</time><name>PT4728</name></trkpt>
<trkpt lat="52.047880" lon="05.773532"><ele>18.9</ele><time>2022-03-04T15:12:23Z</time><name>PT4729</name></trkpt>
<trkpt lat="52.047884" lon="05.773516"><ele>18.9</ele><time>2022-03-04T15:12:24Z</time><name>PT4730</name></trkpt>
<trkpt lat="52.047889" lon="05.773498"><ele>18.9</ele><time>2022-03-04T15:12:25Z</time><name>PT4731</name></trkpt>
<trkpt lat="52.047893" lon="05.773485"><ele>18.8</ele><time>2022-03-04T15:12:26Z</time><name>PT4732</name></trkpt>
<trkpt lat="52.047901" lon="05.773463"><ele>18.8</ele><time>2022-03-04T15:12:27Z</time><name>PT4733</name></trkpt>
<trkpt lat="52.047911" lon="05.773438"><ele>18.9</ele><time>2022-03-04T15:12:28Z</time><name>PT4734</name></trkpt>
<trkpt lat="52.047919" lon="05.773416"><ele>18.9</ele><time>2022-03-04T15:12:29Z</time><name>PT4735</name></trkpt>
<trkpt lat="52.047926" lon="05.773400"><ele>18.9</ele><time>2022-03-04T15:12:30Z</time><name>PT4736</name></trkpt>
<trkpt lat="52.047930" lon="05.773389"><ele>18.9</ele><time>2022-03-04T15:12:31Z</time><name>PT4737</name></trkpt>
<trkpt lat="52.047935" lon="05.773377"><ele>18.8</ele><time>2022-03-04T15:12:32Z</time><name>PT4738</name></trkpt>
<trkpt lat="52.047942" lon="05.773365"><ele>18.8</ele><time>2022-03-04T15:12:33Z</time><name>PT4739</name></trkpt>
<trkpt lat="52.047947" lon="05.773352"><ele>18.7</ele><time>2022-03-04T15:12:34Z</time><name>PT4740</name></trkpt>
<trkpt lat="52.047950" lon="05.773331"><ele>18.6</ele><time>2022-03-04T15:12:35Z</time><name>PT4741</name></trkpt>
<trkpt lat="52.047959" lon="05.773310"><ele>18.7</ele><time>2022-03-04T15:12:36Z</time><name>PT4742</name></trkpt>
<trkpt lat="52.047970" lon="05.773291"><ele>18.7</ele><time>2022-03-04T15:12:37Z</time><name>PT4743</name></trkpt>
<trkpt lat="52.047980" lon="05.773272"><ele>18.9</ele><time>2022-03-04T15:12:38Z</time><name>PT4744</name></trkpt>
<trkpt lat="52.047987" lon="05.773259"><ele>18.9</ele><time>2022-03-04T15:12:39Z</time><name>PT4745</name></trkpt>
<trkpt lat="52.047993" lon="05.773248"><ele>18.9</ele><time>2022-03-04T15:12:40Z</time><name>PT4746</name></trkpt>
<trkpt lat="52.047999" lon="05.773236"><ele>18.9</ele><time>2022-03-04T15:12:41Z</time><name>PT4747</name></trkpt>
<trkpt lat="52.048002" lon="05.773225"><ele>18.9</ele><time>2022-03-04T15:12:42Z</time><name>PT4748</name></trkpt>
<trkpt lat="52.048007" lon="05.773214"><ele>18.8</ele><time>2022-03-04T15:12:43Z</time><name>PT4749</name></trkpt>
<trkpt lat="52.048015" lon="05.773196"><ele>18.9</ele><time>2022-03-04T15:12:44Z</time><name>PT4750</name></trkpt>
<trkpt lat="52.048025" lon="05.773174"><ele>18.9</ele><time>2022-03-04T15:12:45Z</time><name>PT4751</name></trkpt>
<trkpt lat="52.048036" lon="05.773154"><ele>18.9</ele><time>2022-03-04T15:12:46Z</time><name>PT4752</name></trkpt>
<trkpt lat="52.048045" lon="05.773137"><ele>18.9</ele><time>2022-03-04T15:12:47Z</time><name>PT4753</name></trkpt>
<trkpt lat="52.048052" lon="05.773123"><ele>18.8</ele><time>2022-03-04T15:12:48Z</time><name>PT4754</name></trkpt>
<trkpt lat="52.048058" lon="05.773112"><ele>18.8</ele><time>2022-03-04T15:12:49Z</time><name>PT4755</name></trkpt>
<trkpt lat="52.048063" lon="05.773103"><ele>18.5</ele><time>2022-03-04T15:12:50Z</time><name>PT4756</name></trkpt>
<trkpt lat="52.048068" lon="05.773095"><ele>18.4</ele><time>2022-03-04T15:12:52Z</time><name>PT4757</name></trkpt>
<trkpt lat="52.048074" lon="05.773084"><ele>18.4</ele><time>2022-03-04T15:12:52Z</time><name>PT4758</name></trkpt>
<trkpt lat="52.048079" lon="05.773073"><ele>18.4</ele><time>2022-03-04T15:12:53Z</time><name>PT4759</name></trkpt>
<trkpt lat="52.048090" lon="05.773057"><ele>18.5</ele><time>2022-03-04T15:12:54Z</time><name>PT4760</name></trkpt>
<trkpt lat="52.048097" lon="05.773040"><ele>18.5</ele><time>2022-03-04T15:12:55Z</time><name>PT4761</name></trkpt>
<trkpt lat="52.048104" lon="05.773025"><ele>18.4</ele><time>2022-03-04T15:12:56Z</time><name>PT4762</name></trkpt>
<trkpt lat="52.048114" lon="05.773012"><ele>18.4</ele><time>2022-03-04T15:12:57Z</time><name>PT4763</name></trkpt>
<trkpt lat="52.048122" lon="05.772999"><ele>18.4</ele><time>2022-03-04T15:12:58Z</time><name>PT4764</name></trkpt>
<trkpt lat="52.048130" lon="05.772989"><ele>18.4</ele><time>2022-03-04T15:12:59Z</time><name>PT4765</name></trkpt>
<trkpt lat="52.048137" lon="05.772979"><ele>18.4</ele><time>2022-03-04T15:13:00Z</time><name>PT4766</name></trkpt>
<trkpt lat="52.048144" lon="05.772970"><ele>18.6</ele><time>2022-03-04T15:13:01Z</time><name>PT4767</name></trkpt>
<trkpt lat="52.048150" lon="05.772957"><ele>18.6</ele><time>2022-03-04T15:13:02Z</time><name>PT4768</name></trkpt>
<trkpt lat="52.048160" lon="05.772938"><ele>18.6</ele><time>2022-03-04T15:13:03Z</time><name>PT4769</name></trkpt>
<trkpt lat="52.048171" lon="05.772916"><ele>18.5</ele><time>2022-03-04T15:13:04Z</time><name>PT4770</name></trkpt>
<trkpt lat="52.048180" lon="05.772894"><ele>18.4</ele><time>2022-03-04T15:13:05Z</time><name>PT4771</name></trkpt>
<trkpt lat="52.048189" lon="05.772875"><ele>18.1</ele><time>2022-03-04T15:13:06Z</time><name>PT4772</name></trkpt>
<trkpt lat="52.048201" lon="05.772865"><ele>18.2</ele><time>2022-03-04T15:13:07Z</time><name>PT4773</name></trkpt>
<trkpt lat="52.048206" lon="05.772856"><ele>18.2</ele><time>2022-03-04T15:13:08Z</time><name>PT4774</name></trkpt>
<trkpt lat="52.048210" lon="05.772845"><ele>18.2</ele><time>2022-03-04T15:13:09Z</time><name>PT4775</name></trkpt>
<trkpt lat="52.048226" lon="05.772842"><ele>18</ele><time>2022-03-04T15:13:10Z</time><name>PT4776</name></trkpt>
<trkpt lat="52.048236" lon="05.772833"><ele>18</ele><time>2022-03-04T15:13:11Z</time><name>PT4777</name></trkpt>
<trkpt lat="52.048245" lon="05.772816"><ele>18.1</ele><time>2022-03-04T15:13:12Z</time><name>PT4778</name></trkpt>
<trkpt lat="52.048252" lon="05.772797"><ele>18.1</ele><time>2022-03-04T15:13:13Z</time><name>PT4779</name></trkpt>
<trkpt lat="52.048262" lon="05.772782"><ele>18</ele><time>2022-03-04T15:13:14Z</time><name>PT4780</name></trkpt>
<trkpt lat="52.048270" lon="05.772767"><ele>18</ele><time>2022-03-04T15:13:15Z</time><name>PT4781</name></trkpt>
<trkpt lat="52.048277" lon="05.772753"><ele>18</ele><time>2022-03-04T15:13:16Z</time><name>PT4782</name></trkpt>
<trkpt lat="52.048281" lon="05.772741"><ele>17.9</ele><time>2022-03-04T15:13:17Z</time><name>PT4783</name></trkpt>
<trkpt lat="52.048282" lon="05.772732"><ele>18</ele><time>2022-03-04T15:13:18Z</time><name>PT4784</name></trkpt>
<trkpt lat="52.048285" lon="05.772722"><ele>18</ele><time>2022-03-04T15:13:19Z</time><name>PT4785</name></trkpt>
<trkpt lat="52.048293" lon="05.772704"><ele>18</ele><time>2022-03-04T15:13:20Z</time><name>PT4786</name></trkpt>
<trkpt lat="52.048296" lon="05.772684"><ele>18</ele><time>2022-03-04T15:13:21Z</time><name>PT4787</name></trkpt>
<trkpt lat="52.048303" lon="05.772666"><ele>18.1</ele><time>2022-03-04T15:13:22Z</time><name>PT4788</name></trkpt>
<trkpt lat="52.048309" lon="05.772651"><ele>18</ele><time>2022-03-04T15:13:23Z</time><name>PT4789</name></trkpt>
<trkpt lat="52.048315" lon="05.772634"><ele>18.1</ele><time>2022-03-04T15:13:24Z</time><name>PT4790</name></trkpt>
<trkpt lat="52.048320" lon="05.772619"><ele>18.1</ele><time>2022-03-04T15:13:25Z</time><name>PT4791</name></trkpt>
<trkpt lat="52.048329" lon="05.772605"><ele>18.1</ele><time>2022-03-04T15:13:26Z</time><name>PT4792</name></trkpt>
<trkpt lat="52.048330" lon="05.772591"><ele>18.1</ele><time>2022-03-04T15:13:27Z</time><name>PT4793</name></trkpt>
<trkpt lat="52.048336" lon="05.772577"><ele>18</ele><time>2022-03-04T15:13:28Z</time><name>PT4794</name></trkpt>
<trkpt lat="52.048343" lon="05.772562"><ele>17.9</ele><time>2022-03-04T15:13:29Z</time><name>PT4795</name></trkpt>
<trkpt lat="52.048349" lon="05.772547"><ele>17.9</ele><time>2022-03-04T15:13:30Z</time><name>PT4796</name></trkpt>
<trkpt lat="52.048359" lon="05.772535"><ele>17.8</ele><time>2022-03-04T15:13:31Z</time><name>PT4797</name></trkpt>
<trkpt lat="52.048367" lon="05.772524"><ele>17.7</ele><time>2022-03-04T15:13:32Z</time><name>PT4798</name></trkpt>
<trkpt lat="52.048376" lon="05.772511"><ele>17.9</ele><time>2022-03-04T15:13:33Z</time><name>PT4799</name></trkpt>
<trkpt lat="52.048382" lon="05.772500"><ele>17.8</ele><time>2022-03-04T15:13:34Z</time><name>PT4800</name></trkpt>
<trkpt lat="52.048390" lon="05.772490"><ele>17.8</ele><time>2022-03-04T15:13:35Z</time><name>PT4801</name></trkpt>
<trkpt lat="52.048397" lon="05.772480"><ele>17.6</ele><time>2022-03-04T15:13:36Z</time><name>PT4802</name></trkpt>
<trkpt lat="52.048398" lon="05.772458"><ele>17.7</ele><time>2022-03-04T15:13:37Z</time><name>PT4803</name></trkpt>
<trkpt lat="52.048404" lon="05.772446"><ele>17.5</ele><time>2022-03-04T15:13:38Z</time><name>PT4804</name></trkpt>
<trkpt lat="52.048413" lon="05.772428"><ele>17.2</ele><time>2022-03-04T15:13:39Z</time><name>PT4805</name></trkpt>
<trkpt lat="52.048420" lon="05.772411"><ele>17.2</ele><time>2022-03-04T15:13:40Z</time><name>PT4806</name></trkpt>
<trkpt lat="52.048425" lon="05.772398"><ele>17</ele><time>2022-03-04T15:13:41Z</time><name>PT4807</name></trkpt>
<trkpt lat="52.048426" lon="05.772388"><ele>17</ele><time>2022-03-04T15:13:42Z</time><name>PT4808</name></trkpt>
<trkpt lat="52.048426" lon="05.772380"><ele>17</ele><time>2022-03-04T15:13:43Z</time><name>PT4809</name></trkpt>
<trkpt lat="52.048429" lon="05.772368"><ele>17</ele><time>2022-03-04T15:13:44Z</time><name>PT4810</name></trkpt>
<trkpt lat="52.048434" lon="05.772357"><ele>16.9</ele><time>2022-03-04T15:13:46Z</time><name>PT4811</name></trkpt>
<trkpt lat="52.048440" lon="05.772351"><ele>17</ele><time>2022-03-04T15:13:46Z</time><name>PT4812</name></trkpt>
<trkpt lat="52.048448" lon="05.772342"><ele>17</ele><time>2022-03-04T15:13:47Z</time><name>PT4813</name></trkpt>
<trkpt lat="52.048464" lon="05.772330"><ele>16.9</ele><time>2022-03-04T15:13:48Z</time><name>PT4814</name></trkpt>
<trkpt lat="52.048474" lon="05.772323"><ele>16.9</ele><time>2022-03-04T15:13:49Z</time><name>PT4815</name></trkpt>
<trkpt lat="52.048487" lon="05.772312"><ele>17</ele><time>2022-03-04T15:13:50Z</time><name>PT4816</name></trkpt>
<trkpt lat="52.048496" lon="05.772302"><ele>16.8</ele><time>2022-03-04T15:13:52Z</time><name>PT4817</name></trkpt>
<trkpt lat="52.048503" lon="05.772292"><ele>16.8</ele><time>2022-03-04T15:13:52Z</time><name>PT4818</name></trkpt>
<trkpt lat="52.048510" lon="05.772289"><ele>16.8</ele><time>2022-03-04T15:13:53Z</time><name>PT4819</name></trkpt>
<trkpt lat="52.048518" lon="05.772280"><ele>16.5</ele><time>2022-03-04T15:13:54Z</time><name>PT4820</name></trkpt>
<trkpt lat="52.048529" lon="05.772269"><ele>16.4</ele><time>2022-03-04T15:13:55Z</time><name>PT4821</name></trkpt>
<trkpt lat="52.048542" lon="05.772260"><ele>16.5</ele><time>2022-03-04T15:13:56Z</time><name>PT4822</name></trkpt>
<trkpt lat="52.048553" lon="05.772252"><ele>16.3</ele><time>2022-03-04T15:13:57Z</time><name>PT4823</name></trkpt>
<trkpt lat="52.048565" lon="05.772238"><ele>16.3</ele><time>2022-03-04T15:13:58Z</time><name>PT4824</name></trkpt>
<trkpt lat="52.048571" lon="05.772230"><ele>16.3</ele><time>2022-03-04T15:13:59Z</time><name>PT4825</name></trkpt>
<trkpt lat="52.048577" lon="05.772222"><ele>16</ele><time>2022-03-04T15:14:00Z</time><name>PT4826</name></trkpt>
<trkpt lat="52.048585" lon="05.772214"><ele>16</ele><time>2022-03-04T15:14:01Z</time><name>PT4827</name></trkpt>
<trkpt lat="52.048596" lon="05.772205"><ele>15.9</ele><time>2022-03-04T15:14:02Z</time><name>PT4828</name></trkpt>
<trkpt lat="52.048607" lon="05.772200"><ele>15.9</ele><time>2022-03-04T15:14:03Z</time><name>PT4829</name></trkpt>
<trkpt lat="52.048619" lon="05.772189"><ele>15.7</ele><time>2022-03-04T15:14:04Z</time><name>PT4830</name></trkpt>
<trkpt lat="52.048626" lon="05.772182"><ele>15.9</ele><time>2022-03-04T15:14:05Z</time><name>PT4831</name></trkpt>
<trkpt lat="52.048628" lon="05.772173"><ele>15.9</ele><time>2022-03-04T15:14:07Z</time><name>PT4832</name></trkpt>
<trkpt lat="52.048635" lon="05.772166"><ele>16</ele><time>2022-03-04T15:14:07Z</time><name>PT4833</name></trkpt>
<trkpt lat="52.048642" lon="05.772163"><ele>15.9</ele><time>2022-03-04T15:14:08Z</time><name>PT4834</name></trkpt>
<trkpt lat="52.048654" lon="05.772154"><ele>15.9</ele><time>2022-03-04T15:14:09Z</time><name>PT4835</name></trkpt>
<trkpt lat="52.048669" lon="05.772141"><ele>16</ele><time>2022-03-04T15:14:10Z</time><name>PT4836</name></trkpt>
<trkpt lat="52.048680" lon="05.772131"><ele>16</ele><time>2022-03-04T15:14:11Z</time><name>PT4837</name></trkpt>
<trkpt lat="52.048686" lon="05.772125"><ele>15.6</ele><time>2022-03-04T15:14:12Z</time><name>PT4838</name></trkpt>
<trkpt lat="52.048690" lon="05.772121"><ele>15.6</ele><time>2022-03-04T15:14:13Z</time><name>PT4839</name></trkpt>
<trkpt lat="52.048695" lon="05.772114"><ele>15.5</ele><time>2022-03-04T15:14:14Z</time><name>PT4840</name></trkpt>
<trkpt lat="52.048707" lon="05.772106"><ele>15.3</ele><time>2022-03-04T15:14:15Z</time><name>PT4841</name></trkpt>
<trkpt lat="52.048714" lon="05.772103"><ele>15.2</ele><time>2022-03-04T15:14:16Z</time><name>PT4842</name></trkpt>
<trkpt lat="52.048720" lon="05.772098"><ele>15.5</ele><time>2022-03-04T15:14:17Z</time><name>PT4843</name></trkpt>
<trkpt lat="52.048727" lon="05.772089"><ele>15.4</ele><time>2022-03-04T15:14:18Z</time><name>PT4844</name></trkpt>
<trkpt lat="52.048733" lon="05.772079"><ele>15.5</ele><time>2022-03-04T15:14:19Z</time><name>PT4845</name></trkpt>
<trkpt lat="52.048745" lon="05.772068"><ele>15.3</ele><time>2022-03-04T15:14:20Z</time><name>PT4846</name></trkpt>
<trkpt lat="52.048753" lon="05.772060"><ele>15.2</ele><time>2022-03-04T15:14:21Z</time><name>PT4847</name></trkpt>
<trkpt lat="52.048758" lon="05.772054"><ele>15.1</ele><time>2022-03-04T15:14:22Z</time><name>PT4848</name></trkpt>
<trkpt lat="52.048772" lon="05.772045"><ele>14.8</ele><time>2022-03-04T15:14:23Z</time><name>PT4849</name></trkpt>
<trkpt lat="52.048783" lon="05.772038"><ele>14.7</ele><time>2022-03-04T15:14:24Z</time><name>PT4850</name></trkpt>
<trkpt lat="52.048792" lon="05.772032"><ele>14.9</ele><time>2022-03-04T15:14:25Z</time><name>PT4851</name></trkpt>
<trkpt lat="52.048799" lon="05.772024"><ele>14.7</ele><time>2022-03-04T15:14:26Z</time><name>PT4852</name></trkpt>
<trkpt lat="52.048808" lon="05.772019"><ele>14.9</ele><time>2022-03-04T15:14:27Z</time><name>PT4853</name></trkpt>
<trkpt lat="52.048818" lon="05.772012"><ele>14.9</ele><time>2022-03-04T15:14:28Z</time><name>PT4854</name></trkpt>
<trkpt lat="52.048826" lon="05.772006"><ele>14.8</ele><time>2022-03-04T15:14:29Z</time><name>PT4855</name></trkpt>
<trkpt lat="52.048828" lon="05.772000"><ele>14.7</ele><time>2022-03-04T15:14:30Z</time><name>PT4856</name></trkpt>
<trkpt lat="52.048834" lon="05.771993"><ele>14.7</ele><time>2022-03-04T15:14:31Z</time><name>PT4857</name></trkpt>
<trkpt lat="52.048841" lon="05.771984"><ele>14.6</ele><time>2022-03-04T15:14:32Z</time><name>PT4858</name></trkpt>
<trkpt lat="52.048848" lon="05.771974"><ele>14.6</ele><time>2022-03-04T15:14:33Z</time><name>PT4859</name></trkpt>
<trkpt lat="52.048850" lon="05.771969"><ele>14.6</ele><time>2022-03-04T15:14:34Z</time><name>PT4860</name></trkpt>
<trkpt lat="52.048865" lon="05.771964"><ele>14.5</ele><time>2022-03-04T15:14:35Z</time><name>PT4861</name></trkpt>
<trkpt lat="52.048882" lon="05.771963"><ele>14.5</ele><time>2022-03-04T15:14:36Z</time><name>PT4862</name></trkpt>
<trkpt lat="52.048888" lon="05.771952"><ele>14.5</ele><time>2022-03-04T15:14:37Z</time><name>PT4863</name></trkpt>
<trkpt lat="52.048892" lon="05.771946"><ele>14.3</ele><time>2022-03-04T15:14:38Z</time><name>PT4864</name></trkpt>
<trkpt lat="52.048905" lon="05.771939"><ele>14.4</ele><time>2022-03-04T15:14:39Z</time><name>PT4865</name></trkpt>
<trkpt lat="52.048915" lon="05.771932"><ele>14.3</ele><time>2022-03-04T15:14:40Z</time><name>PT4866</name></trkpt>
<trkpt lat="52.048929" lon="05.771921"><ele>14.5</ele><time>2022-03-04T15:14:41Z</time><name>PT4867</name></trkpt>
<trkpt lat="52.048937" lon="05.771911"><ele>14.4</ele><time>2022-03-04T15:14:42Z</time><name>PT4868</name></trkpt>
<trkpt lat="52.048944" lon="05.771902"><ele>14.2</ele><time>2022-03-04T15:14:43Z</time><name>PT4869</name></trkpt>
<trkpt lat="52.048950" lon="05.771897"><ele>14.1</ele><time>2022-03-04T15:14:44Z</time><name>PT4870</name></trkpt>
<trkpt lat="52.048958" lon="05.771891"><ele>13.8</ele><time>2022-03-04T15:14:45Z</time><name>PT4871</name></trkpt>
<trkpt lat="52.048965" lon="05.771883"><ele>13.7</ele><time>2022-03-04T15:14:46Z</time><name>PT4872</name></trkpt>
<trkpt lat="52.048967" lon="05.771876"><ele>13.8</ele><time>2022-03-04T15:14:47Z</time><name>PT4873</name></trkpt>
<trkpt lat="52.048972" lon="05.771866"><ele>13.9</ele><time>2022-03-04T15:14:48Z</time><name>PT4874</name></trkpt>
<trkpt lat="52.048978" lon="05.771856"><ele>14</ele><time>2022-03-04T15:14:49Z</time><name>PT4875</name></trkpt>
<trkpt lat="52.048982" lon="05.771847"><ele>14</ele><time>2022-03-04T15:14:50Z</time><name>PT4876</name></trkpt>
<trkpt lat="52.048985" lon="05.771838"><ele>13.8</ele><time>2022-03-04T15:14:51Z</time><name>PT4877</name></trkpt>
<trkpt lat="52.048992" lon="05.771829"><ele>13.8</ele><time>2022-03-04T15:14:52Z</time><name>PT4878</name></trkpt>
<trkpt lat="52.049000" lon="05.771820"><ele>13.7</ele><time>2022-03-04T15:14:53Z</time><name>PT4879</name></trkpt>
<trkpt lat="52.049024" lon="05.771812"><ele>13.6</ele><time>2022-03-04T15:14:54Z</time><name>PT4880</name></trkpt>
<trkpt lat="52.049027" lon="05.771810"><ele>13.5</ele><time>2022-03-04T15:14:55Z</time><name>PT4881</name></trkpt>
<trkpt lat="52.049037" lon="05.771803"><ele>13.4</ele><time>2022-03-04T15:14:56Z</time><name>PT4882</name></trkpt>
<trkpt lat="52.049047" lon="05.771792"><ele>13.2</ele><time>2022-03-04T15:14:57Z</time><name>PT4883</name></trkpt>
<trkpt lat="52.049056" lon="05.771783"><ele>13.2</ele><time>2022-03-04T15:14:58Z</time><name>PT4884</name></trkpt>
<trkpt lat="52.049062" lon="05.771777"><ele>13.2</ele><time>2022-03-04T15:14:59Z</time><name>PT4885</name></trkpt>
<trkpt lat="52.049077" lon="05.771765"><ele>13.4</ele><time>2022-03-04T15:15:00Z</time><name>PT4886</name></trkpt>
<trkpt lat="52.049084" lon="05.771755"><ele>13.3</ele><time>2022-03-04T15:15:01Z</time><name>PT4887</name></trkpt>
<trkpt lat="52.049095" lon="05.771744"><ele>13.5</ele><time>2022-03-04T15:15:02Z</time><name>PT4888</name></trkpt>
<trkpt lat="52.049106" lon="05.771736"><ele>13.4</ele><time>2022-03-04T15:15:04Z</time><name>PT4889</name></trkpt>
<trkpt lat="52.049113" lon="05.771731"><ele>13.4</ele><time>2022-03-04T15:15:04Z</time><name>PT4890</name></trkpt>
<trkpt lat="52.049122" lon="05.771722"><ele>13.2</ele><time>2022-03-04T15:15:05Z</time><name>PT4891</name></trkpt>
<trkpt lat="52.049131" lon="05.771712"><ele>13.1</ele><time>2022-03-04T15:15:06Z</time><name>PT4892</name></trkpt>
<trkpt lat="52.049136" lon="05.771703"><ele>13</ele><time>2022-03-04T15:15:07Z</time><name>PT4893</name></trkpt>
<trkpt lat="52.049144" lon="05.771693"><ele>13</ele><time>2022-03-04T15:15:08Z</time><name>PT4894</name></trkpt>
<trkpt lat="52.049158" lon="05.771684"><ele>12.9</ele><time>2022-03-04T15:15:10Z</time><name>PT4895</name></trkpt>
<trkpt lat="52.049171" lon="05.771670"><ele>12.9</ele><time>2022-03-04T15:15:10Z</time><name>PT4896</name></trkpt>
<trkpt lat="52.049177" lon="05.771660"><ele>12.9</ele><time>2022-03-04T15:15:11Z</time><name>PT4897</name></trkpt>
<trkpt lat="52.049184" lon="05.771651"><ele>13</ele><time>2022-03-04T15:15:12Z</time><name>PT4898</name></trkpt>
<trkpt lat="52.049195" lon="05.771642"><ele>12.9</ele><time>2022-03-04T15:15:13Z</time><name>PT4899</name></trkpt>
<trkpt lat="52.049202" lon="05.771626"><ele>12.9</ele><time>2022-03-04T15:15:14Z</time><name>PT4900</name></trkpt>
<trkpt lat="52.049218" lon="05.771616"><ele>13</ele><time>2022-03-04T15:15:15Z</time><name>PT4901</name></trkpt>
<trkpt lat="52.049222" lon="05.771612"><ele>13</ele><time>2022-03-04T15:15:16Z</time><name>PT4902</name></trkpt>
<trkpt lat="52.049228" lon="05.771603"><ele>13</ele><time>2022-03-04T15:15:17Z</time><name>PT4903</name></trkpt>
<trkpt lat="52.049234" lon="05.771593"><ele>13.1</ele><time>2022-03-04T15:15:18Z</time><name>PT4904</name></trkpt>
<trkpt lat="52.049237" lon="05.771585"><ele>13.1</ele><time>2022-03-04T15:15:19Z</time><name>PT4905</name></trkpt>
<trkpt lat="52.049240" lon="05.771579"><ele>13.2</ele><time>2022-03-04T15:15:20Z</time><name>PT4906</name></trkpt>
<trkpt lat="52.049242" lon="05.771577"><ele>13.1</ele><time>2022-03-04T15:15:21Z</time><name>PT4907</name></trkpt>
<trkpt lat="52.049251" lon="05.771567"><ele>13.2</ele><time>2022-03-04T15:15:22Z</time><name>PT4908</name></trkpt>
<trkpt lat="52.049265" lon="05.771554"><ele>13</ele><time>2022-03-04T15:15:23Z</time><name>PT4909</name></trkpt>
<trkpt lat="52.049279" lon="05.771544"><ele>13</ele><time>2022-03-04T15:15:24Z</time><name>PT4910</name></trkpt>
<trkpt lat="52.049292" lon="05.771533"><ele>13</ele><time>2022-03-04T15:15:25Z</time><name>PT4911</name></trkpt>
<trkpt lat="52.049298" lon="05.771524"><ele>12.8</ele><time>2022-03-04T15:15:26Z</time><name>PT4912</name></trkpt>
<trkpt lat="52.049308" lon="05.771516"><ele>12.7</ele><time>2022-03-04T15:15:27Z</time><name>PT4913</name></trkpt>
<trkpt lat="52.049319" lon="05.771506"><ele>12.7</ele><time>2022-03-04T15:15:28Z</time><name>PT4914</name></trkpt>
<trkpt lat="52.049328" lon="05.771495"><ele>12.9</ele><time>2022-03-04T15:15:29Z</time><name>PT4915</name></trkpt>
<trkpt lat="52.049339" lon="05.771490"><ele>12.7</ele><time>2022-03-04T15:15:30Z</time><name>PT4916</name></trkpt>
<trkpt lat="52.049346" lon="05.771484"><ele>12.7</ele><time>2022-03-04T15:15:31Z</time><name>PT4917</name></trkpt>
<trkpt lat="52.049339" lon="05.771478"><ele>12.7</ele><time>2022-03-04T15:15:32Z</time><name>PT4918</name></trkpt>
<trkpt lat="52.049347" lon="05.771469"><ele>12.7</ele><time>2022-03-04T15:15:33Z</time><name>PT4919</name></trkpt>
<trkpt lat="52.049354" lon="05.771458"><ele>12.6</ele><time>2022-03-04T15:15:34Z</time><name>PT4920</name></trkpt>
<trkpt lat="52.049361" lon="05.771447"><ele>12.7</ele><time>2022-03-04T15:15:35Z</time><name>PT4921</name></trkpt>
<trkpt lat="52.049365" lon="05.771438"><ele>12.8</ele><time>2022-03-04T15:15:36Z</time><name>PT4922</name></trkpt>
<trkpt lat="52.049367" lon="05.771431"><ele>12.7</ele><time>2022-03-04T15:15:37Z</time><name>PT4923</name></trkpt>
<trkpt lat="52.049369" lon="05.771420"><ele>12.7</ele><time>2022-03-04T15:15:38Z</time><name>PT4924</name></trkpt>
<trkpt lat="52.049375" lon="05.771412"><ele>12.7</ele><time>2022-03-04T15:15:39Z</time><name>PT4925</name></trkpt>
<trkpt lat="52.049370" lon="05.771411"><ele>12.5</ele><time>2022-03-04T15:15:40Z</time><name>PT4926</name></trkpt>
<trkpt lat="52.049379" lon="05.771404"><ele>12.4</ele><time>2022-03-04T15:15:41Z</time><name>PT4927</name></trkpt>
<trkpt lat="52.049382" lon="05.771396"><ele>12.3</ele><time>2022-03-04T15:15:42Z</time><name>PT4928</name></trkpt>
<trkpt lat="52.049383" lon="05.771385"><ele>12.3</ele><time>2022-03-04T15:15:43Z</time><name>PT4929</name></trkpt>
<trkpt lat="52.049388" lon="05.771373"><ele>12.2</ele><time>2022-03-04T15:15:44Z</time><name>PT4930</name></trkpt>
<trkpt lat="52.049405" lon="05.771365"><ele>12.3</ele><time>2022-03-04T15:15:45Z</time><name>PT4931</name></trkpt>
<trkpt lat="52.049421" lon="05.771353"><ele>12.3</ele><time>2022-03-04T15:15:46Z</time><name>PT4932</name></trkpt>
<trkpt lat="52.049424" lon="05.771342"><ele>12.3</ele><time>2022-03-04T15:15:47Z</time><name>PT4933</name></trkpt>
<trkpt lat="52.049431" lon="05.771332"><ele>12.2</ele><time>2022-03-04T15:15:48Z</time><name>PT4934</name></trkpt>
<trkpt lat="52.049434" lon="05.771321"><ele>12.2</ele><time>2022-03-04T15:15:49Z</time><name>PT4935</name></trkpt>
<trkpt lat="52.049433" lon="05.771310"><ele>12</ele><time>2022-03-04T15:15:50Z</time><name>PT4936</name></trkpt>
<trkpt lat="52.049433" lon="05.771300"><ele>11.9</ele><time>2022-03-04T15:15:51Z</time><name>PT4937</name></trkpt>
<trkpt lat="52.049448" lon="05.771290"><ele>12</ele><time>2022-03-04T15:15:52Z</time><name>PT4938</name></trkpt>
<trkpt lat="52.049448" lon="05.771281"><ele>11.9</ele><time>2022-03-04T15:15:53Z</time><name>PT4939</name></trkpt>
<trkpt lat="52.049462" lon="05.771269"><ele>11.8</ele><time>2022-03-04T15:15:54Z</time><name>PT4940</name></trkpt>
<trkpt lat="52.049478" lon="05.771254"><ele>11.9</ele><time>2022-03-04T15:15:55Z</time><name>PT4941</name></trkpt>
<trkpt lat="52.049484" lon="05.771241"><ele>12</ele><time>2022-03-04T15:15:56Z</time><name>PT4942</name></trkpt>
<trkpt lat="52.049495" lon="05.771230"><ele>11.8</ele><time>2022-03-04T15:15:57Z</time><name>PT4943</name></trkpt>
<trkpt lat="52.049509" lon="05.771219"><ele>11.8</ele><time>2022-03-04T15:15:58Z</time><name>PT4944</name></trkpt>
<trkpt lat="52.049517" lon="05.771207"><ele>11.8</ele><time>2022-03-04T15:15:59Z</time><name>PT4945</name></trkpt>
<trkpt lat="52.049527" lon="05.771199"><ele>11.7</ele><time>2022-03-04T15:16:00Z</time><name>PT4946</name></trkpt>
<trkpt lat="52.049539" lon="05.771185"><ele>11.6</ele><time>2022-03-04T15:16:01Z</time><name>PT4947</name></trkpt>
<trkpt lat="52.049550" lon="05.771171"><ele>11.6</ele><time>2022-03-04T15:16:02Z</time><name>PT4948</name></trkpt>
<trkpt lat="52.049554" lon="05.771159"><ele>11.7</ele><time>2022-03-04T15:16:03Z</time><name>PT4949</name></trkpt>
<trkpt lat="52.049561" lon="05.771145"><ele>11.6</ele><time>2022-03-04T15:16:04Z</time><name>PT4950</name></trkpt>
<trkpt lat="52.049570" lon="05.771134"><ele>11.6</ele><time>2022-03-04T15:16:05Z</time><name>PT4951</name></trkpt>
<trkpt lat="52.049579" lon="05.771123"><ele>11.6</ele><time>2022-03-04T15:16:06Z</time><name>PT4952</name></trkpt>
<trkpt lat="52.049588" lon="05.771115"><ele>11.5</ele><time>2022-03-04T15:16:07Z</time><name>PT4953</name></trkpt>
<trkpt lat="52.049603" lon="05.771099"><ele>11.3</ele><time>2022-03-04T15:16:08Z</time><name>PT4954</name></trkpt>
<trkpt lat="52.049608" lon="05.771090"><ele>11.4</ele><time>2022-03-04T15:16:09Z</time><name>PT4955</name></trkpt>
<trkpt lat="52.049629" lon="05.771078"><ele>11.3</ele><time>2022-03-04T15:16:10Z</time><name>PT4956</name></trkpt>
<trkpt lat="52.049641" lon="05.771066"><ele>11.3</ele><time>2022-03-04T15:16:11Z</time><name>PT4957</name></trkpt>
<trkpt lat="52.049660" lon="05.771056"><ele>11.4</ele><time>2022-03-04T15:16:12Z</time><name>PT4958</name></trkpt>
<trkpt lat="52.049675" lon="05.771046"><ele>11.4</ele><time>2022-03-04T15:16:13Z</time><name>PT4959</name></trkpt>
<trkpt lat="52.049692" lon="05.771032"><ele>11.2</ele><time>2022-03-04T15:16:14Z</time><name>PT4960</name></trkpt>
<trkpt lat="52.049716" lon="05.771025"><ele>11.3</ele><time>2022-03-04T15:16:15Z</time><name>PT4961</name></trkpt>
<trkpt lat="52.049735" lon="05.771012"><ele>11.3</ele><time>2022-03-04T15:16:16Z</time><name>PT4962</name></trkpt>
<trkpt lat="52.049748" lon="05.771001"><ele>11.2</ele><time>2022-03-04T15:16:17Z</time><name>PT4963</name></trkpt>
<trkpt lat="52.049759" lon="05.770990"><ele>11.2</ele><time>2022-03-04T15:16:18Z</time><name>PT4964</name></trkpt>
<trkpt lat="52.049778" lon="05.770976"><ele>11.2</ele><time>2022-03-04T15:16:19Z</time><name>PT4965</name></trkpt>
<trkpt lat="52.049794" lon="05.770962"><ele>11.2</ele><time>2022-03-04T15:16:20Z</time><name>PT4966</name></trkpt>
<trkpt lat="52.049822" lon="05.770942"><ele>11</ele><time>2022-03-04T15:16:22Z</time><name>PT4967</name></trkpt>
<trkpt lat="52.049835" lon="05.770928"><ele>11</ele><time>2022-03-04T15:16:22Z</time><name>PT4968</name></trkpt>
<trkpt lat="52.049851" lon="05.770917"><ele>10.8</ele><time>2022-03-04T15:16:23Z</time><name>PT4969</name></trkpt>
<trkpt lat="52.049869" lon="05.770903"><ele>10.8</ele><time>2022-03-04T15:16:25Z</time><name>PT4970</name></trkpt>
<trkpt lat="52.049879" lon="05.770889"><ele>10.8</ele><time>2022-03-04T15:16:25Z</time><name>PT4971</name></trkpt>
<trkpt lat="52.049889" lon="05.770869"><ele>10.9</ele><time>2022-03-04T15:16:26Z</time><name>PT4972</name></trkpt>
<trkpt lat="52.049902" lon="05.770858"><ele>11.1</ele><time>2022-03-04T15:16:27Z</time><name>PT4973</name></trkpt>
<trkpt lat="52.049911" lon="05.770855"><ele>11.1</ele><time>2022-03-04T15:16:28Z</time><name>PT4974</name></trkpt>
<trkpt lat="52.049924" lon="05.770849"><ele>11.1</ele><time>2022-03-04T15:16:29Z</time><name>PT4975</name></trkpt>
<trkpt lat="52.049935" lon="05.770838"><ele>11</ele><time>2022-03-04T15:16:30Z</time><name>PT4976</name></trkpt>
<trkpt lat="52.049952" lon="05.770828"><ele>10.8</ele><time>2022-03-04T15:16:31Z</time><name>PT4977</name></trkpt>
<trkpt lat="52.049969" lon="05.770815"><ele>10.7</ele><time>2022-03-04T15:16:32Z</time><name>PT4978</name></trkpt>
<trkpt lat="52.049984" lon="05.770806"><ele>10.7</ele><time>2022-03-04T15:16:33Z</time><name>PT4979</name></trkpt>
<trkpt lat="52.049992" lon="05.770795"><ele>10.8</ele><time>2022-03-04T15:16:34Z</time><name>PT4980</name></trkpt>
<trkpt lat="52.050001" lon="05.770785"><ele>10.7</ele><time>2022-03-04T15:16:35Z</time><name>PT4981</name></trkpt>
<trkpt lat="52.050009" lon="05.770776"><ele>10.6</ele><time>2022-03-04T15:16:36Z</time><name>PT4982</name></trkpt>
<trkpt lat="52.050018" lon="05.770769"><ele>10.6</ele><time>2022-03-04T15:16:37Z</time><name>PT4983</name></trkpt>
<trkpt lat="52.050031" lon="05.770756"><ele>10.5</ele><time>2022-03-04T15:16:38Z</time><name>PT4984</name></trkpt>
<trkpt lat="52.050041" lon="05.770742"><ele>10.3</ele><time>2022-03-04T15:16:39Z</time><name>PT4985</name></trkpt>
<trkpt lat="52.050051" lon="05.770732"><ele>10.3</ele><time>2022-03-04T15:16:40Z</time><name>PT4986</name></trkpt>
<trkpt lat="52.050059" lon="05.770722"><ele>10.3</ele><time>2022-03-04T15:16:41Z</time><name>PT4987</name></trkpt>
<trkpt lat="52.050064" lon="05.770713"><ele>10.1</ele><time>2022-03-04T15:16:42Z</time><name>PT4988</name></trkpt>
<trkpt lat="52.050064" lon="05.770700"><ele>10.3</ele><time>2022-03-04T15:16:43Z</time><name>PT4989</name></trkpt>
<trkpt lat="52.050068" lon="05.770688"><ele>10.3</ele><time>2022-03-04T15:16:44Z</time><name>PT4990</name></trkpt>
<trkpt lat="52.050075" lon="05.770675"><ele>10.2</ele><time>2022-03-04T15:16:45Z</time><name>PT4991</name></trkpt>
<trkpt lat="52.050085" lon="05.770661"><ele>10.4</ele><time>2022-03-04T15:16:46Z</time><name>PT4992</name></trkpt>
<trkpt lat="52.050098" lon="05.770648"><ele>10.3</ele><time>2022-03-04T15:16:47Z</time><name>PT4993</name></trkpt>
<trkpt lat="52.050106" lon="05.770637"><ele>10.2</ele><time>2022-03-04T15:16:48Z</time><name>PT4994</name></trkpt>
<trkpt lat="52.050116" lon="05.770630"><ele>10</ele><time>2022-03-04T15:16:49Z</time><name>PT4995</name></trkpt>
<trkpt lat="52.050125" lon="05.770625"><ele>9.9</ele><time>2022-03-04T15:16:50Z</time><name>PT4996</name></trkpt>
<trkpt lat="52.050133" lon="05.770613"><ele>10.1</ele><time>2022-03-04T15:16:52Z</time><name>PT4997</name></trkpt>
<trkpt lat="52.050142" lon="05.770601"><ele>10.3</ele><time>2022-03-04T15:16:52Z</time><name>PT4998</name></trkpt>
<trkpt lat="52.050151" lon="05.770587"><ele>10.3</ele><time>2022-03-04T15:16:53Z</time><name>PT4999</name></trkpt>
<trkpt lat="52.050156" lon="05.770573"><ele>10.4</ele><time>2022-03-04T15:16:54Z</time><name>PT5000</name></trkpt>
<trkpt lat="52.050162" lon="05.770563"><ele>10.3</ele><time>2022-03-04T15:16:55Z</time><name>PT5001</name></trkpt>
<trkpt lat="52.050168" lon="05.770556"><ele>10.4</ele><time>2022-03-04T15:16:56Z</time><name>PT5002</name></trkpt>
<trkpt lat="52.050174" lon="05.770545"><ele>10.1</ele><time>2022-03-04T15:16:58Z</time><name>PT5003</name></trkpt>
<trkpt lat="52.050182" lon="05.770537"><ele>10.1</ele><time>2022-03-04T15:16:58Z</time><name>PT5004</name></trkpt>
<trkpt lat="52.050189" lon="05.770530"><ele>10</ele><time>2022-03-04T15:17:00Z</time><name>PT5005</name></trkpt>
<trkpt lat="52.050198" lon="05.770523"><ele>9.9</ele><time>2022-03-04T15:17:01Z</time><name>PT5006</name></trkpt>
<trkpt lat="52.050203" lon="05.770517"><ele>9.8</ele><time>2022-03-04T15:17:01Z</time><name>PT5007</name></trkpt>
<trkpt lat="52.050207" lon="05.770509"><ele>9.8</ele><time>2022-03-04T15:17:02Z</time><name>PT5008</name></trkpt>
<trkpt lat="52.050218" lon="05.770500"><ele>9.7</ele><time>2022-03-04T15:17:04Z</time><name>PT5009</name></trkpt>
<trkpt lat="52.050232" lon="05.770486"><ele>9.8</ele><time>2022-03-04T15:17:04Z</time><name>PT5010</name></trkpt>
<trkpt lat="52.050240" lon="05.770473"><ele>9.8</ele><time>2022-03-04T15:17:05Z</time><name>PT5011</name></trkpt>
<trkpt lat="52.050245" lon="05.770466"><ele>9.8</ele><time>2022-03-04T15:17:07Z</time><name>PT5012</name></trkpt>
<trkpt lat="52.050251" lon="05.770455"><ele>9.9</ele><time>2022-03-04T15:17:07Z</time><name>PT5013</name></trkpt>
<trkpt lat="52.050257" lon="05.770450"><ele>9.7</ele><time>2022-03-04T15:17:08Z</time><name>PT5014</name></trkpt>
<trkpt lat="52.050266" lon="05.770443"><ele>9.7</ele><time>2022-03-04T15:17:09Z</time><name>PT5015</name></trkpt>
<trkpt lat="52.050273" lon="05.770427"><ele>9.6</ele><time>2022-03-04T15:17:10Z</time><name>PT5016</name></trkpt>
<trkpt lat="52.050284" lon="05.770413"><ele>9.6</ele><time>2022-03-04T15:17:11Z</time><name>PT5017</name></trkpt>
<trkpt lat="52.050293" lon="05.770405"><ele>9.5</ele><time>2022-03-04T15:17:13Z</time><name>PT5018</name></trkpt>
<trkpt lat="52.050300" lon="05.770394"><ele>9.6</ele><time>2022-03-04T15:17:13Z</time><name>PT5019</name></trkpt>
<trkpt lat="52.050307" lon="05.770381"><ele>9.4</ele><time>2022-03-04T15:17:14Z</time><name>PT5020</name></trkpt>
<trkpt lat="52.050317" lon="05.770369"><ele>9.5</ele><time>2022-03-04T15:17:16Z</time><name>PT5021</name></trkpt>
<trkpt lat="52.050328" lon="05.770352"><ele>9.4</ele><time>2022-03-04T15:17:16Z</time><name>PT5022</name></trkpt>
<trkpt lat="52.050340" lon="05.770339"><ele>9.4</ele><time>2022-03-04T15:17:17Z</time><name>PT5023</name></trkpt>
<trkpt lat="52.050348" lon="05.770333"><ele>9.3</ele><time>2022-03-04T15:17:18Z</time><name>PT5024</name></trkpt>
<trkpt lat="52.050357" lon="05.770321"><ele>9.4</ele><time>2022-03-04T15:17:19Z</time><name>PT5025</name></trkpt>
<trkpt lat="52.050363" lon="05.770310"><ele>9.4</ele><time>2022-03-04T15:17:20Z</time><name>PT5026</name></trkpt>
<trkpt lat="52.050371" lon="05.770298"><ele>9.3</ele><time>2022-03-04T15:17:21Z</time><name>PT5027</name></trkpt>
<trkpt lat="52.050381" lon="05.770288"><ele>9.3</ele><time>2022-03-04T15:17:22Z</time><name>PT5028</name></trkpt>
<trkpt lat="52.050391" lon="05.770275"><ele>9.2</ele><time>2022-03-04T15:17:23Z</time><name>PT5029</name></trkpt>
<trkpt lat="52.050403" lon="05.770262"><ele>9</ele><time>2022-03-04T15:17:24Z</time><name>PT5030</name></trkpt>
<trkpt lat="52.050411" lon="05.770249"><ele>9</ele><time>2022-03-04T15:17:25Z</time><name>PT5031</name></trkpt>
<trkpt lat="52.050418" lon="05.770242"><ele>8.9</ele><time>2022-03-04T15:17:26Z</time><name>PT5032</name></trkpt>
<trkpt lat="52.050424" lon="05.770236"><ele>8.9</ele><time>2022-03-04T15:17:28Z</time><name>PT5033</name></trkpt>
<trkpt lat="52.050429" lon="05.770226"><ele>8.9</ele><time>2022-03-04T15:17:28Z</time><name>PT5034</name></trkpt>
<trkpt lat="52.050440" lon="05.770214"><ele>8.8</ele><time>2022-03-04T15:17:29Z</time><name>PT5035</name></trkpt>
<trkpt lat="52.050454" lon="05.770198"><ele>9</ele><time>2022-03-04T15:17:30Z</time><name>PT5036</name></trkpt>
<trkpt lat="52.050467" lon="05.770188"><ele>9.1</ele><time>2022-03-04T15:17:31Z</time><name>PT5037</name></trkpt>
<trkpt lat="52.050475" lon="05.770180"><ele>9.1</ele><time>2022-03-04T15:17:32Z</time><name>PT5038</name></trkpt>
<trkpt lat="52.050482" lon="05.770170"><ele>9.2</ele><time>2022-03-04T15:17:33Z</time><name>PT5039</name></trkpt>
<trkpt lat="52.050490" lon="05.770164"><ele>9.5</ele><time>2022-03-04T15:17:34Z</time><name>PT5040</name></trkpt>
<trkpt lat="52.050493" lon="05.770160"><ele>9.2</ele><time>2022-03-04T15:17:35Z</time><name>PT5041</name></trkpt>
<trkpt lat="52.050499" lon="05.770148"><ele>9.1</ele><time>2022-03-04T15:17:36Z</time><name>PT5042</name></trkpt>
<trkpt lat="52.050511" lon="05.770133"><ele>8.9</ele><time>2022-03-04T15:17:37Z</time><name>PT5043</name></trkpt>
<trkpt lat="52.050521" lon="05.770119"><ele>8.7</ele><time>2022-03-04T15:17:38Z</time><name>PT5044</name></trkpt>
<trkpt lat="52.050530" lon="05.770108"><ele>8.5</ele><time>2022-03-04T15:17:39Z</time><name>PT5045</name></trkpt>
<trkpt lat="52.050537" lon="05.770098"><ele>8.6</ele><time>2022-03-04T15:17:40Z</time><name>PT5046</name></trkpt>
<trkpt lat="52.050543" lon="05.770086"><ele>8.5</ele><time>2022-03-04T15:17:41Z</time><name>PT5047</name></trkpt>
<trkpt lat="52.050550" lon="05.770075"><ele>8.6</ele><time>2022-03-04T15:17:43Z</time><name>PT5048</name></trkpt>
<trkpt lat="52.050559" lon="05.770063"><ele>8.7</ele><time>2022-03-04T15:17:43Z</time><name>PT5049</name></trkpt>
<trkpt lat="52.050570" lon="05.770053"><ele>8.6</ele><time>2022-03-04T15:17:44Z</time><name>PT5050</name></trkpt>
<trkpt lat="52.050579" lon="05.770046"><ele>8.5</ele><time>2022-03-04T15:17:45Z</time><name>PT5051</name></trkpt>
<trkpt lat="52.050585" lon="05.770035"><ele>8.5</ele><time>2022-03-04T15:17:46Z</time><name>PT5052</name></trkpt>
<trkpt lat="52.050592" lon="05.770023"><ele>8.5</ele><time>2022-03-04T15:17:47Z</time><name>PT5053</name></trkpt>
<trkpt lat="52.050598" lon="05.770014"><ele>8.4</ele><time>2022-03-04T15:17:49Z</time><name>PT5054</name></trkpt>
<trkpt lat="52.050606" lon="05.770000"><ele>8.4</ele><time>2022-03-04T15:17:49Z</time><name>PT5055</name></trkpt>
<trkpt lat="52.050620" lon="05.769988"><ele>8.5</ele><time>2022-03-04T15:17:50Z</time><name>PT5056</name></trkpt>
<trkpt lat="52.050632" lon="05.769979"><ele>8.5</ele><time>2022-03-04T15:17:51Z</time><name>PT5057</name></trkpt>
<trkpt lat="52.050642" lon="05.769970"><ele>8.3</ele><time>2022-03-04T15:17:52Z</time><name>PT5058</name></trkpt>
<trkpt lat="52.050648" lon="05.769961"><ele>8.4</ele><time>2022-03-04T15:17:53Z</time><name>PT5059</name></trkpt>
<trkpt lat="52.050653" lon="05.769948"><ele>8.2</ele><time>2022-03-04T15:17:54Z</time><name>PT5060</name></trkpt>
<trkpt lat="52.050659" lon="05.769933"><ele>8.2</ele><time>2022-03-04T15:17:55Z</time><name>PT5061</name></trkpt>
<trkpt lat="52.050670" lon="05.769923"><ele>8.1</ele><time>2022-03-04T15:17:56Z</time><name>PT5062</name></trkpt>
<trkpt lat="52.050678" lon="05.769915"><ele>8.1</ele><time>2022-03-04T15:17:57Z</time><name>PT5063</name></trkpt>
<trkpt lat="52.050684" lon="05.769905"><ele>8.3</ele><time>2022-03-04T15:17:58Z</time><name>PT5064</name></trkpt>
<trkpt lat="52.050689" lon="05.769894"><ele>8.3</ele><time>2022-03-04T15:17:59Z</time><name>PT5065</name></trkpt>
<trkpt lat="52.050696" lon="05.769881"><ele>8.3</ele><time>2022-03-04T15:18:00Z</time><name>PT5066</name></trkpt>
<trkpt lat="52.050706" lon="05.769867"><ele>8.4</ele><time>2022-03-04T15:18:01Z</time><name>PT5067</name></trkpt>
<trkpt lat="52.050716" lon="05.769855"><ele>8.5</ele><time>2022-03-04T15:18:02Z</time><name>PT5068</name></trkpt>
<trkpt lat="52.050724" lon="05.769847"><ele>8.3</ele><time>2022-03-04T15:18:03Z</time><name>PT5069</name></trkpt>
<trkpt lat="52.050731" lon="05.769836"><ele>8.3</ele><time>2022-03-04T15:18:04Z</time><name>PT5070</name></trkpt>
<trkpt lat="52.050735" lon="05.769825"><ele>8.2</ele><time>2022-03-04T15:18:05Z</time><name>PT5071</name></trkpt>
<trkpt lat="52.050742" lon="05.769810"><ele>8.1</ele><time>2022-03-04T15:18:06Z</time><name>PT5072</name></trkpt>
<trkpt lat="52.050754" lon="05.769794"><ele>8.1</ele><time>2022-03-04T15:18:07Z</time><name>PT5073</name></trkpt>
<trkpt lat="52.050767" lon="05.769782"><ele>8.1</ele><time>2022-03-04T15:18:08Z</time><name>PT5074</name></trkpt>
<trkpt lat="52.050775" lon="05.769776"><ele>8</ele><time>2022-03-04T15:18:09Z</time><name>PT5075</name></trkpt>
<trkpt lat="52.050780" lon="05.769769"><ele>8</ele><time>2022-03-04T15:18:10Z</time><name>PT5076</name></trkpt>
<trkpt lat="52.050784" lon="05.769759"><ele>7.9</ele><time>2022-03-04T15:18:11Z</time><name>PT5077</name></trkpt>
<trkpt lat="52.050792" lon="05.769748"><ele>7.8</ele><time>2022-03-04T15:18:12Z</time><name>PT5078</name></trkpt>
<trkpt lat="52.050801" lon="05.769734"><ele>7.8</ele><time>2022-03-04T15:18:13Z</time><name>PT5079</name></trkpt>
<trkpt lat="52.050810" lon="05.769724"><ele>7.8</ele><time>2022-03-04T15:18:14Z</time><name>PT5080</name></trkpt>
<trkpt lat="52.050818" lon="05.769714"><ele>7.9</ele><time>2022-03-04T15:18:15Z</time><name>PT5081</name></trkpt>
<trkpt lat="52.050826" lon="05.769704"><ele>8</ele><time>2022-03-04T15:18:16Z</time><name>PT5082</name></trkpt>
<trkpt lat="52.050832" lon="05.769693"><ele>7.9</ele><time>2022-03-04T15:18:17Z</time><name>PT5083</name></trkpt>
<trkpt lat="52.050839" lon="05.769678"><ele>7.7</ele><time>2022-03-04T15:18:18Z</time><name>PT5084</name></trkpt>
<trkpt lat="52.050849" lon="05.769661"><ele>7.7</ele><time>2022-03-04T15:18:19Z</time><name>PT5085</name></trkpt>
<trkpt lat="52.050857" lon="05.769649"><ele>7.7</ele><time>2022-03-04T15:18:20Z</time><name>PT5086</name></trkpt>
<trkpt lat="52.050863" lon="05.769642"><ele>7.6</ele><time>2022-03-04T15:18:21Z</time><name>PT5087</name></trkpt>
<trkpt lat="52.050868" lon="05.769636"><ele>7.7</ele><time>2022-03-04T15:18:22Z</time><name>PT5088</name></trkpt>
<trkpt lat="52.050875" lon="05.769627"><ele>7.8</ele><time>2022-03-04T15:18:23Z</time><name>PT5089</name></trkpt>
<trkpt lat="52.050883" lon="05.769613"><ele>7.7</ele><time>2022-03-04T15:18:24Z</time><name>PT5090</name></trkpt>
<trkpt lat="52.050890" lon="05.769600"><ele>7.7</ele><time>2022-03-04T15:18:25Z</time><name>PT5091</name></trkpt>
<trkpt lat="52.050893" lon="05.769590"><ele>7.7</ele><time>2022-03-04T15:18:26Z</time><name>PT5092</name></trkpt>
<trkpt lat="52.050897" lon="05.769579"><ele>7.5</ele><time>2022-03-04T15:18:27Z</time><name>PT5093</name></trkpt>
<trkpt lat="52.050901" lon="05.769560"><ele>7.5</ele><time>2022-03-04T15:18:28Z</time><name>PT5094</name></trkpt>
<trkpt lat="52.050905" lon="05.769543"><ele>7.6</ele><time>2022-03-04T15:18:29Z</time><name>PT5095</name></trkpt>
<trkpt lat="52.050909" lon="05.769533"><ele>7.6</ele><time>2022-03-04T15:18:30Z</time><name>PT5096</name></trkpt>
<trkpt lat="52.050913" lon="05.769527"><ele>7.5</ele><time>2022-03-04T15:18:31Z</time><name>PT5097</name></trkpt>
<trkpt lat="52.050913" lon="05.769511"><ele>7.5</ele><time>2022-03-04T15:18:32Z</time><name>PT5098</name></trkpt>
<trkpt lat="52.050912" lon="05.769491"><ele>7.5</ele><time>2022-03-04T15:18:33Z</time><name>PT5099</name></trkpt>
<trkpt lat="52.050913" lon="05.769474"><ele>7.4</ele><time>2022-03-04T15:18:34Z</time><name>PT5100</name></trkpt>
<trkpt lat="52.050914" lon="05.769458"><ele>7.5</ele><time>2022-03-04T15:18:35Z</time><name>PT5101</name></trkpt>
<trkpt lat="52.050912" lon="05.769445"><ele>7.5</ele><time>2022-03-04T15:18:36Z</time><name>PT5102</name></trkpt>
<trkpt lat="52.050908" lon="05.769432"><ele>7.6</ele><time>2022-03-04T15:18:37Z</time><name>PT5103</name></trkpt>
<trkpt lat="52.050906" lon="05.769415"><ele>7.8</ele><time>2022-03-04T15:18:38Z</time><name>PT5104</name></trkpt>
<trkpt lat="52.050904" lon="05.769394"><ele>7.9</ele><time>2022-03-04T15:18:39Z</time><name>PT5105</name></trkpt>
<trkpt lat="52.050903" lon="05.769367"><ele>8</ele><time>2022-03-04T15:18:40Z</time><name>PT5106</name></trkpt>
<trkpt lat="52.050904" lon="05.769346"><ele>7.8</ele><time>2022-03-04T15:18:41Z</time><name>PT5107</name></trkpt>
<trkpt lat="52.050900" lon="05.769331"><ele>7.6</ele><time>2022-03-04T15:18:42Z</time><name>PT5108</name></trkpt>
<trkpt lat="52.050898" lon="05.769320"><ele>7.6</ele><time>2022-03-04T15:18:43Z</time><name>PT5109</name></trkpt>
<trkpt lat="52.050897" lon="05.769309"><ele>7.5</ele><time>2022-03-04T15:18:45Z</time><name>PT5110</name></trkpt>
<trkpt lat="52.050893" lon="05.769296"><ele>7.5</ele><time>2022-03-04T15:18:45Z</time><name>PT5111</name></trkpt>
<trkpt lat="52.050885" lon="05.769277"><ele>7.5</ele><time>2022-03-04T15:18:46Z</time><name>PT5112</name></trkpt>
<trkpt lat="52.050877" lon="05.769262"><ele>7.4</ele><time>2022-03-04T15:18:47Z</time><name>PT5113</name></trkpt>
<trkpt lat="52.050870" lon="05.769252"><ele>7.2</ele><time>2022-03-04T15:18:48Z</time><name>PT5114</name></trkpt>
<trkpt lat="52.050864" lon="05.769241"><ele>7.3</ele><time>2022-03-04T15:18:49Z</time><name>PT5115</name></trkpt>
<trkpt lat="52.050859" lon="05.769232"><ele>7.1</ele><time>2022-03-04T15:18:50Z</time><name>PT5116</name></trkpt>
<trkpt lat="52.050851" lon="05.769220"><ele>7.2</ele><time>2022-03-04T15:18:51Z</time><name>PT5117</name></trkpt>
<trkpt lat="52.050844" lon="05.769202"><ele>7.3</ele><time>2022-03-04T15:18:52Z</time><name>PT5118</name></trkpt>
<trkpt lat="52.050838" lon="05.769182"><ele>7.5</ele><time>2022-03-04T15:18:53Z</time><name>PT5119</name></trkpt>
<trkpt lat="52.050834" lon="05.769166"><ele>7.5</ele><time>2022-03-04T15:18:54Z</time><name>PT5120</name></trkpt>
<trkpt lat="52.050831" lon="05.769154"><ele>7.5</ele><time>2022-03-04T15:18:55Z</time><name>PT5121</name></trkpt>
<trkpt lat="52.050827" lon="05.769141"><ele>7.5</ele><time>2022-03-04T15:18:56Z</time><name>PT5122</name></trkpt>
<trkpt lat="52.050821" lon="05.769127"><ele>7.5</ele><time>2022-03-04T15:18:57Z</time><name>PT5123</name></trkpt>
<trkpt lat="52.050814" lon="05.769111"><ele>7.5</ele><time>2022-03-04T15:18:58Z</time><name>PT5124</name></trkpt>
<trkpt lat="52.050808" lon="05.769096"><ele>7.4</ele><time>2022-03-04T15:18:59Z</time><name>PT5125</name></trkpt>
<trkpt lat="52.050804" lon="05.769088"><ele>7.4</ele><time>2022-03-04T15:19:00Z</time><name>PT5126</name></trkpt>
<trkpt lat="52.050800" lon="05.769081"><ele>7.5</ele><time>2022-03-04T15:19:01Z</time><name>PT5127</name></trkpt>
<trkpt lat="52.050794" lon="05.769072"><ele>7.3</ele><time>2022-03-04T15:19:02Z</time><name>PT5128</name></trkpt>
<trkpt lat="52.050787" lon="05.769054"><ele>7.4</ele><time>2022-03-04T15:19:03Z</time><name>PT5129</name></trkpt>
<trkpt lat="52.050780" lon="05.769038"><ele>7.3</ele><time>2022-03-04T15:19:04Z</time><name>PT5130</name></trkpt>
<trkpt lat="52.050772" lon="05.769030"><ele>7.4</ele><time>2022-03-04T15:19:05Z</time><name>PT5131</name></trkpt>
<trkpt lat="52.050770" lon="05.769020"><ele>7.4</ele><time>2022-03-04T15:19:06Z</time><name>PT5132</name></trkpt>
<trkpt lat="52.050767" lon="05.769009"><ele>7.4</ele><time>2022-03-04T15:19:07Z</time><name>PT5133</name></trkpt>
<trkpt lat="52.050762" lon="05.768989"><ele>7.4</ele><time>2022-03-04T15:19:08Z</time><name>PT5134</name></trkpt>
<trkpt lat="52.050757" lon="05.768966"><ele>7.5</ele><time>2022-03-04T15:19:09Z</time><name>PT5135</name></trkpt>
<trkpt lat="52.050752" lon="05.768949"><ele>7.5</ele><time>2022-03-04T15:19:10Z</time><name>PT5136</name></trkpt>
<trkpt lat="52.050750" lon="05.768936"><ele>7.5</ele><time>2022-03-04T15:19:11Z</time><name>PT5137</name></trkpt>
<trkpt lat="52.050749" lon="05.768927"><ele>7.6</ele><time>2022-03-04T15:19:12Z</time><name>PT5138</name></trkpt>
<trkpt lat="52.050746" lon="05.768919"><ele>7.7</ele><time>2022-03-04T15:19:13Z</time><name>PT5139</name></trkpt>
<trkpt lat="52.050740" lon="05.768906"><ele>7.5</ele><time>2022-03-04T15:19:14Z</time><name>PT5140</name></trkpt>
<trkpt lat="52.050735" lon="05.768885"><ele>7.5</ele><time>2022-03-04T15:19:15Z</time><name>PT5141</name></trkpt>
<trkpt lat="52.050727" lon="05.768860"><ele>7.4</ele><time>2022-03-04T15:19:16Z</time><name>PT5142</name></trkpt>
<trkpt lat="52.050721" lon="05.768837"><ele>7.3</ele><time>2022-03-04T15:19:17Z</time><name>PT5143</name></trkpt>
<trkpt lat="52.050717" lon="05.768820"><ele>7.3</ele><time>2022-03-04T15:19:18Z</time><name>PT5144</name></trkpt>
<trkpt lat="52.050715" lon="05.768808"><ele>7.4</ele><time>2022-03-04T15:19:19Z</time><name>PT5145</name></trkpt>
<trkpt lat="52.050700" lon="05.768799"><ele>7.4</ele><time>2022-03-04T15:19:20Z</time><name>PT5146</name></trkpt>
<trkpt lat="52.050688" lon="05.768784"><ele>7.4</ele><time>2022-03-04T15:19:21Z</time><name>PT5147</name></trkpt>
<trkpt lat="52.050678" lon="05.768768"><ele>7.5</ele><time>2022-03-04T15:19:22Z</time><name>PT5148</name></trkpt>
<trkpt lat="52.050673" lon="05.768746"><ele>7.5</ele><time>2022-03-04T15:19:23Z</time><name>PT5149</name></trkpt>
<trkpt lat="52.050668" lon="05.768729"><ele>7.5</ele><time>2022-03-04T15:19:24Z</time><name>PT5150</name></trkpt>
<trkpt lat="52.050663" lon="05.768718"><ele>7.5</ele><time>2022-03-04T15:19:25Z</time><name>PT5151</name></trkpt>
<trkpt lat="52.050661" lon="05.768697"><ele>7.6</ele><time>2022-03-04T15:19:26Z</time><name>PT5152</name></trkpt>
<trkpt lat="52.050655" lon="05.768679"><ele>7.5</ele><time>2022-03-04T15:19:27Z</time><name>PT5153</name></trkpt>
<trkpt lat="52.050650" lon="05.768664"><ele>7.5</ele><time>2022-03-04T15:19:28Z</time><name>PT5154</name></trkpt>
<trkpt lat="52.050644" lon="05.768647"><ele>7.7</ele><time>2022-03-04T15:19:29Z</time><name>PT5155</name></trkpt>
<trkpt lat="52.050639" lon="05.768632"><ele>7.9</ele><time>2022-03-04T15:19:30Z</time><name>PT5156</name></trkpt>
<trkpt lat="52.050637" lon="05.768619"><ele>7.8</ele><time>2022-03-04T15:19:31Z</time><name>PT5157</name></trkpt>
<trkpt lat="52.050631" lon="05.768606"><ele>7.9</ele><time>2022-03-04T15:19:32Z</time><name>PT5158</name></trkpt>
<trkpt lat="52.050624" lon="05.768591"><ele>8</ele><time>2022-03-04T15:19:33Z</time><name>PT5159</name></trkpt>
<trkpt lat="52.050620" lon="05.768578"><ele>8.1</ele><time>2022-03-04T15:19:34Z</time><name>PT5160</name></trkpt>
<trkpt lat="52.050614" lon="05.768567"><ele>8.1</ele><time>2022-03-04T15:19:35Z</time><name>PT5161</name></trkpt>
<trkpt lat="52.050612" lon="05.768554"><ele>8.1</ele><time>2022-03-04T15:19:36Z</time><name>PT5162</name></trkpt>
<trkpt lat="52.050608" lon="05.768545"><ele>8.1</ele><time>2022-03-04T15:19:37Z</time><name>PT5163</name></trkpt>
<trkpt lat="52.050604" lon="05.768531"><ele>8</ele><time>2022-03-04T15:19:38Z</time><name>PT5164</name></trkpt>
<trkpt lat="52.050598" lon="05.768510"><ele>8</ele><time>2022-03-04T15:19:39Z</time><name>PT5165</name></trkpt>
<trkpt lat="52.050593" lon="05.768492"><ele>7.8</ele><time>2022-03-04T15:19:40Z</time><name>PT5166</name></trkpt>
<trkpt lat="52.050591" lon="05.768477"><ele>7.9</ele><time>2022-03-04T15:19:41Z</time><name>PT5167</name></trkpt>
<trkpt lat="52.050589" lon="05.768463"><ele>8</ele><time>2022-03-04T15:19:42Z</time><name>PT5168</name></trkpt>
<trkpt lat="52.050583" lon="05.768450"><ele>8</ele><time>2022-03-04T15:19:43Z</time><name>PT5169</name></trkpt>
<trkpt lat="52.050573" lon="05.768436"><ele>7.8</ele><time>2022-03-04T15:19:44Z</time><name>PT5170</name></trkpt>
<trkpt lat="52.050564" lon="05.768422"><ele>7.8</ele><time>2022-03-04T15:19:45Z</time><name>PT5171</name></trkpt>
<trkpt lat="52.050554" lon="05.768413"><ele>7.7</ele><time>2022-03-04T15:19:46Z</time><name>PT5172</name></trkpt>
<trkpt lat="52.050548" lon="05.768406"><ele>7.5</ele><time>2022-03-04T15:19:47Z</time><name>PT5173</name></trkpt>
<trkpt lat="52.050542" lon="05.768400"><ele>7.7</ele><time>2022-03-04T15:19:48Z</time><name>PT5174</name></trkpt>
<trkpt lat="52.050536" lon="05.768393"><ele>7.7</ele><time>2022-03-04T15:19:49Z</time><name>PT5175</name></trkpt>
<trkpt lat="52.050530" lon="05.768384"><ele>7.8</ele><time>2022-03-04T15:19:50Z</time><name>PT5176</name></trkpt>
<trkpt lat="52.050524" lon="05.768376"><ele>7.8</ele><time>2022-03-04T15:19:51Z</time><name>PT5177</name></trkpt>
<trkpt lat="52.050518" lon="05.768368"><ele>7.8</ele><time>2022-03-04T15:19:52Z</time><name>PT5178</name></trkpt>
<trkpt lat="52.050514" lon="05.768352"><ele>7.8</ele><time>2022-03-04T15:19:53Z</time><name>PT5179</name></trkpt>
<trkpt lat="52.050515" lon="05.768328"><ele>7.8</ele><time>2022-03-04T15:19:54Z</time><name>PT5180</name></trkpt>
<trkpt lat="52.050514" lon="05.768309"><ele>7.9</ele><time>2022-03-04T15:19:55Z</time><name>PT5181</name></trkpt>
<trkpt lat="52.050509" lon="05.768298"><ele>8</ele><time>2022-03-04T15:19:56Z</time><name>PT5182</name></trkpt>
<trkpt lat="52.050504" lon="05.768292"><ele>8.2</ele><time>2022-03-04T15:19:57Z</time><name>PT5183</name></trkpt>
<trkpt lat="52.050498" lon="05.768281"><ele>8.1</ele><time>2022-03-04T15:19:58Z</time><name>PT5184</name></trkpt>
<trkpt lat="52.050494" lon="05.768272"><ele>8.1</ele><time>2022-03-04T15:19:59Z</time><name>PT5185</name></trkpt>
<trkpt lat="52.050491" lon="05.768269"><ele>8</ele><time>2022-03-04T15:20:00Z</time><name>PT5186</name></trkpt>
<trkpt lat="52.050488" lon="05.768262"><ele>8</ele><time>2022-03-04T15:20:01Z</time><name>PT5187</name></trkpt>
<trkpt lat="52.050485" lon="05.768256"><ele>7.8</ele><time>2022-03-04T15:20:02Z</time><name>PT5188</name></trkpt>
<trkpt lat="52.050486" lon="05.768233"><ele>7.8</ele><time>2022-03-04T15:20:05Z</time><name>PT5189</name></trkpt>
<trkpt lat="52.050488" lon="05.768226"><ele>7.9</ele><time>2022-03-04T15:20:06Z</time><name>PT5190</name></trkpt>
<trkpt lat="52.050490" lon="05.768228"><ele>8</ele><time>2022-03-04T15:20:07Z</time><name>PT5191</name></trkpt>
<trkpt lat="52.050493" lon="05.768230"><ele>8</ele><time>2022-03-04T15:20:08Z</time><name>PT5192</name></trkpt>
<trkpt lat="52.050495" lon="05.768220"><ele>8</ele><time>2022-03-04T15:20:09Z</time><name>PT5193</name></trkpt>
<trkpt lat="52.050490" lon="05.768215"><ele>7.8</ele><time>2022-03-04T15:20:11Z</time><name>PT5194</name></trkpt>
<trkpt lat="52.050486" lon="05.768208"><ele>7.6</ele><time>2022-03-04T15:20:12Z</time><name>PT5195</name></trkpt>
<trkpt lat="52.050483" lon="05.768198"><ele>7.5</ele><time>2022-03-04T15:20:14Z</time><name>PT5196</name></trkpt>
<trkpt lat="52.050482" lon="05.768192"><ele>7.6</ele><time>2022-03-04T15:20:15Z</time><name>PT5197</name></trkpt>
<trkpt lat="52.050480" lon="05.768203"><ele>7.6</ele><time>2022-03-04T15:20:16Z</time><name>PT5198</name></trkpt>
<trkpt lat="52.050482" lon="05.768199"><ele>7.6</ele><time>2022-03-04T15:20:17Z</time><name>PT5199</name></trkpt>
<trkpt lat="52.050484" lon="05.768192"><ele>7.6</ele><time>2022-03-04T15:20:18Z</time><name>PT5200</name></trkpt>
<trkpt lat="52.050484" lon="05.768187"><ele>7.6</ele><time>2022-03-04T15:20:19Z</time><name>PT5201</name></trkpt>
<trkpt lat="52.050485" lon="05.768177"><ele>7.7</ele><time>2022-03-04T15:20:20Z</time><name>PT5202</name></trkpt>
<trkpt lat="52.050484" lon="05.768169"><ele>7.7</ele><time>2022-03-04T15:20:21Z</time><name>PT5203</name></trkpt>
<trkpt lat="52.050478" lon="05.768163"><ele>7.8</ele><time>2022-03-04T15:20:22Z</time><name>PT5204</name></trkpt>
<trkpt lat="52.050474" lon="05.768157"><ele>7.6</ele><time>2022-03-04T15:20:23Z</time><name>PT5205</name></trkpt>
<trkpt lat="52.050475" lon="05.768152"><ele>7.5</ele><time>2022-03-04T15:20:24Z</time><name>PT5206</name></trkpt>
<trkpt lat="52.050472" lon="05.768140"><ele>7.5</ele><time>2022-03-04T15:20:25Z</time><name>PT5207</name></trkpt>
<trkpt lat="52.050467" lon="05.768127"><ele>7.4</ele><time>2022-03-04T15:20:26Z</time><name>PT5208</name></trkpt>
<trkpt lat="52.050460" lon="05.768110"><ele>7.5</ele><time>2022-03-04T15:20:27Z</time><name>PT5209</name></trkpt>
<trkpt lat="52.050452" lon="05.768093"><ele>7.5</ele><time>2022-03-04T15:20:28Z</time><name>PT5210</name></trkpt>
<trkpt lat="52.050444" lon="05.768085"><ele>7.7</ele><time>2022-03-04T15:20:29Z</time><name>PT5211</name></trkpt>
<trkpt lat="52.050440" lon="05.768077"><ele>8</ele><time>2022-03-04T15:20:30Z</time><name>PT5212</name></trkpt>
<trkpt lat="52.050439" lon="05.768071"><ele>8</ele><time>2022-03-04T15:20:31Z</time><name>PT5213</name></trkpt>
<trkpt lat="52.050433" lon="05.768059"><ele>8.1</ele><time>2022-03-04T15:20:32Z</time><name>PT5214</name></trkpt>
<trkpt lat="52.050427" lon="05.768044"><ele>8.2</ele><time>2022-03-04T15:20:33Z</time><name>PT5215</name></trkpt>
<trkpt lat="52.050419" lon="05.768029"><ele>8.1</ele><time>2022-03-04T15:20:34Z</time><name>PT5216</name></trkpt>
<trkpt lat="52.050413" lon="05.768014"><ele>7.9</ele><time>2022-03-04T15:20:35Z</time><name>PT5217</name></trkpt>
<trkpt lat="52.050408" lon="05.768001"><ele>7.9</ele><time>2022-03-04T15:20:36Z</time><name>PT5218</name></trkpt>
<trkpt lat="52.050402" lon="05.767988"><ele>7.9</ele><time>2022-03-04T15:20:37Z</time><name>PT5219</name></trkpt>
<trkpt lat="52.050397" lon="05.767977"><ele>7.9</ele><time>2022-03-04T15:20:38Z</time><name>PT5220</name></trkpt>
<trkpt lat="52.050398" lon="05.767959"><ele>8</ele><time>2022-03-04T15:20:39Z</time><name>PT5221</name></trkpt>
<trkpt lat="52.050397" lon="05.767945"><ele>8.1</ele><time>2022-03-04T15:20:40Z</time><name>PT5222</name></trkpt>
<trkpt lat="52.050394" lon="05.767936"><ele>8</ele><time>2022-03-04T15:20:41Z</time><name>PT5223</name></trkpt>
<trkpt lat="52.050389" lon="05.767923"><ele>7.9</ele><time>2022-03-04T15:20:42Z</time><name>PT5224</name></trkpt>
<trkpt lat="52.050386" lon="05.767908"><ele>7.9</ele><time>2022-03-04T15:20:43Z</time><name>PT5225</name></trkpt>
<trkpt lat="52.050381" lon="05.767895"><ele>8</ele><time>2022-03-04T15:20:44Z</time><name>PT5226</name></trkpt>
<trkpt lat="52.050377" lon="05.767886"><ele>7.9</ele><time>2022-03-04T15:20:45Z</time><name>PT5227</name></trkpt>
<trkpt lat="52.050373" lon="05.767877"><ele>8</ele><time>2022-03-04T15:20:46Z</time><name>PT5228</name></trkpt>
<trkpt lat="52.050364" lon="05.767868"><ele>7.9</ele><time>2022-03-04T15:20:47Z</time><name>PT5229</name></trkpt>
<trkpt lat="52.050355" lon="05.767858"><ele>7.8</ele><time>2022-03-04T15:20:48Z</time><name>PT5230</name></trkpt>
<trkpt lat="52.050350" lon="05.767847"><ele>7.7</ele><time>2022-03-04T15:20:49Z</time><name>PT5231</name></trkpt>
<trkpt lat="52.050347" lon="05.767838"><ele>7.8</ele><time>2022-03-04T15:20:50Z</time><name>PT5232</name></trkpt>
<trkpt lat="52.050360" lon="05.767829"><ele>7.9</ele><time>2022-03-04T15:20:51Z</time><name>PT5233</name></trkpt>
<trkpt lat="52.050356" lon="05.767820"><ele>8</ele><time>2022-03-04T15:20:52Z</time><name>PT5234</name></trkpt>
<trkpt lat="52.050347" lon="05.767809"><ele>8</ele><time>2022-03-04T15:20:53Z</time><name>PT5235</name></trkpt>
<trkpt lat="52.050342" lon="05.767802"><ele>8.2</ele><time>2022-03-04T15:20:54Z</time><name>PT5236</name></trkpt>
<trkpt lat="52.050336" lon="05.767800"><ele>8.3</ele><time>2022-03-04T15:20:55Z</time><name>PT5237</name></trkpt>
<trkpt lat="52.050328" lon="05.767787"><ele>8.4</ele><time>2022-03-04T15:20:56Z</time><name>PT5238</name></trkpt>
<trkpt lat="52.050319" lon="05.767772"><ele>8.4</ele><time>2022-03-04T15:20:57Z</time><name>PT5239</name></trkpt>
<trkpt lat="52.050312" lon="05.767759"><ele>8.3</ele><time>2022-03-04T15:20:58Z</time><name>PT5240</name></trkpt>
<trkpt lat="52.050305" lon="05.767748"><ele>8.4</ele><time>2022-03-04T15:20:59Z</time><name>PT5241</name></trkpt>
<trkpt lat="52.050301" lon="05.767737"><ele>8.3</ele><time>2022-03-04T15:21:00Z</time><name>PT5242</name></trkpt>
<trkpt lat="52.050293" lon="05.767724"><ele>8.4</ele><time>2022-03-04T15:21:01Z</time><name>PT5243</name></trkpt>
<trkpt lat="52.050287" lon="05.767705"><ele>8.5</ele><time>2022-03-04T15:21:02Z</time><name>PT5244</name></trkpt>
<trkpt lat="52.050283" lon="05.767692"><ele>8.3</ele><time>2022-03-04T15:21:03Z</time><name>PT5245</name></trkpt>
<trkpt lat="52.050278" lon="05.767684"><ele>8.3</ele><time>2022-03-04T15:21:04Z</time><name>PT5246</name></trkpt>
<trkpt lat="52.050274" lon="05.767675"><ele>8.2</ele><time>2022-03-04T15:21:05Z</time><name>PT5247</name></trkpt>
<trkpt lat="52.050264" lon="05.767664"><ele>8.2</ele><time>2022-03-04T15:21:06Z</time><name>PT5248</name></trkpt>
<trkpt lat="52.050260" lon="05.767646"><ele>8.1</ele><time>2022-03-04T15:21:07Z</time><name>PT5249</name></trkpt>
<trkpt lat="52.050255" lon="05.767625"><ele>8.3</ele><time>2022-03-04T15:21:08Z</time><name>PT5250</name></trkpt>
<trkpt lat="52.050249" lon="05.767609"><ele>8.2</ele><time>2022-03-04T15:21:09Z</time><name>PT5251</name></trkpt>
<trkpt lat="52.050242" lon="05.767595"><ele>8.3</ele><time>2022-03-04T15:21:10Z</time><name>PT5252</name></trkpt>
<trkpt lat="52.050235" lon="05.767581"><ele>8.4</ele><time>2022-03-04T15:21:11Z</time><name>PT5253</name></trkpt>
<trkpt lat="52.050227" lon="05.767569"><ele>8.3</ele><time>2022-03-04T15:21:12Z</time><name>PT5254</name></trkpt>
<trkpt lat="52.050220" lon="05.767554"><ele>8.1</ele><time>2022-03-04T15:21:13Z</time><name>PT5255</name></trkpt>
<trkpt lat="52.050216" lon="05.767544"><ele>8.1</ele><time>2022-03-04T15:21:14Z</time><name>PT5256</name></trkpt>
<trkpt lat="52.050209" lon="05.767531"><ele>8.1</ele><time>2022-03-04T15:21:15Z</time><name>PT5257</name></trkpt>
<trkpt lat="52.050201" lon="05.767518"><ele>8</ele><time>2022-03-04T15:21:16Z</time><name>PT5258</name></trkpt>
<trkpt lat="52.050190" lon="05.767505"><ele>8</ele><time>2022-03-04T15:21:17Z</time><name>PT5259</name></trkpt>
<trkpt lat="52.050187" lon="05.767492"><ele>8.1</ele><time>2022-03-04T15:21:18Z</time><name>PT5260</name></trkpt>
<trkpt lat="52.050187" lon="05.767477"><ele>8</ele><time>2022-03-04T15:21:19Z</time><name>PT5261</name></trkpt>
<trkpt lat="52.050180" lon="05.767461"><ele>8</ele><time>2022-03-04T15:21:20Z</time><name>PT5262</name></trkpt>
<trkpt lat="52.050171" lon="05.767446"><ele>8</ele><time>2022-03-04T15:21:21Z</time><name>PT5263</name></trkpt>
<trkpt lat="52.050163" lon="05.767432"><ele>8</ele><time>2022-03-04T15:21:22Z</time><name>PT5264</name></trkpt>
<trkpt lat="52.050160" lon="05.767408"><ele>8.1</ele><time>2022-03-04T15:21:23Z</time><name>PT5265</name></trkpt>
<trkpt lat="52.050158" lon="05.767388"><ele>8.1</ele><time>2022-03-04T15:21:24Z</time><name>PT5266</name></trkpt>
<trkpt lat="52.050159" lon="05.767371"><ele>8</ele><time>2022-03-04T15:21:25Z</time><name>PT5267</name></trkpt>
<trkpt lat="52.050159" lon="05.767359"><ele>8.1</ele><time>2022-03-04T15:21:26Z</time><name>PT5268</name></trkpt>
<trkpt lat="52.050154" lon="05.767349"><ele>8.1</ele><time>2022-03-04T15:21:27Z</time><name>PT5269</name></trkpt>
<trkpt lat="52.050144" lon="05.767331"><ele>8</ele><time>2022-03-04T15:21:28Z</time><name>PT5270</name></trkpt>
<trkpt lat="52.050137" lon="05.767310"><ele>8</ele><time>2022-03-04T15:21:29Z</time><name>PT5271</name></trkpt>
<trkpt lat="52.050134" lon="05.767290"><ele>7.9</ele><time>2022-03-04T15:21:30Z</time><name>PT5272</name></trkpt>
<trkpt lat="52.050132" lon="05.767281"><ele>8</ele><time>2022-03-04T15:21:31Z</time><name>PT5273</name></trkpt>
<trkpt lat="52.050126" lon="05.767272"><ele>8</ele><time>2022-03-04T15:21:32Z</time><name>PT5274</name></trkpt>
<trkpt lat="52.050117" lon="05.767258"><ele>8</ele><time>2022-03-04T15:21:33Z</time><name>PT5275</name></trkpt>
<trkpt lat="52.050113" lon="05.767240"><ele>8</ele><time>2022-03-04T15:21:34Z</time><name>PT5276</name></trkpt>
<trkpt lat="52.050108" lon="05.767217"><ele>8.1</ele><time>2022-03-04T15:21:35Z</time><name>PT5277</name></trkpt>
<trkpt lat="52.050101" lon="05.767204"><ele>8</ele><time>2022-03-04T15:21:36Z</time><name>PT5278</name></trkpt>
<trkpt lat="52.050091" lon="05.767192"><ele>8.1</ele><time>2022-03-04T15:21:37Z</time><name>PT5279</name></trkpt>
<trkpt lat="52.050085" lon="05.767180"><ele>8.1</ele><time>2022-03-04T15:21:38Z</time><name>PT5280</name></trkpt>
<trkpt lat="52.050080" lon="05.767160"><ele>8.1</ele><time>2022-03-04T15:21:39Z</time><name>PT5281</name></trkpt>
<trkpt lat="52.050073" lon="05.767138"><ele>8.1</ele><time>2022-03-04T15:21:40Z</time><name>PT5282</name></trkpt>
<trkpt lat="52.050068" lon="05.767118"><ele>8.1</ele><time>2022-03-04T15:21:41Z</time><name>PT5283</name></trkpt>
<trkpt lat="52.050062" lon="05.767104"><ele>8.1</ele><time>2022-03-04T15:21:42Z</time><name>PT5284</name></trkpt>
<trkpt lat="52.050054" lon="05.767095"><ele>8.1</ele><time>2022-03-04T15:21:43Z</time><name>PT5285</name></trkpt>
<trkpt lat="52.050044" lon="05.767084"><ele>8.1</ele><time>2022-03-04T15:21:44Z</time><name>PT5286</name></trkpt>
<trkpt lat="52.050035" lon="05.767076"><ele>8.1</ele><time>2022-03-04T15:21:45Z</time><name>PT5287</name></trkpt>
<trkpt lat="52.050029" lon="05.767059"><ele>8</ele><time>2022-03-04T15:21:46Z</time><name>PT5288</name></trkpt>
<trkpt lat="52.050027" lon="05.767047"><ele>8.1</ele><time>2022-03-04T15:21:47Z</time><name>PT5289</name></trkpt>
<trkpt lat="52.050023" lon="05.767040"><ele>8.1</ele><time>2022-03-04T15:21:48Z</time><name>PT5290</name></trkpt>
<trkpt lat="52.050016" lon="05.767022"><ele>8</ele><time>2022-03-04T15:21:49Z</time><name>PT5291</name></trkpt>
<trkpt lat="52.050012" lon="05.767001"><ele>8</ele><time>2022-03-04T15:21:50Z</time><name>PT5292</name></trkpt>
<trkpt lat="52.050013" lon="05.766985"><ele>8</ele><time>2022-03-04T15:21:51Z</time><name>PT5293</name></trkpt>
<trkpt lat="52.050012" lon="05.766972"><ele>8</ele><time>2022-03-04T15:21:52Z</time><name>PT5294</name></trkpt>
<trkpt lat="52.050009" lon="05.766960"><ele>7.9</ele><time>2022-03-04T15:21:53Z</time><name>PT5295</name></trkpt>
<trkpt lat="52.050005" lon="05.766948"><ele>8</ele><time>2022-03-04T15:21:54Z</time><name>PT5296</name></trkpt>
<trkpt lat="52.050002" lon="05.766930"><ele>8</ele><time>2022-03-04T15:21:55Z</time><name>PT5297</name></trkpt>
<trkpt lat="52.050000" lon="05.766910"><ele>7.9</ele><time>2022-03-04T15:21:56Z</time><name>PT5298</name></trkpt>
<trkpt lat="52.049999" lon="05.766897"><ele>7.7</ele><time>2022-03-04T15:21:57Z</time><name>PT5299</name></trkpt>
<trkpt lat="52.049997" lon="05.766886"><ele>8</ele><time>2022-03-04T15:21:58Z</time><name>PT5300</name></trkpt>
<trkpt lat="52.049996" lon="05.766869"><ele>8</ele><time>2022-03-04T15:21:59Z</time><name>PT5301</name></trkpt>
<trkpt lat="52.049989" lon="05.766851"><ele>7.8</ele><time>2022-03-04T15:22:00Z</time><name>PT5302</name></trkpt>
<trkpt lat="52.049980" lon="05.766833"><ele>7.8</ele><time>2022-03-04T15:22:01Z</time><name>PT5303</name></trkpt>
<trkpt lat="52.049973" lon="05.766813"><ele>7.8</ele><time>2022-03-04T15:22:02Z</time><name>PT5304</name></trkpt>
<trkpt lat="52.049966" lon="05.766800"><ele>7.7</ele><time>2022-03-04T15:22:03Z</time><name>PT5305</name></trkpt>
<trkpt lat="52.049955" lon="05.766798"><ele>7.6</ele><time>2022-03-04T15:22:04Z</time><name>PT5306</name></trkpt>
<trkpt lat="52.049948" lon="05.766787"><ele>7.6</ele><time>2022-03-04T15:22:05Z</time><name>PT5307</name></trkpt>
<trkpt lat="52.049946" lon="05.766767"><ele>7.8</ele><time>2022-03-04T15:22:07Z</time><name>PT5308</name></trkpt>
<trkpt lat="52.049946" lon="05.766754"><ele>8</ele><time>2022-03-04T15:22:07Z</time><name>PT5309</name></trkpt>
<trkpt lat="52.049943" lon="05.766748"><ele>8</ele><time>2022-03-04T15:22:08Z</time><name>PT5310</name></trkpt>
<trkpt lat="52.049935" lon="05.766738"><ele>8</ele><time>2022-03-04T15:22:09Z</time><name>PT5311</name></trkpt>
<trkpt lat="52.049923" lon="05.766724"><ele>8.1</ele><time>2022-03-04T15:22:10Z</time><name>PT5312</name></trkpt>
<trkpt lat="52.049916" lon="05.766713"><ele>8.1</ele><time>2022-03-04T15:22:11Z</time><name>PT5313</name></trkpt>
<trkpt lat="52.049910" lon="05.766707"><ele>8.2</ele><time>2022-03-04T15:22:13Z</time><name>PT5314</name></trkpt>
<trkpt lat="52.049906" lon="05.766705"><ele>8.2</ele><time>2022-03-04T15:22:13Z</time><name>PT5315</name></trkpt>
<trkpt lat="52.049900" lon="05.766705"><ele>8.3</ele><time>2022-03-04T15:22:14Z</time><name>PT5316</name></trkpt>
<trkpt lat="52.049894" lon="05.766704"><ele>8.4</ele><time>2022-03-04T15:22:15Z</time><name>PT5317</name></trkpt>
<trkpt lat="52.049888" lon="05.766701"><ele>8.5</ele><time>2022-03-04T15:22:16Z</time><name>PT5318</name></trkpt>
<trkpt lat="52.049883" lon="05.766703"><ele>8.5</ele><time>2022-03-04T15:22:17Z</time><name>PT5319</name></trkpt>
<trkpt lat="52.049877" lon="05.766699"><ele>8.5</ele><time>2022-03-04T15:22:18Z</time><name>PT5320</name></trkpt>
<trkpt lat="52.049869" lon="05.766699"><ele>8.5</ele><time>2022-03-04T15:22:19Z</time><name>PT5321</name></trkpt>
<trkpt lat="52.049862" lon="05.766700"><ele>8.7</ele><time>2022-03-04T15:22:20Z</time><name>PT5322</name></trkpt>
<trkpt lat="52.049855" lon="05.766702"><ele>8.8</ele><time>2022-03-04T15:22:21Z</time><name>PT5323</name></trkpt>
<trkpt lat="52.049847" lon="05.766705"><ele>8.8</ele><time>2022-03-04T15:22:22Z</time><name>PT5324</name></trkpt>
<trkpt lat="52.049838" lon="05.766708"><ele>8.8</ele><time>2022-03-04T15:22:23Z</time><name>PT5325</name></trkpt>
<trkpt lat="52.049830" lon="05.766708"><ele>8.7</ele><time>2022-03-04T15:22:24Z</time><name>PT5326</name></trkpt>
<trkpt lat="52.049822" lon="05.766710"><ele>8.8</ele><time>2022-03-04T15:22:25Z</time><name>PT5327</name></trkpt>
<trkpt lat="52.049814" lon="05.766707"><ele>8.5</ele><time>2022-03-04T15:22:26Z</time><name>PT5328</name></trkpt>
<trkpt lat="52.049809" lon="05.766708"><ele>8.6</ele><time>2022-03-04T15:22:27Z</time><name>PT5329</name></trkpt>
<trkpt lat="52.049804" lon="05.766707"><ele>8.5</ele><time>2022-03-04T15:22:28Z</time><name>PT5330</name></trkpt>
<trkpt lat="52.049791" lon="05.766710"><ele>8.4</ele><time>2022-03-04T15:22:29Z</time><name>PT5331</name></trkpt>
<trkpt lat="52.049783" lon="05.766710"><ele>8.3</ele><time>2022-03-04T15:22:30Z</time><name>PT5332</name></trkpt>
<trkpt lat="52.049774" lon="05.766707"><ele>8.5</ele><time>2022-03-04T15:22:31Z</time><name>PT5333</name></trkpt>
<trkpt lat="52.049765" lon="05.766703"><ele>8.3</ele><time>2022-03-04T15:22:32Z</time><name>PT5334</name></trkpt>
<trkpt lat="52.049758" lon="05.766693"><ele>8.2</ele><time>2022-03-04T15:22:33Z</time><name>PT5335</name></trkpt>
<trkpt lat="52.049750" lon="05.766694"><ele>8.2</ele><time>2022-03-04T15:22:34Z</time><name>PT5336</name></trkpt>
<trkpt lat="52.049740" lon="05.766696"><ele>8.2</ele><time>2022-03-04T15:22:35Z</time><name>PT5337</name></trkpt>
<trkpt lat="52.049734" lon="05.766693"><ele>8.2</ele><time>2022-03-04T15:22:36Z</time><name>PT5338</name></trkpt>
<trkpt lat="52.049727" lon="05.766686"><ele>8.4</ele><time>2022-03-04T15:22:37Z</time><name>PT5339</name></trkpt>
<trkpt lat="52.049722" lon="05.766679"><ele>8.6</ele><time>2022-03-04T15:22:38Z</time><name>PT5340</name></trkpt>
<trkpt lat="52.049717" lon="05.766674"><ele>8.7</ele><time>2022-03-04T15:22:39Z</time><name>PT5341</name></trkpt>
<trkpt lat="52.049714" lon="05.766662"><ele>8.8</ele><time>2022-03-04T15:22:40Z</time><name>PT5342</name></trkpt>
<trkpt lat="52.049700" lon="05.766649"><ele>8.6</ele><time>2022-03-04T15:22:41Z</time><name>PT5343</name></trkpt>
<trkpt lat="52.049694" lon="05.766639"><ele>8.7</ele><time>2022-03-04T15:22:42Z</time><name>PT5344</name></trkpt>
<trkpt lat="52.049691" lon="05.766631"><ele>8.8</ele><time>2022-03-04T15:22:43Z</time><name>PT5345</name></trkpt>
<trkpt lat="52.049689" lon="05.766625"><ele>8.7</ele><time>2022-03-04T15:22:44Z</time><name>PT5346</name></trkpt>
<trkpt lat="52.049683" lon="05.766620"><ele>8.7</ele><time>2022-03-04T15:22:45Z</time><name>PT5347</name></trkpt>
<trkpt lat="52.049676" lon="05.766617"><ele>8.9</ele><time>2022-03-04T15:22:46Z</time><name>PT5348</name></trkpt>
<trkpt lat="52.049674" lon="05.766612"><ele>8.8</ele><time>2022-03-04T15:22:47Z</time><name>PT5349</name></trkpt>
<trkpt lat="52.049664" lon="05.766603"><ele>8.9</ele><time>2022-03-04T15:22:48Z</time><name>PT5350</name></trkpt>
<trkpt lat="52.049665" lon="05.766598"><ele>9</ele><time>2022-03-04T15:22:49Z</time><name>PT5351</name></trkpt>
<trkpt lat="52.049655" lon="05.766589"><ele>9.1</ele><time>2022-03-04T15:22:50Z</time><name>PT5352</name></trkpt>
<trkpt lat="52.049649" lon="05.766581"><ele>9.1</ele><time>2022-03-04T15:22:51Z</time><name>PT5353</name></trkpt>
<trkpt lat="52.049642" lon="05.766569"><ele>9.3</ele><time>2022-03-04T15:22:52Z</time><name>PT5354</name></trkpt>
<trkpt lat="52.049637" lon="05.766559"><ele>9.2</ele><time>2022-03-04T15:22:53Z</time><name>PT5355</name></trkpt>
<trkpt lat="52.049625" lon="05.766550"><ele>9.2</ele><time>2022-03-04T15:22:54Z</time><name>PT5356</name></trkpt>
<trkpt lat="52.049615" lon="05.766538"><ele>9</ele><time>2022-03-04T15:22:55Z</time><name>PT5357</name></trkpt>
<trkpt lat="52.049600" lon="05.766528"><ele>9</ele><time>2022-03-04T15:22:56Z</time><name>PT5358</name></trkpt>
<trkpt lat="52.049587" lon="05.766517"><ele>8.9</ele><time>2022-03-04T15:22:57Z</time><name>PT5359</name></trkpt>
<trkpt lat="52.049579" lon="05.766505"><ele>8.9</ele><time>2022-03-04T15:22:58Z</time><name>PT5360</name></trkpt>
<trkpt lat="52.049567" lon="05.766500"><ele>8.9</ele><time>2022-03-04T15:22:59Z</time><name>PT5361</name></trkpt>
<trkpt lat="52.049558" lon="05.766493"><ele>9</ele><time>2022-03-04T15:23:00Z</time><name>PT5362</name></trkpt>
<trkpt lat="52.049550" lon="05.766487"><ele>9</ele><time>2022-03-04T15:23:01Z</time><name>PT5363</name></trkpt>
<trkpt lat="52.049543" lon="05.766479"><ele>9.1</ele><time>2022-03-04T15:23:02Z</time><name>PT5364</name></trkpt>
<trkpt lat="52.049526" lon="05.766461"><ele>9</ele><time>2022-03-04T15:23:03Z</time><name>PT5365</name></trkpt>
<trkpt lat="52.049517" lon="05.766454"><ele>8.9</ele><time>2022-03-04T15:23:04Z</time><name>PT5366</name></trkpt>
<trkpt lat="52.049511" lon="05.766449"><ele>9.1</ele><time>2022-03-04T15:23:05Z</time><name>PT5367</name></trkpt>
<trkpt lat="52.049500" lon="05.766445"><ele>9</ele><time>2022-03-04T15:23:06Z</time><name>PT5368</name></trkpt>
<trkpt lat="52.049489" lon="05.766440"><ele>9.1</ele><time>2022-03-04T15:23:07Z</time><name>PT5369</name></trkpt>
<trkpt lat="52.049476" lon="05.766433"><ele>9.2</ele><time>2022-03-04T15:23:08Z</time><name>PT5370</name></trkpt>
<trkpt lat="52.049465" lon="05.766430"><ele>9.3</ele><time>2022-03-04T15:23:09Z</time><name>PT5371</name></trkpt>
<trkpt lat="52.049444" lon="05.766431"><ele>9.2</ele><time>2022-03-04T15:23:10Z</time><name>PT5372</name></trkpt>
<trkpt lat="52.049433" lon="05.766428"><ele>9.3</ele><time>2022-03-04T15:23:11Z</time><name>PT5373</name></trkpt>
<trkpt lat="52.049429" lon="05.766426"><ele>9.3</ele><time>2022-03-04T15:23:12Z</time><name>PT5374</name></trkpt>
<trkpt lat="52.049423" lon="05.766414"><ele>9.4</ele><time>2022-03-04T15:23:13Z</time><name>PT5375</name></trkpt>
<trkpt lat="52.049418" lon="05.766407"><ele>9.3</ele><time>2022-03-04T15:23:14Z</time><name>PT5376</name></trkpt>
<trkpt lat="52.049417" lon="05.766402"><ele>9.3</ele><time>2022-03-04T15:23:15Z</time><name>PT5377</name></trkpt>
<trkpt lat="52.049409" lon="05.766388"><ele>9.4</ele><time>2022-03-04T15:23:16Z</time><name>PT5378</name></trkpt>
<trkpt lat="52.049395" lon="05.766373"><ele>9.3</ele><time>2022-03-04T15:23:17Z</time><name>PT5379</name></trkpt>
<trkpt lat="52.049385" lon="05.766361"><ele>9.3</ele><time>2022-03-04T15:23:18Z</time><name>PT5380</name></trkpt>
<trkpt lat="52.049378" lon="05.766351"><ele>9.2</ele><time>2022-03-04T15:23:19Z</time><name>PT5381</name></trkpt>
<trkpt lat="52.049372" lon="05.766341"><ele>9</ele><time>2022-03-04T15:23:20Z</time><name>PT5382</name></trkpt>
<trkpt lat="52.049364" lon="05.766327"><ele>9</ele><time>2022-03-04T15:23:21Z</time><name>PT5383</name></trkpt>
<trkpt lat="52.049353" lon="05.766319"><ele>9</ele><time>2022-03-04T15:23:22Z</time><name>PT5384</name></trkpt>
<trkpt lat="52.049344" lon="05.766318"><ele>9</ele><time>2022-03-04T15:23:23Z</time><name>PT5385</name></trkpt>
<trkpt lat="52.049338" lon="05.766320"><ele>9.2</ele><time>2022-03-04T15:23:24Z</time><name>PT5386</name></trkpt>
<trkpt lat="52.049325" lon="05.766313"><ele>9.3</ele><time>2022-03-04T15:23:25Z</time><name>PT5387</name></trkpt>
<trkpt lat="52.049314" lon="05.766302"><ele>9.4</ele><time>2022-03-04T15:23:26Z</time><name>PT5388</name></trkpt>
<trkpt lat="52.049310" lon="05.766294"><ele>9.5</ele><time>2022-03-04T15:23:27Z</time><name>PT5389</name></trkpt>
<trkpt lat="52.049305" lon="05.766287"><ele>9.5</ele><time>2022-03-04T15:23:28Z</time><name>PT5390</name></trkpt>
<trkpt lat="52.049296" lon="05.766281"><ele>9.5</ele><time>2022-03-04T15:23:29Z</time><name>PT5391</name></trkpt>
<trkpt lat="52.049281" lon="05.766273"><ele>9.4</ele><time>2022-03-04T15:23:30Z</time><name>PT5392</name></trkpt>
<trkpt lat="52.049266" lon="05.766270"><ele>9.3</ele><time>2022-03-04T15:23:31Z</time><name>PT5393</name></trkpt>
<trkpt lat="52.049256" lon="05.766268"><ele>9.2</ele><time>2022-03-04T15:23:32Z</time><name>PT5394</name></trkpt>
<trkpt lat="52.049245" lon="05.766264"><ele>9.3</ele><time>2022-03-04T15:23:33Z</time><name>PT5395</name></trkpt>
<trkpt lat="52.049237" lon="05.766260"><ele>9.2</ele><time>2022-03-04T15:23:34Z</time><name>PT5396</name></trkpt>
<trkpt lat="52.049226" lon="05.766259"><ele>9.3</ele><time>2022-03-04T15:23:35Z</time><name>PT5397</name></trkpt>
<trkpt lat="52.049213" lon="05.766255"><ele>9.4</ele><time>2022-03-04T15:23:36Z</time><name>PT5398</name></trkpt>
<trkpt lat="52.049205" lon="05.766257"><ele>9.4</ele><time>2022-03-04T15:23:37Z</time><name>PT5399</name></trkpt>
<trkpt lat="52.049199" lon="05.766263"><ele>9.4</ele><time>2022-03-04T15:23:38Z</time><name>PT5400</name></trkpt>
<trkpt lat="52.049197" lon="05.766269"><ele>9.4</ele><time>2022-03-04T15:23:39Z</time><name>PT5401</name></trkpt>
<trkpt lat="52.049188" lon="05.766271"><ele>9.3</ele><time>2022-03-04T15:23:40Z</time><name>PT5402</name></trkpt>
<trkpt lat="52.049180" lon="05.766271"><ele>9.4</ele><time>2022-03-04T15:23:41Z</time><name>PT5403</name></trkpt>
<trkpt lat="52.049173" lon="05.766275"><ele>9.4</ele><time>2022-03-04T15:23:42Z</time><name>PT5404</name></trkpt>
<trkpt lat="52.049166" lon="05.766286"><ele>9.5</ele><time>2022-03-04T15:23:43Z</time><name>PT5405</name></trkpt>
<trkpt lat="52.049159" lon="05.766291"><ele>9.6</ele><time>2022-03-04T15:23:44Z</time><name>PT5406</name></trkpt>
<trkpt lat="52.049153" lon="05.766285"><ele>9.8</ele><time>2022-03-04T15:23:45Z</time><name>PT5407</name></trkpt>
<trkpt lat="52.049145" lon="05.766284"><ele>9.8</ele><time>2022-03-04T15:23:46Z</time><name>PT5408</name></trkpt>
<trkpt lat="52.049138" lon="05.766284"><ele>9.8</ele><time>2022-03-04T15:23:47Z</time><name>PT5409</name></trkpt>
<trkpt lat="52.049135" lon="05.766284"><ele>9.9</ele><time>2022-03-04T15:23:48Z</time><name>PT5410</name></trkpt>
<trkpt lat="52.049128" lon="05.766281"><ele>9.9</ele><time>2022-03-04T15:23:49Z</time><name>PT5411</name></trkpt>
<trkpt lat="52.049121" lon="05.766278"><ele>9.9</ele><time>2022-03-04T15:23:50Z</time><name>PT5412</name></trkpt>
<trkpt lat="52.049116" lon="05.766275"><ele>9.9</ele><time>2022-03-04T15:23:51Z</time><name>PT5413</name></trkpt>
<trkpt lat="52.049112" lon="05.766276"><ele>9.9</ele><time>2022-03-04T15:23:52Z</time><name>PT5414</name></trkpt>
<trkpt lat="52.049105" lon="05.766275"><ele>9.9</ele><time>2022-03-04T15:23:53Z</time><name>PT5415</name></trkpt>
<trkpt lat="52.049099" lon="05.766274"><ele>9.9</ele><time>2022-03-04T15:23:54Z</time><name>PT5416</name></trkpt>
<trkpt lat="52.049096" lon="05.766268"><ele>10</ele><time>2022-03-04T15:23:55Z</time><name>PT5417</name></trkpt>
<trkpt lat="52.049086" lon="05.766263"><ele>10</ele><time>2022-03-04T15:23:56Z</time><name>PT5418</name></trkpt>
<trkpt lat="52.049075" lon="05.766255"><ele>10.3</ele><time>2022-03-04T15:23:57Z</time><name>PT5419</name></trkpt>
<trkpt lat="52.049069" lon="05.766247"><ele>10.2</ele><time>2022-03-04T15:23:58Z</time><name>PT5420</name></trkpt>
<trkpt lat="52.049058" lon="05.766240"><ele>10.3</ele><time>2022-03-04T15:23:59Z</time><name>PT5421</name></trkpt>
<trkpt lat="52.049050" lon="05.766238"><ele>10.3</ele><time>2022-03-04T15:24:00Z</time><name>PT5422</name></trkpt>
<trkpt lat="52.049046" lon="05.766235"><ele>10.2</ele><time>2022-03-04T15:24:01Z</time><name>PT5423</name></trkpt>
<trkpt lat="52.049039" lon="05.766236"><ele>10.1</ele><time>2022-03-04T15:24:02Z</time><name>PT5424</name></trkpt>
<trkpt lat="52.049034" lon="05.766236"><ele>10</ele><time>2022-03-04T15:24:03Z</time><name>PT5425</name></trkpt>
<trkpt lat="52.049031" lon="05.766235"><ele>10</ele><time>2022-03-04T15:24:04Z</time><name>PT5426</name></trkpt>
<trkpt lat="52.049022" lon="05.766235"><ele>10.2</ele><time>2022-03-04T15:24:05Z</time><name>PT5427</name></trkpt>
<trkpt lat="52.049016" lon="05.766239"><ele>10.4</ele><time>2022-03-04T15:24:06Z</time><name>PT5428</name></trkpt>
<trkpt lat="52.049011" lon="05.766229"><ele>10.8</ele><time>2022-03-04T15:24:09Z</time><name>PT5429</name></trkpt>
<trkpt lat="52.049002" lon="05.766243"><ele>11</ele><time>2022-03-04T15:24:10Z</time><name>PT5430</name></trkpt>
<trkpt lat="52.048989" lon="05.766243"><ele>10.9</ele><time>2022-03-04T15:24:11Z</time><name>PT5431</name></trkpt>
<trkpt lat="52.048979" lon="05.766248"><ele>10.8</ele><time>2022-03-04T15:24:12Z</time><name>PT5432</name></trkpt>
<trkpt lat="52.048978" lon="05.766254"><ele>10.9</ele><time>2022-03-04T15:24:13Z</time><name>PT5433</name></trkpt>
<trkpt lat="52.048974" lon="05.766258"><ele>10.7</ele><time>2022-03-04T15:24:14Z</time><name>PT5434</name></trkpt>
<trkpt lat="52.048969" lon="05.766263"><ele>10.6</ele><time>2022-03-04T15:24:15Z</time><name>PT5435</name></trkpt>
<trkpt lat="52.048962" lon="05.766269"><ele>10.6</ele><time>2022-03-04T15:24:16Z</time><name>PT5436</name></trkpt>
<trkpt lat="52.048950" lon="05.766277"><ele>10.6</ele><time>2022-03-04T15:24:17Z</time><name>PT5437</name></trkpt>
<trkpt lat="52.048940" lon="05.766277"><ele>10.5</ele><time>2022-03-04T15:24:18Z</time><name>PT5438</name></trkpt>
<trkpt lat="52.048930" lon="05.766276"><ele>10.6</ele><time>2022-03-04T15:24:19Z</time><name>PT5439</name></trkpt>
<trkpt lat="52.048902" lon="05.766277"><ele>10.7</ele><time>2022-03-04T15:24:20Z</time><name>PT5440</name></trkpt>
<trkpt lat="52.048890" lon="05.766277"><ele>10.8</ele><time>2022-03-04T15:24:21Z</time><name>PT5441</name></trkpt>
<trkpt lat="52.048876" lon="05.766274"><ele>10.9</ele><time>2022-03-04T15:24:22Z</time><name>PT5442</name></trkpt>
<trkpt lat="52.048862" lon="05.766273"><ele>11</ele><time>2022-03-04T15:24:23Z</time><name>PT5443</name></trkpt>
<trkpt lat="52.048852" lon="05.766267"><ele>11.1</ele><time>2022-03-04T15:24:24Z</time><name>PT5444</name></trkpt>
<trkpt lat="52.048838" lon="05.766266"><ele>10.9</ele><time>2022-03-04T15:24:25Z</time><name>PT5445</name></trkpt>
<trkpt lat="52.048832" lon="05.766257"><ele>10.8</ele><time>2022-03-04T15:24:26Z</time><name>PT5446</name></trkpt>
<trkpt lat="52.048824" lon="05.766244"><ele>10.8</ele><time>2022-03-04T15:24:27Z</time><name>PT5447</name></trkpt>
<trkpt lat="52.048819" lon="05.766231"><ele>10.7</ele><time>2022-03-04T15:24:28Z</time><name>PT5448</name></trkpt>
<trkpt lat="52.048814" lon="05.766227"><ele>10.6</ele><time>2022-03-04T15:24:29Z</time><name>PT5449</name></trkpt>
<trkpt lat="52.048812" lon="05.766225"><ele>10.7</ele><time>2022-03-04T15:24:30Z</time><name>PT5450</name></trkpt>
<trkpt lat="52.048807" lon="05.766220"><ele>10.8</ele><time>2022-03-04T15:24:31Z</time><name>PT5451</name></trkpt>
<trkpt lat="52.048805" lon="05.766219"><ele>10.8</ele><time>2022-03-04T15:24:32Z</time><name>PT5452</name></trkpt>
<trkpt lat="52.048804" lon="05.766215"><ele>10.8</ele><time>2022-03-04T15:24:33Z</time><name>PT5453</name></trkpt>
<trkpt lat="52.048802" lon="05.766213"><ele>11</ele><time>2022-03-04T15:24:34Z</time><name>PT5454</name></trkpt>
<trkpt lat="52.048796" lon="05.766206"><ele>11.3</ele><time>2022-03-04T15:24:48Z</time><name>PT5455</name></trkpt>
<trkpt lat="52.048791" lon="05.766207"><ele>11.2</ele><time>2022-03-04T15:24:49Z</time><name>PT5456</name></trkpt>
<trkpt lat="52.048791" lon="05.766209"><ele>11.2</ele><time>2022-03-04T15:24:50Z</time><name>PT5457</name></trkpt>
<trkpt lat="52.048785" lon="05.766204"><ele>11.2</ele><time>2022-03-04T15:24:51Z</time><name>PT5458</name></trkpt>
<trkpt lat="52.048781" lon="05.766194"><ele>11.4</ele><time>2022-03-04T15:24:52Z</time><name>PT5459</name></trkpt>
<trkpt lat="52.048777" lon="05.766190"><ele>11.5</ele><time>2022-03-04T15:24:53Z</time><name>PT5460</name></trkpt>
<trkpt lat="52.048772" lon="05.766181"><ele>11.5</ele><time>2022-03-04T15:24:54Z</time><name>PT5461</name></trkpt>
<trkpt lat="52.048769" lon="05.766171"><ele>11.5</ele><time>2022-03-04T15:24:55Z</time><name>PT5462</name></trkpt>
<trkpt lat="52.048760" lon="05.766160"><ele>11.4</ele><time>2022-03-04T15:24:56Z</time><name>PT5463</name></trkpt>
<trkpt lat="52.048761" lon="05.766147"><ele>11.2</ele><time>2022-03-04T15:24:57Z</time><name>PT5464</name></trkpt>
<trkpt lat="52.048757" lon="05.766126"><ele>11.1</ele><time>2022-03-04T15:24:58Z</time><name>PT5465</name></trkpt>
<trkpt lat="52.048749" lon="05.766114"><ele>35.9</ele><time>2022-03-04T15:24:59Z</time><name>PT5466</name></trkpt>
<trkpt lat="52.048740" lon="05.766099"><ele>35.9</ele><time>2022-03-04T15:25:00Z</time><name>PT5467</name></trkpt>
<trkpt lat="52.048733" lon="05.766087"><ele>36</ele><time>2022-03-04T15:25:01Z</time><name>PT5468</name></trkpt>
<trkpt lat="52.048721" lon="05.766074"><ele>36.1</ele><time>2022-03-04T15:25:02Z</time><name>PT5469</name></trkpt>
<trkpt lat="52.048714" lon="05.766062"><ele>36</ele><time>2022-03-04T15:25:03Z</time><name>PT5470</name></trkpt>
<trkpt lat="52.048710" lon="05.766050"><ele>36</ele><time>2022-03-04T15:25:04Z</time><name>PT5471</name></trkpt>
<trkpt lat="52.048707" lon="05.766052"><ele>36.2</ele><time>2022-03-04T15:25:05Z</time><name>PT5472</name></trkpt>
<trkpt lat="52.048705" lon="05.766041"><ele>36.2</ele><time>2022-03-04T15:25:06Z</time><name>PT5473</name></trkpt>
<trkpt lat="52.048698" lon="05.766023"><ele>36.3</ele><time>2022-03-04T15:25:07Z</time><name>PT5474</name></trkpt>
<trkpt lat="52.048688" lon="05.766000"><ele>36.3</ele><time>2022-03-04T15:25:08Z</time><name>PT5475</name></trkpt>
<trkpt lat="52.048675" lon="05.765980"><ele>36.4</ele><time>2022-03-04T15:25:10Z</time><name>PT5476</name></trkpt>
<trkpt lat="52.048662" lon="05.765965"><ele>36.4</ele><time>2022-03-04T15:25:10Z</time><name>PT5477</name></trkpt>
<trkpt lat="52.048654" lon="05.765955"><ele>36.5</ele><time>2022-03-04T15:25:11Z</time><name>PT5478</name></trkpt>
<trkpt lat="52.048650" lon="05.765946"><ele>36.5</ele><time>2022-03-04T15:25:12Z</time><name>PT5479</name></trkpt>
<trkpt lat="52.048647" lon="05.765941"><ele>36.4</ele><time>2022-03-04T15:25:13Z</time><name>PT5480</name></trkpt>
<trkpt lat="52.048645" lon="05.765930"><ele>36.5</ele><time>2022-03-04T15:25:14Z</time><name>PT5481</name></trkpt>
<trkpt lat="52.048640" lon="05.765925"><ele>36.4</ele><time>2022-03-04T15:25:15Z</time><name>PT5482</name></trkpt>
<trkpt lat="52.048636" lon="05.765917"><ele>36.4</ele><time>2022-03-04T15:25:16Z</time><name>PT5483</name></trkpt>
<trkpt lat="52.048634" lon="05.765912"><ele>36.5</ele><time>2022-03-04T15:25:17Z</time><name>PT5484</name></trkpt>
<trkpt lat="52.048629" lon="05.765906"><ele>36.6</ele><time>2022-03-04T15:25:19Z</time><name>PT5485</name></trkpt>
<trkpt lat="52.048620" lon="05.765899"><ele>36.6</ele><time>2022-03-04T15:25:19Z</time><name>PT5486</name></trkpt>
<trkpt lat="52.048612" lon="05.765888"><ele>36.6</ele><time>2022-03-04T15:25:20Z</time><name>PT5487</name></trkpt>
<trkpt lat="52.048605" lon="05.765878"><ele>36.6</ele><time>2022-03-04T15:25:21Z</time><name>PT5488</name></trkpt>
<trkpt lat="52.048600" lon="05.765867"><ele>36.5</ele><time>2022-03-04T15:25:22Z</time><name>PT5489</name></trkpt>
<trkpt lat="52.048591" lon="05.765856"><ele>36.6</ele><time>2022-03-04T15:25:23Z</time><name>PT5490</name></trkpt>
<trkpt lat="52.048583" lon="05.765851"><ele>36.6</ele><time>2022-03-04T15:25:25Z</time><name>PT5491</name></trkpt>
<trkpt lat="52.048572" lon="05.765840"><ele>36.6</ele><time>2022-03-04T15:25:25Z</time><name>PT5492</name></trkpt>
<trkpt lat="52.048564" lon="05.765824"><ele>36.7</ele><time>2022-03-04T15:25:26Z</time><name>PT5493</name></trkpt>
<trkpt lat="52.048559" lon="05.765813"><ele>36.8</ele><time>2022-03-04T15:25:27Z</time><name>PT5494</name></trkpt>
<trkpt lat="52.048552" lon="05.765802"><ele>36.6</ele><time>2022-03-04T15:25:28Z</time><name>PT5495</name></trkpt>
<trkpt lat="52.048546" lon="05.765791"><ele>36.7</ele><time>2022-03-04T15:25:29Z</time><name>PT5496</name></trkpt>
<trkpt lat="52.048538" lon="05.765778"><ele>36.7</ele><time>2022-03-04T15:25:30Z</time><name>PT5497</name></trkpt>
<trkpt lat="52.048529" lon="05.765764"><ele>36.7</ele><time>2022-03-04T15:25:31Z</time><name>PT5498</name></trkpt>
<trkpt lat="52.048522" lon="05.765750"><ele>36.9</ele><time>2022-03-04T15:25:32Z</time><name>PT5499</name></trkpt>
<trkpt lat="52.048512" lon="05.765735"><ele>36.9</ele><time>2022-03-04T15:25:33Z</time><name>PT5500</name></trkpt>
<trkpt lat="52.048504" lon="05.765723"><ele>36.9</ele><time>2022-03-04T15:25:34Z</time><name>PT5501</name></trkpt>
<trkpt lat="52.048496" lon="05.765712"><ele>36.9</ele><time>2022-03-04T15:25:35Z</time><name>PT5502</name></trkpt>
<trkpt lat="52.048486" lon="05.765702"><ele>36.9</ele><time>2022-03-04T15:25:36Z</time><name>PT5503</name></trkpt>
<trkpt lat="52.048481" lon="05.765691"><ele>36.9</ele><time>2022-03-04T15:25:37Z</time><name>PT5504</name></trkpt>
<trkpt lat="52.048476" lon="05.765677"><ele>37.2</ele><time>2022-03-04T15:25:38Z</time><name>PT5505</name></trkpt>
<trkpt lat="52.048473" lon="05.765664"><ele>37.2</ele><time>2022-03-04T15:25:39Z</time><name>PT5506</name></trkpt>
<trkpt lat="52.048472" lon="05.765648"><ele>37.2</ele><time>2022-03-04T15:25:40Z</time><name>PT5507</name></trkpt>
<trkpt lat="52.048467" lon="05.765636"><ele>37.3</ele><time>2022-03-04T15:25:41Z</time><name>PT5508</name></trkpt>
<trkpt lat="52.048462" lon="05.765621"><ele>37.3</ele><time>2022-03-04T15:25:42Z</time><name>PT5509</name></trkpt>
<trkpt lat="52.048456" lon="05.765606"><ele>37.1</ele><time>2022-03-04T15:25:43Z</time><name>PT5510</name></trkpt>
<trkpt lat="52.048452" lon="05.765592"><ele>37.1</ele><time>2022-03-04T15:25:44Z</time><name>PT5511</name></trkpt>
<trkpt lat="52.048446" lon="05.765575"><ele>37</ele><time>2022-03-04T15:25:45Z</time><name>PT5512</name></trkpt>
<trkpt lat="52.048442" lon="05.765559"><ele>36.9</ele><time>2022-03-04T15:25:46Z</time><name>PT5513</name></trkpt>
<trkpt lat="52.048439" lon="05.765548"><ele>36.9</ele><time>2022-03-04T15:25:47Z</time><name>PT5514</name></trkpt>
<trkpt lat="52.048431" lon="05.765537"><ele>36.9</ele><time>2022-03-04T15:25:48Z</time><name>PT5515</name></trkpt>
<trkpt lat="52.048424" lon="05.765524"><ele>37.1</ele><time>2022-03-04T15:25:49Z</time><name>PT5516</name></trkpt>
<trkpt lat="52.048417" lon="05.765511"><ele>37.2</ele><time>2022-03-04T15:25:50Z</time><name>PT5517</name></trkpt>
<trkpt lat="52.048413" lon="05.765501"><ele>37.3</ele><time>2022-03-04T15:25:51Z</time><name>PT5518</name></trkpt>
<trkpt lat="52.048409" lon="05.765490"><ele>37.3</ele><time>2022-03-04T15:25:52Z</time><name>PT5519</name></trkpt>
<trkpt lat="52.048404" lon="05.765481"><ele>37.5</ele><time>2022-03-04T15:25:53Z</time><name>PT5520</name></trkpt>
<trkpt lat="52.048399" lon="05.765472"><ele>37.5</ele><time>2022-03-04T15:25:54Z</time><name>PT5521</name></trkpt>
<trkpt lat="52.048391" lon="05.765463"><ele>37.6</ele><time>2022-03-04T15:25:55Z</time><name>PT5522</name></trkpt>
<trkpt lat="52.048381" lon="05.765453"><ele>37.6</ele><time>2022-03-04T15:25:56Z</time><name>PT5523</name></trkpt>
<trkpt lat="52.048373" lon="05.765448"><ele>37.8</ele><time>2022-03-04T15:25:57Z</time><name>PT5524</name></trkpt>
<trkpt lat="52.048371" lon="05.765444"><ele>37.7</ele><time>2022-03-04T15:25:58Z</time><name>PT5525</name></trkpt>
<trkpt lat="52.048367" lon="05.765438"><ele>37.6</ele><time>2022-03-04T15:25:59Z</time><name>PT5526</name></trkpt>
<trkpt lat="52.048365" lon="05.765433"><ele>37.7</ele><time>2022-03-04T15:26:00Z</time><name>PT5527</name></trkpt>
<trkpt lat="52.048363" lon="05.765439"><ele>37.5</ele><time>2022-03-04T15:26:01Z</time><name>PT5528</name></trkpt>
<trkpt lat="52.048360" lon="05.765443"><ele>37.5</ele><time>2022-03-04T15:26:02Z</time><name>PT5529</name></trkpt>
<trkpt lat="52.048354" lon="05.765441"><ele>37.5</ele><time>2022-03-04T15:26:03Z</time><name>PT5530</name></trkpt>
<trkpt lat="52.048352" lon="05.765435"><ele>37.5</ele><time>2022-03-04T15:26:04Z</time><name>PT5531</name></trkpt>
<trkpt lat="52.048355" lon="05.765426"><ele>37.4</ele><time>2022-03-04T15:26:05Z</time><name>PT5532</name></trkpt>
<trkpt lat="52.048350" lon="05.765418"><ele>37.6</ele><time>2022-03-04T15:26:06Z</time><name>PT5533</name></trkpt>
<trkpt lat="52.048346" lon="05.765402"><ele>37.7</ele><time>2022-03-04T15:26:07Z</time><name>PT5534</name></trkpt>
<trkpt lat="52.048349" lon="05.765395"><ele>37.8</ele><time>2022-03-04T15:26:08Z</time><name>PT5535</name></trkpt>
<trkpt lat="52.048348" lon="05.765385"><ele>37.8</ele><time>2022-03-04T15:26:09Z</time><name>PT5536</name></trkpt>
<trkpt lat="52.048342" lon="05.765368"><ele>37.9</ele><time>2022-03-04T15:26:10Z</time><name>PT5537</name></trkpt>
<trkpt lat="52.048337" lon="05.765354"><ele>37.8</ele><time>2022-03-04T15:26:11Z</time><name>PT5538</name></trkpt>
<trkpt lat="52.048333" lon="05.765341"><ele>37.7</ele><time>2022-03-04T15:26:12Z</time><name>PT5539</name></trkpt>
<trkpt lat="52.048329" lon="05.765330"><ele>37.7</ele><time>2022-03-04T15:26:13Z</time><name>PT5540</name></trkpt>
<trkpt lat="52.048328" lon="05.765323"><ele>37.8</ele><time>2022-03-04T15:26:14Z</time><name>PT5541</name></trkpt>
<trkpt lat="52.048318" lon="05.765307"><ele>37.8</ele><time>2022-03-04T15:26:15Z</time><name>PT5542</name></trkpt>
<trkpt lat="52.048308" lon="05.765292"><ele>37.8</ele><time>2022-03-04T15:26:16Z</time><name>PT5543</name></trkpt>
<trkpt lat="52.048301" lon="05.765283"><ele>37.9</ele><time>2022-03-04T15:26:17Z</time><name>PT5544</name></trkpt>
<trkpt lat="52.048296" lon="05.765285"><ele>37.9</ele><time>2022-03-04T15:26:18Z</time><name>PT5545</name></trkpt>
<trkpt lat="52.048289" lon="05.765283"><ele>37.9</ele><time>2022-03-04T15:26:19Z</time><name>PT5546</name></trkpt>
<trkpt lat="52.048279" lon="05.765281"><ele>38</ele><time>2022-03-04T15:26:20Z</time><name>PT5547</name></trkpt>
<trkpt lat="52.048268" lon="05.765283"><ele>38</ele><time>2022-03-04T15:26:21Z</time><name>PT5548</name></trkpt>
<trkpt lat="52.048263" lon="05.765282"><ele>37.9</ele><time>2022-03-04T15:26:22Z</time><name>PT5549</name></trkpt>
<trkpt lat="52.048256" lon="05.765285"><ele>37.9</ele><time>2022-03-04T15:26:23Z</time><name>PT5550</name></trkpt>
<trkpt lat="52.048252" lon="05.765290"><ele>37.8</ele><time>2022-03-04T15:26:24Z</time><name>PT5551</name></trkpt>
<trkpt lat="52.048241" lon="05.765286"><ele>37.9</ele><time>2022-03-04T15:26:25Z</time><name>PT5552</name></trkpt>
<trkpt lat="52.048229" lon="05.765284"><ele>37.8</ele><time>2022-03-04T15:26:26Z</time><name>PT5553</name></trkpt>
<trkpt lat="52.048223" lon="05.765282"><ele>38</ele><time>2022-03-04T15:26:27Z</time><name>PT5554</name></trkpt>
<trkpt lat="52.048220" lon="05.765280"><ele>38.1</ele><time>2022-03-04T15:26:28Z</time><name>PT5555</name></trkpt>
<trkpt lat="52.048211" lon="05.765273"><ele>38.3</ele><time>2022-03-04T15:26:29Z</time><name>PT5556</name></trkpt>
<trkpt lat="52.048200" lon="05.765263"><ele>38.3</ele><time>2022-03-04T15:26:30Z</time><name>PT5557</name></trkpt>
<trkpt lat="52.048193" lon="05.765260"><ele>38.3</ele><time>2022-03-04T15:26:31Z</time><name>PT5558</name></trkpt>
<trkpt lat="52.048183" lon="05.765256"><ele>38.2</ele><time>2022-03-04T15:26:32Z</time><name>PT5559</name></trkpt>
<trkpt lat="52.048176" lon="05.765251"><ele>38.1</ele><time>2022-03-04T15:26:33Z</time><name>PT5560</name></trkpt>
<trkpt lat="52.048169" lon="05.765245"><ele>38.1</ele><time>2022-03-04T15:26:34Z</time><name>PT5561</name></trkpt>
<trkpt lat="52.048161" lon="05.765239"><ele>38.3</ele><time>2022-03-04T15:26:35Z</time><name>PT5562</name></trkpt>
<trkpt lat="52.048156" lon="05.765237"><ele>38.3</ele><time>2022-03-04T15:26:36Z</time><name>PT5563</name></trkpt>
<trkpt lat="52.048148" lon="05.765229"><ele>38.3</ele><time>2022-03-04T15:26:37Z</time><name>PT5564</name></trkpt>
<trkpt lat="52.048142" lon="05.765207"><ele>38.3</ele><time>2022-03-04T15:26:38Z</time><name>PT5565</name></trkpt>
<trkpt lat="52.048134" lon="05.765191"><ele>38.3</ele><time>2022-03-04T15:26:39Z</time><name>PT5566</name></trkpt>
<trkpt lat="52.048120" lon="05.765175"><ele>38.3</ele><time>2022-03-04T15:26:40Z</time><name>PT5567</name></trkpt>
<trkpt lat="52.048107" lon="05.765162"><ele>38.5</ele><time>2022-03-04T15:26:41Z</time><name>PT5568</name></trkpt>
<trkpt lat="52.048097" lon="05.765156"><ele>38.7</ele><time>2022-03-04T15:26:42Z</time><name>PT5569</name></trkpt>
<trkpt lat="52.048087" lon="05.765153"><ele>38.6</ele><time>2022-03-04T15:26:43Z</time><name>PT5570</name></trkpt>
<trkpt lat="52.048080" lon="05.765147"><ele>38.8</ele><time>2022-03-04T15:26:44Z</time><name>PT5571</name></trkpt>
<trkpt lat="52.048071" lon="05.765143"><ele>38.8</ele><time>2022-03-04T15:26:45Z</time><name>PT5572</name></trkpt>
<trkpt lat="52.048057" lon="05.765134"><ele>38.7</ele><time>2022-03-04T15:26:46Z</time><name>PT5573</name></trkpt>
<trkpt lat="52.048045" lon="05.765126"><ele>38.6</ele><time>2022-03-04T15:26:47Z</time><name>PT5574</name></trkpt>
<trkpt lat="52.048039" lon="05.765118"><ele>38.6</ele><time>2022-03-04T15:26:48Z</time><name>PT5575</name></trkpt>
<trkpt lat="52.048036" lon="05.765114"><ele>38.6</ele><time>2022-03-04T15:26:49Z</time><name>PT5576</name></trkpt>
<trkpt lat="52.048029" lon="05.765110"><ele>38.7</ele><time>2022-03-04T15:26:50Z</time><name>PT5577</name></trkpt>
<trkpt lat="52.048023" lon="05.765107"><ele>38.8</ele><time>2022-03-04T15:26:51Z</time><name>PT5578</name></trkpt>
<trkpt lat="52.048015" lon="05.765101"><ele>38.9</ele><time>2022-03-04T15:26:52Z</time><name>PT5579</name></trkpt>
<trkpt lat="52.048007" lon="05.765096"><ele>39.1</ele><time>2022-03-04T15:26:53Z</time><name>PT5580</name></trkpt>
<trkpt lat="52.047997" lon="05.765088"><ele>39</ele><time>2022-03-04T15:26:54Z</time><name>PT5581</name></trkpt>
<trkpt lat="52.047988" lon="05.765082"><ele>39.2</ele><time>2022-03-04T15:26:55Z</time><name>PT5582</name></trkpt>
<trkpt lat="52.047980" lon="05.765078"><ele>39.2</ele><time>2022-03-04T15:26:56Z</time><name>PT5583</name></trkpt>
<trkpt lat="52.047975" lon="05.765075"><ele>39.2</ele><time>2022-03-04T15:26:57Z</time><name>PT5584</name></trkpt>
<trkpt lat="52.047969" lon="05.765067"><ele>39.2</ele><time>2022-03-04T15:26:58Z</time><name>PT5585</name></trkpt>
<trkpt lat="52.047964" lon="05.765062"><ele>39.3</ele><time>2022-03-04T15:26:59Z</time><name>PT5586</name></trkpt>
<trkpt lat="52.047952" lon="05.765059"><ele>39.3</ele><time>2022-03-04T15:27:00Z</time><name>PT5587</name></trkpt>
<trkpt lat="52.047935" lon="05.765051"><ele>39.2</ele><time>2022-03-04T15:27:01Z</time><name>PT5588</name></trkpt>
<trkpt lat="52.047923" lon="05.765044"><ele>39.2</ele><time>2022-03-04T15:27:02Z</time><name>PT5589</name></trkpt>
<trkpt lat="52.047910" lon="05.765036"><ele>39.4</ele><time>2022-03-04T15:27:03Z</time><name>PT5590</name></trkpt>
<trkpt lat="52.047898" lon="05.765031"><ele>39.4</ele><time>2022-03-04T15:27:04Z</time><name>PT5591</name></trkpt>
<trkpt lat="52.047890" lon="05.765027"><ele>39.6</ele><time>2022-03-04T15:27:05Z</time><name>PT5592</name></trkpt>
<trkpt lat="52.047881" lon="05.765023"><ele>39.5</ele><time>2022-03-04T15:27:06Z</time><name>PT5593</name></trkpt>
<trkpt lat="52.047871" lon="05.765020"><ele>39.6</ele><time>2022-03-04T15:27:07Z</time><name>PT5594</name></trkpt>
<trkpt lat="52.047860" lon="05.765014"><ele>39.4</ele><time>2022-03-04T15:27:08Z</time><name>PT5595</name></trkpt>
<trkpt lat="52.047845" lon="05.765006"><ele>39.4</ele><time>2022-03-04T15:27:09Z</time><name>PT5596</name></trkpt>
<trkpt lat="52.047831" lon="05.764996"><ele>39.5</ele><time>2022-03-04T15:27:10Z</time><name>PT5597</name></trkpt>
<trkpt lat="52.047818" lon="05.764989"><ele>39.6</ele><time>2022-03-04T15:27:11Z</time><name>PT5598</name></trkpt>
<trkpt lat="52.047808" lon="05.764982"><ele>39.7</ele><time>2022-03-04T15:27:12Z</time><name>PT5599</name></trkpt>
<trkpt lat="52.047799" lon="05.764977"><ele>39.7</ele><time>2022-03-04T15:27:13Z</time><name>PT5600</name></trkpt>
<trkpt lat="52.047791" lon="05.764972"><ele>39.6</ele><time>2022-03-04T15:27:14Z</time><name>PT5601</name></trkpt>
<trkpt lat="52.047781" lon="05.764967"><ele>39.6</ele><time>2022-03-04T15:27:15Z</time><name>PT5602</name></trkpt>
<trkpt lat="52.047769" lon="05.764960"><ele>39.6</ele><time>2022-03-04T15:27:16Z</time><name>PT5603</name></trkpt>
<trkpt lat="52.047758" lon="05.764953"><ele>39.5</ele><time>2022-03-04T15:27:17Z</time><name>PT5604</name></trkpt>
<trkpt lat="52.047744" lon="05.764944"><ele>39.6</ele><time>2022-03-04T15:27:18Z</time><name>PT5605</name></trkpt>
<trkpt lat="52.047731" lon="05.764936"><ele>39.7</ele><time>2022-03-04T15:27:19Z</time><name>PT5606</name></trkpt>
<trkpt lat="52.047716" lon="05.764923"><ele>39.7</ele><time>2022-03-04T15:27:20Z</time><name>PT5607</name></trkpt>
<trkpt lat="52.047702" lon="05.764913"><ele>39.7</ele><time>2022-03-04T15:27:21Z</time><name>PT5608</name></trkpt>
<trkpt lat="52.047694" lon="05.764907"><ele>39.8</ele><time>2022-03-04T15:27:22Z</time><name>PT5609</name></trkpt>
<trkpt lat="52.047684" lon="05.764901"><ele>39.7</ele><time>2022-03-04T15:27:23Z</time><name>PT5610</name></trkpt>
<trkpt lat="52.047676" lon="05.764896"><ele>39.7</ele><time>2022-03-04T15:27:24Z</time><name>PT5611</name></trkpt>
<trkpt lat="52.047666" lon="05.764890"><ele>39.6</ele><time>2022-03-04T15:27:25Z</time><name>PT5612</name></trkpt>
<trkpt lat="52.047651" lon="05.764875"><ele>39.7</ele><time>2022-03-04T15:27:26Z</time><name>PT5613</name></trkpt>
<trkpt lat="52.047638" lon="05.764867"><ele>39.7</ele><time>2022-03-04T15:27:27Z</time><name>PT5614</name></trkpt>
<trkpt lat="52.047629" lon="05.764869"><ele>39.7</ele><time>2022-03-04T15:27:28Z</time><name>PT5615</name></trkpt>
<trkpt lat="52.047620" lon="05.764867"><ele>39.8</ele><time>2022-03-04T15:27:29Z</time><name>PT5616</name></trkpt>
<trkpt lat="52.047611" lon="05.764864"><ele>39.9</ele><time>2022-03-04T15:27:30Z</time><name>PT5617</name></trkpt>
<trkpt lat="52.047601" lon="05.764862"><ele>39.8</ele><time>2022-03-04T15:27:31Z</time><name>PT5618</name></trkpt>
<trkpt lat="52.047590" lon="05.764852"><ele>40.1</ele><time>2022-03-04T15:27:32Z</time><name>PT5619</name></trkpt>
<trkpt lat="52.047582" lon="05.764839"><ele>40.2</ele><time>2022-03-04T15:27:33Z</time><name>PT5620</name></trkpt>
<trkpt lat="52.047576" lon="05.764833"><ele>40.3</ele><time>2022-03-04T15:27:34Z</time><name>PT5621</name></trkpt>
<trkpt lat="52.047569" lon="05.764827"><ele>40.2</ele><time>2022-03-04T15:27:35Z</time><name>PT5622</name></trkpt>
<trkpt lat="52.047560" lon="05.764821"><ele>40.2</ele><time>2022-03-04T15:27:36Z</time><name>PT5623</name></trkpt>
<trkpt lat="52.047551" lon="05.764812"><ele>40.2</ele><time>2022-03-04T15:27:37Z</time><name>PT5624</name></trkpt>
<trkpt lat="52.047544" lon="05.764807"><ele>40.2</ele><time>2022-03-04T15:27:38Z</time><name>PT5625</name></trkpt>
<trkpt lat="52.047537" lon="05.764801"><ele>40.1</ele><time>2022-03-04T15:27:39Z</time><name>PT5626</name></trkpt>
<trkpt lat="52.047528" lon="05.764796"><ele>40.1</ele><time>2022-03-04T15:27:40Z</time><name>PT5627</name></trkpt>
<trkpt lat="52.047520" lon="05.764791"><ele>40.2</ele><time>2022-03-04T15:27:41Z</time><name>PT5628</name></trkpt>
<trkpt lat="52.047511" lon="05.764784"><ele>40.1</ele><time>2022-03-04T15:27:42Z</time><name>PT5629</name></trkpt>
<trkpt lat="52.047502" lon="05.764780"><ele>40</ele><time>2022-03-04T15:27:43Z</time><name>PT5630</name></trkpt>
<trkpt lat="52.047490" lon="05.764774"><ele>40</ele><time>2022-03-04T15:27:44Z</time><name>PT5631</name></trkpt>
<trkpt lat="52.047476" lon="05.764774"><ele>40.1</ele><time>2022-03-04T15:27:45Z</time><name>PT5632</name></trkpt>
<trkpt lat="52.047466" lon="05.764777"><ele>40.2</ele><time>2022-03-04T15:27:46Z</time><name>PT5633</name></trkpt>
<trkpt lat="52.047463" lon="05.764789"><ele>40.2</ele><time>2022-03-04T15:27:47Z</time><name>PT5634</name></trkpt>
<trkpt lat="52.047461" lon="05.764806"><ele>40.6</ele><time>2022-03-04T15:27:48Z</time><name>PT5635</name></trkpt>
<trkpt lat="52.047456" lon="05.764812"><ele>40.6</ele><time>2022-03-04T15:27:49Z</time><name>PT5636</name></trkpt>
<trkpt lat="52.047450" lon="05.764822"><ele>40.7</ele><time>2022-03-04T15:27:50Z</time><name>PT5637</name></trkpt>
<trkpt lat="52.047448" lon="05.764835"><ele>40.8</ele><time>2022-03-04T15:27:51Z</time><name>PT5638</name></trkpt>
<trkpt lat="52.047446" lon="05.764844"><ele>40.8</ele><time>2022-03-04T15:27:52Z</time><name>PT5639</name></trkpt>
<trkpt lat="52.047445" lon="05.764856"><ele>40.6</ele><time>2022-03-04T15:27:53Z</time><name>PT5640</name></trkpt>
<trkpt lat="52.047444" lon="05.764862"><ele>40.6</ele><time>2022-03-04T15:27:54Z</time><name>PT5641</name></trkpt>
<trkpt lat="52.047441" lon="05.764868"><ele>40.5</ele><time>2022-03-04T15:27:55Z</time><name>PT5642</name></trkpt>
<trkpt lat="52.047440" lon="05.764878"><ele>40.5</ele><time>2022-03-04T15:27:56Z</time><name>PT5643</name></trkpt>
<trkpt lat="52.047438" lon="05.764893"><ele>40.2</ele><time>2022-03-04T15:27:57Z</time><name>PT5644</name></trkpt>
<trkpt lat="52.047430" lon="05.764912"><ele>40.2</ele><time>2022-03-04T15:27:58Z</time><name>PT5645</name></trkpt>
<trkpt lat="52.047427" lon="05.764930"><ele>40.4</ele><time>2022-03-04T15:27:59Z</time><name>PT5646</name></trkpt>
<trkpt lat="52.047428" lon="05.764942"><ele>40.4</ele><time>2022-03-04T15:28:00Z</time><name>PT5647</name></trkpt>
<trkpt lat="52.047430" lon="05.764960"><ele>40.5</ele><time>2022-03-04T15:28:01Z</time><name>PT5648</name></trkpt>
<trkpt lat="52.047427" lon="05.764977"><ele>40.8</ele><time>2022-03-04T15:28:02Z</time><name>PT5649</name></trkpt>
<trkpt lat="52.047420" lon="05.764998"><ele>40.8</ele><time>2022-03-04T15:28:03Z</time><name>PT5650</name></trkpt>
<trkpt lat="52.047417" lon="05.765019"><ele>40.8</ele><time>2022-03-04T15:28:04Z</time><name>PT5651</name></trkpt>
<trkpt lat="52.047416" lon="05.765030"><ele>41.1</ele><time>2022-03-04T15:28:05Z</time><name>PT5652</name></trkpt>
<trkpt lat="52.047413" lon="05.765044"><ele>41</ele><time>2022-03-04T15:28:06Z</time><name>PT5653</name></trkpt>
<trkpt lat="52.047413" lon="05.765056"><ele>41</ele><time>2022-03-04T15:28:07Z</time><name>PT5654</name></trkpt>
<trkpt lat="52.047415" lon="05.765074"><ele>41</ele><time>2022-03-04T15:28:08Z</time><name>PT5655</name></trkpt>
<trkpt lat="52.047413" lon="05.765095"><ele>41.3</ele><time>2022-03-04T15:28:09Z</time><name>PT5656</name></trkpt>
<trkpt lat="52.047412" lon="05.765109"><ele>41.1</ele><time>2022-03-04T15:28:10Z</time><name>PT5657</name></trkpt>
<trkpt lat="52.047412" lon="05.765121"><ele>41.3</ele><time>2022-03-04T15:28:11Z</time><name>PT5658</name></trkpt>
<trkpt lat="52.047411" lon="05.765135"><ele>41.4</ele><time>2022-03-04T15:28:12Z</time><name>PT5659</name></trkpt>
<trkpt lat="52.047411" lon="05.765151"><ele>41.4</ele><time>2022-03-04T15:28:13Z</time><name>PT5660</name></trkpt>
<trkpt lat="52.047414" lon="05.765170"><ele>41.2</ele><time>2022-03-04T15:28:14Z</time><name>PT5661</name></trkpt>
<trkpt lat="52.047413" lon="05.765194"><ele>41.3</ele><time>2022-03-04T15:28:15Z</time><name>PT5662</name></trkpt>
<trkpt lat="52.047410" lon="05.765219"><ele>41.2</ele><time>2022-03-04T15:28:16Z</time><name>PT5663</name></trkpt>
<trkpt lat="52.047407" lon="05.765237"><ele>41.1</ele><time>2022-03-04T15:28:17Z</time><name>PT5664</name></trkpt>
<trkpt lat="52.047406" lon="05.765253"><ele>41.3</ele><time>2022-03-04T15:28:18Z</time><name>PT5665</name></trkpt>
<trkpt lat="52.047406" lon="05.765262"><ele>41.4</ele><time>2022-03-04T15:28:19Z</time><name>PT5666</name></trkpt>
<trkpt lat="52.047409" lon="05.765268"><ele>41.4</ele><time>2022-03-04T15:28:20Z</time><name>PT5667</name></trkpt>
<trkpt lat="52.047414" lon="05.765280"><ele>41.7</ele><time>2022-03-04T15:28:21Z</time><name>PT5668</name></trkpt>
<trkpt lat="52.047418" lon="05.765300"><ele>41.8</ele><time>2022-03-04T15:28:22Z</time><name>PT5669</name></trkpt>
<trkpt lat="52.047421" lon="05.765316"><ele>41.9</ele><time>2022-03-04T15:28:23Z</time><name>PT5670</name></trkpt>
<trkpt lat="52.047421" lon="05.765328"><ele>42.1</ele><time>2022-03-04T15:28:24Z</time><name>PT5671</name></trkpt>
<trkpt lat="52.047418" lon="05.765337"><ele>42.1</ele><time>2022-03-04T15:28:25Z</time><name>PT5672</name></trkpt>
<trkpt lat="52.047420" lon="05.765348"><ele>42.2</ele><time>2022-03-04T15:28:26Z</time><name>PT5673</name></trkpt>
<trkpt lat="52.047418" lon="05.765368"><ele>42.3</ele><time>2022-03-04T15:28:27Z</time><name>PT5674</name></trkpt>
<trkpt lat="52.047418" lon="05.765388"><ele>42.5</ele><time>2022-03-04T15:28:28Z</time><name>PT5675</name></trkpt>
<trkpt lat="52.047414" lon="05.765400"><ele>42.4</ele><time>2022-03-04T15:28:29Z</time><name>PT5676</name></trkpt>
<trkpt lat="52.047413" lon="05.765409"><ele>42.4</ele><time>2022-03-04T15:28:30Z</time><name>PT5677</name></trkpt>
<trkpt lat="52.047415" lon="05.765412"><ele>42.4</ele><time>2022-03-04T15:28:31Z</time><name>PT5678</name></trkpt>
<trkpt lat="52.047419" lon="05.765433"><ele>42.5</ele><time>2022-03-04T15:28:32Z</time><name>PT5679</name></trkpt>
<trkpt lat="52.047423" lon="05.765462"><ele>42.6</ele><time>2022-03-04T15:28:33Z</time><name>PT5680</name></trkpt>
<trkpt lat="52.047428" lon="05.765487"><ele>42.6</ele><time>2022-03-04T15:28:34Z</time><name>PT5681</name></trkpt>
<trkpt lat="52.047432" lon="05.765507"><ele>42.7</ele><time>2022-03-04T15:28:35Z</time><name>PT5682</name></trkpt>
<trkpt lat="52.047432" lon="05.765521"><ele>42.8</ele><time>2022-03-04T15:28:36Z</time><name>PT5683</name></trkpt>
<trkpt lat="52.047433" lon="05.765532"><ele>42.9</ele><time>2022-03-04T15:28:37Z</time><name>PT5684</name></trkpt>
<trkpt lat="52.047438" lon="05.765546"><ele>42.9</ele><time>2022-03-04T15:28:38Z</time><name>PT5685</name></trkpt>
<trkpt lat="52.047446" lon="05.765561"><ele>43</ele><time>2022-03-04T15:28:39Z</time><name>PT5686</name></trkpt>
<trkpt lat="52.047452" lon="05.765582"><ele>43</ele><time>2022-03-04T15:28:40Z</time><name>PT5687</name></trkpt>
<trkpt lat="52.047467" lon="05.765607"><ele>43</ele><time>2022-03-04T15:28:41Z</time><name>PT5688</name></trkpt>
<trkpt lat="52.047472" lon="05.765624"><ele>43</ele><time>2022-03-04T15:28:42Z</time><name>PT5689</name></trkpt>
<trkpt lat="52.047476" lon="05.765640"><ele>42.8</ele><time>2022-03-04T15:28:43Z</time><name>PT5690</name></trkpt>
<trkpt lat="52.047480" lon="05.765652"><ele>42.7</ele><time>2022-03-04T15:28:44Z</time><name>PT5691</name></trkpt>
<trkpt lat="52.047488" lon="05.765672"><ele>42.6</ele><time>2022-03-04T15:28:45Z</time><name>PT5692</name></trkpt>
<trkpt lat="52.047493" lon="05.765691"><ele>42.6</ele><time>2022-03-04T15:28:46Z</time><name>PT5693</name></trkpt>
<trkpt lat="52.047496" lon="05.765711"><ele>42.6</ele><time>2022-03-04T15:28:47Z</time><name>PT5694</name></trkpt>
<trkpt lat="52.047500" lon="05.765723"><ele>42.6</ele><time>2022-03-04T15:28:48Z</time><name>PT5695</name></trkpt>
<trkpt lat="52.047504" lon="05.765734"><ele>42.5</ele><time>2022-03-04T15:28:49Z</time><name>PT5696</name></trkpt>
<trkpt lat="52.047509" lon="05.765745"><ele>42.4</ele><time>2022-03-04T15:28:50Z</time><name>PT5697</name></trkpt>
<trkpt lat="52.047513" lon="05.765757"><ele>42.4</ele><time>2022-03-04T15:28:51Z</time><name>PT5698</name></trkpt>
<trkpt lat="52.047519" lon="05.765778"><ele>42.4</ele><time>2022-03-04T15:28:52Z</time><name>PT5699</name></trkpt>
<trkpt lat="52.047526" lon="05.765800"><ele>42.5</ele><time>2022-03-04T15:28:53Z</time><name>PT5700</name></trkpt>
<trkpt lat="52.047532" lon="05.765816"><ele>42.4</ele><time>2022-03-04T15:28:54Z</time><name>PT5701</name></trkpt>
<trkpt lat="52.047533" lon="05.765829"><ele>42.3</ele><time>2022-03-04T15:28:55Z</time><name>PT5702</name></trkpt>
<trkpt lat="52.047532" lon="05.765837"><ele>42.3</ele><time>2022-03-04T15:28:56Z</time><name>PT5703</name></trkpt>
<trkpt lat="52.047538" lon="05.765853"><ele>42.2</ele><time>2022-03-04T15:28:57Z</time><name>PT5704</name></trkpt>
<trkpt lat="52.047544" lon="05.765873"><ele>42.2</ele><time>2022-03-04T15:28:58Z</time><name>PT5705</name></trkpt>
<trkpt lat="52.047551" lon="05.765894"><ele>42.1</ele><time>2022-03-04T15:28:59Z</time><name>PT5706</name></trkpt>
<trkpt lat="52.047555" lon="05.765908"><ele>42</ele><time>2022-03-04T15:29:00Z</time><name>PT5707</name></trkpt>
<trkpt lat="52.047559" lon="05.765921"><ele>41.9</ele><time>2022-03-04T15:29:01Z</time><name>PT5708</name></trkpt>
<trkpt lat="52.047564" lon="05.765936"><ele>42.1</ele><time>2022-03-04T15:29:02Z</time><name>PT5709</name></trkpt>
<trkpt lat="52.047571" lon="05.765947"><ele>42</ele><time>2022-03-04T15:29:03Z</time><name>PT5710</name></trkpt>
<trkpt lat="52.047576" lon="05.765968"><ele>42.1</ele><time>2022-03-04T15:29:04Z</time><name>PT5711</name></trkpt>
<trkpt lat="52.047583" lon="05.765983"><ele>42.2</ele><time>2022-03-04T15:29:05Z</time><name>PT5712</name></trkpt>
<trkpt lat="52.047586" lon="05.765995"><ele>42.1</ele><time>2022-03-04T15:29:06Z</time><name>PT5713</name></trkpt>
<trkpt lat="52.047592" lon="05.766005"><ele>41.9</ele><time>2022-03-04T15:29:07Z</time><name>PT5714</name></trkpt>
<trkpt lat="52.047595" lon="05.766016"><ele>42</ele><time>2022-03-04T15:29:08Z</time><name>PT5715</name></trkpt>
<trkpt lat="52.047599" lon="05.766033"><ele>41.8</ele><time>2022-03-04T15:29:09Z</time><name>PT5716</name></trkpt>
<trkpt lat="52.047604" lon="05.766053"><ele>41.9</ele><time>2022-03-04T15:29:10Z</time><name>PT5717</name></trkpt>
<trkpt lat="52.047607" lon="05.766074"><ele>41.8</ele><time>2022-03-04T15:29:11Z</time><name>PT5718</name></trkpt>
<trkpt lat="52.047609" lon="05.766088"><ele>41.9</ele><time>2022-03-04T15:29:12Z</time><name>PT5719</name></trkpt>
<trkpt lat="52.047611" lon="05.766101"><ele>41.9</ele><time>2022-03-04T15:29:13Z</time><name>PT5720</name></trkpt>
<trkpt lat="52.047615" lon="05.766118"><ele>42</ele><time>2022-03-04T15:29:14Z</time><name>PT5721</name></trkpt>
<trkpt lat="52.047619" lon="05.766136"><ele>42</ele><time>2022-03-04T15:29:15Z</time><name>PT5722</name></trkpt>
<trkpt lat="52.047625" lon="05.766153"><ele>42</ele><time>2022-03-04T15:29:16Z</time><name>PT5723</name></trkpt>
<trkpt lat="52.047629" lon="05.766173"><ele>42.1</ele><time>2022-03-04T15:29:17Z</time><name>PT5724</name></trkpt>
<trkpt lat="52.047632" lon="05.766189"><ele>41.9</ele><time>2022-03-04T15:29:18Z</time><name>PT5725</name></trkpt>
<trkpt lat="52.047634" lon="05.766201"><ele>42</ele><time>2022-03-04T15:29:19Z</time><name>PT5726</name></trkpt>
<trkpt lat="52.047636" lon="05.766215"><ele>41.8</ele><time>2022-03-04T15:29:20Z</time><name>PT5727</name></trkpt>
<trkpt lat="52.047635" lon="05.766229"><ele>41.7</ele><time>2022-03-04T15:29:21Z</time><name>PT5728</name></trkpt>
<trkpt lat="52.047638" lon="05.766246"><ele>41.7</ele><time>2022-03-04T15:29:22Z</time><name>PT5729</name></trkpt>
<trkpt lat="52.047637" lon="05.766270"><ele>41.8</ele><time>2022-03-04T15:29:23Z</time><name>PT5730</name></trkpt>
<trkpt lat="52.047635" lon="05.766289"><ele>41.9</ele><time>2022-03-04T15:29:25Z</time><name>PT5731</name></trkpt>
<trkpt lat="52.047637" lon="05.766309"><ele>41.9</ele><time>2022-03-04T15:29:25Z</time><name>PT5732</name></trkpt>
<trkpt lat="52.047638" lon="05.766324"><ele>42</ele><time>2022-03-04T15:29:26Z</time><name>PT5733</name></trkpt>
<trkpt lat="52.047638" lon="05.766333"><ele>42</ele><time>2022-03-04T15:29:27Z</time><name>PT5734</name></trkpt>
<trkpt lat="52.047640" lon="05.766353"><ele>42.1</ele><time>2022-03-04T15:29:28Z</time><name>PT5735</name></trkpt>
<trkpt lat="52.047641" lon="05.766372"><ele>42.1</ele><time>2022-03-04T15:29:29Z</time><name>PT5736</name></trkpt>
<trkpt lat="52.047639" lon="05.766393"><ele>42.1</ele><time>2022-03-04T15:29:31Z</time><name>PT5737</name></trkpt>
<trkpt lat="52.047634" lon="05.766412"><ele>42.1</ele><time>2022-03-04T15:29:31Z</time><name>PT5738</name></trkpt>
<trkpt lat="52.047633" lon="05.766429"><ele>42.1</ele><time>2022-03-04T15:29:32Z</time><name>PT5739</name></trkpt>
<trkpt lat="52.047634" lon="05.766441"><ele>42</ele><time>2022-03-04T15:29:33Z</time><name>PT5740</name></trkpt>
<trkpt lat="52.047635" lon="05.766451"><ele>41.8</ele><time>2022-03-04T15:29:34Z</time><name>PT5741</name></trkpt>
<trkpt lat="52.047634" lon="05.766465"><ele>41.9</ele><time>2022-03-04T15:29:35Z</time><name>PT5742</name></trkpt>
<trkpt lat="52.047633" lon="05.766484"><ele>41.9</ele><time>2022-03-04T15:29:36Z</time><name>PT5743</name></trkpt>
<trkpt lat="52.047630" lon="05.766500"><ele>41.9</ele><time>2022-03-04T15:29:37Z</time><name>PT5744</name></trkpt>
<trkpt lat="52.047625" lon="05.766512"><ele>41.8</ele><time>2022-03-04T15:29:38Z</time><name>PT5745</name></trkpt>
<trkpt lat="52.047624" lon="05.766522"><ele>41.8</ele><time>2022-03-04T15:29:39Z</time><name>PT5746</name></trkpt>
<trkpt lat="52.047624" lon="05.766535"><ele>41.7</ele><time>2022-03-04T15:29:40Z</time><name>PT5747</name></trkpt>
<trkpt lat="52.047623" lon="05.766550"><ele>41.8</ele><time>2022-03-04T15:29:41Z</time><name>PT5748</name></trkpt>
<trkpt lat="52.047618" lon="05.766568"><ele>41.8</ele><time>2022-03-04T15:29:42Z</time><name>PT5749</name></trkpt>
<trkpt lat="52.047611" lon="05.766586"><ele>41.7</ele><time>2022-03-04T15:29:43Z</time><name>PT5750</name></trkpt>
<trkpt lat="52.047607" lon="05.766602"><ele>41.7</ele><time>2022-03-04T15:29:44Z</time><name>PT5751</name></trkpt>
<trkpt lat="52.047606" lon="05.766615"><ele>41.6</ele><time>2022-03-04T15:29:45Z</time><name>PT5752</name></trkpt>
<trkpt lat="52.047605" lon="05.766623"><ele>41.6</ele><time>2022-03-04T15:29:46Z</time><name>PT5753</name></trkpt>
<trkpt lat="52.047602" lon="05.766631"><ele>41.6</ele><time>2022-03-04T15:29:47Z</time><name>PT5754</name></trkpt>
<trkpt lat="52.047593" lon="05.766647"><ele>41.7</ele><time>2022-03-04T15:29:48Z</time><name>PT5755</name></trkpt>
<trkpt lat="52.047585" lon="05.766663"><ele>41.7</ele><time>2022-03-04T15:29:49Z</time><name>PT5756</name></trkpt>
<trkpt lat="52.047576" lon="05.766676"><ele>41.8</ele><time>2022-03-04T15:29:50Z</time><name>PT5757</name></trkpt>
<trkpt lat="52.047572" lon="05.766689"><ele>41.7</ele><time>2022-03-04T15:29:51Z</time><name>PT5758</name></trkpt>
<trkpt lat="52.047572" lon="05.766698"><ele>41.6</ele><time>2022-03-04T15:29:52Z</time><name>PT5759</name></trkpt>
<trkpt lat="52.047568" lon="05.766709"><ele>41.7</ele><time>2022-03-04T15:29:53Z</time><name>PT5760</name></trkpt>
<trkpt lat="52.047561" lon="05.766724"><ele>41.6</ele><time>2022-03-04T15:29:54Z</time><name>PT5761</name></trkpt>
<trkpt lat="52.047553" lon="05.766744"><ele>41.6</ele><time>2022-03-04T15:29:55Z</time><name>PT5762</name></trkpt>
<trkpt lat="52.047546" lon="05.766763"><ele>41.8</ele><time>2022-03-04T15:29:56Z</time><name>PT5763</name></trkpt>
<trkpt lat="52.047539" lon="05.766778"><ele>41.7</ele><time>2022-03-04T15:29:57Z</time><name>PT5764</name></trkpt>
<trkpt lat="52.047535" lon="05.766786"><ele>41.8</ele><time>2022-03-04T15:29:58Z</time><name>PT5765</name></trkpt>
<trkpt lat="52.047531" lon="05.766793"><ele>41.8</ele><time>2022-03-04T15:29:59Z</time><name>PT5766</name></trkpt>
<trkpt lat="52.047525" lon="05.766807"><ele>41.8</ele><time>2022-03-04T15:30:00Z</time><name>PT5767</name></trkpt>
<trkpt lat="52.047515" lon="05.766828"><ele>41.7</ele><time>2022-03-04T15:30:01Z</time><name>PT5768</name></trkpt>
<trkpt lat="52.047507" lon="05.766845"><ele>41.7</ele><time>2022-03-04T15:30:02Z</time><name>PT5769</name></trkpt>
<trkpt lat="52.047502" lon="05.766857"><ele>41.6</ele><time>2022-03-04T15:30:03Z</time><name>PT5770</name></trkpt>
<trkpt lat="52.047502" lon="05.766867"><ele>41.7</ele><time>2022-03-04T15:30:04Z</time><name>PT5771</name></trkpt>
<trkpt lat="52.047500" lon="05.766876"><ele>41.8</ele><time>2022-03-04T15:30:05Z</time><name>PT5772</name></trkpt>
<trkpt lat="52.047494" lon="05.766889"><ele>41.8</ele><time>2022-03-04T15:30:06Z</time><name>PT5773</name></trkpt>
<trkpt lat="52.047483" lon="05.766907"><ele>41.9</ele><time>2022-03-04T15:30:07Z</time><name>PT5774</name></trkpt>
<trkpt lat="52.047470" lon="05.766926"><ele>41.8</ele><time>2022-03-04T15:30:08Z</time><name>PT5775</name></trkpt>
<trkpt lat="52.047464" lon="05.766938"><ele>41.8</ele><time>2022-03-04T15:30:09Z</time><name>PT5776</name></trkpt>
<trkpt lat="52.047460" lon="05.766948"><ele>42</ele><time>2022-03-04T15:30:10Z</time><name>PT5777</name></trkpt>
<trkpt lat="52.047455" lon="05.766959"><ele>42.1</ele><time>2022-03-04T15:30:11Z</time><name>PT5778</name></trkpt>
<trkpt lat="52.047448" lon="05.766972"><ele>42</ele><time>2022-03-04T15:30:12Z</time><name>PT5779</name></trkpt>
<trkpt lat="52.047439" lon="05.766988"><ele>42.2</ele><time>2022-03-04T15:30:13Z</time><name>PT5780</name></trkpt>
<trkpt lat="52.047428" lon="05.767002"><ele>42.1</ele><time>2022-03-04T15:30:14Z</time><name>PT5781</name></trkpt>
<trkpt lat="52.047417" lon="05.767018"><ele>42.1</ele><time>2022-03-04T15:30:15Z</time><name>PT5782</name></trkpt>
<trkpt lat="52.047407" lon="05.767033"><ele>42.1</ele><time>2022-03-04T15:30:16Z</time><name>PT5783</name></trkpt>
<trkpt lat="52.047396" lon="05.767047"><ele>42.1</ele><time>2022-03-04T15:30:17Z</time><name>PT5784</name></trkpt>
<trkpt lat="52.047393" lon="05.767063"><ele>42</ele><time>2022-03-04T15:30:18Z</time><name>PT5785</name></trkpt>
<trkpt lat="52.047390" lon="05.767075"><ele>42.1</ele><time>2022-03-04T15:30:19Z</time><name>PT5786</name></trkpt>
<trkpt lat="52.047386" lon="05.767089"><ele>42.1</ele><time>2022-03-04T15:30:20Z</time><name>PT5787</name></trkpt>
<trkpt lat="52.047383" lon="05.767106"><ele>42.2</ele><time>2022-03-04T15:30:21Z</time><name>PT5788</name></trkpt>
<trkpt lat="52.047377" lon="05.767120"><ele>42.3</ele><time>2022-03-04T15:30:22Z</time><name>PT5789</name></trkpt>
<trkpt lat="52.047366" lon="05.767136"><ele>42.4</ele><time>2022-03-04T15:30:23Z</time><name>PT5790</name></trkpt>
<trkpt lat="52.047356" lon="05.767147"><ele>42.6</ele><time>2022-03-04T15:30:24Z</time><name>PT5791</name></trkpt>
<trkpt lat="52.047347" lon="05.767161"><ele>42.6</ele><time>2022-03-04T15:30:25Z</time><name>PT5792</name></trkpt>
<trkpt lat="52.047339" lon="05.767172"><ele>42.6</ele><time>2022-03-04T15:30:26Z</time><name>PT5793</name></trkpt>
<trkpt lat="52.047333" lon="05.767182"><ele>42.6</ele><time>2022-03-04T15:30:27Z</time><name>PT5794</name></trkpt>
<trkpt lat="52.047329" lon="05.767187"><ele>42.6</ele><time>2022-03-04T15:30:28Z</time><name>PT5795</name></trkpt>
<trkpt lat="52.047321" lon="05.767193"><ele>42.6</ele><time>2022-03-04T15:30:29Z</time><name>PT5796</name></trkpt>
<trkpt lat="52.047315" lon="05.767200"><ele>42.6</ele><time>2022-03-04T15:30:30Z</time><name>PT5797</name></trkpt>
<trkpt lat="52.047303" lon="05.767217"><ele>42.6</ele><time>2022-03-04T15:30:31Z</time><name>PT5798</name></trkpt>
<trkpt lat="52.047293" lon="05.767233"><ele>42.4</ele><time>2022-03-04T15:30:32Z</time><name>PT5799</name></trkpt>
<trkpt lat="52.047287" lon="05.767249"><ele>42.6</ele><time>2022-03-04T15:30:33Z</time><name>PT5800</name></trkpt>
<trkpt lat="52.047284" lon="05.767260"><ele>42.6</ele><time>2022-03-04T15:30:34Z</time><name>PT5801</name></trkpt>
<trkpt lat="52.047281" lon="05.767271"><ele>42.6</ele><time>2022-03-04T15:30:35Z</time><name>PT5802</name></trkpt>
<trkpt lat="52.047278" lon="05.767287"><ele>42.8</ele><time>2022-03-04T15:30:36Z</time><name>PT5803</name></trkpt>
<trkpt lat="52.047278" lon="05.767308"><ele>42.9</ele><time>2022-03-04T15:30:37Z</time><name>PT5804</name></trkpt>
<trkpt lat="52.047273" lon="05.767329"><ele>42.8</ele><time>2022-03-04T15:30:38Z</time><name>PT5805</name></trkpt>
<trkpt lat="52.047268" lon="05.767349"><ele>43</ele><time>2022-03-04T15:30:40Z</time><name>PT5806</name></trkpt>
<trkpt lat="52.047266" lon="05.767362"><ele>43</ele><time>2022-03-04T15:30:40Z</time><name>PT5807</name></trkpt>
<trkpt lat="52.047263" lon="05.767369"><ele>42.9</ele><time>2022-03-04T15:30:41Z</time><name>PT5808</name></trkpt>
<trkpt lat="52.047260" lon="05.767382"><ele>43</ele><time>2022-03-04T15:30:42Z</time><name>PT5809</name></trkpt>
<trkpt lat="52.047256" lon="05.767394"><ele>43</ele><time>2022-03-04T15:30:43Z</time><name>PT5810</name></trkpt>
<trkpt lat="52.047250" lon="05.767408"><ele>43.1</ele><time>2022-03-04T15:30:44Z</time><name>PT5811</name></trkpt>
<trkpt lat="52.047236" lon="05.767415"><ele>43.3</ele><time>2022-03-04T15:30:45Z</time><name>PT5812</name></trkpt>
<trkpt lat="52.047224" lon="05.767428"><ele>43.2</ele><time>2022-03-04T15:30:46Z</time><name>PT5813</name></trkpt>
<trkpt lat="52.047219" lon="05.767441"><ele>43.3</ele><time>2022-03-04T15:30:47Z</time><name>PT5814</name></trkpt>
<trkpt lat="52.047216" lon="05.767455"><ele>43.2</ele><time>2022-03-04T15:30:48Z</time><name>PT5815</name></trkpt>
<trkpt lat="52.047211" lon="05.767460"><ele>43.1</ele><time>2022-03-04T15:30:49Z</time><name>PT5816</name></trkpt>
<trkpt lat="52.047204" lon="05.767467"><ele>43.2</ele><time>2022-03-04T15:30:50Z</time><name>PT5817</name></trkpt>
<trkpt lat="52.047202" lon="05.767487"><ele>43.3</ele><time>2022-03-04T15:30:51Z</time><name>PT5818</name></trkpt>
<trkpt lat="52.047199" lon="05.767511"><ele>43.5</ele><time>2022-03-04T15:30:52Z</time><name>PT5819</name></trkpt>
<trkpt lat="52.047194" lon="05.767530"><ele>43.5</ele><time>2022-03-04T15:30:53Z</time><name>PT5820</name></trkpt>
<trkpt lat="52.047184" lon="05.767542"><ele>43.7</ele><time>2022-03-04T15:30:54Z</time><name>PT5821</name></trkpt>
<trkpt lat="52.047178" lon="05.767553"><ele>43.5</ele><time>2022-03-04T15:30:55Z</time><name>PT5822</name></trkpt>
<trkpt lat="52.047178" lon="05.767562"><ele>43.7</ele><time>2022-03-04T15:30:56Z</time><name>PT5823</name></trkpt>
<trkpt lat="52.047177" lon="05.767572"><ele>43.7</ele><time>2022-03-04T15:30:57Z</time><name>PT5824</name></trkpt>
<trkpt lat="52.047177" lon="05.767586"><ele>43.8</ele><time>2022-03-04T15:30:58Z</time><name>PT5825</name></trkpt>
<trkpt lat="52.047170" lon="05.767600"><ele>44</ele><time>2022-03-04T15:30:59Z</time><name>PT5826</name></trkpt>
<trkpt lat="52.047159" lon="05.767618"><ele>44</ele><time>2022-03-04T15:31:00Z</time><name>PT5827</name></trkpt>
<trkpt lat="52.047152" lon="05.767633"><ele>44</ele><time>2022-03-04T15:31:01Z</time><name>PT5828</name></trkpt>
<trkpt lat="52.047145" lon="05.767643"><ele>44.1</ele><time>2022-03-04T15:31:02Z</time><name>PT5829</name></trkpt>
<trkpt lat="52.047142" lon="05.767653"><ele>44</ele><time>2022-03-04T15:31:03Z</time><name>PT5830</name></trkpt>
<trkpt lat="52.047143" lon="05.767666"><ele>44.1</ele><time>2022-03-04T15:31:04Z</time><name>PT5831</name></trkpt>
<trkpt lat="52.047135" lon="05.767682"><ele>44.2</ele><time>2022-03-04T15:31:05Z</time><name>PT5832</name></trkpt>
<trkpt lat="52.047122" lon="05.767695"><ele>44.5</ele><time>2022-03-04T15:31:06Z</time><name>PT5833</name></trkpt>
<trkpt lat="52.047112" lon="05.767711"><ele>44.5</ele><time>2022-03-04T15:31:07Z</time><name>PT5834</name></trkpt>
<trkpt lat="52.047104" lon="05.767724"><ele>44.4</ele><time>2022-03-04T15:31:08Z</time><name>PT5835</name></trkpt>
<trkpt lat="52.047097" lon="05.767736"><ele>44.5</ele><time>2022-03-04T15:31:09Z</time><name>PT5836</name></trkpt>
<trkpt lat="52.047093" lon="05.767744"><ele>44.5</ele><time>2022-03-04T15:31:10Z</time><name>PT5837</name></trkpt>
<trkpt lat="52.047086" lon="05.767750"><ele>44.5</ele><time>2022-03-04T15:31:11Z</time><name>PT5838</name></trkpt>
<trkpt lat="52.047082" lon="05.767765"><ele>44.7</ele><time>2022-03-04T15:31:12Z</time><name>PT5839</name></trkpt>
<trkpt lat="52.047080" lon="05.767787"><ele>44.8</ele><time>2022-03-04T15:31:13Z</time><name>PT5840</name></trkpt>
<trkpt lat="52.047076" lon="05.767808"><ele>44.9</ele><time>2022-03-04T15:31:14Z</time><name>PT5841</name></trkpt>
<trkpt lat="52.047068" lon="05.767822"><ele>45.1</ele><time>2022-03-04T15:31:15Z</time><name>PT5842</name></trkpt>
<trkpt lat="52.047062" lon="05.767833"><ele>45</ele><time>2022-03-04T15:31:16Z</time><name>PT5843</name></trkpt>
<trkpt lat="52.047059" lon="05.767841"><ele>45</ele><time>2022-03-04T15:31:17Z</time><name>PT5844</name></trkpt>
<trkpt lat="52.047062" lon="05.767849"><ele>45.2</ele><time>2022-03-04T15:31:18Z</time><name>PT5845</name></trkpt>
<trkpt lat="52.047059" lon="05.767864"><ele>45.3</ele><time>2022-03-04T15:31:19Z</time><name>PT5846</name></trkpt>
<trkpt lat="52.047048" lon="05.767879"><ele>45.4</ele><time>2022-03-04T15:31:20Z</time><name>PT5847</name></trkpt>
<trkpt lat="52.047035" lon="05.767895"><ele>45.5</ele><time>2022-03-04T15:31:21Z</time><name>PT5848</name></trkpt>
<trkpt lat="52.047027" lon="05.767908"><ele>45.7</ele><time>2022-03-04T15:31:22Z</time><name>PT5849</name></trkpt>
<trkpt lat="52.047023" lon="05.767917"><ele>45.9</ele><time>2022-03-04T15:31:23Z</time><name>PT5850</name></trkpt>
<trkpt lat="52.047017" lon="05.767921"><ele>45.9</ele><time>2022-03-04T15:31:24Z</time><name>PT5851</name></trkpt>
<trkpt lat="52.047013" lon="05.767930"><ele>45.9</ele><time>2022-03-04T15:31:25Z</time><name>PT5852</name></trkpt>
<trkpt lat="52.047006" lon="05.767946"><ele>46</ele><time>2022-03-04T15:31:26Z</time><name>PT5853</name></trkpt>
<trkpt lat="52.046997" lon="05.767964"><ele>45.9</ele><time>2022-03-04T15:31:27Z</time><name>PT5854</name></trkpt>
<trkpt lat="52.046986" lon="05.767987"><ele>46.2</ele><time>2022-03-04T15:31:28Z</time><name>PT5855</name></trkpt>
<trkpt lat="52.046973" lon="05.768006"><ele>46.1</ele><time>2022-03-04T15:31:29Z</time><name>PT5856</name></trkpt>
<trkpt lat="52.046967" lon="05.768021"><ele>46.2</ele><time>2022-03-04T15:31:30Z</time><name>PT5857</name></trkpt>
<trkpt lat="52.046963" lon="05.768031"><ele>46.3</ele><time>2022-03-04T15:31:31Z</time><name>PT5858</name></trkpt>
<trkpt lat="52.046959" lon="05.768037"><ele>46.4</ele><time>2022-03-04T15:31:32Z</time><name>PT5859</name></trkpt>
<trkpt lat="52.046958" lon="05.768046"><ele>46.4</ele><time>2022-03-04T15:31:33Z</time><name>PT5860</name></trkpt>
<trkpt lat="52.046952" lon="05.768059"><ele>46.4</ele><time>2022-03-04T15:31:34Z</time><name>PT5861</name></trkpt>
<trkpt lat="52.046949" lon="05.768072"><ele>46.6</ele><time>2022-03-04T15:31:35Z</time><name>PT5862</name></trkpt>
<trkpt lat="52.046941" lon="05.768087"><ele>46.8</ele><time>2022-03-04T15:31:36Z</time><name>PT5863</name></trkpt>
<trkpt lat="52.046932" lon="05.768104"><ele>46.9</ele><time>2022-03-04T15:31:37Z</time><name>PT5864</name></trkpt>
<trkpt lat="52.046922" lon="05.768118"><ele>47.1</ele><time>2022-03-04T15:31:38Z</time><name>PT5865</name></trkpt>
<trkpt lat="52.046917" lon="05.768128"><ele>47.3</ele><time>2022-03-04T15:31:39Z</time><name>PT5866</name></trkpt>
<trkpt lat="52.046912" lon="05.768137"><ele>47.2</ele><time>2022-03-04T15:31:40Z</time><name>PT5867</name></trkpt>
<trkpt lat="52.046909" lon="05.768145"><ele>47</ele><time>2022-03-04T15:31:41Z</time><name>PT5868</name></trkpt>
<trkpt lat="52.046908" lon="05.768158"><ele>46.9</ele><time>2022-03-04T15:31:42Z</time><name>PT5869</name></trkpt>
<trkpt lat="52.046899" lon="05.768174"><ele>46.9</ele><time>2022-03-04T15:31:43Z</time><name>PT5870</name></trkpt>
<trkpt lat="52.046894" lon="05.768186"><ele>46.8</ele><time>2022-03-04T15:31:44Z</time><name>PT5871</name></trkpt>
<trkpt lat="52.046889" lon="05.768199"><ele>46.8</ele><time>2022-03-04T15:31:45Z</time><name>PT5872</name></trkpt>
<trkpt lat="52.046885" lon="05.768205"><ele>47</ele><time>2022-03-04T15:31:46Z</time><name>PT5873</name></trkpt>
<trkpt lat="52.046878" lon="05.768220"><ele>47</ele><time>2022-03-04T15:31:47Z</time><name>PT5874</name></trkpt>
<trkpt lat="52.046863" lon="05.768241"><ele>47.1</ele><time>2022-03-04T15:31:48Z</time><name>PT5875</name></trkpt>
<trkpt lat="52.046856" lon="05.768255"><ele>47.3</ele><time>2022-03-04T15:31:49Z</time><name>PT5876</name></trkpt>
<trkpt lat="52.046851" lon="05.768269"><ele>47.5</ele><time>2022-03-04T15:31:50Z</time><name>PT5877</name></trkpt>
<trkpt lat="52.046849" lon="05.768287"><ele>47.5</ele><time>2022-03-04T15:31:51Z</time><name>PT5878</name></trkpt>
<trkpt lat="52.046849" lon="05.768298"><ele>47.6</ele><time>2022-03-04T15:31:52Z</time><name>PT5879</name></trkpt>
<trkpt lat="52.046846" lon="05.768312"><ele>47.5</ele><time>2022-03-04T15:31:53Z</time><name>PT5880</name></trkpt>
<trkpt lat="52.046843" lon="05.768329"><ele>47.4</ele><time>2022-03-04T15:31:54Z</time><name>PT5881</name></trkpt>
<trkpt lat="52.046841" lon="05.768345"><ele>47.5</ele><time>2022-03-04T15:31:55Z</time><name>PT5882</name></trkpt>
<trkpt lat="52.046837" lon="05.768351"><ele>47.3</ele><time>2022-03-04T15:31:56Z</time><name>PT5883</name></trkpt>
<trkpt lat="52.046837" lon="05.768355"><ele>47.5</ele><time>2022-03-04T15:31:57Z</time><name>PT5884</name></trkpt>
<trkpt lat="52.046829" lon="05.768358"><ele>47.5</ele><time>2022-03-04T15:31:58Z</time><name>PT5885</name></trkpt>
<trkpt lat="52.046824" lon="05.768371"><ele>47.4</ele><time>2022-03-04T15:31:59Z</time><name>PT5886</name></trkpt>
<trkpt lat="52.046816" lon="05.768383"><ele>47.4</ele><time>2022-03-04T15:32:00Z</time><name>PT5887</name></trkpt>
<trkpt lat="52.046811" lon="05.768388"><ele>47.6</ele><time>2022-03-04T15:32:01Z</time><name>PT5888</name></trkpt>
<trkpt lat="52.046805" lon="05.768395"><ele>47.4</ele><time>2022-03-04T15:32:02Z</time><name>PT5889</name></trkpt>
<trkpt lat="52.046799" lon="05.768403"><ele>47.4</ele><time>2022-03-04T15:32:03Z</time><name>PT5890</name></trkpt>
<trkpt lat="52.046792" lon="05.768411"><ele>47.4</ele><time>2022-03-04T15:32:04Z</time><name>PT5891</name></trkpt>
<trkpt lat="52.046785" lon="05.768416"><ele>47.4</ele><time>2022-03-04T15:32:05Z</time><name>PT5892</name></trkpt>
<trkpt lat="52.046781" lon="05.768420"><ele>47.2</ele><time>2022-03-04T15:32:06Z</time><name>PT5893</name></trkpt>
<trkpt lat="52.046775" lon="05.768426"><ele>47.2</ele><time>2022-03-04T15:32:07Z</time><name>PT5894</name></trkpt>
<trkpt lat="52.046769" lon="05.768434"><ele>47.2</ele><time>2022-03-04T15:32:08Z</time><name>PT5895</name></trkpt>
<trkpt lat="52.046765" lon="05.768441"><ele>47.3</ele><time>2022-03-04T15:32:09Z</time><name>PT5896</name></trkpt>
<trkpt lat="52.046760" lon="05.768446"><ele>47.2</ele><time>2022-03-04T15:32:10Z</time><name>PT5897</name></trkpt>
<trkpt lat="52.046751" lon="05.768452"><ele>47.6</ele><time>2022-03-04T15:32:11Z</time><name>PT5898</name></trkpt>
<trkpt lat="52.046744" lon="05.768459"><ele>47.6</ele><time>2022-03-04T15:32:12Z</time><name>PT5899</name></trkpt>
<trkpt lat="52.046737" lon="05.768467"><ele>47.6</ele><time>2022-03-04T15:32:13Z</time><name>PT5900</name></trkpt>
<trkpt lat="52.046732" lon="05.768474"><ele>47.5</ele><time>2022-03-04T15:32:14Z</time><name>PT5901</name></trkpt>
<trkpt lat="52.046726" lon="05.768483"><ele>47.4</ele><time>2022-03-04T15:32:15Z</time><name>PT5902</name></trkpt>
<trkpt lat="52.046718" lon="05.768490"><ele>47.1</ele><time>2022-03-04T15:32:16Z</time><name>PT5903</name></trkpt>
<trkpt lat="52.046711" lon="05.768494"><ele>46.9</ele><time>2022-03-04T15:32:17Z</time><name>PT5904</name></trkpt>
<trkpt lat="52.046707" lon="05.768499"><ele>46.8</ele><time>2022-03-04T15:32:18Z</time><name>PT5905</name></trkpt>
<trkpt lat="52.046700" lon="05.768502"><ele>46.6</ele><time>2022-03-04T15:32:19Z</time><name>PT5906</name></trkpt>
<trkpt lat="52.046689" lon="05.768507"><ele>46.4</ele><time>2022-03-04T15:32:20Z</time><name>PT5907</name></trkpt>
<trkpt lat="52.046679" lon="05.768511"><ele>46.7</ele><time>2022-03-04T15:32:21Z</time><name>PT5908</name></trkpt>
<trkpt lat="52.046675" lon="05.768521"><ele>46.7</ele><time>2022-03-04T15:32:22Z</time><name>PT5909</name></trkpt>
<trkpt lat="52.046669" lon="05.768524"><ele>46.8</ele><time>2022-03-04T15:32:23Z</time><name>PT5910</name></trkpt>
<trkpt lat="52.046665" lon="05.768530"><ele>46.8</ele><time>2022-03-04T15:32:24Z</time><name>PT5911</name></trkpt>
<trkpt lat="52.046653" lon="05.768533"><ele>46.7</ele><time>2022-03-04T15:32:25Z</time><name>PT5912</name></trkpt>
<trkpt lat="52.046642" lon="05.768532"><ele>46.6</ele><time>2022-03-04T15:32:26Z</time><name>PT5913</name></trkpt>
<trkpt lat="52.046634" lon="05.768529"><ele>46.4</ele><time>2022-03-04T15:32:27Z</time><name>PT5914</name></trkpt>
<trkpt lat="52.046627" lon="05.768527"><ele>46.4</ele><time>2022-03-04T15:32:28Z</time><name>PT5915</name></trkpt>
<trkpt lat="52.046623" lon="05.768525"><ele>46.4</ele><time>2022-03-04T15:32:29Z</time><name>PT5916</name></trkpt>
<trkpt lat="52.046621" lon="05.768523"><ele>46.4</ele><time>2022-03-04T15:32:31Z</time><name>PT5917</name></trkpt>
<trkpt lat="52.046618" lon="05.768521"><ele>46.2</ele><time>2022-03-04T15:32:31Z</time><name>PT5918</name></trkpt>
<trkpt lat="52.046610" lon="05.768534"><ele>46.3</ele><time>2022-03-04T15:32:37Z</time><name>PT5919</name></trkpt>
<trkpt lat="52.046605" lon="05.768549"><ele>46.4</ele><time>2022-03-04T15:32:38Z</time><name>PT5920</name></trkpt>
<trkpt lat="52.046604" lon="05.768547"><ele>46.3</ele><time>2022-03-04T15:32:39Z</time><name>PT5921</name></trkpt>
<trkpt lat="52.046596" lon="05.768554"><ele>46.3</ele><time>2022-03-04T15:32:40Z</time><name>PT5922</name></trkpt>
<trkpt lat="52.046592" lon="05.768560"><ele>46.4</ele><time>2022-03-04T15:32:41Z</time><name>PT5923</name></trkpt>
<trkpt lat="52.046588" lon="05.768564"><ele>46.4</ele><time>2022-03-04T15:32:42Z</time><name>PT5924</name></trkpt>
<trkpt lat="52.046589" lon="05.768566"><ele>46.4</ele><time>2022-03-04T15:32:43Z</time><name>PT5925</name></trkpt>
<trkpt lat="52.046585" lon="05.768566"><ele>46.6</ele><time>2022-03-04T15:32:44Z</time><name>PT5926</name></trkpt>
<trkpt lat="52.046585" lon="05.768562"><ele>46.5</ele><time>2022-03-04T15:32:45Z</time><name>PT5927</name></trkpt>
<trkpt lat="52.046586" lon="05.768556"><ele>46.6</ele><time>2022-03-04T15:32:46Z</time><name>PT5928</name></trkpt>
<trkpt lat="52.046583" lon="05.768550"><ele>46.6</ele><time>2022-03-04T15:32:47Z</time><name>PT5929</name></trkpt>
<trkpt lat="52.046576" lon="05.768545"><ele>46.4</ele><time>2022-03-04T15:32:48Z</time><name>PT5930</name></trkpt>
<trkpt lat="52.046567" lon="05.768537"><ele>46.5</ele><time>2022-03-04T15:32:49Z</time><name>PT5931</name></trkpt>
<trkpt lat="52.046559" lon="05.768529"><ele>46.6</ele><time>2022-03-04T15:32:50Z</time><name>PT5932</name></trkpt>
<trkpt lat="52.046550" lon="05.768528"><ele>46.5</ele><time>2022-03-04T15:32:51Z</time><name>PT5933</name></trkpt>
<trkpt lat="52.046548" lon="05.768531"><ele>46.4</ele><time>2022-03-04T15:32:52Z</time><name>PT5934</name></trkpt>
<trkpt lat="52.046551" lon="05.768531"><ele>46.4</ele><time>2022-03-04T15:32:53Z</time><name>PT5935</name></trkpt>
<trkpt lat="52.046550" lon="05.768531"><ele>46.3</ele><time>2022-03-04T15:32:54Z</time><name>PT5936</name></trkpt>
<trkpt lat="52.046548" lon="05.768529"><ele>46.2</ele><time>2022-03-04T15:32:55Z</time><name>PT5937</name></trkpt>
<trkpt lat="52.046541" lon="05.768525"><ele>46.2</ele><time>2022-03-04T15:32:56Z</time><name>PT5938</name></trkpt>
<trkpt lat="52.046533" lon="05.768521"><ele>46.3</ele><time>2022-03-04T15:32:57Z</time><name>PT5939</name></trkpt>
<trkpt lat="52.046526" lon="05.768520"><ele>46.3</ele><time>2022-03-04T15:32:58Z</time><name>PT5940</name></trkpt>
<trkpt lat="52.046519" lon="05.768519"><ele>46.3</ele><time>2022-03-04T15:32:59Z</time><name>PT5941</name></trkpt>
<trkpt lat="52.046512" lon="05.768516"><ele>46.4</ele><time>2022-03-04T15:33:00Z</time><name>PT5942</name></trkpt>
<trkpt lat="52.046500" lon="05.768510"><ele>46.3</ele><time>2022-03-04T15:33:01Z</time><name>PT5943</name></trkpt>
<trkpt lat="52.046491" lon="05.768501"><ele>46.2</ele><time>2022-03-04T15:33:02Z</time><name>PT5944</name></trkpt>
<trkpt lat="52.046482" lon="05.768495"><ele>46.2</ele><time>2022-03-04T15:33:03Z</time><name>PT5945</name></trkpt>
<trkpt lat="52.046476" lon="05.768488"><ele>46</ele><time>2022-03-04T15:33:04Z</time><name>PT5946</name></trkpt>
<trkpt lat="52.046469" lon="05.768478"><ele>45.9</ele><time>2022-03-04T15:33:05Z</time><name>PT5947</name></trkpt>
<trkpt lat="52.046458" lon="05.768467"><ele>45.9</ele><time>2022-03-04T15:33:06Z</time><name>PT5948</name></trkpt>
<trkpt lat="52.046449" lon="05.768450"><ele>45.9</ele><time>2022-03-04T15:33:07Z</time><name>PT5949</name></trkpt>
<trkpt lat="52.046445" lon="05.768432"><ele>45.9</ele><time>2022-03-04T15:33:08Z</time><name>PT5950</name></trkpt>
<trkpt lat="52.046443" lon="05.768418"><ele>46</ele><time>2022-03-04T15:33:09Z</time><name>PT5951</name></trkpt>
<trkpt lat="52.046441" lon="05.768411"><ele>46.2</ele><time>2022-03-04T15:33:10Z</time><name>PT5952</name></trkpt>
<trkpt lat="52.046445" lon="05.768397"><ele>46.2</ele><time>2022-03-04T15:33:11Z</time><name>PT5953</name></trkpt>
<trkpt lat="52.046444" lon="05.768382"><ele>46.4</ele><time>2022-03-04T15:33:12Z</time><name>PT5954</name></trkpt>
<trkpt lat="52.046441" lon="05.768368"><ele>46.4</ele><time>2022-03-04T15:33:13Z</time><name>PT5955</name></trkpt>
<trkpt lat="52.046438" lon="05.768357"><ele>46.1</ele><time>2022-03-04T15:33:14Z</time><name>PT5956</name></trkpt>
<trkpt lat="52.046436" lon="05.768351"><ele>46.1</ele><time>2022-03-04T15:33:15Z</time><name>PT5957</name></trkpt>
<trkpt lat="52.046433" lon="05.768331"><ele>46.2</ele><time>2022-03-04T15:33:16Z</time><name>PT5958</name></trkpt>
<trkpt lat="52.046428" lon="05.768312"><ele>46.1</ele><time>2022-03-04T15:33:17Z</time><name>PT5959</name></trkpt>
<trkpt lat="52.046423" lon="05.768291"><ele>46</ele><time>2022-03-04T15:33:18Z</time><name>PT5960</name></trkpt>
<trkpt lat="52.046419" lon="05.768273"><ele>46.1</ele><time>2022-03-04T15:33:19Z</time><name>PT5961</name></trkpt>
<trkpt lat="52.046417" lon="05.768264"><ele>46.1</ele><time>2022-03-04T15:33:20Z</time><name>PT5962</name></trkpt>
<trkpt lat="52.046413" lon="05.768256"><ele>46.3</ele><time>2022-03-04T15:33:21Z</time><name>PT5963</name></trkpt>
<trkpt lat="52.046411" lon="05.768244"><ele>46.2</ele><time>2022-03-04T15:33:22Z</time><name>PT5964</name></trkpt>
<trkpt lat="52.046410" lon="05.768232"><ele>46.4</ele><time>2022-03-04T15:33:23Z</time><name>PT5965</name></trkpt>
<trkpt lat="52.046407" lon="05.768217"><ele>46.4</ele><time>2022-03-04T15:33:24Z</time><name>PT5966</name></trkpt>
<trkpt lat="52.046398" lon="05.768197"><ele>46.5</ele><time>2022-03-04T15:33:25Z</time><name>PT5967</name></trkpt>
<trkpt lat="52.046393" lon="05.768178"><ele>46.4</ele><time>2022-03-04T15:33:26Z</time><name>PT5968</name></trkpt>
<trkpt lat="52.046392" lon="05.768170"><ele>46.4</ele><time>2022-03-04T15:33:27Z</time><name>PT5969</name></trkpt>
<trkpt lat="52.046391" lon="05.768158"><ele>46.5</ele><time>2022-03-04T15:33:28Z</time><name>PT5970</name></trkpt>
<trkpt lat="52.046391" lon="05.768147"><ele>46.4</ele><time>2022-03-04T15:33:29Z</time><name>PT5971</name></trkpt>
<trkpt lat="52.046390" lon="05.768133"><ele>46.2</ele><time>2022-03-04T15:33:30Z</time><name>PT5972</name></trkpt>
<trkpt lat="52.046387" lon="05.768111"><ele>46.4</ele><time>2022-03-04T15:33:31Z</time><name>PT5973</name></trkpt>
<trkpt lat="52.046383" lon="05.768089"><ele>46.5</ele><time>2022-03-04T15:33:32Z</time><name>PT5974</name></trkpt>
<trkpt lat="52.046382" lon="05.768072"><ele>46.4</ele><time>2022-03-04T15:33:33Z</time><name>PT5975</name></trkpt>
<trkpt lat="52.046380" lon="05.768054"><ele>46.5</ele><time>2022-03-04T15:33:34Z</time><name>PT5976</name></trkpt>
<trkpt lat="52.046377" lon="05.768042"><ele>46.7</ele><time>2022-03-04T15:33:35Z</time><name>PT5977</name></trkpt>
<trkpt lat="52.046377" lon="05.768031"><ele>46.4</ele><time>2022-03-04T15:33:36Z</time><name>PT5978</name></trkpt>
<trkpt lat="52.046376" lon="05.768015"><ele>46.4</ele><time>2022-03-04T15:33:37Z</time><name>PT5979</name></trkpt>
<trkpt lat="52.046374" lon="05.767996"><ele>46.5</ele><time>2022-03-04T15:33:38Z</time><name>PT5980</name></trkpt>
<trkpt lat="52.046374" lon="05.767974"><ele>46.4</ele><time>2022-03-04T15:33:39Z</time><name>PT5981</name></trkpt>
<trkpt lat="52.046380" lon="05.767950"><ele>46.3</ele><time>2022-03-04T15:33:40Z</time><name>PT5982</name></trkpt>
<trkpt lat="52.046383" lon="05.767931"><ele>46.4</ele><time>2022-03-04T15:33:41Z</time><name>PT5983</name></trkpt>
<trkpt lat="52.046386" lon="05.767923"><ele>46.4</ele><time>2022-03-04T15:33:42Z</time><name>PT5984</name></trkpt>
<trkpt lat="52.046385" lon="05.767913"><ele>46.3</ele><time>2022-03-04T15:33:43Z</time><name>PT5985</name></trkpt>
<trkpt lat="52.046384" lon="05.767896"><ele>46.3</ele><time>2022-03-04T15:33:44Z</time><name>PT5986</name></trkpt>
<trkpt lat="52.046380" lon="05.767869"><ele>46.5</ele><time>2022-03-04T15:33:45Z</time><name>PT5987</name></trkpt>
<trkpt lat="52.046380" lon="05.767846"><ele>46.4</ele><time>2022-03-04T15:33:46Z</time><name>PT5988</name></trkpt>
<trkpt lat="52.046381" lon="05.767825"><ele>46.4</ele><time>2022-03-04T15:33:47Z</time><name>PT5989</name></trkpt>
<trkpt lat="52.046385" lon="05.767805"><ele>46.6</ele><time>2022-03-04T15:33:49Z</time><name>PT5990</name></trkpt>
<trkpt lat="52.046388" lon="05.767788"><ele>46.4</ele><time>2022-03-04T15:33:49Z</time><name>PT5991</name></trkpt>
<trkpt lat="52.046392" lon="05.767772"><ele>46.4</ele><time>2022-03-04T15:33:50Z</time><name>PT5992</name></trkpt>
<trkpt lat="52.046396" lon="05.767760"><ele>46.4</ele><time>2022-03-04T15:33:51Z</time><name>PT5993</name></trkpt>
<trkpt lat="52.046396" lon="05.767741"><ele>46.4</ele><time>2022-03-04T15:33:52Z</time><name>PT5994</name></trkpt>
<trkpt lat="52.046395" lon="05.767723"><ele>46.3</ele><time>2022-03-04T15:33:53Z</time><name>PT5995</name></trkpt>
<trkpt lat="52.046402" lon="05.767706"><ele>46.4</ele><time>2022-03-04T15:33:55Z</time><name>PT5996</name></trkpt>
<trkpt lat="52.046409" lon="05.767686"><ele>46.4</ele><time>2022-03-04T15:33:55Z</time><name>PT5997</name></trkpt>
<trkpt lat="52.046413" lon="05.767665"><ele>46.4</ele><time>2022-03-04T15:33:56Z</time><name>PT5998</name></trkpt>
<trkpt lat="52.046411" lon="05.767651"><ele>46.7</ele><time>2022-03-04T15:33:57Z</time><name>PT5999</name></trkpt>
<trkpt lat="52.046412" lon="05.767640"><ele>46.7</ele><time>2022-03-04T15:33:58Z</time><name>PT6000</name></trkpt>
<trkpt lat="52.046412" lon="05.767616"><ele>46.8</ele><time>2022-03-04T15:33:59Z</time><name>PT6001</name></trkpt>
<trkpt lat="52.046412" lon="05.767589"><ele>46.8</ele><time>2022-03-04T15:34:00Z</time><name>PT6002</name></trkpt>
<trkpt lat="52.046413" lon="05.767565"><ele>46.8</ele><time>2022-03-04T15:34:01Z</time><name>PT6003</name></trkpt>
<trkpt lat="52.046420" lon="05.767550"><ele>46.6</ele><time>2022-03-04T15:34:02Z</time><name>PT6004</name></trkpt>
<trkpt lat="52.046426" lon="05.767533"><ele>46.6</ele><time>2022-03-04T15:34:03Z</time><name>PT6005</name></trkpt>
<trkpt lat="52.046427" lon="05.767520"><ele>46.8</ele><time>2022-03-04T15:34:04Z</time><name>PT6006</name></trkpt>
<trkpt lat="52.046422" lon="05.767511"><ele>46.7</ele><time>2022-03-04T15:34:05Z</time><name>PT6007</name></trkpt>
<trkpt lat="52.046421" lon="05.767499"><ele>46.5</ele><time>2022-03-04T15:34:06Z</time><name>PT6008</name></trkpt>
<trkpt lat="52.046420" lon="05.767476"><ele>46.6</ele><time>2022-03-04T15:34:07Z</time><name>PT6009</name></trkpt>
<trkpt lat="52.046423" lon="05.767450"><ele>46.5</ele><time>2022-03-04T15:34:08Z</time><name>PT6010</name></trkpt>
<trkpt lat="52.046424" lon="05.767430"><ele>46.4</ele><time>2022-03-04T15:34:09Z</time><name>PT6011</name></trkpt>
<trkpt lat="52.046425" lon="05.767414"><ele>46.5</ele><time>2022-03-04T15:34:10Z</time><name>PT6012</name></trkpt>
<trkpt lat="52.046428" lon="05.767402"><ele>46.5</ele><time>2022-03-04T15:34:11Z</time><name>PT6013</name></trkpt>
<trkpt lat="52.046430" lon="05.767388"><ele>46.6</ele><time>2022-03-04T15:34:12Z</time><name>PT6014</name></trkpt>
<trkpt lat="52.046426" lon="05.767376"><ele>46.6</ele><time>2022-03-04T15:34:13Z</time><name>PT6015</name></trkpt>
<trkpt lat="52.046430" lon="05.767360"><ele>46.6</ele><time>2022-03-04T15:34:14Z</time><name>PT6016</name></trkpt>
<trkpt lat="52.046430" lon="05.767343"><ele>46.7</ele><time>2022-03-04T15:34:15Z</time><name>PT6017</name></trkpt>
<trkpt lat="52.046431" lon="05.767328"><ele>46.7</ele><time>2022-03-04T15:34:16Z</time><name>PT6018</name></trkpt>
<trkpt lat="52.046432" lon="05.767311"><ele>46.5</ele><time>2022-03-04T15:34:17Z</time><name>PT6019</name></trkpt>
<trkpt lat="52.046431" lon="05.767298"><ele>46.5</ele><time>2022-03-04T15:34:18Z</time><name>PT6020</name></trkpt>
<trkpt lat="52.046433" lon="05.767286"><ele>46.5</ele><time>2022-03-04T15:34:19Z</time><name>PT6021</name></trkpt>
<trkpt lat="52.046433" lon="05.767272"><ele>46.6</ele><time>2022-03-04T15:34:20Z</time><name>PT6022</name></trkpt>
<trkpt lat="52.046434" lon="05.767251"><ele>46.4</ele><time>2022-03-04T15:34:21Z</time><name>PT6023</name></trkpt>
<trkpt lat="52.046430" lon="05.767225"><ele>46.5</ele><time>2022-03-04T15:34:22Z</time><name>PT6024</name></trkpt>
<trkpt lat="52.046427" lon="05.767199"><ele>46.5</ele><time>2022-03-04T15:34:23Z</time><name>PT6025</name></trkpt>
<trkpt lat="52.046427" lon="05.767181"><ele>46.5</ele><time>2022-03-04T15:34:24Z</time><name>PT6026</name></trkpt>
<trkpt lat="52.046426" lon="05.767165"><ele>46.5</ele><time>2022-03-04T15:34:25Z</time><name>PT6027</name></trkpt>
<trkpt lat="52.046420" lon="05.767151"><ele>46.7</ele><time>2022-03-04T15:34:26Z</time><name>PT6028</name></trkpt>
<trkpt lat="52.046413" lon="05.767134"><ele>46.6</ele><time>2022-03-04T15:34:27Z</time><name>PT6029</name></trkpt>
<trkpt lat="52.046406" lon="05.767120"><ele>46.6</ele><time>2022-03-04T15:34:28Z</time><name>PT6030</name></trkpt>
<trkpt lat="52.046404" lon="05.767104"><ele>46.6</ele><time>2022-03-04T15:34:29Z</time><name>PT6031</name></trkpt>
<trkpt lat="52.046401" lon="05.767088"><ele>46.5</ele><time>2022-03-04T15:34:30Z</time><name>PT6032</name></trkpt>
<trkpt lat="52.046398" lon="05.767080"><ele>46.5</ele><time>2022-03-04T15:34:31Z</time><name>PT6033</name></trkpt>
<trkpt lat="52.046397" lon="05.767070"><ele>46.4</ele><time>2022-03-04T15:34:32Z</time><name>PT6034</name></trkpt>
<trkpt lat="52.046395" lon="05.767059"><ele>46.2</ele><time>2022-03-04T15:34:33Z</time><name>PT6035</name></trkpt>
<trkpt lat="52.046392" lon="05.767050"><ele>46.3</ele><time>2022-03-04T15:34:34Z</time><name>PT6036</name></trkpt>
<trkpt lat="52.046389" lon="05.767038"><ele>46.5</ele><time>2022-03-04T15:34:35Z</time><name>PT6037</name></trkpt>
<trkpt lat="52.046378" lon="05.767017"><ele>46.4</ele><time>2022-03-04T15:34:37Z</time><name>PT6038</name></trkpt>
<trkpt lat="52.046377" lon="05.767006"><ele>46.5</ele><time>2022-03-04T15:34:38Z</time><name>PT6039</name></trkpt>
<trkpt lat="52.046378" lon="05.766996"><ele>46.6</ele><time>2022-03-04T15:34:39Z</time><name>PT6040</name></trkpt>
<trkpt lat="52.046373" lon="05.766989"><ele>46.5</ele><time>2022-03-04T15:34:40Z</time><name>PT6041</name></trkpt>
<trkpt lat="52.046374" lon="05.766980"><ele>46.5</ele><time>2022-03-04T15:34:42Z</time><name>PT6042</name></trkpt>
<trkpt lat="52.046370" lon="05.766970"><ele>46.6</ele><time>2022-03-04T15:34:42Z</time><name>PT6043</name></trkpt>
<trkpt lat="52.046362" lon="05.766956"><ele>46.6</ele><time>2022-03-04T15:34:43Z</time><name>PT6044</name></trkpt>
<trkpt lat="52.046354" lon="05.766942"><ele>46.7</ele><time>2022-03-04T15:34:44Z</time><name>PT6045</name></trkpt>
<trkpt lat="52.046347" lon="05.766934"><ele>46.5</ele><time>2022-03-04T15:34:45Z</time><name>PT6046</name></trkpt>
<trkpt lat="52.046341" lon="05.766923"><ele>46.4</ele><time>2022-03-04T15:34:46Z</time><name>PT6047</name></trkpt>
<trkpt lat="52.046333" lon="05.766908"><ele>46.5</ele><time>2022-03-04T15:34:47Z</time><name>PT6048</name></trkpt>
<trkpt lat="52.046327" lon="05.766891"><ele>46.6</ele><time>2022-03-04T15:34:48Z</time><name>PT6049</name></trkpt>
<trkpt lat="52.046321" lon="05.766879"><ele>46.5</ele><time>2022-03-04T15:34:49Z</time><name>PT6050</name></trkpt>
<trkpt lat="52.046313" lon="05.766866"><ele>46.6</ele><time>2022-03-04T15:34:50Z</time><name>PT6051</name></trkpt>
<trkpt lat="52.046310" lon="05.766854"><ele>46.6</ele><time>2022-03-04T15:34:51Z</time><name>PT6052</name></trkpt>
<trkpt lat="52.046305" lon="05.766838"><ele>46.5</ele><time>2022-03-04T15:34:52Z</time><name>PT6053</name></trkpt>
<trkpt lat="52.046304" lon="05.766820"><ele>46.6</ele><time>2022-03-04T15:34:53Z</time><name>PT6054</name></trkpt>
<trkpt lat="52.046299" lon="05.766804"><ele>46.5</ele><time>2022-03-04T15:34:54Z</time><name>PT6055</name></trkpt>
<trkpt lat="52.046294" lon="05.766792"><ele>46.6</ele><time>2022-03-04T15:34:55Z</time><name>PT6056</name></trkpt>
<trkpt lat="52.046288" lon="05.766776"><ele>46.4</ele><time>2022-03-04T15:34:56Z</time><name>PT6057</name></trkpt>
<trkpt lat="52.046283" lon="05.766762"><ele>46.4</ele><time>2022-03-04T15:34:57Z</time><name>PT6058</name></trkpt>
<trkpt lat="52.046281" lon="05.766750"><ele>46.5</ele><time>2022-03-04T15:34:58Z</time><name>PT6059</name></trkpt>
<trkpt lat="52.046278" lon="05.766745"><ele>46.5</ele><time>2022-03-04T15:34:59Z</time><name>PT6060</name></trkpt>
<trkpt lat="52.046270" lon="05.766730"><ele>46.5</ele><time>2022-03-04T15:35:00Z</time><name>PT6061</name></trkpt>
<trkpt lat="52.046254" lon="05.766721"><ele>46.7</ele><time>2022-03-04T15:35:01Z</time><name>PT6062</name></trkpt>
<trkpt lat="52.046245" lon="05.766708"><ele>46.8</ele><time>2022-03-04T15:35:02Z</time><name>PT6063</name></trkpt>
<trkpt lat="52.046237" lon="05.766698"><ele>46.9</ele><time>2022-03-04T15:35:03Z</time><name>PT6064</name></trkpt>
<trkpt lat="52.046233" lon="05.766692"><ele>46.8</ele><time>2022-03-04T15:35:04Z</time><name>PT6065</name></trkpt>
<trkpt lat="52.046225" lon="05.766691"><ele>46.9</ele><time>2022-03-04T15:35:05Z</time><name>PT6066</name></trkpt>
<trkpt lat="52.046214" lon="05.766681"><ele>46.9</ele><time>2022-03-04T15:35:06Z</time><name>PT6067</name></trkpt>
<trkpt lat="52.046204" lon="05.766676"><ele>46.8</ele><time>2022-03-04T15:35:07Z</time><name>PT6068</name></trkpt>
<trkpt lat="52.046194" lon="05.766676"><ele>47</ele><time>2022-03-04T15:35:08Z</time><name>PT6069</name></trkpt>
<trkpt lat="52.046187" lon="05.766675"><ele>47.3</ele><time>2022-03-04T15:35:09Z</time><name>PT6070</name></trkpt>
<trkpt lat="52.046184" lon="05.766668"><ele>47.3</ele><time>2022-03-04T15:35:10Z</time><name>PT6071</name></trkpt>
<trkpt lat="52.046186" lon="05.766662"><ele>47.6</ele><time>2022-03-04T15:35:11Z</time><name>PT6072</name></trkpt>
<trkpt lat="52.046188" lon="05.766655"><ele>47.9</ele><time>2022-03-04T15:35:12Z</time><name>PT6073</name></trkpt>
<trkpt lat="52.046186" lon="05.766653"><ele>47.8</ele><time>2022-03-04T15:35:13Z</time><name>PT6074</name></trkpt>
<trkpt lat="52.046182" lon="05.766655"><ele>47.8</ele><time>2022-03-04T15:35:14Z</time><name>PT6075</name></trkpt>
<trkpt lat="52.046174" lon="05.766660"><ele>47.8</ele><time>2022-03-04T15:35:15Z</time><name>PT6076</name></trkpt>
<trkpt lat="52.046168" lon="05.766656"><ele>47.7</ele><time>2022-03-04T15:35:16Z</time><name>PT6077</name></trkpt>
<trkpt lat="52.046164" lon="05.766660"><ele>47.4</ele><time>2022-03-04T15:35:17Z</time><name>PT6078</name></trkpt>
<trkpt lat="52.046154" lon="05.766666"><ele>47.4</ele><time>2022-03-04T15:35:18Z</time><name>PT6079</name></trkpt>
<trkpt lat="52.046149" lon="05.766666"><ele>47.5</ele><time>2022-03-04T15:35:19Z</time><name>PT6080</name></trkpt>
<trkpt lat="52.046143" lon="05.766672"><ele>47.4</ele><time>2022-03-04T15:35:20Z</time><name>PT6081</name></trkpt>
<trkpt lat="52.046137" lon="05.766677"><ele>47.4</ele><time>2022-03-04T15:35:21Z</time><name>PT6082</name></trkpt>
<trkpt lat="52.046132" lon="05.766681"><ele>47.6</ele><time>2022-03-04T15:35:22Z</time><name>PT6083</name></trkpt>
<trkpt lat="52.046125" lon="05.766683"><ele>47.6</ele><time>2022-03-04T15:35:23Z</time><name>PT6084</name></trkpt>
<trkpt lat="52.046118" lon="05.766683"><ele>47.6</ele><time>2022-03-04T15:35:24Z</time><name>PT6085</name></trkpt>
<trkpt lat="52.046111" lon="05.766683"><ele>47.6</ele><time>2022-03-04T15:35:25Z</time><name>PT6086</name></trkpt>
<trkpt lat="52.046103" lon="05.766685"><ele>47.8</ele><time>2022-03-04T15:35:26Z</time><name>PT6087</name></trkpt>
<trkpt lat="52.046094" lon="05.766685"><ele>47.7</ele><time>2022-03-04T15:35:28Z</time><name>PT6088</name></trkpt>
<trkpt lat="52.046083" lon="05.766682"><ele>47.7</ele><time>2022-03-04T15:35:28Z</time><name>PT6089</name></trkpt>
<trkpt lat="52.046073" lon="05.766678"><ele>47.5</ele><time>2022-03-04T15:35:29Z</time><name>PT6090</name></trkpt>
<trkpt lat="52.046066" lon="05.766677"><ele>47.4</ele><time>2022-03-04T15:35:30Z</time><name>PT6091</name></trkpt>
<trkpt lat="52.046060" lon="05.766673"><ele>47.3</ele><time>2022-03-04T15:35:31Z</time><name>PT6092</name></trkpt>
<trkpt lat="52.046057" lon="05.766670"><ele>47.3</ele><time>2022-03-04T15:35:32Z</time><name>PT6093</name></trkpt>
<trkpt lat="52.046048" lon="05.766666"><ele>47.1</ele><time>2022-03-04T15:35:33Z</time><name>PT6094</name></trkpt>
<trkpt lat="52.046036" lon="05.766660"><ele>47</ele><time>2022-03-04T15:35:34Z</time><name>PT6095</name></trkpt>
<trkpt lat="52.046023" lon="05.766654"><ele>46.9</ele><time>2022-03-04T15:35:35Z</time><name>PT6096</name></trkpt>
<trkpt lat="52.046013" lon="05.766653"><ele>46.8</ele><time>2022-03-04T15:35:36Z</time><name>PT6097</name></trkpt>
<trkpt lat="52.046005" lon="05.766645"><ele>46.7</ele><time>2022-03-04T15:35:37Z</time><name>PT6098</name></trkpt>
<trkpt lat="52.045997" lon="05.766640"><ele>46.6</ele><time>2022-03-04T15:35:38Z</time><name>PT6099</name></trkpt>
<trkpt lat="52.045991" lon="05.766635"><ele>46.5</ele><time>2022-03-04T15:35:39Z</time><name>PT6100</name></trkpt>
<trkpt lat="52.045986" lon="05.766628"><ele>46.6</ele><time>2022-03-04T15:35:40Z</time><name>PT6101</name></trkpt>
<trkpt lat="52.045981" lon="05.766621"><ele>46.5</ele><time>2022-03-04T15:35:41Z</time><name>PT6102</name></trkpt>
<trkpt lat="52.045973" lon="05.766613"><ele>46.6</ele><time>2022-03-04T15:35:43Z</time><name>PT6103</name></trkpt>
<trkpt lat="52.045962" lon="05.766597"><ele>46.6</ele><time>2022-03-04T15:35:43Z</time><name>PT6104</name></trkpt>
<trkpt lat="52.045956" lon="05.766586"><ele>46.6</ele><time>2022-03-04T15:35:44Z</time><name>PT6105</name></trkpt>
<trkpt lat="52.045951" lon="05.766576"><ele>46.6</ele><time>2022-03-04T15:35:45Z</time><name>PT6106</name></trkpt>
<trkpt lat="52.045946" lon="05.766563"><ele>46.7</ele><time>2022-03-04T15:35:46Z</time><name>PT6107</name></trkpt>
<trkpt lat="52.045941" lon="05.766548"><ele>46.5</ele><time>2022-03-04T15:35:47Z</time><name>PT6108</name></trkpt>
<trkpt lat="52.045932" lon="05.766542"><ele>46.4</ele><time>2022-03-04T15:35:48Z</time><name>PT6109</name></trkpt>
<trkpt lat="52.045921" lon="05.766533"><ele>46.3</ele><time>2022-03-04T15:35:49Z</time><name>PT6110</name></trkpt>
<trkpt lat="52.045911" lon="05.766522"><ele>46.2</ele><time>2022-03-04T15:35:50Z</time><name>PT6111</name></trkpt>
<trkpt lat="52.045901" lon="05.766506"><ele>46.3</ele><time>2022-03-04T15:35:51Z</time><name>PT6112</name></trkpt>
<trkpt lat="52.045890" lon="05.766491"><ele>46.1</ele><time>2022-03-04T15:35:52Z</time><name>PT6113</name></trkpt>
<trkpt lat="52.045884" lon="05.766480"><ele>46.1</ele><time>2022-03-04T15:35:53Z</time><name>PT6114</name></trkpt>
<trkpt lat="52.045880" lon="05.766470"><ele>46</ele><time>2022-03-04T15:35:54Z</time><name>PT6115</name></trkpt>
<trkpt lat="52.045879" lon="05.766460"><ele>45.9</ele><time>2022-03-04T15:35:55Z</time><name>PT6116</name></trkpt>
<trkpt lat="52.045873" lon="05.766446"><ele>45.5</ele><time>2022-03-04T15:35:57Z</time><name>PT6117</name></trkpt>
<trkpt lat="52.045869" lon="05.766432"><ele>45.7</ele><time>2022-03-04T15:35:58Z</time><name>PT6118</name></trkpt>
<trkpt lat="52.045859" lon="05.766418"><ele>45.8</ele><time>2022-03-04T15:35:58Z</time><name>PT6119</name></trkpt>
<trkpt lat="52.045854" lon="05.766402"><ele>45.7</ele><time>2022-03-04T15:35:59Z</time><name>PT6120</name></trkpt>
<trkpt lat="52.045850" lon="05.766389"><ele>45.7</ele><time>2022-03-04T15:36:00Z</time><name>PT6121</name></trkpt>
<trkpt lat="52.045846" lon="05.766376"><ele>45.6</ele><time>2022-03-04T15:36:01Z</time><name>PT6122</name></trkpt>
<trkpt lat="52.045845" lon="05.766367"><ele>45.4</ele><time>2022-03-04T15:36:02Z</time><name>PT6123</name></trkpt>
<trkpt lat="52.045841" lon="05.766359"><ele>45.4</ele><time>2022-03-04T15:36:03Z</time><name>PT6124</name></trkpt>
<trkpt lat="52.045838" lon="05.766345"><ele>45.4</ele><time>2022-03-04T15:36:04Z</time><name>PT6125</name></trkpt>
<trkpt lat="52.045838" lon="05.766325"><ele>45.4</ele><time>2022-03-04T15:36:05Z</time><name>PT6126</name></trkpt>
<trkpt lat="52.045838" lon="05.766303"><ele>45.4</ele><time>2022-03-04T15:36:07Z</time><name>PT6127</name></trkpt>
<trkpt lat="52.045842" lon="05.766289"><ele>45.2</ele><time>2022-03-04T15:36:08Z</time><name>PT6128</name></trkpt>
<trkpt lat="52.045843" lon="05.766267"><ele>45</ele><time>2022-03-04T15:36:09Z</time><name>PT6129</name></trkpt>
<trkpt lat="52.045845" lon="05.766253"><ele>44.9</ele><time>2022-03-04T15:36:10Z</time><name>PT6130</name></trkpt>
<trkpt lat="52.045845" lon="05.766246"><ele>45</ele><time>2022-03-04T15:36:11Z</time><name>PT6131</name></trkpt>
<trkpt lat="52.045846" lon="05.766232"><ele>44.9</ele><time>2022-03-04T15:36:12Z</time><name>PT6132</name></trkpt>
<trkpt lat="52.045846" lon="05.766219"><ele>44.9</ele><time>2022-03-04T15:36:13Z</time><name>PT6133</name></trkpt>
<trkpt lat="52.045845" lon="05.766208"><ele>44.8</ele><time>2022-03-04T15:36:14Z</time><name>PT6134</name></trkpt>
<trkpt lat="52.045844" lon="05.766199"><ele>44.8</ele><time>2022-03-04T15:36:15Z</time><name>PT6135</name></trkpt>
<trkpt lat="52.045841" lon="05.766191"><ele>44.9</ele><time>2022-03-04T15:36:16Z</time><name>PT6136</name></trkpt>
<trkpt lat="52.045834" lon="05.766180"><ele>44.9</ele><time>2022-03-04T15:36:17Z</time><name>PT6137</name></trkpt>
<trkpt lat="52.045831" lon="05.766171"><ele>45</ele><time>2022-03-04T15:36:18Z</time><name>PT6138</name></trkpt>
<trkpt lat="52.045824" lon="05.766161"><ele>44.9</ele><time>2022-03-04T15:36:19Z</time><name>PT6139</name></trkpt>
<trkpt lat="52.045820" lon="05.766154"><ele>44.9</ele><time>2022-03-04T15:36:20Z</time><name>PT6140</name></trkpt>
<trkpt lat="52.045814" lon="05.766145"><ele>44.5</ele><time>2022-03-04T15:36:21Z</time><name>PT6141</name></trkpt>
<trkpt lat="52.045809" lon="05.766135"><ele>44.4</ele><time>2022-03-04T15:36:22Z</time><name>PT6142</name></trkpt>
<trkpt lat="52.045802" lon="05.766125"><ele>44.3</ele><time>2022-03-04T15:36:23Z</time><name>PT6143</name></trkpt>
<trkpt lat="52.045798" lon="05.766122"><ele>44</ele><time>2022-03-04T15:36:24Z</time><name>PT6144</name></trkpt>
<trkpt lat="52.045791" lon="05.766116"><ele>43.9</ele><time>2022-03-04T15:36:25Z</time><name>PT6145</name></trkpt>
<trkpt lat="52.045785" lon="05.766109"><ele>43.9</ele><time>2022-03-04T15:36:26Z</time><name>PT6146</name></trkpt>
<trkpt lat="52.045778" lon="05.766101"><ele>43.8</ele><time>2022-03-04T15:36:27Z</time><name>PT6147</name></trkpt>
<trkpt lat="52.045767" lon="05.766096"><ele>43.6</ele><time>2022-03-04T15:36:28Z</time><name>PT6148</name></trkpt>
<trkpt lat="52.045757" lon="05.766093"><ele>43.5</ele><time>2022-03-04T15:36:29Z</time><name>PT6149</name></trkpt>
<trkpt lat="52.045748" lon="05.766086"><ele>43.2</ele><time>2022-03-04T15:36:30Z</time><name>PT6150</name></trkpt>
<trkpt lat="52.045743" lon="05.766083"><ele>43.1</ele><time>2022-03-04T15:36:31Z</time><name>PT6151</name></trkpt>
<trkpt lat="52.045738" lon="05.766081"><ele>43</ele><time>2022-03-04T15:36:32Z</time><name>PT6152</name></trkpt>
<trkpt lat="52.045734" lon="05.766080"><ele>43.1</ele><time>2022-03-04T15:36:33Z</time><name>PT6153</name></trkpt>
<trkpt lat="52.045731" lon="05.766076"><ele>43.1</ele><time>2022-03-04T15:36:34Z</time><name>PT6154</name></trkpt>
<trkpt lat="52.045719" lon="05.766071"><ele>43</ele><time>2022-03-04T15:36:39Z</time><name>PT6155</name></trkpt>
<trkpt lat="52.045702" lon="05.766055"><ele>43</ele><time>2022-03-04T15:36:40Z</time><name>PT6156</name></trkpt>
<trkpt lat="52.045692" lon="05.766046"><ele>43</ele><time>2022-03-04T15:36:41Z</time><name>PT6157</name></trkpt>
<trkpt lat="52.045686" lon="05.766044"><ele>43.1</ele><time>2022-03-04T15:36:42Z</time><name>PT6158</name></trkpt>
<trkpt lat="52.045675" lon="05.766050"><ele>43</ele><time>2022-03-04T15:36:43Z</time><name>PT6159</name></trkpt>
<trkpt lat="52.045667" lon="05.766060"><ele>43</ele><time>2022-03-04T15:36:44Z</time><name>PT6160</name></trkpt>
<trkpt lat="52.045669" lon="05.766051"><ele>42.9</ele><time>2022-03-04T15:36:45Z</time><name>PT6161</name></trkpt>
<trkpt lat="52.045660" lon="05.766050"><ele>42.9</ele><time>2022-03-04T15:36:46Z</time><name>PT6162</name></trkpt>
<trkpt lat="52.045646" lon="05.766042"><ele>42.8</ele><time>2022-03-04T15:36:47Z</time><name>PT6163</name></trkpt>
<trkpt lat="52.045641" lon="05.766036"><ele>42.9</ele><time>2022-03-04T15:36:48Z</time><name>PT6164</name></trkpt>
<trkpt lat="52.045635" lon="05.766036"><ele>43</ele><time>2022-03-04T15:36:49Z</time><name>PT6165</name></trkpt>
<trkpt lat="52.045629" lon="05.766048"><ele>42.9</ele><time>2022-03-04T15:36:54Z</time><name>PT6166</name></trkpt>
<trkpt lat="52.045625" lon="05.766073"><ele>42.7</ele><time>2022-03-04T15:36:55Z</time><name>PT6167</name></trkpt>
<trkpt lat="52.045620" lon="05.766088"><ele>42.6</ele><time>2022-03-04T15:36:56Z</time><name>PT6168</name></trkpt>
<trkpt lat="52.045614" lon="05.766109"><ele>42.4</ele><time>2022-03-04T15:36:57Z</time><name>PT6169</name></trkpt>
<trkpt lat="52.045607" lon="05.766124"><ele>42.5</ele><time>2022-03-04T15:36:58Z</time><name>PT6170</name></trkpt>
<trkpt lat="52.045598" lon="05.766138"><ele>42.2</ele><time>2022-03-04T15:36:59Z</time><name>PT6171</name></trkpt>
<trkpt lat="52.045592" lon="05.766158"><ele>42.3</ele><time>2022-03-04T15:37:00Z</time><name>PT6172</name></trkpt>
<trkpt lat="52.045581" lon="05.766173"><ele>42.2</ele><time>2022-03-04T15:37:01Z</time><name>PT6173</name></trkpt>
<trkpt lat="52.045568" lon="05.766178"><ele>42.1</ele><time>2022-03-04T15:37:02Z</time><name>PT6174</name></trkpt>
<trkpt lat="52.045563" lon="05.766187"><ele>42.1</ele><time>2022-03-04T15:37:03Z</time><name>PT6175</name></trkpt>
<trkpt lat="52.045557" lon="05.766201"><ele>41.8</ele><time>2022-03-04T15:37:04Z</time><name>PT6176</name></trkpt>
<trkpt lat="52.045549" lon="05.766213"><ele>41.7</ele><time>2022-03-04T15:37:05Z</time><name>PT6177</name></trkpt>
<trkpt lat="52.045540" lon="05.766227"><ele>41.8</ele><time>2022-03-04T15:37:06Z</time><name>PT6178</name></trkpt>
<trkpt lat="52.045532" lon="05.766242"><ele>41.9</ele><time>2022-03-04T15:37:07Z</time><name>PT6179</name></trkpt>
<trkpt lat="52.045527" lon="05.766254"><ele>42</ele><time>2022-03-04T15:37:08Z</time><name>PT6180</name></trkpt>
<trkpt lat="52.045522" lon="05.766269"><ele>42</ele><time>2022-03-04T15:37:09Z</time><name>PT6181</name></trkpt>
<trkpt lat="52.045520" lon="05.766278"><ele>41.9</ele><time>2022-03-04T15:37:10Z</time><name>PT6182</name></trkpt>
<trkpt lat="52.045513" lon="05.766287"><ele>42</ele><time>2022-03-04T15:37:11Z</time><name>PT6183</name></trkpt>
<trkpt lat="52.045506" lon="05.766302"><ele>41.9</ele><time>2022-03-04T15:37:12Z</time><name>PT6184</name></trkpt>
<trkpt lat="52.045501" lon="05.766320"><ele>41.7</ele><time>2022-03-04T15:37:13Z</time><name>PT6185</name></trkpt>
<trkpt lat="52.045497" lon="05.766336"><ele>41.7</ele><time>2022-03-04T15:37:14Z</time><name>PT6186</name></trkpt>
<trkpt lat="52.045492" lon="05.766349"><ele>41.6</ele><time>2022-03-04T15:37:15Z</time><name>PT6187</name></trkpt>
<trkpt lat="52.045487" lon="05.766360"><ele>41.6</ele><time>2022-03-04T15:37:16Z</time><name>PT6188</name></trkpt>
<trkpt lat="52.045482" lon="05.766373"><ele>41.4</ele><time>2022-03-04T15:37:17Z</time><name>PT6189</name></trkpt>
<trkpt lat="52.045475" lon="05.766391"><ele>41.3</ele><time>2022-03-04T15:37:18Z</time><name>PT6190</name></trkpt>
<trkpt lat="52.045467" lon="05.766406"><ele>41.5</ele><time>2022-03-04T15:37:19Z</time><name>PT6191</name></trkpt>
<trkpt lat="52.045457" lon="05.766420"><ele>41.5</ele><time>2022-03-04T15:37:20Z</time><name>PT6192</name></trkpt>
<trkpt lat="52.045449" lon="05.766435"><ele>41.6</ele><time>2022-03-04T15:37:21Z</time><name>PT6193</name></trkpt>
<trkpt lat="52.045446" lon="05.766449"><ele>41.7</ele><time>2022-03-04T15:37:22Z</time><name>PT6194</name></trkpt>
<trkpt lat="52.045441" lon="05.766466"><ele>41.8</ele><time>2022-03-04T15:37:23Z</time><name>PT6195</name></trkpt>
<trkpt lat="52.045438" lon="05.766476"><ele>41.7</ele><time>2022-03-04T15:37:24Z</time><name>PT6196</name></trkpt>
<trkpt lat="52.045435" lon="05.766489"><ele>41.6</ele><time>2022-03-04T15:37:25Z</time><name>PT6197</name></trkpt>
<trkpt lat="52.045431" lon="05.766507"><ele>41.5</ele><time>2022-03-04T15:37:26Z</time><name>PT6198</name></trkpt>
<trkpt lat="52.045421" lon="05.766529"><ele>41.2</ele><time>2022-03-04T15:37:27Z</time><name>PT6199</name></trkpt>
<trkpt lat="52.045414" lon="05.766550"><ele>41.1</ele><time>2022-03-04T15:37:28Z</time><name>PT6200</name></trkpt>
<trkpt lat="52.045410" lon="05.766563"><ele>41.2</ele><time>2022-03-04T15:37:29Z</time><name>PT6201</name></trkpt>
<trkpt lat="52.045404" lon="05.766575"><ele>41.3</ele><time>2022-03-04T15:37:30Z</time><name>PT6202</name></trkpt>
<trkpt lat="52.045401" lon="05.766582"><ele>41.2</ele><time>2022-03-04T15:37:31Z</time><name>PT6203</name></trkpt>
<trkpt lat="52.045395" lon="05.766597"><ele>41.2</ele><time>2022-03-04T15:37:32Z</time><name>PT6204</name></trkpt>
<trkpt lat="52.045388" lon="05.766615"><ele>41.1</ele><time>2022-03-04T15:37:33Z</time><name>PT6205</name></trkpt>
<trkpt lat="52.045380" lon="05.766637"><ele>41.1</ele><time>2022-03-04T15:37:34Z</time><name>PT6206</name></trkpt>
<trkpt lat="52.045376" lon="05.766648"><ele>41.1</ele><time>2022-03-04T15:37:35Z</time><name>PT6207</name></trkpt>
<trkpt lat="52.045370" lon="05.766662"><ele>41.1</ele><time>2022-03-04T15:37:36Z</time><name>PT6208</name></trkpt>
<trkpt lat="52.045368" lon="05.766672"><ele>41.1</ele><time>2022-03-04T15:37:37Z</time><name>PT6209</name></trkpt>
<trkpt lat="52.045363" lon="05.766681"><ele>41.1</ele><time>2022-03-04T15:37:38Z</time><name>PT6210</name></trkpt>
<trkpt lat="52.045359" lon="05.766696"><ele>41.1</ele><time>2022-03-04T15:37:39Z</time><name>PT6211</name></trkpt>
<trkpt lat="52.045350" lon="05.766715"><ele>40.8</ele><time>2022-03-04T15:37:40Z</time><name>PT6212</name></trkpt>
<trkpt lat="52.045340" lon="05.766736"><ele>40.7</ele><time>2022-03-04T15:37:41Z</time><name>PT6213</name></trkpt>
<trkpt lat="52.045336" lon="05.766755"><ele>41</ele><time>2022-03-04T15:37:42Z</time><name>PT6214</name></trkpt>
<trkpt lat="52.045333" lon="05.766771"><ele>40.8</ele><time>2022-03-04T15:37:43Z</time><name>PT6215</name></trkpt>
<trkpt lat="52.045326" lon="05.766786"><ele>41.1</ele><time>2022-03-04T15:37:44Z</time><name>PT6216</name></trkpt>
<trkpt lat="52.045320" lon="05.766798"><ele>41.1</ele><time>2022-03-04T15:37:45Z</time><name>PT6217</name></trkpt>
<trkpt lat="52.045314" lon="05.766812"><ele>41.1</ele><time>2022-03-04T15:37:46Z</time><name>PT6218</name></trkpt>
<trkpt lat="52.045311" lon="05.766825"><ele>41</ele><time>2022-03-04T15:37:47Z</time><name>PT6219</name></trkpt>
<trkpt lat="52.045304" lon="05.766840"><ele>40.9</ele><time>2022-03-04T15:37:48Z</time><name>PT6220</name></trkpt>
<trkpt lat="52.045298" lon="05.766857"><ele>40.9</ele><time>2022-03-04T15:37:49Z</time><name>PT6221</name></trkpt>
<trkpt lat="52.045289" lon="05.766879"><ele>41.2</ele><time>2022-03-04T15:37:50Z</time><name>PT6222</name></trkpt>
<trkpt lat="52.045283" lon="05.766899"><ele>41.2</ele><time>2022-03-04T15:37:51Z</time><name>PT6223</name></trkpt>
<trkpt lat="52.045276" lon="05.766913"><ele>41.2</ele><time>2022-03-04T15:37:52Z</time><name>PT6224</name></trkpt>
<trkpt lat="52.045271" lon="05.766928"><ele>41.1</ele><time>2022-03-04T15:37:53Z</time><name>PT6225</name></trkpt>
<trkpt lat="52.045265" lon="05.766941"><ele>41</ele><time>2022-03-04T15:37:54Z</time><name>PT6226</name></trkpt>
<trkpt lat="52.045260" lon="05.766950"><ele>40.8</ele><time>2022-03-04T15:37:55Z</time><name>PT6227</name></trkpt>
<trkpt lat="52.045254" lon="05.766960"><ele>40.8</ele><time>2022-03-04T15:37:56Z</time><name>PT6228</name></trkpt>
<trkpt lat="52.045247" lon="05.766975"><ele>40.9</ele><time>2022-03-04T15:37:57Z</time><name>PT6229</name></trkpt>
<trkpt lat="52.045239" lon="05.766994"><ele>41</ele><time>2022-03-04T15:37:58Z</time><name>PT6230</name></trkpt>
<trkpt lat="52.045231" lon="05.767012"><ele>40.8</ele><time>2022-03-04T15:37:59Z</time><name>PT6231</name></trkpt>
<trkpt lat="52.045219" lon="05.767028"><ele>40.9</ele><time>2022-03-04T15:38:00Z</time><name>PT6232</name></trkpt>
<trkpt lat="52.045209" lon="05.767041"><ele>41</ele><time>2022-03-04T15:38:01Z</time><name>PT6233</name></trkpt>
<trkpt lat="52.045202" lon="05.767051"><ele>40.9</ele><time>2022-03-04T15:38:02Z</time><name>PT6234</name></trkpt>
<trkpt lat="52.045197" lon="05.767062"><ele>40.9</ele><time>2022-03-04T15:38:03Z</time><name>PT6235</name></trkpt>
<trkpt lat="52.045194" lon="05.767070"><ele>40.7</ele><time>2022-03-04T15:38:04Z</time><name>PT6236</name></trkpt>
<trkpt lat="52.045187" lon="05.767083"><ele>40.7</ele><time>2022-03-04T15:38:05Z</time><name>PT6237</name></trkpt>
<trkpt lat="52.045176" lon="05.767101"><ele>40.7</ele><time>2022-03-04T15:38:06Z</time><name>PT6238</name></trkpt>
<trkpt lat="52.045167" lon="05.767112"><ele>40.6</ele><time>2022-03-04T15:38:07Z</time><name>PT6239</name></trkpt>
<trkpt lat="52.045160" lon="05.767120"><ele>40.6</ele><time>2022-03-04T15:38:08Z</time><name>PT6240</name></trkpt>
<trkpt lat="52.045155" lon="05.767129"><ele>40.7</ele><time>2022-03-04T15:38:09Z</time><name>PT6241</name></trkpt>
<trkpt lat="52.045148" lon="05.767141"><ele>40.7</ele><time>2022-03-04T15:38:10Z</time><name>PT6242</name></trkpt>
<trkpt lat="52.045139" lon="05.767154"><ele>40.5</ele><time>2022-03-04T15:38:11Z</time><name>PT6243</name></trkpt>
<trkpt lat="52.045131" lon="05.767167"><ele>40.6</ele><time>2022-03-04T15:38:12Z</time><name>PT6244</name></trkpt>
<trkpt lat="52.045121" lon="05.767179"><ele>40.6</ele><time>2022-03-04T15:38:13Z</time><name>PT6245</name></trkpt>
<trkpt lat="52.045110" lon="05.767192"><ele>40.5</ele><time>2022-03-04T15:38:14Z</time><name>PT6246</name></trkpt>
<trkpt lat="52.045099" lon="05.767201"><ele>40.6</ele><time>2022-03-04T15:38:15Z</time><name>PT6247</name></trkpt>
<trkpt lat="52.045090" lon="05.767211"><ele>40.4</ele><time>2022-03-04T15:38:16Z</time><name>PT6248</name></trkpt>
<trkpt lat="52.045082" lon="05.767220"><ele>40.4</ele><time>2022-03-04T15:38:17Z</time><name>PT6249</name></trkpt>
<trkpt lat="52.045079" lon="05.767228"><ele>40.4</ele><time>2022-03-04T15:38:18Z</time><name>PT6250</name></trkpt>
<trkpt lat="52.045070" lon="05.767236"><ele>40.4</ele><time>2022-03-04T15:38:19Z</time><name>PT6251</name></trkpt>
<trkpt lat="52.045058" lon="05.767245"><ele>40.5</ele><time>2022-03-04T15:38:20Z</time><name>PT6252</name></trkpt>
<trkpt lat="52.045042" lon="05.767256"><ele>40.4</ele><time>2022-03-04T15:38:21Z</time><name>PT6253</name></trkpt>
<trkpt lat="52.045029" lon="05.767266"><ele>40.3</ele><time>2022-03-04T15:38:22Z</time><name>PT6254</name></trkpt>
<trkpt lat="52.045020" lon="05.767274"><ele>40.2</ele><time>2022-03-04T15:38:23Z</time><name>PT6255</name></trkpt>
<trkpt lat="52.045010" lon="05.767281"><ele>40.1</ele><time>2022-03-04T15:38:24Z</time><name>PT6256</name></trkpt>
<trkpt lat="52.045003" lon="05.767291"><ele>40.2</ele><time>2022-03-04T15:38:25Z</time><name>PT6257</name></trkpt>
<trkpt lat="52.045005" lon="05.767288"><ele>40.2</ele><time>2022-03-04T15:38:26Z</time><name>PT6258</name></trkpt>
<trkpt lat="52.044995" lon="05.767293"><ele>40.2</ele><time>2022-03-04T15:38:27Z</time><name>PT6259</name></trkpt>
<trkpt lat="52.044985" lon="05.767305"><ele>40.2</ele><time>2022-03-04T15:38:28Z</time><name>PT6260</name></trkpt>
<trkpt lat="52.044973" lon="05.767317"><ele>40.1</ele><time>2022-03-04T15:38:29Z</time><name>PT6261</name></trkpt>
<trkpt lat="52.044965" lon="05.767321"><ele>40</ele><time>2022-03-04T15:38:30Z</time><name>PT6262</name></trkpt>
<trkpt lat="52.044958" lon="05.767325"><ele>39.9</ele><time>2022-03-04T15:38:31Z</time><name>PT6263</name></trkpt>
<trkpt lat="52.044954" lon="05.767334"><ele>39.9</ele><time>2022-03-04T15:38:32Z</time><name>PT6264</name></trkpt>
<trkpt lat="52.044949" lon="05.767338"><ele>39.9</ele><time>2022-03-04T15:38:33Z</time><name>PT6265</name></trkpt>
<trkpt lat="52.044939" lon="05.767346"><ele>39.8</ele><time>2022-03-04T15:38:34Z</time><name>PT6266</name></trkpt>
<trkpt lat="52.044926" lon="05.767357"><ele>39.7</ele><time>2022-03-04T15:38:35Z</time><name>PT6267</name></trkpt>
<trkpt lat="52.044919" lon="05.767370"><ele>39.5</ele><time>2022-03-04T15:38:36Z</time><name>PT6268</name></trkpt>
<trkpt lat="52.044913" lon="05.767380"><ele>39.4</ele><time>2022-03-04T15:38:37Z</time><name>PT6269</name></trkpt>
<trkpt lat="52.044908" lon="05.767390"><ele>39.2</ele><time>2022-03-04T15:38:38Z</time><name>PT6270</name></trkpt>
<trkpt lat="52.044899" lon="05.767403"><ele>39.3</ele><time>2022-03-04T15:38:39Z</time><name>PT6271</name></trkpt>
<trkpt lat="52.044887" lon="05.767416"><ele>39.2</ele><time>2022-03-04T15:38:40Z</time><name>PT6272</name></trkpt>
<trkpt lat="52.044874" lon="05.767425"><ele>39.2</ele><time>2022-03-04T15:38:41Z</time><name>PT6273</name></trkpt>
<trkpt lat="52.044863" lon="05.767432"><ele>39.3</ele><time>2022-03-04T15:38:42Z</time><name>PT6274</name></trkpt>
<trkpt lat="52.044854" lon="05.767443"><ele>39.3</ele><time>2022-03-04T15:38:43Z</time><name>PT6275</name></trkpt>
<trkpt lat="52.044845" lon="05.767453"><ele>39.2</ele><time>2022-03-04T15:38:44Z</time><name>PT6276</name></trkpt>
<trkpt lat="52.044836" lon="05.767460"><ele>39.2</ele><time>2022-03-04T15:38:45Z</time><name>PT6277</name></trkpt>
<trkpt lat="52.044824" lon="05.767476"><ele>39.2</ele><time>2022-03-04T15:38:46Z</time><name>PT6278</name></trkpt>
<trkpt lat="52.044809" lon="05.767486"><ele>39.2</ele><time>2022-03-04T15:38:47Z</time><name>PT6279</name></trkpt>
<trkpt lat="52.044794" lon="05.767492"><ele>39.2</ele><time>2022-03-04T15:38:48Z</time><name>PT6280</name></trkpt>
<trkpt lat="52.044782" lon="05.767500"><ele>39.2</ele><time>2022-03-04T15:38:49Z</time><name>PT6281</name></trkpt>
<trkpt lat="52.044776" lon="05.767508"><ele>39.3</ele><time>2022-03-04T15:38:50Z</time><name>PT6282</name></trkpt>
<trkpt lat="52.044771" lon="05.767517"><ele>39.2</ele><time>2022-03-04T15:38:51Z</time><name>PT6283</name></trkpt>
<trkpt lat="52.044762" lon="05.767528"><ele>39.2</ele><time>2022-03-04T15:38:52Z</time><name>PT6284</name></trkpt>
<trkpt lat="52.044753" lon="05.767540"><ele>38.9</ele><time>2022-03-04T15:38:53Z</time><name>PT6285</name></trkpt>
<trkpt lat="52.044743" lon="05.767554"><ele>38.8</ele><time>2022-03-04T15:38:54Z</time><name>PT6286</name></trkpt>
<trkpt lat="52.044731" lon="05.767566"><ele>38.8</ele><time>2022-03-04T15:38:55Z</time><name>PT6287</name></trkpt>
<trkpt lat="52.044722" lon="05.767572"><ele>38.7</ele><time>2022-03-04T15:38:56Z</time><name>PT6288</name></trkpt>
<trkpt lat="52.044715" lon="05.767578"><ele>38.8</ele><time>2022-03-04T15:38:57Z</time><name>PT6289</name></trkpt>
<trkpt lat="52.044709" lon="05.767588"><ele>38.9</ele><time>2022-03-04T15:38:58Z</time><name>PT6290</name></trkpt>
<trkpt lat="52.044703" lon="05.767595"><ele>38.9</ele><time>2022-03-04T15:38:59Z</time><name>PT6291</name></trkpt>
<trkpt lat="52.044698" lon="05.767599"><ele>39.2</ele><time>2022-03-04T15:39:00Z</time><name>PT6292</name></trkpt>
<trkpt lat="52.044695" lon="05.767603"><ele>39.1</ele><time>2022-03-04T15:39:01Z</time><name>PT6293</name></trkpt>
<trkpt lat="52.044692" lon="05.767609"><ele>38.9</ele><time>2022-03-04T15:39:02Z</time><name>PT6294</name></trkpt>
<trkpt lat="52.044688" lon="05.767614"><ele>38.9</ele><time>2022-03-04T15:39:03Z</time><name>PT6295</name></trkpt>
<trkpt lat="52.044687" lon="05.767616"><ele>39</ele><time>2022-03-04T15:39:27Z</time><name>PT6296</name></trkpt>
<trkpt lat="52.044680" lon="05.767624"><ele>39</ele><time>2022-03-04T15:39:28Z</time><name>PT6297</name></trkpt>
<trkpt lat="52.044674" lon="05.767631"><ele>38.9</ele><time>2022-03-04T15:39:29Z</time><name>PT6298</name></trkpt>
<trkpt lat="52.044667" lon="05.767640"><ele>38.9</ele><time>2022-03-04T15:39:30Z</time><name>PT6299</name></trkpt>
<trkpt lat="52.044661" lon="05.767648"><ele>38.8</ele><time>2022-03-04T15:39:31Z</time><name>PT6300</name></trkpt>
<trkpt lat="52.044654" lon="05.767656"><ele>38.7</ele><time>2022-03-04T15:39:32Z</time><name>PT6301</name></trkpt>
<trkpt lat="52.044649" lon="05.767665"><ele>38.8</ele><time>2022-03-04T15:39:33Z</time><name>PT6302</name></trkpt>
<trkpt lat="52.044642" lon="05.767674"><ele>38.8</ele><time>2022-03-04T15:39:34Z</time><name>PT6303</name></trkpt>
<trkpt lat="52.044631" lon="05.767681"><ele>38.8</ele><time>2022-03-04T15:39:35Z</time><name>PT6304</name></trkpt>
<trkpt lat="52.044623" lon="05.767689"><ele>38.8</ele><time>2022-03-04T15:39:36Z</time><name>PT6305</name></trkpt>
<trkpt lat="52.044614" lon="05.767694"><ele>38.6</ele><time>2022-03-04T15:39:37Z</time><name>PT6306</name></trkpt>
<trkpt lat="52.044607" lon="05.767703"><ele>38.5</ele><time>2022-03-04T15:39:38Z</time><name>PT6307</name></trkpt>
<trkpt lat="52.044598" lon="05.767710"><ele>38.6</ele><time>2022-03-04T15:39:39Z</time><name>PT6308</name></trkpt>
<trkpt lat="52.044586" lon="05.767717"><ele>38.6</ele><time>2022-03-04T15:39:40Z</time><name>PT6309</name></trkpt>
<trkpt lat="52.044576" lon="05.767722"><ele>38.7</ele><time>2022-03-04T15:39:41Z</time><name>PT6310</name></trkpt>
<trkpt lat="52.044566" lon="05.767723"><ele>38.7</ele><time>2022-03-04T15:39:42Z</time><name>PT6311</name></trkpt>
<trkpt lat="52.044559" lon="05.767728"><ele>38.8</ele><time>2022-03-04T15:39:43Z</time><name>PT6312</name></trkpt>
<trkpt lat="52.044551" lon="05.767730"><ele>38.8</ele><time>2022-03-04T15:39:44Z</time><name>PT6313</name></trkpt>
<trkpt lat="52.044546" lon="05.767727"><ele>38.7</ele><time>2022-03-04T15:39:45Z</time><name>PT6314</name></trkpt>
<trkpt lat="52.044542" lon="05.767732"><ele>38.8</ele><time>2022-03-04T15:39:46Z</time><name>PT6315</name></trkpt>
<trkpt lat="52.044543" lon="05.767738"><ele>38.6</ele><time>2022-03-04T15:39:47Z</time><name>PT6316</name></trkpt>
<trkpt lat="52.044544" lon="05.767740"><ele>38.5</ele><time>2022-03-04T15:39:48Z</time><name>PT6317</name></trkpt>
<trkpt lat="52.044542" lon="05.767737"><ele>38.4</ele><time>2022-03-04T15:39:49Z</time><name>PT6318</name></trkpt>
<trkpt lat="52.044541" lon="05.767740"><ele>38.8</ele><time>2022-03-04T15:39:52Z</time><name>PT6319</name></trkpt>
<trkpt lat="52.044536" lon="05.767747"><ele>38.8</ele><time>2022-03-04T15:39:53Z</time><name>PT6320</name></trkpt>
<trkpt lat="52.044528" lon="05.767754"><ele>38.7</ele><time>2022-03-04T15:39:54Z</time><name>PT6321</name></trkpt>
<trkpt lat="52.044527" lon="05.767754"><ele>38.6</ele><time>2022-03-04T15:39:55Z</time><name>PT6322</name></trkpt>
<trkpt lat="52.044528" lon="05.767753"><ele>38.6</ele><time>2022-03-04T15:39:56Z</time><name>PT6323</name></trkpt>
<trkpt lat="52.044528" lon="05.767751"><ele>38.4</ele><time>2022-03-04T15:39:57Z</time><name>PT6324</name></trkpt>
<trkpt lat="52.044529" lon="05.767748"><ele>38.3</ele><time>2022-03-04T15:39:58Z</time><name>PT6325</name></trkpt>
<trkpt lat="52.044520" lon="05.767744"><ele>38.3</ele><time>2022-03-04T15:40:03Z</time><name>PT6326</name></trkpt>
<trkpt lat="52.044505" lon="05.767734"><ele>38.2</ele><time>2022-03-04T15:40:04Z</time><name>PT6327</name></trkpt>
<trkpt lat="52.044491" lon="05.767728"><ele>38.3</ele><time>2022-03-04T15:40:05Z</time><name>PT6328</name></trkpt>
<trkpt lat="52.044479" lon="05.767732"><ele>38.3</ele><time>2022-03-04T15:40:06Z</time><name>PT6329</name></trkpt>
<trkpt lat="52.044469" lon="05.767734"><ele>38.4</ele><time>2022-03-04T15:40:07Z</time><name>PT6330</name></trkpt>
<trkpt lat="52.044460" lon="05.767738"><ele>38.3</ele><time>2022-03-04T15:40:08Z</time><name>PT6331</name></trkpt>
<trkpt lat="52.044453" lon="05.767732"><ele>38.3</ele><time>2022-03-04T15:40:09Z</time><name>PT6332</name></trkpt>
<trkpt lat="52.044444" lon="05.767743"><ele>38.3</ele><time>2022-03-04T15:40:10Z</time><name>PT6333</name></trkpt>
<trkpt lat="52.044431" lon="05.767758"><ele>38.3</ele><time>2022-03-04T15:40:11Z</time><name>PT6334</name></trkpt>
<trkpt lat="52.044416" lon="05.767771"><ele>38.5</ele><time>2022-03-04T15:40:12Z</time><name>PT6335</name></trkpt>
<trkpt lat="52.044402" lon="05.767781"><ele>38.3</ele><time>2022-03-04T15:40:13Z</time><name>PT6336</name></trkpt>
<trkpt lat="52.044391" lon="05.767787"><ele>38.3</ele><time>2022-03-04T15:40:14Z</time><name>PT6337</name></trkpt>
<trkpt lat="52.044382" lon="05.767790"><ele>38.3</ele><time>2022-03-04T15:40:15Z</time><name>PT6338</name></trkpt>
<trkpt lat="52.044372" lon="05.767798"><ele>38.1</ele><time>2022-03-04T15:40:16Z</time><name>PT6339</name></trkpt>
<trkpt lat="52.044366" lon="05.767804"><ele>38.1</ele><time>2022-03-04T15:40:17Z</time><name>PT6340</name></trkpt>
<trkpt lat="52.044358" lon="05.767807"><ele>38.2</ele><time>2022-03-04T15:40:18Z</time><name>PT6341</name></trkpt>
<trkpt lat="52.044347" lon="05.767807"><ele>38.1</ele><time>2022-03-04T15:40:19Z</time><name>PT6342</name></trkpt>
<trkpt lat="52.044334" lon="05.767809"><ele>38.3</ele><time>2022-03-04T15:40:20Z</time><name>PT6343</name></trkpt>
<trkpt lat="52.044323" lon="05.767813"><ele>38.5</ele><time>2022-03-04T15:40:21Z</time><name>PT6344</name></trkpt>
<trkpt lat="52.044315" lon="05.767816"><ele>38.6</ele><time>2022-03-04T15:40:22Z</time><name>PT6345</name></trkpt>
<trkpt lat="52.044307" lon="05.767820"><ele>38.3</ele><time>2022-03-04T15:40:23Z</time><name>PT6346</name></trkpt>
<trkpt lat="52.044300" lon="05.767828"><ele>38.3</ele><time>2022-03-04T15:40:24Z</time><name>PT6347</name></trkpt>
<trkpt lat="52.044292" lon="05.767835"><ele>38.2</ele><time>2022-03-04T15:40:25Z</time><name>PT6348</name></trkpt>
<trkpt lat="52.044281" lon="05.767847"><ele>38.1</ele><time>2022-03-04T15:40:26Z</time><name>PT6349</name></trkpt>
<trkpt lat="52.044273" lon="05.767851"><ele>38.2</ele><time>2022-03-04T15:40:27Z</time><name>PT6350</name></trkpt>
<trkpt lat="52.044259" lon="05.767863"><ele>38.4</ele><time>2022-03-04T15:40:28Z</time><name>PT6351</name></trkpt>
<trkpt lat="52.044248" lon="05.767871"><ele>38.3</ele><time>2022-03-04T15:40:29Z</time><name>PT6352</name></trkpt>
<trkpt lat="52.044238" lon="05.767870"><ele>38.3</ele><time>2022-03-04T15:40:30Z</time><name>PT6353</name></trkpt>
<trkpt lat="52.044229" lon="05.767874"><ele>38.3</ele><time>2022-03-04T15:40:31Z</time><name>PT6354</name></trkpt>
<trkpt lat="52.044218" lon="05.767880"><ele>38.3</ele><time>2022-03-04T15:40:32Z</time><name>PT6355</name></trkpt>
<trkpt lat="52.044210" lon="05.767883"><ele>38.3</ele><time>2022-03-04T15:40:33Z</time><name>PT6356</name></trkpt>
<trkpt lat="52.044204" lon="05.767886"><ele>38.3</ele><time>2022-03-04T15:40:34Z</time><name>PT6357</name></trkpt>
<trkpt lat="52.044193" lon="05.767894"><ele>38.3</ele><time>2022-03-04T15:40:35Z</time><name>PT6358</name></trkpt>
<trkpt lat="52.044184" lon="05.767900"><ele>38</ele><time>2022-03-04T15:40:36Z</time><name>PT6359</name></trkpt>
<trkpt lat="52.044177" lon="05.767905"><ele>37.8</ele><time>2022-03-04T15:40:37Z</time><name>PT6360</name></trkpt>
<trkpt lat="52.044171" lon="05.767911"><ele>37.7</ele><time>2022-03-04T15:40:38Z</time><name>PT6361</name></trkpt>
<trkpt lat="52.044166" lon="05.767917"><ele>37.7</ele><time>2022-03-04T15:40:39Z</time><name>PT6362</name></trkpt>
<trkpt lat="52.044154" lon="05.767931"><ele>37.7</ele><time>2022-03-04T15:40:40Z</time><name>PT6363</name></trkpt>
<trkpt lat="52.044142" lon="05.767941"><ele>37.8</ele><time>2022-03-04T15:40:41Z</time><name>PT6364</name></trkpt>
<trkpt lat="52.044131" lon="05.767949"><ele>37.9</ele><time>2022-03-04T15:40:42Z</time><name>PT6365</name></trkpt>
<trkpt lat="52.044122" lon="05.767957"><ele>37.8</ele><time>2022-03-04T15:40:43Z</time><name>PT6366</name></trkpt>
<trkpt lat="52.044111" lon="05.767965"><ele>37.7</ele><time>2022-03-04T15:40:44Z</time><name>PT6367</name></trkpt>
<trkpt lat="52.044102" lon="05.767972"><ele>37.7</ele><time>2022-03-04T15:40:45Z</time><name>PT6368</name></trkpt>
<trkpt lat="52.044097" lon="05.767973"><ele>37.7</ele><time>2022-03-04T15:40:46Z</time><name>PT6369</name></trkpt>
<trkpt lat="52.044090" lon="05.767976"><ele>37.6</ele><time>2022-03-04T15:40:47Z</time><name>PT6370</name></trkpt>
<trkpt lat="52.044082" lon="05.767984"><ele>37.7</ele><time>2022-03-04T15:40:48Z</time><name>PT6371</name></trkpt>
<trkpt lat="52.044075" lon="05.767989"><ele>37.8</ele><time>2022-03-04T15:40:49Z</time><name>PT6372</name></trkpt>
<trkpt lat="52.044062" lon="05.767996"><ele>37.9</ele><time>2022-03-04T15:40:50Z</time><name>PT6373</name></trkpt>
<trkpt lat="52.044046" lon="05.767999"><ele>37.8</ele><time>2022-03-04T15:40:51Z</time><name>PT6374</name></trkpt>
<trkpt lat="52.044027" lon="05.768005"><ele>37.8</ele><time>2022-03-04T15:40:52Z</time><name>PT6375</name></trkpt>
<trkpt lat="52.044013" lon="05.768010"><ele>37.9</ele><time>2022-03-04T15:40:53Z</time><name>PT6376</name></trkpt>
<trkpt lat="52.044003" lon="05.768014"><ele>37.8</ele><time>2022-03-04T15:40:54Z</time><name>PT6377</name></trkpt>
<trkpt lat="52.043997" lon="05.768021"><ele>37.9</ele><time>2022-03-04T15:40:55Z</time><name>PT6378</name></trkpt>
<trkpt lat="52.043990" lon="05.768030"><ele>38.1</ele><time>2022-03-04T15:40:56Z</time><name>PT6379</name></trkpt>
<trkpt lat="52.043983" lon="05.768038"><ele>38</ele><time>2022-03-04T15:40:57Z</time><name>PT6380</name></trkpt>
<trkpt lat="52.043975" lon="05.768047"><ele>38</ele><time>2022-03-04T15:40:58Z</time><name>PT6381</name></trkpt>
<trkpt lat="52.043967" lon="05.768055"><ele>38.1</ele><time>2022-03-04T15:40:59Z</time><name>PT6382</name></trkpt>
<trkpt lat="52.043954" lon="05.768064"><ele>37.8</ele><time>2022-03-04T15:41:00Z</time><name>PT6383</name></trkpt>
<trkpt lat="52.043942" lon="05.768068"><ele>37.7</ele><time>2022-03-04T15:41:01Z</time><name>PT6384</name></trkpt>
<trkpt lat="52.043927" lon="05.768076"><ele>37.7</ele><time>2022-03-04T15:41:02Z</time><name>PT6385</name></trkpt>
<trkpt lat="52.043918" lon="05.768086"><ele>37.6</ele><time>2022-03-04T15:41:03Z</time><name>PT6386</name></trkpt>
<trkpt lat="52.043908" lon="05.768092"><ele>37.6</ele><time>2022-03-04T15:41:04Z</time><name>PT6387</name></trkpt>
<trkpt lat="52.043901" lon="05.768099"><ele>37.5</ele><time>2022-03-04T15:41:05Z</time><name>PT6388</name></trkpt>
<trkpt lat="52.043891" lon="05.768112"><ele>37.4</ele><time>2022-03-04T15:41:06Z</time><name>PT6389</name></trkpt>
<trkpt lat="52.043882" lon="05.768130"><ele>37.5</ele><time>2022-03-04T15:41:07Z</time><name>PT6390</name></trkpt>
<trkpt lat="52.043868" lon="05.768141"><ele>37.7</ele><time>2022-03-04T15:41:08Z</time><name>PT6391</name></trkpt>
<trkpt lat="52.043855" lon="05.768148"><ele>37.7</ele><time>2022-03-04T15:41:09Z</time><name>PT6392</name></trkpt>
<trkpt lat="52.043843" lon="05.768156"><ele>37.7</ele><time>2022-03-04T15:41:10Z</time><name>PT6393</name></trkpt>
<trkpt lat="52.043834" lon="05.768161"><ele>37.8</ele><time>2022-03-04T15:41:11Z</time><name>PT6394</name></trkpt>
<trkpt lat="52.043828" lon="05.768166"><ele>37.6</ele><time>2022-03-04T15:41:12Z</time><name>PT6395</name></trkpt>
<trkpt lat="52.043814" lon="05.768168"><ele>37.6</ele><time>2022-03-04T15:41:13Z</time><name>PT6396</name></trkpt>
<trkpt lat="52.043802" lon="05.768170"><ele>37.6</ele><time>2022-03-04T15:41:14Z</time><name>PT6397</name></trkpt>
<trkpt lat="52.043786" lon="05.768178"><ele>37.6</ele><time>2022-03-04T15:41:15Z</time><name>PT6398</name></trkpt>
<trkpt lat="52.043773" lon="05.768182"><ele>37.6</ele><time>2022-03-04T15:41:16Z</time><name>PT6399</name></trkpt>
<trkpt lat="52.043757" lon="05.768181"><ele>37.7</ele><time>2022-03-04T15:41:17Z</time><name>PT6400</name></trkpt>
<trkpt lat="52.043741" lon="05.768185"><ele>37.8</ele><time>2022-03-04T15:41:18Z</time><name>PT6401</name></trkpt>
<trkpt lat="52.043730" lon="05.768188"><ele>37.8</ele><time>2022-03-04T15:41:19Z</time><name>PT6402</name></trkpt>
<trkpt lat="52.043723" lon="05.768191"><ele>37.7</ele><time>2022-03-04T15:41:20Z</time><name>PT6403</name></trkpt>
<trkpt lat="52.043714" lon="05.768196"><ele>37.8</ele><time>2022-03-04T15:41:21Z</time><name>PT6404</name></trkpt>
<trkpt lat="52.043704" lon="05.768199"><ele>37.8</ele><time>2022-03-04T15:41:22Z</time><name>PT6405</name></trkpt>
<trkpt lat="52.043691" lon="05.768213"><ele>37.8</ele><time>2022-03-04T15:41:23Z</time><name>PT6406</name></trkpt>
<trkpt lat="52.043676" lon="05.768227"><ele>37.8</ele><time>2022-03-04T15:41:24Z</time><name>PT6407</name></trkpt>
<trkpt lat="52.043662" lon="05.768237"><ele>37.8</ele><time>2022-03-04T15:41:25Z</time><name>PT6408</name></trkpt>
<trkpt lat="52.043650" lon="05.768242"><ele>37.9</ele><time>2022-03-04T15:41:26Z</time><name>PT6409</name></trkpt>
<trkpt lat="52.043638" lon="05.768245"><ele>37.9</ele><time>2022-03-04T15:41:27Z</time><name>PT6410</name></trkpt>
<trkpt lat="52.043628" lon="05.768250"><ele>37.9</ele><time>2022-03-04T15:41:28Z</time><name>PT6411</name></trkpt>
<trkpt lat="52.043621" lon="05.768256"><ele>37.9</ele><time>2022-03-04T15:41:29Z</time><name>PT6412</name></trkpt>
<trkpt lat="52.043611" lon="05.768265"><ele>37.8</ele><time>2022-03-04T15:41:30Z</time><name>PT6413</name></trkpt>
<trkpt lat="52.043600" lon="05.768271"><ele>37.6</ele><time>2022-03-04T15:41:31Z</time><name>PT6414</name></trkpt>
<trkpt lat="52.043586" lon="05.768281"><ele>37.5</ele><time>2022-03-04T15:41:32Z</time><name>PT6415</name></trkpt>
<trkpt lat="52.043575" lon="05.768290"><ele>37.4</ele><time>2022-03-04T15:41:34Z</time><name>PT6416</name></trkpt>
<trkpt lat="52.043567" lon="05.768301"><ele>37.3</ele><time>2022-03-04T15:41:34Z</time><name>PT6417</name></trkpt>
<trkpt lat="52.043559" lon="05.768311"><ele>37.5</ele><time>2022-03-04T15:41:35Z</time><name>PT6418</name></trkpt>
<trkpt lat="52.043551" lon="05.768317"><ele>37.8</ele><time>2022-03-04T15:41:36Z</time><name>PT6419</name></trkpt>
<trkpt lat="52.043543" lon="05.768323"><ele>37.7</ele><time>2022-03-04T15:41:37Z</time><name>PT6420</name></trkpt>
<trkpt lat="52.043533" lon="05.768325"><ele>37.8</ele><time>2022-03-04T15:41:38Z</time><name>PT6421</name></trkpt>
<trkpt lat="52.043523" lon="05.768333"><ele>37.9</ele><time>2022-03-04T15:41:39Z</time><name>PT6422</name></trkpt>
<trkpt lat="52.043515" lon="05.768342"><ele>37.8</ele><time>2022-03-04T15:41:40Z</time><name>PT6423</name></trkpt>
<trkpt lat="52.043507" lon="05.768343"><ele>37.8</ele><time>2022-03-04T15:41:41Z</time><name>PT6424</name></trkpt>
<trkpt lat="52.043498" lon="05.768345"><ele>37.8</ele><time>2022-03-04T15:41:42Z</time><name>PT6425</name></trkpt>
<trkpt lat="52.043487" lon="05.768347"><ele>37.8</ele><time>2022-03-04T15:41:43Z</time><name>PT6426</name></trkpt>
<trkpt lat="52.043476" lon="05.768353"><ele>37.8</ele><time>2022-03-04T15:41:44Z</time><name>PT6427</name></trkpt>
<trkpt lat="52.043463" lon="05.768357"><ele>37.8</ele><time>2022-03-04T15:41:45Z</time><name>PT6428</name></trkpt>
<trkpt lat="52.043453" lon="05.768363"><ele>37.8</ele><time>2022-03-04T15:41:46Z</time><name>PT6429</name></trkpt>
<trkpt lat="52.043443" lon="05.768372"><ele>38</ele><time>2022-03-04T15:41:47Z</time><name>PT6430</name></trkpt>
<trkpt lat="52.043431" lon="05.768378"><ele>38</ele><time>2022-03-04T15:41:48Z</time><name>PT6431</name></trkpt>
<trkpt lat="52.043419" lon="05.768386"><ele>38.1</ele><time>2022-03-04T15:41:49Z</time><name>PT6432</name></trkpt>
<trkpt lat="52.043408" lon="05.768397"><ele>38.1</ele><time>2022-03-04T15:41:50Z</time><name>PT6433</name></trkpt>
<trkpt lat="52.043398" lon="05.768407"><ele>37.9</ele><time>2022-03-04T15:41:51Z</time><name>PT6434</name></trkpt>
<trkpt lat="52.043387" lon="05.768410"><ele>37.9</ele><time>2022-03-04T15:41:52Z</time><name>PT6435</name></trkpt>
<trkpt lat="52.043375" lon="05.768416"><ele>37.8</ele><time>2022-03-04T15:41:53Z</time><name>PT6436</name></trkpt>
<trkpt lat="52.043361" lon="05.768425"><ele>37.7</ele><time>2022-03-04T15:41:54Z</time><name>PT6437</name></trkpt>
<trkpt lat="52.043349" lon="05.768435"><ele>37.7</ele><time>2022-03-04T15:41:55Z</time><name>PT6438</name></trkpt>
<trkpt lat="52.043342" lon="05.768448"><ele>37.8</ele><time>2022-03-04T15:41:56Z</time><name>PT6439</name></trkpt>
<trkpt lat="52.043331" lon="05.768457"><ele>37.8</ele><time>2022-03-04T15:41:57Z</time><name>PT6440</name></trkpt>
<trkpt lat="52.043323" lon="05.768462"><ele>37.8</ele><time>2022-03-04T15:41:58Z</time><name>PT6441</name></trkpt>
<trkpt lat="52.043315" lon="05.768466"><ele>37.8</ele><time>2022-03-04T15:41:59Z</time><name>PT6442</name></trkpt>
<trkpt lat="52.043308" lon="05.768470"><ele>37.8</ele><time>2022-03-04T15:42:00Z</time><name>PT6443</name></trkpt>
<trkpt lat="52.043301" lon="05.768476"><ele>37.7</ele><time>2022-03-04T15:42:01Z</time><name>PT6444</name></trkpt>
<trkpt lat="52.043289" lon="05.768484"><ele>37.6</ele><time>2022-03-04T15:42:02Z</time><name>PT6445</name></trkpt>
<trkpt lat="52.043272" lon="05.768491"><ele>37.8</ele><time>2022-03-04T15:42:03Z</time><name>PT6446</name></trkpt>
<trkpt lat="52.043261" lon="05.768501"><ele>37.6</ele><time>2022-03-04T15:42:04Z</time><name>PT6447</name></trkpt>
<trkpt lat="52.043254" lon="05.768507"><ele>37.7</ele><time>2022-03-04T15:42:05Z</time><name>PT6448</name></trkpt>
<trkpt lat="52.043246" lon="05.768513"><ele>37.6</ele><time>2022-03-04T15:42:06Z</time><name>PT6449</name></trkpt>
<trkpt lat="52.043240" lon="05.768520"><ele>37.5</ele><time>2022-03-04T15:42:07Z</time><name>PT6450</name></trkpt>
<trkpt lat="52.043232" lon="05.768527"><ele>37.3</ele><time>2022-03-04T15:42:08Z</time><name>PT6451</name></trkpt>
<trkpt lat="52.043217" lon="05.768530"><ele>37.3</ele><time>2022-03-04T15:42:09Z</time><name>PT6452</name></trkpt>
<trkpt lat="52.043205" lon="05.768532"><ele>37.3</ele><time>2022-03-04T15:42:10Z</time><name>PT6453</name></trkpt>
<trkpt lat="52.043188" lon="05.768540"><ele>37.5</ele><time>2022-03-04T15:42:11Z</time><name>PT6454</name></trkpt>
<trkpt lat="52.043171" lon="05.768545"><ele>37.5</ele><time>2022-03-04T15:42:12Z</time><name>PT6455</name></trkpt>
<trkpt lat="52.043158" lon="05.768552"><ele>37.5</ele><time>2022-03-04T15:42:13Z</time><name>PT6456</name></trkpt>
<trkpt lat="52.043146" lon="05.768558"><ele>37.4</ele><time>2022-03-04T15:42:14Z</time><name>PT6457</name></trkpt>
<trkpt lat="52.043137" lon="05.768562"><ele>37.3</ele><time>2022-03-04T15:42:15Z</time><name>PT6458</name></trkpt>
<trkpt lat="52.043128" lon="05.768567"><ele>37.3</ele><time>2022-03-04T15:42:16Z</time><name>PT6459</name></trkpt>
<trkpt lat="52.043118" lon="05.768574"><ele>37.4</ele><time>2022-03-04T15:42:17Z</time><name>PT6460</name></trkpt>
<trkpt lat="52.043110" lon="05.768581"><ele>37.4</ele><time>2022-03-04T15:42:18Z</time><name>PT6461</name></trkpt>
<trkpt lat="52.043099" lon="05.768588"><ele>37.5</ele><time>2022-03-04T15:42:19Z</time><name>PT6462</name></trkpt>
<trkpt lat="52.043087" lon="05.768590"><ele>37.5</ele><time>2022-03-04T15:42:20Z</time><name>PT6463</name></trkpt>
<trkpt lat="52.043074" lon="05.768590"><ele>37.5</ele><time>2022-03-04T15:42:21Z</time><name>PT6464</name></trkpt>
<trkpt lat="52.043061" lon="05.768593"><ele>37.5</ele><time>2022-03-04T15:42:22Z</time><name>PT6465</name></trkpt>
<trkpt lat="52.043052" lon="05.768596"><ele>37.4</ele><time>2022-03-04T15:42:23Z</time><name>PT6466</name></trkpt>
<trkpt lat="52.043044" lon="05.768601"><ele>37.5</ele><time>2022-03-04T15:42:24Z</time><name>PT6467</name></trkpt>
<trkpt lat="52.043039" lon="05.768609"><ele>37.7</ele><time>2022-03-04T15:42:25Z</time><name>PT6468</name></trkpt>
<trkpt lat="52.043028" lon="05.768614"><ele>37.5</ele><time>2022-03-04T15:42:26Z</time><name>PT6469</name></trkpt>
<trkpt lat="52.043012" lon="05.768621"><ele>37.5</ele><time>2022-03-04T15:42:27Z</time><name>PT6470</name></trkpt>
<trkpt lat="52.042997" lon="05.768627"><ele>37.5</ele><time>2022-03-04T15:42:28Z</time><name>PT6471</name></trkpt>
<trkpt lat="52.042983" lon="05.768632"><ele>37.3</ele><time>2022-03-04T15:42:29Z</time><name>PT6472</name></trkpt>
<trkpt lat="52.042971" lon="05.768641"><ele>37.2</ele><time>2022-03-04T15:42:30Z</time><name>PT6473</name></trkpt>
<trkpt lat="52.042961" lon="05.768647"><ele>37.3</ele><time>2022-03-04T15:42:31Z</time><name>PT6474</name></trkpt>
<trkpt lat="52.042952" lon="05.768652"><ele>37.2</ele><time>2022-03-04T15:42:32Z</time><name>PT6475</name></trkpt>
<trkpt lat="52.042942" lon="05.768656"><ele>37.2</ele><time>2022-03-04T15:42:33Z</time><name>PT6476</name></trkpt>
<trkpt lat="52.042934" lon="05.768661"><ele>37.3</ele><time>2022-03-04T15:42:34Z</time><name>PT6477</name></trkpt>
<trkpt lat="52.042922" lon="05.768670"><ele>37.2</ele><time>2022-03-04T15:42:35Z</time><name>PT6478</name></trkpt>
<trkpt lat="52.042906" lon="05.768676"><ele>37.2</ele><time>2022-03-04T15:42:36Z</time><name>PT6479</name></trkpt>
<trkpt lat="52.042891" lon="05.768681"><ele>37.2</ele><time>2022-03-04T15:42:37Z</time><name>PT6480</name></trkpt>
<trkpt lat="52.042879" lon="05.768688"><ele>37.3</ele><time>2022-03-04T15:42:38Z</time><name>PT6481</name></trkpt>
<trkpt lat="52.042872" lon="05.768694"><ele>37.3</ele><time>2022-03-04T15:42:39Z</time><name>PT6482</name></trkpt>
<trkpt lat="52.042869" lon="05.768702"><ele>37.3</ele><time>2022-03-04T15:42:40Z</time><name>PT6483</name></trkpt>
<trkpt lat="52.042866" lon="05.768708"><ele>37.2</ele><time>2022-03-04T15:42:41Z</time><name>PT6484</name></trkpt>
<trkpt lat="52.042857" lon="05.768714"><ele>37.1</ele><time>2022-03-04T15:42:42Z</time><name>PT6485</name></trkpt>
<trkpt lat="52.042845" lon="05.768722"><ele>37.1</ele><time>2022-03-04T15:42:43Z</time><name>PT6486</name></trkpt>
<trkpt lat="52.042831" lon="05.768728"><ele>37.1</ele><time>2022-03-04T15:42:44Z</time><name>PT6487</name></trkpt>
<trkpt lat="52.042814" lon="05.768737"><ele>37.1</ele><time>2022-03-04T15:42:45Z</time><name>PT6488</name></trkpt>
<trkpt lat="52.042800" lon="05.768747"><ele>37.3</ele><time>2022-03-04T15:42:46Z</time><name>PT6489</name></trkpt>
<trkpt lat="52.042787" lon="05.768755"><ele>37.4</ele><time>2022-03-04T15:42:47Z</time><name>PT6490</name></trkpt>
<trkpt lat="52.042775" lon="05.768761"><ele>37.4</ele><time>2022-03-04T15:42:48Z</time><name>PT6491</name></trkpt>
<trkpt lat="52.042765" lon="05.768767"><ele>37.4</ele><time>2022-03-04T15:42:49Z</time><name>PT6492</name></trkpt>
<trkpt lat="52.042758" lon="05.768766"><ele>37.3</ele><time>2022-03-04T15:42:50Z</time><name>PT6493</name></trkpt>
<trkpt lat="52.042750" lon="05.768771"><ele>37.3</ele><time>2022-03-04T15:42:51Z</time><name>PT6494</name></trkpt>
<trkpt lat="52.042738" lon="05.768776"><ele>37.2</ele><time>2022-03-04T15:42:52Z</time><name>PT6495</name></trkpt>
<trkpt lat="52.042726" lon="05.768785"><ele>37.3</ele><time>2022-03-04T15:42:53Z</time><name>PT6496</name></trkpt>
<trkpt lat="52.042711" lon="05.768789"><ele>37.1</ele><time>2022-03-04T15:42:54Z</time><name>PT6497</name></trkpt>
<trkpt lat="52.042698" lon="05.768797"><ele>37.1</ele><time>2022-03-04T15:42:55Z</time><name>PT6498</name></trkpt>
<trkpt lat="52.042689" lon="05.768803"><ele>37</ele><time>2022-03-04T15:42:56Z</time><name>PT6499</name></trkpt>
<trkpt lat="52.042681" lon="05.768811"><ele>37.1</ele><time>2022-03-04T15:42:57Z</time><name>PT6500</name></trkpt>
<trkpt lat="52.042672" lon="05.768815"><ele>36.9</ele><time>2022-03-04T15:42:58Z</time><name>PT6501</name></trkpt>
<trkpt lat="52.042661" lon="05.768822"><ele>37</ele><time>2022-03-04T15:42:59Z</time><name>PT6502</name></trkpt>
<trkpt lat="52.042647" lon="05.768827"><ele>37</ele><time>2022-03-04T15:43:00Z</time><name>PT6503</name></trkpt>
<trkpt lat="52.042631" lon="05.768832"><ele>36.9</ele><time>2022-03-04T15:43:01Z</time><name>PT6504</name></trkpt>
<trkpt lat="52.042616" lon="05.768835"><ele>36.7</ele><time>2022-03-04T15:43:02Z</time><name>PT6505</name></trkpt>
<trkpt lat="52.042606" lon="05.768839"><ele>36.9</ele><time>2022-03-04T15:43:04Z</time><name>PT6506</name></trkpt>
<trkpt lat="52.042596" lon="05.768846"><ele>36.7</ele><time>2022-03-04T15:43:04Z</time><name>PT6507</name></trkpt>
<trkpt lat="52.042589" lon="05.768853"><ele>36.7</ele><time>2022-03-04T15:43:05Z</time><name>PT6508</name></trkpt>
<trkpt lat="52.042583" lon="05.768859"><ele>36.8</ele><time>2022-03-04T15:43:06Z</time><name>PT6509</name></trkpt>
<trkpt lat="52.042575" lon="05.768866"><ele>36.9</ele><time>2022-03-04T15:43:07Z</time><name>PT6510</name></trkpt>
<trkpt lat="52.042565" lon="05.768874"><ele>36.9</ele><time>2022-03-04T15:43:08Z</time><name>PT6511</name></trkpt>
<trkpt lat="52.042552" lon="05.768880"><ele>36.7</ele><time>2022-03-04T15:43:09Z</time><name>PT6512</name></trkpt>
<trkpt lat="52.042538" lon="05.768888"><ele>36.8</ele><time>2022-03-04T15:43:10Z</time><name>PT6513</name></trkpt>
<trkpt lat="52.042529" lon="05.768894"><ele>36.8</ele><time>2022-03-04T15:43:11Z</time><name>PT6514</name></trkpt>
<trkpt lat="52.042518" lon="05.768900"><ele>36.7</ele><time>2022-03-04T15:43:12Z</time><name>PT6515</name></trkpt>
<trkpt lat="52.042510" lon="05.768905"><ele>36.7</ele><time>2022-03-04T15:43:13Z</time><name>PT6516</name></trkpt>
<trkpt lat="52.042504" lon="05.768909"><ele>36.8</ele><time>2022-03-04T15:43:14Z</time><name>PT6517</name></trkpt>
<trkpt lat="52.042494" lon="05.768917"><ele>36.8</ele><time>2022-03-04T15:43:15Z</time><name>PT6518</name></trkpt>
<trkpt lat="52.042479" lon="05.768922"><ele>36.8</ele><time>2022-03-04T15:43:16Z</time><name>PT6519</name></trkpt>
<trkpt lat="52.042466" lon="05.768924"><ele>36.7</ele><time>2022-03-04T15:43:17Z</time><name>PT6520</name></trkpt>
<trkpt lat="52.042456" lon="05.768926"><ele>36.8</ele><time>2022-03-04T15:43:19Z</time><name>PT6521</name></trkpt>
<trkpt lat="52.042447" lon="05.768933"><ele>36.7</ele><time>2022-03-04T15:43:19Z</time><name>PT6522</name></trkpt>
<trkpt lat="52.042440" lon="05.768938"><ele>36.7</ele><time>2022-03-04T15:43:20Z</time><name>PT6523</name></trkpt>
<trkpt lat="52.042433" lon="05.768943"><ele>36.9</ele><time>2022-03-04T15:43:21Z</time><name>PT6524</name></trkpt>
<trkpt lat="52.042424" lon="05.768949"><ele>36.9</ele><time>2022-03-04T15:43:22Z</time><name>PT6525</name></trkpt>
<trkpt lat="52.042411" lon="05.768960"><ele>36.9</ele><time>2022-03-04T15:43:23Z</time><name>PT6526</name></trkpt>
<trkpt lat="52.042400" lon="05.768961"><ele>36.9</ele><time>2022-03-04T15:43:24Z</time><name>PT6527</name></trkpt>
<trkpt lat="52.042385" lon="05.768962"><ele>36.7</ele><time>2022-03-04T15:43:25Z</time><name>PT6528</name></trkpt>
<trkpt lat="52.042372" lon="05.768970"><ele>36.7</ele><time>2022-03-04T15:43:26Z</time><name>PT6529</name></trkpt>
<trkpt lat="52.042364" lon="05.768974"><ele>36.6</ele><time>2022-03-04T15:43:27Z</time><name>PT6530</name></trkpt>
<trkpt lat="52.042357" lon="05.768982"><ele>36.7</ele><time>2022-03-04T15:43:28Z</time><name>PT6531</name></trkpt>
<trkpt lat="52.042350" lon="05.768987"><ele>36.8</ele><time>2022-03-04T15:43:29Z</time><name>PT6532</name></trkpt>
<trkpt lat="52.042340" lon="05.768998"><ele>36.8</ele><time>2022-03-04T15:43:30Z</time><name>PT6533</name></trkpt>
<trkpt lat="52.042325" lon="05.769008"><ele>36.6</ele><time>2022-03-04T15:43:31Z</time><name>PT6534</name></trkpt>
<trkpt lat="52.042308" lon="05.769012"><ele>36.4</ele><time>2022-03-04T15:43:32Z</time><name>PT6535</name></trkpt>
<trkpt lat="52.042292" lon="05.769015"><ele>36.4</ele><time>2022-03-04T15:43:33Z</time><name>PT6536</name></trkpt>
<trkpt lat="52.042282" lon="05.769011"><ele>36.4</ele><time>2022-03-04T15:43:34Z</time><name>PT6537</name></trkpt>
<trkpt lat="52.042273" lon="05.769009"><ele>36.7</ele><time>2022-03-04T15:43:35Z</time><name>PT6538</name></trkpt>
<trkpt lat="52.042264" lon="05.769017"><ele>36.8</ele><time>2022-03-04T15:43:36Z</time><name>PT6539</name></trkpt>
<trkpt lat="52.042257" lon="05.769028"><ele>36.9</ele><time>2022-03-04T15:43:37Z</time><name>PT6540</name></trkpt>
<trkpt lat="52.042246" lon="05.769044"><ele>36.9</ele><time>2022-03-04T15:43:38Z</time><name>PT6541</name></trkpt>
<trkpt lat="52.042236" lon="05.769051"><ele>36.8</ele><time>2022-03-04T15:43:39Z</time><name>PT6542</name></trkpt>
<trkpt lat="52.042227" lon="05.769060"><ele>36.8</ele><time>2022-03-04T15:43:40Z</time><name>PT6543</name></trkpt>
<trkpt lat="52.042212" lon="05.769068"><ele>36.8</ele><time>2022-03-04T15:43:41Z</time><name>PT6544</name></trkpt>
<trkpt lat="52.042200" lon="05.769079"><ele>36.8</ele><time>2022-03-04T15:43:42Z</time><name>PT6545</name></trkpt>
<trkpt lat="52.042189" lon="05.769088"><ele>36.6</ele><time>2022-03-04T15:43:43Z</time><name>PT6546</name></trkpt>
<trkpt lat="52.042178" lon="05.769093"><ele>36.7</ele><time>2022-03-04T15:43:44Z</time><name>PT6547</name></trkpt>
<trkpt lat="52.042171" lon="05.769095"><ele>36.6</ele><time>2022-03-04T15:43:45Z</time><name>PT6548</name></trkpt>
<trkpt lat="52.042164" lon="05.769098"><ele>36.6</ele><time>2022-03-04T15:43:46Z</time><name>PT6549</name></trkpt>
<trkpt lat="52.042154" lon="05.769104"><ele>36.7</ele><time>2022-03-04T15:43:47Z</time><name>PT6550</name></trkpt>
<trkpt lat="52.042146" lon="05.769110"><ele>36.6</ele><time>2022-03-04T15:43:48Z</time><name>PT6551</name></trkpt>
<trkpt lat="52.042132" lon="05.769118"><ele>36.7</ele><time>2022-03-04T15:43:49Z</time><name>PT6552</name></trkpt>
<trkpt lat="52.042118" lon="05.769117"><ele>36.7</ele><time>2022-03-04T15:43:50Z</time><name>PT6553</name></trkpt>
<trkpt lat="52.042104" lon="05.769120"><ele>36.5</ele><time>2022-03-04T15:43:51Z</time><name>PT6554</name></trkpt>
<trkpt lat="52.042093" lon="05.769125"><ele>36.5</ele><time>2022-03-04T15:43:52Z</time><name>PT6555</name></trkpt>
<trkpt lat="52.042083" lon="05.769131"><ele>36.4</ele><time>2022-03-04T15:43:53Z</time><name>PT6556</name></trkpt>
<trkpt lat="52.042076" lon="05.769134"><ele>36.5</ele><time>2022-03-04T15:43:54Z</time><name>PT6557</name></trkpt>
<trkpt lat="52.042066" lon="05.769142"><ele>36.4</ele><time>2022-03-04T15:43:55Z</time><name>PT6558</name></trkpt>
<trkpt lat="52.042059" lon="05.769152"><ele>36.4</ele><time>2022-03-04T15:43:56Z</time><name>PT6559</name></trkpt>
<trkpt lat="52.042048" lon="05.769159"><ele>36.4</ele><time>2022-03-04T15:43:57Z</time><name>PT6560</name></trkpt>
<trkpt lat="52.042033" lon="05.769160"><ele>36.4</ele><time>2022-03-04T15:43:58Z</time><name>PT6561</name></trkpt>
<trkpt lat="52.042019" lon="05.769165"><ele>36.4</ele><time>2022-03-04T15:43:59Z</time><name>PT6562</name></trkpt>
<trkpt lat="52.042003" lon="05.769176"><ele>36.4</ele><time>2022-03-04T15:44:00Z</time><name>PT6563</name></trkpt>
<trkpt lat="52.041989" lon="05.769184"><ele>36.4</ele><time>2022-03-04T15:44:01Z</time><name>PT6564</name></trkpt>
<trkpt lat="52.041975" lon="05.769190"><ele>36.7</ele><time>2022-03-04T15:44:02Z</time><name>PT6565</name></trkpt>
<trkpt lat="52.041967" lon="05.769194"><ele>36.8</ele><time>2022-03-04T15:44:03Z</time><name>PT6566</name></trkpt>
<trkpt lat="52.041961" lon="05.769198"><ele>36.7</ele><time>2022-03-04T15:44:04Z</time><name>PT6567</name></trkpt>
<trkpt lat="52.041956" lon="05.769200"><ele>36.7</ele><time>2022-03-04T15:44:05Z</time><name>PT6568</name></trkpt>
<trkpt lat="52.041949" lon="05.769208"><ele>36.5</ele><time>2022-03-04T15:44:06Z</time><name>PT6569</name></trkpt>
<trkpt lat="52.041942" lon="05.769219"><ele>36.4</ele><time>2022-03-04T15:44:07Z</time><name>PT6570</name></trkpt>
<trkpt lat="52.041932" lon="05.769226"><ele>36.4</ele><time>2022-03-04T15:44:08Z</time><name>PT6571</name></trkpt>
<trkpt lat="52.041916" lon="05.769238"><ele>36.5</ele><time>2022-03-04T15:44:09Z</time><name>PT6572</name></trkpt>
<trkpt lat="52.041899" lon="05.769253"><ele>36.5</ele><time>2022-03-04T15:44:10Z</time><name>PT6573</name></trkpt>
<trkpt lat="52.041885" lon="05.769264"><ele>36.5</ele><time>2022-03-04T15:44:11Z</time><name>PT6574</name></trkpt>
<trkpt lat="52.041873" lon="05.769270"><ele>36.5</ele><time>2022-03-04T15:44:12Z</time><name>PT6575</name></trkpt>
<trkpt lat="52.041865" lon="05.769277"><ele>36.5</ele><time>2022-03-04T15:44:13Z</time><name>PT6576</name></trkpt>
<trkpt lat="52.041859" lon="05.769281"><ele>36.5</ele><time>2022-03-04T15:44:14Z</time><name>PT6577</name></trkpt>
<trkpt lat="52.041852" lon="05.769285"><ele>36.5</ele><time>2022-03-04T15:44:15Z</time><name>PT6578</name></trkpt>
<trkpt lat="52.041846" lon="05.769291"><ele>36.6</ele><time>2022-03-04T15:44:16Z</time><name>PT6579</name></trkpt>
<trkpt lat="52.041838" lon="05.769300"><ele>36.5</ele><time>2022-03-04T15:44:17Z</time><name>PT6580</name></trkpt>
<trkpt lat="52.041830" lon="05.769310"><ele>36.6</ele><time>2022-03-04T15:44:18Z</time><name>PT6581</name></trkpt>
<trkpt lat="52.041817" lon="05.769319"><ele>36.6</ele><time>2022-03-04T15:44:19Z</time><name>PT6582</name></trkpt>
<trkpt lat="52.041802" lon="05.769335"><ele>36.7</ele><time>2022-03-04T15:44:20Z</time><name>PT6583</name></trkpt>
<trkpt lat="52.041786" lon="05.769346"><ele>36.7</ele><time>2022-03-04T15:44:21Z</time><name>PT6584</name></trkpt>
<trkpt lat="52.041770" lon="05.769356"><ele>36.8</ele><time>2022-03-04T15:44:22Z</time><name>PT6585</name></trkpt>
<trkpt lat="52.041759" lon="05.769354"><ele>36.9</ele><time>2022-03-04T15:44:23Z</time><name>PT6586</name></trkpt>
<trkpt lat="52.041747" lon="05.769355"><ele>36.9</ele><time>2022-03-04T15:44:24Z</time><name>PT6587</name></trkpt>
<trkpt lat="52.041739" lon="05.769357"><ele>36.9</ele><time>2022-03-04T15:44:25Z</time><name>PT6588</name></trkpt>
<trkpt lat="52.041730" lon="05.769360"><ele>36.9</ele><time>2022-03-04T15:44:26Z</time><name>PT6589</name></trkpt>
<trkpt lat="52.041726" lon="05.769364"><ele>36.6</ele><time>2022-03-04T15:44:27Z</time><name>PT6590</name></trkpt>
<trkpt lat="52.041721" lon="05.769370"><ele>36.5</ele><time>2022-03-04T15:44:28Z</time><name>PT6591</name></trkpt>
<trkpt lat="52.041714" lon="05.769377"><ele>36.5</ele><time>2022-03-04T15:44:29Z</time><name>PT6592</name></trkpt>
<trkpt lat="52.041704" lon="05.769379"><ele>36.6</ele><time>2022-03-04T15:44:30Z</time><name>PT6593</name></trkpt>
<trkpt lat="52.041696" lon="05.769385"><ele>36.8</ele><time>2022-03-04T15:44:31Z</time><name>PT6594</name></trkpt>
<trkpt lat="52.041685" lon="05.769396"><ele>36.9</ele><time>2022-03-04T15:44:32Z</time><name>PT6595</name></trkpt>
<trkpt lat="52.041674" lon="05.769400"><ele>36.9</ele><time>2022-03-04T15:44:33Z</time><name>PT6596</name></trkpt>
<trkpt lat="52.041661" lon="05.769401"><ele>37</ele><time>2022-03-04T15:44:34Z</time><name>PT6597</name></trkpt>
<trkpt lat="52.041646" lon="05.769403"><ele>36.9</ele><time>2022-03-04T15:44:35Z</time><name>PT6598</name></trkpt>
<trkpt lat="52.041628" lon="05.769410"><ele>36.9</ele><time>2022-03-04T15:44:36Z</time><name>PT6599</name></trkpt>
<trkpt lat="52.041612" lon="05.769415"><ele>36.9</ele><time>2022-03-04T15:44:37Z</time><name>PT6600</name></trkpt>
<trkpt lat="52.041598" lon="05.769426"><ele>36.9</ele><time>2022-03-04T15:44:38Z</time><name>PT6601</name></trkpt>
<trkpt lat="52.041584" lon="05.769432"><ele>36.9</ele><time>2022-03-04T15:44:39Z</time><name>PT6602</name></trkpt>
<trkpt lat="52.041572" lon="05.769440"><ele>36.9</ele><time>2022-03-04T15:44:40Z</time><name>PT6603</name></trkpt>
<trkpt lat="52.041563" lon="05.769444"><ele>37</ele><time>2022-03-04T15:44:41Z</time><name>PT6604</name></trkpt>
<trkpt lat="52.041555" lon="05.769450"><ele>36.9</ele><time>2022-03-04T15:44:42Z</time><name>PT6605</name></trkpt>
<trkpt lat="52.041547" lon="05.769454"><ele>37</ele><time>2022-03-04T15:44:43Z</time><name>PT6606</name></trkpt>
<trkpt lat="52.041539" lon="05.769460"><ele>37.1</ele><time>2022-03-04T15:44:44Z</time><name>PT6607</name></trkpt>
<trkpt lat="52.041529" lon="05.769467"><ele>37.1</ele><time>2022-03-04T15:44:45Z</time><name>PT6608</name></trkpt>
<trkpt lat="52.041519" lon="05.769463"><ele>37.1</ele><time>2022-03-04T15:44:46Z</time><name>PT6609</name></trkpt>
<trkpt lat="52.041505" lon="05.769463"><ele>37</ele><time>2022-03-04T15:44:47Z</time><name>PT6610</name></trkpt>
<trkpt lat="52.041492" lon="05.769473"><ele>36.9</ele><time>2022-03-04T15:44:48Z</time><name>PT6611</name></trkpt>
<trkpt lat="52.041480" lon="05.769476"><ele>36.9</ele><time>2022-03-04T15:44:49Z</time><name>PT6612</name></trkpt>
<trkpt lat="52.041470" lon="05.769476"><ele>36.8</ele><time>2022-03-04T15:44:50Z</time><name>PT6613</name></trkpt>
<trkpt lat="52.041463" lon="05.769478"><ele>36.9</ele><time>2022-03-04T15:44:51Z</time><name>PT6614</name></trkpt>
<trkpt lat="52.041456" lon="05.769483"><ele>36.8</ele><time>2022-03-04T15:44:52Z</time><name>PT6615</name></trkpt>
<trkpt lat="52.041450" lon="05.769490"><ele>36.9</ele><time>2022-03-04T15:44:53Z</time><name>PT6616</name></trkpt>
<trkpt lat="52.041440" lon="05.769501"><ele>36.7</ele><time>2022-03-04T15:44:54Z</time><name>PT6617</name></trkpt>
<trkpt lat="52.041426" lon="05.769514"><ele>36.7</ele><time>2022-03-04T15:44:55Z</time><name>PT6618</name></trkpt>
<trkpt lat="52.041411" lon="05.769525"><ele>36.6</ele><time>2022-03-04T15:44:56Z</time><name>PT6619</name></trkpt>
<trkpt lat="52.041395" lon="05.769534"><ele>36.8</ele><time>2022-03-04T15:44:57Z</time><name>PT6620</name></trkpt>
<trkpt lat="52.041384" lon="05.769538"><ele>36.8</ele><time>2022-03-04T15:44:58Z</time><name>PT6621</name></trkpt>
<trkpt lat="52.041376" lon="05.769543"><ele>36.9</ele><time>2022-03-04T15:44:59Z</time><name>PT6622</name></trkpt>
<trkpt lat="52.041370" lon="05.769550"><ele>37</ele><time>2022-03-04T15:45:00Z</time><name>PT6623</name></trkpt>
<trkpt lat="52.041360" lon="05.769559"><ele>36.9</ele><time>2022-03-04T15:45:01Z</time><name>PT6624</name></trkpt>
<trkpt lat="52.041353" lon="05.769570"><ele>36.9</ele><time>2022-03-04T15:45:02Z</time><name>PT6625</name></trkpt>
<trkpt lat="52.041338" lon="05.769574"><ele>36.9</ele><time>2022-03-04T15:45:03Z</time><name>PT6626</name></trkpt>
<trkpt lat="52.041324" lon="05.769578"><ele>37</ele><time>2022-03-04T15:45:04Z</time><name>PT6627</name></trkpt>
<trkpt lat="52.041315" lon="05.769581"><ele>36.9</ele><time>2022-03-04T15:45:05Z</time><name>PT6628</name></trkpt>
<trkpt lat="52.041308" lon="05.769582"><ele>36.9</ele><time>2022-03-04T15:45:06Z</time><name>PT6629</name></trkpt>
<trkpt lat="52.041301" lon="05.769586"><ele>36.7</ele><time>2022-03-04T15:45:07Z</time><name>PT6630</name></trkpt>
<trkpt lat="52.041291" lon="05.769593"><ele>36.8</ele><time>2022-03-04T15:45:08Z</time><name>PT6631</name></trkpt>
<trkpt lat="52.041280" lon="05.769606"><ele>36.6</ele><time>2022-03-04T15:45:09Z</time><name>PT6632</name></trkpt>
<trkpt lat="52.041263" lon="05.769615"><ele>36.8</ele><time>2022-03-04T15:45:10Z</time><name>PT6633</name></trkpt>
<trkpt lat="52.041253" lon="05.769625"><ele>36.7</ele><time>2022-03-04T15:45:11Z</time><name>PT6634</name></trkpt>
<trkpt lat="52.041242" lon="05.769629"><ele>36.9</ele><time>2022-03-04T15:45:12Z</time><name>PT6635</name></trkpt>
<trkpt lat="52.041234" lon="05.769633"><ele>36.8</ele><time>2022-03-04T15:45:13Z</time><name>PT6636</name></trkpt>
<trkpt lat="52.041229" lon="05.769637"><ele>36.9</ele><time>2022-03-04T15:45:14Z</time><name>PT6637</name></trkpt>
<trkpt lat="52.041220" lon="05.769645"><ele>36.7</ele><time>2022-03-04T15:45:15Z</time><name>PT6638</name></trkpt>
<trkpt lat="52.041210" lon="05.769653"><ele>36.6</ele><time>2022-03-04T15:45:16Z</time><name>PT6639</name></trkpt>
<trkpt lat="52.041196" lon="05.769660"><ele>36.6</ele><time>2022-03-04T15:45:17Z</time><name>PT6640</name></trkpt>
<trkpt lat="52.041183" lon="05.769671"><ele>36.6</ele><time>2022-03-04T15:45:18Z</time><name>PT6641</name></trkpt>
<trkpt lat="52.041173" lon="05.769678"><ele>36.6</ele><time>2022-03-04T15:45:19Z</time><name>PT6642</name></trkpt>
<trkpt lat="52.041166" lon="05.769681"><ele>36.7</ele><time>2022-03-04T15:45:20Z</time><name>PT6643</name></trkpt>
<trkpt lat="52.041157" lon="05.769680"><ele>36.9</ele><time>2022-03-04T15:45:21Z</time><name>PT6644</name></trkpt>
<trkpt lat="52.041151" lon="05.769683"><ele>36.9</ele><time>2022-03-04T15:45:22Z</time><name>PT6645</name></trkpt>
<trkpt lat="52.041141" lon="05.769695"><ele>36.8</ele><time>2022-03-04T15:45:23Z</time><name>PT6646</name></trkpt>
<trkpt lat="52.041128" lon="05.769701"><ele>36.8</ele><time>2022-03-04T15:45:24Z</time><name>PT6647</name></trkpt>
<trkpt lat="52.041121" lon="05.769698"><ele>36.8</ele><time>2022-03-04T15:45:25Z</time><name>PT6648</name></trkpt>
<trkpt lat="52.041111" lon="05.769698"><ele>36.8</ele><time>2022-03-04T15:45:26Z</time><name>PT6649</name></trkpt>
<trkpt lat="52.041104" lon="05.769708"><ele>36.9</ele><time>2022-03-04T15:45:27Z</time><name>PT6650</name></trkpt>
<trkpt lat="52.041098" lon="05.769718"><ele>36.9</ele><time>2022-03-04T15:45:28Z</time><name>PT6651</name></trkpt>
<trkpt lat="52.041090" lon="05.769731"><ele>36.9</ele><time>2022-03-04T15:45:29Z</time><name>PT6652</name></trkpt>
<trkpt lat="52.041077" lon="05.769742"><ele>36.9</ele><time>2022-03-04T15:45:30Z</time><name>PT6653</name></trkpt>
<trkpt lat="52.041060" lon="05.769753"><ele>36.9</ele><time>2022-03-04T15:45:31Z</time><name>PT6654</name></trkpt>
<trkpt lat="52.041046" lon="05.769765"><ele>36.8</ele><time>2022-03-04T15:45:32Z</time><name>PT6655</name></trkpt>
<trkpt lat="52.041037" lon="05.769773"><ele>36.8</ele><time>2022-03-04T15:45:33Z</time><name>PT6656</name></trkpt>
<trkpt lat="52.041031" lon="05.769777"><ele>36.9</ele><time>2022-03-04T15:45:34Z</time><name>PT6657</name></trkpt>
<trkpt lat="52.041023" lon="05.769785"><ele>36.8</ele><time>2022-03-04T15:45:35Z</time><name>PT6658</name></trkpt>
<trkpt lat="52.041017" lon="05.769794"><ele>36.7</ele><time>2022-03-04T15:45:36Z</time><name>PT6659</name></trkpt>
<trkpt lat="52.041005" lon="05.769806"><ele>36.7</ele><time>2022-03-04T15:45:37Z</time><name>PT6660</name></trkpt>
<trkpt lat="52.040990" lon="05.769815"><ele>36.7</ele><time>2022-03-04T15:45:38Z</time><name>PT6661</name></trkpt>
<trkpt lat="52.040977" lon="05.769821"><ele>36.6</ele><time>2022-03-04T15:45:39Z</time><name>PT6662</name></trkpt>
<trkpt lat="52.040968" lon="05.769823"><ele>36.7</ele><time>2022-03-04T15:45:40Z</time><name>PT6663</name></trkpt>
<trkpt lat="52.040960" lon="05.769826"><ele>36.6</ele><time>2022-03-04T15:45:41Z</time><name>PT6664</name></trkpt>
<trkpt lat="52.040953" lon="05.769830"><ele>36.7</ele><time>2022-03-04T15:45:42Z</time><name>PT6665</name></trkpt>
<trkpt lat="52.040942" lon="05.769843"><ele>36.7</ele><time>2022-03-04T15:45:43Z</time><name>PT6666</name></trkpt>
<trkpt lat="52.040928" lon="05.769851"><ele>36.6</ele><time>2022-03-04T15:45:44Z</time><name>PT6667</name></trkpt>
<trkpt lat="52.040917" lon="05.769858"><ele>36.6</ele><time>2022-03-04T15:45:45Z</time><name>PT6668</name></trkpt>
<trkpt lat="52.040906" lon="05.769861"><ele>36.7</ele><time>2022-03-04T15:45:46Z</time><name>PT6669</name></trkpt>
<trkpt lat="52.040898" lon="05.769865"><ele>36.8</ele><time>2022-03-04T15:45:47Z</time><name>PT6670</name></trkpt>
<trkpt lat="52.040891" lon="05.769878"><ele>36.7</ele><time>2022-03-04T15:45:48Z</time><name>PT6671</name></trkpt>
<trkpt lat="52.040891" lon="05.769886"><ele>36.9</ele><time>2022-03-04T15:45:49Z</time><name>PT6672</name></trkpt>
<trkpt lat="52.040890" lon="05.769889"><ele>36.8</ele><time>2022-03-04T15:45:50Z</time><name>PT6673</name></trkpt>
<trkpt lat="52.040887" lon="05.769892"><ele>36.7</ele><time>2022-03-04T15:45:51Z</time><name>PT6674</name></trkpt>
<trkpt lat="52.040884" lon="05.769892"><ele>36.6</ele><time>2022-03-04T15:45:52Z</time><name>PT6675</name></trkpt>
<trkpt lat="52.040884" lon="05.769888"><ele>36.6</ele><time>2022-03-04T15:45:53Z</time><name>PT6676</name></trkpt>
<trkpt lat="52.040882" lon="05.769899"><ele>36.9</ele><time>2022-03-04T15:45:54Z</time><name>PT6677</name></trkpt>
<trkpt lat="52.040875" lon="05.769909"><ele>37.4</ele><time>2022-03-04T15:45:58Z</time><name>PT6678</name></trkpt>
<trkpt lat="52.040869" lon="05.769916"><ele>37.1</ele><time>2022-03-04T15:45:59Z</time><name>PT6679</name></trkpt>
<trkpt lat="52.040863" lon="05.769922"><ele>36.9</ele><time>2022-03-04T15:46:00Z</time><name>PT6680</name></trkpt>
<trkpt lat="52.040855" lon="05.769930"><ele>36.9</ele><time>2022-03-04T15:46:01Z</time><name>PT6681</name></trkpt>
<trkpt lat="52.040847" lon="05.769941"><ele>36.8</ele><time>2022-03-04T15:46:02Z</time><name>PT6682</name></trkpt>
<trkpt lat="52.040838" lon="05.769950"><ele>36.8</ele><time>2022-03-04T15:46:03Z</time><name>PT6683</name></trkpt>
<trkpt lat="52.040831" lon="05.769956"><ele>36.9</ele><time>2022-03-04T15:46:04Z</time><name>PT6684</name></trkpt>
<trkpt lat="52.040823" lon="05.769958"><ele>37</ele><time>2022-03-04T15:46:05Z</time><name>PT6685</name></trkpt>
<trkpt lat="52.040815" lon="05.769955"><ele>37</ele><time>2022-03-04T15:46:06Z</time><name>PT6686</name></trkpt>
<trkpt lat="52.040804" lon="05.769961"><ele>37</ele><time>2022-03-04T15:46:07Z</time><name>PT6687</name></trkpt>
<trkpt lat="52.040794" lon="05.769969"><ele>37.1</ele><time>2022-03-04T15:46:08Z</time><name>PT6688</name></trkpt>
<trkpt lat="52.040786" lon="05.769977"><ele>37.1</ele><time>2022-03-04T15:46:09Z</time><name>PT6689</name></trkpt>
<trkpt lat="52.040777" lon="05.769980"><ele>37.1</ele><time>2022-03-04T15:46:10Z</time><name>PT6690</name></trkpt>
<trkpt lat="52.040766" lon="05.769984"><ele>36.9</ele><time>2022-03-04T15:46:11Z</time><name>PT6691</name></trkpt>
<trkpt lat="52.040755" lon="05.769991"><ele>36.9</ele><time>2022-03-04T15:46:12Z</time><name>PT6692</name></trkpt>
<trkpt lat="52.040745" lon="05.769996"><ele>36.9</ele><time>2022-03-04T15:46:13Z</time><name>PT6693</name></trkpt>
<trkpt lat="52.040735" lon="05.770003"><ele>36.8</ele><time>2022-03-04T15:46:14Z</time><name>PT6694</name></trkpt>
<trkpt lat="52.040725" lon="05.770010"><ele>36.9</ele><time>2022-03-04T15:46:15Z</time><name>PT6695</name></trkpt>
<trkpt lat="52.040715" lon="05.770016"><ele>37</ele><time>2022-03-04T15:46:16Z</time><name>PT6696</name></trkpt>
<trkpt lat="52.040707" lon="05.770019"><ele>37.1</ele><time>2022-03-04T15:46:17Z</time><name>PT6697</name></trkpt>
<trkpt lat="52.040699" lon="05.770020"><ele>37.1</ele><time>2022-03-04T15:46:18Z</time><name>PT6698</name></trkpt>
<trkpt lat="52.040690" lon="05.770024"><ele>37.2</ele><time>2022-03-04T15:46:19Z</time><name>PT6699</name></trkpt>
<trkpt lat="52.040680" lon="05.770029"><ele>37</ele><time>2022-03-04T15:46:20Z</time><name>PT6700</name></trkpt>
<trkpt lat="52.040673" lon="05.770035"><ele>36.9</ele><time>2022-03-04T15:46:21Z</time><name>PT6701</name></trkpt>
<trkpt lat="52.040665" lon="05.770040"><ele>36.9</ele><time>2022-03-04T15:46:22Z</time><name>PT6702</name></trkpt>
<trkpt lat="52.040659" lon="05.770045"><ele>36.9</ele><time>2022-03-04T15:46:23Z</time><name>PT6703</name></trkpt>
<trkpt lat="52.040652" lon="05.770053"><ele>36.9</ele><time>2022-03-04T15:46:24Z</time><name>PT6704</name></trkpt>
<trkpt lat="52.040644" lon="05.770060"><ele>36.9</ele><time>2022-03-04T15:46:25Z</time><name>PT6705</name></trkpt>
<trkpt lat="52.040639" lon="05.770069"><ele>37</ele><time>2022-03-04T15:46:26Z</time><name>PT6706</name></trkpt>
<trkpt lat="52.040634" lon="05.770078"><ele>36.9</ele><time>2022-03-04T15:46:27Z</time><name>PT6707</name></trkpt>
<trkpt lat="52.040629" lon="05.770077"><ele>36.9</ele><time>2022-03-04T15:46:28Z</time><name>PT6708</name></trkpt>
<trkpt lat="52.040623" lon="05.770075"><ele>36.9</ele><time>2022-03-04T15:46:29Z</time><name>PT6709</name></trkpt>
<trkpt lat="52.040615" lon="05.770078"><ele>36.9</ele><time>2022-03-04T15:46:30Z</time><name>PT6710</name></trkpt>
<trkpt lat="52.040608" lon="05.770085"><ele>36.8</ele><time>2022-03-04T15:46:31Z</time><name>PT6711</name></trkpt>
<trkpt lat="52.040599" lon="05.770093"><ele>36.9</ele><time>2022-03-04T15:46:32Z</time><name>PT6712</name></trkpt>
<trkpt lat="52.040590" lon="05.770097"><ele>37</ele><time>2022-03-04T15:46:33Z</time><name>PT6713</name></trkpt>
<trkpt lat="52.040581" lon="05.770101"><ele>36.9</ele><time>2022-03-04T15:46:34Z</time><name>PT6714</name></trkpt>
<trkpt lat="52.040575" lon="05.770105"><ele>37</ele><time>2022-03-04T15:46:35Z</time><name>PT6715</name></trkpt>
<trkpt lat="52.040568" lon="05.770111"><ele>37</ele><time>2022-03-04T15:46:36Z</time><name>PT6716</name></trkpt>
<trkpt lat="52.040562" lon="05.770120"><ele>36.9</ele><time>2022-03-04T15:46:37Z</time><name>PT6717</name></trkpt>
<trkpt lat="52.040559" lon="05.770128"><ele>37</ele><time>2022-03-04T15:46:38Z</time><name>PT6718</name></trkpt>
<trkpt lat="52.040559" lon="05.770131"><ele>36.9</ele><time>2022-03-04T15:46:39Z</time><name>PT6719</name></trkpt>
<trkpt lat="52.040558" lon="05.770133"><ele>36.9</ele><time>2022-03-04T15:46:40Z</time><name>PT6720</name></trkpt>
<trkpt lat="52.040557" lon="05.770134"><ele>36.9</ele><time>2022-03-04T15:46:41Z</time><name>PT6721</name></trkpt>
<trkpt lat="52.040557" lon="05.770138"><ele>37</ele><time>2022-03-04T15:46:46Z</time><name>PT6722</name></trkpt>
<trkpt lat="52.040547" lon="05.770136"><ele>36.9</ele><time>2022-03-04T15:46:47Z</time><name>PT6723</name></trkpt>
<trkpt lat="52.040538" lon="05.770143"><ele>36.9</ele><time>2022-03-04T15:46:48Z</time><name>PT6724</name></trkpt>
<trkpt lat="52.040530" lon="05.770147"><ele>36.9</ele><time>2022-03-04T15:46:49Z</time><name>PT6725</name></trkpt>
<trkpt lat="52.040522" lon="05.770155"><ele>37</ele><time>2022-03-04T15:46:50Z</time><name>PT6726</name></trkpt>
<trkpt lat="52.040514" lon="05.770165"><ele>36.9</ele><time>2022-03-04T15:46:51Z</time><name>PT6727</name></trkpt>
<trkpt lat="52.040508" lon="05.770169"><ele>37</ele><time>2022-03-04T15:46:52Z</time><name>PT6728</name></trkpt>
<trkpt lat="52.040499" lon="05.770170"><ele>37.1</ele><time>2022-03-04T15:46:53Z</time><name>PT6729</name></trkpt>
<trkpt lat="52.040490" lon="05.770171"><ele>36.9</ele><time>2022-03-04T15:46:54Z</time><name>PT6730</name></trkpt>
<trkpt lat="52.040480" lon="05.770175"><ele>36.9</ele><time>2022-03-04T15:46:55Z</time><name>PT6731</name></trkpt>
<trkpt lat="52.040468" lon="05.770179"><ele>37</ele><time>2022-03-04T15:46:56Z</time><name>PT6732</name></trkpt>
<trkpt lat="52.040456" lon="05.770180"><ele>36.8</ele><time>2022-03-04T15:46:57Z</time><name>PT6733</name></trkpt>
<trkpt lat="52.040447" lon="05.770182"><ele>36.9</ele><time>2022-03-04T15:46:58Z</time><name>PT6734</name></trkpt>
<trkpt lat="52.040435" lon="05.770187"><ele>36.9</ele><time>2022-03-04T15:46:59Z</time><name>PT6735</name></trkpt>
<trkpt lat="52.040424" lon="05.770193"><ele>36.9</ele><time>2022-03-04T15:47:00Z</time><name>PT6736</name></trkpt>
<trkpt lat="52.040414" lon="05.770196"><ele>36.9</ele><time>2022-03-04T15:47:01Z</time><name>PT6737</name></trkpt>
<trkpt lat="52.040402" lon="05.770199"><ele>36.9</ele><time>2022-03-04T15:47:02Z</time><name>PT6738</name></trkpt>
<trkpt lat="52.040392" lon="05.770199"><ele>36.8</ele><time>2022-03-04T15:47:04Z</time><name>PT6739</name></trkpt>
<trkpt lat="52.040381" lon="05.770207"><ele>36.8</ele><time>2022-03-04T15:47:04Z</time><name>PT6740</name></trkpt>
<trkpt lat="52.040371" lon="05.770212"><ele>36.8</ele><time>2022-03-04T15:47:05Z</time><name>PT6741</name></trkpt>
<trkpt lat="52.040362" lon="05.770221"><ele>36.9</ele><time>2022-03-04T15:47:06Z</time><name>PT6742</name></trkpt>
<trkpt lat="52.040353" lon="05.770225"><ele>36.9</ele><time>2022-03-04T15:47:07Z</time><name>PT6743</name></trkpt>
<trkpt lat="52.040342" lon="05.770228"><ele>37.1</ele><time>2022-03-04T15:47:08Z</time><name>PT6744</name></trkpt>
<trkpt lat="52.040331" lon="05.770229"><ele>37.2</ele><time>2022-03-04T15:47:09Z</time><name>PT6745</name></trkpt>
<trkpt lat="52.040321" lon="05.770229"><ele>37.1</ele><time>2022-03-04T15:47:10Z</time><name>PT6746</name></trkpt>
<trkpt lat="52.040310" lon="05.770232"><ele>36.9</ele><time>2022-03-04T15:47:11Z</time><name>PT6747</name></trkpt>
<trkpt lat="52.040300" lon="05.770233"><ele>36.9</ele><time>2022-03-04T15:47:12Z</time><name>PT6748</name></trkpt>
<trkpt lat="52.040291" lon="05.770235"><ele>36.8</ele><time>2022-03-04T15:47:13Z</time><name>PT6749</name></trkpt>
<trkpt lat="52.040281" lon="05.770240"><ele>36.6</ele><time>2022-03-04T15:47:14Z</time><name>PT6750</name></trkpt>
<trkpt lat="52.040270" lon="05.770242"><ele>36.7</ele><time>2022-03-04T15:47:15Z</time><name>PT6751</name></trkpt>
<trkpt lat="52.040259" lon="05.770243"><ele>36.7</ele><time>2022-03-04T15:47:16Z</time><name>PT6752</name></trkpt>
<trkpt lat="52.040249" lon="05.770244"><ele>36.6</ele><time>2022-03-04T15:47:17Z</time><name>PT6753</name></trkpt>
<trkpt lat="52.040240" lon="05.770245"><ele>36.6</ele><time>2022-03-04T15:47:19Z</time><name>PT6754</name></trkpt>
<trkpt lat="52.040228" lon="05.770248"><ele>36.6</ele><time>2022-03-04T15:47:19Z</time><name>PT6755</name></trkpt>
<trkpt lat="52.040217" lon="05.770251"><ele>36.4</ele><time>2022-03-04T15:47:20Z</time><name>PT6756</name></trkpt>
<trkpt lat="52.040208" lon="05.770254"><ele>36.5</ele><time>2022-03-04T15:47:21Z</time><name>PT6757</name></trkpt>
<trkpt lat="52.040197" lon="05.770260"><ele>36.6</ele><time>2022-03-04T15:47:22Z</time><name>PT6758</name></trkpt>
<trkpt lat="52.040187" lon="05.770269"><ele>36.6</ele><time>2022-03-04T15:47:23Z</time><name>PT6759</name></trkpt>
<trkpt lat="52.040177" lon="05.770268"><ele>36.5</ele><time>2022-03-04T15:47:24Z</time><name>PT6760</name></trkpt>
<trkpt lat="52.040166" lon="05.770260"><ele>36.6</ele><time>2022-03-04T15:47:25Z</time><name>PT6761</name></trkpt>
<trkpt lat="52.040153" lon="05.770255"><ele>36.5</ele><time>2022-03-04T15:47:26Z</time><name>PT6762</name></trkpt>
<trkpt lat="52.040139" lon="05.770252"><ele>36.4</ele><time>2022-03-04T15:47:27Z</time><name>PT6763</name></trkpt>
<trkpt lat="52.040124" lon="05.770254"><ele>36.4</ele><time>2022-03-04T15:47:28Z</time><name>PT6764</name></trkpt>
<trkpt lat="52.040112" lon="05.770255"><ele>36.4</ele><time>2022-03-04T15:47:29Z</time><name>PT6765</name></trkpt>
<trkpt lat="52.040102" lon="05.770257"><ele>36.3</ele><time>2022-03-04T15:47:30Z</time><name>PT6766</name></trkpt>
<trkpt lat="52.040094" lon="05.770256"><ele>36.4</ele><time>2022-03-04T15:47:31Z</time><name>PT6767</name></trkpt>
<trkpt lat="52.040083" lon="05.770256"><ele>36.4</ele><time>2022-03-04T15:47:32Z</time><name>PT6768</name></trkpt>
<trkpt lat="52.040070" lon="05.770252"><ele>36.3</ele><time>2022-03-04T15:47:33Z</time><name>PT6769</name></trkpt>
<trkpt lat="52.040059" lon="05.770249"><ele>36.4</ele><time>2022-03-04T15:47:34Z</time><name>PT6770</name></trkpt>
<trkpt lat="52.040048" lon="05.770250"><ele>36.7</ele><time>2022-03-04T15:47:35Z</time><name>PT6771</name></trkpt>
<trkpt lat="52.040036" lon="05.770251"><ele>36.7</ele><time>2022-03-04T15:47:36Z</time><name>PT6772</name></trkpt>
<trkpt lat="52.040026" lon="05.770251"><ele>36.7</ele><time>2022-03-04T15:47:37Z</time><name>PT6773</name></trkpt>
<trkpt lat="52.040017" lon="05.770252"><ele>36.7</ele><time>2022-03-04T15:47:38Z</time><name>PT6774</name></trkpt>
<trkpt lat="52.040007" lon="05.770253"><ele>36.7</ele><time>2022-03-04T15:47:39Z</time><name>PT6775</name></trkpt>
<trkpt lat="52.039997" lon="05.770250"><ele>36.7</ele><time>2022-03-04T15:47:40Z</time><name>PT6776</name></trkpt>
<trkpt lat="52.039985" lon="05.770250"><ele>36.7</ele><time>2022-03-04T15:47:41Z</time><name>PT6777</name></trkpt>
<trkpt lat="52.039974" lon="05.770247"><ele>36.8</ele><time>2022-03-04T15:47:42Z</time><name>PT6778</name></trkpt>
<trkpt lat="52.039962" lon="05.770244"><ele>36.9</ele><time>2022-03-04T15:47:43Z</time><name>PT6779</name></trkpt>
<trkpt lat="52.039950" lon="05.770240"><ele>36.9</ele><time>2022-03-04T15:47:44Z</time><name>PT6780</name></trkpt>
<trkpt lat="52.039937" lon="05.770236"><ele>36.9</ele><time>2022-03-04T15:47:45Z</time><name>PT6781</name></trkpt>
<trkpt lat="52.039924" lon="05.770235"><ele>36.9</ele><time>2022-03-04T15:47:46Z</time><name>PT6782</name></trkpt>
<trkpt lat="52.039914" lon="05.770239"><ele>36.9</ele><time>2022-03-04T15:47:47Z</time><name>PT6783</name></trkpt>
<trkpt lat="52.039904" lon="05.770240"><ele>36.8</ele><time>2022-03-04T15:47:48Z</time><name>PT6784</name></trkpt>
<trkpt lat="52.039893" lon="05.770239"><ele>36.9</ele><time>2022-03-04T15:47:49Z</time><name>PT6785</name></trkpt>
<trkpt lat="52.039882" lon="05.770234"><ele>36.7</ele><time>2022-03-04T15:47:50Z</time><name>PT6786</name></trkpt>
<trkpt lat="52.039870" lon="05.770229"><ele>36.6</ele><time>2022-03-04T15:47:51Z</time><name>PT6787</name></trkpt>
<trkpt lat="52.039859" lon="05.770228"><ele>36.7</ele><time>2022-03-04T15:47:52Z</time><name>PT6788</name></trkpt>
<trkpt lat="52.039848" lon="05.770230"><ele>36.7</ele><time>2022-03-04T15:47:53Z</time><name>PT6789</name></trkpt>
<trkpt lat="52.039835" lon="05.770230"><ele>36.6</ele><time>2022-03-04T15:47:55Z</time><name>PT6790</name></trkpt>
<trkpt lat="52.039825" lon="05.770230"><ele>36.6</ele><time>2022-03-04T15:47:55Z</time><name>PT6791</name></trkpt>
<trkpt lat="52.039817" lon="05.770227"><ele>36.7</ele><time>2022-03-04T15:47:56Z</time><name>PT6792</name></trkpt>
<trkpt lat="52.039807" lon="05.770224"><ele>36.7</ele><time>2022-03-04T15:47:57Z</time><name>PT6793</name></trkpt>
<trkpt lat="52.039797" lon="05.770220"><ele>36.8</ele><time>2022-03-04T15:47:58Z</time><name>PT6794</name></trkpt>
<trkpt lat="52.039787" lon="05.770216"><ele>36.8</ele><time>2022-03-04T15:47:59Z</time><name>PT6795</name></trkpt>
<trkpt lat="52.039774" lon="05.770214"><ele>36.6</ele><time>2022-03-04T15:48:00Z</time><name>PT6796</name></trkpt>
<trkpt lat="52.039762" lon="05.770213"><ele>36.7</ele><time>2022-03-04T15:48:01Z</time><name>PT6797</name></trkpt>
<trkpt lat="52.039752" lon="05.770215"><ele>36.7</ele><time>2022-03-04T15:48:02Z</time><name>PT6798</name></trkpt>
<trkpt lat="52.039745" lon="05.770215"><ele>36.7</ele><time>2022-03-04T15:48:03Z</time><name>PT6799</name></trkpt>
<trkpt lat="52.039735" lon="05.770215"><ele>36.7</ele><time>2022-03-04T15:48:04Z</time><name>PT6800</name></trkpt>
<trkpt lat="52.039723" lon="05.770211"><ele>36.8</ele><time>2022-03-04T15:48:05Z</time><name>PT6801</name></trkpt>
<trkpt lat="52.039713" lon="05.770206"><ele>36.6</ele><time>2022-03-04T15:48:06Z</time><name>PT6802</name></trkpt>
<trkpt lat="52.039703" lon="05.770201"><ele>36.6</ele><time>2022-03-04T15:48:07Z</time><name>PT6803</name></trkpt>
<trkpt lat="52.039692" lon="05.770199"><ele>36.7</ele><time>2022-03-04T15:48:08Z</time><name>PT6804</name></trkpt>
<trkpt lat="52.039680" lon="05.770198"><ele>36.5</ele><time>2022-03-04T15:48:09Z</time><name>PT6805</name></trkpt>
<trkpt lat="52.039670" lon="05.770197"><ele>36.5</ele><time>2022-03-04T15:48:10Z</time><name>PT6806</name></trkpt>
<trkpt lat="52.039659" lon="05.770196"><ele>36.5</ele><time>2022-03-04T15:48:11Z</time><name>PT6807</name></trkpt>
<trkpt lat="52.039649" lon="05.770196"><ele>36.4</ele><time>2022-03-04T15:48:12Z</time><name>PT6808</name></trkpt>
<trkpt lat="52.039638" lon="05.770197"><ele>36.4</ele><time>2022-03-04T15:48:13Z</time><name>PT6809</name></trkpt>
<trkpt lat="52.039628" lon="05.770194"><ele>36.5</ele><time>2022-03-04T15:48:14Z</time><name>PT6810</name></trkpt>
<trkpt lat="52.039618" lon="05.770190"><ele>36.5</ele><time>2022-03-04T15:48:15Z</time><name>PT6811</name></trkpt>
<trkpt lat="52.039607" lon="05.770188"><ele>36.6</ele><time>2022-03-04T15:48:16Z</time><name>PT6812</name></trkpt>
<trkpt lat="52.039596" lon="05.770188"><ele>36.4</ele><time>2022-03-04T15:48:17Z</time><name>PT6813</name></trkpt>
<trkpt lat="52.039585" lon="05.770190"><ele>36.5</ele><time>2022-03-04T15:48:18Z</time><name>PT6814</name></trkpt>
<trkpt lat="52.039576" lon="05.770194"><ele>36.6</ele><time>2022-03-04T15:48:19Z</time><name>PT6815</name></trkpt>
<trkpt lat="52.039569" lon="05.770198"><ele>36.7</ele><time>2022-03-04T15:48:20Z</time><name>PT6816</name></trkpt>
<trkpt lat="52.039559" lon="05.770196"><ele>36.6</ele><time>2022-03-04T15:48:21Z</time><name>PT6817</name></trkpt>
<trkpt lat="52.039547" lon="05.770196"><ele>36.7</ele><time>2022-03-04T15:48:22Z</time><name>PT6818</name></trkpt>
<trkpt lat="52.039536" lon="05.770191"><ele>36.4</ele><time>2022-03-04T15:48:23Z</time><name>PT6819</name></trkpt>
<trkpt lat="52.039523" lon="05.770187"><ele>36.4</ele><time>2022-03-04T15:48:24Z</time><name>PT6820</name></trkpt>
<trkpt lat="52.039512" lon="05.770186"><ele>36.4</ele><time>2022-03-04T15:48:25Z</time><name>PT6821</name></trkpt>
<trkpt lat="52.039502" lon="05.770187"><ele>36.5</ele><time>2022-03-04T15:48:26Z</time><name>PT6822</name></trkpt>
<trkpt lat="52.039492" lon="05.770187"><ele>36.5</ele><time>2022-03-04T15:48:27Z</time><name>PT6823</name></trkpt>
<trkpt lat="52.039484" lon="05.770184"><ele>36.7</ele><time>2022-03-04T15:48:28Z</time><name>PT6824</name></trkpt>
<trkpt lat="52.039473" lon="05.770181"><ele>36.6</ele><time>2022-03-04T15:48:29Z</time><name>PT6825</name></trkpt>
<trkpt lat="52.039461" lon="05.770176"><ele>36.5</ele><time>2022-03-04T15:48:30Z</time><name>PT6826</name></trkpt>
<trkpt lat="52.039449" lon="05.770170"><ele>36.4</ele><time>2022-03-04T15:48:31Z</time><name>PT6827</name></trkpt>
<trkpt lat="52.039438" lon="05.770169"><ele>36.6</ele><time>2022-03-04T15:48:32Z</time><name>PT6828</name></trkpt>
<trkpt lat="52.039428" lon="05.770169"><ele>36.7</ele><time>2022-03-04T15:48:33Z</time><name>PT6829</name></trkpt>
<trkpt lat="52.039418" lon="05.770170"><ele>36.8</ele><time>2022-03-04T15:48:34Z</time><name>PT6830</name></trkpt>
<trkpt lat="52.039407" lon="05.770170"><ele>36.9</ele><time>2022-03-04T15:48:35Z</time><name>PT6831</name></trkpt>
<trkpt lat="52.039399" lon="05.770168"><ele>36.9</ele><time>2022-03-04T15:48:36Z</time><name>PT6832</name></trkpt>
<trkpt lat="52.039387" lon="05.770166"><ele>36.9</ele><time>2022-03-04T15:48:37Z</time><name>PT6833</name></trkpt>
<trkpt lat="52.039374" lon="05.770163"><ele>36.9</ele><time>2022-03-04T15:48:38Z</time><name>PT6834</name></trkpt>
<trkpt lat="52.039362" lon="05.770161"><ele>36.9</ele><time>2022-03-04T15:48:39Z</time><name>PT6835</name></trkpt>
<trkpt lat="52.039351" lon="05.770160"><ele>36.9</ele><time>2022-03-04T15:48:40Z</time><name>PT6836</name></trkpt>
<trkpt lat="52.039340" lon="05.770162"><ele>36.9</ele><time>2022-03-04T15:48:41Z</time><name>PT6837</name></trkpt>
<trkpt lat="52.039330" lon="05.770164"><ele>37.1</ele><time>2022-03-04T15:48:42Z</time><name>PT6838</name></trkpt>
<trkpt lat="52.039319" lon="05.770163"><ele>37.1</ele><time>2022-03-04T15:48:43Z</time><name>PT6839</name></trkpt>
<trkpt lat="52.039307" lon="05.770162"><ele>37.2</ele><time>2022-03-04T15:48:44Z</time><name>PT6840</name></trkpt>
<trkpt lat="52.039296" lon="05.770158"><ele>37.2</ele><time>2022-03-04T15:48:45Z</time><name>PT6841</name></trkpt>
<trkpt lat="52.039286" lon="05.770155"><ele>37.2</ele><time>2022-03-04T15:48:46Z</time><name>PT6842</name></trkpt>
<trkpt lat="52.039276" lon="05.770154"><ele>37.3</ele><time>2022-03-04T15:48:47Z</time><name>PT6843</name></trkpt>
<trkpt lat="52.039265" lon="05.770156"><ele>37.1</ele><time>2022-03-04T15:48:48Z</time><name>PT6844</name></trkpt>
<trkpt lat="52.039256" lon="05.770155"><ele>37.2</ele><time>2022-03-04T15:48:49Z</time><name>PT6845</name></trkpt>
<trkpt lat="52.039249" lon="05.770156"><ele>37.1</ele><time>2022-03-04T15:48:50Z</time><name>PT6846</name></trkpt>
<trkpt lat="52.039239" lon="05.770158"><ele>37</ele><time>2022-03-04T15:48:51Z</time><name>PT6847</name></trkpt>
<trkpt lat="52.039228" lon="05.770154"><ele>36.9</ele><time>2022-03-04T15:48:52Z</time><name>PT6848</name></trkpt>
<trkpt lat="52.039216" lon="05.770152"><ele>36.9</ele><time>2022-03-04T15:48:53Z</time><name>PT6849</name></trkpt>
<trkpt lat="52.039204" lon="05.770149"><ele>37.1</ele><time>2022-03-04T15:48:54Z</time><name>PT6850</name></trkpt>
<trkpt lat="52.039190" lon="05.770150"><ele>37.1</ele><time>2022-03-04T15:48:55Z</time><name>PT6851</name></trkpt>
<trkpt lat="52.039177" lon="05.770153"><ele>37.2</ele><time>2022-03-04T15:48:56Z</time><name>PT6852</name></trkpt>
<trkpt lat="52.039166" lon="05.770154"><ele>37.3</ele><time>2022-03-04T15:48:57Z</time><name>PT6853</name></trkpt>
<trkpt lat="52.039156" lon="05.770156"><ele>37.1</ele><time>2022-03-04T15:48:58Z</time><name>PT6854</name></trkpt>
<trkpt lat="52.039144" lon="05.770154"><ele>36.9</ele><time>2022-03-04T15:48:59Z</time><name>PT6855</name></trkpt>
<trkpt lat="52.039132" lon="05.770150"><ele>36.9</ele><time>2022-03-04T15:49:00Z</time><name>PT6856</name></trkpt>
<trkpt lat="52.039122" lon="05.770144"><ele>36.8</ele><time>2022-03-04T15:49:01Z</time><name>PT6857</name></trkpt>
<trkpt lat="52.039112" lon="05.770139"><ele>36.7</ele><time>2022-03-04T15:49:02Z</time><name>PT6858</name></trkpt>
<trkpt lat="52.039100" lon="05.770137"><ele>36.6</ele><time>2022-03-04T15:49:03Z</time><name>PT6859</name></trkpt>
<trkpt lat="52.039090" lon="05.770137"><ele>36.7</ele><time>2022-03-04T15:49:04Z</time><name>PT6860</name></trkpt>
<trkpt lat="52.039081" lon="05.770139"><ele>36.8</ele><time>2022-03-04T15:49:05Z</time><name>PT6861</name></trkpt>
<trkpt lat="52.039071" lon="05.770138"><ele>36.9</ele><time>2022-03-04T15:49:06Z</time><name>PT6862</name></trkpt>
<trkpt lat="52.039059" lon="05.770135"><ele>36.9</ele><time>2022-03-04T15:49:07Z</time><name>PT6863</name></trkpt>
<trkpt lat="52.039049" lon="05.770135"><ele>37</ele><time>2022-03-04T15:49:08Z</time><name>PT6864</name></trkpt>
<trkpt lat="52.039038" lon="05.770133"><ele>36.9</ele><time>2022-03-04T15:49:09Z</time><name>PT6865</name></trkpt>
<trkpt lat="52.039027" lon="05.770129"><ele>37</ele><time>2022-03-04T15:49:10Z</time><name>PT6866</name></trkpt>
<trkpt lat="52.039017" lon="05.770130"><ele>37</ele><time>2022-03-04T15:49:11Z</time><name>PT6867</name></trkpt>
<trkpt lat="52.039005" lon="05.770130"><ele>37.1</ele><time>2022-03-04T15:49:12Z</time><name>PT6868</name></trkpt>
<trkpt lat="52.038995" lon="05.770128"><ele>37</ele><time>2022-03-04T15:49:13Z</time><name>PT6869</name></trkpt>
<trkpt lat="52.038984" lon="05.770126"><ele>37.1</ele><time>2022-03-04T15:49:14Z</time><name>PT6870</name></trkpt>
<trkpt lat="52.038971" lon="05.770129"><ele>36.9</ele><time>2022-03-04T15:49:15Z</time><name>PT6871</name></trkpt>
<trkpt lat="52.038961" lon="05.770126"><ele>36.9</ele><time>2022-03-04T15:49:16Z</time><name>PT6872</name></trkpt>
<trkpt lat="52.038952" lon="05.770126"><ele>36.9</ele><time>2022-03-04T15:49:17Z</time><name>PT6873</name></trkpt>
<trkpt lat="52.038944" lon="05.770125"><ele>36.9</ele><time>2022-03-04T15:49:18Z</time><name>PT6874</name></trkpt>
<trkpt lat="52.038933" lon="05.770121"><ele>36.9</ele><time>2022-03-04T15:49:19Z</time><name>PT6875</name></trkpt>
<trkpt lat="52.038921" lon="05.770120"><ele>37</ele><time>2022-03-04T15:49:20Z</time><name>PT6876</name></trkpt>
<trkpt lat="52.038910" lon="05.770114"><ele>36.9</ele><time>2022-03-04T15:49:21Z</time><name>PT6877</name></trkpt>
<trkpt lat="52.038897" lon="05.770110"><ele>36.9</ele><time>2022-03-04T15:49:22Z</time><name>PT6878</name></trkpt>
<trkpt lat="52.038886" lon="05.770110"><ele>36.9</ele><time>2022-03-04T15:49:23Z</time><name>PT6879</name></trkpt>
<trkpt lat="52.038876" lon="05.770112"><ele>36.9</ele><time>2022-03-04T15:49:24Z</time><name>PT6880</name></trkpt>
<trkpt lat="52.038864" lon="05.770111"><ele>36.9</ele><time>2022-03-04T15:49:25Z</time><name>PT6881</name></trkpt>
<trkpt lat="52.038853" lon="05.770109"><ele>36.9</ele><time>2022-03-04T15:49:26Z</time><name>PT6882</name></trkpt>
<trkpt lat="52.038841" lon="05.770107"><ele>36.9</ele><time>2022-03-04T15:49:27Z</time><name>PT6883</name></trkpt>
<trkpt lat="52.038828" lon="05.770104"><ele>36.8</ele><time>2022-03-04T15:49:28Z</time><name>PT6884</name></trkpt>
<trkpt lat="52.038816" lon="05.770105"><ele>36.8</ele><time>2022-03-04T15:49:29Z</time><name>PT6885</name></trkpt>
<trkpt lat="52.038805" lon="05.770108"><ele>36.7</ele><time>2022-03-04T15:49:30Z</time><name>PT6886</name></trkpt>
<trkpt lat="52.038795" lon="05.770111"><ele>36.8</ele><time>2022-03-04T15:49:31Z</time><name>PT6887</name></trkpt>
<trkpt lat="52.038783" lon="05.770109"><ele>36.8</ele><time>2022-03-04T15:49:32Z</time><name>PT6888</name></trkpt>
<trkpt lat="52.038771" lon="05.770108"><ele>36.9</ele><time>2022-03-04T15:49:33Z</time><name>PT6889</name></trkpt>
<trkpt lat="52.038760" lon="05.770104"><ele>36.9</ele><time>2022-03-04T15:49:34Z</time><name>PT6890</name></trkpt>
<trkpt lat="52.038749" lon="05.770102"><ele>37</ele><time>2022-03-04T15:49:35Z</time><name>PT6891</name></trkpt>
<trkpt lat="52.038736" lon="05.770103"><ele>37.1</ele><time>2022-03-04T15:49:36Z</time><name>PT6892</name></trkpt>
<trkpt lat="52.038725" lon="05.770108"><ele>37.2</ele><time>2022-03-04T15:49:37Z</time><name>PT6893</name></trkpt>
<trkpt lat="52.038717" lon="05.770113"><ele>37.2</ele><time>2022-03-04T15:49:38Z</time><name>PT6894</name></trkpt>
<trkpt lat="52.038707" lon="05.770112"><ele>37.2</ele><time>2022-03-04T15:49:39Z</time><name>PT6895</name></trkpt>
<trkpt lat="52.038694" lon="05.770111"><ele>37.1</ele><time>2022-03-04T15:49:40Z</time><name>PT6896</name></trkpt>
<trkpt lat="52.038681" lon="05.770112"><ele>36.9</ele><time>2022-03-04T15:49:41Z</time><name>PT6897</name></trkpt>
<trkpt lat="52.038671" lon="05.770112"><ele>36.8</ele><time>2022-03-04T15:49:42Z</time><name>PT6898</name></trkpt>
<trkpt lat="52.038660" lon="05.770108"><ele>36.7</ele><time>2022-03-04T15:49:43Z</time><name>PT6899</name></trkpt>
<trkpt lat="52.038650" lon="05.770107"><ele>36.6</ele><time>2022-03-04T15:49:44Z</time><name>PT6900</name></trkpt>
<trkpt lat="52.038646" lon="05.770105"><ele>36.8</ele><time>2022-03-04T15:49:45Z</time><name>PT6901</name></trkpt>
<trkpt lat="52.038640" lon="05.770106"><ele>36.8</ele><time>2022-03-04T15:49:46Z</time><name>PT6902</name></trkpt>
<trkpt lat="52.038626" lon="05.770107"><ele>36.9</ele><time>2022-03-04T15:49:47Z</time><name>PT6903</name></trkpt>
<trkpt lat="52.038612" lon="05.770106"><ele>36.9</ele><time>2022-03-04T15:49:48Z</time><name>PT6904</name></trkpt>
<trkpt lat="52.038599" lon="05.770103"><ele>36.9</ele><time>2022-03-04T15:49:49Z</time><name>PT6905</name></trkpt>
<trkpt lat="52.038590" lon="05.770100"><ele>36.9</ele><time>2022-03-04T15:49:50Z</time><name>PT6906</name></trkpt>
<trkpt lat="52.038583" lon="05.770098"><ele>36.8</ele><time>2022-03-04T15:49:51Z</time><name>PT6907</name></trkpt>
<trkpt lat="52.038575" lon="05.770097"><ele>36.7</ele><time>2022-03-04T15:49:52Z</time><name>PT6908</name></trkpt>
<trkpt lat="52.038568" lon="05.770100"><ele>36.5</ele><time>2022-03-04T15:49:53Z</time><name>PT6909</name></trkpt>
<trkpt lat="52.038559" lon="05.770102"><ele>36.5</ele><time>2022-03-04T15:49:55Z</time><name>PT6910</name></trkpt>
<trkpt lat="52.038545" lon="05.770099"><ele>36.6</ele><time>2022-03-04T15:49:55Z</time><name>PT6911</name></trkpt>
<trkpt lat="52.038532" lon="05.770096"><ele>36.6</ele><time>2022-03-04T15:49:56Z</time><name>PT6912</name></trkpt>
<trkpt lat="52.038519" lon="05.770100"><ele>36.7</ele><time>2022-03-04T15:49:57Z</time><name>PT6913</name></trkpt>
<trkpt lat="52.038512" lon="05.770101"><ele>36.5</ele><time>2022-03-04T15:49:58Z</time><name>PT6914</name></trkpt>
<trkpt lat="52.038504" lon="05.770104"><ele>36.5</ele><time>2022-03-04T15:49:59Z</time><name>PT6915</name></trkpt>
<trkpt lat="52.038493" lon="05.770098"><ele>36.5</ele><time>2022-03-04T15:50:01Z</time><name>PT6916</name></trkpt>
<trkpt lat="52.038484" lon="05.770095"><ele>36.6</ele><time>2022-03-04T15:50:01Z</time><name>PT6917</name></trkpt>
<trkpt lat="52.038468" lon="05.770096"><ele>36.8</ele><time>2022-03-04T15:50:02Z</time><name>PT6918</name></trkpt>
<trkpt lat="52.038456" lon="05.770100"><ele>36.7</ele><time>2022-03-04T15:50:03Z</time><name>PT6919</name></trkpt>
<trkpt lat="52.038446" lon="05.770099"><ele>36.9</ele><time>2022-03-04T15:50:04Z</time><name>PT6920</name></trkpt>
<trkpt lat="52.038433" lon="05.770096"><ele>36.9</ele><time>2022-03-04T15:50:05Z</time><name>PT6921</name></trkpt>
<trkpt lat="52.038421" lon="05.770090"><ele>36.8</ele><time>2022-03-04T15:50:06Z</time><name>PT6922</name></trkpt>
<trkpt lat="52.038410" lon="05.770091"><ele>36.6</ele><time>2022-03-04T15:50:07Z</time><name>PT6923</name></trkpt>
<trkpt lat="52.038399" lon="05.770089"><ele>36.7</ele><time>2022-03-04T15:50:08Z</time><name>PT6924</name></trkpt>
<trkpt lat="52.038387" lon="05.770087"><ele>36.5</ele><time>2022-03-04T15:50:09Z</time><name>PT6925</name></trkpt>
<trkpt lat="52.038377" lon="05.770086"><ele>36.4</ele><time>2022-03-04T15:50:10Z</time><name>PT6926</name></trkpt>
<trkpt lat="52.038365" lon="05.770087"><ele>36.4</ele><time>2022-03-04T15:50:11Z</time><name>PT6927</name></trkpt>
<trkpt lat="52.038351" lon="05.770085"><ele>36.7</ele><time>2022-03-04T15:50:12Z</time><name>PT6928</name></trkpt>
<trkpt lat="52.038341" lon="05.770085"><ele>36.6</ele><time>2022-03-04T15:50:13Z</time><name>PT6929</name></trkpt>
<trkpt lat="52.038331" lon="05.770083"><ele>36.7</ele><time>2022-03-04T15:50:14Z</time><name>PT6930</name></trkpt>
<trkpt lat="52.038322" lon="05.770082"><ele>36.7</ele><time>2022-03-04T15:50:15Z</time><name>PT6931</name></trkpt>
<trkpt lat="52.038314" lon="05.770083"><ele>36.6</ele><time>2022-03-04T15:50:16Z</time><name>PT6932</name></trkpt>
<trkpt lat="52.038299" lon="05.770070"><ele>36.4</ele><time>2022-03-04T15:50:17Z</time><name>PT6933</name></trkpt>
<trkpt lat="52.038283" lon="05.770064"><ele>36.3</ele><time>2022-03-04T15:50:18Z</time><name>PT6934</name></trkpt>
<trkpt lat="52.038272" lon="05.770062"><ele>36.3</ele><time>2022-03-04T15:50:19Z</time><name>PT6935</name></trkpt>
<trkpt lat="52.038262" lon="05.770060"><ele>36</ele><time>2022-03-04T15:50:20Z</time><name>PT6936</name></trkpt>
<trkpt lat="52.038256" lon="05.770060"><ele>36</ele><time>2022-03-04T15:50:21Z</time><name>PT6937</name></trkpt>
<trkpt lat="52.038248" lon="05.770061"><ele>35.9</ele><time>2022-03-04T15:50:22Z</time><name>PT6938</name></trkpt>
<trkpt lat="52.038237" lon="05.770060"><ele>36.1</ele><time>2022-03-04T15:50:23Z</time><name>PT6939</name></trkpt>
<trkpt lat="52.038224" lon="05.770059"><ele>36.2</ele><time>2022-03-04T15:50:24Z</time><name>PT6940</name></trkpt>
<trkpt lat="52.038213" lon="05.770054"><ele>36.4</ele><time>2022-03-04T15:50:25Z</time><name>PT6941</name></trkpt>
<trkpt lat="52.038203" lon="05.770049"><ele>36.4</ele><time>2022-03-04T15:50:26Z</time><name>PT6942</name></trkpt>
<trkpt lat="52.038196" lon="05.770043"><ele>36.4</ele><time>2022-03-04T15:50:27Z</time><name>PT6943</name></trkpt>
<trkpt lat="52.038189" lon="05.770043"><ele>36.2</ele><time>2022-03-04T15:50:28Z</time><name>PT6944</name></trkpt>
<trkpt lat="52.038179" lon="05.770044"><ele>36.3</ele><time>2022-03-04T15:50:29Z</time><name>PT6945</name></trkpt>
<trkpt lat="52.038170" lon="05.770049"><ele>36.4</ele><time>2022-03-04T15:50:30Z</time><name>PT6946</name></trkpt>
<trkpt lat="52.038159" lon="05.770053"><ele>36.4</ele><time>2022-03-04T15:50:31Z</time><name>PT6947</name></trkpt>
<trkpt lat="52.038148" lon="05.770053"><ele>36.4</ele><time>2022-03-04T15:50:32Z</time><name>PT6948</name></trkpt>
<trkpt lat="52.038138" lon="05.770052"><ele>36.5</ele><time>2022-03-04T15:50:33Z</time><name>PT6949</name></trkpt>
<trkpt lat="52.038131" lon="05.770047"><ele>36.6</ele><time>2022-03-04T15:50:34Z</time><name>PT6950</name></trkpt>
<trkpt lat="52.038124" lon="05.770043"><ele>36.7</ele><time>2022-03-04T15:50:35Z</time><name>PT6951</name></trkpt>
<trkpt lat="52.038116" lon="05.770047"><ele>36.6</ele><time>2022-03-04T15:50:36Z</time><name>PT6952</name></trkpt>
<trkpt lat="52.038106" lon="05.770053"><ele>36.6</ele><time>2022-03-04T15:50:37Z</time><name>PT6953</name></trkpt>
<trkpt lat="52.038095" lon="05.770054"><ele>36.7</ele><time>2022-03-04T15:50:38Z</time><name>PT6954</name></trkpt>
<trkpt lat="52.038081" lon="05.770053"><ele>36.9</ele><time>2022-03-04T15:50:39Z</time><name>PT6955</name></trkpt>
<trkpt lat="52.038069" lon="05.770048"><ele>36.8</ele><time>2022-03-04T15:50:40Z</time><name>PT6956</name></trkpt>
<trkpt lat="52.038058" lon="05.770040"><ele>36.9</ele><time>2022-03-04T15:50:41Z</time><name>PT6957</name></trkpt>
<trkpt lat="52.038050" lon="05.770040"><ele>37</ele><time>2022-03-04T15:50:42Z</time><name>PT6958</name></trkpt>
<trkpt lat="52.038044" lon="05.770040"><ele>37</ele><time>2022-03-04T15:50:43Z</time><name>PT6959</name></trkpt>
<trkpt lat="52.038033" lon="05.770038"><ele>36.9</ele><time>2022-03-04T15:50:44Z</time><name>PT6960</name></trkpt>
<trkpt lat="52.038017" lon="05.770035"><ele>36.9</ele><time>2022-03-04T15:50:45Z</time><name>PT6961</name></trkpt>
<trkpt lat="52.038003" lon="05.770030"><ele>36.7</ele><time>2022-03-04T15:50:46Z</time><name>PT6962</name></trkpt>
<trkpt lat="52.037991" lon="05.770027"><ele>36.8</ele><time>2022-03-04T15:50:47Z</time><name>PT6963</name></trkpt>
<trkpt lat="52.037984" lon="05.770025"><ele>36.7</ele><time>2022-03-04T15:50:48Z</time><name>PT6964</name></trkpt>
<trkpt lat="52.037973" lon="05.770026"><ele>36.7</ele><time>2022-03-04T15:50:49Z</time><name>PT6965</name></trkpt>
<trkpt lat="52.037962" lon="05.770028"><ele>36.9</ele><time>2022-03-04T15:50:50Z</time><name>PT6966</name></trkpt>
<trkpt lat="52.037949" lon="05.770036"><ele>36.9</ele><time>2022-03-04T15:50:51Z</time><name>PT6967</name></trkpt>
<trkpt lat="52.037941" lon="05.770049"><ele>36.9</ele><time>2022-03-04T15:50:52Z</time><name>PT6968</name></trkpt>
<trkpt lat="52.037932" lon="05.770050"><ele>37.1</ele><time>2022-03-04T15:50:53Z</time><name>PT6969</name></trkpt>
<trkpt lat="52.037923" lon="05.770051"><ele>36.9</ele><time>2022-03-04T15:50:54Z</time><name>PT6970</name></trkpt>
<trkpt lat="52.037916" lon="05.770050"><ele>36.9</ele><time>2022-03-04T15:50:55Z</time><name>PT6971</name></trkpt>
<trkpt lat="52.037907" lon="05.770049"><ele>37.1</ele><time>2022-03-04T15:50:56Z</time><name>PT6972</name></trkpt>
<trkpt lat="52.037895" lon="05.770049"><ele>37.1</ele><time>2022-03-04T15:50:57Z</time><name>PT6973</name></trkpt>
<trkpt lat="52.037883" lon="05.770042"><ele>37.1</ele><time>2022-03-04T15:50:58Z</time><name>PT6974</name></trkpt>
<trkpt lat="52.037867" lon="05.770038"><ele>37.2</ele><time>2022-03-04T15:50:59Z</time><name>PT6975</name></trkpt>
<trkpt lat="52.037856" lon="05.770036"><ele>36.9</ele><time>2022-03-04T15:51:00Z</time><name>PT6976</name></trkpt>
<trkpt lat="52.037854" lon="05.770043"><ele>36.9</ele><time>2022-03-04T15:51:01Z</time><name>PT6977</name></trkpt>
<trkpt lat="52.037851" lon="05.770046"><ele>36.9</ele><time>2022-03-04T15:51:02Z</time><name>PT6978</name></trkpt>
<trkpt lat="52.037848" lon="05.770046"><ele>36.9</ele><time>2022-03-04T15:51:03Z</time><name>PT6979</name></trkpt>
<trkpt lat="52.037844" lon="05.770049"><ele>36.9</ele><time>2022-03-04T15:51:04Z</time><name>PT6980</name></trkpt>
<trkpt lat="52.037837" lon="05.770049"><ele>36.8</ele><time>2022-03-04T15:51:05Z</time><name>PT6981</name></trkpt>
<trkpt lat="52.037829" lon="05.770051"><ele>36.8</ele><time>2022-03-04T15:51:06Z</time><name>PT6982</name></trkpt>
<trkpt lat="52.037821" lon="05.770058"><ele>36.8</ele><time>2022-03-04T15:51:07Z</time><name>PT6983</name></trkpt>
<trkpt lat="52.037812" lon="05.770057"><ele>36.9</ele><time>2022-03-04T15:51:08Z</time><name>PT6984</name></trkpt>
<trkpt lat="52.037804" lon="05.770056"><ele>36.9</ele><time>2022-03-04T15:51:09Z</time><name>PT6985</name></trkpt>
<trkpt lat="52.037796" lon="05.770056"><ele>36.9</ele><time>2022-03-04T15:51:10Z</time><name>PT6986</name></trkpt>
<trkpt lat="52.037789" lon="05.770056"><ele>36.8</ele><time>2022-03-04T15:51:11Z</time><name>PT6987</name></trkpt>
<trkpt lat="52.037783" lon="05.770064"><ele>36.7</ele><time>2022-03-04T15:51:12Z</time><name>PT6988</name></trkpt>
<trkpt lat="52.037775" lon="05.770064"><ele>36.7</ele><time>2022-03-04T15:51:13Z</time><name>PT6989</name></trkpt>
<trkpt lat="52.037767" lon="05.770059"><ele>36.9</ele><time>2022-03-04T15:51:14Z</time><name>PT6990</name></trkpt>
<trkpt lat="52.037758" lon="05.770056"><ele>36.9</ele><time>2022-03-04T15:51:15Z</time><name>PT6991</name></trkpt>
<trkpt lat="52.037747" lon="05.770056"><ele>36.9</ele><time>2022-03-04T15:51:16Z</time><name>PT6992</name></trkpt>
<trkpt lat="52.037738" lon="05.770059"><ele>36.9</ele><time>2022-03-04T15:51:17Z</time><name>PT6993</name></trkpt>
<trkpt lat="52.037727" lon="05.770050"><ele>36.9</ele><time>2022-03-04T15:51:18Z</time><name>PT6994</name></trkpt>
<trkpt lat="52.037716" lon="05.770046"><ele>37</ele><time>2022-03-04T15:51:19Z</time><name>PT6995</name></trkpt>
<trkpt lat="52.037704" lon="05.770043"><ele>37.1</ele><time>2022-03-04T15:51:20Z</time><name>PT6996</name></trkpt>
<trkpt lat="52.037697" lon="05.770045"><ele>37.1</ele><time>2022-03-04T15:51:21Z</time><name>PT6997</name></trkpt>
<trkpt lat="52.037687" lon="05.770045"><ele>37.2</ele><time>2022-03-04T15:51:22Z</time><name>PT6998</name></trkpt>
<trkpt lat="52.037678" lon="05.770047"><ele>37.1</ele><time>2022-03-04T15:51:23Z</time><name>PT6999</name></trkpt>
<trkpt lat="52.037665" lon="05.770052"><ele>36.9</ele><time>2022-03-04T15:51:24Z</time><name>PT7000</name></trkpt>
<trkpt lat="52.037661" lon="05.770061"><ele>36.9</ele><time>2022-03-04T15:51:25Z</time><name>PT7001</name></trkpt>
<trkpt lat="52.037652" lon="05.770060"><ele>36.9</ele><time>2022-03-04T15:51:26Z</time><name>PT7002</name></trkpt>
<trkpt lat="52.037637" lon="05.770057"><ele>36.8</ele><time>2022-03-04T15:51:27Z</time><name>PT7003</name></trkpt>
<trkpt lat="52.037627" lon="05.770054"><ele>36.9</ele><time>2022-03-04T15:51:28Z</time><name>PT7004</name></trkpt>
<trkpt lat="52.037618" lon="05.770051"><ele>36.9</ele><time>2022-03-04T15:51:29Z</time><name>PT7005</name></trkpt>
<trkpt lat="52.037605" lon="05.770045"><ele>37</ele><time>2022-03-04T15:51:30Z</time><name>PT7006</name></trkpt>
<trkpt lat="52.037597" lon="05.770043"><ele>37</ele><time>2022-03-04T15:51:31Z</time><name>PT7007</name></trkpt>
<trkpt lat="52.037588" lon="05.770042"><ele>37</ele><time>2022-03-04T15:51:32Z</time><name>PT7008</name></trkpt>
<trkpt lat="52.037579" lon="05.770044"><ele>36.9</ele><time>2022-03-04T15:51:33Z</time><name>PT7009</name></trkpt>
<trkpt lat="52.037569" lon="05.770044"><ele>37</ele><time>2022-03-04T15:51:34Z</time><name>PT7010</name></trkpt>
<trkpt lat="52.037561" lon="05.770042"><ele>36.9</ele><time>2022-03-04T15:51:35Z</time><name>PT7011</name></trkpt>
<trkpt lat="52.037551" lon="05.770042"><ele>36.9</ele><time>2022-03-04T15:51:36Z</time><name>PT7012</name></trkpt>
<trkpt lat="52.037543" lon="05.770038"><ele>37</ele><time>2022-03-04T15:51:37Z</time><name>PT7013</name></trkpt>
<trkpt lat="52.037534" lon="05.770034"><ele>37.1</ele><time>2022-03-04T15:51:38Z</time><name>PT7014</name></trkpt>
<trkpt lat="52.037525" lon="05.770034"><ele>37.2</ele><time>2022-03-04T15:51:39Z</time><name>PT7015</name></trkpt>
<trkpt lat="52.037516" lon="05.770029"><ele>37.2</ele><time>2022-03-04T15:51:40Z</time><name>PT7016</name></trkpt>
<trkpt lat="52.037504" lon="05.770025"><ele>37.3</ele><time>2022-03-04T15:51:41Z</time><name>PT7017</name></trkpt>
<trkpt lat="52.037489" lon="05.770021"><ele>37.3</ele><time>2022-03-04T15:51:42Z</time><name>PT7018</name></trkpt>
<trkpt lat="52.037479" lon="05.770015"><ele>37.1</ele><time>2022-03-04T15:51:43Z</time><name>PT7019</name></trkpt>
<trkpt lat="52.037469" lon="05.770015"><ele>37.1</ele><time>2022-03-04T15:51:44Z</time><name>PT7020</name></trkpt>
<trkpt lat="52.037463" lon="05.770015"><ele>37.3</ele><time>2022-03-04T15:51:45Z</time><name>PT7021</name></trkpt>
<trkpt lat="52.037453" lon="05.770016"><ele>37.3</ele><time>2022-03-04T15:51:46Z</time><name>PT7022</name></trkpt>
<trkpt lat="52.037443" lon="05.770015"><ele>37.5</ele><time>2022-03-04T15:51:47Z</time><name>PT7023</name></trkpt>
<trkpt lat="52.037429" lon="05.770013"><ele>37.7</ele><time>2022-03-04T15:51:48Z</time><name>PT7024</name></trkpt>
<trkpt lat="52.037420" lon="05.770008"><ele>37.7</ele><time>2022-03-04T15:51:49Z</time><name>PT7025</name></trkpt>
<trkpt lat="52.037410" lon="05.770002"><ele>37.5</ele><time>2022-03-04T15:51:50Z</time><name>PT7026</name></trkpt>
<trkpt lat="52.037399" lon="05.769999"><ele>37.3</ele><time>2022-03-04T15:51:51Z</time><name>PT7027</name></trkpt>
<trkpt lat="52.037389" lon="05.769995"><ele>37.3</ele><time>2022-03-04T15:51:52Z</time><name>PT7028</name></trkpt>
<trkpt lat="52.037380" lon="05.769996"><ele>37.1</ele><time>2022-03-04T15:51:53Z</time><name>PT7029</name></trkpt>
<trkpt lat="52.037367" lon="05.769996"><ele>37.2</ele><time>2022-03-04T15:51:54Z</time><name>PT7030</name></trkpt>
<trkpt lat="52.037353" lon="05.769991"><ele>37.3</ele><time>2022-03-04T15:51:55Z</time><name>PT7031</name></trkpt>
<trkpt lat="52.037344" lon="05.769991"><ele>37.5</ele><time>2022-03-04T15:51:56Z</time><name>PT7032</name></trkpt>
<trkpt lat="52.037330" lon="05.769991"><ele>37.7</ele><time>2022-03-04T15:51:57Z</time><name>PT7033</name></trkpt>
<trkpt lat="52.037318" lon="05.769991"><ele>37.8</ele><time>2022-03-04T15:51:58Z</time><name>PT7034</name></trkpt>
<trkpt lat="52.037302" lon="05.769990"><ele>37.8</ele><time>2022-03-04T15:51:59Z</time><name>PT7035</name></trkpt>
<trkpt lat="52.037289" lon="05.769997"><ele>37.7</ele><time>2022-03-04T15:52:00Z</time><name>PT7036</name></trkpt>
<trkpt lat="52.037278" lon="05.770000"><ele>37.5</ele><time>2022-03-04T15:52:01Z</time><name>PT7037</name></trkpt>
<trkpt lat="52.037267" lon="05.770001"><ele>37.4</ele><time>2022-03-04T15:52:02Z</time><name>PT7038</name></trkpt>
<trkpt lat="52.037255" lon="05.770002"><ele>37.3</ele><time>2022-03-04T15:52:03Z</time><name>PT7039</name></trkpt>
<trkpt lat="52.037245" lon="05.770006"><ele>37.3</ele><time>2022-03-04T15:52:04Z</time><name>PT7040</name></trkpt>
<trkpt lat="52.037230" lon="05.770002"><ele>37.3</ele><time>2022-03-04T15:52:05Z</time><name>PT7041</name></trkpt>
<trkpt lat="52.037214" lon="05.769996"><ele>37.5</ele><time>2022-03-04T15:52:06Z</time><name>PT7042</name></trkpt>
<trkpt lat="52.037201" lon="05.769993"><ele>37.5</ele><time>2022-03-04T15:52:07Z</time><name>PT7043</name></trkpt>
<trkpt lat="52.037191" lon="05.769992"><ele>37.6</ele><time>2022-03-04T15:52:08Z</time><name>PT7044</name></trkpt>
<trkpt lat="52.037180" lon="05.769992"><ele>37.6</ele><time>2022-03-04T15:52:09Z</time><name>PT7045</name></trkpt>
<trkpt lat="52.037172" lon="05.769989"><ele>37.6</ele><time>2022-03-04T15:52:10Z</time><name>PT7046</name></trkpt>
<trkpt lat="52.037164" lon="05.769989"><ele>37.6</ele><time>2022-03-04T15:52:11Z</time><name>PT7047</name></trkpt>
<trkpt lat="52.037151" lon="05.769988"><ele>37.6</ele><time>2022-03-04T15:52:12Z</time><name>PT7048</name></trkpt>
<trkpt lat="52.037136" lon="05.769985"><ele>37.6</ele><time>2022-03-04T15:52:13Z</time><name>PT7049</name></trkpt>
<trkpt lat="52.037126" lon="05.769986"><ele>37.6</ele><time>2022-03-04T15:52:14Z</time><name>PT7050</name></trkpt>
<trkpt lat="52.037118" lon="05.769988"><ele>37.6</ele><time>2022-03-04T15:52:15Z</time><name>PT7051</name></trkpt>
<trkpt lat="52.037109" lon="05.769990"><ele>37.7</ele><time>2022-03-04T15:52:16Z</time><name>PT7052</name></trkpt>
<trkpt lat="52.037099" lon="05.769989"><ele>37.7</ele><time>2022-03-04T15:52:17Z</time><name>PT7053</name></trkpt>
<trkpt lat="52.037089" lon="05.769990"><ele>37.6</ele><time>2022-03-04T15:52:18Z</time><name>PT7054</name></trkpt>
<trkpt lat="52.037080" lon="05.769989"><ele>37.5</ele><time>2022-03-04T15:52:19Z</time><name>PT7055</name></trkpt>
<trkpt lat="52.037072" lon="05.769990"><ele>37.4</ele><time>2022-03-04T15:52:20Z</time><name>PT7056</name></trkpt>
<trkpt lat="52.037059" lon="05.769990"><ele>37.4</ele><time>2022-03-04T15:52:21Z</time><name>PT7057</name></trkpt>
<trkpt lat="52.037046" lon="05.769994"><ele>37.4</ele><time>2022-03-04T15:52:22Z</time><name>PT7058</name></trkpt>
<trkpt lat="52.037035" lon="05.769993"><ele>37.4</ele><time>2022-03-04T15:52:23Z</time><name>PT7059</name></trkpt>
<trkpt lat="52.037029" lon="05.769988"><ele>37.5</ele><time>2022-03-04T15:52:24Z</time><name>PT7060</name></trkpt>
<trkpt lat="52.037018" lon="05.769986"><ele>37.5</ele><time>2022-03-04T15:52:25Z</time><name>PT7061</name></trkpt>
<trkpt lat="52.037012" lon="05.769990"><ele>37.5</ele><time>2022-03-04T15:52:26Z</time><name>PT7062</name></trkpt>
<trkpt lat="52.037004" lon="05.769989"><ele>37.7</ele><time>2022-03-04T15:52:27Z</time><name>PT7063</name></trkpt>
<trkpt lat="52.036996" lon="05.769991"><ele>37.6</ele><time>2022-03-04T15:52:28Z</time><name>PT7064</name></trkpt>
<trkpt lat="52.036984" lon="05.769989"><ele>37.8</ele><time>2022-03-04T15:52:29Z</time><name>PT7065</name></trkpt>
<trkpt lat="52.036971" lon="05.769984"><ele>37.8</ele><time>2022-03-04T15:52:30Z</time><name>PT7066</name></trkpt>
<trkpt lat="52.036959" lon="05.769979"><ele>37.8</ele><time>2022-03-04T15:52:31Z</time><name>PT7067</name></trkpt>
<trkpt lat="52.036949" lon="05.769978"><ele>38</ele><time>2022-03-04T15:52:32Z</time><name>PT7068</name></trkpt>
<trkpt lat="52.036940" lon="05.769979"><ele>37.8</ele><time>2022-03-04T15:52:33Z</time><name>PT7069</name></trkpt>
<trkpt lat="52.036927" lon="05.769979"><ele>37.7</ele><time>2022-03-04T15:52:34Z</time><name>PT7070</name></trkpt>
<trkpt lat="52.036915" lon="05.769979"><ele>37.8</ele><time>2022-03-04T15:52:35Z</time><name>PT7071</name></trkpt>
<trkpt lat="52.036905" lon="05.769979"><ele>37.6</ele><time>2022-03-04T15:52:36Z</time><name>PT7072</name></trkpt>
<trkpt lat="52.036898" lon="05.769970"><ele>37.6</ele><time>2022-03-04T15:52:37Z</time><name>PT7073</name></trkpt>
<trkpt lat="52.036890" lon="05.769968"><ele>37.7</ele><time>2022-03-04T15:52:38Z</time><name>PT7074</name></trkpt>
<trkpt lat="52.036879" lon="05.769966"><ele>37.7</ele><time>2022-03-04T15:52:39Z</time><name>PT7075</name></trkpt>
<trkpt lat="52.036869" lon="05.769965"><ele>37.8</ele><time>2022-03-04T15:52:40Z</time><name>PT7076</name></trkpt>
<trkpt lat="52.036859" lon="05.769965"><ele>37.8</ele><time>2022-03-04T15:52:41Z</time><name>PT7077</name></trkpt>
<trkpt lat="52.036849" lon="05.769962"><ele>38.1</ele><time>2022-03-04T15:52:42Z</time><name>PT7078</name></trkpt>
<trkpt lat="52.036841" lon="05.769962"><ele>38</ele><time>2022-03-04T15:52:43Z</time><name>PT7079</name></trkpt>
<trkpt lat="52.036832" lon="05.769959"><ele>37.9</ele><time>2022-03-04T15:52:44Z</time><name>PT7080</name></trkpt>
<trkpt lat="52.036825" lon="05.769957"><ele>37.8</ele><time>2022-03-04T15:52:45Z</time><name>PT7081</name></trkpt>
<trkpt lat="52.036814" lon="05.769955"><ele>37.8</ele><time>2022-03-04T15:52:46Z</time><name>PT7082</name></trkpt>
<trkpt lat="52.036803" lon="05.769957"><ele>37.7</ele><time>2022-03-04T15:52:47Z</time><name>PT7083</name></trkpt>
<trkpt lat="52.036792" lon="05.769957"><ele>37.8</ele><time>2022-03-04T15:52:48Z</time><name>PT7084</name></trkpt>
<trkpt lat="52.036783" lon="05.769955"><ele>37.8</ele><time>2022-03-04T15:52:49Z</time><name>PT7085</name></trkpt>
<trkpt lat="52.036774" lon="05.769954"><ele>37.8</ele><time>2022-03-04T15:52:50Z</time><name>PT7086</name></trkpt>
<trkpt lat="52.036764" lon="05.769953"><ele>37.8</ele><time>2022-03-04T15:52:51Z</time><name>PT7087</name></trkpt>
<trkpt lat="52.036754" lon="05.769951"><ele>37.8</ele><time>2022-03-04T15:52:52Z</time><name>PT7088</name></trkpt>
<trkpt lat="52.036745" lon="05.769948"><ele>37.8</ele><time>2022-03-04T15:52:53Z</time><name>PT7089</name></trkpt>
<trkpt lat="52.036734" lon="05.769946"><ele>37.8</ele><time>2022-03-04T15:52:54Z</time><name>PT7090</name></trkpt>
<trkpt lat="52.036724" lon="05.769946"><ele>37.9</ele><time>2022-03-04T15:52:55Z</time><name>PT7091</name></trkpt>
<trkpt lat="52.036713" lon="05.769947"><ele>37.8</ele><time>2022-03-04T15:52:56Z</time><name>PT7092</name></trkpt>
<trkpt lat="52.036702" lon="05.769948"><ele>37.9</ele><time>2022-03-04T15:52:57Z</time><name>PT7093</name></trkpt>
<trkpt lat="52.036694" lon="05.769952"><ele>38</ele><time>2022-03-04T15:52:58Z</time><name>PT7094</name></trkpt>
<trkpt lat="52.036686" lon="05.769954"><ele>38.1</ele><time>2022-03-04T15:52:59Z</time><name>PT7095</name></trkpt>
<trkpt lat="52.036679" lon="05.769953"><ele>38.2</ele><time>2022-03-04T15:53:00Z</time><name>PT7096</name></trkpt>
<trkpt lat="52.036672" lon="05.769949"><ele>38.3</ele><time>2022-03-04T15:53:01Z</time><name>PT7097</name></trkpt>
<trkpt lat="52.036662" lon="05.769945"><ele>38.3</ele><time>2022-03-04T15:53:02Z</time><name>PT7098</name></trkpt>
<trkpt lat="52.036653" lon="05.769946"><ele>38.3</ele><time>2022-03-04T15:53:03Z</time><name>PT7099</name></trkpt>
<trkpt lat="52.036643" lon="05.769947"><ele>38.2</ele><time>2022-03-04T15:53:04Z</time><name>PT7100</name></trkpt>
<trkpt lat="52.036632" lon="05.769949"><ele>38.2</ele><time>2022-03-04T15:53:05Z</time><name>PT7101</name></trkpt>
<trkpt lat="52.036621" lon="05.769947"><ele>38</ele><time>2022-03-04T15:53:06Z</time><name>PT7102</name></trkpt>
<trkpt lat="52.036611" lon="05.769945"><ele>38.1</ele><time>2022-03-04T15:53:07Z</time><name>PT7103</name></trkpt>
<trkpt lat="52.036600" lon="05.769946"><ele>38.1</ele><time>2022-03-04T15:53:08Z</time><name>PT7104</name></trkpt>
<trkpt lat="52.036591" lon="05.769945"><ele>38</ele><time>2022-03-04T15:53:09Z</time><name>PT7105</name></trkpt>
<trkpt lat="52.036580" lon="05.769944"><ele>37.9</ele><time>2022-03-04T15:53:10Z</time><name>PT7106</name></trkpt>
<trkpt lat="52.036569" lon="05.769943"><ele>38</ele><time>2022-03-04T15:53:11Z</time><name>PT7107</name></trkpt>
<trkpt lat="52.036558" lon="05.769944"><ele>38</ele><time>2022-03-04T15:53:12Z</time><name>PT7108</name></trkpt>
<trkpt lat="52.036548" lon="05.769946"><ele>37.9</ele><time>2022-03-04T15:53:13Z</time><name>PT7109</name></trkpt>
<trkpt lat="52.036537" lon="05.769946"><ele>37.9</ele><time>2022-03-04T15:53:14Z</time><name>PT7110</name></trkpt>
<trkpt lat="52.036525" lon="05.769943"><ele>38</ele><time>2022-03-04T15:53:15Z</time><name>PT7111</name></trkpt>
<trkpt lat="52.036512" lon="05.769945"><ele>38.1</ele><time>2022-03-04T15:53:16Z</time><name>PT7112</name></trkpt>
<trkpt lat="52.036501" lon="05.769946"><ele>38</ele><time>2022-03-04T15:53:17Z</time><name>PT7113</name></trkpt>
<trkpt lat="52.036489" lon="05.769940"><ele>38</ele><time>2022-03-04T15:53:18Z</time><name>PT7114</name></trkpt>
<trkpt lat="52.036478" lon="05.769934"><ele>38.1</ele><time>2022-03-04T15:53:19Z</time><name>PT7115</name></trkpt>
<trkpt lat="52.036467" lon="05.769932"><ele>38</ele><time>2022-03-04T15:53:20Z</time><name>PT7116</name></trkpt>
<trkpt lat="52.036456" lon="05.769930"><ele>37.9</ele><time>2022-03-04T15:53:21Z</time><name>PT7117</name></trkpt>
<trkpt lat="52.036446" lon="05.769932"><ele>37.8</ele><time>2022-03-04T15:53:22Z</time><name>PT7118</name></trkpt>
<trkpt lat="52.036434" lon="05.769930"><ele>38</ele><time>2022-03-04T15:53:23Z</time><name>PT7119</name></trkpt>
<trkpt lat="52.036425" lon="05.769932"><ele>37.9</ele><time>2022-03-04T15:53:24Z</time><name>PT7120</name></trkpt>
<trkpt lat="52.036415" lon="05.769930"><ele>38</ele><time>2022-03-04T15:53:25Z</time><name>PT7121</name></trkpt>
<trkpt lat="52.036404" lon="05.769929"><ele>37.8</ele><time>2022-03-04T15:53:26Z</time><name>PT7122</name></trkpt>
<trkpt lat="52.036396" lon="05.769926"><ele>37.9</ele><time>2022-03-04T15:53:27Z</time><name>PT7123</name></trkpt>
<trkpt lat="52.036387" lon="05.769926"><ele>37.9</ele><time>2022-03-04T15:53:28Z</time><name>PT7124</name></trkpt>
<trkpt lat="52.036379" lon="05.769928"><ele>37.8</ele><time>2022-03-04T15:53:29Z</time><name>PT7125</name></trkpt>
<trkpt lat="52.036368" lon="05.769929"><ele>37.8</ele><time>2022-03-04T15:53:30Z</time><name>PT7126</name></trkpt>
<trkpt lat="52.036358" lon="05.769933"><ele>38</ele><time>2022-03-04T15:53:31Z</time><name>PT7127</name></trkpt>
<trkpt lat="52.036347" lon="05.769934"><ele>38</ele><time>2022-03-04T15:53:32Z</time><name>PT7128</name></trkpt>
<trkpt lat="52.036336" lon="05.769931"><ele>37.9</ele><time>2022-03-04T15:53:33Z</time><name>PT7129</name></trkpt>
<trkpt lat="52.036325" lon="05.769928"><ele>37.8</ele><time>2022-03-04T15:53:34Z</time><name>PT7130</name></trkpt>
<trkpt lat="52.036316" lon="05.769925"><ele>37.8</ele><time>2022-03-04T15:53:35Z</time><name>PT7131</name></trkpt>
<trkpt lat="52.036305" lon="05.769924"><ele>37.8</ele><time>2022-03-04T15:53:36Z</time><name>PT7132</name></trkpt>
<trkpt lat="52.036294" lon="05.769923"><ele>37.8</ele><time>2022-03-04T15:53:37Z</time><name>PT7133</name></trkpt>
<trkpt lat="52.036284" lon="05.769922"><ele>37.9</ele><time>2022-03-04T15:53:38Z</time><name>PT7134</name></trkpt>
<trkpt lat="52.036273" lon="05.769918"><ele>37.9</ele><time>2022-03-04T15:53:39Z</time><name>PT7135</name></trkpt>
<trkpt lat="52.036263" lon="05.769915"><ele>37.8</ele><time>2022-03-04T15:53:40Z</time><name>PT7136</name></trkpt>
<trkpt lat="52.036251" lon="05.769914"><ele>37.8</ele><time>2022-03-04T15:53:41Z</time><name>PT7137</name></trkpt>
<trkpt lat="52.036241" lon="05.769914"><ele>37.9</ele><time>2022-03-04T15:53:42Z</time><name>PT7138</name></trkpt>
<trkpt lat="52.036228" lon="05.769913"><ele>37.9</ele><time>2022-03-04T15:53:43Z</time><name>PT7139</name></trkpt>
<trkpt lat="52.036214" lon="05.769912"><ele>37.8</ele><time>2022-03-04T15:53:44Z</time><name>PT7140</name></trkpt>
<trkpt lat="52.036204" lon="05.769912"><ele>37.9</ele><time>2022-03-04T15:53:45Z</time><name>PT7141</name></trkpt>
<trkpt lat="52.036193" lon="05.769911"><ele>37.9</ele><time>2022-03-04T15:53:46Z</time><name>PT7142</name></trkpt>
<trkpt lat="52.036183" lon="05.769909"><ele>37.9</ele><time>2022-03-04T15:53:47Z</time><name>PT7143</name></trkpt>
<trkpt lat="52.036175" lon="05.769905"><ele>38</ele><time>2022-03-04T15:53:48Z</time><name>PT7144</name></trkpt>
<trkpt lat="52.036167" lon="05.769904"><ele>38.2</ele><time>2022-03-04T15:53:49Z</time><name>PT7145</name></trkpt>
<trkpt lat="52.036158" lon="05.769908"><ele>38</ele><time>2022-03-04T15:53:50Z</time><name>PT7146</name></trkpt>
<trkpt lat="52.036147" lon="05.769907"><ele>37.9</ele><time>2022-03-04T15:53:51Z</time><name>PT7147</name></trkpt>
<trkpt lat="52.036136" lon="05.769905"><ele>37.8</ele><time>2022-03-04T15:53:52Z</time><name>PT7148</name></trkpt>
<trkpt lat="52.036126" lon="05.769903"><ele>37.5</ele><time>2022-03-04T15:53:53Z</time><name>PT7149</name></trkpt>
<trkpt lat="52.036116" lon="05.769900"><ele>37.5</ele><time>2022-03-04T15:53:55Z</time><name>PT7150</name></trkpt>
<trkpt lat="52.036106" lon="05.769899"><ele>37.5</ele><time>2022-03-04T15:53:55Z</time><name>PT7151</name></trkpt>
<trkpt lat="52.036095" lon="05.769900"><ele>37.5</ele><time>2022-03-04T15:53:56Z</time><name>PT7152</name></trkpt>
<trkpt lat="52.036085" lon="05.769900"><ele>37.6</ele><time>2022-03-04T15:53:57Z</time><name>PT7153</name></trkpt>
<trkpt lat="52.036072" lon="05.769896"><ele>37.7</ele><time>2022-03-04T15:53:58Z</time><name>PT7154</name></trkpt>
<trkpt lat="52.036060" lon="05.769897"><ele>37.8</ele><time>2022-03-04T15:53:59Z</time><name>PT7155</name></trkpt>
<trkpt lat="52.036049" lon="05.769898"><ele>37.8</ele><time>2022-03-04T15:54:01Z</time><name>PT7156</name></trkpt>
<trkpt lat="52.036039" lon="05.769901"><ele>38.1</ele><time>2022-03-04T15:54:01Z</time><name>PT7157</name></trkpt>
<trkpt lat="52.036029" lon="05.769900"><ele>38.2</ele><time>2022-03-04T15:54:02Z</time><name>PT7158</name></trkpt>
<trkpt lat="52.036020" lon="05.769896"><ele>38.3</ele><time>2022-03-04T15:54:03Z</time><name>PT7159</name></trkpt>
<trkpt lat="52.036012" lon="05.769895"><ele>38.3</ele><time>2022-03-04T15:54:04Z</time><name>PT7160</name></trkpt>
<trkpt lat="52.036003" lon="05.769897"><ele>38.3</ele><time>2022-03-04T15:54:05Z</time><name>PT7161</name></trkpt>
<trkpt lat="52.035994" lon="05.769899"><ele>38.3</ele><time>2022-03-04T15:54:06Z</time><name>PT7162</name></trkpt>
<trkpt lat="52.035989" lon="05.769901"><ele>38.3</ele><time>2022-03-04T15:54:07Z</time><name>PT7163</name></trkpt>
<trkpt lat="52.035984" lon="05.769902"><ele>38</ele><time>2022-03-04T15:54:08Z</time><name>PT7164</name></trkpt>
<trkpt lat="52.035977" lon="05.769903"><ele>38.1</ele><time>2022-03-04T15:54:10Z</time><name>PT7165</name></trkpt>
<trkpt lat="52.035975" lon="05.769906"><ele>38.1</ele><time>2022-03-04T15:54:10Z</time><name>PT7166</name></trkpt>
<trkpt lat="52.035974" lon="05.769906"><ele>38.1</ele><time>2022-03-04T15:54:11Z</time><name>PT7167</name></trkpt>
<trkpt lat="52.035971" lon="05.769901"><ele>38.2</ele><time>2022-03-04T15:54:12Z</time><name>PT7168</name></trkpt>
<trkpt lat="52.035970" lon="05.769906"><ele>38.3</ele><time>2022-03-04T15:54:50Z</time><name>PT7169</name></trkpt>
<trkpt lat="52.035970" lon="05.769905"><ele>38.2</ele><time>2022-03-04T15:54:51Z</time><name>PT7170</name></trkpt>
<trkpt lat="52.035971" lon="05.769908"><ele>38</ele><time>2022-03-04T15:55:37Z</time><name>PT7171</name></trkpt>
<trkpt lat="52.035974" lon="05.769913"><ele>38.1</ele><time>2022-03-04T15:55:38Z</time><name>PT7172</name></trkpt>
<trkpt lat="52.035974" lon="05.769920"><ele>38.1</ele><time>2022-03-04T15:55:39Z</time><name>PT7173</name></trkpt>
<trkpt lat="52.035974" lon="05.769930"><ele>38</ele><time>2022-03-04T15:55:40Z</time><name>PT7174</name></trkpt>
<trkpt lat="52.035975" lon="05.769935"><ele>38.1</ele><time>2022-03-04T15:55:54Z</time><name>PT7175</name></trkpt>
<trkpt lat="52.035981" lon="05.769931"><ele>38.1</ele><time>2022-03-04T15:55:55Z</time><name>PT7176</name></trkpt>
<trkpt lat="52.035981" lon="05.769932"><ele>38</ele><time>2022-03-04T15:55:56Z</time><name>PT7177</name></trkpt>
<trkpt lat="52.035981" lon="05.769938"><ele>37.6</ele><time>2022-03-04T15:56:12Z</time><name>PT7178</name></trkpt>
<trkpt lat="52.035976" lon="05.769942"><ele>37.5</ele><time>2022-03-04T15:56:13Z</time><name>PT7179</name></trkpt>
<trkpt lat="52.035971" lon="05.769947"><ele>37.5</ele><time>2022-03-04T15:56:14Z</time><name>PT7180</name></trkpt>
<trkpt lat="52.035964" lon="05.769966"><ele>37.8</ele><time>2022-03-04T15:56:15Z</time><name>PT7181</name></trkpt>
<trkpt lat="52.035967" lon="05.769971"><ele>37.8</ele><time>2022-03-04T15:56:16Z</time><name>PT7182</name></trkpt>
<trkpt lat="52.035965" lon="05.769977"><ele>37.8</ele><time>2022-03-04T15:56:17Z</time><name>PT7183</name></trkpt>
<trkpt lat="52.035963" lon="05.769987"><ele>37.6</ele><time>2022-03-04T15:56:20Z</time><name>PT7184</name></trkpt>
<trkpt lat="52.035965" lon="05.770014"><ele>37.7</ele><time>2022-03-04T15:56:21Z</time><name>PT7185</name></trkpt>
<trkpt lat="52.035966" lon="05.770033"><ele>37.7</ele><time>2022-03-04T15:56:22Z</time><name>PT7186</name></trkpt>
<trkpt lat="52.035966" lon="05.770046"><ele>37.5</ele><time>2022-03-04T15:56:23Z</time><name>PT7187</name></trkpt>
<trkpt lat="52.035967" lon="05.770060"><ele>37.6</ele><time>2022-03-04T15:56:24Z</time><name>PT7188</name></trkpt>
<trkpt lat="52.035962" lon="05.770072"><ele>37.5</ele><time>2022-03-04T15:56:25Z</time><name>PT7189</name></trkpt>
<trkpt lat="52.035958" lon="05.770082"><ele>37.4</ele><time>2022-03-04T15:56:26Z</time><name>PT7190</name></trkpt>
<trkpt lat="52.035960" lon="05.770091"><ele>37.5</ele><time>2022-03-04T15:56:27Z</time><name>PT7191</name></trkpt>
<trkpt lat="52.035959" lon="05.770099"><ele>37.5</ele><time>2022-03-04T15:56:28Z</time><name>PT7192</name></trkpt>
<trkpt lat="52.035958" lon="05.770112"><ele>37.5</ele><time>2022-03-04T15:56:29Z</time><name>PT7193</name></trkpt>
<trkpt lat="52.035957" lon="05.770122"><ele>37.5</ele><time>2022-03-04T15:56:30Z</time><name>PT7194</name></trkpt>
<trkpt lat="52.035957" lon="05.770141"><ele>37.5</ele><time>2022-03-04T15:56:31Z</time><name>PT7195</name></trkpt>
<trkpt lat="52.035956" lon="05.770155"><ele>37.6</ele><time>2022-03-04T15:56:32Z</time><name>PT7196</name></trkpt>
<trkpt lat="52.035952" lon="05.770170"><ele>37.8</ele><time>2022-03-04T15:56:33Z</time><name>PT7197</name></trkpt>
<trkpt lat="52.035945" lon="05.770194"><ele>37.7</ele><time>2022-03-04T15:56:34Z</time><name>PT7198</name></trkpt>
<trkpt lat="52.035942" lon="05.770206"><ele>37.7</ele><time>2022-03-04T15:56:35Z</time><name>PT7199</name></trkpt>
<trkpt lat="52.035940" lon="05.770219"><ele>37.5</ele><time>2022-03-04T15:56:37Z</time><name>PT7200</name></trkpt>
<trkpt lat="52.035940" lon="05.770235"><ele>37.5</ele><time>2022-03-04T15:56:37Z</time><name>PT7201</name></trkpt>
<trkpt lat="52.035944" lon="05.770252"><ele>37.6</ele><time>2022-03-04T15:56:38Z</time><name>PT7202</name></trkpt>
<trkpt lat="52.035943" lon="05.770268"><ele>37.8</ele><time>2022-03-04T15:56:39Z</time><name>PT7203</name></trkpt>
<trkpt lat="52.035940" lon="05.770281"><ele>37.9</ele><time>2022-03-04T15:56:40Z</time><name>PT7204</name></trkpt>
<trkpt lat="52.035937" lon="05.770298"><ele>38.1</ele><time>2022-03-04T15:56:41Z</time><name>PT7205</name></trkpt>
<trkpt lat="52.035936" lon="05.770310"><ele>38.1</ele><time>2022-03-04T15:56:42Z</time><name>PT7206</name></trkpt>
<trkpt lat="52.035935" lon="05.770325"><ele>37.9</ele><time>2022-03-04T15:56:43Z</time><name>PT7207</name></trkpt>
<trkpt lat="52.035933" lon="05.770341"><ele>37.8</ele><time>2022-03-04T15:56:44Z</time><name>PT7208</name></trkpt>
<trkpt lat="52.035929" lon="05.770361"><ele>37.7</ele><time>2022-03-04T15:56:45Z</time><name>PT7209</name></trkpt>
<trkpt lat="52.035927" lon="05.770381"><ele>37.8</ele><time>2022-03-04T15:56:46Z</time><name>PT7210</name></trkpt>
<trkpt lat="52.035928" lon="05.770395"><ele>37.8</ele><time>2022-03-04T15:56:47Z</time><name>PT7211</name></trkpt>
<trkpt lat="52.035928" lon="05.770397"><ele>37.8</ele><time>2022-03-04T15:56:48Z</time><name>PT7212</name></trkpt>
<trkpt lat="52.035932" lon="05.770408"><ele>37.8</ele><time>2022-03-04T15:56:49Z</time><name>PT7213</name></trkpt>
<trkpt lat="52.035941" lon="05.770422"><ele>37.7</ele><time>2022-03-04T15:56:50Z</time><name>PT7214</name></trkpt>
<trkpt lat="52.035949" lon="05.770440"><ele>37.7</ele><time>2022-03-04T15:56:51Z</time><name>PT7215</name></trkpt>
<trkpt lat="52.035952" lon="05.770453"><ele>37.7</ele><time>2022-03-04T15:56:52Z</time><name>PT7216</name></trkpt>
<trkpt lat="52.035953" lon="05.770464"><ele>37.8</ele><time>2022-03-04T15:56:53Z</time><name>PT7217</name></trkpt>
<trkpt lat="52.035954" lon="05.770472"><ele>37.9</ele><time>2022-03-04T15:56:54Z</time><name>PT7218</name></trkpt>
<trkpt lat="52.035955" lon="05.770482"><ele>38.1</ele><time>2022-03-04T15:56:55Z</time><name>PT7219</name></trkpt>
<trkpt lat="52.035958" lon="05.770499"><ele>37.8</ele><time>2022-03-04T15:56:56Z</time><name>PT7220</name></trkpt>
<trkpt lat="52.035961" lon="05.770518"><ele>37.8</ele><time>2022-03-04T15:56:57Z</time><name>PT7221</name></trkpt>
<trkpt lat="52.035962" lon="05.770544"><ele>38.1</ele><time>2022-03-04T15:56:58Z</time><name>PT7222</name></trkpt>
<trkpt lat="52.035966" lon="05.770566"><ele>38.1</ele><time>2022-03-04T15:56:59Z</time><name>PT7223</name></trkpt>
<trkpt lat="52.035966" lon="05.770584"><ele>38.2</ele><time>2022-03-04T15:57:00Z</time><name>PT7224</name></trkpt>
<trkpt lat="52.035968" lon="05.770589"><ele>38.3</ele><time>2022-03-04T15:57:01Z</time><name>PT7225</name></trkpt>
<trkpt lat="52.035971" lon="05.770606"><ele>38.2</ele><time>2022-03-04T15:57:02Z</time><name>PT7226</name></trkpt>
<trkpt lat="52.035973" lon="05.770610"><ele>37.9</ele><time>2022-03-04T15:57:03Z</time><name>PT7227</name></trkpt>
<trkpt lat="52.035978" lon="05.770623"><ele>37.9</ele><time>2022-03-04T15:57:04Z</time><name>PT7228</name></trkpt>
<trkpt lat="52.035979" lon="05.770642"><ele>38.1</ele><time>2022-03-04T15:57:05Z</time><name>PT7229</name></trkpt>
<trkpt lat="52.035977" lon="05.770657"><ele>37.9</ele><time>2022-03-04T15:57:06Z</time><name>PT7230</name></trkpt>
<trkpt lat="52.035977" lon="05.770672"><ele>38</ele><time>2022-03-04T15:57:07Z</time><name>PT7231</name></trkpt>
<trkpt lat="52.035980" lon="05.770683"><ele>38</ele><time>2022-03-04T15:57:08Z</time><name>PT7232</name></trkpt>
<trkpt lat="52.035981" lon="05.770694"><ele>38.1</ele><time>2022-03-04T15:57:09Z</time><name>PT7233</name></trkpt>
<trkpt lat="52.035982" lon="05.770712"><ele>38.1</ele><time>2022-03-04T15:57:10Z</time><name>PT7234</name></trkpt>
<trkpt lat="52.035983" lon="05.770739"><ele>38.1</ele><time>2022-03-04T15:57:11Z</time><name>PT7235</name></trkpt>
<trkpt lat="52.035985" lon="05.770771"><ele>38.3</ele><time>2022-03-04T15:57:12Z</time><name>PT7236</name></trkpt>
<trkpt lat="52.035984" lon="05.770793"><ele>38.4</ele><time>2022-03-04T15:57:13Z</time><name>PT7237</name></trkpt>
<trkpt lat="52.035985" lon="05.770814"><ele>38.3</ele><time>2022-03-04T15:57:14Z</time><name>PT7238</name></trkpt>
<trkpt lat="52.035987" lon="05.770831"><ele>38.4</ele><time>2022-03-04T15:57:15Z</time><name>PT7239</name></trkpt>
<trkpt lat="52.035987" lon="05.770849"><ele>38.6</ele><time>2022-03-04T15:57:16Z</time><name>PT7240</name></trkpt>
<trkpt lat="52.035986" lon="05.770871"><ele>38.6</ele><time>2022-03-04T15:57:17Z</time><name>PT7241</name></trkpt>
<trkpt lat="52.035983" lon="05.770885"><ele>38.3</ele><time>2022-03-04T15:57:18Z</time><name>PT7242</name></trkpt>
<trkpt lat="52.035985" lon="05.770906"><ele>38.3</ele><time>2022-03-04T15:57:19Z</time><name>PT7243</name></trkpt>
<trkpt lat="52.035985" lon="05.770915"><ele>38.3</ele><time>2022-03-04T15:57:20Z</time><name>PT7244</name></trkpt>
<trkpt lat="52.035989" lon="05.770931"><ele>38.3</ele><time>2022-03-04T15:57:21Z</time><name>PT7245</name></trkpt>
<trkpt lat="52.035992" lon="05.770953"><ele>38.3</ele><time>2022-03-04T15:57:22Z</time><name>PT7246</name></trkpt>
<trkpt lat="52.035997" lon="05.770966"><ele>38.3</ele><time>2022-03-04T15:57:23Z</time><name>PT7247</name></trkpt>
<trkpt lat="52.035995" lon="05.770982"><ele>38.1</ele><time>2022-03-04T15:57:24Z</time><name>PT7248</name></trkpt>
<trkpt lat="52.035993" lon="05.770993"><ele>38.1</ele><time>2022-03-04T15:57:25Z</time><name>PT7249</name></trkpt>
<trkpt lat="52.035991" lon="05.771010"><ele>38.1</ele><time>2022-03-04T15:57:26Z</time><name>PT7250</name></trkpt>
<trkpt lat="52.035995" lon="05.771026"><ele>38.1</ele><time>2022-03-04T15:57:27Z</time><name>PT7251</name></trkpt>
<trkpt lat="52.035998" lon="05.771044"><ele>38.1</ele><time>2022-03-04T15:57:28Z</time><name>PT7252</name></trkpt>
<trkpt lat="52.035997" lon="05.771060"><ele>38.3</ele><time>2022-03-04T15:57:29Z</time><name>PT7253</name></trkpt>
<trkpt lat="52.035996" lon="05.771071"><ele>38.3</ele><time>2022-03-04T15:57:30Z</time><name>PT7254</name></trkpt>
<trkpt lat="52.035996" lon="05.771082"><ele>38.2</ele><time>2022-03-04T15:57:31Z</time><name>PT7255</name></trkpt>
<trkpt lat="52.035995" lon="05.771089"><ele>38.3</ele><time>2022-03-04T15:57:32Z</time><name>PT7256</name></trkpt>
<trkpt lat="52.035992" lon="05.771113"><ele>38.3</ele><time>2022-03-04T15:57:33Z</time><name>PT7257</name></trkpt>
<trkpt lat="52.035992" lon="05.771127"><ele>38.3</ele><time>2022-03-04T15:57:34Z</time><name>PT7258</name></trkpt>
<trkpt lat="52.035988" lon="05.771138"><ele>38.4</ele><time>2022-03-04T15:57:35Z</time><name>PT7259</name></trkpt>
<trkpt lat="52.035988" lon="05.771148"><ele>38.7</ele><time>2022-03-04T15:57:36Z</time><name>PT7260</name></trkpt>
<trkpt lat="52.035990" lon="05.771166"><ele>38.7</ele><time>2022-03-04T15:57:37Z</time><name>PT7261</name></trkpt>
<trkpt lat="52.035993" lon="05.771177"><ele>38.6</ele><time>2022-03-04T15:57:38Z</time><name>PT7262</name></trkpt>
<trkpt lat="52.036002" lon="05.771180"><ele>38.6</ele><time>2022-03-04T15:57:39Z</time><name>PT7263</name></trkpt>
<trkpt lat="52.036006" lon="05.771194"><ele>38.6</ele><time>2022-03-04T15:57:40Z</time><name>PT7264</name></trkpt>
<trkpt lat="52.036011" lon="05.771209"><ele>38.5</ele><time>2022-03-04T15:57:41Z</time><name>PT7265</name></trkpt>
<trkpt lat="52.036015" lon="05.771228"><ele>38.4</ele><time>2022-03-04T15:57:42Z</time><name>PT7266</name></trkpt>
<trkpt lat="52.036016" lon="05.771238"><ele>38.4</ele><time>2022-03-04T15:57:43Z</time><name>PT7267</name></trkpt>
<trkpt lat="52.036018" lon="05.771248"><ele>38.3</ele><time>2022-03-04T15:57:44Z</time><name>PT7268</name></trkpt>
<trkpt lat="52.036019" lon="05.771257"><ele>38.4</ele><time>2022-03-04T15:57:45Z</time><name>PT7269</name></trkpt>
<trkpt lat="52.036018" lon="05.771276"><ele>38.4</ele><time>2022-03-04T15:57:46Z</time><name>PT7270</name></trkpt>
<trkpt lat="52.036017" lon="05.771297"><ele>38.5</ele><time>2022-03-04T15:57:47Z</time><name>PT7271</name></trkpt>
<trkpt lat="52.036013" lon="05.771316"><ele>38.6</ele><time>2022-03-04T15:57:48Z</time><name>PT7272</name></trkpt>
<trkpt lat="52.036009" lon="05.771327"><ele>38.6</ele><time>2022-03-04T15:57:49Z</time><name>PT7273</name></trkpt>
<trkpt lat="52.036008" lon="05.771342"><ele>38.4</ele><time>2022-03-04T15:57:50Z</time><name>PT7274</name></trkpt>
<trkpt lat="52.036004" lon="05.771364"><ele>38.4</ele><time>2022-03-04T15:57:51Z</time><name>PT7275</name></trkpt>
<trkpt lat="52.036002" lon="05.771386"><ele>38.3</ele><time>2022-03-04T15:57:52Z</time><name>PT7276</name></trkpt>
<trkpt lat="52.035999" lon="05.771404"><ele>38.3</ele><time>2022-03-04T15:57:53Z</time><name>PT7277</name></trkpt>
<trkpt lat="52.035998" lon="05.771418"><ele>38.3</ele><time>2022-03-04T15:57:54Z</time><name>PT7278</name></trkpt>
<trkpt lat="52.036003" lon="05.771433"><ele>38.4</ele><time>2022-03-04T15:57:55Z</time><name>PT7279</name></trkpt>
<trkpt lat="52.036002" lon="05.771455"><ele>38.4</ele><time>2022-03-04T15:57:56Z</time><name>PT7280</name></trkpt>
<trkpt lat="52.036003" lon="05.771478"><ele>38.5</ele><time>2022-03-04T15:57:57Z</time><name>PT7281</name></trkpt>
<trkpt lat="52.036003" lon="05.771489"><ele>38.5</ele><time>2022-03-04T15:57:58Z</time><name>PT7282</name></trkpt>
<trkpt lat="52.036003" lon="05.771501"><ele>38.5</ele><time>2022-03-04T15:57:59Z</time><name>PT7283</name></trkpt>
<trkpt lat="52.036004" lon="05.771514"><ele>38.5</ele><time>2022-03-04T15:58:01Z</time><name>PT7284</name></trkpt>
<trkpt lat="52.036003" lon="05.771539"><ele>38.5</ele><time>2022-03-04T15:58:01Z</time><name>PT7285</name></trkpt>
<trkpt lat="52.036005" lon="05.771559"><ele>38.5</ele><time>2022-03-04T15:58:02Z</time><name>PT7286</name></trkpt>
<trkpt lat="52.036009" lon="05.771576"><ele>38.4</ele><time>2022-03-04T15:58:03Z</time><name>PT7287</name></trkpt>
<trkpt lat="52.036013" lon="05.771588"><ele>38.4</ele><time>2022-03-04T15:58:04Z</time><name>PT7288</name></trkpt>
<trkpt lat="52.036012" lon="05.771603"><ele>38.2</ele><time>2022-03-04T15:58:05Z</time><name>PT7289</name></trkpt>
<trkpt lat="52.036008" lon="05.771622"><ele>38.3</ele><time>2022-03-04T15:58:06Z</time><name>PT7290</name></trkpt>
<trkpt lat="52.036005" lon="05.771639"><ele>38.2</ele><time>2022-03-04T15:58:07Z</time><name>PT7291</name></trkpt>
<trkpt lat="52.036004" lon="05.771656"><ele>38.1</ele><time>2022-03-04T15:58:08Z</time><name>PT7292</name></trkpt>
<trkpt lat="52.036001" lon="05.771678"><ele>38.2</ele><time>2022-03-04T15:58:09Z</time><name>PT7293</name></trkpt>
<trkpt lat="52.035997" lon="05.771700"><ele>38.3</ele><time>2022-03-04T15:58:10Z</time><name>PT7294</name></trkpt>
<trkpt lat="52.035997" lon="05.771717"><ele>38.3</ele><time>2022-03-04T15:58:11Z</time><name>PT7295</name></trkpt>
<trkpt lat="52.035998" lon="05.771729"><ele>38.3</ele><time>2022-03-04T15:58:12Z</time><name>PT7296</name></trkpt>
<trkpt lat="52.035998" lon="05.771738"><ele>38.3</ele><time>2022-03-04T15:58:13Z</time><name>PT7297</name></trkpt>
<trkpt lat="52.035999" lon="05.771748"><ele>38.3</ele><time>2022-03-04T15:58:14Z</time><name>PT7298</name></trkpt>
<trkpt lat="52.036000" lon="05.771766"><ele>38.3</ele><time>2022-03-04T15:58:16Z</time><name>PT7299</name></trkpt>
<trkpt lat="52.036004" lon="05.771781"><ele>38.4</ele><time>2022-03-04T15:58:16Z</time><name>PT7300</name></trkpt>
<trkpt lat="52.036008" lon="05.771793"><ele>38.5</ele><time>2022-03-04T15:58:17Z</time><name>PT7301</name></trkpt>
<trkpt lat="52.036008" lon="05.771806"><ele>38.5</ele><time>2022-03-04T15:58:18Z</time><name>PT7302</name></trkpt>
<trkpt lat="52.036009" lon="05.771822"><ele>38.6</ele><time>2022-03-04T15:58:19Z</time><name>PT7303</name></trkpt>
<trkpt lat="52.036006" lon="05.771835"><ele>38.6</ele><time>2022-03-04T15:58:20Z</time><name>PT7304</name></trkpt>
<trkpt lat="52.036006" lon="05.771852"><ele>38.7</ele><time>2022-03-04T15:58:21Z</time><name>PT7305</name></trkpt>
<trkpt lat="52.036007" lon="05.771864"><ele>38.6</ele><time>2022-03-04T15:58:22Z</time><name>PT7306</name></trkpt>
<trkpt lat="52.036004" lon="05.771874"><ele>38.7</ele><time>2022-03-04T15:58:23Z</time><name>PT7307</name></trkpt>
<trkpt lat="52.036007" lon="05.771890"><ele>38.7</ele><time>2022-03-04T15:58:24Z</time><name>PT7308</name></trkpt>
<trkpt lat="52.036010" lon="05.771904"><ele>38.8</ele><time>2022-03-04T15:58:25Z</time><name>PT7309</name></trkpt>
<trkpt lat="52.036010" lon="05.771918"><ele>38.8</ele><time>2022-03-04T15:58:26Z</time><name>PT7310</name></trkpt>
<trkpt lat="52.036009" lon="05.771938"><ele>38.8</ele><time>2022-03-04T15:58:27Z</time><name>PT7311</name></trkpt>
<trkpt lat="52.036013" lon="05.771952"><ele>38.7</ele><time>2022-03-04T15:58:28Z</time><name>PT7312</name></trkpt>
<trkpt lat="52.036012" lon="05.771972"><ele>38.6</ele><time>2022-03-04T15:58:29Z</time><name>PT7313</name></trkpt>
<trkpt lat="52.036011" lon="05.771991"><ele>38.6</ele><time>2022-03-04T15:58:31Z</time><name>PT7314</name></trkpt>
<trkpt lat="52.036014" lon="05.772004"><ele>38.6</ele><time>2022-03-04T15:58:31Z</time><name>PT7315</name></trkpt>
<trkpt lat="52.036015" lon="05.772028"><ele>38.6</ele><time>2022-03-04T15:58:32Z</time><name>PT7316</name></trkpt>
<trkpt lat="52.036012" lon="05.772045"><ele>38.7</ele><time>2022-03-04T15:58:33Z</time><name>PT7317</name></trkpt>
<trkpt lat="52.036013" lon="05.772062"><ele>38.6</ele><time>2022-03-04T15:58:34Z</time><name>PT7318</name></trkpt>
<trkpt lat="52.036014" lon="05.772080"><ele>38.4</ele><time>2022-03-04T15:58:35Z</time><name>PT7319</name></trkpt>
<trkpt lat="52.036015" lon="05.772094"><ele>38.3</ele><time>2022-03-04T15:58:36Z</time><name>PT7320</name></trkpt>
<trkpt lat="52.036015" lon="05.772107"><ele>38.3</ele><time>2022-03-04T15:58:37Z</time><name>PT7321</name></trkpt>
<trkpt lat="52.036017" lon="05.772124"><ele>38.3</ele><time>2022-03-04T15:58:38Z</time><name>PT7322</name></trkpt>
<trkpt lat="52.036012" lon="05.772142"><ele>38.5</ele><time>2022-03-04T15:58:39Z</time><name>PT7323</name></trkpt>
<trkpt lat="52.036011" lon="05.772154"><ele>38.5</ele><time>2022-03-04T15:58:40Z</time><name>PT7324</name></trkpt>
<trkpt lat="52.036011" lon="05.772165"><ele>38.6</ele><time>2022-03-04T15:58:41Z</time><name>PT7325</name></trkpt>
<trkpt lat="52.036011" lon="05.772175"><ele>38.8</ele><time>2022-03-04T15:58:42Z</time><name>PT7326</name></trkpt>
<trkpt lat="52.036011" lon="05.772188"><ele>39</ele><time>2022-03-04T15:58:43Z</time><name>PT7327</name></trkpt>
<trkpt lat="52.036012" lon="05.772193"><ele>38.9</ele><time>2022-03-04T15:58:44Z</time><name>PT7328</name></trkpt>
<trkpt lat="52.036013" lon="05.772191"><ele>39</ele><time>2022-03-04T15:58:45Z</time><name>PT7329</name></trkpt>
<trkpt lat="52.036013" lon="05.772193"><ele>39</ele><time>2022-03-04T15:58:46Z</time><name>PT7330</name></trkpt>
<trkpt lat="52.036013" lon="05.772195"><ele>39</ele><time>2022-03-04T15:58:47Z</time><name>PT7331</name></trkpt>
<trkpt lat="52.036014" lon="05.772204"><ele>39</ele><time>2022-03-04T15:58:48Z</time><name>PT7332</name></trkpt>
<trkpt lat="52.036013" lon="05.772213"><ele>38.8</ele><time>2022-03-04T15:58:49Z</time><name>PT7333</name></trkpt>
<trkpt lat="52.036015" lon="05.772223"><ele>38.8</ele><time>2022-03-04T15:58:50Z</time><name>PT7334</name></trkpt>
<trkpt lat="52.036015" lon="05.772230"><ele>38.9</ele><time>2022-03-04T15:58:51Z</time><name>PT7335</name></trkpt>
<trkpt lat="52.036017" lon="05.772239"><ele>38.8</ele><time>2022-03-04T15:58:52Z</time><name>PT7336</name></trkpt>
<trkpt lat="52.036020" lon="05.772242"><ele>38.8</ele><time>2022-03-04T15:58:53Z</time><name>PT7337</name></trkpt>
<trkpt lat="52.036023" lon="05.772244"><ele>38.8</ele><time>2022-03-04T15:58:54Z</time><name>PT7338</name></trkpt>
<trkpt lat="52.036025" lon="05.772249"><ele>38.8</ele><time>2022-03-04T15:58:55Z</time><name>PT7339</name></trkpt>
<trkpt lat="52.036033" lon="05.772256"><ele>38.6</ele><time>2022-03-04T15:58:56Z</time><name>PT7340</name></trkpt>
<trkpt lat="52.036039" lon="05.772263"><ele>38.6</ele><time>2022-03-04T15:58:58Z</time><name>PT7341</name></trkpt>
<trkpt lat="52.036048" lon="05.772270"><ele>38.6</ele><time>2022-03-04T15:58:58Z</time><name>PT7342</name></trkpt>
<trkpt lat="52.036058" lon="05.772278"><ele>38.5</ele><time>2022-03-04T15:58:59Z</time><name>PT7343</name></trkpt>
<trkpt lat="52.036062" lon="05.772287"><ele>38.6</ele><time>2022-03-04T15:59:00Z</time><name>PT7344</name></trkpt>
<trkpt lat="52.036071" lon="05.772294"><ele>38.8</ele><time>2022-03-04T15:59:01Z</time><name>PT7345</name></trkpt>
<trkpt lat="52.036079" lon="05.772298"><ele>38.8</ele><time>2022-03-04T15:59:02Z</time><name>PT7346</name></trkpt>
<trkpt lat="52.036088" lon="05.772308"><ele>38.7</ele><time>2022-03-04T15:59:03Z</time><name>PT7347</name></trkpt>
<trkpt lat="52.036095" lon="05.772318"><ele>38.6</ele><time>2022-03-04T15:59:04Z</time><name>PT7348</name></trkpt>
<trkpt lat="52.036104" lon="05.772327"><ele>38.3</ele><time>2022-03-04T15:59:05Z</time><name>PT7349</name></trkpt>
<trkpt lat="52.036112" lon="05.772351"><ele>38.3</ele><time>2022-03-04T15:59:06Z</time><name>PT7350</name></trkpt>
<trkpt lat="52.036115" lon="05.772373"><ele>38.3</ele><time>2022-03-04T15:59:07Z</time><name>PT7351</name></trkpt>
<trkpt lat="52.036117" lon="05.772388"><ele>38.6</ele><time>2022-03-04T15:59:08Z</time><name>PT7352</name></trkpt>
<trkpt lat="52.036118" lon="05.772404"><ele>38.8</ele><time>2022-03-04T15:59:09Z</time><name>PT7353</name></trkpt>
<trkpt lat="52.036120" lon="05.772420"><ele>38.8</ele><time>2022-03-04T15:59:10Z</time><name>PT7354</name></trkpt>
<trkpt lat="52.036123" lon="05.772440"><ele>38.8</ele><time>2022-03-04T15:59:11Z</time><name>PT7355</name></trkpt>
<trkpt lat="52.036130" lon="05.772459"><ele>38.7</ele><time>2022-03-04T15:59:12Z</time><name>PT7356</name></trkpt>
<trkpt lat="52.036134" lon="05.772480"><ele>38.8</ele><time>2022-03-04T15:59:13Z</time><name>PT7357</name></trkpt>
<trkpt lat="52.036134" lon="05.772498"><ele>38.8</ele><time>2022-03-04T15:59:14Z</time><name>PT7358</name></trkpt>
<trkpt lat="52.036134" lon="05.772513"><ele>39.1</ele><time>2022-03-04T15:59:15Z</time><name>PT7359</name></trkpt>
<trkpt lat="52.036137" lon="05.772530"><ele>39.1</ele><time>2022-03-04T15:59:16Z</time><name>PT7360</name></trkpt>
<trkpt lat="52.036140" lon="05.772561"><ele>39.1</ele><time>2022-03-04T15:59:17Z</time><name>PT7361</name></trkpt>
<trkpt lat="52.036142" lon="05.772576"><ele>39.1</ele><time>2022-03-04T15:59:18Z</time><name>PT7362</name></trkpt>
<trkpt lat="52.036146" lon="05.772588"><ele>39.1</ele><time>2022-03-04T15:59:19Z</time><name>PT7363</name></trkpt>
<trkpt lat="52.036151" lon="05.772605"><ele>38.9</ele><time>2022-03-04T15:59:20Z</time><name>PT7364</name></trkpt>
<trkpt lat="52.036153" lon="05.772621"><ele>38.8</ele><time>2022-03-04T15:59:21Z</time><name>PT7365</name></trkpt>
<trkpt lat="52.036155" lon="05.772632"><ele>38.8</ele><time>2022-03-04T15:59:22Z</time><name>PT7366</name></trkpt>
<trkpt lat="52.036159" lon="05.772637"><ele>38.8</ele><time>2022-03-04T15:59:23Z</time><name>PT7367</name></trkpt>
<trkpt lat="52.036162" lon="05.772650"><ele>38.7</ele><time>2022-03-04T15:59:24Z</time><name>PT7368</name></trkpt>
<trkpt lat="52.036162" lon="05.772670"><ele>38.8</ele><time>2022-03-04T15:59:25Z</time><name>PT7369</name></trkpt>
<trkpt lat="52.036167" lon="05.772689"><ele>38.8</ele><time>2022-03-04T15:59:26Z</time><name>PT7370</name></trkpt>
<trkpt lat="52.036170" lon="05.772693"><ele>38.8</ele><time>2022-03-04T15:59:27Z</time><name>PT7371</name></trkpt>
<trkpt lat="52.036171" lon="05.772701"><ele>38.7</ele><time>2022-03-04T15:59:28Z</time><name>PT7372</name></trkpt>
<trkpt lat="52.036174" lon="05.772711"><ele>38.8</ele><time>2022-03-04T15:59:29Z</time><name>PT7373</name></trkpt>
<trkpt lat="52.036179" lon="05.772725"><ele>38.8</ele><time>2022-03-04T15:59:30Z</time><name>PT7374</name></trkpt>
<trkpt lat="52.036186" lon="05.772737"><ele>38.8</ele><time>2022-03-04T15:59:31Z</time><name>PT7375</name></trkpt>
<trkpt lat="52.036189" lon="05.772753"><ele>38.9</ele><time>2022-03-04T15:59:32Z</time><name>PT7376</name></trkpt>
<trkpt lat="52.036189" lon="05.772766"><ele>39</ele><time>2022-03-04T15:59:33Z</time><name>PT7377</name></trkpt>
<trkpt lat="52.036193" lon="05.772778"><ele>38.8</ele><time>2022-03-04T15:59:34Z</time><name>PT7378</name></trkpt>
<trkpt lat="52.036192" lon="05.772796"><ele>38.8</ele><time>2022-03-04T15:59:35Z</time><name>PT7379</name></trkpt>
<trkpt lat="52.036187" lon="05.772818"><ele>38.8</ele><time>2022-03-04T15:59:36Z</time><name>PT7380</name></trkpt>
<trkpt lat="52.036187" lon="05.772834"><ele>38.9</ele><time>2022-03-04T15:59:37Z</time><name>PT7381</name></trkpt>
<trkpt lat="52.036186" lon="05.772848"><ele>38.9</ele><time>2022-03-04T15:59:38Z</time><name>PT7382</name></trkpt>
<trkpt lat="52.036187" lon="05.772865"><ele>39.2</ele><time>2022-03-04T15:59:39Z</time><name>PT7383</name></trkpt>
<trkpt lat="52.036189" lon="05.772876"><ele>39.2</ele><time>2022-03-04T15:59:40Z</time><name>PT7384</name></trkpt>
<trkpt lat="52.036188" lon="05.772887"><ele>39.2</ele><time>2022-03-04T15:59:41Z</time><name>PT7385</name></trkpt>
<trkpt lat="52.036190" lon="05.772910"><ele>39.1</ele><time>2022-03-04T15:59:42Z</time><name>PT7386</name></trkpt>
<trkpt lat="52.036190" lon="05.772931"><ele>39.1</ele><time>2022-03-04T15:59:43Z</time><name>PT7387</name></trkpt>
<trkpt lat="52.036188" lon="05.772948"><ele>39.1</ele><time>2022-03-04T15:59:44Z</time><name>PT7388</name></trkpt>
<trkpt lat="52.036186" lon="05.772965"><ele>39</ele><time>2022-03-04T15:59:45Z</time><name>PT7389</name></trkpt>
<trkpt lat="52.036189" lon="05.772974"><ele>39</ele><time>2022-03-04T15:59:46Z</time><name>PT7390</name></trkpt>
<trkpt lat="52.036192" lon="05.772988"><ele>39.1</ele><time>2022-03-04T15:59:47Z</time><name>PT7391</name></trkpt>
<trkpt lat="52.036198" lon="05.773008"><ele>39.1</ele><time>2022-03-04T15:59:48Z</time><name>PT7392</name></trkpt>
<trkpt lat="52.036204" lon="05.773033"><ele>38.9</ele><time>2022-03-04T15:59:49Z</time><name>PT7393</name></trkpt>
<trkpt lat="52.036207" lon="05.773050"><ele>38.8</ele><time>2022-03-04T15:59:50Z</time><name>PT7394</name></trkpt>
<trkpt lat="52.036206" lon="05.773072"><ele>38.8</ele><time>2022-03-04T15:59:51Z</time><name>PT7395</name></trkpt>
<trkpt lat="52.036206" lon="05.773084"><ele>38.8</ele><time>2022-03-04T15:59:52Z</time><name>PT7396</name></trkpt>
<trkpt lat="52.036207" lon="05.773091"><ele>38.7</ele><time>2022-03-04T15:59:53Z</time><name>PT7397</name></trkpt>
<trkpt lat="52.036210" lon="05.773098"><ele>38.8</ele><time>2022-03-04T15:59:54Z</time><name>PT7398</name></trkpt>
<trkpt lat="52.036211" lon="05.773119"><ele>38.7</ele><time>2022-03-04T15:59:55Z</time><name>PT7399</name></trkpt>
<trkpt lat="52.036212" lon="05.773149"><ele>38.8</ele><time>2022-03-04T15:59:56Z</time><name>PT7400</name></trkpt>
<trkpt lat="52.036215" lon="05.773172"><ele>38.8</ele><time>2022-03-04T15:59:57Z</time><name>PT7401</name></trkpt>
<trkpt lat="52.036215" lon="05.773187"><ele>38.8</ele><time>2022-03-04T15:59:58Z</time><name>PT7402</name></trkpt>
<trkpt lat="52.036217" lon="05.773201"><ele>38.8</ele><time>2022-03-04T15:59:59Z</time><name>PT7403</name></trkpt>
<trkpt lat="52.036214" lon="05.773214"><ele>39</ele><time>2022-03-04T16:00:00Z</time><name>PT7404</name></trkpt>
<trkpt lat="52.036215" lon="05.773228"><ele>39.2</ele><time>2022-03-04T16:00:01Z</time><name>PT7405</name></trkpt>
<trkpt lat="52.036213" lon="05.773249"><ele>39.2</ele><time>2022-03-04T16:00:02Z</time><name>PT7406</name></trkpt>
<trkpt lat="52.036213" lon="05.773269"><ele>39.3</ele><time>2022-03-04T16:00:03Z</time><name>PT7407</name></trkpt>
<trkpt lat="52.036211" lon="05.773297"><ele>39.4</ele><time>2022-03-04T16:00:04Z</time><name>PT7408</name></trkpt>
<trkpt lat="52.036210" lon="05.773319"><ele>39.5</ele><time>2022-03-04T16:00:05Z</time><name>PT7409</name></trkpt>
<trkpt lat="52.036213" lon="05.773336"><ele>39.3</ele><time>2022-03-04T16:00:06Z</time><name>PT7410</name></trkpt>
<trkpt lat="52.036216" lon="05.773350"><ele>39.4</ele><time>2022-03-04T16:00:07Z</time><name>PT7411</name></trkpt>
<trkpt lat="52.036219" lon="05.773372"><ele>39.2</ele><time>2022-03-04T16:00:08Z</time><name>PT7412</name></trkpt>
<trkpt lat="52.036225" lon="05.773395"><ele>39.2</ele><time>2022-03-04T16:00:09Z</time><name>PT7413</name></trkpt>
<trkpt lat="52.036228" lon="05.773420"><ele>39.1</ele><time>2022-03-04T16:00:10Z</time><name>PT7414</name></trkpt>
<trkpt lat="52.036232" lon="05.773439"><ele>39.2</ele><time>2022-03-04T16:00:11Z</time><name>PT7415</name></trkpt>
<trkpt lat="52.036231" lon="05.773469"><ele>39.1</ele><time>2022-03-04T16:00:12Z</time><name>PT7416</name></trkpt>
<trkpt lat="52.036229" lon="05.773491"><ele>39</ele><time>2022-03-04T16:00:13Z</time><name>PT7417</name></trkpt>
<trkpt lat="52.036229" lon="05.773507"><ele>39.2</ele><time>2022-03-04T16:00:14Z</time><name>PT7418</name></trkpt>
<trkpt lat="52.036228" lon="05.773514"><ele>39.2</ele><time>2022-03-04T16:00:15Z</time><name>PT7419</name></trkpt>
<trkpt lat="52.036227" lon="05.773530"><ele>39.1</ele><time>2022-03-04T16:00:16Z</time><name>PT7420</name></trkpt>
<trkpt lat="52.036225" lon="05.773555"><ele>39.2</ele><time>2022-03-04T16:00:17Z</time><name>PT7421</name></trkpt>
<trkpt lat="52.036223" lon="05.773578"><ele>39.1</ele><time>2022-03-04T16:00:19Z</time><name>PT7422</name></trkpt>
<trkpt lat="52.036222" lon="05.773593"><ele>39.1</ele><time>2022-03-04T16:00:19Z</time><name>PT7423</name></trkpt>
<trkpt lat="52.036222" lon="05.773607"><ele>39.2</ele><time>2022-03-04T16:00:20Z</time><name>PT7424</name></trkpt>
<trkpt lat="52.036220" lon="05.773613"><ele>39.2</ele><time>2022-03-04T16:00:21Z</time><name>PT7425</name></trkpt>
<trkpt lat="52.036219" lon="05.773619"><ele>39.2</ele><time>2022-03-04T16:00:22Z</time><name>PT7426</name></trkpt>
<trkpt lat="52.036223" lon="05.773636"><ele>39.3</ele><time>2022-03-04T16:00:23Z</time><name>PT7427</name></trkpt>
<trkpt lat="52.036228" lon="05.773649"><ele>39.4</ele><time>2022-03-04T16:00:24Z</time><name>PT7428</name></trkpt>
<trkpt lat="52.036230" lon="05.773667"><ele>39.3</ele><time>2022-03-04T16:00:25Z</time><name>PT7429</name></trkpt>
<trkpt lat="52.036234" lon="05.773683"><ele>39.5</ele><time>2022-03-04T16:00:26Z</time><name>PT7430</name></trkpt>
<trkpt lat="52.036236" lon="05.773694"><ele>39.5</ele><time>2022-03-04T16:00:27Z</time><name>PT7431</name></trkpt>
<trkpt lat="52.036238" lon="05.773710"><ele>39.6</ele><time>2022-03-04T16:00:28Z</time><name>PT7432</name></trkpt>
<trkpt lat="52.036240" lon="05.773720"><ele>39.5</ele><time>2022-03-04T16:00:29Z</time><name>PT7433</name></trkpt>
<trkpt lat="52.036246" lon="05.773734"><ele>39.4</ele><time>2022-03-04T16:00:30Z</time><name>PT7434</name></trkpt>
<trkpt lat="52.036250" lon="05.773748"><ele>39.3</ele><time>2022-03-04T16:00:31Z</time><name>PT7435</name></trkpt>
<trkpt lat="52.036253" lon="05.773766"><ele>39.5</ele><time>2022-03-04T16:00:32Z</time><name>PT7436</name></trkpt>
<trkpt lat="52.036252" lon="05.773785"><ele>39.4</ele><time>2022-03-04T16:00:33Z</time><name>PT7437</name></trkpt>
<trkpt lat="52.036251" lon="05.773801"><ele>39.6</ele><time>2022-03-04T16:00:34Z</time><name>PT7438</name></trkpt>
<trkpt lat="52.036248" lon="05.773815"><ele>39.5</ele><time>2022-03-04T16:00:35Z</time><name>PT7439</name></trkpt>
<trkpt lat="52.036245" lon="05.773823"><ele>39.7</ele><time>2022-03-04T16:00:36Z</time><name>PT7440</name></trkpt>
<trkpt lat="52.036244" lon="05.773837"><ele>39.7</ele><time>2022-03-04T16:00:37Z</time><name>PT7441</name></trkpt>
<trkpt lat="52.036246" lon="05.773859"><ele>39.7</ele><time>2022-03-04T16:00:38Z</time><name>PT7442</name></trkpt>
<trkpt lat="52.036245" lon="05.773882"><ele>39.7</ele><time>2022-03-04T16:00:39Z</time><name>PT7443</name></trkpt>
<trkpt lat="52.036247" lon="05.773898"><ele>39.7</ele><time>2022-03-04T16:00:40Z</time><name>PT7444</name></trkpt>
<trkpt lat="52.036249" lon="05.773906"><ele>39.7</ele><time>2022-03-04T16:00:41Z</time><name>PT7445</name></trkpt>
<trkpt lat="52.036252" lon="05.773916"><ele>39.7</ele><time>2022-03-04T16:00:42Z</time><name>PT7446</name></trkpt>
<trkpt lat="52.036256" lon="05.773927"><ele>39.7</ele><time>2022-03-04T16:00:43Z</time><name>PT7447</name></trkpt>
<trkpt lat="52.036261" lon="05.773944"><ele>39.7</ele><time>2022-03-04T16:00:44Z</time><name>PT7448</name></trkpt>
<trkpt lat="52.036264" lon="05.773966"><ele>39.8</ele><time>2022-03-04T16:00:45Z</time><name>PT7449</name></trkpt>
<trkpt lat="52.036261" lon="05.773997"><ele>39.8</ele><time>2022-03-04T16:00:46Z</time><name>PT7450</name></trkpt>
<trkpt lat="52.036259" lon="05.774014"><ele>39.8</ele><time>2022-03-04T16:00:47Z</time><name>PT7451</name></trkpt>
<trkpt lat="52.036260" lon="05.774029"><ele>39.9</ele><time>2022-03-04T16:00:48Z</time><name>PT7452</name></trkpt>
<trkpt lat="52.036260" lon="05.774035"><ele>39.9</ele><time>2022-03-04T16:00:49Z</time><name>PT7453</name></trkpt>
<trkpt lat="52.036258" lon="05.774035"><ele>39.7</ele><time>2022-03-04T16:00:50Z</time><name>PT7454</name></trkpt>
<trkpt lat="52.036258" lon="05.774044"><ele>39.8</ele><time>2022-03-04T16:00:51Z</time><name>PT7455</name></trkpt>
<trkpt lat="52.036261" lon="05.774066"><ele>39.7</ele><time>2022-03-04T16:00:52Z</time><name>PT7456</name></trkpt>
<trkpt lat="52.036262" lon="05.774096"><ele>39.7</ele><time>2022-03-04T16:00:53Z</time><name>PT7457</name></trkpt>
<trkpt lat="52.036263" lon="05.774122"><ele>39.7</ele><time>2022-03-04T16:00:54Z</time><name>PT7458</name></trkpt>
<trkpt lat="52.036264" lon="05.774138"><ele>39.8</ele><time>2022-03-04T16:00:55Z</time><name>PT7459</name></trkpt>
<trkpt lat="52.036267" lon="05.774153"><ele>39.7</ele><time>2022-03-04T16:00:56Z</time><name>PT7460</name></trkpt>
<trkpt lat="52.036268" lon="05.774168"><ele>39.8</ele><time>2022-03-04T16:00:57Z</time><name>PT7461</name></trkpt>
<trkpt lat="52.036270" lon="05.774179"><ele>39.8</ele><time>2022-03-04T16:00:58Z</time><name>PT7462</name></trkpt>
<trkpt lat="52.036274" lon="05.774191"><ele>39.9</ele><time>2022-03-04T16:00:59Z</time><name>PT7463</name></trkpt>
<trkpt lat="52.036276" lon="05.774216"><ele>39.9</ele><time>2022-03-04T16:01:00Z</time><name>PT7464</name></trkpt>
<trkpt lat="52.036277" lon="05.774244"><ele>40</ele><time>2022-03-04T16:01:01Z</time><name>PT7465</name></trkpt>
<trkpt lat="52.036278" lon="05.774270"><ele>40</ele><time>2022-03-04T16:01:02Z</time><name>PT7466</name></trkpt>
<trkpt lat="52.036283" lon="05.774290"><ele>39.9</ele><time>2022-03-04T16:01:03Z</time><name>PT7467</name></trkpt>
<trkpt lat="52.036285" lon="05.774306"><ele>39.9</ele><time>2022-03-04T16:01:04Z</time><name>PT7468</name></trkpt>
<trkpt lat="52.036284" lon="05.774323"><ele>39.8</ele><time>2022-03-04T16:01:05Z</time><name>PT7469</name></trkpt>
<trkpt lat="52.036286" lon="05.774334"><ele>39.7</ele><time>2022-03-04T16:01:06Z</time><name>PT7470</name></trkpt>
<trkpt lat="52.036288" lon="05.774349"><ele>39.8</ele><time>2022-03-04T16:01:07Z</time><name>PT7471</name></trkpt>
<trkpt lat="52.036288" lon="05.774364"><ele>39.6</ele><time>2022-03-04T16:01:08Z</time><name>PT7472</name></trkpt>
<trkpt lat="52.036287" lon="05.774378"><ele>39.6</ele><time>2022-03-04T16:01:09Z</time><name>PT7473</name></trkpt>
<trkpt lat="52.036287" lon="05.774388"><ele>39.6</ele><time>2022-03-04T16:01:10Z</time><name>PT7474</name></trkpt>
<trkpt lat="52.036290" lon="05.774398"><ele>39.7</ele><time>2022-03-04T16:01:11Z</time><name>PT7475</name></trkpt>
<trkpt lat="52.036292" lon="05.774419"><ele>39.7</ele><time>2022-03-04T16:01:12Z</time><name>PT7476</name></trkpt>
<trkpt lat="52.036295" lon="05.774439"><ele>39.9</ele><time>2022-03-04T16:01:13Z</time><name>PT7477</name></trkpt>
<trkpt lat="52.036304" lon="05.774468"><ele>39.8</ele><time>2022-03-04T16:01:14Z</time><name>PT7478</name></trkpt>
<trkpt lat="52.036310" lon="05.774490"><ele>40</ele><time>2022-03-04T16:01:15Z</time><name>PT7479</name></trkpt>
<trkpt lat="52.036313" lon="05.774504"><ele>40</ele><time>2022-03-04T16:01:16Z</time><name>PT7480</name></trkpt>
<trkpt lat="52.036315" lon="05.774518"><ele>39.9</ele><time>2022-03-04T16:01:17Z</time><name>PT7481</name></trkpt>
<trkpt lat="52.036316" lon="05.774532"><ele>39.8</ele><time>2022-03-04T16:01:18Z</time><name>PT7482</name></trkpt>
<trkpt lat="52.036320" lon="05.774548"><ele>39.8</ele><time>2022-03-04T16:01:19Z</time><name>PT7483</name></trkpt>
<trkpt lat="52.036323" lon="05.774568"><ele>39.7</ele><time>2022-03-04T16:01:20Z</time><name>PT7484</name></trkpt>
<trkpt lat="52.036322" lon="05.774593"><ele>39.7</ele><time>2022-03-04T16:01:21Z</time><name>PT7485</name></trkpt>
<trkpt lat="52.036321" lon="05.774616"><ele>39.8</ele><time>2022-03-04T16:01:22Z</time><name>PT7486</name></trkpt>
<trkpt lat="52.036319" lon="05.774632"><ele>39.7</ele><time>2022-03-04T16:01:23Z</time><name>PT7487</name></trkpt>
<trkpt lat="52.036317" lon="05.774652"><ele>39.9</ele><time>2022-03-04T16:01:24Z</time><name>PT7488</name></trkpt>
<trkpt lat="52.036320" lon="05.774661"><ele>39.8</ele><time>2022-03-04T16:01:25Z</time><name>PT7489</name></trkpt>
<trkpt lat="52.036322" lon="05.774676"><ele>39.8</ele><time>2022-03-04T16:01:26Z</time><name>PT7490</name></trkpt>
<trkpt lat="52.036324" lon="05.774696"><ele>39.7</ele><time>2022-03-04T16:01:27Z</time><name>PT7491</name></trkpt>
<trkpt lat="52.036326" lon="05.774716"><ele>39.8</ele><time>2022-03-04T16:01:28Z</time><name>PT7492</name></trkpt>
<trkpt lat="52.036330" lon="05.774724"><ele>39.7</ele><time>2022-03-04T16:01:29Z</time><name>PT7493</name></trkpt>
<trkpt lat="52.036333" lon="05.774727"><ele>39.8</ele><time>2022-03-04T16:01:30Z</time><name>PT7494</name></trkpt>
<trkpt lat="52.036338" lon="05.774741"><ele>39.9</ele><time>2022-03-04T16:01:31Z</time><name>PT7495</name></trkpt>
<trkpt lat="52.036337" lon="05.774765"><ele>39.9</ele><time>2022-03-04T16:01:32Z</time><name>PT7496</name></trkpt>
<trkpt lat="52.036335" lon="05.774781"><ele>39.8</ele><time>2022-03-04T16:01:33Z</time><name>PT7497</name></trkpt>
<trkpt lat="52.036334" lon="05.774792"><ele>39.9</ele><time>2022-03-04T16:01:34Z</time><name>PT7498</name></trkpt>
<trkpt lat="52.036338" lon="05.774799"><ele>39.9</ele><time>2022-03-04T16:01:35Z</time><name>PT7499</name></trkpt>
<trkpt lat="52.036341" lon="05.774807"><ele>40</ele><time>2022-03-04T16:01:36Z</time><name>PT7500</name></trkpt>
<trkpt lat="52.036340" lon="05.774827"><ele>40.1</ele><time>2022-03-04T16:01:37Z</time><name>PT7501</name></trkpt>
<trkpt lat="52.036339" lon="05.774845"><ele>40</ele><time>2022-03-04T16:01:38Z</time><name>PT7502</name></trkpt>
<trkpt lat="52.036341" lon="05.774856"><ele>39.8</ele><time>2022-03-04T16:01:39Z</time><name>PT7503</name></trkpt>
<trkpt lat="52.036343" lon="05.774869"><ele>39.8</ele><time>2022-03-04T16:01:40Z</time><name>PT7504</name></trkpt>
<trkpt lat="52.036347" lon="05.774888"><ele>39.7</ele><time>2022-03-04T16:01:41Z</time><name>PT7505</name></trkpt>
<trkpt lat="52.036350" lon="05.774924"><ele>39.7</ele><time>2022-03-04T16:01:42Z</time><name>PT7506</name></trkpt>
<trkpt lat="52.036351" lon="05.774939"><ele>39.7</ele><time>2022-03-04T16:01:43Z</time><name>PT7507</name></trkpt>
<trkpt lat="52.036352" lon="05.774949"><ele>39.8</ele><time>2022-03-04T16:01:44Z</time><name>PT7508</name></trkpt>
<trkpt lat="52.036351" lon="05.774949"><ele>40</ele><time>2022-03-04T16:01:45Z</time><name>PT7509</name></trkpt>
<trkpt lat="52.036350" lon="05.774956"><ele>39.9</ele><time>2022-03-04T16:01:46Z</time><name>PT7510</name></trkpt>
<trkpt lat="52.036350" lon="05.774975"><ele>39.8</ele><time>2022-03-04T16:01:47Z</time><name>PT7511</name></trkpt>
<trkpt lat="52.036352" lon="05.774991"><ele>40</ele><time>2022-03-04T16:01:48Z</time><name>PT7512</name></trkpt>
<trkpt lat="52.036358" lon="05.775010"><ele>40.1</ele><time>2022-03-04T16:01:49Z</time><name>PT7513</name></trkpt>
<trkpt lat="52.036360" lon="05.775033"><ele>39.9</ele><time>2022-03-04T16:01:50Z</time><name>PT7514</name></trkpt>
<trkpt lat="52.036362" lon="05.775047"><ele>39.9</ele><time>2022-03-04T16:01:51Z</time><name>PT7515</name></trkpt>
<trkpt lat="52.036366" lon="05.775059"><ele>39.9</ele><time>2022-03-04T16:01:52Z</time><name>PT7516</name></trkpt>
<trkpt lat="52.036369" lon="05.775069"><ele>40</ele><time>2022-03-04T16:01:53Z</time><name>PT7517</name></trkpt>
<trkpt lat="52.036373" lon="05.775094"><ele>39.9</ele><time>2022-03-04T16:01:54Z</time><name>PT7518</name></trkpt>
<trkpt lat="52.036378" lon="05.775126"><ele>40</ele><time>2022-03-04T16:01:55Z</time><name>PT7519</name></trkpt>
<trkpt lat="52.036380" lon="05.775142"><ele>40.1</ele><time>2022-03-04T16:01:56Z</time><name>PT7520</name></trkpt>
<trkpt lat="52.036379" lon="05.775159"><ele>39.9</ele><time>2022-03-04T16:01:57Z</time><name>PT7521</name></trkpt>
<trkpt lat="52.036378" lon="05.775171"><ele>39.9</ele><time>2022-03-04T16:01:58Z</time><name>PT7522</name></trkpt>
<trkpt lat="52.036380" lon="05.775180"><ele>40</ele><time>2022-03-04T16:01:59Z</time><name>PT7523</name></trkpt>
<trkpt lat="52.036383" lon="05.775197"><ele>40</ele><time>2022-03-04T16:02:00Z</time><name>PT7524</name></trkpt>
<trkpt lat="52.036383" lon="05.775215"><ele>39.9</ele><time>2022-03-04T16:02:01Z</time><name>PT7525</name></trkpt>
<trkpt lat="52.036392" lon="05.775225"><ele>40</ele><time>2022-03-04T16:02:02Z</time><name>PT7526</name></trkpt>
<trkpt lat="52.036396" lon="05.775238"><ele>39.9</ele><time>2022-03-04T16:02:03Z</time><name>PT7527</name></trkpt>
<trkpt lat="52.036396" lon="05.775249"><ele>39.8</ele><time>2022-03-04T16:02:04Z</time><name>PT7528</name></trkpt>
<trkpt lat="52.036397" lon="05.775267"><ele>39.9</ele><time>2022-03-04T16:02:05Z</time><name>PT7529</name></trkpt>
<trkpt lat="52.036398" lon="05.775282"><ele>40</ele><time>2022-03-04T16:02:06Z</time><name>PT7530</name></trkpt>
<trkpt lat="52.036401" lon="05.775297"><ele>39.8</ele><time>2022-03-04T16:02:07Z</time><name>PT7531</name></trkpt>
<trkpt lat="52.036407" lon="05.775317"><ele>39.8</ele><time>2022-03-04T16:02:08Z</time><name>PT7532</name></trkpt>
<trkpt lat="52.036410" lon="05.775333"><ele>39.8</ele><time>2022-03-04T16:02:09Z</time><name>PT7533</name></trkpt>
<trkpt lat="52.036409" lon="05.775353"><ele>39.8</ele><time>2022-03-04T16:02:10Z</time><name>PT7534</name></trkpt>
<trkpt lat="52.036409" lon="05.775370"><ele>39.7</ele><time>2022-03-04T16:02:11Z</time><name>PT7535</name></trkpt>
<trkpt lat="52.036413" lon="05.775386"><ele>39.7</ele><time>2022-03-04T16:02:12Z</time><name>PT7536</name></trkpt>
<trkpt lat="52.036416" lon="05.775402"><ele>39.8</ele><time>2022-03-04T16:02:13Z</time><name>PT7537</name></trkpt>
<trkpt lat="52.036414" lon="05.775420"><ele>39.9</ele><time>2022-03-04T16:02:14Z</time><name>PT7538</name></trkpt>
<trkpt lat="52.036413" lon="05.775448"><ele>39.9</ele><time>2022-03-04T16:02:15Z</time><name>PT7539</name></trkpt>
<trkpt lat="52.036412" lon="05.775466"><ele>40</ele><time>2022-03-04T16:02:16Z</time><name>PT7540</name></trkpt>
<trkpt lat="52.036410" lon="05.775481"><ele>39.9</ele><time>2022-03-04T16:02:17Z</time><name>PT7541</name></trkpt>
<trkpt lat="52.036412" lon="05.775493"><ele>39.7</ele><time>2022-03-04T16:02:18Z</time><name>PT7542</name></trkpt>
<trkpt lat="52.036415" lon="05.775508"><ele>39.7</ele><time>2022-03-04T16:02:19Z</time><name>PT7543</name></trkpt>
<trkpt lat="52.036412" lon="05.775524"><ele>39.7</ele><time>2022-03-04T16:02:20Z</time><name>PT7544</name></trkpt>
<trkpt lat="52.036411" lon="05.775557"><ele>39.7</ele><time>2022-03-04T16:02:21Z</time><name>PT7545</name></trkpt>
<trkpt lat="52.036409" lon="05.775581"><ele>39.7</ele><time>2022-03-04T16:02:22Z</time><name>PT7546</name></trkpt>
<trkpt lat="52.036411" lon="05.775596"><ele>39.9</ele><time>2022-03-04T16:02:23Z</time><name>PT7547</name></trkpt>
<trkpt lat="52.036413" lon="05.775615"><ele>39.9</ele><time>2022-03-04T16:02:24Z</time><name>PT7548</name></trkpt>
<trkpt lat="52.036414" lon="05.775624"><ele>39.9</ele><time>2022-03-04T16:02:25Z</time><name>PT7549</name></trkpt>
<trkpt lat="52.036413" lon="05.775638"><ele>39.9</ele><time>2022-03-04T16:02:26Z</time><name>PT7550</name></trkpt>
<trkpt lat="52.036410" lon="05.775654"><ele>39.8</ele><time>2022-03-04T16:02:27Z</time><name>PT7551</name></trkpt>
<trkpt lat="52.036410" lon="05.775673"><ele>39.8</ele><time>2022-03-04T16:02:28Z</time><name>PT7552</name></trkpt>
<trkpt lat="52.036409" lon="05.775682"><ele>39.9</ele><time>2022-03-04T16:02:29Z</time><name>PT7553</name></trkpt>
<trkpt lat="52.036411" lon="05.775706"><ele>40</ele><time>2022-03-04T16:02:30Z</time><name>PT7554</name></trkpt>
<trkpt lat="52.036410" lon="05.775733"><ele>40.1</ele><time>2022-03-04T16:02:31Z</time><name>PT7555</name></trkpt>
<trkpt lat="52.036410" lon="05.775754"><ele>40</ele><time>2022-03-04T16:02:32Z</time><name>PT7556</name></trkpt>
<trkpt lat="52.036411" lon="05.775777"><ele>40.1</ele><time>2022-03-04T16:02:33Z</time><name>PT7557</name></trkpt>
<trkpt lat="52.036414" lon="05.775795"><ele>40.2</ele><time>2022-03-04T16:02:34Z</time><name>PT7558</name></trkpt>
<trkpt lat="52.036418" lon="05.775810"><ele>40.2</ele><time>2022-03-04T16:02:35Z</time><name>PT7559</name></trkpt>
<trkpt lat="52.036417" lon="05.775820"><ele>40.5</ele><time>2022-03-04T16:02:36Z</time><name>PT7560</name></trkpt>
<trkpt lat="52.036416" lon="05.775837"><ele>40.4</ele><time>2022-03-04T16:02:37Z</time><name>PT7561</name></trkpt>
<trkpt lat="52.036418" lon="05.775863"><ele>40.4</ele><time>2022-03-04T16:02:38Z</time><name>PT7562</name></trkpt>
<trkpt lat="52.036420" lon="05.775885"><ele>40.5</ele><time>2022-03-04T16:02:39Z</time><name>PT7563</name></trkpt>
<trkpt lat="52.036423" lon="05.775902"><ele>40.3</ele><time>2022-03-04T16:02:40Z</time><name>PT7564</name></trkpt>
<trkpt lat="52.036425" lon="05.775914"><ele>40.3</ele><time>2022-03-04T16:02:41Z</time><name>PT7565</name></trkpt>
<trkpt lat="52.036426" lon="05.775932"><ele>40.4</ele><time>2022-03-04T16:02:42Z</time><name>PT7566</name></trkpt>
<trkpt lat="52.036426" lon="05.775949"><ele>40.2</ele><time>2022-03-04T16:02:43Z</time><name>PT7567</name></trkpt>
<trkpt lat="52.036426" lon="05.775969"><ele>40.2</ele><time>2022-03-04T16:02:44Z</time><name>PT7568</name></trkpt>
<trkpt lat="52.036426" lon="05.775983"><ele>40.2</ele><time>2022-03-04T16:02:45Z</time><name>PT7569</name></trkpt>
<trkpt lat="52.036428" lon="05.775998"><ele>40.1</ele><time>2022-03-04T16:02:46Z</time><name>PT7570</name></trkpt>
<trkpt lat="52.036431" lon="05.776026"><ele>40.2</ele><time>2022-03-04T16:02:47Z</time><name>PT7571</name></trkpt>
<trkpt lat="52.036432" lon="05.776037"><ele>40.2</ele><time>2022-03-04T16:02:48Z</time><name>PT7572</name></trkpt>
<trkpt lat="52.036434" lon="05.776053"><ele>40.1</ele><time>2022-03-04T16:02:49Z</time><name>PT7573</name></trkpt>
<trkpt lat="52.036433" lon="05.776070"><ele>40.2</ele><time>2022-03-04T16:02:50Z</time><name>PT7574</name></trkpt>
<trkpt lat="52.036434" lon="05.776079"><ele>40.2</ele><time>2022-03-04T16:02:52Z</time><name>PT7575</name></trkpt>
<trkpt lat="52.036436" lon="05.776090"><ele>40.2</ele><time>2022-03-04T16:02:52Z</time><name>PT7576</name></trkpt>
<trkpt lat="52.036440" lon="05.776109"><ele>40.2</ele><time>2022-03-04T16:02:53Z</time><name>PT7577</name></trkpt>
<trkpt lat="52.036445" lon="05.776134"><ele>40.3</ele><time>2022-03-04T16:02:54Z</time><name>PT7578</name></trkpt>
<trkpt lat="52.036453" lon="05.776162"><ele>40.3</ele><time>2022-03-04T16:02:55Z</time><name>PT7579</name></trkpt>
<trkpt lat="52.036456" lon="05.776194"><ele>40.2</ele><time>2022-03-04T16:02:56Z</time><name>PT7580</name></trkpt>
<trkpt lat="52.036457" lon="05.776212"><ele>40.3</ele><time>2022-03-04T16:02:58Z</time><name>PT7581</name></trkpt>
<trkpt lat="52.036457" lon="05.776235"><ele>40.3</ele><time>2022-03-04T16:02:58Z</time><name>PT7582</name></trkpt>
<trkpt lat="52.036459" lon="05.776250"><ele>40.2</ele><time>2022-03-04T16:02:59Z</time><name>PT7583</name></trkpt>
<trkpt lat="52.036464" lon="05.776268"><ele>40</ele><time>2022-03-04T16:03:00Z</time><name>PT7584</name></trkpt>
<trkpt lat="52.036469" lon="05.776280"><ele>40</ele><time>2022-03-04T16:03:01Z</time><name>PT7585</name></trkpt>
<trkpt lat="52.036468" lon="05.776294"><ele>39.9</ele><time>2022-03-04T16:03:02Z</time><name>PT7586</name></trkpt>
<trkpt lat="52.036470" lon="05.776315"><ele>39.9</ele><time>2022-03-04T16:03:03Z</time><name>PT7587</name></trkpt>
<trkpt lat="52.036472" lon="05.776327"><ele>39.8</ele><time>2022-03-04T16:03:04Z</time><name>PT7588</name></trkpt>
<trkpt lat="52.036473" lon="05.776340"><ele>40.1</ele><time>2022-03-04T16:03:05Z</time><name>PT7589</name></trkpt>
<trkpt lat="52.036475" lon="05.776354"><ele>40.1</ele><time>2022-03-04T16:03:06Z</time><name>PT7590</name></trkpt>
<trkpt lat="52.036476" lon="05.776378"><ele>40.1</ele><time>2022-03-04T16:03:07Z</time><name>PT7591</name></trkpt>
<trkpt lat="52.036478" lon="05.776404"><ele>39.8</ele><time>2022-03-04T16:03:08Z</time><name>PT7592</name></trkpt>
<trkpt lat="52.036481" lon="05.776425"><ele>39.8</ele><time>2022-03-04T16:03:09Z</time><name>PT7593</name></trkpt>
<trkpt lat="52.036481" lon="05.776436"><ele>39.8</ele><time>2022-03-04T16:03:10Z</time><name>PT7594</name></trkpt>
<trkpt lat="52.036481" lon="05.776447"><ele>39.7</ele><time>2022-03-04T16:03:11Z</time><name>PT7595</name></trkpt>
<trkpt lat="52.036482" lon="05.776457"><ele>39.9</ele><time>2022-03-04T16:03:12Z</time><name>PT7596</name></trkpt>
<trkpt lat="52.036483" lon="05.776474"><ele>39.9</ele><time>2022-03-04T16:03:13Z</time><name>PT7597</name></trkpt>
<trkpt lat="52.036485" lon="05.776495"><ele>39.8</ele><time>2022-03-04T16:03:14Z</time><name>PT7598</name></trkpt>
<trkpt lat="52.036488" lon="05.776511"><ele>39.9</ele><time>2022-03-04T16:03:15Z</time><name>PT7599</name></trkpt>
<trkpt lat="52.036490" lon="05.776526"><ele>40</ele><time>2022-03-04T16:03:16Z</time><name>PT7600</name></trkpt>
<trkpt lat="52.036490" lon="05.776539"><ele>39.9</ele><time>2022-03-04T16:03:17Z</time><name>PT7601</name></trkpt>
<trkpt lat="52.036493" lon="05.776555"><ele>40</ele><time>2022-03-04T16:03:18Z</time><name>PT7602</name></trkpt>
<trkpt lat="52.036494" lon="05.776572"><ele>40</ele><time>2022-03-04T16:03:19Z</time><name>PT7603</name></trkpt>
<trkpt lat="52.036496" lon="05.776594"><ele>39.8</ele><time>2022-03-04T16:03:20Z</time><name>PT7604</name></trkpt>
<trkpt lat="52.036497" lon="05.776612"><ele>39.8</ele><time>2022-03-04T16:03:21Z</time><name>PT7605</name></trkpt>
<trkpt lat="52.036497" lon="05.776627"><ele>39.8</ele><time>2022-03-04T16:03:22Z</time><name>PT7606</name></trkpt>
<trkpt lat="52.036500" lon="05.776640"><ele>39.9</ele><time>2022-03-04T16:03:23Z</time><name>PT7607</name></trkpt>
<trkpt lat="52.036501" lon="05.776652"><ele>40</ele><time>2022-03-04T16:03:24Z</time><name>PT7608</name></trkpt>
<trkpt lat="52.036504" lon="05.776664"><ele>40.2</ele><time>2022-03-04T16:03:25Z</time><name>PT7609</name></trkpt>
<trkpt lat="52.036506" lon="05.776679"><ele>40.2</ele><time>2022-03-04T16:03:26Z</time><name>PT7610</name></trkpt>
<trkpt lat="52.036508" lon="05.776691"><ele>40.1</ele><time>2022-03-04T16:03:27Z</time><name>PT7611</name></trkpt>
<trkpt lat="52.036509" lon="05.776701"><ele>40.1</ele><time>2022-03-04T16:03:28Z</time><name>PT7612</name></trkpt>
<trkpt lat="52.036513" lon="05.776715"><ele>40.2</ele><time>2022-03-04T16:03:29Z</time><name>PT7613</name></trkpt>
<trkpt lat="52.036517" lon="05.776730"><ele>40.3</ele><time>2022-03-04T16:03:30Z</time><name>PT7614</name></trkpt>
<trkpt lat="52.036521" lon="05.776753"><ele>40.2</ele><time>2022-03-04T16:03:31Z</time><name>PT7615</name></trkpt>
<trkpt lat="52.036527" lon="05.776767"><ele>40.2</ele><time>2022-03-04T16:03:32Z</time><name>PT7616</name></trkpt>
<trkpt lat="52.036530" lon="05.776787"><ele>40</ele><time>2022-03-04T16:03:33Z</time><name>PT7617</name></trkpt>
<trkpt lat="52.036532" lon="05.776796"><ele>39.9</ele><time>2022-03-04T16:03:34Z</time><name>PT7618</name></trkpt>
<trkpt lat="52.036532" lon="05.776801"><ele>39.8</ele><time>2022-03-04T16:03:35Z</time><name>PT7619</name></trkpt>
<trkpt lat="52.036529" lon="05.776811"><ele>39.9</ele><time>2022-03-04T16:03:36Z</time><name>PT7620</name></trkpt>
<trkpt lat="52.036530" lon="05.776814"><ele>39.8</ele><time>2022-03-04T16:03:37Z</time><name>PT7621</name></trkpt>
<trkpt lat="52.036530" lon="05.776818"><ele>39.8</ele><time>2022-03-04T16:03:38Z</time><name>PT7622</name></trkpt>
<trkpt lat="52.036529" lon="05.776824"><ele>39.9</ele><time>2022-03-04T16:03:39Z</time><name>PT7623</name></trkpt>
<trkpt lat="52.036535" lon="05.776834"><ele>40</ele><time>2022-03-04T16:03:40Z</time><name>PT7624</name></trkpt>
<trkpt lat="52.036543" lon="05.776848"><ele>39.8</ele><time>2022-03-04T16:03:41Z</time><name>PT7625</name></trkpt>
<trkpt lat="52.036547" lon="05.776872"><ele>40</ele><time>2022-03-04T16:03:42Z</time><name>PT7626</name></trkpt>
<trkpt lat="52.036550" lon="05.776891"><ele>40</ele><time>2022-03-04T16:03:43Z</time><name>PT7627</name></trkpt>
<trkpt lat="52.036551" lon="05.776910"><ele>39.9</ele><time>2022-03-04T16:03:44Z</time><name>PT7628</name></trkpt>
<trkpt lat="52.036550" lon="05.776922"><ele>40.1</ele><time>2022-03-04T16:03:45Z</time><name>PT7629</name></trkpt>
<trkpt lat="52.036550" lon="05.776937"><ele>40.2</ele><time>2022-03-04T16:03:46Z</time><name>PT7630</name></trkpt>
<trkpt lat="52.036552" lon="05.776949"><ele>40.2</ele><time>2022-03-04T16:03:47Z</time><name>PT7631</name></trkpt>
<trkpt lat="52.036552" lon="05.776968"><ele>40.5</ele><time>2022-03-04T16:03:48Z</time><name>PT7632</name></trkpt>
<trkpt lat="52.036549" lon="05.776990"><ele>40.6</ele><time>2022-03-04T16:03:49Z</time><name>PT7633</name></trkpt>
<trkpt lat="52.036546" lon="05.777009"><ele>40.6</ele><time>2022-03-04T16:03:50Z</time><name>PT7634</name></trkpt>
<trkpt lat="52.036543" lon="05.777030"><ele>40.6</ele><time>2022-03-04T16:03:51Z</time><name>PT7635</name></trkpt>
<trkpt lat="52.036543" lon="05.777046"><ele>40.5</ele><time>2022-03-04T16:03:52Z</time><name>PT7636</name></trkpt>
<trkpt lat="52.036544" lon="05.777063"><ele>40.4</ele><time>2022-03-04T16:03:53Z</time><name>PT7637</name></trkpt>
<trkpt lat="52.036547" lon="05.777079"><ele>40.3</ele><time>2022-03-04T16:03:54Z</time><name>PT7638</name></trkpt>
<trkpt lat="52.036554" lon="05.777096"><ele>40.3</ele><time>2022-03-04T16:03:55Z</time><name>PT7639</name></trkpt>
<trkpt lat="52.036559" lon="05.777119"><ele>40.2</ele><time>2022-03-04T16:03:56Z</time><name>PT7640</name></trkpt>
<trkpt lat="52.036564" lon="05.777140"><ele>40.2</ele><time>2022-03-04T16:03:57Z</time><name>PT7641</name></trkpt>
<trkpt lat="52.036564" lon="05.777164"><ele>40.3</ele><time>2022-03-04T16:03:58Z</time><name>PT7642</name></trkpt>
<trkpt lat="52.036565" lon="05.777178"><ele>40.3</ele><time>2022-03-04T16:03:59Z</time><name>PT7643</name></trkpt>
<trkpt lat="52.036566" lon="05.777189"><ele>40.5</ele><time>2022-03-04T16:04:00Z</time><name>PT7644</name></trkpt>
<trkpt lat="52.036568" lon="05.777202"><ele>40.5</ele><time>2022-03-04T16:04:01Z</time><name>PT7645</name></trkpt>
<trkpt lat="52.036573" lon="05.777225"><ele>40.5</ele><time>2022-03-04T16:04:02Z</time><name>PT7646</name></trkpt>
<trkpt lat="52.036575" lon="05.777247"><ele>40.7</ele><time>2022-03-04T16:04:03Z</time><name>PT7647</name></trkpt>
<trkpt lat="52.036577" lon="05.777272"><ele>40.6</ele><time>2022-03-04T16:04:04Z</time><name>PT7648</name></trkpt>
<trkpt lat="52.036580" lon="05.777297"><ele>40.4</ele><time>2022-03-04T16:04:05Z</time><name>PT7649</name></trkpt>
<trkpt lat="52.036582" lon="05.777313"><ele>40.4</ele><time>2022-03-04T16:04:06Z</time><name>PT7650</name></trkpt>
<trkpt lat="52.036582" lon="05.777330"><ele>40.3</ele><time>2022-03-04T16:04:07Z</time><name>PT7651</name></trkpt>
<trkpt lat="52.036583" lon="05.777347"><ele>40.3</ele><time>2022-03-04T16:04:08Z</time><name>PT7652</name></trkpt>
<trkpt lat="52.036585" lon="05.777362"><ele>40.5</ele><time>2022-03-04T16:04:10Z</time><name>PT7653</name></trkpt>
<trkpt lat="52.036589" lon="05.777382"><ele>40.4</ele><time>2022-03-04T16:04:10Z</time><name>PT7654</name></trkpt>
<trkpt lat="52.036593" lon="05.777401"><ele>40.4</ele><time>2022-03-04T16:04:11Z</time><name>PT7655</name></trkpt>
<trkpt lat="52.036597" lon="05.777419"><ele>40.4</ele><time>2022-03-04T16:04:12Z</time><name>PT7656</name></trkpt>
<trkpt lat="52.036600" lon="05.777444"><ele>40.4</ele><time>2022-03-04T16:04:13Z</time><name>PT7657</name></trkpt>
<trkpt lat="52.036602" lon="05.777463"><ele>40.4</ele><time>2022-03-04T16:04:14Z</time><name>PT7658</name></trkpt>
<trkpt lat="52.036602" lon="05.777479"><ele>40.4</ele><time>2022-03-04T16:04:15Z</time><name>PT7659</name></trkpt>
<trkpt lat="52.036603" lon="05.777498"><ele>40.4</ele><time>2022-03-04T16:04:16Z</time><name>PT7660</name></trkpt>
<trkpt lat="52.036604" lon="05.777512"><ele>40.5</ele><time>2022-03-04T16:04:17Z</time><name>PT7661</name></trkpt>
<trkpt lat="52.036607" lon="05.777527"><ele>40.3</ele><time>2022-03-04T16:04:18Z</time><name>PT7662</name></trkpt>
<trkpt lat="52.036610" lon="05.777538"><ele>40.4</ele><time>2022-03-04T16:04:19Z</time><name>PT7663</name></trkpt>
<trkpt lat="52.036613" lon="05.777558"><ele>40.4</ele><time>2022-03-04T16:04:20Z</time><name>PT7664</name></trkpt>
<trkpt lat="52.036616" lon="05.777574"><ele>40.2</ele><time>2022-03-04T16:04:21Z</time><name>PT7665</name></trkpt>
<trkpt lat="52.036619" lon="05.777593"><ele>40.2</ele><time>2022-03-04T16:04:22Z</time><name>PT7666</name></trkpt>
<trkpt lat="52.036621" lon="05.777613"><ele>40.2</ele><time>2022-03-04T16:04:23Z</time><name>PT7667</name></trkpt>
<trkpt lat="52.036624" lon="05.777621"><ele>40.2</ele><time>2022-03-04T16:04:24Z</time><name>PT7668</name></trkpt>
<trkpt lat="52.036626" lon="05.777633"><ele>40.1</ele><time>2022-03-04T16:04:25Z</time><name>PT7669</name></trkpt>
<trkpt lat="52.036630" lon="05.777643"><ele>40.1</ele><time>2022-03-04T16:04:26Z</time><name>PT7670</name></trkpt>
<trkpt lat="52.036632" lon="05.777655"><ele>40.1</ele><time>2022-03-04T16:04:27Z</time><name>PT7671</name></trkpt>
<trkpt lat="52.036634" lon="05.777677"><ele>40</ele><time>2022-03-04T16:04:28Z</time><name>PT7672</name></trkpt>
<trkpt lat="52.036636" lon="05.777697"><ele>39.9</ele><time>2022-03-04T16:04:29Z</time><name>PT7673</name></trkpt>
<trkpt lat="52.036634" lon="05.777707"><ele>39.8</ele><time>2022-03-04T16:04:30Z</time><name>PT7674</name></trkpt>
<trkpt lat="52.036634" lon="05.777722"><ele>39.7</ele><time>2022-03-04T16:04:31Z</time><name>PT7675</name></trkpt>
<trkpt lat="52.036635" lon="05.777739"><ele>39.8</ele><time>2022-03-04T16:04:32Z</time><name>PT7676</name></trkpt>
<trkpt lat="52.036638" lon="05.777757"><ele>39.9</ele><time>2022-03-04T16:04:33Z</time><name>PT7677</name></trkpt>
<trkpt lat="52.036640" lon="05.777769"><ele>39.9</ele><time>2022-03-04T16:04:34Z</time><name>PT7678</name></trkpt>
<trkpt lat="52.036641" lon="05.777779"><ele>39.9</ele><time>2022-03-04T16:04:35Z</time><name>PT7679</name></trkpt>
<trkpt lat="52.036643" lon="05.777789"><ele>40</ele><time>2022-03-04T16:04:36Z</time><name>PT7680</name></trkpt>
<trkpt lat="52.036642" lon="05.777811"><ele>39.9</ele><time>2022-03-04T16:04:37Z</time><name>PT7681</name></trkpt>
<trkpt lat="52.036645" lon="05.777837"><ele>39.8</ele><time>2022-03-04T16:04:38Z</time><name>PT7682</name></trkpt>
<trkpt lat="52.036651" lon="05.777861"><ele>39.8</ele><time>2022-03-04T16:04:39Z</time><name>PT7683</name></trkpt>
<trkpt lat="52.036653" lon="05.777883"><ele>39.7</ele><time>2022-03-04T16:04:40Z</time><name>PT7684</name></trkpt>
<trkpt lat="52.036652" lon="05.777899"><ele>39.7</ele><time>2022-03-04T16:04:41Z</time><name>PT7685</name></trkpt>
<trkpt lat="52.036653" lon="05.777916"><ele>39.7</ele><time>2022-03-04T16:04:43Z</time><name>PT7686</name></trkpt>
<trkpt lat="52.036655" lon="05.777928"><ele>39.8</ele><time>2022-03-04T16:04:43Z</time><name>PT7687</name></trkpt>
<trkpt lat="52.036655" lon="05.777940"><ele>39.8</ele><time>2022-03-04T16:04:44Z</time><name>PT7688</name></trkpt>
<trkpt lat="52.036658" lon="05.777952"><ele>40</ele><time>2022-03-04T16:04:45Z</time><name>PT7689</name></trkpt>
<trkpt lat="52.036664" lon="05.777966"><ele>40.2</ele><time>2022-03-04T16:04:46Z</time><name>PT7690</name></trkpt>
<trkpt lat="52.036667" lon="05.777985"><ele>40.1</ele><time>2022-03-04T16:04:47Z</time><name>PT7691</name></trkpt>
<trkpt lat="52.036667" lon="05.778000"><ele>40.2</ele><time>2022-03-04T16:04:48Z</time><name>PT7692</name></trkpt>
<trkpt lat="52.036665" lon="05.778015"><ele>40.2</ele><time>2022-03-04T16:04:49Z</time><name>PT7693</name></trkpt>
<trkpt lat="52.036666" lon="05.778023"><ele>40.2</ele><time>2022-03-04T16:04:50Z</time><name>PT7694</name></trkpt>
<trkpt lat="52.036667" lon="05.778040"><ele>40.2</ele><time>2022-03-04T16:04:51Z</time><name>PT7695</name></trkpt>
<trkpt lat="52.036673" lon="05.778047"><ele>40.3</ele><time>2022-03-04T16:04:52Z</time><name>PT7696</name></trkpt>
<trkpt lat="52.036674" lon="05.778068"><ele>40.5</ele><time>2022-03-04T16:04:53Z</time><name>PT7697</name></trkpt>
<trkpt lat="52.036672" lon="05.778090"><ele>40.7</ele><time>2022-03-04T16:04:54Z</time><name>PT7698</name></trkpt>
<trkpt lat="52.036673" lon="05.778099"><ele>40.9</ele><time>2022-03-04T16:04:55Z</time><name>PT7699</name></trkpt>
<trkpt lat="52.036673" lon="05.778110"><ele>41.1</ele><time>2022-03-04T16:04:56Z</time><name>PT7700</name></trkpt>
<trkpt lat="52.036673" lon="05.778123"><ele>41.1</ele><time>2022-03-04T16:04:57Z</time><name>PT7701</name></trkpt>
<trkpt lat="52.036674" lon="05.778142"><ele>41.2</ele><time>2022-03-04T16:04:58Z</time><name>PT7702</name></trkpt>
<trkpt lat="52.036675" lon="05.778162"><ele>41.1</ele><time>2022-03-04T16:04:59Z</time><name>PT7703</name></trkpt>
<trkpt lat="52.036674" lon="05.778186"><ele>41.1</ele><time>2022-03-04T16:05:00Z</time><name>PT7704</name></trkpt>
<trkpt lat="52.036673" lon="05.778207"><ele>41.1</ele><time>2022-03-04T16:05:01Z</time><name>PT7705</name></trkpt>
<trkpt lat="52.036673" lon="05.778228"><ele>41.2</ele><time>2022-03-04T16:05:02Z</time><name>PT7706</name></trkpt>
<trkpt lat="52.036672" lon="05.778246"><ele>41.2</ele><time>2022-03-04T16:05:03Z</time><name>PT7707</name></trkpt>
<trkpt lat="52.036671" lon="05.778252"><ele>41.2</ele><time>2022-03-04T16:05:04Z</time><name>PT7708</name></trkpt>
<trkpt lat="52.036670" lon="05.778268"><ele>41.3</ele><time>2022-03-04T16:05:05Z</time><name>PT7709</name></trkpt>
<trkpt lat="52.036666" lon="05.778290"><ele>41.1</ele><time>2022-03-04T16:05:06Z</time><name>PT7710</name></trkpt>
<trkpt lat="52.036663" lon="05.778313"><ele>41.1</ele><time>2022-03-04T16:05:07Z</time><name>PT7711</name></trkpt>
<trkpt lat="52.036661" lon="05.778329"><ele>41</ele><time>2022-03-04T16:05:08Z</time><name>PT7712</name></trkpt>
<trkpt lat="52.036659" lon="05.778343"><ele>40.7</ele><time>2022-03-04T16:05:09Z</time><name>PT7713</name></trkpt>
<trkpt lat="52.036658" lon="05.778355"><ele>40.7</ele><time>2022-03-04T16:05:10Z</time><name>PT7714</name></trkpt>
<trkpt lat="52.036658" lon="05.778367"><ele>40.7</ele><time>2022-03-04T16:05:11Z</time><name>PT7715</name></trkpt>
<trkpt lat="52.036653" lon="05.778400"><ele>40.6</ele><time>2022-03-04T16:05:12Z</time><name>PT7716</name></trkpt>
<trkpt lat="52.036651" lon="05.778426"><ele>40.6</ele><time>2022-03-04T16:05:13Z</time><name>PT7717</name></trkpt>
<trkpt lat="52.036651" lon="05.778449"><ele>40.6</ele><time>2022-03-04T16:05:14Z</time><name>PT7718</name></trkpt>
<trkpt lat="52.036651" lon="05.778467"><ele>40.7</ele><time>2022-03-04T16:05:15Z</time><name>PT7719</name></trkpt>
<trkpt lat="52.036651" lon="05.778480"><ele>40.5</ele><time>2022-03-04T16:05:16Z</time><name>PT7720</name></trkpt>
<trkpt lat="52.036648" lon="05.778501"><ele>40.5</ele><time>2022-03-04T16:05:17Z</time><name>PT7721</name></trkpt>
<trkpt lat="52.036645" lon="05.778514"><ele>40.3</ele><time>2022-03-04T16:05:18Z</time><name>PT7722</name></trkpt>
<trkpt lat="52.036641" lon="05.778523"><ele>40.3</ele><time>2022-03-04T16:05:19Z</time><name>PT7723</name></trkpt>
<trkpt lat="52.036637" lon="05.778537"><ele>40.4</ele><time>2022-03-04T16:05:20Z</time><name>PT7724</name></trkpt>
<trkpt lat="52.036637" lon="05.778539"><ele>40.6</ele><time>2022-03-04T16:05:21Z</time><name>PT7725</name></trkpt>
<trkpt lat="52.036636" lon="05.778547"><ele>40.7</ele><time>2022-03-04T16:05:22Z</time><name>PT7726</name></trkpt>
<trkpt lat="52.036637" lon="05.778551"><ele>41</ele><time>2022-03-04T16:05:23Z</time><name>PT7727</name></trkpt>
<trkpt lat="52.036640" lon="05.778552"><ele>41</ele><time>2022-03-04T16:05:24Z</time><name>PT7728</name></trkpt>
<trkpt lat="52.036637" lon="05.778560"><ele>40.9</ele><time>2022-03-04T16:05:25Z</time><name>PT7729</name></trkpt>
<trkpt lat="52.036641" lon="05.778569"><ele>42</ele><time>2022-03-04T16:17:09Z</time><name>PT7730</name></trkpt>
<trkpt lat="52.036641" lon="05.778573"><ele>42.1</ele><time>2022-03-04T16:17:10Z</time><name>PT7731</name></trkpt>
<trkpt lat="52.036640" lon="05.778573"><ele>42.1</ele><time>2022-03-04T16:17:11Z</time><name>PT7732</name></trkpt>
<trkpt lat="52.036637" lon="05.778575"><ele>42</ele><time>2022-03-04T16:17:16Z</time><name>PT7733</name></trkpt>
<trkpt lat="52.036639" lon="05.778583"><ele>41.7</ele><time>2022-03-04T16:17:17Z</time><name>PT7734</name></trkpt>
<trkpt lat="52.036642" lon="05.778596"><ele>41.6</ele><time>2022-03-04T16:17:18Z</time><name>PT7735</name></trkpt>
<trkpt lat="52.036645" lon="05.778610"><ele>41.5</ele><time>2022-03-04T16:17:19Z</time><name>PT7736</name></trkpt>
<trkpt lat="52.036645" lon="05.778620"><ele>41.6</ele><time>2022-03-04T16:17:20Z</time><name>PT7737</name></trkpt>
<trkpt lat="52.036646" lon="05.778632"><ele>41.6</ele><time>2022-03-04T16:17:21Z</time><name>PT7738</name></trkpt>
<trkpt lat="52.036645" lon="05.778640"><ele>41.6</ele><time>2022-03-04T16:17:22Z</time><name>PT7739</name></trkpt>
<trkpt lat="52.036646" lon="05.778645"><ele>41.4</ele><time>2022-03-04T16:17:23Z</time><name>PT7740</name></trkpt>
<trkpt lat="52.036646" lon="05.778653"><ele>41.3</ele><time>2022-03-04T16:17:24Z</time><name>PT7741</name></trkpt>
<trkpt lat="52.036645" lon="05.778662"><ele>41.1</ele><time>2022-03-04T16:17:25Z</time><name>PT7742</name></trkpt>
<trkpt lat="52.036645" lon="05.778670"><ele>41.1</ele><time>2022-03-04T16:17:26Z</time><name>PT7743</name></trkpt>
<trkpt lat="52.036642" lon="05.778678"><ele>41.3</ele><time>2022-03-04T16:17:27Z</time><name>PT7744</name></trkpt>
<trkpt lat="52.036640" lon="05.778681"><ele>41.4</ele><time>2022-03-04T16:17:28Z</time><name>PT7745</name></trkpt>
<trkpt lat="52.036639" lon="05.778690"><ele>41.6</ele><time>2022-03-04T16:17:29Z</time><name>PT7746</name></trkpt>
<trkpt lat="52.036640" lon="05.778701"><ele>41.6</ele><time>2022-03-04T16:17:30Z</time><name>PT7747</name></trkpt>
<trkpt lat="52.036641" lon="05.778717"><ele>41.4</ele><time>2022-03-04T16:17:31Z</time><name>PT7748</name></trkpt>
<trkpt lat="52.036641" lon="05.778733"><ele>41.2</ele><time>2022-03-04T16:17:32Z</time><name>PT7749</name></trkpt>
<trkpt lat="52.036640" lon="05.778745"><ele>41.3</ele><time>2022-03-04T16:17:33Z</time><name>PT7750</name></trkpt>
<trkpt lat="52.036640" lon="05.778759"><ele>41.2</ele><time>2022-03-04T16:17:34Z</time><name>PT7751</name></trkpt>
<trkpt lat="52.036640" lon="05.778771"><ele>41.1</ele><time>2022-03-04T16:17:35Z</time><name>PT7752</name></trkpt>
<trkpt lat="52.036641" lon="05.778786"><ele>41.2</ele><time>2022-03-04T16:17:36Z</time><name>PT7753</name></trkpt>
<trkpt lat="52.036641" lon="05.778799"><ele>41.1</ele><time>2022-03-04T16:17:37Z</time><name>PT7754</name></trkpt>
<trkpt lat="52.036642" lon="05.778811"><ele>41.1</ele><time>2022-03-04T16:17:38Z</time><name>PT7755</name></trkpt>
<trkpt lat="52.036643" lon="05.778821"><ele>41.1</ele><time>2022-03-04T16:17:39Z</time><name>PT7756</name></trkpt>
<trkpt lat="52.036642" lon="05.778838"><ele>41.1</ele><time>2022-03-04T16:17:40Z</time><name>PT7757</name></trkpt>
<trkpt lat="52.036645" lon="05.778855"><ele>41.1</ele><time>2022-03-04T16:17:41Z</time><name>PT7758</name></trkpt>
<trkpt lat="52.036645" lon="05.778866"><ele>41.1</ele><time>2022-03-04T16:17:42Z</time><name>PT7759</name></trkpt>
<trkpt lat="52.036644" lon="05.778878"><ele>41.2</ele><time>2022-03-04T16:17:43Z</time><name>PT7760</name></trkpt>
<trkpt lat="52.036644" lon="05.778893"><ele>41.2</ele><time>2022-03-04T16:17:44Z</time><name>PT7761</name></trkpt>
<trkpt lat="52.036643" lon="05.778908"><ele>41.2</ele><time>2022-03-04T16:17:45Z</time><name>PT7762</name></trkpt>
<trkpt lat="52.036645" lon="05.778923"><ele>41.2</ele><time>2022-03-04T16:17:46Z</time><name>PT7763</name></trkpt>
<trkpt lat="52.036646" lon="05.778939"><ele>41.2</ele><time>2022-03-04T16:17:47Z</time><name>PT7764</name></trkpt>
<trkpt lat="52.036646" lon="05.778959"><ele>41.2</ele><time>2022-03-04T16:17:48Z</time><name>PT7765</name></trkpt>
<trkpt lat="52.036646" lon="05.778976"><ele>41.2</ele><time>2022-03-04T16:17:49Z</time><name>PT7766</name></trkpt>
<trkpt lat="52.036646" lon="05.778994"><ele>41.3</ele><time>2022-03-04T16:17:50Z</time><name>PT7767</name></trkpt>
<trkpt lat="52.036646" lon="05.779012"><ele>41.5</ele><time>2022-03-04T16:17:51Z</time><name>PT7768</name></trkpt>
<trkpt lat="52.036646" lon="05.779031"><ele>41.5</ele><time>2022-03-04T16:17:52Z</time><name>PT7769</name></trkpt>
<trkpt lat="52.036647" lon="05.779048"><ele>41.4</ele><time>2022-03-04T16:17:53Z</time><name>PT7770</name></trkpt>
<trkpt lat="52.036646" lon="05.779062"><ele>41.4</ele><time>2022-03-04T16:17:54Z</time><name>PT7771</name></trkpt>
<trkpt lat="52.036646" lon="05.779078"><ele>41.4</ele><time>2022-03-04T16:17:55Z</time><name>PT7772</name></trkpt>
<trkpt lat="52.036647" lon="05.779095"><ele>41.2</ele><time>2022-03-04T16:17:56Z</time><name>PT7773</name></trkpt>
<trkpt lat="52.036648" lon="05.779109"><ele>41</ele><time>2022-03-04T16:17:57Z</time><name>PT7774</name></trkpt>
<trkpt lat="52.036649" lon="05.779126"><ele>40.9</ele><time>2022-03-04T16:17:58Z</time><name>PT7775</name></trkpt>
<trkpt lat="52.036648" lon="05.779143"><ele>40.8</ele><time>2022-03-04T16:17:59Z</time><name>PT7776</name></trkpt>
<trkpt lat="52.036648" lon="05.779161"><ele>40.8</ele><time>2022-03-04T16:18:00Z</time><name>PT7777</name></trkpt>
<trkpt lat="52.036647" lon="05.779180"><ele>40.8</ele><time>2022-03-04T16:18:01Z</time><name>PT7778</name></trkpt>
<trkpt lat="52.036647" lon="05.779195"><ele>40.8</ele><time>2022-03-04T16:18:02Z</time><name>PT7779</name></trkpt>
<trkpt lat="52.036647" lon="05.779211"><ele>40.9</ele><time>2022-03-04T16:18:03Z</time><name>PT7780</name></trkpt>
<trkpt lat="52.036650" lon="05.779228"><ele>40.9</ele><time>2022-03-04T16:18:04Z</time><name>PT7781</name></trkpt>
<trkpt lat="52.036652" lon="05.779246"><ele>40.8</ele><time>2022-03-04T16:18:05Z</time><name>PT7782</name></trkpt>
<trkpt lat="52.036653" lon="05.779262"><ele>41</ele><time>2022-03-04T16:18:06Z</time><name>PT7783</name></trkpt>
<trkpt lat="52.036654" lon="05.779278"><ele>41</ele><time>2022-03-04T16:18:07Z</time><name>PT7784</name></trkpt>
<trkpt lat="52.036654" lon="05.779295"><ele>40.9</ele><time>2022-03-04T16:18:08Z</time><name>PT7785</name></trkpt>
<trkpt lat="52.036654" lon="05.779311"><ele>41</ele><time>2022-03-04T16:18:09Z</time><name>PT7786</name></trkpt>
<trkpt lat="52.036654" lon="05.779328"><ele>40.9</ele><time>2022-03-04T16:18:10Z</time><name>PT7787</name></trkpt>
<trkpt lat="52.036652" lon="05.779346"><ele>40.8</ele><time>2022-03-04T16:18:11Z</time><name>PT7788</name></trkpt>
<trkpt lat="52.036652" lon="05.779363"><ele>40.8</ele><time>2022-03-04T16:18:12Z</time><name>PT7789</name></trkpt>
<trkpt lat="52.036650" lon="05.779379"><ele>41</ele><time>2022-03-04T16:18:13Z</time><name>PT7790</name></trkpt>
<trkpt lat="52.036648" lon="05.779397"><ele>41.1</ele><time>2022-03-04T16:18:14Z</time><name>PT7791</name></trkpt>
<trkpt lat="52.036647" lon="05.779415"><ele>41</ele><time>2022-03-04T16:18:15Z</time><name>PT7792</name></trkpt>
<trkpt lat="52.036647" lon="05.779430"><ele>41.1</ele><time>2022-03-04T16:18:16Z</time><name>PT7793</name></trkpt>
<trkpt lat="52.036648" lon="05.779449"><ele>40.9</ele><time>2022-03-04T16:18:17Z</time><name>PT7794</name></trkpt>
<trkpt lat="52.036652" lon="05.779467"><ele>40.7</ele><time>2022-03-04T16:18:18Z</time><name>PT7795</name></trkpt>
<trkpt lat="52.036654" lon="05.779485"><ele>40.7</ele><time>2022-03-04T16:18:19Z</time><name>PT7796</name></trkpt>
<trkpt lat="52.036655" lon="05.779502"><ele>40.8</ele><time>2022-03-04T16:18:20Z</time><name>PT7797</name></trkpt>
<trkpt lat="52.036654" lon="05.779519"><ele>41</ele><time>2022-03-04T16:18:21Z</time><name>PT7798</name></trkpt>
<trkpt lat="52.036652" lon="05.779537"><ele>41.1</ele><time>2022-03-04T16:18:22Z</time><name>PT7799</name></trkpt>
<trkpt lat="52.036650" lon="05.779553"><ele>41.1</ele><time>2022-03-04T16:18:23Z</time><name>PT7800</name></trkpt>
<trkpt lat="52.036649" lon="05.779568"><ele>41.1</ele><time>2022-03-04T16:18:24Z</time><name>PT7801</name></trkpt>
<trkpt lat="52.036649" lon="05.779584"><ele>41.2</ele><time>2022-03-04T16:18:25Z</time><name>PT7802</name></trkpt>
<trkpt lat="52.036648" lon="05.779603"><ele>41.2</ele><time>2022-03-04T16:18:26Z</time><name>PT7803</name></trkpt>
<trkpt lat="52.036649" lon="05.779622"><ele>41.2</ele><time>2022-03-04T16:18:27Z</time><name>PT7804</name></trkpt>
<trkpt lat="52.036652" lon="05.779640"><ele>41.4</ele><time>2022-03-04T16:18:28Z</time><name>PT7805</name></trkpt>
<trkpt lat="52.036655" lon="05.779656"><ele>41.2</ele><time>2022-03-04T16:18:29Z</time><name>PT7806</name></trkpt>
<trkpt lat="52.036656" lon="05.779673"><ele>41.2</ele><time>2022-03-04T16:18:30Z</time><name>PT7807</name></trkpt>
<trkpt lat="52.036656" lon="05.779690"><ele>41.1</ele><time>2022-03-04T16:18:31Z</time><name>PT7808</name></trkpt>
<trkpt lat="52.036654" lon="05.779707"><ele>41.1</ele><time>2022-03-04T16:18:32Z</time><name>PT7809</name></trkpt>
<trkpt lat="52.036650" lon="05.779722"><ele>41</ele><time>2022-03-04T16:18:33Z</time><name>PT7810</name></trkpt>
<trkpt lat="52.036647" lon="05.779740"><ele>40.7</ele><time>2022-03-04T16:18:34Z</time><name>PT7811</name></trkpt>
<trkpt lat="52.036645" lon="05.779758"><ele>40.6</ele><time>2022-03-04T16:18:35Z</time><name>PT7812</name></trkpt>
<trkpt lat="52.036644" lon="05.779776"><ele>40.7</ele><time>2022-03-04T16:18:36Z</time><name>PT7813</name></trkpt>
<trkpt lat="52.036644" lon="05.779794"><ele>40.7</ele><time>2022-03-04T16:18:37Z</time><name>PT7814</name></trkpt>
<trkpt lat="52.036644" lon="05.779813"><ele>40.8</ele><time>2022-03-04T16:18:38Z</time><name>PT7815</name></trkpt>
<trkpt lat="52.036644" lon="05.779830"><ele>40.9</ele><time>2022-03-04T16:18:39Z</time><name>PT7816</name></trkpt>
<trkpt lat="52.036644" lon="05.779848"><ele>41.1</ele><time>2022-03-04T16:18:40Z</time><name>PT7817</name></trkpt>
<trkpt lat="52.036645" lon="05.779867"><ele>41</ele><time>2022-03-04T16:18:41Z</time><name>PT7818</name></trkpt>
<trkpt lat="52.036645" lon="05.779885"><ele>41.1</ele><time>2022-03-04T16:18:42Z</time><name>PT7819</name></trkpt>
<trkpt lat="52.036644" lon="05.779900"><ele>41.3</ele><time>2022-03-04T16:18:43Z</time><name>PT7820</name></trkpt>
<trkpt lat="52.036645" lon="05.779917"><ele>41.3</ele><time>2022-03-04T16:18:44Z</time><name>PT7821</name></trkpt>
<trkpt lat="52.036647" lon="05.779933"><ele>41.4</ele><time>2022-03-04T16:18:45Z</time><name>PT7822</name></trkpt>
<trkpt lat="52.036649" lon="05.779949"><ele>41.5</ele><time>2022-03-04T16:18:46Z</time><name>PT7823</name></trkpt>
<trkpt lat="52.036652" lon="05.779964"><ele>41.4</ele><time>2022-03-04T16:18:47Z</time><name>PT7824</name></trkpt>
<trkpt lat="52.036655" lon="05.779981"><ele>41.5</ele><time>2022-03-04T16:18:48Z</time><name>PT7825</name></trkpt>
<trkpt lat="52.036658" lon="05.780000"><ele>41.6</ele><time>2022-03-04T16:18:49Z</time><name>PT7826</name></trkpt>
<trkpt lat="52.036661" lon="05.780019"><ele>41.6</ele><time>2022-03-04T16:18:50Z</time><name>PT7827</name></trkpt>
<trkpt lat="52.036663" lon="05.780037"><ele>41.5</ele><time>2022-03-04T16:18:51Z</time><name>PT7828</name></trkpt>
<trkpt lat="52.036664" lon="05.780056"><ele>41.6</ele><time>2022-03-04T16:18:52Z</time><name>PT7829</name></trkpt>
<trkpt lat="52.036665" lon="05.780074"><ele>41.5</ele><time>2022-03-04T16:18:53Z</time><name>PT7830</name></trkpt>
<trkpt lat="52.036667" lon="05.780091"><ele>41.3</ele><time>2022-03-04T16:18:54Z</time><name>PT7831</name></trkpt>
<trkpt lat="52.036668" lon="05.780108"><ele>41.4</ele><time>2022-03-04T16:18:55Z</time><name>PT7832</name></trkpt>
<trkpt lat="52.036670" lon="05.780126"><ele>41.4</ele><time>2022-03-04T16:18:56Z</time><name>PT7833</name></trkpt>
<trkpt lat="52.036671" lon="05.780144"><ele>41.5</ele><time>2022-03-04T16:18:57Z</time><name>PT7834</name></trkpt>
<trkpt lat="52.036671" lon="05.780161"><ele>41.5</ele><time>2022-03-04T16:18:58Z</time><name>PT7835</name></trkpt>
<trkpt lat="52.036672" lon="05.780179"><ele>41.5</ele><time>2022-03-04T16:18:59Z</time><name>PT7836</name></trkpt>
<trkpt lat="52.036673" lon="05.780196"><ele>41.2</ele><time>2022-03-04T16:19:00Z</time><name>PT7837</name></trkpt>
<trkpt lat="52.036675" lon="05.780211"><ele>41.3</ele><time>2022-03-04T16:19:01Z</time><name>PT7838</name></trkpt>
<trkpt lat="52.036675" lon="05.780225"><ele>41.4</ele><time>2022-03-04T16:19:02Z</time><name>PT7839</name></trkpt>
<trkpt lat="52.036676" lon="05.780242"><ele>41.3</ele><time>2022-03-04T16:19:03Z</time><name>PT7840</name></trkpt>
<trkpt lat="52.036677" lon="05.780259"><ele>41.5</ele><time>2022-03-04T16:19:04Z</time><name>PT7841</name></trkpt>
<trkpt lat="52.036679" lon="05.780276"><ele>41.4</ele><time>2022-03-04T16:19:05Z</time><name>PT7842</name></trkpt>
<trkpt lat="52.036681" lon="05.780294"><ele>41.5</ele><time>2022-03-04T16:19:06Z</time><name>PT7843</name></trkpt>
<trkpt lat="52.036683" lon="05.780310"><ele>41.4</ele><time>2022-03-04T16:19:07Z</time><name>PT7844</name></trkpt>
<trkpt lat="52.036687" lon="05.780325"><ele>41.5</ele><time>2022-03-04T16:19:08Z</time><name>PT7845</name></trkpt>
<trkpt lat="52.036689" lon="05.780342"><ele>41.4</ele><time>2022-03-04T16:19:09Z</time><name>PT7846</name></trkpt>
<trkpt lat="52.036690" lon="05.780361"><ele>41.4</ele><time>2022-03-04T16:19:10Z</time><name>PT7847</name></trkpt>
<trkpt lat="52.036695" lon="05.780385"><ele>41.4</ele><time>2022-03-04T16:19:11Z</time><name>PT7848</name></trkpt>
<trkpt lat="52.036696" lon="05.780407"><ele>41.4</ele><time>2022-03-04T16:19:12Z</time><name>PT7849</name></trkpt>
<trkpt lat="52.036696" lon="05.780423"><ele>41.4</ele><time>2022-03-04T16:19:13Z</time><name>PT7850</name></trkpt>
<trkpt lat="52.036697" lon="05.780438"><ele>41.2</ele><time>2022-03-04T16:19:14Z</time><name>PT7851</name></trkpt>
<trkpt lat="52.036696" lon="05.780453"><ele>41.1</ele><time>2022-03-04T16:19:15Z</time><name>PT7852</name></trkpt>
<trkpt lat="52.036693" lon="05.780469"><ele>41.1</ele><time>2022-03-04T16:19:16Z</time><name>PT7853</name></trkpt>
<trkpt lat="52.036691" lon="05.780485"><ele>41.1</ele><time>2022-03-04T16:19:17Z</time><name>PT7854</name></trkpt>
<trkpt lat="52.036690" lon="05.780508"><ele>41.2</ele><time>2022-03-04T16:19:18Z</time><name>PT7855</name></trkpt>
<trkpt lat="52.036690" lon="05.780530"><ele>41.1</ele><time>2022-03-04T16:19:19Z</time><name>PT7856</name></trkpt>
<trkpt lat="52.036690" lon="05.780553"><ele>41.2</ele><time>2022-03-04T16:19:20Z</time><name>PT7857</name></trkpt>
<trkpt lat="52.036692" lon="05.780574"><ele>41.3</ele><time>2022-03-04T16:19:21Z</time><name>PT7858</name></trkpt>
<trkpt lat="52.036692" lon="05.780594"><ele>41.3</ele><time>2022-03-04T16:19:22Z</time><name>PT7859</name></trkpt>
<trkpt lat="52.036692" lon="05.780608"><ele>41.3</ele><time>2022-03-04T16:19:23Z</time><name>PT7860</name></trkpt>
<trkpt lat="52.036693" lon="05.780623"><ele>41.4</ele><time>2022-03-04T16:19:24Z</time><name>PT7861</name></trkpt>
<trkpt lat="52.036692" lon="05.780637"><ele>41.3</ele><time>2022-03-04T16:19:25Z</time><name>PT7862</name></trkpt>
<trkpt lat="52.036692" lon="05.780651"><ele>41.4</ele><time>2022-03-04T16:19:26Z</time><name>PT7863</name></trkpt>
<trkpt lat="52.036690" lon="05.780669"><ele>41.4</ele><time>2022-03-04T16:19:27Z</time><name>PT7864</name></trkpt>
<trkpt lat="52.036687" lon="05.780686"><ele>41.4</ele><time>2022-03-04T16:19:28Z</time><name>PT7865</name></trkpt>
<trkpt lat="52.036686" lon="05.780707"><ele>41.6</ele><time>2022-03-04T16:19:29Z</time><name>PT7866</name></trkpt>
<trkpt lat="52.036687" lon="05.780731"><ele>41.5</ele><time>2022-03-04T16:19:30Z</time><name>PT7867</name></trkpt>
<trkpt lat="52.036687" lon="05.780755"><ele>41.6</ele><time>2022-03-04T16:19:31Z</time><name>PT7868</name></trkpt>
<trkpt lat="52.036689" lon="05.780779"><ele>41.7</ele><time>2022-03-04T16:19:32Z</time><name>PT7869</name></trkpt>
<trkpt lat="52.036690" lon="05.780799"><ele>41.7</ele><time>2022-03-04T16:19:33Z</time><name>PT7870</name></trkpt>
<trkpt lat="52.036693" lon="05.780819"><ele>41.8</ele><time>2022-03-04T16:19:34Z</time><name>PT7871</name></trkpt>
<trkpt lat="52.036693" lon="05.780834"><ele>41.9</ele><time>2022-03-04T16:19:35Z</time><name>PT7872</name></trkpt>
<trkpt lat="52.036694" lon="05.780847"><ele>41.9</ele><time>2022-03-04T16:19:36Z</time><name>PT7873</name></trkpt>
<trkpt lat="52.036693" lon="05.780860"><ele>42.1</ele><time>2022-03-04T16:19:37Z</time><name>PT7874</name></trkpt>
<trkpt lat="52.036692" lon="05.780874"><ele>42.1</ele><time>2022-03-04T16:19:38Z</time><name>PT7875</name></trkpt>
<trkpt lat="52.036688" lon="05.780873"><ele>42.1</ele><time>2022-03-04T16:19:39Z</time><name>PT7876</name></trkpt>
<trkpt lat="52.036687" lon="05.780872"><ele>42</ele><time>2022-03-04T16:19:40Z</time><name>PT7877</name></trkpt>
<trkpt lat="52.036686" lon="05.780872"><ele>41.7</ele><time>2022-03-04T16:19:41Z</time><name>PT7878</name></trkpt>
<trkpt lat="52.036691" lon="05.780882"><ele>41.6</ele><time>2022-03-04T16:19:42Z</time><name>PT7879</name></trkpt>
<trkpt lat="52.036692" lon="05.780898"><ele>41.6</ele><time>2022-03-04T16:19:43Z</time><name>PT7880</name></trkpt>
<trkpt lat="52.036690" lon="05.780914"><ele>41.5</ele><time>2022-03-04T16:19:44Z</time><name>PT7881</name></trkpt>
<trkpt lat="52.036690" lon="05.780927"><ele>41.5</ele><time>2022-03-04T16:19:45Z</time><name>PT7882</name></trkpt>
<trkpt lat="52.036690" lon="05.780941"><ele>41.6</ele><time>2022-03-04T16:19:46Z</time><name>PT7883</name></trkpt>
<trkpt lat="52.036689" lon="05.780954"><ele>41.4</ele><time>2022-03-04T16:19:47Z</time><name>PT7884</name></trkpt>
<trkpt lat="52.036689" lon="05.780971"><ele>41.3</ele><time>2022-03-04T16:19:48Z</time><name>PT7885</name></trkpt>
<trkpt lat="52.036687" lon="05.780988"><ele>41.4</ele><time>2022-03-04T16:19:49Z</time><name>PT7886</name></trkpt>
<trkpt lat="52.036685" lon="05.781009"><ele>41.4</ele><time>2022-03-04T16:19:50Z</time><name>PT7887</name></trkpt>
<trkpt lat="52.036685" lon="05.781034"><ele>41.6</ele><time>2022-03-04T16:19:51Z</time><name>PT7888</name></trkpt>
<trkpt lat="52.036687" lon="05.781056"><ele>41.6</ele><time>2022-03-04T16:19:52Z</time><name>PT7889</name></trkpt>
<trkpt lat="52.036687" lon="05.781076"><ele>41.6</ele><time>2022-03-04T16:19:53Z</time><name>PT7890</name></trkpt>
<trkpt lat="52.036689" lon="05.781092"><ele>41.6</ele><time>2022-03-04T16:19:54Z</time><name>PT7891</name></trkpt>
<trkpt lat="52.036690" lon="05.781104"><ele>41.5</ele><time>2022-03-04T16:19:55Z</time><name>PT7892</name></trkpt>
<trkpt lat="52.036690" lon="05.781117"><ele>41.4</ele><time>2022-03-04T16:19:56Z</time><name>PT7893</name></trkpt>
<trkpt lat="52.036690" lon="05.781129"><ele>41.6</ele><time>2022-03-04T16:19:57Z</time><name>PT7894</name></trkpt>
<trkpt lat="52.036690" lon="05.781143"><ele>41.4</ele><time>2022-03-04T16:19:58Z</time><name>PT7895</name></trkpt>
<trkpt lat="52.036689" lon="05.781158"><ele>41.6</ele><time>2022-03-04T16:19:59Z</time><name>PT7896</name></trkpt>
<trkpt lat="52.036689" lon="05.781180"><ele>41.6</ele><time>2022-03-04T16:20:00Z</time><name>PT7897</name></trkpt>
<trkpt lat="52.036689" lon="05.781205"><ele>41.6</ele><time>2022-03-04T16:20:01Z</time><name>PT7898</name></trkpt>
<trkpt lat="52.036689" lon="05.781226"><ele>41.6</ele><time>2022-03-04T16:20:02Z</time><name>PT7899</name></trkpt>
<trkpt lat="52.036690" lon="05.781242"><ele>41.7</ele><time>2022-03-04T16:20:04Z</time><name>PT7900</name></trkpt>
<trkpt lat="52.036689" lon="05.781254"><ele>41.7</ele><time>2022-03-04T16:20:04Z</time><name>PT7901</name></trkpt>
<trkpt lat="52.036690" lon="05.781269"><ele>41.9</ele><time>2022-03-04T16:20:05Z</time><name>PT7902</name></trkpt>
<trkpt lat="52.036691" lon="05.781283"><ele>42</ele><time>2022-03-04T16:20:06Z</time><name>PT7903</name></trkpt>
<trkpt lat="52.036692" lon="05.781299"><ele>41.9</ele><time>2022-03-04T16:20:07Z</time><name>PT7904</name></trkpt>
<trkpt lat="52.036691" lon="05.781318"><ele>41.7</ele><time>2022-03-04T16:20:08Z</time><name>PT7905</name></trkpt>
<trkpt lat="52.036691" lon="05.781341"><ele>41.6</ele><time>2022-03-04T16:20:09Z</time><name>PT7906</name></trkpt>
<trkpt lat="52.036694" lon="05.781363"><ele>41.6</ele><time>2022-03-04T16:20:10Z</time><name>PT7907</name></trkpt>
<trkpt lat="52.036697" lon="05.781386"><ele>41.4</ele><time>2022-03-04T16:20:11Z</time><name>PT7908</name></trkpt>
<trkpt lat="52.036698" lon="05.781402"><ele>41.7</ele><time>2022-03-04T16:20:12Z</time><name>PT7909</name></trkpt>
<trkpt lat="52.036698" lon="05.781416"><ele>41.6</ele><time>2022-03-04T16:20:13Z</time><name>PT7910</name></trkpt>
<trkpt lat="52.036698" lon="05.781431"><ele>41.9</ele><time>2022-03-04T16:20:14Z</time><name>PT7911</name></trkpt>
<trkpt lat="52.036698" lon="05.781450"><ele>41.8</ele><time>2022-03-04T16:20:15Z</time><name>PT7912</name></trkpt>
<trkpt lat="52.036697" lon="05.781469"><ele>41.8</ele><time>2022-03-04T16:20:16Z</time><name>PT7913</name></trkpt>
<trkpt lat="52.036695" lon="05.781488"><ele>41.7</ele><time>2022-03-04T16:20:17Z</time><name>PT7914</name></trkpt>
<trkpt lat="52.036694" lon="05.781509"><ele>41.9</ele><time>2022-03-04T16:20:18Z</time><name>PT7915</name></trkpt>
<trkpt lat="52.036693" lon="05.781532"><ele>41.8</ele><time>2022-03-04T16:20:19Z</time><name>PT7916</name></trkpt>
<trkpt lat="52.036694" lon="05.781553"><ele>41.8</ele><time>2022-03-04T16:20:20Z</time><name>PT7917</name></trkpt>
<trkpt lat="52.036696" lon="05.781576"><ele>41.8</ele><time>2022-03-04T16:20:21Z</time><name>PT7918</name></trkpt>
<trkpt lat="52.036695" lon="05.781592"><ele>42</ele><time>2022-03-04T16:20:22Z</time><name>PT7919</name></trkpt>
<trkpt lat="52.036696" lon="05.781606"><ele>41.8</ele><time>2022-03-04T16:20:23Z</time><name>PT7920</name></trkpt>
<trkpt lat="52.036697" lon="05.781620"><ele>41.8</ele><time>2022-03-04T16:20:24Z</time><name>PT7921</name></trkpt>
<trkpt lat="52.036694" lon="05.781637"><ele>41.7</ele><time>2022-03-04T16:20:25Z</time><name>PT7922</name></trkpt>
<trkpt lat="52.036694" lon="05.781650"><ele>41.7</ele><time>2022-03-04T16:20:26Z</time><name>PT7923</name></trkpt>
<trkpt lat="52.036694" lon="05.781670"><ele>41.7</ele><time>2022-03-04T16:20:27Z</time><name>PT7924</name></trkpt>
<trkpt lat="52.036691" lon="05.781695"><ele>41.8</ele><time>2022-03-04T16:20:28Z</time><name>PT7925</name></trkpt>
<trkpt lat="52.036692" lon="05.781717"><ele>41.7</ele><time>2022-03-04T16:20:29Z</time><name>PT7926</name></trkpt>
<trkpt lat="52.036692" lon="05.781735"><ele>41.8</ele><time>2022-03-04T16:20:30Z</time><name>PT7927</name></trkpt>
<trkpt lat="52.036694" lon="05.781750"><ele>41.7</ele><time>2022-03-04T16:20:31Z</time><name>PT7928</name></trkpt>
<trkpt lat="52.036695" lon="05.781765"><ele>41.8</ele><time>2022-03-04T16:20:32Z</time><name>PT7929</name></trkpt>
<trkpt lat="52.036695" lon="05.781780"><ele>41.6</ele><time>2022-03-04T16:20:33Z</time><name>PT7930</name></trkpt>
<trkpt lat="52.036692" lon="05.781795"><ele>41.7</ele><time>2022-03-04T16:20:34Z</time><name>PT7931</name></trkpt>
<trkpt lat="52.036690" lon="05.781815"><ele>41.6</ele><time>2022-03-04T16:20:35Z</time><name>PT7932</name></trkpt>
<trkpt lat="52.036690" lon="05.781837"><ele>41.6</ele><time>2022-03-04T16:20:36Z</time><name>PT7933</name></trkpt>
<trkpt lat="52.036688" lon="05.781860"><ele>41.6</ele><time>2022-03-04T16:20:37Z</time><name>PT7934</name></trkpt>
<trkpt lat="52.036687" lon="05.781884"><ele>41.8</ele><time>2022-03-04T16:20:38Z</time><name>PT7935</name></trkpt>
<trkpt lat="52.036688" lon="05.781903"><ele>41.7</ele><time>2022-03-04T16:20:39Z</time><name>PT7936</name></trkpt>
<trkpt lat="52.036690" lon="05.781915"><ele>41.8</ele><time>2022-03-04T16:20:40Z</time><name>PT7937</name></trkpt>
<trkpt lat="52.036690" lon="05.781925"><ele>41.7</ele><time>2022-03-04T16:20:41Z</time><name>PT7938</name></trkpt>
<trkpt lat="52.036690" lon="05.781937"><ele>41.6</ele><time>2022-03-04T16:20:42Z</time><name>PT7939</name></trkpt>
<trkpt lat="52.036688" lon="05.781952"><ele>41.6</ele><time>2022-03-04T16:20:43Z</time><name>PT7940</name></trkpt>
<trkpt lat="52.036688" lon="05.781973"><ele>41.6</ele><time>2022-03-04T16:20:44Z</time><name>PT7941</name></trkpt>
<trkpt lat="52.036687" lon="05.781993"><ele>41.6</ele><time>2022-03-04T16:20:45Z</time><name>PT7942</name></trkpt>
<trkpt lat="52.036687" lon="05.782006"><ele>41.6</ele><time>2022-03-04T16:20:46Z</time><name>PT7943</name></trkpt>
<trkpt lat="52.036687" lon="05.782019"><ele>41.5</ele><time>2022-03-04T16:20:47Z</time><name>PT7944</name></trkpt>
<trkpt lat="52.036686" lon="05.782031"><ele>41.5</ele><time>2022-03-04T16:20:48Z</time><name>PT7945</name></trkpt>
<trkpt lat="52.036685" lon="05.782045"><ele>41.6</ele><time>2022-03-04T16:20:49Z</time><name>PT7946</name></trkpt>
<trkpt lat="52.036683" lon="05.782059"><ele>41.6</ele><time>2022-03-04T16:20:50Z</time><name>PT7947</name></trkpt>
<trkpt lat="52.036680" lon="05.782072"><ele>41.6</ele><time>2022-03-04T16:20:51Z</time><name>PT7948</name></trkpt>
<trkpt lat="52.036677" lon="05.782092"><ele>41.6</ele><time>2022-03-04T16:20:52Z</time><name>PT7949</name></trkpt>
<trkpt lat="52.036677" lon="05.782118"><ele>41.6</ele><time>2022-03-04T16:20:53Z</time><name>PT7950</name></trkpt>
<trkpt lat="52.036677" lon="05.782139"><ele>41.5</ele><time>2022-03-04T16:20:54Z</time><name>PT7951</name></trkpt>
<trkpt lat="52.036677" lon="05.782150"><ele>41.6</ele><time>2022-03-04T16:20:55Z</time><name>PT7952</name></trkpt>
<trkpt lat="52.036678" lon="05.782161"><ele>41.6</ele><time>2022-03-04T16:20:56Z</time><name>PT7953</name></trkpt>
<trkpt lat="52.036678" lon="05.782172"><ele>41.6</ele><time>2022-03-04T16:20:57Z</time><name>PT7954</name></trkpt>
<trkpt lat="52.036678" lon="05.782186"><ele>41.6</ele><time>2022-03-04T16:20:58Z</time><name>PT7955</name></trkpt>
<trkpt lat="52.036679" lon="05.782204"><ele>42</ele><time>2022-03-04T16:20:59Z</time><name>PT7956</name></trkpt>
<trkpt lat="52.036680" lon="05.782230"><ele>42</ele><time>2022-03-04T16:21:00Z</time><name>PT7957</name></trkpt>
<trkpt lat="52.036682" lon="05.782255"><ele>42</ele><time>2022-03-04T16:21:01Z</time><name>PT7958</name></trkpt>
<trkpt lat="52.036683" lon="05.782277"><ele>42.1</ele><time>2022-03-04T16:21:02Z</time><name>PT7959</name></trkpt>
<trkpt lat="52.036684" lon="05.782293"><ele>42.1</ele><time>2022-03-04T16:21:03Z</time><name>PT7960</name></trkpt>
<trkpt lat="52.036684" lon="05.782304"><ele>42.1</ele><time>2022-03-04T16:21:04Z</time><name>PT7961</name></trkpt>
<trkpt lat="52.036684" lon="05.782318"><ele>42.1</ele><time>2022-03-04T16:21:05Z</time><name>PT7962</name></trkpt>
<trkpt lat="52.036684" lon="05.782335"><ele>42.1</ele><time>2022-03-04T16:21:06Z</time><name>PT7963</name></trkpt>
<trkpt lat="52.036683" lon="05.782352"><ele>42</ele><time>2022-03-04T16:21:07Z</time><name>PT7964</name></trkpt>
<trkpt lat="52.036682" lon="05.782371"><ele>42</ele><time>2022-03-04T16:21:08Z</time><name>PT7965</name></trkpt>
<trkpt lat="52.036683" lon="05.782394"><ele>41.9</ele><time>2022-03-04T16:21:09Z</time><name>PT7966</name></trkpt>
<trkpt lat="52.036686" lon="05.782419"><ele>42</ele><time>2022-03-04T16:21:10Z</time><name>PT7967</name></trkpt>
<trkpt lat="52.036688" lon="05.782439"><ele>42</ele><time>2022-03-04T16:21:11Z</time><name>PT7968</name></trkpt>
<trkpt lat="52.036690" lon="05.782454"><ele>42.1</ele><time>2022-03-04T16:21:12Z</time><name>PT7969</name></trkpt>
<trkpt lat="52.036690" lon="05.782466"><ele>42</ele><time>2022-03-04T16:21:13Z</time><name>PT7970</name></trkpt>
<trkpt lat="52.036690" lon="05.782478"><ele>42</ele><time>2022-03-04T16:21:14Z</time><name>PT7971</name></trkpt>
<trkpt lat="52.036690" lon="05.782494"><ele>41.7</ele><time>2022-03-04T16:21:15Z</time><name>PT7972</name></trkpt>
<trkpt lat="52.036688" lon="05.782510"><ele>41.7</ele><time>2022-03-04T16:21:16Z</time><name>PT7973</name></trkpt>
<trkpt lat="52.036686" lon="05.782527"><ele>41.6</ele><time>2022-03-04T16:21:17Z</time><name>PT7974</name></trkpt>
<trkpt lat="52.036683" lon="05.782547"><ele>41.6</ele><time>2022-03-04T16:21:18Z</time><name>PT7975</name></trkpt>
<trkpt lat="52.036681" lon="05.782572"><ele>41.7</ele><time>2022-03-04T16:21:19Z</time><name>PT7976</name></trkpt>
<trkpt lat="52.036679" lon="05.782595"><ele>41.7</ele><time>2022-03-04T16:21:20Z</time><name>PT7977</name></trkpt>
<trkpt lat="52.036679" lon="05.782613"><ele>41.7</ele><time>2022-03-04T16:21:21Z</time><name>PT7978</name></trkpt>
<trkpt lat="52.036679" lon="05.782625"><ele>41.7</ele><time>2022-03-04T16:21:22Z</time><name>PT7979</name></trkpt>
<trkpt lat="52.036679" lon="05.782638"><ele>41.7</ele><time>2022-03-04T16:21:23Z</time><name>PT7980</name></trkpt>
<trkpt lat="52.036677" lon="05.782648"><ele>41.7</ele><time>2022-03-04T16:21:24Z</time><name>PT7981</name></trkpt>
<trkpt lat="52.036676" lon="05.782662"><ele>41.8</ele><time>2022-03-04T16:21:25Z</time><name>PT7982</name></trkpt>
<trkpt lat="52.036675" lon="05.782680"><ele>41.8</ele><time>2022-03-04T16:21:26Z</time><name>PT7983</name></trkpt>
<trkpt lat="52.036671" lon="05.782702"><ele>42</ele><time>2022-03-04T16:21:27Z</time><name>PT7984</name></trkpt>
<trkpt lat="52.036669" lon="05.782725"><ele>42</ele><time>2022-03-04T16:21:28Z</time><name>PT7985</name></trkpt>
<trkpt lat="52.036669" lon="05.782747"><ele>42.1</ele><time>2022-03-04T16:21:29Z</time><name>PT7986</name></trkpt>
<trkpt lat="52.036671" lon="05.782765"><ele>42.2</ele><time>2022-03-04T16:21:30Z</time><name>PT7987</name></trkpt>
<trkpt lat="52.036673" lon="05.782779"><ele>42.2</ele><time>2022-03-04T16:21:31Z</time><name>PT7988</name></trkpt>
<trkpt lat="52.036676" lon="05.782791"><ele>42.3</ele><time>2022-03-04T16:21:32Z</time><name>PT7989</name></trkpt>
<trkpt lat="52.036678" lon="05.782801"><ele>42.4</ele><time>2022-03-04T16:21:33Z</time><name>PT7990</name></trkpt>
<trkpt lat="52.036678" lon="05.782816"><ele>42.3</ele><time>2022-03-04T16:21:34Z</time><name>PT7991</name></trkpt>
<trkpt lat="52.036677" lon="05.782831"><ele>42.2</ele><time>2022-03-04T16:21:35Z</time><name>PT7992</name></trkpt>
<trkpt lat="52.036677" lon="05.782850"><ele>42.1</ele><time>2022-03-04T16:21:36Z</time><name>PT7993</name></trkpt>
<trkpt lat="52.036676" lon="05.782866"><ele>42.1</ele><time>2022-03-04T16:21:37Z</time><name>PT7994</name></trkpt>
<trkpt lat="52.036679" lon="05.782879"><ele>42.1</ele><time>2022-03-04T16:21:38Z</time><name>PT7995</name></trkpt>
<trkpt lat="52.036683" lon="05.782891"><ele>42</ele><time>2022-03-04T16:21:39Z</time><name>PT7996</name></trkpt>
<trkpt lat="52.036686" lon="05.782905"><ele>42.1</ele><time>2022-03-04T16:21:40Z</time><name>PT7997</name></trkpt>
<trkpt lat="52.036688" lon="05.782920"><ele>42</ele><time>2022-03-04T16:21:41Z</time><name>PT7998</name></trkpt>
<trkpt lat="52.036689" lon="05.782933"><ele>42</ele><time>2022-03-04T16:21:42Z</time><name>PT7999</name></trkpt>
<trkpt lat="52.036688" lon="05.782950"><ele>42</ele><time>2022-03-04T16:21:43Z</time><name>PT8000</name></trkpt>
<trkpt lat="52.036691" lon="05.782969"><ele>42.1</ele><time>2022-03-04T16:21:44Z</time><name>PT8001</name></trkpt>
<trkpt lat="52.036695" lon="05.782985"><ele>42.1</ele><time>2022-03-04T16:21:45Z</time><name>PT8002</name></trkpt>
<trkpt lat="52.036697" lon="05.782998"><ele>42.1</ele><time>2022-03-04T16:21:46Z</time><name>PT8003</name></trkpt>
<trkpt lat="52.036697" lon="05.783009"><ele>42.1</ele><time>2022-03-04T16:21:47Z</time><name>PT8004</name></trkpt>
<trkpt lat="52.036697" lon="05.783022"><ele>42</ele><time>2022-03-04T16:21:48Z</time><name>PT8005</name></trkpt>
<trkpt lat="52.036697" lon="05.783042"><ele>42.1</ele><time>2022-03-04T16:21:49Z</time><name>PT8006</name></trkpt>
<trkpt lat="52.036693" lon="05.783064"><ele>42</ele><time>2022-03-04T16:21:50Z</time><name>PT8007</name></trkpt>
<trkpt lat="52.036693" lon="05.783082"><ele>42</ele><time>2022-03-04T16:21:51Z</time><name>PT8008</name></trkpt>
<trkpt lat="52.036693" lon="05.783096"><ele>42</ele><time>2022-03-04T16:21:52Z</time><name>PT8009</name></trkpt>
<trkpt lat="52.036690" lon="05.783106"><ele>42</ele><time>2022-03-04T16:21:53Z</time><name>PT8010</name></trkpt>
<trkpt lat="52.036689" lon="05.783117"><ele>42</ele><time>2022-03-04T16:21:54Z</time><name>PT8011</name></trkpt>
<trkpt lat="52.036687" lon="05.783134"><ele>42.1</ele><time>2022-03-04T16:21:55Z</time><name>PT8012</name></trkpt>
<trkpt lat="52.036685" lon="05.783156"><ele>42</ele><time>2022-03-04T16:21:56Z</time><name>PT8013</name></trkpt>
<trkpt lat="52.036684" lon="05.783176"><ele>42</ele><time>2022-03-04T16:21:57Z</time><name>PT8014</name></trkpt>
<trkpt lat="52.036684" lon="05.783189"><ele>42</ele><time>2022-03-04T16:21:58Z</time><name>PT8015</name></trkpt>
<trkpt lat="52.036684" lon="05.783200"><ele>42.1</ele><time>2022-03-04T16:21:59Z</time><name>PT8016</name></trkpt>
<trkpt lat="52.036684" lon="05.783209"><ele>42.1</ele><time>2022-03-04T16:22:00Z</time><name>PT8017</name></trkpt>
<trkpt lat="52.036683" lon="05.783224"><ele>42.2</ele><time>2022-03-04T16:22:01Z</time><name>PT8018</name></trkpt>
<trkpt lat="52.036685" lon="05.783245"><ele>42.1</ele><time>2022-03-04T16:22:02Z</time><name>PT8019</name></trkpt>
<trkpt lat="52.036687" lon="05.783259"><ele>42.1</ele><time>2022-03-04T16:22:03Z</time><name>PT8020</name></trkpt>
<trkpt lat="52.036681" lon="05.783267"><ele>42.1</ele><time>2022-03-04T16:22:04Z</time><name>PT8021</name></trkpt>
<trkpt lat="52.036678" lon="05.783276"><ele>42.1</ele><time>2022-03-04T16:22:05Z</time><name>PT8022</name></trkpt>
<trkpt lat="52.036679" lon="05.783294"><ele>42.1</ele><time>2022-03-04T16:22:06Z</time><name>PT8023</name></trkpt>
<trkpt lat="52.036675" lon="05.783314"><ele>42.1</ele><time>2022-03-04T16:22:07Z</time><name>PT8024</name></trkpt>
<trkpt lat="52.036669" lon="05.783334"><ele>42.1</ele><time>2022-03-04T16:22:08Z</time><name>PT8025</name></trkpt>
<trkpt lat="52.036667" lon="05.783341"><ele>42.1</ele><time>2022-03-04T16:22:09Z</time><name>PT8026</name></trkpt>
<trkpt lat="52.036665" lon="05.783349"><ele>42.1</ele><time>2022-03-04T16:22:10Z</time><name>PT8027</name></trkpt>
<trkpt lat="52.036662" lon="05.783364"><ele>42.1</ele><time>2022-03-04T16:22:11Z</time><name>PT8028</name></trkpt>
<trkpt lat="52.036663" lon="05.783384"><ele>42.3</ele><time>2022-03-04T16:22:12Z</time><name>PT8029</name></trkpt>
<trkpt lat="52.036660" lon="05.783405"><ele>42.3</ele><time>2022-03-04T16:22:13Z</time><name>PT8030</name></trkpt>
<trkpt lat="52.036657" lon="05.783429"><ele>42.4</ele><time>2022-03-04T16:22:14Z</time><name>PT8031</name></trkpt>
<trkpt lat="52.036655" lon="05.783451"><ele>42.3</ele><time>2022-03-04T16:22:15Z</time><name>PT8032</name></trkpt>
<trkpt lat="52.036655" lon="05.783467"><ele>42.1</ele><time>2022-03-04T16:22:16Z</time><name>PT8033</name></trkpt>
<trkpt lat="52.036654" lon="05.783481"><ele>42.1</ele><time>2022-03-04T16:22:17Z</time><name>PT8034</name></trkpt>
<trkpt lat="52.036652" lon="05.783495"><ele>42</ele><time>2022-03-04T16:22:18Z</time><name>PT8035</name></trkpt>
<trkpt lat="52.036649" lon="05.783515"><ele>42.1</ele><time>2022-03-04T16:22:19Z</time><name>PT8036</name></trkpt>
<trkpt lat="52.036644" lon="05.783536"><ele>42.1</ele><time>2022-03-04T16:22:20Z</time><name>PT8037</name></trkpt>
<trkpt lat="52.036637" lon="05.783562"><ele>42.2</ele><time>2022-03-04T16:22:21Z</time><name>PT8038</name></trkpt>
<trkpt lat="52.036631" lon="05.783587"><ele>42.3</ele><time>2022-03-04T16:22:22Z</time><name>PT8039</name></trkpt>
<trkpt lat="52.036626" lon="05.783603"><ele>42.4</ele><time>2022-03-04T16:22:23Z</time><name>PT8040</name></trkpt>
<trkpt lat="52.036623" lon="05.783615"><ele>42.4</ele><time>2022-03-04T16:22:24Z</time><name>PT8041</name></trkpt>
<trkpt lat="52.036617" lon="05.783627"><ele>42.4</ele><time>2022-03-04T16:22:25Z</time><name>PT8042</name></trkpt>
<trkpt lat="52.036612" lon="05.783639"><ele>42.5</ele><time>2022-03-04T16:22:26Z</time><name>PT8043</name></trkpt>
<trkpt lat="52.036607" lon="05.783651"><ele>42.6</ele><time>2022-03-04T16:22:27Z</time><name>PT8044</name></trkpt>
<trkpt lat="52.036602" lon="05.783669"><ele>42.6</ele><time>2022-03-04T16:22:28Z</time><name>PT8045</name></trkpt>
<trkpt lat="52.036596" lon="05.783685"><ele>42.6</ele><time>2022-03-04T16:22:29Z</time><name>PT8046</name></trkpt>
<trkpt lat="52.036596" lon="05.783704"><ele>42.6</ele><time>2022-03-04T16:22:30Z</time><name>PT8047</name></trkpt>
<trkpt lat="52.036593" lon="05.783718"><ele>42.6</ele><time>2022-03-04T16:22:31Z</time><name>PT8048</name></trkpt>
<trkpt lat="52.036588" lon="05.783730"><ele>42.6</ele><time>2022-03-04T16:22:32Z</time><name>PT8049</name></trkpt>
<trkpt lat="52.036583" lon="05.783740"><ele>42.5</ele><time>2022-03-04T16:22:33Z</time><name>PT8050</name></trkpt>
<trkpt lat="52.036574" lon="05.783758"><ele>42.4</ele><time>2022-03-04T16:22:34Z</time><name>PT8051</name></trkpt>
<trkpt lat="52.036567" lon="05.783777"><ele>42.3</ele><time>2022-03-04T16:22:35Z</time><name>PT8052</name></trkpt>
<trkpt lat="52.036560" lon="05.783797"><ele>42.2</ele><time>2022-03-04T16:22:36Z</time><name>PT8053</name></trkpt>
<trkpt lat="52.036555" lon="05.783809"><ele>42.2</ele><time>2022-03-04T16:22:37Z</time><name>PT8054</name></trkpt>
<trkpt lat="52.036552" lon="05.783815"><ele>42.3</ele><time>2022-03-04T16:22:38Z</time><name>PT8055</name></trkpt>
<trkpt lat="52.036546" lon="05.783826"><ele>42.4</ele><time>2022-03-04T16:22:39Z</time><name>PT8056</name></trkpt>
<trkpt lat="52.036536" lon="05.783831"><ele>42.5</ele><time>2022-03-04T16:22:40Z</time><name>PT8057</name></trkpt>
<trkpt lat="52.036529" lon="05.783838"><ele>42.6</ele><time>2022-03-04T16:22:41Z</time><name>PT8058</name></trkpt>
<trkpt lat="52.036521" lon="05.783846"><ele>42.6</ele><time>2022-03-04T16:22:42Z</time><name>PT8059</name></trkpt>
<trkpt lat="52.036513" lon="05.783858"><ele>42.6</ele><time>2022-03-04T16:22:43Z</time><name>PT8060</name></trkpt>
<trkpt lat="52.036505" lon="05.783869"><ele>42.7</ele><time>2022-03-04T16:22:44Z</time><name>PT8061</name></trkpt>
<trkpt lat="52.036498" lon="05.783881"><ele>42.9</ele><time>2022-03-04T16:22:45Z</time><name>PT8062</name></trkpt>
<trkpt lat="52.036489" lon="05.783886"><ele>43</ele><time>2022-03-04T16:22:46Z</time><name>PT8063</name></trkpt>
<trkpt lat="52.036477" lon="05.783889"><ele>43</ele><time>2022-03-04T16:22:47Z</time><name>PT8064</name></trkpt>
<trkpt lat="52.036467" lon="05.783891"><ele>43</ele><time>2022-03-04T16:22:48Z</time><name>PT8065</name></trkpt>
<trkpt lat="52.036456" lon="05.783895"><ele>43</ele><time>2022-03-04T16:22:49Z</time><name>PT8066</name></trkpt>
<trkpt lat="52.036445" lon="05.783903"><ele>43</ele><time>2022-03-04T16:22:50Z</time><name>PT8067</name></trkpt>
<trkpt lat="52.036432" lon="05.783910"><ele>43</ele><time>2022-03-04T16:22:51Z</time><name>PT8068</name></trkpt>
<trkpt lat="52.036419" lon="05.783911"><ele>42.9</ele><time>2022-03-04T16:22:52Z</time><name>PT8069</name></trkpt>
<trkpt lat="52.036408" lon="05.783910"><ele>43</ele><time>2022-03-04T16:22:53Z</time><name>PT8070</name></trkpt>
<trkpt lat="52.036395" lon="05.783916"><ele>42.9</ele><time>2022-03-04T16:22:54Z</time><name>PT8071</name></trkpt>
<trkpt lat="52.036385" lon="05.783923"><ele>42.8</ele><time>2022-03-04T16:22:55Z</time><name>PT8072</name></trkpt>
<trkpt lat="52.036375" lon="05.783926"><ele>42.9</ele><time>2022-03-04T16:22:56Z</time><name>PT8073</name></trkpt>
<trkpt lat="52.036362" lon="05.783930"><ele>43</ele><time>2022-03-04T16:22:57Z</time><name>PT8074</name></trkpt>
<trkpt lat="52.036350" lon="05.783931"><ele>43</ele><time>2022-03-04T16:22:58Z</time><name>PT8075</name></trkpt>
<trkpt lat="52.036337" lon="05.783931"><ele>43.2</ele><time>2022-03-04T16:22:59Z</time><name>PT8076</name></trkpt>
<trkpt lat="52.036328" lon="05.783931"><ele>43.3</ele><time>2022-03-04T16:23:00Z</time><name>PT8077</name></trkpt>
<trkpt lat="52.036318" lon="05.783931"><ele>43.3</ele><time>2022-03-04T16:23:01Z</time><name>PT8078</name></trkpt>
<trkpt lat="52.036308" lon="05.783935"><ele>43.2</ele><time>2022-03-04T16:23:02Z</time><name>PT8079</name></trkpt>
<trkpt lat="52.036299" lon="05.783937"><ele>43.1</ele><time>2022-03-04T16:23:03Z</time><name>PT8080</name></trkpt>
<trkpt lat="52.036290" lon="05.783940"><ele>43.2</ele><time>2022-03-04T16:23:04Z</time><name>PT8081</name></trkpt>
<trkpt lat="52.036282" lon="05.783942"><ele>43.1</ele><time>2022-03-04T16:23:05Z</time><name>PT8082</name></trkpt>
<trkpt lat="52.036271" lon="05.783950"><ele>43.4</ele><time>2022-03-04T16:23:06Z</time><name>PT8083</name></trkpt>
<trkpt lat="52.036264" lon="05.783954"><ele>43.4</ele><time>2022-03-04T16:23:07Z</time><name>PT8084</name></trkpt>
<trkpt lat="52.036251" lon="05.783958"><ele>43.6</ele><time>2022-03-04T16:23:08Z</time><name>PT8085</name></trkpt>
<trkpt lat="52.036239" lon="05.783965"><ele>43.6</ele><time>2022-03-04T16:23:10Z</time><name>PT8086</name></trkpt>
<trkpt lat="52.036227" lon="05.783966"><ele>43.7</ele><time>2022-03-04T16:23:10Z</time><name>PT8087</name></trkpt>
<trkpt lat="52.036214" lon="05.783970"><ele>43.7</ele><time>2022-03-04T16:23:11Z</time><name>PT8088</name></trkpt>
<trkpt lat="52.036203" lon="05.783972"><ele>43.8</ele><time>2022-03-04T16:23:12Z</time><name>PT8089</name></trkpt>
<trkpt lat="52.036191" lon="05.783974"><ele>43.7</ele><time>2022-03-04T16:23:13Z</time><name>PT8090</name></trkpt>
<trkpt lat="52.036179" lon="05.783977"><ele>43.9</ele><time>2022-03-04T16:23:14Z</time><name>PT8091</name></trkpt>
<trkpt lat="52.036167" lon="05.783978"><ele>43.8</ele><time>2022-03-04T16:23:15Z</time><name>PT8092</name></trkpt>
<trkpt lat="52.036155" lon="05.783979"><ele>43.9</ele><time>2022-03-04T16:23:16Z</time><name>PT8093</name></trkpt>
<trkpt lat="52.036143" lon="05.783981"><ele>43.8</ele><time>2022-03-04T16:23:17Z</time><name>PT8094</name></trkpt>
<trkpt lat="52.036131" lon="05.783985"><ele>43.7</ele><time>2022-03-04T16:23:18Z</time><name>PT8095</name></trkpt>
<trkpt lat="52.036119" lon="05.783989"><ele>43.7</ele><time>2022-03-04T16:23:19Z</time><name>PT8096</name></trkpt>
<trkpt lat="52.036107" lon="05.783994"><ele>43.7</ele><time>2022-03-04T16:23:20Z</time><name>PT8097</name></trkpt>
<trkpt lat="52.036098" lon="05.784002"><ele>43.7</ele><time>2022-03-04T16:23:21Z</time><name>PT8098</name></trkpt>
<trkpt lat="52.036087" lon="05.784010"><ele>43.8</ele><time>2022-03-04T16:23:22Z</time><name>PT8099</name></trkpt>
<trkpt lat="52.036078" lon="05.784012"><ele>43.7</ele><time>2022-03-04T16:23:23Z</time><name>PT8100</name></trkpt>
<trkpt lat="52.036067" lon="05.784015"><ele>43.7</ele><time>2022-03-04T16:23:24Z</time><name>PT8101</name></trkpt>
<trkpt lat="52.036057" lon="05.784017"><ele>43.8</ele><time>2022-03-04T16:23:25Z</time><name>PT8102</name></trkpt>
<trkpt lat="52.036047" lon="05.784019"><ele>43.9</ele><time>2022-03-04T16:23:26Z</time><name>PT8103</name></trkpt>
<trkpt lat="52.036033" lon="05.784017"><ele>44</ele><time>2022-03-04T16:23:27Z</time><name>PT8104</name></trkpt>
<trkpt lat="52.036022" lon="05.784019"><ele>44</ele><time>2022-03-04T16:23:28Z</time><name>PT8105</name></trkpt>
<trkpt lat="52.036013" lon="05.784021"><ele>43.9</ele><time>2022-03-04T16:23:29Z</time><name>PT8106</name></trkpt>
<trkpt lat="52.036003" lon="05.784021"><ele>43.7</ele><time>2022-03-04T16:23:30Z</time><name>PT8107</name></trkpt>
<trkpt lat="52.035992" lon="05.784024"><ele>43.6</ele><time>2022-03-04T16:23:31Z</time><name>PT8108</name></trkpt>
<trkpt lat="52.035979" lon="05.784027"><ele>43.5</ele><time>2022-03-04T16:23:32Z</time><name>PT8109</name></trkpt>
<trkpt lat="52.035971" lon="05.784027"><ele>43.6</ele><time>2022-03-04T16:23:33Z</time><name>PT8110</name></trkpt>
<trkpt lat="52.035960" lon="05.784029"><ele>43.6</ele><time>2022-03-04T16:23:34Z</time><name>PT8111</name></trkpt>
<trkpt lat="52.035949" lon="05.784032"><ele>43.6</ele><time>2022-03-04T16:23:35Z</time><name>PT8112</name></trkpt>
<trkpt lat="52.035938" lon="05.784034"><ele>43.5</ele><time>2022-03-04T16:23:36Z</time><name>PT8113</name></trkpt>
<trkpt lat="52.035927" lon="05.784034"><ele>43.6</ele><time>2022-03-04T16:23:37Z</time><name>PT8114</name></trkpt>
<trkpt lat="52.035918" lon="05.784037"><ele>43.5</ele><time>2022-03-04T16:23:38Z</time><name>PT8115</name></trkpt>
<trkpt lat="52.035910" lon="05.784042"><ele>43.4</ele><time>2022-03-04T16:23:39Z</time><name>PT8116</name></trkpt>
<trkpt lat="52.035912" lon="05.784051"><ele>43.4</ele><time>2022-03-04T16:23:40Z</time><name>PT8117</name></trkpt>
<trkpt lat="52.035907" lon="05.784060"><ele>43.3</ele><time>2022-03-04T16:23:41Z</time><name>PT8118</name></trkpt>
<trkpt lat="52.035898" lon="05.784066"><ele>43</ele><time>2022-03-04T16:23:42Z</time><name>PT8119</name></trkpt>
<trkpt lat="52.035885" lon="05.784065"><ele>43</ele><time>2022-03-04T16:23:43Z</time><name>PT8120</name></trkpt>
<trkpt lat="52.035870" lon="05.784067"><ele>43</ele><time>2022-03-04T16:23:44Z</time><name>PT8121</name></trkpt>
<trkpt lat="52.035857" lon="05.784068"><ele>43.1</ele><time>2022-03-04T16:23:45Z</time><name>PT8122</name></trkpt>
<trkpt lat="52.035846" lon="05.784071"><ele>43.1</ele><time>2022-03-04T16:23:46Z</time><name>PT8123</name></trkpt>
<trkpt lat="52.035839" lon="05.784076"><ele>43.4</ele><time>2022-03-04T16:23:47Z</time><name>PT8124</name></trkpt>
<trkpt lat="52.035835" lon="05.784086"><ele>43.4</ele><time>2022-03-04T16:23:48Z</time><name>PT8125</name></trkpt>
<trkpt lat="52.035832" lon="05.784092"><ele>43.5</ele><time>2022-03-04T16:23:49Z</time><name>PT8126</name></trkpt>
<trkpt lat="52.035822" lon="05.784093"><ele>43.6</ele><time>2022-03-04T16:23:50Z</time><name>PT8127</name></trkpt>
<trkpt lat="52.035811" lon="05.784102"><ele>43.5</ele><time>2022-03-04T16:23:51Z</time><name>PT8128</name></trkpt>
<trkpt lat="52.035797" lon="05.784105"><ele>43.3</ele><time>2022-03-04T16:23:52Z</time><name>PT8129</name></trkpt>
<trkpt lat="52.035786" lon="05.784105"><ele>43.3</ele><time>2022-03-04T16:23:53Z</time><name>PT8130</name></trkpt>
<trkpt lat="52.035777" lon="05.784108"><ele>43.1</ele><time>2022-03-04T16:23:54Z</time><name>PT8131</name></trkpt>
<trkpt lat="52.035770" lon="05.784114"><ele>42.9</ele><time>2022-03-04T16:23:55Z</time><name>PT8132</name></trkpt>
<trkpt lat="52.035758" lon="05.784115"><ele>43</ele><time>2022-03-04T16:23:56Z</time><name>PT8133</name></trkpt>
<trkpt lat="52.035746" lon="05.784114"><ele>43.1</ele><time>2022-03-04T16:23:57Z</time><name>PT8134</name></trkpt>
<trkpt lat="52.035737" lon="05.784112"><ele>43.1</ele><time>2022-03-04T16:23:58Z</time><name>PT8135</name></trkpt>
<trkpt lat="52.035728" lon="05.784121"><ele>43</ele><time>2022-03-04T16:23:59Z</time><name>PT8136</name></trkpt>
<trkpt lat="52.035719" lon="05.784123"><ele>43.1</ele><time>2022-03-04T16:24:00Z</time><name>PT8137</name></trkpt>
<trkpt lat="52.035709" lon="05.784130"><ele>43.2</ele><time>2022-03-04T16:24:01Z</time><name>PT8138</name></trkpt>
<trkpt lat="52.035699" lon="05.784133"><ele>43.2</ele><time>2022-03-04T16:24:02Z</time><name>PT8139</name></trkpt>
<trkpt lat="52.035690" lon="05.784135"><ele>43.2</ele><time>2022-03-04T16:24:03Z</time><name>PT8140</name></trkpt>
<trkpt lat="52.035680" lon="05.784141"><ele>43.2</ele><time>2022-03-04T16:24:04Z</time><name>PT8141</name></trkpt>
<trkpt lat="52.035669" lon="05.784144"><ele>43.3</ele><time>2022-03-04T16:24:05Z</time><name>PT8142</name></trkpt>
<trkpt lat="52.035655" lon="05.784146"><ele>43.3</ele><time>2022-03-04T16:24:06Z</time><name>PT8143</name></trkpt>
<trkpt lat="52.035642" lon="05.784148"><ele>43.3</ele><time>2022-03-04T16:24:07Z</time><name>PT8144</name></trkpt>
<trkpt lat="52.035633" lon="05.784151"><ele>43.2</ele><time>2022-03-04T16:24:08Z</time><name>PT8145</name></trkpt>
<trkpt lat="52.035626" lon="05.784154"><ele>43</ele><time>2022-03-04T16:24:09Z</time><name>PT8146</name></trkpt>
<trkpt lat="52.035615" lon="05.784153"><ele>43</ele><time>2022-03-04T16:24:10Z</time><name>PT8147</name></trkpt>
<trkpt lat="52.035609" lon="05.784152"><ele>43.2</ele><time>2022-03-04T16:24:11Z</time><name>PT8148</name></trkpt>
<trkpt lat="52.035595" lon="05.784155"><ele>43.1</ele><time>2022-03-04T16:24:12Z</time><name>PT8149</name></trkpt>
<trkpt lat="52.035582" lon="05.784154"><ele>43.2</ele><time>2022-03-04T16:24:13Z</time><name>PT8150</name></trkpt>
<trkpt lat="52.035571" lon="05.784156"><ele>43.4</ele><time>2022-03-04T16:24:14Z</time><name>PT8151</name></trkpt>
<trkpt lat="52.035560" lon="05.784158"><ele>43.4</ele><time>2022-03-04T16:24:15Z</time><name>PT8152</name></trkpt>
<trkpt lat="52.035547" lon="05.784148"><ele>43.5</ele><time>2022-03-04T16:24:16Z</time><name>PT8153</name></trkpt>
<trkpt lat="52.035540" lon="05.784150"><ele>43.5</ele><time>2022-03-04T16:24:17Z</time><name>PT8154</name></trkpt>
<trkpt lat="52.035534" lon="05.784151"><ele>43.3</ele><time>2022-03-04T16:24:18Z</time><name>PT8155</name></trkpt>
<trkpt lat="52.035523" lon="05.784154"><ele>43.3</ele><time>2022-03-04T16:24:19Z</time><name>PT8156</name></trkpt>
<trkpt lat="52.035509" lon="05.784161"><ele>43.4</ele><time>2022-03-04T16:24:20Z</time><name>PT8157</name></trkpt>
<trkpt lat="52.035495" lon="05.784159"><ele>43.5</ele><time>2022-03-04T16:24:21Z</time><name>PT8158</name></trkpt>
<trkpt lat="52.035484" lon="05.784159"><ele>43.5</ele><time>2022-03-04T16:24:22Z</time><name>PT8159</name></trkpt>
<trkpt lat="52.035475" lon="05.784169"><ele>43.5</ele><time>2022-03-04T16:24:23Z</time><name>PT8160</name></trkpt>
<trkpt lat="52.035466" lon="05.784175"><ele>43.5</ele><time>2022-03-04T16:24:24Z</time><name>PT8161</name></trkpt>
<trkpt lat="52.035454" lon="05.784175"><ele>43.4</ele><time>2022-03-04T16:24:25Z</time><name>PT8162</name></trkpt>
<trkpt lat="52.035442" lon="05.784176"><ele>43.2</ele><time>2022-03-04T16:24:26Z</time><name>PT8163</name></trkpt>
<trkpt lat="52.035426" lon="05.784181"><ele>43.3</ele><time>2022-03-04T16:24:27Z</time><name>PT8164</name></trkpt>
<trkpt lat="52.035411" lon="05.784183"><ele>43.2</ele><time>2022-03-04T16:24:28Z</time><name>PT8165</name></trkpt>
<trkpt lat="52.035399" lon="05.784189"><ele>43.1</ele><time>2022-03-04T16:24:29Z</time><name>PT8166</name></trkpt>
<trkpt lat="52.035386" lon="05.784188"><ele>43.2</ele><time>2022-03-04T16:24:30Z</time><name>PT8167</name></trkpt>
<trkpt lat="52.035376" lon="05.784189"><ele>43.3</ele><time>2022-03-04T16:24:31Z</time><name>PT8168</name></trkpt>
<trkpt lat="52.035360" lon="05.784189"><ele>43.5</ele><time>2022-03-04T16:24:32Z</time><name>PT8169</name></trkpt>
<trkpt lat="52.035346" lon="05.784195"><ele>43.4</ele><time>2022-03-04T16:24:33Z</time><name>PT8170</name></trkpt>
<trkpt lat="52.035329" lon="05.784193"><ele>43.4</ele><time>2022-03-04T16:24:34Z</time><name>PT8171</name></trkpt>
<trkpt lat="52.035314" lon="05.784192"><ele>43.5</ele><time>2022-03-04T16:24:35Z</time><name>PT8172</name></trkpt>
<trkpt lat="52.035303" lon="05.784195"><ele>43.2</ele><time>2022-03-04T16:24:36Z</time><name>PT8173</name></trkpt>
<trkpt lat="52.035294" lon="05.784199"><ele>43</ele><time>2022-03-04T16:24:37Z</time><name>PT8174</name></trkpt>
<trkpt lat="52.035283" lon="05.784195"><ele>43</ele><time>2022-03-04T16:24:38Z</time><name>PT8175</name></trkpt>
<trkpt lat="52.035260" lon="05.784200"><ele>43.2</ele><time>2022-03-04T16:24:39Z</time><name>PT8176</name></trkpt>
<trkpt lat="52.035244" lon="05.784201"><ele>43.1</ele><time>2022-03-04T16:24:40Z</time><name>PT8177</name></trkpt>
<trkpt lat="52.035233" lon="05.784206"><ele>43.4</ele><time>2022-03-04T16:24:41Z</time><name>PT8178</name></trkpt>
<trkpt lat="52.035222" lon="05.784209"><ele>43.6</ele><time>2022-03-04T16:24:42Z</time><name>PT8179</name></trkpt>
<trkpt lat="52.035210" lon="05.784212"><ele>43.5</ele><time>2022-03-04T16:24:43Z</time><name>PT8180</name></trkpt>
<trkpt lat="52.035197" lon="05.784216"><ele>43.5</ele><time>2022-03-04T16:24:44Z</time><name>PT8181</name></trkpt>
<trkpt lat="52.035187" lon="05.784221"><ele>43.6</ele><time>2022-03-04T16:24:45Z</time><name>PT8182</name></trkpt>
<trkpt lat="52.035175" lon="05.784222"><ele>43.6</ele><time>2022-03-04T16:24:46Z</time><name>PT8183</name></trkpt>
<trkpt lat="52.035161" lon="05.784220"><ele>43.5</ele><time>2022-03-04T16:24:47Z</time><name>PT8184</name></trkpt>
<trkpt lat="52.035148" lon="05.784222"><ele>43.8</ele><time>2022-03-04T16:24:48Z</time><name>PT8185</name></trkpt>
<trkpt lat="52.035140" lon="05.784220"><ele>43.8</ele><time>2022-03-04T16:24:49Z</time><name>PT8186</name></trkpt>
<trkpt lat="52.035129" lon="05.784218"><ele>43.8</ele><time>2022-03-04T16:24:50Z</time><name>PT8187</name></trkpt>
<trkpt lat="52.035120" lon="05.784218"><ele>43.7</ele><time>2022-03-04T16:24:51Z</time><name>PT8188</name></trkpt>
<trkpt lat="52.035106" lon="05.784218"><ele>43.6</ele><time>2022-03-04T16:24:52Z</time><name>PT8189</name></trkpt>
<trkpt lat="52.035091" lon="05.784216"><ele>43.4</ele><time>2022-03-04T16:24:53Z</time><name>PT8190</name></trkpt>
<trkpt lat="52.035081" lon="05.784222"><ele>43.5</ele><time>2022-03-04T16:24:54Z</time><name>PT8191</name></trkpt>
<trkpt lat="52.035068" lon="05.784226"><ele>43.4</ele><time>2022-03-04T16:24:55Z</time><name>PT8192</name></trkpt>
<trkpt lat="52.035057" lon="05.784230"><ele>43.4</ele><time>2022-03-04T16:24:56Z</time><name>PT8193</name></trkpt>
<trkpt lat="52.035038" lon="05.784240"><ele>43.4</ele><time>2022-03-04T16:24:58Z</time><name>PT8194</name></trkpt>
<trkpt lat="52.035027" lon="05.784247"><ele>43.2</ele><time>2022-03-04T16:24:59Z</time><name>PT8195</name></trkpt>
<trkpt lat="52.035016" lon="05.784263"><ele>43.3</ele><time>2022-03-04T16:25:00Z</time><name>PT8196</name></trkpt>
<trkpt lat="52.035004" lon="05.784270"><ele>43.4</ele><time>2022-03-04T16:25:01Z</time><name>PT8197</name></trkpt>
<trkpt lat="52.034994" lon="05.784270"><ele>43.5</ele><time>2022-03-04T16:25:02Z</time><name>PT8198</name></trkpt>
<trkpt lat="52.034985" lon="05.784274"><ele>43.6</ele><time>2022-03-04T16:25:03Z</time><name>PT8199</name></trkpt>
<trkpt lat="52.034977" lon="05.784278"><ele>43.7</ele><time>2022-03-04T16:25:04Z</time><name>PT8200</name></trkpt>
<trkpt lat="52.034968" lon="05.784280"><ele>43.9</ele><time>2022-03-04T16:25:05Z</time><name>PT8201</name></trkpt>
<trkpt lat="52.034958" lon="05.784285"><ele>43.9</ele><time>2022-03-04T16:25:06Z</time><name>PT8202</name></trkpt>
<trkpt lat="52.034947" lon="05.784286"><ele>44</ele><time>2022-03-04T16:25:07Z</time><name>PT8203</name></trkpt>
<trkpt lat="52.034934" lon="05.784285"><ele>43.9</ele><time>2022-03-04T16:25:08Z</time><name>PT8204</name></trkpt>
<trkpt lat="52.034918" lon="05.784284"><ele>44</ele><time>2022-03-04T16:25:09Z</time><name>PT8205</name></trkpt>
<trkpt lat="52.034903" lon="05.784282"><ele>43.9</ele><time>2022-03-04T16:25:10Z</time><name>PT8206</name></trkpt>
<trkpt lat="52.034891" lon="05.784282"><ele>43.8</ele><time>2022-03-04T16:25:11Z</time><name>PT8207</name></trkpt>
<trkpt lat="52.034881" lon="05.784280"><ele>43.7</ele><time>2022-03-04T16:25:12Z</time><name>PT8208</name></trkpt>
<trkpt lat="52.034872" lon="05.784282"><ele>43.6</ele><time>2022-03-04T16:25:13Z</time><name>PT8209</name></trkpt>
<trkpt lat="52.034863" lon="05.784288"><ele>43.4</ele><time>2022-03-04T16:25:14Z</time><name>PT8210</name></trkpt>
<trkpt lat="52.034852" lon="05.784291"><ele>43.5</ele><time>2022-03-04T16:25:15Z</time><name>PT8211</name></trkpt>
<trkpt lat="52.034841" lon="05.784296"><ele>43.5</ele><time>2022-03-04T16:25:16Z</time><name>PT8212</name></trkpt>
<trkpt lat="52.034827" lon="05.784300"><ele>43.5</ele><time>2022-03-04T16:25:17Z</time><name>PT8213</name></trkpt>
<trkpt lat="52.034813" lon="05.784305"><ele>43.4</ele><time>2022-03-04T16:25:18Z</time><name>PT8214</name></trkpt>
<trkpt lat="52.034799" lon="05.784310"><ele>43.5</ele><time>2022-03-04T16:25:19Z</time><name>PT8215</name></trkpt>
<trkpt lat="52.034786" lon="05.784314"><ele>43.4</ele><time>2022-03-04T16:25:20Z</time><name>PT8216</name></trkpt>
<trkpt lat="52.034767" lon="05.784315"><ele>43.5</ele><time>2022-03-04T16:25:22Z</time><name>PT8217</name></trkpt>
<trkpt lat="52.034757" lon="05.784317"><ele>43.6</ele><time>2022-03-04T16:25:23Z</time><name>PT8218</name></trkpt>
<trkpt lat="52.034748" lon="05.784322"><ele>43.6</ele><time>2022-03-04T16:25:24Z</time><name>PT8219</name></trkpt>
<trkpt lat="52.034735" lon="05.784326"><ele>43.7</ele><time>2022-03-04T16:25:25Z</time><name>PT8220</name></trkpt>
<trkpt lat="52.034722" lon="05.784330"><ele>43.8</ele><time>2022-03-04T16:25:26Z</time><name>PT8221</name></trkpt>
<trkpt lat="52.034709" lon="05.784331"><ele>43.9</ele><time>2022-03-04T16:25:27Z</time><name>PT8222</name></trkpt>
<trkpt lat="52.034701" lon="05.784335"><ele>43.9</ele><time>2022-03-04T16:25:28Z</time><name>PT8223</name></trkpt>
<trkpt lat="52.034693" lon="05.784338"><ele>43.9</ele><time>2022-03-04T16:25:29Z</time><name>PT8224</name></trkpt>
<trkpt lat="52.034686" lon="05.784343"><ele>43.8</ele><time>2022-03-04T16:25:30Z</time><name>PT8225</name></trkpt>
<trkpt lat="52.034673" lon="05.784347"><ele>43.8</ele><time>2022-03-04T16:25:31Z</time><name>PT8226</name></trkpt>
<trkpt lat="52.034660" lon="05.784348"><ele>43.8</ele><time>2022-03-04T16:25:32Z</time><name>PT8227</name></trkpt>
<trkpt lat="52.034645" lon="05.784349"><ele>43.9</ele><time>2022-03-04T16:25:33Z</time><name>PT8228</name></trkpt>
<trkpt lat="52.034632" lon="05.784349"><ele>43.9</ele><time>2022-03-04T16:25:34Z</time><name>PT8229</name></trkpt>
<trkpt lat="52.034621" lon="05.784351"><ele>43.8</ele><time>2022-03-04T16:25:35Z</time><name>PT8230</name></trkpt>
<trkpt lat="52.034613" lon="05.784357"><ele>43.9</ele><time>2022-03-04T16:25:36Z</time><name>PT8231</name></trkpt>
<trkpt lat="52.034604" lon="05.784359"><ele>44</ele><time>2022-03-04T16:25:37Z</time><name>PT8232</name></trkpt>
<trkpt lat="52.034597" lon="05.784364"><ele>43.9</ele><time>2022-03-04T16:25:38Z</time><name>PT8233</name></trkpt>
<trkpt lat="52.034583" lon="05.784366"><ele>43.9</ele><time>2022-03-04T16:25:39Z</time><name>PT8234</name></trkpt>
<trkpt lat="52.034566" lon="05.784365"><ele>44</ele><time>2022-03-04T16:25:40Z</time><name>PT8235</name></trkpt>
<trkpt lat="52.034551" lon="05.784359"><ele>43.9</ele><time>2022-03-04T16:25:41Z</time><name>PT8236</name></trkpt>
<trkpt lat="52.034541" lon="05.784358"><ele>43.8</ele><time>2022-03-04T16:25:42Z</time><name>PT8237</name></trkpt>
<trkpt lat="52.034532" lon="05.784358"><ele>43.5</ele><time>2022-03-04T16:25:43Z</time><name>PT8238</name></trkpt>
<trkpt lat="52.034523" lon="05.784363"><ele>43.5</ele><time>2022-03-04T16:25:44Z</time><name>PT8239</name></trkpt>
<trkpt lat="52.034514" lon="05.784368"><ele>43.5</ele><time>2022-03-04T16:25:45Z</time><name>PT8240</name></trkpt>
<trkpt lat="52.034504" lon="05.784376"><ele>43.5</ele><time>2022-03-04T16:25:46Z</time><name>PT8241</name></trkpt>
<trkpt lat="52.034490" lon="05.784368"><ele>43.5</ele><time>2022-03-04T16:25:47Z</time><name>PT8242</name></trkpt>
<trkpt lat="52.034475" lon="05.784366"><ele>43.6</ele><time>2022-03-04T16:25:48Z</time><name>PT8243</name></trkpt>
<trkpt lat="52.034461" lon="05.784364"><ele>43.6</ele><time>2022-03-04T16:25:49Z</time><name>PT8244</name></trkpt>
<trkpt lat="52.034450" lon="05.784361"><ele>43.5</ele><time>2022-03-04T16:25:50Z</time><name>PT8245</name></trkpt>
<trkpt lat="52.034438" lon="05.784365"><ele>43.9</ele><time>2022-03-04T16:25:51Z</time><name>PT8246</name></trkpt>
<trkpt lat="52.034426" lon="05.784370"><ele>44</ele><time>2022-03-04T16:25:52Z</time><name>PT8247</name></trkpt>
<trkpt lat="52.034417" lon="05.784367"><ele>44</ele><time>2022-03-04T16:25:53Z</time><name>PT8248</name></trkpt>
<trkpt lat="52.034408" lon="05.784370"><ele>44</ele><time>2022-03-04T16:25:54Z</time><name>PT8249</name></trkpt>
<trkpt lat="52.034392" lon="05.784366"><ele>44.1</ele><time>2022-03-04T16:25:55Z</time><name>PT8250</name></trkpt>
<trkpt lat="52.034380" lon="05.784366"><ele>44</ele><time>2022-03-04T16:25:56Z</time><name>PT8251</name></trkpt>
<trkpt lat="52.034367" lon="05.784361"><ele>43.9</ele><time>2022-03-04T16:25:57Z</time><name>PT8252</name></trkpt>
<trkpt lat="52.034357" lon="05.784363"><ele>43.8</ele><time>2022-03-04T16:25:58Z</time><name>PT8253</name></trkpt>
<trkpt lat="52.034346" lon="05.784366"><ele>44</ele><time>2022-03-04T16:25:59Z</time><name>PT8254</name></trkpt>
<trkpt lat="52.034335" lon="05.784368"><ele>44</ele><time>2022-03-04T16:26:00Z</time><name>PT8255</name></trkpt>
<trkpt lat="52.034323" lon="05.784371"><ele>44</ele><time>2022-03-04T16:26:01Z</time><name>PT8256</name></trkpt>
<trkpt lat="52.034312" lon="05.784375"><ele>44.3</ele><time>2022-03-04T16:26:02Z</time><name>PT8257</name></trkpt>
<trkpt lat="52.034302" lon="05.784384"><ele>44.5</ele><time>2022-03-04T16:26:03Z</time><name>PT8258</name></trkpt>
<trkpt lat="52.034291" lon="05.784391"><ele>44.5</ele><time>2022-03-04T16:26:04Z</time><name>PT8259</name></trkpt>
<trkpt lat="52.034280" lon="05.784398"><ele>44.5</ele><time>2022-03-04T16:26:05Z</time><name>PT8260</name></trkpt>
<trkpt lat="52.034267" lon="05.784402"><ele>44.5</ele><time>2022-03-04T16:26:06Z</time><name>PT8261</name></trkpt>
<trkpt lat="52.034256" lon="05.784406"><ele>44.5</ele><time>2022-03-04T16:26:07Z</time><name>PT8262</name></trkpt>
<trkpt lat="52.034244" lon="05.784407"><ele>44.5</ele><time>2022-03-04T16:26:08Z</time><name>PT8263</name></trkpt>
<trkpt lat="52.034233" lon="05.784409"><ele>44.5</ele><time>2022-03-04T16:26:09Z</time><name>PT8264</name></trkpt>
<trkpt lat="52.034226" lon="05.784403"><ele>44.5</ele><time>2022-03-04T16:26:10Z</time><name>PT8265</name></trkpt>
<trkpt lat="52.034219" lon="05.784402"><ele>44.3</ele><time>2022-03-04T16:26:11Z</time><name>PT8266</name></trkpt>
<trkpt lat="52.034209" lon="05.784407"><ele>44</ele><time>2022-03-04T16:26:12Z</time><name>PT8267</name></trkpt>
<trkpt lat="52.034203" lon="05.784415"><ele>44.1</ele><time>2022-03-04T16:26:13Z</time><name>PT8268</name></trkpt>
<trkpt lat="52.034191" lon="05.784415"><ele>44.1</ele><time>2022-03-04T16:26:14Z</time><name>PT8269</name></trkpt>
<trkpt lat="52.034179" lon="05.784418"><ele>43.8</ele><time>2022-03-04T16:26:15Z</time><name>PT8270</name></trkpt>
<trkpt lat="52.034164" lon="05.784421"><ele>44</ele><time>2022-03-04T16:26:16Z</time><name>PT8271</name></trkpt>
<trkpt lat="52.034150" lon="05.784425"><ele>44</ele><time>2022-03-04T16:26:17Z</time><name>PT8272</name></trkpt>
<trkpt lat="52.034138" lon="05.784430"><ele>43.9</ele><time>2022-03-04T16:26:18Z</time><name>PT8273</name></trkpt>
<trkpt lat="52.034128" lon="05.784436"><ele>44</ele><time>2022-03-04T16:26:19Z</time><name>PT8274</name></trkpt>
<trkpt lat="52.034117" lon="05.784439"><ele>43.9</ele><time>2022-03-04T16:26:20Z</time><name>PT8275</name></trkpt>
<trkpt lat="52.034106" lon="05.784444"><ele>43.9</ele><time>2022-03-04T16:26:21Z</time><name>PT8276</name></trkpt>
<trkpt lat="52.034092" lon="05.784444"><ele>43.8</ele><time>2022-03-04T16:26:22Z</time><name>PT8277</name></trkpt>
<trkpt lat="52.034074" lon="05.784444"><ele>43.8</ele><time>2022-03-04T16:26:23Z</time><name>PT8278</name></trkpt>
<trkpt lat="52.034058" lon="05.784444"><ele>43.8</ele><time>2022-03-04T16:26:24Z</time><name>PT8279</name></trkpt>
<trkpt lat="52.034043" lon="05.784442"><ele>43.8</ele><time>2022-03-04T16:26:25Z</time><name>PT8280</name></trkpt>
<trkpt lat="52.034029" lon="05.784442"><ele>43.8</ele><time>2022-03-04T16:26:26Z</time><name>PT8281</name></trkpt>
<trkpt lat="52.034019" lon="05.784446"><ele>43.8</ele><time>2022-03-04T16:26:27Z</time><name>PT8282</name></trkpt>
<trkpt lat="52.034011" lon="05.784451"><ele>43.8</ele><time>2022-03-04T16:26:28Z</time><name>PT8283</name></trkpt>
<trkpt lat="52.034005" lon="05.784455"><ele>43.9</ele><time>2022-03-04T16:26:29Z</time><name>PT8284</name></trkpt>
<trkpt lat="52.033999" lon="05.784455"><ele>43.8</ele><time>2022-03-04T16:26:31Z</time><name>PT8285</name></trkpt>
<trkpt lat="52.033987" lon="05.784455"><ele>43.8</ele><time>2022-03-04T16:26:31Z</time><name>PT8286</name></trkpt>
<trkpt lat="52.033972" lon="05.784459"><ele>43.6</ele><time>2022-03-04T16:26:32Z</time><name>PT8287</name></trkpt>
<trkpt lat="52.033958" lon="05.784463"><ele>43.5</ele><time>2022-03-04T16:26:33Z</time><name>PT8288</name></trkpt>
<trkpt lat="52.033946" lon="05.784466"><ele>43.7</ele><time>2022-03-04T16:26:34Z</time><name>PT8289</name></trkpt>
<trkpt lat="52.033937" lon="05.784471"><ele>43.9</ele><time>2022-03-04T16:26:35Z</time><name>PT8290</name></trkpt>
<trkpt lat="52.033927" lon="05.784476"><ele>44</ele><time>2022-03-04T16:26:36Z</time><name>PT8291</name></trkpt>
<trkpt lat="52.033919" lon="05.784479"><ele>44</ele><time>2022-03-04T16:26:37Z</time><name>PT8292</name></trkpt>
<trkpt lat="52.033911" lon="05.784483"><ele>44</ele><time>2022-03-04T16:26:38Z</time><name>PT8293</name></trkpt>
<trkpt lat="52.033898" lon="05.784487"><ele>43.7</ele><time>2022-03-04T16:26:39Z</time><name>PT8294</name></trkpt>
<trkpt lat="52.033886" lon="05.784489"><ele>43.5</ele><time>2022-03-04T16:26:40Z</time><name>PT8295</name></trkpt>
<trkpt lat="52.033872" lon="05.784486"><ele>43.6</ele><time>2022-03-04T16:26:41Z</time><name>PT8296</name></trkpt>
<trkpt lat="52.033858" lon="05.784485"><ele>43.7</ele><time>2022-03-04T16:26:42Z</time><name>PT8297</name></trkpt>
<trkpt lat="52.033848" lon="05.784489"><ele>43.8</ele><time>2022-03-04T16:26:43Z</time><name>PT8298</name></trkpt>
<trkpt lat="52.033840" lon="05.784493"><ele>43.9</ele><time>2022-03-04T16:26:44Z</time><name>PT8299</name></trkpt>
<trkpt lat="52.033831" lon="05.784497"><ele>44</ele><time>2022-03-04T16:26:45Z</time><name>PT8300</name></trkpt>
<trkpt lat="52.033824" lon="05.784503"><ele>43.9</ele><time>2022-03-04T16:26:46Z</time><name>PT8301</name></trkpt>
<trkpt lat="52.033812" lon="05.784511"><ele>43.9</ele><time>2022-03-04T16:26:47Z</time><name>PT8302</name></trkpt>
<trkpt lat="52.033799" lon="05.784515"><ele>43.9</ele><time>2022-03-04T16:26:48Z</time><name>PT8303</name></trkpt>
<trkpt lat="52.033784" lon="05.784512"><ele>43.9</ele><time>2022-03-04T16:26:49Z</time><name>PT8304</name></trkpt>
<trkpt lat="52.033774" lon="05.784517"><ele>43.9</ele><time>2022-03-04T16:26:50Z</time><name>PT8305</name></trkpt>
<trkpt lat="52.033764" lon="05.784516"><ele>43.8</ele><time>2022-03-04T16:26:51Z</time><name>PT8306</name></trkpt>
<trkpt lat="52.033754" lon="05.784517"><ele>43.8</ele><time>2022-03-04T16:26:52Z</time><name>PT8307</name></trkpt>
<trkpt lat="52.033746" lon="05.784522"><ele>43.7</ele><time>2022-03-04T16:26:53Z</time><name>PT8308</name></trkpt>
<trkpt lat="52.033737" lon="05.784529"><ele>43.6</ele><time>2022-03-04T16:26:54Z</time><name>PT8309</name></trkpt>
<trkpt lat="52.033726" lon="05.784530"><ele>43.7</ele><time>2022-03-04T16:26:55Z</time><name>PT8310</name></trkpt>
<trkpt lat="52.033713" lon="05.784532"><ele>43.7</ele><time>2022-03-04T16:26:56Z</time><name>PT8311</name></trkpt>
<trkpt lat="52.033699" lon="05.784532"><ele>43.8</ele><time>2022-03-04T16:26:57Z</time><name>PT8312</name></trkpt>
<trkpt lat="52.033687" lon="05.784531"><ele>43.9</ele><time>2022-03-04T16:26:58Z</time><name>PT8313</name></trkpt>
<trkpt lat="52.033677" lon="05.784531"><ele>43.9</ele><time>2022-03-04T16:26:59Z</time><name>PT8314</name></trkpt>
<trkpt lat="52.033669" lon="05.784530"><ele>43.9</ele><time>2022-03-04T16:27:00Z</time><name>PT8315</name></trkpt>
<trkpt lat="52.033659" lon="05.784532"><ele>43.9</ele><time>2022-03-04T16:27:01Z</time><name>PT8316</name></trkpt>
<trkpt lat="52.033649" lon="05.784533"><ele>43.9</ele><time>2022-03-04T16:27:02Z</time><name>PT8317</name></trkpt>
<trkpt lat="52.033636" lon="05.784528"><ele>43.8</ele><time>2022-03-04T16:27:03Z</time><name>PT8318</name></trkpt>
<trkpt lat="52.033626" lon="05.784528"><ele>43.7</ele><time>2022-03-04T16:27:04Z</time><name>PT8319</name></trkpt>
<trkpt lat="52.033615" lon="05.784527"><ele>43.8</ele><time>2022-03-04T16:27:05Z</time><name>PT8320</name></trkpt>
<trkpt lat="52.033605" lon="05.784528"><ele>43.9</ele><time>2022-03-04T16:27:06Z</time><name>PT8321</name></trkpt>
<trkpt lat="52.033594" lon="05.784530"><ele>43.8</ele><time>2022-03-04T16:27:07Z</time><name>PT8322</name></trkpt>
<trkpt lat="52.033579" lon="05.784528"><ele>43.9</ele><time>2022-03-04T16:27:08Z</time><name>PT8323</name></trkpt>
<trkpt lat="52.033568" lon="05.784530"><ele>44</ele><time>2022-03-04T16:27:09Z</time><name>PT8324</name></trkpt>
<trkpt lat="52.033559" lon="05.784534"><ele>43.8</ele><time>2022-03-04T16:27:10Z</time><name>PT8325</name></trkpt>
<trkpt lat="52.033549" lon="05.784541"><ele>43.7</ele><time>2022-03-04T16:27:11Z</time><name>PT8326</name></trkpt>
<trkpt lat="52.033547" lon="05.784545"><ele>43.8</ele><time>2022-03-04T16:27:12Z</time><name>PT8327</name></trkpt>
<trkpt lat="52.033538" lon="05.784543"><ele>43.7</ele><time>2022-03-04T16:27:13Z</time><name>PT8328</name></trkpt>
<trkpt lat="52.033524" lon="05.784545"><ele>43.5</ele><time>2022-03-04T16:27:14Z</time><name>PT8329</name></trkpt>
<trkpt lat="52.033510" lon="05.784541"><ele>43.5</ele><time>2022-03-04T16:27:15Z</time><name>PT8330</name></trkpt>
<trkpt lat="52.033495" lon="05.784536"><ele>43.5</ele><time>2022-03-04T16:27:16Z</time><name>PT8331</name></trkpt>
<trkpt lat="52.033482" lon="05.784533"><ele>43.4</ele><time>2022-03-04T16:27:17Z</time><name>PT8332</name></trkpt>
<trkpt lat="52.033474" lon="05.784537"><ele>43.5</ele><time>2022-03-04T16:27:18Z</time><name>PT8333</name></trkpt>
<trkpt lat="52.033466" lon="05.784543"><ele>43.5</ele><time>2022-03-04T16:27:19Z</time><name>PT8334</name></trkpt>
<trkpt lat="52.033456" lon="05.784549"><ele>43.5</ele><time>2022-03-04T16:27:20Z</time><name>PT8335</name></trkpt>
<trkpt lat="52.033443" lon="05.784550"><ele>43.5</ele><time>2022-03-04T16:27:21Z</time><name>PT8336</name></trkpt>
<trkpt lat="52.033432" lon="05.784551"><ele>43.5</ele><time>2022-03-04T16:27:22Z</time><name>PT8337</name></trkpt>
<trkpt lat="52.033419" lon="05.784555"><ele>43.6</ele><time>2022-03-04T16:27:23Z</time><name>PT8338</name></trkpt>
<trkpt lat="52.033412" lon="05.784558"><ele>43.6</ele><time>2022-03-04T16:27:24Z</time><name>PT8339</name></trkpt>
<trkpt lat="52.033404" lon="05.784562"><ele>43.7</ele><time>2022-03-04T16:27:25Z</time><name>PT8340</name></trkpt>
<trkpt lat="52.033396" lon="05.784568"><ele>43.6</ele><time>2022-03-04T16:27:26Z</time><name>PT8341</name></trkpt>
<trkpt lat="52.033386" lon="05.784572"><ele>43.7</ele><time>2022-03-04T16:27:27Z</time><name>PT8342</name></trkpt>
<trkpt lat="52.033374" lon="05.784573"><ele>43.6</ele><time>2022-03-04T16:27:28Z</time><name>PT8343</name></trkpt>
<trkpt lat="52.033360" lon="05.784578"><ele>43.7</ele><time>2022-03-04T16:27:29Z</time><name>PT8344</name></trkpt>
<trkpt lat="52.033347" lon="05.784584"><ele>43.8</ele><time>2022-03-04T16:27:30Z</time><name>PT8345</name></trkpt>
<trkpt lat="52.033339" lon="05.784589"><ele>43.9</ele><time>2022-03-04T16:27:31Z</time><name>PT8346</name></trkpt>
<trkpt lat="52.033330" lon="05.784589"><ele>43.9</ele><time>2022-03-04T16:27:32Z</time><name>PT8347</name></trkpt>
<trkpt lat="52.033316" lon="05.784589"><ele>44.1</ele><time>2022-03-04T16:27:33Z</time><name>PT8348</name></trkpt>
<trkpt lat="52.033302" lon="05.784588"><ele>44.1</ele><time>2022-03-04T16:27:34Z</time><name>PT8349</name></trkpt>
<trkpt lat="52.033284" lon="05.784591"><ele>44</ele><time>2022-03-04T16:27:35Z</time><name>PT8350</name></trkpt>
<trkpt lat="52.033268" lon="05.784591"><ele>44</ele><time>2022-03-04T16:27:36Z</time><name>PT8351</name></trkpt>
<trkpt lat="52.033257" lon="05.784594"><ele>44</ele><time>2022-03-04T16:27:37Z</time><name>PT8352</name></trkpt>
<trkpt lat="52.033248" lon="05.784598"><ele>43.9</ele><time>2022-03-04T16:27:38Z</time><name>PT8353</name></trkpt>
<trkpt lat="52.033240" lon="05.784602"><ele>43.9</ele><time>2022-03-04T16:27:39Z</time><name>PT8354</name></trkpt>
<trkpt lat="52.033231" lon="05.784610"><ele>44</ele><time>2022-03-04T16:27:40Z</time><name>PT8355</name></trkpt>
<trkpt lat="52.033221" lon="05.784622"><ele>43.8</ele><time>2022-03-04T16:27:41Z</time><name>PT8356</name></trkpt>
<trkpt lat="52.033205" lon="05.784624"><ele>43.6</ele><time>2022-03-04T16:27:42Z</time><name>PT8357</name></trkpt>
<trkpt lat="52.033187" lon="05.784622"><ele>43.7</ele><time>2022-03-04T16:27:43Z</time><name>PT8358</name></trkpt>
<trkpt lat="52.033170" lon="05.784622"><ele>43.8</ele><time>2022-03-04T16:27:44Z</time><name>PT8359</name></trkpt>
<trkpt lat="52.033161" lon="05.784622"><ele>43.7</ele><time>2022-03-04T16:27:45Z</time><name>PT8360</name></trkpt>
<trkpt lat="52.033153" lon="05.784622"><ele>43.8</ele><time>2022-03-04T16:27:46Z</time><name>PT8361</name></trkpt>
<trkpt lat="52.033147" lon="05.784624"><ele>43.9</ele><time>2022-03-04T16:27:47Z</time><name>PT8362</name></trkpt>
<trkpt lat="52.033137" lon="05.784625"><ele>44</ele><time>2022-03-04T16:27:48Z</time><name>PT8363</name></trkpt>
<trkpt lat="52.033122" lon="05.784625"><ele>44</ele><time>2022-03-04T16:27:49Z</time><name>PT8364</name></trkpt>
<trkpt lat="52.033107" lon="05.784622"><ele>44</ele><time>2022-03-04T16:27:50Z</time><name>PT8365</name></trkpt>
<trkpt lat="52.033090" lon="05.784610"><ele>44</ele><time>2022-03-04T16:27:51Z</time><name>PT8366</name></trkpt>
<trkpt lat="52.033080" lon="05.784612"><ele>44</ele><time>2022-03-04T16:27:52Z</time><name>PT8367</name></trkpt>
<trkpt lat="52.033073" lon="05.784616"><ele>44</ele><time>2022-03-04T16:27:53Z</time><name>PT8368</name></trkpt>
<trkpt lat="52.033067" lon="05.784621"><ele>43.9</ele><time>2022-03-04T16:27:54Z</time><name>PT8369</name></trkpt>
<trkpt lat="52.033058" lon="05.784625"><ele>43.9</ele><time>2022-03-04T16:27:55Z</time><name>PT8370</name></trkpt>
<trkpt lat="52.033045" lon="05.784629"><ele>43.8</ele><time>2022-03-04T16:27:56Z</time><name>PT8371</name></trkpt>
<trkpt lat="52.033032" lon="05.784630"><ele>44</ele><time>2022-03-04T16:27:57Z</time><name>PT8372</name></trkpt>
<trkpt lat="52.033023" lon="05.784629"><ele>44</ele><time>2022-03-04T16:27:58Z</time><name>PT8373</name></trkpt>
<trkpt lat="52.033016" lon="05.784630"><ele>44</ele><time>2022-03-04T16:27:59Z</time><name>PT8374</name></trkpt>
<trkpt lat="52.033009" lon="05.784638"><ele>44.1</ele><time>2022-03-04T16:28:00Z</time><name>PT8375</name></trkpt>
<trkpt lat="52.033002" lon="05.784642"><ele>44.2</ele><time>2022-03-04T16:28:01Z</time><name>PT8376</name></trkpt>
<trkpt lat="52.032993" lon="05.784648"><ele>44</ele><time>2022-03-04T16:28:02Z</time><name>PT8377</name></trkpt>
<trkpt lat="52.032984" lon="05.784652"><ele>44</ele><time>2022-03-04T16:28:03Z</time><name>PT8378</name></trkpt>
<trkpt lat="52.032971" lon="05.784653"><ele>44</ele><time>2022-03-04T16:28:04Z</time><name>PT8379</name></trkpt>
<trkpt lat="52.032958" lon="05.784650"><ele>43.7</ele><time>2022-03-04T16:28:05Z</time><name>PT8380</name></trkpt>
<trkpt lat="52.032948" lon="05.784656"><ele>43.8</ele><time>2022-03-04T16:28:06Z</time><name>PT8381</name></trkpt>
<trkpt lat="52.032940" lon="05.784663"><ele>43.7</ele><time>2022-03-04T16:28:07Z</time><name>PT8382</name></trkpt>
<trkpt lat="52.032932" lon="05.784664"><ele>43.8</ele><time>2022-03-04T16:28:08Z</time><name>PT8383</name></trkpt>
<trkpt lat="52.032916" lon="05.784672"><ele>43.9</ele><time>2022-03-04T16:28:09Z</time><name>PT8384</name></trkpt>
<trkpt lat="52.032900" lon="05.784681"><ele>43.9</ele><time>2022-03-04T16:28:10Z</time><name>PT8385</name></trkpt>
<trkpt lat="52.032886" lon="05.784686"><ele>43.9</ele><time>2022-03-04T16:28:11Z</time><name>PT8386</name></trkpt>
<trkpt lat="52.032873" lon="05.784686"><ele>44</ele><time>2022-03-04T16:28:12Z</time><name>PT8387</name></trkpt>
<trkpt lat="52.032860" lon="05.784686"><ele>44</ele><time>2022-03-04T16:28:13Z</time><name>PT8388</name></trkpt>
<trkpt lat="52.032849" lon="05.784686"><ele>43.9</ele><time>2022-03-04T16:28:14Z</time><name>PT8389</name></trkpt>
<trkpt lat="52.032842" lon="05.784685"><ele>44.1</ele><time>2022-03-04T16:28:15Z</time><name>PT8390</name></trkpt>
<trkpt lat="52.032838" lon="05.784687"><ele>44.1</ele><time>2022-03-04T16:28:16Z</time><name>PT8391</name></trkpt>
<trkpt lat="52.032833" lon="05.784689"><ele>44.1</ele><time>2022-03-04T16:28:17Z</time><name>PT8392</name></trkpt>
<trkpt lat="52.032819" lon="05.784684"><ele>44</ele><time>2022-03-04T16:28:18Z</time><name>PT8393</name></trkpt>
<trkpt lat="52.032808" lon="05.784680"><ele>44</ele><time>2022-03-04T16:28:19Z</time><name>PT8394</name></trkpt>
<trkpt lat="52.032795" lon="05.784677"><ele>43.9</ele><time>2022-03-04T16:28:20Z</time><name>PT8395</name></trkpt>
<trkpt lat="52.032785" lon="05.784677"><ele>44</ele><time>2022-03-04T16:28:21Z</time><name>PT8396</name></trkpt>
<trkpt lat="52.032776" lon="05.784682"><ele>44</ele><time>2022-03-04T16:28:22Z</time><name>PT8397</name></trkpt>
<trkpt lat="52.032766" lon="05.784689"><ele>44</ele><time>2022-03-04T16:28:23Z</time><name>PT8398</name></trkpt>
<trkpt lat="52.032757" lon="05.784696"><ele>43.9</ele><time>2022-03-04T16:28:24Z</time><name>PT8399</name></trkpt>
<trkpt lat="52.032742" lon="05.784702"><ele>44</ele><time>2022-03-04T16:28:25Z</time><name>PT8400</name></trkpt>
<trkpt lat="52.032729" lon="05.784706"><ele>44</ele><time>2022-03-04T16:28:26Z</time><name>PT8401</name></trkpt>
<trkpt lat="52.032715" lon="05.784707"><ele>44</ele><time>2022-03-04T16:28:27Z</time><name>PT8402</name></trkpt>
<trkpt lat="52.032707" lon="05.784708"><ele>44</ele><time>2022-03-04T16:28:28Z</time><name>PT8403</name></trkpt>
<trkpt lat="52.032698" lon="05.784710"><ele>44.3</ele><time>2022-03-04T16:28:29Z</time><name>PT8404</name></trkpt>
<trkpt lat="52.032688" lon="05.784713"><ele>44.3</ele><time>2022-03-04T16:28:30Z</time><name>PT8405</name></trkpt>
<trkpt lat="52.032677" lon="05.784717"><ele>44.4</ele><time>2022-03-04T16:28:31Z</time><name>PT8406</name></trkpt>
<trkpt lat="52.032663" lon="05.784719"><ele>44.5</ele><time>2022-03-04T16:28:32Z</time><name>PT8407</name></trkpt>
<trkpt lat="52.032650" lon="05.784716"><ele>44.5</ele><time>2022-03-04T16:28:33Z</time><name>PT8408</name></trkpt>
<trkpt lat="52.032639" lon="05.784716"><ele>44.5</ele><time>2022-03-04T16:28:34Z</time><name>PT8409</name></trkpt>
<trkpt lat="52.032628" lon="05.784719"><ele>44.5</ele><time>2022-03-04T16:28:35Z</time><name>PT8410</name></trkpt>
<trkpt lat="52.032621" lon="05.784723"><ele>44.5</ele><time>2022-03-04T16:28:36Z</time><name>PT8411</name></trkpt>
<trkpt lat="52.032610" lon="05.784731"><ele>44.5</ele><time>2022-03-04T16:28:37Z</time><name>PT8412</name></trkpt>
<trkpt lat="52.032598" lon="05.784741"><ele>44.5</ele><time>2022-03-04T16:28:38Z</time><name>PT8413</name></trkpt>
<trkpt lat="52.032587" lon="05.784748"><ele>44.5</ele><time>2022-03-04T16:28:39Z</time><name>PT8414</name></trkpt>
<trkpt lat="52.032577" lon="05.784756"><ele>44.7</ele><time>2022-03-04T16:28:40Z</time><name>PT8415</name></trkpt>
<trkpt lat="52.032565" lon="05.784763"><ele>44.8</ele><time>2022-03-04T16:28:41Z</time><name>PT8416</name></trkpt>
<trkpt lat="52.032554" lon="05.784767"><ele>44.7</ele><time>2022-03-04T16:28:42Z</time><name>PT8417</name></trkpt>
<trkpt lat="52.032544" lon="05.784775"><ele>44.7</ele><time>2022-03-04T16:28:43Z</time><name>PT8418</name></trkpt>
<trkpt lat="52.032535" lon="05.784781"><ele>44.6</ele><time>2022-03-04T16:28:44Z</time><name>PT8419</name></trkpt>
<trkpt lat="52.032526" lon="05.784791"><ele>44.5</ele><time>2022-03-04T16:28:45Z</time><name>PT8420</name></trkpt>
<trkpt lat="52.032516" lon="05.784801"><ele>44.6</ele><time>2022-03-04T16:28:46Z</time><name>PT8421</name></trkpt>
<trkpt lat="52.032505" lon="05.784808"><ele>44.6</ele><time>2022-03-04T16:28:47Z</time><name>PT8422</name></trkpt>
<trkpt lat="52.032492" lon="05.784814"><ele>44.6</ele><time>2022-03-04T16:28:48Z</time><name>PT8423</name></trkpt>
<trkpt lat="52.032482" lon="05.784814"><ele>44.6</ele><time>2022-03-04T16:28:49Z</time><name>PT8424</name></trkpt>
<trkpt lat="52.032473" lon="05.784816"><ele>44.5</ele><time>2022-03-04T16:28:50Z</time><name>PT8425</name></trkpt>
<trkpt lat="52.032462" lon="05.784818"><ele>44.5</ele><time>2022-03-04T16:28:51Z</time><name>PT8426</name></trkpt>
<trkpt lat="52.032451" lon="05.784817"><ele>44.6</ele><time>2022-03-04T16:28:52Z</time><name>PT8427</name></trkpt>
<trkpt lat="52.032440" lon="05.784818"><ele>44.7</ele><time>2022-03-04T16:28:53Z</time><name>PT8428</name></trkpt>
<trkpt lat="52.032430" lon="05.784820"><ele>44.9</ele><time>2022-03-04T16:28:54Z</time><name>PT8429</name></trkpt>
<trkpt lat="52.032420" lon="05.784824"><ele>44.9</ele><time>2022-03-04T16:28:55Z</time><name>PT8430</name></trkpt>
<trkpt lat="52.032410" lon="05.784831"><ele>44.9</ele><time>2022-03-04T16:28:56Z</time><name>PT8431</name></trkpt>
<trkpt lat="52.032399" lon="05.784837"><ele>44.8</ele><time>2022-03-04T16:28:57Z</time><name>PT8432</name></trkpt>
<trkpt lat="52.032387" lon="05.784842"><ele>44.8</ele><time>2022-03-04T16:28:58Z</time><name>PT8433</name></trkpt>
<trkpt lat="52.032376" lon="05.784844"><ele>44.6</ele><time>2022-03-04T16:28:59Z</time><name>PT8434</name></trkpt>
<trkpt lat="52.032364" lon="05.784852"><ele>44.7</ele><time>2022-03-04T16:29:00Z</time><name>PT8435</name></trkpt>
<trkpt lat="52.032356" lon="05.784851"><ele>44.7</ele><time>2022-03-04T16:29:01Z</time><name>PT8436</name></trkpt>
<trkpt lat="52.032350" lon="05.784856"><ele>44.8</ele><time>2022-03-04T16:29:02Z</time><name>PT8437</name></trkpt>
<trkpt lat="52.032346" lon="05.784865"><ele>44.7</ele><time>2022-03-04T16:29:03Z</time><name>PT8438</name></trkpt>
<trkpt lat="52.032342" lon="05.784879"><ele>44.8</ele><time>2022-03-04T16:29:04Z</time><name>PT8439</name></trkpt>
<trkpt lat="52.032340" lon="05.784897"><ele>44.9</ele><time>2022-03-04T16:29:05Z</time><name>PT8440</name></trkpt>
<trkpt lat="52.032340" lon="05.784911"><ele>44.8</ele><time>2022-03-04T16:29:06Z</time><name>PT8441</name></trkpt>
<trkpt lat="52.032341" lon="05.784925"><ele>44.8</ele><time>2022-03-04T16:29:07Z</time><name>PT8442</name></trkpt>
<trkpt lat="52.032339" lon="05.784942"><ele>45.1</ele><time>2022-03-04T16:29:08Z</time><name>PT8443</name></trkpt>
<trkpt lat="52.032338" lon="05.784959"><ele>45.4</ele><time>2022-03-04T16:29:09Z</time><name>PT8444</name></trkpt>
<trkpt lat="52.032336" lon="05.784973"><ele>45.2</ele><time>2022-03-04T16:29:10Z</time><name>PT8445</name></trkpt>
<trkpt lat="52.032333" lon="05.784985"><ele>45.3</ele><time>2022-03-04T16:29:11Z</time><name>PT8446</name></trkpt>
<trkpt lat="52.032324" lon="05.785000"><ele>45.3</ele><time>2022-03-04T16:29:12Z</time><name>PT8447</name></trkpt>
<trkpt lat="52.032313" lon="05.785010"><ele>45.1</ele><time>2022-03-04T16:29:13Z</time><name>PT8448</name></trkpt>
<trkpt lat="52.032303" lon="05.785021"><ele>44.9</ele><time>2022-03-04T16:29:14Z</time><name>PT8449</name></trkpt>
<trkpt lat="52.032293" lon="05.785028"><ele>44.9</ele><time>2022-03-04T16:29:15Z</time><name>PT8450</name></trkpt>
<trkpt lat="52.032284" lon="05.785035"><ele>44.8</ele><time>2022-03-04T16:29:16Z</time><name>PT8451</name></trkpt>
<trkpt lat="52.032273" lon="05.785045"><ele>44.9</ele><time>2022-03-04T16:29:17Z</time><name>PT8452</name></trkpt>
<trkpt lat="52.032265" lon="05.785048"><ele>44.9</ele><time>2022-03-04T16:29:18Z</time><name>PT8453</name></trkpt>
<trkpt lat="52.032255" lon="05.785048"><ele>44.9</ele><time>2022-03-04T16:29:19Z</time><name>PT8454</name></trkpt>
<trkpt lat="52.032246" lon="05.785052"><ele>45.1</ele><time>2022-03-04T16:29:20Z</time><name>PT8455</name></trkpt>
<trkpt lat="52.032239" lon="05.785056"><ele>45</ele><time>2022-03-04T16:29:21Z</time><name>PT8456</name></trkpt>
<trkpt lat="52.032231" lon="05.785059"><ele>45.1</ele><time>2022-03-04T16:29:22Z</time><name>PT8457</name></trkpt>
<trkpt lat="52.032222" lon="05.785060"><ele>45</ele><time>2022-03-04T16:29:23Z</time><name>PT8458</name></trkpt>
<trkpt lat="52.032214" lon="05.785063"><ele>45</ele><time>2022-03-04T16:29:25Z</time><name>PT8459</name></trkpt>
<trkpt lat="52.032207" lon="05.785067"><ele>45.1</ele><time>2022-03-04T16:29:25Z</time><name>PT8460</name></trkpt>
<trkpt lat="52.032200" lon="05.785070"><ele>45.3</ele><time>2022-03-04T16:29:26Z</time><name>PT8461</name></trkpt>
<trkpt lat="52.032195" lon="05.785072"><ele>45.3</ele><time>2022-03-04T16:29:27Z</time><name>PT8462</name></trkpt>
<trkpt lat="52.032193" lon="05.785075"><ele>45.3</ele><time>2022-03-04T16:29:28Z</time><name>PT8463</name></trkpt></trkseg></trk></gpx>